<?xml version="1.0" encoding="UTF-8" standalone="no" ?>
<gpx xmlns="http://www.topografix.com/GPX/1/1" xmlns:xsi="http://www.w3.org/2001/XMLSchema-instance" xsi:schemaLocation="http://www.topografix.com/GPX/1/1 http://www.topografix.com/GPX/1/1/gpx.xsd" version="1.1" creator="VisuGPX - https://www.visugpx.com">
  <metadata>
    <name>Laroque Plateau de Thaurac </name>
  </metadata>
  <trk>
    <name><![CDATA[Laroque Plateau de Thaurac _1]]></name>
    <trkseg>
      <trkpt lat="43.66735" lon="3.9118">
        <ele>54.3</ele>
        <time>2021-03-27T10:20:11Z</time>
      </trkpt>
      <trkpt lat="43.66737" lon="3.91183">
        <ele>54.2</ele>
        <time>2021-03-27T10:20:12Z</time>
      </trkpt>
      <trkpt lat="43.66738" lon="3.91186">
        <ele>54.1</ele>
        <time>2021-03-27T10:20:13Z</time>
      </trkpt>
      <trkpt lat="43.66739" lon="3.9119">
        <ele>54.1</ele>
        <time>2021-03-27T10:20:15Z</time>
      </trkpt>
      <trkpt lat="43.66739" lon="3.91193">
        <ele>54</ele>
        <time>2021-03-27T10:20:17Z</time>
      </trkpt>
      <trkpt lat="43.66741" lon="3.91192">
        <ele>59</ele>
        <time>2021-03-27T10:20:54Z</time>
      </trkpt>
      <trkpt lat="43.66742" lon="3.91194">
        <ele>59</ele>
        <time>2021-03-27T10:20:55Z</time>
      </trkpt>
      <trkpt lat="43.66741" lon="3.91197">
        <ele>59</ele>
        <time>2021-03-27T10:20:57Z</time>
      </trkpt>
      <trkpt lat="43.6674" lon="3.9119">
        <ele>58</ele>
        <time>2021-03-27T10:21:14Z</time>
      </trkpt>
      <trkpt lat="43.66739" lon="3.91188">
        <ele>58</ele>
        <time>2021-03-27T10:21:15Z</time>
      </trkpt>
      <trkpt lat="43.66739" lon="3.91183">
        <ele>58</ele>
        <time>2021-03-27T10:21:17Z</time>
      </trkpt>
      <trkpt lat="43.66739" lon="3.91179">
        <ele>58</ele>
        <time>2021-03-27T10:21:18Z</time>
      </trkpt>
      <trkpt lat="43.66736" lon="3.91176">
        <ele>58</ele>
        <time>2021-03-27T10:21:20Z</time>
      </trkpt>
      <trkpt lat="43.66734" lon="3.91175">
        <ele>58</ele>
        <time>2021-03-27T10:21:21Z</time>
      </trkpt>
      <trkpt lat="43.66732" lon="3.91174">
        <ele>58</ele>
        <time>2021-03-27T10:21:22Z</time>
      </trkpt>
      <trkpt lat="43.66731" lon="3.91171">
        <ele>59</ele>
        <time>2021-03-27T10:21:23Z</time>
      </trkpt>
      <trkpt lat="43.66731" lon="3.91169">
        <ele>59</ele>
        <time>2021-03-27T10:21:24Z</time>
      </trkpt>
      <trkpt lat="43.66731" lon="3.91162">
        <ele>59</ele>
        <time>2021-03-27T10:21:26Z</time>
      </trkpt>
      <trkpt lat="43.66731" lon="3.91159">
        <ele>59</ele>
        <time>2021-03-27T10:21:27Z</time>
      </trkpt>
      <trkpt lat="43.6673" lon="3.91156">
        <ele>59</ele>
        <time>2021-03-27T10:21:28Z</time>
      </trkpt>
      <trkpt lat="43.66729" lon="3.91153">
        <ele>59</ele>
        <time>2021-03-27T10:21:29Z</time>
      </trkpt>
      <trkpt lat="43.66728" lon="3.91146">
        <ele>59</ele>
        <time>2021-03-27T10:21:31Z</time>
      </trkpt>
      <trkpt lat="43.66728" lon="3.91143">
        <ele>59</ele>
        <time>2021-03-27T10:21:32Z</time>
      </trkpt>
      <trkpt lat="43.66727" lon="3.91139">
        <ele>59</ele>
        <time>2021-03-27T10:21:33Z</time>
      </trkpt>
      <trkpt lat="43.66727" lon="3.91135">
        <ele>59</ele>
        <time>2021-03-27T10:21:34Z</time>
      </trkpt>
      <trkpt lat="43.66727" lon="3.91128">
        <ele>59</ele>
        <time>2021-03-27T10:21:36Z</time>
      </trkpt>
      <trkpt lat="43.66726" lon="3.91124">
        <ele>59</ele>
        <time>2021-03-27T10:21:37Z</time>
      </trkpt>
      <trkpt lat="43.66726" lon="3.91119">
        <ele>59</ele>
        <time>2021-03-27T10:21:38Z</time>
      </trkpt>
      <trkpt lat="43.66726" lon="3.91115">
        <ele>59</ele>
        <time>2021-03-27T10:21:39Z</time>
      </trkpt>
      <trkpt lat="43.66725" lon="3.9111">
        <ele>59</ele>
        <time>2021-03-27T10:21:40Z</time>
      </trkpt>
      <trkpt lat="43.66725" lon="3.91105">
        <ele>59</ele>
        <time>2021-03-27T10:21:41Z</time>
      </trkpt>
      <trkpt lat="43.66725" lon="3.91101">
        <ele>59</ele>
        <time>2021-03-27T10:21:42Z</time>
      </trkpt>
      <trkpt lat="43.66725" lon="3.91096">
        <ele>59</ele>
        <time>2021-03-27T10:21:43Z</time>
      </trkpt>
      <trkpt lat="43.66725" lon="3.91092">
        <ele>59</ele>
        <time>2021-03-27T10:21:45Z</time>
      </trkpt>
      <trkpt lat="43.66725" lon="3.91083">
        <ele>59</ele>
        <time>2021-03-27T10:21:46Z</time>
      </trkpt>
      <trkpt lat="43.66725" lon="3.91079">
        <ele>59</ele>
        <time>2021-03-27T10:21:47Z</time>
      </trkpt>
      <trkpt lat="43.66725" lon="3.91075">
        <ele>59</ele>
        <time>2021-03-27T10:21:48Z</time>
      </trkpt>
      <trkpt lat="43.66725" lon="3.9107">
        <ele>59</ele>
        <time>2021-03-27T10:21:49Z</time>
      </trkpt>
      <trkpt lat="43.66725" lon="3.91065">
        <ele>59</ele>
        <time>2021-03-27T10:21:51Z</time>
      </trkpt>
      <trkpt lat="43.66725" lon="3.91055">
        <ele>59</ele>
        <time>2021-03-27T10:21:52Z</time>
      </trkpt>
      <trkpt lat="43.66726" lon="3.91046">
        <ele>59</ele>
        <time>2021-03-27T10:21:54Z</time>
      </trkpt>
      <trkpt lat="43.66726" lon="3.91041">
        <ele>59</ele>
        <time>2021-03-27T10:21:55Z</time>
      </trkpt>
      <trkpt lat="43.66726" lon="3.91037">
        <ele>59</ele>
        <time>2021-03-27T10:21:56Z</time>
      </trkpt>
      <trkpt lat="43.66726" lon="3.91032">
        <ele>59</ele>
        <time>2021-03-27T10:21:57Z</time>
      </trkpt>
      <trkpt lat="43.66726" lon="3.91027">
        <ele>59</ele>
        <time>2021-03-27T10:21:58Z</time>
      </trkpt>
      <trkpt lat="43.66726" lon="3.91022">
        <ele>59</ele>
        <time>2021-03-27T10:21:59Z</time>
      </trkpt>
      <trkpt lat="43.66726" lon="3.91017">
        <ele>59</ele>
        <time>2021-03-27T10:22:00Z</time>
      </trkpt>
      <trkpt lat="43.66727" lon="3.91013">
        <ele>59</ele>
        <time>2021-03-27T10:22:01Z</time>
      </trkpt>
      <trkpt lat="43.66727" lon="3.91004">
        <ele>59</ele>
        <time>2021-03-27T10:22:03Z</time>
      </trkpt>
      <trkpt lat="43.66728" lon="3.91">
        <ele>59</ele>
        <time>2021-03-27T10:22:04Z</time>
      </trkpt>
      <trkpt lat="43.66729" lon="3.90996">
        <ele>59</ele>
        <time>2021-03-27T10:22:05Z</time>
      </trkpt>
      <trkpt lat="43.66729" lon="3.90992">
        <ele>59</ele>
        <time>2021-03-27T10:22:06Z</time>
      </trkpt>
      <trkpt lat="43.6673" lon="3.90989">
        <ele>59</ele>
        <time>2021-03-27T10:22:07Z</time>
      </trkpt>
      <trkpt lat="43.66731" lon="3.90985">
        <ele>59</ele>
        <time>2021-03-27T10:22:08Z</time>
      </trkpt>
      <trkpt lat="43.66733" lon="3.90981">
        <ele>59</ele>
        <time>2021-03-27T10:22:09Z</time>
      </trkpt>
      <trkpt lat="43.66734" lon="3.90977">
        <ele>59</ele>
        <time>2021-03-27T10:22:10Z</time>
      </trkpt>
      <trkpt lat="43.66737" lon="3.9097">
        <ele>59</ele>
        <time>2021-03-27T10:22:12Z</time>
      </trkpt>
      <trkpt lat="43.66739" lon="3.90966">
        <ele>59</ele>
        <time>2021-03-27T10:22:13Z</time>
      </trkpt>
      <trkpt lat="43.6674" lon="3.90963">
        <ele>59</ele>
        <time>2021-03-27T10:22:14Z</time>
      </trkpt>
      <trkpt lat="43.66742" lon="3.90961">
        <ele>59</ele>
        <time>2021-03-27T10:22:15Z</time>
      </trkpt>
      <trkpt lat="43.66745" lon="3.90959">
        <ele>59</ele>
        <time>2021-03-27T10:22:16Z</time>
      </trkpt>
      <trkpt lat="43.6675" lon="3.90958">
        <ele>59</ele>
        <time>2021-03-27T10:22:18Z</time>
      </trkpt>
      <trkpt lat="43.66753" lon="3.90959">
        <ele>59</ele>
        <time>2021-03-27T10:22:19Z</time>
      </trkpt>
      <trkpt lat="43.66759" lon="3.90959">
        <ele>59</ele>
        <time>2021-03-27T10:22:21Z</time>
      </trkpt>
      <trkpt lat="43.66763" lon="3.90959">
        <ele>59</ele>
        <time>2021-03-27T10:22:22Z</time>
      </trkpt>
      <trkpt lat="43.66769" lon="3.90962">
        <ele>58</ele>
        <time>2021-03-27T10:22:24Z</time>
      </trkpt>
      <trkpt lat="43.66772" lon="3.90965">
        <ele>58</ele>
        <time>2021-03-27T10:22:25Z</time>
      </trkpt>
      <trkpt lat="43.66774" lon="3.90969">
        <ele>58</ele>
        <time>2021-03-27T10:22:26Z</time>
      </trkpt>
      <trkpt lat="43.66776" lon="3.90972">
        <ele>58</ele>
        <time>2021-03-27T10:22:27Z</time>
      </trkpt>
      <trkpt lat="43.66779" lon="3.90975">
        <ele>58</ele>
        <time>2021-03-27T10:22:28Z</time>
      </trkpt>
      <trkpt lat="43.66781" lon="3.90979">
        <ele>58</ele>
        <time>2021-03-27T10:22:29Z</time>
      </trkpt>
      <trkpt lat="43.66786" lon="3.90985">
        <ele>58</ele>
        <time>2021-03-27T10:22:31Z</time>
      </trkpt>
      <trkpt lat="43.66788" lon="3.90988">
        <ele>58</ele>
        <time>2021-03-27T10:22:32Z</time>
      </trkpt>
      <trkpt lat="43.6679" lon="3.90992">
        <ele>58</ele>
        <time>2021-03-27T10:22:33Z</time>
      </trkpt>
      <trkpt lat="43.66792" lon="3.90995">
        <ele>58</ele>
        <time>2021-03-27T10:22:35Z</time>
      </trkpt>
      <trkpt lat="43.66797" lon="3.91002">
        <ele>58</ele>
        <time>2021-03-27T10:22:36Z</time>
      </trkpt>
      <trkpt lat="43.66799" lon="3.91006">
        <ele>58</ele>
        <time>2021-03-27T10:22:37Z</time>
      </trkpt>
      <trkpt lat="43.66802" lon="3.9101">
        <ele>58</ele>
        <time>2021-03-27T10:22:38Z</time>
      </trkpt>
      <trkpt lat="43.66805" lon="3.91014">
        <ele>58</ele>
        <time>2021-03-27T10:22:39Z</time>
      </trkpt>
      <trkpt lat="43.66807" lon="3.91019">
        <ele>58</ele>
        <time>2021-03-27T10:22:40Z</time>
      </trkpt>
      <trkpt lat="43.6681" lon="3.91024">
        <ele>58</ele>
        <time>2021-03-27T10:22:41Z</time>
      </trkpt>
      <trkpt lat="43.66814" lon="3.91028">
        <ele>58</ele>
        <time>2021-03-27T10:22:42Z</time>
      </trkpt>
      <trkpt lat="43.66817" lon="3.91032">
        <ele>59</ele>
        <time>2021-03-27T10:22:43Z</time>
      </trkpt>
      <trkpt lat="43.6682" lon="3.91037">
        <ele>59</ele>
        <time>2021-03-27T10:22:44Z</time>
      </trkpt>
      <trkpt lat="43.66823" lon="3.91041">
        <ele>59</ele>
        <time>2021-03-27T10:22:45Z</time>
      </trkpt>
      <trkpt lat="43.66826" lon="3.91046">
        <ele>59</ele>
        <time>2021-03-27T10:22:46Z</time>
      </trkpt>
      <trkpt lat="43.66829" lon="3.91051">
        <ele>59</ele>
        <time>2021-03-27T10:22:47Z</time>
      </trkpt>
      <trkpt lat="43.66832" lon="3.91054">
        <ele>59</ele>
        <time>2021-03-27T10:22:48Z</time>
      </trkpt>
      <trkpt lat="43.66836" lon="3.91058">
        <ele>59</ele>
        <time>2021-03-27T10:22:49Z</time>
      </trkpt>
      <trkpt lat="43.66839" lon="3.91063">
        <ele>59</ele>
        <time>2021-03-27T10:22:50Z</time>
      </trkpt>
      <trkpt lat="43.66842" lon="3.91067">
        <ele>59</ele>
        <time>2021-03-27T10:22:51Z</time>
      </trkpt>
      <trkpt lat="43.66845" lon="3.9107">
        <ele>59</ele>
        <time>2021-03-27T10:22:52Z</time>
      </trkpt>
      <trkpt lat="43.66848" lon="3.91074">
        <ele>59</ele>
        <time>2021-03-27T10:22:53Z</time>
      </trkpt>
      <trkpt lat="43.66851" lon="3.91078">
        <ele>59</ele>
        <time>2021-03-27T10:22:54Z</time>
      </trkpt>
      <trkpt lat="43.66854" lon="3.91082">
        <ele>59</ele>
        <time>2021-03-27T10:22:55Z</time>
      </trkpt>
      <trkpt lat="43.66858" lon="3.91086">
        <ele>59</ele>
        <time>2021-03-27T10:22:56Z</time>
      </trkpt>
      <trkpt lat="43.66861" lon="3.9109">
        <ele>59</ele>
        <time>2021-03-27T10:22:57Z</time>
      </trkpt>
      <trkpt lat="43.66864" lon="3.91094">
        <ele>59</ele>
        <time>2021-03-27T10:22:58Z</time>
      </trkpt>
      <trkpt lat="43.66868" lon="3.91097">
        <ele>59</ele>
        <time>2021-03-27T10:23:00Z</time>
      </trkpt>
      <trkpt lat="43.66874" lon="3.91104">
        <ele>59</ele>
        <time>2021-03-27T10:23:01Z</time>
      </trkpt>
      <trkpt lat="43.66878" lon="3.91107">
        <ele>59</ele>
        <time>2021-03-27T10:23:02Z</time>
      </trkpt>
      <trkpt lat="43.66886" lon="3.91114">
        <ele>59</ele>
        <time>2021-03-27T10:23:04Z</time>
      </trkpt>
      <trkpt lat="43.66889" lon="3.91118">
        <ele>59</ele>
        <time>2021-03-27T10:23:05Z</time>
      </trkpt>
      <trkpt lat="43.66896" lon="3.91124">
        <ele>59</ele>
        <time>2021-03-27T10:23:07Z</time>
      </trkpt>
      <trkpt lat="43.66904" lon="3.91132">
        <ele>59</ele>
        <time>2021-03-27T10:23:09Z</time>
      </trkpt>
      <trkpt lat="43.66912" lon="3.9114">
        <ele>59</ele>
        <time>2021-03-27T10:23:11Z</time>
      </trkpt>
      <trkpt lat="43.66917" lon="3.91143">
        <ele>59</ele>
        <time>2021-03-27T10:23:12Z</time>
      </trkpt>
      <trkpt lat="43.66922" lon="3.91146">
        <ele>59</ele>
        <time>2021-03-27T10:23:14Z</time>
      </trkpt>
      <trkpt lat="43.66931" lon="3.91154">
        <ele>59</ele>
        <time>2021-03-27T10:23:15Z</time>
      </trkpt>
      <trkpt lat="43.66935" lon="3.91158">
        <ele>59</ele>
        <time>2021-03-27T10:23:16Z</time>
      </trkpt>
      <trkpt lat="43.6694" lon="3.91161">
        <ele>59</ele>
        <time>2021-03-27T10:23:17Z</time>
      </trkpt>
      <trkpt lat="43.66944" lon="3.91165">
        <ele>59</ele>
        <time>2021-03-27T10:23:18Z</time>
      </trkpt>
      <trkpt lat="43.66948" lon="3.91168">
        <ele>59</ele>
        <time>2021-03-27T10:23:19Z</time>
      </trkpt>
      <trkpt lat="43.66952" lon="3.91172">
        <ele>59</ele>
        <time>2021-03-27T10:23:21Z</time>
      </trkpt>
      <trkpt lat="43.66956" lon="3.91175">
        <ele>59</ele>
        <time>2021-03-27T10:23:22Z</time>
      </trkpt>
      <trkpt lat="43.66964" lon="3.91181">
        <ele>59</ele>
        <time>2021-03-27T10:23:23Z</time>
      </trkpt>
      <trkpt lat="43.66971" lon="3.91187">
        <ele>59</ele>
        <time>2021-03-27T10:23:25Z</time>
      </trkpt>
      <trkpt lat="43.66975" lon="3.91191">
        <ele>59</ele>
        <time>2021-03-27T10:23:26Z</time>
      </trkpt>
      <trkpt lat="43.66983" lon="3.91197">
        <ele>59</ele>
        <time>2021-03-27T10:23:28Z</time>
      </trkpt>
      <trkpt lat="43.66987" lon="3.91201">
        <ele>59</ele>
        <time>2021-03-27T10:23:29Z</time>
      </trkpt>
      <trkpt lat="43.6699" lon="3.91204">
        <ele>59</ele>
        <time>2021-03-27T10:23:30Z</time>
      </trkpt>
      <trkpt lat="43.66994" lon="3.91207">
        <ele>59</ele>
        <time>2021-03-27T10:23:31Z</time>
      </trkpt>
      <trkpt lat="43.67001" lon="3.91213">
        <ele>59</ele>
        <time>2021-03-27T10:23:33Z</time>
      </trkpt>
      <trkpt lat="43.67007" lon="3.91219">
        <ele>59</ele>
        <time>2021-03-27T10:23:35Z</time>
      </trkpt>
      <trkpt lat="43.67011" lon="3.91222">
        <ele>59</ele>
        <time>2021-03-27T10:23:36Z</time>
      </trkpt>
      <trkpt lat="43.67014" lon="3.91226">
        <ele>59</ele>
        <time>2021-03-27T10:23:37Z</time>
      </trkpt>
      <trkpt lat="43.67017" lon="3.91229">
        <ele>59</ele>
        <time>2021-03-27T10:23:38Z</time>
      </trkpt>
      <trkpt lat="43.67021" lon="3.91231">
        <ele>59</ele>
        <time>2021-03-27T10:23:39Z</time>
      </trkpt>
      <trkpt lat="43.67024" lon="3.91234">
        <ele>59</ele>
        <time>2021-03-27T10:23:40Z</time>
      </trkpt>
      <trkpt lat="43.67027" lon="3.91237">
        <ele>59</ele>
        <time>2021-03-27T10:23:41Z</time>
      </trkpt>
      <trkpt lat="43.6703" lon="3.91239">
        <ele>59</ele>
        <time>2021-03-27T10:23:42Z</time>
      </trkpt>
      <trkpt lat="43.67033" lon="3.91242">
        <ele>60</ele>
        <time>2021-03-27T10:23:43Z</time>
      </trkpt>
      <trkpt lat="43.67037" lon="3.91245">
        <ele>60</ele>
        <time>2021-03-27T10:23:44Z</time>
      </trkpt>
      <trkpt lat="43.6704" lon="3.91247">
        <ele>60</ele>
        <time>2021-03-27T10:23:45Z</time>
      </trkpt>
      <trkpt lat="43.67043" lon="3.9125">
        <ele>60</ele>
        <time>2021-03-27T10:23:46Z</time>
      </trkpt>
      <trkpt lat="43.67047" lon="3.91253">
        <ele>60</ele>
        <time>2021-03-27T10:23:47Z</time>
      </trkpt>
      <trkpt lat="43.6705" lon="3.91255">
        <ele>60</ele>
        <time>2021-03-27T10:23:48Z</time>
      </trkpt>
      <trkpt lat="43.67054" lon="3.91258">
        <ele>60</ele>
        <time>2021-03-27T10:23:49Z</time>
      </trkpt>
      <trkpt lat="43.67057" lon="3.9126">
        <ele>60</ele>
        <time>2021-03-27T10:23:50Z</time>
      </trkpt>
      <trkpt lat="43.67061" lon="3.91263">
        <ele>60</ele>
        <time>2021-03-27T10:23:51Z</time>
      </trkpt>
      <trkpt lat="43.67064" lon="3.91265">
        <ele>60</ele>
        <time>2021-03-27T10:23:52Z</time>
      </trkpt>
      <trkpt lat="43.67068" lon="3.91268">
        <ele>62</ele>
        <time>2021-03-27T10:23:53Z</time>
      </trkpt>
      <trkpt lat="43.67071" lon="3.9127">
        <ele>62</ele>
        <time>2021-03-27T10:23:54Z</time>
      </trkpt>
      <trkpt lat="43.67075" lon="3.91272">
        <ele>62</ele>
        <time>2021-03-27T10:23:55Z</time>
      </trkpt>
      <trkpt lat="43.67079" lon="3.91275">
        <ele>62</ele>
        <time>2021-03-27T10:23:56Z</time>
      </trkpt>
      <trkpt lat="43.67082" lon="3.91277">
        <ele>62</ele>
        <time>2021-03-27T10:23:57Z</time>
      </trkpt>
      <trkpt lat="43.67086" lon="3.91279">
        <ele>62</ele>
        <time>2021-03-27T10:23:58Z</time>
      </trkpt>
      <trkpt lat="43.6709" lon="3.91281">
        <ele>62</ele>
        <time>2021-03-27T10:23:59Z</time>
      </trkpt>
      <trkpt lat="43.67094" lon="3.91283">
        <ele>62</ele>
        <time>2021-03-27T10:24:00Z</time>
      </trkpt>
      <trkpt lat="43.67097" lon="3.91285">
        <ele>62</ele>
        <time>2021-03-27T10:24:01Z</time>
      </trkpt>
      <trkpt lat="43.67101" lon="3.91287">
        <ele>62</ele>
        <time>2021-03-27T10:24:02Z</time>
      </trkpt>
      <trkpt lat="43.67105" lon="3.9129">
        <ele>62</ele>
        <time>2021-03-27T10:24:03Z</time>
      </trkpt>
      <trkpt lat="43.67109" lon="3.91292">
        <ele>62</ele>
        <time>2021-03-27T10:24:04Z</time>
      </trkpt>
      <trkpt lat="43.67116" lon="3.91296">
        <ele>62</ele>
        <time>2021-03-27T10:24:06Z</time>
      </trkpt>
      <trkpt lat="43.6712" lon="3.913">
        <ele>62</ele>
        <time>2021-03-27T10:24:07Z</time>
      </trkpt>
      <trkpt lat="43.67123" lon="3.91304">
        <ele>62</ele>
        <time>2021-03-27T10:24:08Z</time>
      </trkpt>
      <trkpt lat="43.67125" lon="3.91309">
        <ele>62</ele>
        <time>2021-03-27T10:24:09Z</time>
      </trkpt>
      <trkpt lat="43.67127" lon="3.91314">
        <ele>62</ele>
        <time>2021-03-27T10:24:10Z</time>
      </trkpt>
      <trkpt lat="43.67129" lon="3.9132">
        <ele>62</ele>
        <time>2021-03-27T10:24:11Z</time>
      </trkpt>
      <trkpt lat="43.6713" lon="3.91325">
        <ele>62</ele>
        <time>2021-03-27T10:24:12Z</time>
      </trkpt>
      <trkpt lat="43.67132" lon="3.9133">
        <ele>62</ele>
        <time>2021-03-27T10:24:13Z</time>
      </trkpt>
      <trkpt lat="43.67135" lon="3.91334">
        <ele>62</ele>
        <time>2021-03-27T10:24:14Z</time>
      </trkpt>
      <trkpt lat="43.67139" lon="3.91337">
        <ele>62</ele>
        <time>2021-03-27T10:24:15Z</time>
      </trkpt>
      <trkpt lat="43.67142" lon="3.91339">
        <ele>62</ele>
        <time>2021-03-27T10:24:16Z</time>
      </trkpt>
      <trkpt lat="43.67145" lon="3.91342">
        <ele>62</ele>
        <time>2021-03-27T10:24:17Z</time>
      </trkpt>
      <trkpt lat="43.67148" lon="3.91345">
        <ele>62</ele>
        <time>2021-03-27T10:24:18Z</time>
      </trkpt>
      <trkpt lat="43.67151" lon="3.91347">
        <ele>62</ele>
        <time>2021-03-27T10:24:19Z</time>
      </trkpt>
      <trkpt lat="43.67155" lon="3.91347">
        <ele>62</ele>
        <time>2021-03-27T10:24:20Z</time>
      </trkpt>
      <trkpt lat="43.67159" lon="3.91347">
        <ele>62</ele>
        <time>2021-03-27T10:24:21Z</time>
      </trkpt>
      <trkpt lat="43.67163" lon="3.91347">
        <ele>62</ele>
        <time>2021-03-27T10:24:22Z</time>
      </trkpt>
      <trkpt lat="43.67167" lon="3.91345">
        <ele>62</ele>
        <time>2021-03-27T10:24:23Z</time>
      </trkpt>
      <trkpt lat="43.67172" lon="3.91344">
        <ele>62</ele>
        <time>2021-03-27T10:24:24Z</time>
      </trkpt>
      <trkpt lat="43.67176" lon="3.91341">
        <ele>62</ele>
        <time>2021-03-27T10:24:25Z</time>
      </trkpt>
      <trkpt lat="43.67179" lon="3.91338">
        <ele>62</ele>
        <time>2021-03-27T10:24:26Z</time>
      </trkpt>
      <trkpt lat="43.67187" lon="3.91335">
        <ele>62</ele>
        <time>2021-03-27T10:24:28Z</time>
      </trkpt>
      <trkpt lat="43.67191" lon="3.91336">
        <ele>62</ele>
        <time>2021-03-27T10:24:29Z</time>
      </trkpt>
      <trkpt lat="43.67195" lon="3.91338">
        <ele>62</ele>
        <time>2021-03-27T10:24:30Z</time>
      </trkpt>
      <trkpt lat="43.67199" lon="3.9134">
        <ele>62</ele>
        <time>2021-03-27T10:24:31Z</time>
      </trkpt>
      <trkpt lat="43.67203" lon="3.91343">
        <ele>62</ele>
        <time>2021-03-27T10:24:32Z</time>
      </trkpt>
      <trkpt lat="43.67207" lon="3.91345">
        <ele>62</ele>
        <time>2021-03-27T10:24:33Z</time>
      </trkpt>
      <trkpt lat="43.67212" lon="3.91347">
        <ele>62</ele>
        <time>2021-03-27T10:24:34Z</time>
      </trkpt>
      <trkpt lat="43.67216" lon="3.9135">
        <ele>62</ele>
        <time>2021-03-27T10:24:35Z</time>
      </trkpt>
      <trkpt lat="43.6722" lon="3.91352">
        <ele>62</ele>
        <time>2021-03-27T10:24:36Z</time>
      </trkpt>
      <trkpt lat="43.67224" lon="3.91355">
        <ele>62</ele>
        <time>2021-03-27T10:24:37Z</time>
      </trkpt>
      <trkpt lat="43.67228" lon="3.91357">
        <ele>62</ele>
        <time>2021-03-27T10:24:38Z</time>
      </trkpt>
      <trkpt lat="43.67232" lon="3.9136">
        <ele>62</ele>
        <time>2021-03-27T10:24:39Z</time>
      </trkpt>
      <trkpt lat="43.67241" lon="3.91367">
        <ele>62</ele>
        <time>2021-03-27T10:24:41Z</time>
      </trkpt>
      <trkpt lat="43.67245" lon="3.9137">
        <ele>62</ele>
        <time>2021-03-27T10:24:42Z</time>
      </trkpt>
      <trkpt lat="43.67249" lon="3.91374">
        <ele>62</ele>
        <time>2021-03-27T10:24:43Z</time>
      </trkpt>
      <trkpt lat="43.67253" lon="3.91378">
        <ele>62</ele>
        <time>2021-03-27T10:24:44Z</time>
      </trkpt>
      <trkpt lat="43.67257" lon="3.91381">
        <ele>62</ele>
        <time>2021-03-27T10:24:45Z</time>
      </trkpt>
      <trkpt lat="43.67261" lon="3.91385">
        <ele>62</ele>
        <time>2021-03-27T10:24:46Z</time>
      </trkpt>
      <trkpt lat="43.67265" lon="3.91389">
        <ele>62</ele>
        <time>2021-03-27T10:24:47Z</time>
      </trkpt>
      <trkpt lat="43.67269" lon="3.91393">
        <ele>62</ele>
        <time>2021-03-27T10:24:48Z</time>
      </trkpt>
      <trkpt lat="43.67273" lon="3.91397">
        <ele>62</ele>
        <time>2021-03-27T10:24:49Z</time>
      </trkpt>
      <trkpt lat="43.67277" lon="3.91401">
        <ele>62</ele>
        <time>2021-03-27T10:24:50Z</time>
      </trkpt>
      <trkpt lat="43.67281" lon="3.91405">
        <ele>62</ele>
        <time>2021-03-27T10:24:51Z</time>
      </trkpt>
      <trkpt lat="43.67285" lon="3.91409">
        <ele>62</ele>
        <time>2021-03-27T10:24:52Z</time>
      </trkpt>
      <trkpt lat="43.67293" lon="3.91417">
        <ele>62</ele>
        <time>2021-03-27T10:24:54Z</time>
      </trkpt>
      <trkpt lat="43.67297" lon="3.91421">
        <ele>62</ele>
        <time>2021-03-27T10:24:55Z</time>
      </trkpt>
      <trkpt lat="43.67301" lon="3.91425">
        <ele>62</ele>
        <time>2021-03-27T10:24:56Z</time>
      </trkpt>
      <trkpt lat="43.67304" lon="3.91429">
        <ele>62</ele>
        <time>2021-03-27T10:24:57Z</time>
      </trkpt>
      <trkpt lat="43.67308" lon="3.91433">
        <ele>62</ele>
        <time>2021-03-27T10:24:58Z</time>
      </trkpt>
      <trkpt lat="43.67313" lon="3.91437">
        <ele>62</ele>
        <time>2021-03-27T10:24:59Z</time>
      </trkpt>
      <trkpt lat="43.67317" lon="3.91441">
        <ele>62</ele>
        <time>2021-03-27T10:25:00Z</time>
      </trkpt>
      <trkpt lat="43.67321" lon="3.91444">
        <ele>62</ele>
        <time>2021-03-27T10:25:01Z</time>
      </trkpt>
      <trkpt lat="43.67324" lon="3.91449">
        <ele>62</ele>
        <time>2021-03-27T10:25:02Z</time>
      </trkpt>
      <trkpt lat="43.67327" lon="3.91453">
        <ele>62</ele>
        <time>2021-03-27T10:25:03Z</time>
      </trkpt>
      <trkpt lat="43.67329" lon="3.91457">
        <ele>62</ele>
        <time>2021-03-27T10:25:04Z</time>
      </trkpt>
      <trkpt lat="43.67332" lon="3.91461">
        <ele>62</ele>
        <time>2021-03-27T10:25:05Z</time>
      </trkpt>
      <trkpt lat="43.67341" lon="3.91469">
        <ele>62</ele>
        <time>2021-03-27T10:25:07Z</time>
      </trkpt>
      <trkpt lat="43.67345" lon="3.91473">
        <ele>62</ele>
        <time>2021-03-27T10:25:08Z</time>
      </trkpt>
      <trkpt lat="43.67349" lon="3.91476">
        <ele>62</ele>
        <time>2021-03-27T10:25:09Z</time>
      </trkpt>
      <trkpt lat="43.67354" lon="3.91479">
        <ele>62</ele>
        <time>2021-03-27T10:25:10Z</time>
      </trkpt>
      <trkpt lat="43.67358" lon="3.91482">
        <ele>62</ele>
        <time>2021-03-27T10:25:11Z</time>
      </trkpt>
      <trkpt lat="43.67362" lon="3.91486">
        <ele>62</ele>
        <time>2021-03-27T10:25:12Z</time>
      </trkpt>
      <trkpt lat="43.67366" lon="3.9149">
        <ele>62</ele>
        <time>2021-03-27T10:25:13Z</time>
      </trkpt>
      <trkpt lat="43.67369" lon="3.91494">
        <ele>62</ele>
        <time>2021-03-27T10:25:14Z</time>
      </trkpt>
      <trkpt lat="43.67377" lon="3.91502">
        <ele>62</ele>
        <time>2021-03-27T10:25:16Z</time>
      </trkpt>
      <trkpt lat="43.67382" lon="3.91507">
        <ele>62</ele>
        <time>2021-03-27T10:25:17Z</time>
      </trkpt>
      <trkpt lat="43.67391" lon="3.91514">
        <ele>62</ele>
        <time>2021-03-27T10:25:19Z</time>
      </trkpt>
      <trkpt lat="43.67399" lon="3.91523">
        <ele>62</ele>
        <time>2021-03-27T10:25:21Z</time>
      </trkpt>
      <trkpt lat="43.67403" lon="3.91527">
        <ele>62</ele>
        <time>2021-03-27T10:25:22Z</time>
      </trkpt>
      <trkpt lat="43.67411" lon="3.91534">
        <ele>63</ele>
        <time>2021-03-27T10:25:24Z</time>
      </trkpt>
      <trkpt lat="43.67414" lon="3.91537">
        <ele>63</ele>
        <time>2021-03-27T10:25:25Z</time>
      </trkpt>
      <trkpt lat="43.67418" lon="3.91542">
        <ele>63</ele>
        <time>2021-03-27T10:25:26Z</time>
      </trkpt>
      <trkpt lat="43.67422" lon="3.91546">
        <ele>63</ele>
        <time>2021-03-27T10:25:27Z</time>
      </trkpt>
      <trkpt lat="43.67425" lon="3.9155">
        <ele>63</ele>
        <time>2021-03-27T10:25:28Z</time>
      </trkpt>
      <trkpt lat="43.67428" lon="3.91554">
        <ele>63</ele>
        <time>2021-03-27T10:25:29Z</time>
      </trkpt>
      <trkpt lat="43.67432" lon="3.91558">
        <ele>63</ele>
        <time>2021-03-27T10:25:30Z</time>
      </trkpt>
      <trkpt lat="43.67436" lon="3.91562">
        <ele>63</ele>
        <time>2021-03-27T10:25:31Z</time>
      </trkpt>
      <trkpt lat="43.67439" lon="3.91566">
        <ele>63</ele>
        <time>2021-03-27T10:25:32Z</time>
      </trkpt>
      <trkpt lat="43.67443" lon="3.91571">
        <ele>63</ele>
        <time>2021-03-27T10:25:33Z</time>
      </trkpt>
      <trkpt lat="43.67446" lon="3.91575">
        <ele>63</ele>
        <time>2021-03-27T10:25:34Z</time>
      </trkpt>
      <trkpt lat="43.6745" lon="3.91579">
        <ele>63</ele>
        <time>2021-03-27T10:25:35Z</time>
      </trkpt>
      <trkpt lat="43.67453" lon="3.91583">
        <ele>63</ele>
        <time>2021-03-27T10:25:36Z</time>
      </trkpt>
      <trkpt lat="43.6746" lon="3.9159">
        <ele>63</ele>
        <time>2021-03-27T10:25:38Z</time>
      </trkpt>
      <trkpt lat="43.67463" lon="3.91594">
        <ele>63</ele>
        <time>2021-03-27T10:25:39Z</time>
      </trkpt>
      <trkpt lat="43.67466" lon="3.91597">
        <ele>63</ele>
        <time>2021-03-27T10:25:40Z</time>
      </trkpt>
      <trkpt lat="43.67469" lon="3.91601">
        <ele>63</ele>
        <time>2021-03-27T10:25:41Z</time>
      </trkpt>
      <trkpt lat="43.67472" lon="3.91604">
        <ele>63</ele>
        <time>2021-03-27T10:25:42Z</time>
      </trkpt>
      <trkpt lat="43.67475" lon="3.91606">
        <ele>64</ele>
        <time>2021-03-27T10:25:43Z</time>
      </trkpt>
      <trkpt lat="43.67478" lon="3.9161">
        <ele>64</ele>
        <time>2021-03-27T10:25:44Z</time>
      </trkpt>
      <trkpt lat="43.67481" lon="3.91613">
        <ele>64</ele>
        <time>2021-03-27T10:25:45Z</time>
      </trkpt>
      <trkpt lat="43.67484" lon="3.91617">
        <ele>64</ele>
        <time>2021-03-27T10:25:46Z</time>
      </trkpt>
      <trkpt lat="43.67488" lon="3.91621">
        <ele>64</ele>
        <time>2021-03-27T10:25:47Z</time>
      </trkpt>
      <trkpt lat="43.67491" lon="3.91626">
        <ele>64</ele>
        <time>2021-03-27T10:25:48Z</time>
      </trkpt>
      <trkpt lat="43.67494" lon="3.9163">
        <ele>64</ele>
        <time>2021-03-27T10:25:49Z</time>
      </trkpt>
      <trkpt lat="43.67498" lon="3.91633">
        <ele>64</ele>
        <time>2021-03-27T10:25:50Z</time>
      </trkpt>
      <trkpt lat="43.67502" lon="3.91637">
        <ele>64</ele>
        <time>2021-03-27T10:25:51Z</time>
      </trkpt>
      <trkpt lat="43.67505" lon="3.91641">
        <ele>64</ele>
        <time>2021-03-27T10:25:52Z</time>
      </trkpt>
      <trkpt lat="43.67509" lon="3.91645">
        <ele>66</ele>
        <time>2021-03-27T10:25:53Z</time>
      </trkpt>
      <trkpt lat="43.67513" lon="3.91649">
        <ele>66</ele>
        <time>2021-03-27T10:25:54Z</time>
      </trkpt>
      <trkpt lat="43.67516" lon="3.91652">
        <ele>66</ele>
        <time>2021-03-27T10:25:55Z</time>
      </trkpt>
      <trkpt lat="43.6752" lon="3.91656">
        <ele>66</ele>
        <time>2021-03-27T10:25:56Z</time>
      </trkpt>
      <trkpt lat="43.67523" lon="3.9166">
        <ele>66</ele>
        <time>2021-03-27T10:25:57Z</time>
      </trkpt>
      <trkpt lat="43.67527" lon="3.91664">
        <ele>66</ele>
        <time>2021-03-27T10:25:58Z</time>
      </trkpt>
      <trkpt lat="43.6753" lon="3.91667">
        <ele>66</ele>
        <time>2021-03-27T10:25:59Z</time>
      </trkpt>
      <trkpt lat="43.67533" lon="3.9167">
        <ele>66</ele>
        <time>2021-03-27T10:26:00Z</time>
      </trkpt>
      <trkpt lat="43.67536" lon="3.91673">
        <ele>66</ele>
        <time>2021-03-27T10:26:01Z</time>
      </trkpt>
      <trkpt lat="43.67541" lon="3.91678">
        <ele>67</ele>
        <time>2021-03-27T10:26:03Z</time>
      </trkpt>
      <trkpt lat="43.67543" lon="3.9168">
        <ele>67</ele>
        <time>2021-03-27T10:26:04Z</time>
      </trkpt>
      <trkpt lat="43.67546" lon="3.91682">
        <ele>67</ele>
        <time>2021-03-27T10:26:05Z</time>
      </trkpt>
      <trkpt lat="43.67548" lon="3.91685">
        <ele>67</ele>
        <time>2021-03-27T10:26:06Z</time>
      </trkpt>
      <trkpt lat="43.67552" lon="3.91687">
        <ele>67</ele>
        <time>2021-03-27T10:26:07Z</time>
      </trkpt>
      <trkpt lat="43.67555" lon="3.9169">
        <ele>67</ele>
        <time>2021-03-27T10:26:08Z</time>
      </trkpt>
      <trkpt lat="43.67559" lon="3.91692">
        <ele>67</ele>
        <time>2021-03-27T10:26:09Z</time>
      </trkpt>
      <trkpt lat="43.67562" lon="3.91695">
        <ele>67</ele>
        <time>2021-03-27T10:26:10Z</time>
      </trkpt>
      <trkpt lat="43.67565" lon="3.91698">
        <ele>67</ele>
        <time>2021-03-27T10:26:11Z</time>
      </trkpt>
      <trkpt lat="43.67568" lon="3.91702">
        <ele>67</ele>
        <time>2021-03-27T10:26:12Z</time>
      </trkpt>
      <trkpt lat="43.67571" lon="3.91705">
        <ele>69</ele>
        <time>2021-03-27T10:26:13Z</time>
      </trkpt>
      <trkpt lat="43.67574" lon="3.91709">
        <ele>69</ele>
        <time>2021-03-27T10:26:14Z</time>
      </trkpt>
      <trkpt lat="43.67577" lon="3.91713">
        <ele>69</ele>
        <time>2021-03-27T10:26:15Z</time>
      </trkpt>
      <trkpt lat="43.67581" lon="3.91717">
        <ele>69</ele>
        <time>2021-03-27T10:26:16Z</time>
      </trkpt>
      <trkpt lat="43.67584" lon="3.9172">
        <ele>69</ele>
        <time>2021-03-27T10:26:17Z</time>
      </trkpt>
      <trkpt lat="43.67587" lon="3.91723">
        <ele>69</ele>
        <time>2021-03-27T10:26:18Z</time>
      </trkpt>
      <trkpt lat="43.6759" lon="3.91727">
        <ele>69</ele>
        <time>2021-03-27T10:26:19Z</time>
      </trkpt>
      <trkpt lat="43.67594" lon="3.9173">
        <ele>69</ele>
        <time>2021-03-27T10:26:20Z</time>
      </trkpt>
      <trkpt lat="43.67597" lon="3.91733">
        <ele>69</ele>
        <time>2021-03-27T10:26:21Z</time>
      </trkpt>
      <trkpt lat="43.676" lon="3.91736">
        <ele>69</ele>
        <time>2021-03-27T10:26:22Z</time>
      </trkpt>
      <trkpt lat="43.67603" lon="3.9174">
        <ele>68</ele>
        <time>2021-03-27T10:26:23Z</time>
      </trkpt>
      <trkpt lat="43.67605" lon="3.91743">
        <ele>68</ele>
        <time>2021-03-27T10:26:24Z</time>
      </trkpt>
      <trkpt lat="43.67607" lon="3.91747">
        <ele>68</ele>
        <time>2021-03-27T10:26:25Z</time>
      </trkpt>
      <trkpt lat="43.67609" lon="3.91751">
        <ele>68</ele>
        <time>2021-03-27T10:26:26Z</time>
      </trkpt>
      <trkpt lat="43.67615" lon="3.91759">
        <ele>68</ele>
        <time>2021-03-27T10:26:28Z</time>
      </trkpt>
      <trkpt lat="43.67618" lon="3.91763">
        <ele>68</ele>
        <time>2021-03-27T10:26:29Z</time>
      </trkpt>
      <trkpt lat="43.67622" lon="3.91767">
        <ele>68</ele>
        <time>2021-03-27T10:26:30Z</time>
      </trkpt>
      <trkpt lat="43.67626" lon="3.9177">
        <ele>68</ele>
        <time>2021-03-27T10:26:31Z</time>
      </trkpt>
      <trkpt lat="43.67629" lon="3.91774">
        <ele>68</ele>
        <time>2021-03-27T10:26:32Z</time>
      </trkpt>
      <trkpt lat="43.67633" lon="3.91778">
        <ele>68</ele>
        <time>2021-03-27T10:26:33Z</time>
      </trkpt>
      <trkpt lat="43.67637" lon="3.91782">
        <ele>66</ele>
        <time>2021-03-27T10:26:34Z</time>
      </trkpt>
      <trkpt lat="43.67644" lon="3.91789">
        <ele>66</ele>
        <time>2021-03-27T10:26:36Z</time>
      </trkpt>
      <trkpt lat="43.67648" lon="3.91793">
        <ele>66</ele>
        <time>2021-03-27T10:26:37Z</time>
      </trkpt>
      <trkpt lat="43.67652" lon="3.91796">
        <ele>66</ele>
        <time>2021-03-27T10:26:38Z</time>
      </trkpt>
      <trkpt lat="43.67655" lon="3.918">
        <ele>66</ele>
        <time>2021-03-27T10:26:39Z</time>
      </trkpt>
      <trkpt lat="43.67659" lon="3.91804">
        <ele>66</ele>
        <time>2021-03-27T10:26:40Z</time>
      </trkpt>
      <trkpt lat="43.67663" lon="3.91807">
        <ele>66</ele>
        <time>2021-03-27T10:26:41Z</time>
      </trkpt>
      <trkpt lat="43.67666" lon="3.91811">
        <ele>66</ele>
        <time>2021-03-27T10:26:42Z</time>
      </trkpt>
      <trkpt lat="43.6767" lon="3.91815">
        <ele>66</ele>
        <time>2021-03-27T10:26:43Z</time>
      </trkpt>
      <trkpt lat="43.67673" lon="3.91819">
        <ele>65</ele>
        <time>2021-03-27T10:26:44Z</time>
      </trkpt>
      <trkpt lat="43.67677" lon="3.91823">
        <ele>65</ele>
        <time>2021-03-27T10:26:45Z</time>
      </trkpt>
      <trkpt lat="43.6768" lon="3.91827">
        <ele>65</ele>
        <time>2021-03-27T10:26:46Z</time>
      </trkpt>
      <trkpt lat="43.67686" lon="3.91834">
        <ele>65</ele>
        <time>2021-03-27T10:26:48Z</time>
      </trkpt>
      <trkpt lat="43.67689" lon="3.91837">
        <ele>65</ele>
        <time>2021-03-27T10:26:49Z</time>
      </trkpt>
      <trkpt lat="43.67693" lon="3.91841">
        <ele>65</ele>
        <time>2021-03-27T10:26:50Z</time>
      </trkpt>
      <trkpt lat="43.67697" lon="3.91845">
        <ele>65</ele>
        <time>2021-03-27T10:26:52Z</time>
      </trkpt>
      <trkpt lat="43.67705" lon="3.91852">
        <ele>65</ele>
        <time>2021-03-27T10:26:53Z</time>
      </trkpt>
      <trkpt lat="43.67709" lon="3.91856">
        <ele>65</ele>
        <time>2021-03-27T10:26:54Z</time>
      </trkpt>
      <trkpt lat="43.67713" lon="3.9186">
        <ele>65</ele>
        <time>2021-03-27T10:26:55Z</time>
      </trkpt>
      <trkpt lat="43.67721" lon="3.91868">
        <ele>65</ele>
        <time>2021-03-27T10:26:57Z</time>
      </trkpt>
      <trkpt lat="43.67725" lon="3.91872">
        <ele>65</ele>
        <time>2021-03-27T10:26:58Z</time>
      </trkpt>
      <trkpt lat="43.67729" lon="3.91877">
        <ele>65</ele>
        <time>2021-03-27T10:26:59Z</time>
      </trkpt>
      <trkpt lat="43.67734" lon="3.91881">
        <ele>65</ele>
        <time>2021-03-27T10:27:00Z</time>
      </trkpt>
      <trkpt lat="43.67743" lon="3.91888">
        <ele>65</ele>
        <time>2021-03-27T10:27:02Z</time>
      </trkpt>
      <trkpt lat="43.67748" lon="3.91891">
        <ele>65</ele>
        <time>2021-03-27T10:27:03Z</time>
      </trkpt>
      <trkpt lat="43.67752" lon="3.91896">
        <ele>65</ele>
        <time>2021-03-27T10:27:04Z</time>
      </trkpt>
      <trkpt lat="43.67756" lon="3.919">
        <ele>65</ele>
        <time>2021-03-27T10:27:05Z</time>
      </trkpt>
      <trkpt lat="43.6776" lon="3.91904">
        <ele>65</ele>
        <time>2021-03-27T10:27:06Z</time>
      </trkpt>
      <trkpt lat="43.67764" lon="3.91908">
        <ele>65</ele>
        <time>2021-03-27T10:27:07Z</time>
      </trkpt>
      <trkpt lat="43.67768" lon="3.91912">
        <ele>65</ele>
        <time>2021-03-27T10:27:08Z</time>
      </trkpt>
      <trkpt lat="43.67776" lon="3.9192">
        <ele>65</ele>
        <time>2021-03-27T10:27:10Z</time>
      </trkpt>
      <trkpt lat="43.67779" lon="3.91924">
        <ele>65</ele>
        <time>2021-03-27T10:27:11Z</time>
      </trkpt>
      <trkpt lat="43.67783" lon="3.91927">
        <ele>65</ele>
        <time>2021-03-27T10:27:12Z</time>
      </trkpt>
      <trkpt lat="43.67787" lon="3.91931">
        <ele>65</ele>
        <time>2021-03-27T10:27:13Z</time>
      </trkpt>
      <trkpt lat="43.6779" lon="3.91936">
        <ele>65</ele>
        <time>2021-03-27T10:27:14Z</time>
      </trkpt>
      <trkpt lat="43.67793" lon="3.9194">
        <ele>65</ele>
        <time>2021-03-27T10:27:15Z</time>
      </trkpt>
      <trkpt lat="43.67797" lon="3.91944">
        <ele>65</ele>
        <time>2021-03-27T10:27:16Z</time>
      </trkpt>
      <trkpt lat="43.67801" lon="3.91947">
        <ele>65</ele>
        <time>2021-03-27T10:27:17Z</time>
      </trkpt>
      <trkpt lat="43.67804" lon="3.9195">
        <ele>65</ele>
        <time>2021-03-27T10:27:18Z</time>
      </trkpt>
      <trkpt lat="43.67808" lon="3.91954">
        <ele>65</ele>
        <time>2021-03-27T10:27:19Z</time>
      </trkpt>
      <trkpt lat="43.67811" lon="3.91958">
        <ele>65</ele>
        <time>2021-03-27T10:27:20Z</time>
      </trkpt>
      <trkpt lat="43.67815" lon="3.91962">
        <ele>65</ele>
        <time>2021-03-27T10:27:21Z</time>
      </trkpt>
      <trkpt lat="43.67819" lon="3.91965">
        <ele>65</ele>
        <time>2021-03-27T10:27:22Z</time>
      </trkpt>
      <trkpt lat="43.67823" lon="3.91969">
        <ele>65</ele>
        <time>2021-03-27T10:27:23Z</time>
      </trkpt>
      <trkpt lat="43.67827" lon="3.91973">
        <ele>65</ele>
        <time>2021-03-27T10:27:24Z</time>
      </trkpt>
      <trkpt lat="43.67831" lon="3.91976">
        <ele>65</ele>
        <time>2021-03-27T10:27:25Z</time>
      </trkpt>
      <trkpt lat="43.67835" lon="3.9198">
        <ele>65</ele>
        <time>2021-03-27T10:27:26Z</time>
      </trkpt>
      <trkpt lat="43.67839" lon="3.91983">
        <ele>65</ele>
        <time>2021-03-27T10:27:27Z</time>
      </trkpt>
      <trkpt lat="43.67843" lon="3.91986">
        <ele>65</ele>
        <time>2021-03-27T10:27:28Z</time>
      </trkpt>
      <trkpt lat="43.67848" lon="3.91989">
        <ele>65</ele>
        <time>2021-03-27T10:27:29Z</time>
      </trkpt>
      <trkpt lat="43.67852" lon="3.91992">
        <ele>65</ele>
        <time>2021-03-27T10:27:30Z</time>
      </trkpt>
      <trkpt lat="43.67856" lon="3.91995">
        <ele>65</ele>
        <time>2021-03-27T10:27:31Z</time>
      </trkpt>
      <trkpt lat="43.67861" lon="3.91998">
        <ele>65</ele>
        <time>2021-03-27T10:27:32Z</time>
      </trkpt>
      <trkpt lat="43.67865" lon="3.92001">
        <ele>65</ele>
        <time>2021-03-27T10:27:33Z</time>
      </trkpt>
      <trkpt lat="43.67869" lon="3.92004">
        <ele>65</ele>
        <time>2021-03-27T10:27:34Z</time>
      </trkpt>
      <trkpt lat="43.67874" lon="3.92007">
        <ele>65</ele>
        <time>2021-03-27T10:27:35Z</time>
      </trkpt>
      <trkpt lat="43.67878" lon="3.9201">
        <ele>65</ele>
        <time>2021-03-27T10:27:36Z</time>
      </trkpt>
      <trkpt lat="43.67883" lon="3.92013">
        <ele>65</ele>
        <time>2021-03-27T10:27:37Z</time>
      </trkpt>
      <trkpt lat="43.67888" lon="3.92016">
        <ele>65</ele>
        <time>2021-03-27T10:27:38Z</time>
      </trkpt>
      <trkpt lat="43.67892" lon="3.92019">
        <ele>65</ele>
        <time>2021-03-27T10:27:39Z</time>
      </trkpt>
      <trkpt lat="43.67897" lon="3.92022">
        <ele>65</ele>
        <time>2021-03-27T10:27:40Z</time>
      </trkpt>
      <trkpt lat="43.67901" lon="3.92025">
        <ele>65</ele>
        <time>2021-03-27T10:27:41Z</time>
      </trkpt>
      <trkpt lat="43.67905" lon="3.92028">
        <ele>65</ele>
        <time>2021-03-27T10:27:42Z</time>
      </trkpt>
      <trkpt lat="43.6791" lon="3.92031">
        <ele>65</ele>
        <time>2021-03-27T10:27:43Z</time>
      </trkpt>
      <trkpt lat="43.67914" lon="3.92034">
        <ele>64</ele>
        <time>2021-03-27T10:27:44Z</time>
      </trkpt>
      <trkpt lat="43.67918" lon="3.92037">
        <ele>64</ele>
        <time>2021-03-27T10:27:45Z</time>
      </trkpt>
      <trkpt lat="43.67922" lon="3.9204">
        <ele>64</ele>
        <time>2021-03-27T10:27:46Z</time>
      </trkpt>
      <trkpt lat="43.6793" lon="3.92046">
        <ele>64</ele>
        <time>2021-03-27T10:27:48Z</time>
      </trkpt>
      <trkpt lat="43.67934" lon="3.92049">
        <ele>64</ele>
        <time>2021-03-27T10:27:49Z</time>
      </trkpt>
      <trkpt lat="43.67939" lon="3.92052">
        <ele>64</ele>
        <time>2021-03-27T10:27:50Z</time>
      </trkpt>
      <trkpt lat="43.67943" lon="3.92055">
        <ele>64</ele>
        <time>2021-03-27T10:27:51Z</time>
      </trkpt>
      <trkpt lat="43.67948" lon="3.92058">
        <ele>64</ele>
        <time>2021-03-27T10:27:52Z</time>
      </trkpt>
      <trkpt lat="43.67952" lon="3.92061">
        <ele>64</ele>
        <time>2021-03-27T10:27:53Z</time>
      </trkpt>
      <trkpt lat="43.67957" lon="3.92064">
        <ele>63</ele>
        <time>2021-03-27T10:27:54Z</time>
      </trkpt>
      <trkpt lat="43.67961" lon="3.92068">
        <ele>63</ele>
        <time>2021-03-27T10:27:55Z</time>
      </trkpt>
      <trkpt lat="43.67966" lon="3.92071">
        <ele>63</ele>
        <time>2021-03-27T10:27:56Z</time>
      </trkpt>
      <trkpt lat="43.6797" lon="3.92074">
        <ele>63</ele>
        <time>2021-03-27T10:27:57Z</time>
      </trkpt>
      <trkpt lat="43.67974" lon="3.92077">
        <ele>63</ele>
        <time>2021-03-27T10:27:58Z</time>
      </trkpt>
      <trkpt lat="43.67979" lon="3.9208">
        <ele>63</ele>
        <time>2021-03-27T10:27:59Z</time>
      </trkpt>
      <trkpt lat="43.67983" lon="3.92082">
        <ele>63</ele>
        <time>2021-03-27T10:28:00Z</time>
      </trkpt>
      <trkpt lat="43.67988" lon="3.92085">
        <ele>63</ele>
        <time>2021-03-27T10:28:01Z</time>
      </trkpt>
      <trkpt lat="43.67992" lon="3.92088">
        <ele>63</ele>
        <time>2021-03-27T10:28:02Z</time>
      </trkpt>
      <trkpt lat="43.67997" lon="3.92092">
        <ele>63</ele>
        <time>2021-03-27T10:28:03Z</time>
      </trkpt>
      <trkpt lat="43.68001" lon="3.92095">
        <ele>63</ele>
        <time>2021-03-27T10:28:04Z</time>
      </trkpt>
      <trkpt lat="43.68005" lon="3.92098">
        <ele>63</ele>
        <time>2021-03-27T10:28:05Z</time>
      </trkpt>
      <trkpt lat="43.6801" lon="3.92101">
        <ele>63</ele>
        <time>2021-03-27T10:28:06Z</time>
      </trkpt>
      <trkpt lat="43.68014" lon="3.92104">
        <ele>63</ele>
        <time>2021-03-27T10:28:07Z</time>
      </trkpt>
      <trkpt lat="43.68019" lon="3.92106">
        <ele>63</ele>
        <time>2021-03-27T10:28:08Z</time>
      </trkpt>
      <trkpt lat="43.68023" lon="3.9211">
        <ele>63</ele>
        <time>2021-03-27T10:28:09Z</time>
      </trkpt>
      <trkpt lat="43.68027" lon="3.92112">
        <ele>63</ele>
        <time>2021-03-27T10:28:10Z</time>
      </trkpt>
      <trkpt lat="43.68032" lon="3.92115">
        <ele>63</ele>
        <time>2021-03-27T10:28:12Z</time>
      </trkpt>
      <trkpt lat="43.68041" lon="3.92121">
        <ele>63</ele>
        <time>2021-03-27T10:28:13Z</time>
      </trkpt>
      <trkpt lat="43.68045" lon="3.92124">
        <ele>62</ele>
        <time>2021-03-27T10:28:14Z</time>
      </trkpt>
      <trkpt lat="43.68049" lon="3.92127">
        <ele>62</ele>
        <time>2021-03-27T10:28:15Z</time>
      </trkpt>
      <trkpt lat="43.68053" lon="3.9213">
        <ele>62</ele>
        <time>2021-03-27T10:28:16Z</time>
      </trkpt>
      <trkpt lat="43.68058" lon="3.92133">
        <ele>62</ele>
        <time>2021-03-27T10:28:17Z</time>
      </trkpt>
      <trkpt lat="43.68062" lon="3.92136">
        <ele>62</ele>
        <time>2021-03-27T10:28:18Z</time>
      </trkpt>
      <trkpt lat="43.68066" lon="3.92139">
        <ele>62</ele>
        <time>2021-03-27T10:28:19Z</time>
      </trkpt>
      <trkpt lat="43.6807" lon="3.92142">
        <ele>62</ele>
        <time>2021-03-27T10:28:20Z</time>
      </trkpt>
      <trkpt lat="43.68074" lon="3.92145">
        <ele>62</ele>
        <time>2021-03-27T10:28:21Z</time>
      </trkpt>
      <trkpt lat="43.68078" lon="3.92147">
        <ele>62</ele>
        <time>2021-03-27T10:28:22Z</time>
      </trkpt>
      <trkpt lat="43.68083" lon="3.9215">
        <ele>62</ele>
        <time>2021-03-27T10:28:23Z</time>
      </trkpt>
      <trkpt lat="43.68087" lon="3.92153">
        <ele>62</ele>
        <time>2021-03-27T10:28:24Z</time>
      </trkpt>
      <trkpt lat="43.6809" lon="3.92156">
        <ele>62</ele>
        <time>2021-03-27T10:28:25Z</time>
      </trkpt>
      <trkpt lat="43.68094" lon="3.92158">
        <ele>62</ele>
        <time>2021-03-27T10:28:26Z</time>
      </trkpt>
      <trkpt lat="43.68098" lon="3.92161">
        <ele>62</ele>
        <time>2021-03-27T10:28:27Z</time>
      </trkpt>
      <trkpt lat="43.68101" lon="3.92163">
        <ele>62</ele>
        <time>2021-03-27T10:28:28Z</time>
      </trkpt>
      <trkpt lat="43.68109" lon="3.92167">
        <ele>62</ele>
        <time>2021-03-27T10:28:30Z</time>
      </trkpt>
      <trkpt lat="43.68113" lon="3.92169">
        <ele>62</ele>
        <time>2021-03-27T10:28:31Z</time>
      </trkpt>
      <trkpt lat="43.68117" lon="3.92172">
        <ele>62</ele>
        <time>2021-03-27T10:28:32Z</time>
      </trkpt>
      <trkpt lat="43.68125" lon="3.92177">
        <ele>62</ele>
        <time>2021-03-27T10:28:34Z</time>
      </trkpt>
      <trkpt lat="43.68129" lon="3.9218">
        <ele>62</ele>
        <time>2021-03-27T10:28:35Z</time>
      </trkpt>
      <trkpt lat="43.68136" lon="3.92184">
        <ele>62</ele>
        <time>2021-03-27T10:28:37Z</time>
      </trkpt>
      <trkpt lat="43.6814" lon="3.92187">
        <ele>62</ele>
        <time>2021-03-27T10:28:38Z</time>
      </trkpt>
      <trkpt lat="43.68144" lon="3.9219">
        <ele>62</ele>
        <time>2021-03-27T10:28:39Z</time>
      </trkpt>
      <trkpt lat="43.68147" lon="3.92193">
        <ele>62</ele>
        <time>2021-03-27T10:28:40Z</time>
      </trkpt>
      <trkpt lat="43.68151" lon="3.92196">
        <ele>62</ele>
        <time>2021-03-27T10:28:41Z</time>
      </trkpt>
      <trkpt lat="43.68155" lon="3.92199">
        <ele>62</ele>
        <time>2021-03-27T10:28:42Z</time>
      </trkpt>
      <trkpt lat="43.68162" lon="3.92203">
        <ele>62</ele>
        <time>2021-03-27T10:28:44Z</time>
      </trkpt>
      <trkpt lat="43.68166" lon="3.92205">
        <ele>62</ele>
        <time>2021-03-27T10:28:45Z</time>
      </trkpt>
      <trkpt lat="43.6817" lon="3.92206">
        <ele>62</ele>
        <time>2021-03-27T10:28:46Z</time>
      </trkpt>
      <trkpt lat="43.68173" lon="3.92208">
        <ele>62</ele>
        <time>2021-03-27T10:28:47Z</time>
      </trkpt>
      <trkpt lat="43.68176" lon="3.92211">
        <ele>62</ele>
        <time>2021-03-27T10:28:48Z</time>
      </trkpt>
      <trkpt lat="43.6818" lon="3.92211">
        <ele>62</ele>
        <time>2021-03-27T10:28:49Z</time>
      </trkpt>
      <trkpt lat="43.68183" lon="3.92209">
        <ele>62</ele>
        <time>2021-03-27T10:28:50Z</time>
      </trkpt>
      <trkpt lat="43.68186" lon="3.92206">
        <ele>62</ele>
        <time>2021-03-27T10:28:51Z</time>
      </trkpt>
      <trkpt lat="43.6819" lon="3.92202">
        <ele>62</ele>
        <time>2021-03-27T10:28:52Z</time>
      </trkpt>
      <trkpt lat="43.68194" lon="3.92199">
        <ele>62</ele>
        <time>2021-03-27T10:28:53Z</time>
      </trkpt>
      <trkpt lat="43.68197" lon="3.92195">
        <ele>62</ele>
        <time>2021-03-27T10:28:54Z</time>
      </trkpt>
      <trkpt lat="43.68201" lon="3.92191">
        <ele>62</ele>
        <time>2021-03-27T10:28:55Z</time>
      </trkpt>
      <trkpt lat="43.68203" lon="3.92185">
        <ele>62</ele>
        <time>2021-03-27T10:28:56Z</time>
      </trkpt>
      <trkpt lat="43.68206" lon="3.92178">
        <ele>62</ele>
        <time>2021-03-27T10:28:57Z</time>
      </trkpt>
      <trkpt lat="43.68208" lon="3.92172">
        <ele>62</ele>
        <time>2021-03-27T10:28:58Z</time>
      </trkpt>
      <trkpt lat="43.68211" lon="3.92166">
        <ele>62</ele>
        <time>2021-03-27T10:28:59Z</time>
      </trkpt>
      <trkpt lat="43.68213" lon="3.92162">
        <ele>62</ele>
        <time>2021-03-27T10:29:00Z</time>
      </trkpt>
      <trkpt lat="43.68216" lon="3.92158">
        <ele>62</ele>
        <time>2021-03-27T10:29:01Z</time>
      </trkpt>
      <trkpt lat="43.68218" lon="3.92154">
        <ele>62</ele>
        <time>2021-03-27T10:29:02Z</time>
      </trkpt>
      <trkpt lat="43.6822" lon="3.92151">
        <ele>62</ele>
        <time>2021-03-27T10:29:03Z</time>
      </trkpt>
      <trkpt lat="43.68223" lon="3.92144">
        <ele>62</ele>
        <time>2021-03-27T10:29:05Z</time>
      </trkpt>
      <trkpt lat="43.68226" lon="3.9214">
        <ele>62</ele>
        <time>2021-03-27T10:29:06Z</time>
      </trkpt>
      <trkpt lat="43.68228" lon="3.92135">
        <ele>62</ele>
        <time>2021-03-27T10:29:07Z</time>
      </trkpt>
      <trkpt lat="43.6823" lon="3.92131">
        <ele>62</ele>
        <time>2021-03-27T10:29:08Z</time>
      </trkpt>
      <trkpt lat="43.68233" lon="3.92127">
        <ele>62</ele>
        <time>2021-03-27T10:29:09Z</time>
      </trkpt>
      <trkpt lat="43.68235" lon="3.92123">
        <ele>62</ele>
        <time>2021-03-27T10:29:10Z</time>
      </trkpt>
      <trkpt lat="43.6824" lon="3.92115">
        <ele>62</ele>
        <time>2021-03-27T10:29:12Z</time>
      </trkpt>
      <trkpt lat="43.68243" lon="3.92111">
        <ele>62</ele>
        <time>2021-03-27T10:29:13Z</time>
      </trkpt>
      <trkpt lat="43.68245" lon="3.92107">
        <ele>62</ele>
        <time>2021-03-27T10:29:14Z</time>
      </trkpt>
      <trkpt lat="43.68247" lon="3.92103">
        <ele>62</ele>
        <time>2021-03-27T10:29:15Z</time>
      </trkpt>
      <trkpt lat="43.6825" lon="3.92099">
        <ele>62</ele>
        <time>2021-03-27T10:29:16Z</time>
      </trkpt>
      <trkpt lat="43.68252" lon="3.92095">
        <ele>62</ele>
        <time>2021-03-27T10:29:17Z</time>
      </trkpt>
      <trkpt lat="43.68257" lon="3.92087">
        <ele>62</ele>
        <time>2021-03-27T10:29:19Z</time>
      </trkpt>
      <trkpt lat="43.6826" lon="3.92083">
        <ele>62</ele>
        <time>2021-03-27T10:29:20Z</time>
      </trkpt>
      <trkpt lat="43.68263" lon="3.92079">
        <ele>62</ele>
        <time>2021-03-27T10:29:21Z</time>
      </trkpt>
      <trkpt lat="43.68266" lon="3.92075">
        <ele>62</ele>
        <time>2021-03-27T10:29:22Z</time>
      </trkpt>
      <trkpt lat="43.68268" lon="3.9207">
        <ele>61</ele>
        <time>2021-03-27T10:29:23Z</time>
      </trkpt>
      <trkpt lat="43.68271" lon="3.92066">
        <ele>61</ele>
        <time>2021-03-27T10:29:24Z</time>
      </trkpt>
      <trkpt lat="43.68274" lon="3.92062">
        <ele>61</ele>
        <time>2021-03-27T10:29:25Z</time>
      </trkpt>
      <trkpt lat="43.68276" lon="3.92058">
        <ele>61</ele>
        <time>2021-03-27T10:29:26Z</time>
      </trkpt>
      <trkpt lat="43.68278" lon="3.92053">
        <ele>61</ele>
        <time>2021-03-27T10:29:27Z</time>
      </trkpt>
      <trkpt lat="43.68279" lon="3.92048">
        <ele>61</ele>
        <time>2021-03-27T10:29:28Z</time>
      </trkpt>
      <trkpt lat="43.68281" lon="3.92043">
        <ele>61</ele>
        <time>2021-03-27T10:29:29Z</time>
      </trkpt>
      <trkpt lat="43.68284" lon="3.92039">
        <ele>61</ele>
        <time>2021-03-27T10:29:30Z</time>
      </trkpt>
      <trkpt lat="43.68287" lon="3.92035">
        <ele>61</ele>
        <time>2021-03-27T10:29:31Z</time>
      </trkpt>
      <trkpt lat="43.68293" lon="3.92029">
        <ele>61</ele>
        <time>2021-03-27T10:29:33Z</time>
      </trkpt>
      <trkpt lat="43.68297" lon="3.92026">
        <ele>61</ele>
        <time>2021-03-27T10:29:34Z</time>
      </trkpt>
      <trkpt lat="43.683" lon="3.92023">
        <ele>61</ele>
        <time>2021-03-27T10:29:35Z</time>
      </trkpt>
      <trkpt lat="43.68303" lon="3.92021">
        <ele>61</ele>
        <time>2021-03-27T10:29:36Z</time>
      </trkpt>
      <trkpt lat="43.68306" lon="3.92018">
        <ele>61</ele>
        <time>2021-03-27T10:29:37Z</time>
      </trkpt>
      <trkpt lat="43.68309" lon="3.92016">
        <ele>61</ele>
        <time>2021-03-27T10:29:38Z</time>
      </trkpt>
      <trkpt lat="43.68312" lon="3.92013">
        <ele>61</ele>
        <time>2021-03-27T10:29:39Z</time>
      </trkpt>
      <trkpt lat="43.68315" lon="3.92009">
        <ele>61</ele>
        <time>2021-03-27T10:29:40Z</time>
      </trkpt>
      <trkpt lat="43.68318" lon="3.92006">
        <ele>61</ele>
        <time>2021-03-27T10:29:41Z</time>
      </trkpt>
      <trkpt lat="43.68322" lon="3.92004">
        <ele>61</ele>
        <time>2021-03-27T10:29:42Z</time>
      </trkpt>
      <trkpt lat="43.68325" lon="3.92001">
        <ele>61</ele>
        <time>2021-03-27T10:29:43Z</time>
      </trkpt>
      <trkpt lat="43.68328" lon="3.91998">
        <ele>61</ele>
        <time>2021-03-27T10:29:44Z</time>
      </trkpt>
      <trkpt lat="43.68331" lon="3.91995">
        <ele>61</ele>
        <time>2021-03-27T10:29:45Z</time>
      </trkpt>
      <trkpt lat="43.68334" lon="3.91993">
        <ele>61</ele>
        <time>2021-03-27T10:29:46Z</time>
      </trkpt>
      <trkpt lat="43.68337" lon="3.9199">
        <ele>61</ele>
        <time>2021-03-27T10:29:47Z</time>
      </trkpt>
      <trkpt lat="43.68341" lon="3.91988">
        <ele>61</ele>
        <time>2021-03-27T10:29:48Z</time>
      </trkpt>
      <trkpt lat="43.68344" lon="3.91986">
        <ele>61</ele>
        <time>2021-03-27T10:29:49Z</time>
      </trkpt>
      <trkpt lat="43.68347" lon="3.91983">
        <ele>61</ele>
        <time>2021-03-27T10:29:50Z</time>
      </trkpt>
      <trkpt lat="43.68349" lon="3.91979">
        <ele>61</ele>
        <time>2021-03-27T10:29:51Z</time>
      </trkpt>
      <trkpt lat="43.68349" lon="3.91975">
        <ele>61</ele>
        <time>2021-03-27T10:29:52Z</time>
      </trkpt>
      <trkpt lat="43.68345" lon="3.91969">
        <ele>61</ele>
        <time>2021-03-27T10:29:54Z</time>
      </trkpt>
      <trkpt lat="43.68344" lon="3.91966">
        <ele>61</ele>
        <time>2021-03-27T10:29:55Z</time>
      </trkpt>
      <trkpt lat="43.68342" lon="3.91964">
        <ele>61</ele>
        <time>2021-03-27T10:29:56Z</time>
      </trkpt>
      <trkpt lat="43.6834" lon="3.91962">
        <ele>61</ele>
        <time>2021-03-27T10:29:58Z</time>
      </trkpt>
      <trkpt lat="43.68339" lon="3.91962">
        <ele>61</ele>
        <time>2021-03-27T10:30:06Z</time>
      </trkpt>
      <trkpt lat="43.68335" lon="3.91946">
        <ele>61</ele>
        <time>2021-03-27T10:30:25Z</time>
      </trkpt>
      <trkpt lat="43.68336" lon="3.91941">
        <ele>61</ele>
        <time>2021-03-27T10:30:26Z</time>
      </trkpt>
      <trkpt lat="43.68339" lon="3.91935">
        <ele>61</ele>
        <time>2021-03-27T10:30:27Z</time>
      </trkpt>
      <trkpt lat="43.6834" lon="3.91933">
        <ele>61</ele>
        <time>2021-03-27T10:30:28Z</time>
      </trkpt>
      <trkpt lat="43.68342" lon="3.91931">
        <ele>61</ele>
        <time>2021-03-27T10:30:29Z</time>
      </trkpt>
      <trkpt lat="43.68345" lon="3.91929">
        <ele>61</ele>
        <time>2021-03-27T10:30:30Z</time>
      </trkpt>
      <trkpt lat="43.68347" lon="3.91926">
        <ele>61</ele>
        <time>2021-03-27T10:30:31Z</time>
      </trkpt>
      <trkpt lat="43.68352" lon="3.91922">
        <ele>61</ele>
        <time>2021-03-27T10:30:33Z</time>
      </trkpt>
      <trkpt lat="43.68354" lon="3.9192">
        <ele>61</ele>
        <time>2021-03-27T10:30:34Z</time>
      </trkpt>
      <trkpt lat="43.68357" lon="3.91918">
        <ele>61</ele>
        <time>2021-03-27T10:30:35Z</time>
      </trkpt>
      <trkpt lat="43.68359" lon="3.91916">
        <ele>61</ele>
        <time>2021-03-27T10:30:36Z</time>
      </trkpt>
      <trkpt lat="43.68362" lon="3.91913">
        <ele>61</ele>
        <time>2021-03-27T10:30:37Z</time>
      </trkpt>
      <trkpt lat="43.68367" lon="3.91909">
        <ele>61</ele>
        <time>2021-03-27T10:30:39Z</time>
      </trkpt>
      <trkpt lat="43.68369" lon="3.91907">
        <ele>61</ele>
        <time>2021-03-27T10:30:40Z</time>
      </trkpt>
      <trkpt lat="43.68371" lon="3.91905">
        <ele>61</ele>
        <time>2021-03-27T10:30:41Z</time>
      </trkpt>
      <trkpt lat="43.68374" lon="3.91902">
        <ele>61</ele>
        <time>2021-03-27T10:30:42Z</time>
      </trkpt>
      <trkpt lat="43.68377" lon="3.91899">
        <ele>61</ele>
        <time>2021-03-27T10:30:43Z</time>
      </trkpt>
      <trkpt lat="43.6838" lon="3.91898">
        <ele>61</ele>
        <time>2021-03-27T10:30:44Z</time>
      </trkpt>
      <trkpt lat="43.68384" lon="3.91897">
        <ele>61</ele>
        <time>2021-03-27T10:30:46Z</time>
      </trkpt>
      <trkpt lat="43.68387" lon="3.91895">
        <ele>61</ele>
        <time>2021-03-27T10:30:47Z</time>
      </trkpt>
      <trkpt lat="43.6839" lon="3.91893">
        <ele>61</ele>
        <time>2021-03-27T10:30:48Z</time>
      </trkpt>
      <trkpt lat="43.68393" lon="3.9189">
        <ele>61</ele>
        <time>2021-03-27T10:30:49Z</time>
      </trkpt>
      <trkpt lat="43.68395" lon="3.91886">
        <ele>61</ele>
        <time>2021-03-27T10:30:50Z</time>
      </trkpt>
      <trkpt lat="43.68398" lon="3.91883">
        <ele>61</ele>
        <time>2021-03-27T10:30:51Z</time>
      </trkpt>
      <trkpt lat="43.68401" lon="3.9188">
        <ele>61</ele>
        <time>2021-03-27T10:30:52Z</time>
      </trkpt>
      <trkpt lat="43.68404" lon="3.91877">
        <ele>61</ele>
        <time>2021-03-27T10:30:53Z</time>
      </trkpt>
      <trkpt lat="43.68408" lon="3.91874">
        <ele>61</ele>
        <time>2021-03-27T10:30:54Z</time>
      </trkpt>
      <trkpt lat="43.68411" lon="3.91871">
        <ele>61</ele>
        <time>2021-03-27T10:30:55Z</time>
      </trkpt>
      <trkpt lat="43.68414" lon="3.91868">
        <ele>61</ele>
        <time>2021-03-27T10:30:56Z</time>
      </trkpt>
      <trkpt lat="43.68417" lon="3.91866">
        <ele>61</ele>
        <time>2021-03-27T10:30:57Z</time>
      </trkpt>
      <trkpt lat="43.68421" lon="3.91863">
        <ele>61</ele>
        <time>2021-03-27T10:30:58Z</time>
      </trkpt>
      <trkpt lat="43.68424" lon="3.91862">
        <ele>61</ele>
        <time>2021-03-27T10:30:59Z</time>
      </trkpt>
      <trkpt lat="43.68429" lon="3.91862">
        <ele>61</ele>
        <time>2021-03-27T10:31:01Z</time>
      </trkpt>
      <trkpt lat="43.68431" lon="3.91863">
        <ele>61</ele>
        <time>2021-03-27T10:31:02Z</time>
      </trkpt>
      <trkpt lat="43.68434" lon="3.91864">
        <ele>61</ele>
        <time>2021-03-27T10:31:03Z</time>
      </trkpt>
      <trkpt lat="43.6844" lon="3.91865">
        <ele>61</ele>
        <time>2021-03-27T10:31:05Z</time>
      </trkpt>
      <trkpt lat="43.68444" lon="3.91865">
        <ele>61</ele>
        <time>2021-03-27T10:31:06Z</time>
      </trkpt>
      <trkpt lat="43.68448" lon="3.91864">
        <ele>61</ele>
        <time>2021-03-27T10:31:07Z</time>
      </trkpt>
      <trkpt lat="43.68452" lon="3.91863">
        <ele>61</ele>
        <time>2021-03-27T10:31:08Z</time>
      </trkpt>
      <trkpt lat="43.68456" lon="3.91862">
        <ele>61</ele>
        <time>2021-03-27T10:31:09Z</time>
      </trkpt>
      <trkpt lat="43.6846" lon="3.91861">
        <ele>61</ele>
        <time>2021-03-27T10:31:10Z</time>
      </trkpt>
      <trkpt lat="43.68463" lon="3.91859">
        <ele>61</ele>
        <time>2021-03-27T10:31:11Z</time>
      </trkpt>
      <trkpt lat="43.68467" lon="3.91857">
        <ele>61</ele>
        <time>2021-03-27T10:31:12Z</time>
      </trkpt>
      <trkpt lat="43.6847" lon="3.91855">
        <ele>61</ele>
        <time>2021-03-27T10:31:13Z</time>
      </trkpt>
      <trkpt lat="43.68474" lon="3.91853">
        <ele>60</ele>
        <time>2021-03-27T10:31:14Z</time>
      </trkpt>
      <trkpt lat="43.68478" lon="3.91851">
        <ele>60</ele>
        <time>2021-03-27T10:31:15Z</time>
      </trkpt>
      <trkpt lat="43.68481" lon="3.91849">
        <ele>60</ele>
        <time>2021-03-27T10:31:16Z</time>
      </trkpt>
      <trkpt lat="43.68488" lon="3.91844">
        <ele>60</ele>
        <time>2021-03-27T10:31:18Z</time>
      </trkpt>
      <trkpt lat="43.68491" lon="3.91842">
        <ele>60</ele>
        <time>2021-03-27T10:31:19Z</time>
      </trkpt>
      <trkpt lat="43.68494" lon="3.9184">
        <ele>60</ele>
        <time>2021-03-27T10:31:20Z</time>
      </trkpt>
      <trkpt lat="43.68497" lon="3.91837">
        <ele>60</ele>
        <time>2021-03-27T10:31:21Z</time>
      </trkpt>
      <trkpt lat="43.68503" lon="3.91833">
        <ele>60</ele>
        <time>2021-03-27T10:31:23Z</time>
      </trkpt>
      <trkpt lat="43.68506" lon="3.91831">
        <ele>60</ele>
        <time>2021-03-27T10:31:24Z</time>
      </trkpt>
      <trkpt lat="43.68509" lon="3.91828">
        <ele>60</ele>
        <time>2021-03-27T10:31:25Z</time>
      </trkpt>
      <trkpt lat="43.68513" lon="3.91826">
        <ele>60</ele>
        <time>2021-03-27T10:31:26Z</time>
      </trkpt>
      <trkpt lat="43.68516" lon="3.91823">
        <ele>60</ele>
        <time>2021-03-27T10:31:27Z</time>
      </trkpt>
      <trkpt lat="43.68519" lon="3.91821">
        <ele>60</ele>
        <time>2021-03-27T10:31:28Z</time>
      </trkpt>
      <trkpt lat="43.68524" lon="3.91816">
        <ele>60</ele>
        <time>2021-03-27T10:31:30Z</time>
      </trkpt>
      <trkpt lat="43.68529" lon="3.91812">
        <ele>60</ele>
        <time>2021-03-27T10:31:32Z</time>
      </trkpt>
      <trkpt lat="43.68532" lon="3.9181">
        <ele>60</ele>
        <time>2021-03-27T10:31:33Z</time>
      </trkpt>
      <trkpt lat="43.68534" lon="3.91809">
        <ele>60</ele>
        <time>2021-03-27T10:31:34Z</time>
      </trkpt>
      <trkpt lat="43.68536" lon="3.91807">
        <ele>60</ele>
        <time>2021-03-27T10:31:35Z</time>
      </trkpt>
      <trkpt lat="43.68538" lon="3.91805">
        <ele>60</ele>
        <time>2021-03-27T10:31:36Z</time>
      </trkpt>
      <trkpt lat="43.6854" lon="3.91802">
        <ele>60</ele>
        <time>2021-03-27T10:31:37Z</time>
      </trkpt>
      <trkpt lat="43.68542" lon="3.918">
        <ele>60</ele>
        <time>2021-03-27T10:31:40Z</time>
      </trkpt>
      <trkpt lat="43.68547" lon="3.91796">
        <ele>60</ele>
        <time>2021-03-27T10:31:42Z</time>
      </trkpt>
      <trkpt lat="43.68547" lon="3.91793">
        <ele>60</ele>
        <time>2021-03-27T10:31:43Z</time>
      </trkpt>
      <trkpt lat="43.68547" lon="3.9179">
        <ele>60</ele>
        <time>2021-03-27T10:31:44Z</time>
      </trkpt>
      <trkpt lat="43.68545" lon="3.91787">
        <ele>60</ele>
        <time>2021-03-27T10:31:45Z</time>
      </trkpt>
      <trkpt lat="43.68544" lon="3.91785">
        <ele>60</ele>
        <time>2021-03-27T10:31:46Z</time>
      </trkpt>
      <trkpt lat="43.68542" lon="3.91782">
        <ele>60</ele>
        <time>2021-03-27T10:31:47Z</time>
      </trkpt>
      <trkpt lat="43.68541" lon="3.91779">
        <ele>60</ele>
        <time>2021-03-27T10:31:48Z</time>
      </trkpt>
      <trkpt lat="43.68539" lon="3.91776">
        <ele>60</ele>
        <time>2021-03-27T10:31:49Z</time>
      </trkpt>
      <trkpt lat="43.68536" lon="3.91772">
        <ele>60</ele>
        <time>2021-03-27T10:31:51Z</time>
      </trkpt>
      <trkpt lat="43.68535" lon="3.91771">
        <ele>60</ele>
        <time>2021-03-27T10:31:52Z</time>
      </trkpt>
      <trkpt lat="43.68533" lon="3.91769">
        <ele>60</ele>
        <time>2021-03-27T10:31:53Z</time>
      </trkpt>
      <trkpt lat="43.68531" lon="3.91767">
        <ele>60</ele>
        <time>2021-03-27T10:31:54Z</time>
      </trkpt>
      <trkpt lat="43.68529" lon="3.91766">
        <ele>62</ele>
        <time>2021-03-27T10:31:55Z</time>
      </trkpt>
      <trkpt lat="43.68525" lon="3.91763">
        <ele>62</ele>
        <time>2021-03-27T10:31:57Z</time>
      </trkpt>
      <trkpt lat="43.68522" lon="3.91762">
        <ele>62</ele>
        <time>2021-03-27T10:31:58Z</time>
      </trkpt>
      <trkpt lat="43.6852" lon="3.91761">
        <ele>62</ele>
        <time>2021-03-27T10:31:59Z</time>
      </trkpt>
      <trkpt lat="43.68517" lon="3.91759">
        <ele>62</ele>
        <time>2021-03-27T10:32:00Z</time>
      </trkpt>
      <trkpt lat="43.68514" lon="3.91758">
        <ele>62</ele>
        <time>2021-03-27T10:32:01Z</time>
      </trkpt>
      <trkpt lat="43.68511" lon="3.91757">
        <ele>62</ele>
        <time>2021-03-27T10:32:02Z</time>
      </trkpt>
      <trkpt lat="43.68508" lon="3.91756">
        <ele>62</ele>
        <time>2021-03-27T10:32:03Z</time>
      </trkpt>
      <trkpt lat="43.68505" lon="3.91755">
        <ele>62</ele>
        <time>2021-03-27T10:32:04Z</time>
      </trkpt>
      <trkpt lat="43.68501" lon="3.91754">
        <ele>62</ele>
        <time>2021-03-27T10:32:05Z</time>
      </trkpt>
      <trkpt lat="43.68498" lon="3.91753">
        <ele>62</ele>
        <time>2021-03-27T10:32:06Z</time>
      </trkpt>
      <trkpt lat="43.68494" lon="3.91752">
        <ele>62</ele>
        <time>2021-03-27T10:32:07Z</time>
      </trkpt>
      <trkpt lat="43.68491" lon="3.91751">
        <ele>62</ele>
        <time>2021-03-27T10:32:08Z</time>
      </trkpt>
      <trkpt lat="43.68487" lon="3.91749">
        <ele>62</ele>
        <time>2021-03-27T10:32:09Z</time>
      </trkpt>
      <trkpt lat="43.68483" lon="3.91748">
        <ele>62</ele>
        <time>2021-03-27T10:32:10Z</time>
      </trkpt>
      <trkpt lat="43.68479" lon="3.91747">
        <ele>62</ele>
        <time>2021-03-27T10:32:11Z</time>
      </trkpt>
      <trkpt lat="43.68476" lon="3.91746">
        <ele>62</ele>
        <time>2021-03-27T10:32:12Z</time>
      </trkpt>
      <trkpt lat="43.68472" lon="3.91745">
        <ele>62</ele>
        <time>2021-03-27T10:32:13Z</time>
      </trkpt>
      <trkpt lat="43.68468" lon="3.91744">
        <ele>61</ele>
        <time>2021-03-27T10:32:14Z</time>
      </trkpt>
      <trkpt lat="43.68464" lon="3.91743">
        <ele>61</ele>
        <time>2021-03-27T10:32:15Z</time>
      </trkpt>
      <trkpt lat="43.6846" lon="3.91742">
        <ele>61</ele>
        <time>2021-03-27T10:32:16Z</time>
      </trkpt>
      <trkpt lat="43.68456" lon="3.91741">
        <ele>61</ele>
        <time>2021-03-27T10:32:17Z</time>
      </trkpt>
      <trkpt lat="43.68452" lon="3.9174">
        <ele>61</ele>
        <time>2021-03-27T10:32:18Z</time>
      </trkpt>
      <trkpt lat="43.68445" lon="3.91739">
        <ele>61</ele>
        <time>2021-03-27T10:32:20Z</time>
      </trkpt>
      <trkpt lat="43.68441" lon="3.91738">
        <ele>61</ele>
        <time>2021-03-27T10:32:21Z</time>
      </trkpt>
      <trkpt lat="43.68437" lon="3.91738">
        <ele>61</ele>
        <time>2021-03-27T10:32:22Z</time>
      </trkpt>
      <trkpt lat="43.68434" lon="3.91737">
        <ele>61</ele>
        <time>2021-03-27T10:32:23Z</time>
      </trkpt>
      <trkpt lat="43.6843" lon="3.91736">
        <ele>61</ele>
        <time>2021-03-27T10:32:24Z</time>
      </trkpt>
      <trkpt lat="43.68426" lon="3.91736">
        <ele>62</ele>
        <time>2021-03-27T10:32:25Z</time>
      </trkpt>
      <trkpt lat="43.68422" lon="3.91735">
        <ele>62</ele>
        <time>2021-03-27T10:32:26Z</time>
      </trkpt>
      <trkpt lat="43.68415" lon="3.91734">
        <ele>62</ele>
        <time>2021-03-27T10:32:28Z</time>
      </trkpt>
      <trkpt lat="43.68411" lon="3.91733">
        <ele>62</ele>
        <time>2021-03-27T10:32:29Z</time>
      </trkpt>
      <trkpt lat="43.68407" lon="3.91732">
        <ele>62</ele>
        <time>2021-03-27T10:32:30Z</time>
      </trkpt>
      <trkpt lat="43.68399" lon="3.91731">
        <ele>62</ele>
        <time>2021-03-27T10:32:32Z</time>
      </trkpt>
      <trkpt lat="43.68396" lon="3.9173">
        <ele>62</ele>
        <time>2021-03-27T10:32:33Z</time>
      </trkpt>
      <trkpt lat="43.68392" lon="3.91729">
        <ele>62</ele>
        <time>2021-03-27T10:32:34Z</time>
      </trkpt>
      <trkpt lat="43.68389" lon="3.91727">
        <ele>62</ele>
        <time>2021-03-27T10:32:35Z</time>
      </trkpt>
      <trkpt lat="43.68386" lon="3.91724">
        <ele>62</ele>
        <time>2021-03-27T10:32:36Z</time>
      </trkpt>
      <trkpt lat="43.68383" lon="3.91721">
        <ele>62</ele>
        <time>2021-03-27T10:32:37Z</time>
      </trkpt>
      <trkpt lat="43.68379" lon="3.91714">
        <ele>62</ele>
        <time>2021-03-27T10:32:39Z</time>
      </trkpt>
      <trkpt lat="43.68377" lon="3.9171">
        <ele>62</ele>
        <time>2021-03-27T10:32:40Z</time>
      </trkpt>
      <trkpt lat="43.68375" lon="3.91701">
        <ele>62</ele>
        <time>2021-03-27T10:32:42Z</time>
      </trkpt>
      <trkpt lat="43.68374" lon="3.91697">
        <ele>62</ele>
        <time>2021-03-27T10:32:43Z</time>
      </trkpt>
      <trkpt lat="43.68374" lon="3.91692">
        <ele>63</ele>
        <time>2021-03-27T10:32:44Z</time>
      </trkpt>
      <trkpt lat="43.68375" lon="3.91688">
        <ele>63</ele>
        <time>2021-03-27T10:32:45Z</time>
      </trkpt>
      <trkpt lat="43.68375" lon="3.91683">
        <ele>63</ele>
        <time>2021-03-27T10:32:46Z</time>
      </trkpt>
      <trkpt lat="43.68376" lon="3.91679">
        <ele>63</ele>
        <time>2021-03-27T10:32:47Z</time>
      </trkpt>
      <trkpt lat="43.68376" lon="3.91675">
        <ele>63</ele>
        <time>2021-03-27T10:32:48Z</time>
      </trkpt>
      <trkpt lat="43.68376" lon="3.9167">
        <ele>63</ele>
        <time>2021-03-27T10:32:49Z</time>
      </trkpt>
      <trkpt lat="43.68375" lon="3.91666">
        <ele>63</ele>
        <time>2021-03-27T10:32:50Z</time>
      </trkpt>
      <trkpt lat="43.68375" lon="3.91661">
        <ele>63</ele>
        <time>2021-03-27T10:32:51Z</time>
      </trkpt>
      <trkpt lat="43.68374" lon="3.91653">
        <ele>63</ele>
        <time>2021-03-27T10:32:53Z</time>
      </trkpt>
      <trkpt lat="43.68373" lon="3.91649">
        <ele>65</ele>
        <time>2021-03-27T10:32:54Z</time>
      </trkpt>
      <trkpt lat="43.68371" lon="3.91645">
        <ele>65</ele>
        <time>2021-03-27T10:32:55Z</time>
      </trkpt>
      <trkpt lat="43.6837" lon="3.91641">
        <ele>65</ele>
        <time>2021-03-27T10:32:56Z</time>
      </trkpt>
      <trkpt lat="43.68366" lon="3.91632">
        <ele>65</ele>
        <time>2021-03-27T10:32:58Z</time>
      </trkpt>
      <trkpt lat="43.68365" lon="3.91628">
        <ele>65</ele>
        <time>2021-03-27T10:32:59Z</time>
      </trkpt>
      <trkpt lat="43.68363" lon="3.91624">
        <ele>65</ele>
        <time>2021-03-27T10:33:00Z</time>
      </trkpt>
      <trkpt lat="43.68362" lon="3.9162">
        <ele>65</ele>
        <time>2021-03-27T10:33:01Z</time>
      </trkpt>
      <trkpt lat="43.6836" lon="3.91616">
        <ele>65</ele>
        <time>2021-03-27T10:33:02Z</time>
      </trkpt>
      <trkpt lat="43.68359" lon="3.91611">
        <ele>65</ele>
        <time>2021-03-27T10:33:03Z</time>
      </trkpt>
      <trkpt lat="43.68357" lon="3.91607">
        <ele>65</ele>
        <time>2021-03-27T10:33:04Z</time>
      </trkpt>
      <trkpt lat="43.68355" lon="3.91602">
        <ele>65</ele>
        <time>2021-03-27T10:33:05Z</time>
      </trkpt>
      <trkpt lat="43.68353" lon="3.91597">
        <ele>65</ele>
        <time>2021-03-27T10:33:06Z</time>
      </trkpt>
      <trkpt lat="43.68352" lon="3.91593">
        <ele>65</ele>
        <time>2021-03-27T10:33:07Z</time>
      </trkpt>
      <trkpt lat="43.6835" lon="3.91588">
        <ele>65</ele>
        <time>2021-03-27T10:33:08Z</time>
      </trkpt>
      <trkpt lat="43.68348" lon="3.91583">
        <ele>65</ele>
        <time>2021-03-27T10:33:09Z</time>
      </trkpt>
      <trkpt lat="43.68346" lon="3.91579">
        <ele>65</ele>
        <time>2021-03-27T10:33:10Z</time>
      </trkpt>
      <trkpt lat="43.68344" lon="3.91575">
        <ele>65</ele>
        <time>2021-03-27T10:33:11Z</time>
      </trkpt>
      <trkpt lat="43.68343" lon="3.91571">
        <ele>65</ele>
        <time>2021-03-27T10:33:12Z</time>
      </trkpt>
      <trkpt lat="43.68341" lon="3.91567">
        <ele>65</ele>
        <time>2021-03-27T10:33:13Z</time>
      </trkpt>
      <trkpt lat="43.68338" lon="3.9156">
        <ele>66</ele>
        <time>2021-03-27T10:33:15Z</time>
      </trkpt>
      <trkpt lat="43.68334" lon="3.91554">
        <ele>66</ele>
        <time>2021-03-27T10:33:17Z</time>
      </trkpt>
      <trkpt lat="43.68333" lon="3.91553">
        <ele>66</ele>
        <time>2021-03-27T10:33:18Z</time>
      </trkpt>
      <trkpt lat="43.68332" lon="3.91548">
        <ele>66</ele>
        <time>2021-03-27T10:33:20Z</time>
      </trkpt>
      <trkpt lat="43.68333" lon="3.91546">
        <ele>66</ele>
        <time>2021-03-27T10:33:22Z</time>
      </trkpt>
      <trkpt lat="43.68333" lon="3.91541">
        <ele>66</ele>
        <time>2021-03-27T10:33:23Z</time>
      </trkpt>
      <trkpt lat="43.68333" lon="3.91538">
        <ele>66</ele>
        <time>2021-03-27T10:33:24Z</time>
      </trkpt>
      <trkpt lat="43.68334" lon="3.91535">
        <ele>66</ele>
        <time>2021-03-27T10:33:25Z</time>
      </trkpt>
      <trkpt lat="43.68335" lon="3.91532">
        <ele>66</ele>
        <time>2021-03-27T10:33:26Z</time>
      </trkpt>
      <trkpt lat="43.68337" lon="3.91528">
        <ele>66</ele>
        <time>2021-03-27T10:33:27Z</time>
      </trkpt>
      <trkpt lat="43.68338" lon="3.91525">
        <ele>66</ele>
        <time>2021-03-27T10:33:28Z</time>
      </trkpt>
      <trkpt lat="43.68339" lon="3.91521">
        <ele>66</ele>
        <time>2021-03-27T10:33:29Z</time>
      </trkpt>
      <trkpt lat="43.68341" lon="3.91517">
        <ele>66</ele>
        <time>2021-03-27T10:33:30Z</time>
      </trkpt>
      <trkpt lat="43.68342" lon="3.91514">
        <ele>66</ele>
        <time>2021-03-27T10:33:31Z</time>
      </trkpt>
      <trkpt lat="43.68344" lon="3.9151">
        <ele>66</ele>
        <time>2021-03-27T10:33:32Z</time>
      </trkpt>
      <trkpt lat="43.68346" lon="3.91507">
        <ele>66</ele>
        <time>2021-03-27T10:33:33Z</time>
      </trkpt>
      <trkpt lat="43.68348" lon="3.91503">
        <ele>67</ele>
        <time>2021-03-27T10:33:34Z</time>
      </trkpt>
      <trkpt lat="43.68349" lon="3.91499">
        <ele>67</ele>
        <time>2021-03-27T10:33:35Z</time>
      </trkpt>
      <trkpt lat="43.68351" lon="3.91495">
        <ele>67</ele>
        <time>2021-03-27T10:33:36Z</time>
      </trkpt>
      <trkpt lat="43.68353" lon="3.91491">
        <ele>67</ele>
        <time>2021-03-27T10:33:37Z</time>
      </trkpt>
      <trkpt lat="43.68354" lon="3.91488">
        <ele>67</ele>
        <time>2021-03-27T10:33:38Z</time>
      </trkpt>
      <trkpt lat="43.68356" lon="3.91484">
        <ele>67</ele>
        <time>2021-03-27T10:33:39Z</time>
      </trkpt>
      <trkpt lat="43.68357" lon="3.91481">
        <ele>67</ele>
        <time>2021-03-27T10:33:40Z</time>
      </trkpt>
      <trkpt lat="43.6836" lon="3.91473">
        <ele>67</ele>
        <time>2021-03-27T10:33:42Z</time>
      </trkpt>
      <trkpt lat="43.68362" lon="3.91469">
        <ele>67</ele>
        <time>2021-03-27T10:33:43Z</time>
      </trkpt>
      <trkpt lat="43.68364" lon="3.91466">
        <ele>68</ele>
        <time>2021-03-27T10:33:44Z</time>
      </trkpt>
      <trkpt lat="43.68366" lon="3.91462">
        <ele>68</ele>
        <time>2021-03-27T10:33:45Z</time>
      </trkpt>
      <trkpt lat="43.68368" lon="3.91458">
        <ele>68</ele>
        <time>2021-03-27T10:33:46Z</time>
      </trkpt>
      <trkpt lat="43.68369" lon="3.91454">
        <ele>68</ele>
        <time>2021-03-27T10:33:47Z</time>
      </trkpt>
      <trkpt lat="43.68371" lon="3.9145">
        <ele>68</ele>
        <time>2021-03-27T10:33:48Z</time>
      </trkpt>
      <trkpt lat="43.68372" lon="3.91447">
        <ele>68</ele>
        <time>2021-03-27T10:33:49Z</time>
      </trkpt>
      <trkpt lat="43.68374" lon="3.91443">
        <ele>68</ele>
        <time>2021-03-27T10:33:50Z</time>
      </trkpt>
      <trkpt lat="43.68375" lon="3.91439">
        <ele>68</ele>
        <time>2021-03-27T10:33:51Z</time>
      </trkpt>
      <trkpt lat="43.68377" lon="3.91436">
        <ele>68</ele>
        <time>2021-03-27T10:33:52Z</time>
      </trkpt>
      <trkpt lat="43.68378" lon="3.91432">
        <ele>68</ele>
        <time>2021-03-27T10:33:53Z</time>
      </trkpt>
      <trkpt lat="43.6838" lon="3.91429">
        <ele>68</ele>
        <time>2021-03-27T10:33:54Z</time>
      </trkpt>
      <trkpt lat="43.68382" lon="3.91426">
        <ele>69</ele>
        <time>2021-03-27T10:33:55Z</time>
      </trkpt>
      <trkpt lat="43.68384" lon="3.91423">
        <ele>69</ele>
        <time>2021-03-27T10:33:56Z</time>
      </trkpt>
      <trkpt lat="43.68387" lon="3.9142">
        <ele>69</ele>
        <time>2021-03-27T10:33:57Z</time>
      </trkpt>
      <trkpt lat="43.68389" lon="3.91417">
        <ele>69</ele>
        <time>2021-03-27T10:33:58Z</time>
      </trkpt>
      <trkpt lat="43.68392" lon="3.91414">
        <ele>69</ele>
        <time>2021-03-27T10:33:59Z</time>
      </trkpt>
      <trkpt lat="43.68394" lon="3.91411">
        <ele>69</ele>
        <time>2021-03-27T10:34:00Z</time>
      </trkpt>
      <trkpt lat="43.68397" lon="3.91408">
        <ele>69</ele>
        <time>2021-03-27T10:34:01Z</time>
      </trkpt>
      <trkpt lat="43.68399" lon="3.91405">
        <ele>69</ele>
        <time>2021-03-27T10:34:02Z</time>
      </trkpt>
      <trkpt lat="43.68401" lon="3.91402">
        <ele>69</ele>
        <time>2021-03-27T10:34:03Z</time>
      </trkpt>
      <trkpt lat="43.68403" lon="3.91399">
        <ele>69</ele>
        <time>2021-03-27T10:34:04Z</time>
      </trkpt>
      <trkpt lat="43.68405" lon="3.91395">
        <ele>69</ele>
        <time>2021-03-27T10:34:05Z</time>
      </trkpt>
      <trkpt lat="43.68407" lon="3.91392">
        <ele>69</ele>
        <time>2021-03-27T10:34:06Z</time>
      </trkpt>
      <trkpt lat="43.68409" lon="3.91388">
        <ele>69</ele>
        <time>2021-03-27T10:34:07Z</time>
      </trkpt>
      <trkpt lat="43.68411" lon="3.91384">
        <ele>69</ele>
        <time>2021-03-27T10:34:08Z</time>
      </trkpt>
      <trkpt lat="43.68412" lon="3.9138">
        <ele>69</ele>
        <time>2021-03-27T10:34:09Z</time>
      </trkpt>
      <trkpt lat="43.68414" lon="3.91375">
        <ele>69</ele>
        <time>2021-03-27T10:34:10Z</time>
      </trkpt>
      <trkpt lat="43.68416" lon="3.91371">
        <ele>69</ele>
        <time>2021-03-27T10:34:11Z</time>
      </trkpt>
      <trkpt lat="43.68418" lon="3.91366">
        <ele>69</ele>
        <time>2021-03-27T10:34:12Z</time>
      </trkpt>
      <trkpt lat="43.6842" lon="3.91362">
        <ele>69</ele>
        <time>2021-03-27T10:34:13Z</time>
      </trkpt>
      <trkpt lat="43.68422" lon="3.91357">
        <ele>69</ele>
        <time>2021-03-27T10:34:14Z</time>
      </trkpt>
      <trkpt lat="43.68424" lon="3.91353">
        <ele>69</ele>
        <time>2021-03-27T10:34:15Z</time>
      </trkpt>
      <trkpt lat="43.68426" lon="3.91348">
        <ele>69</ele>
        <time>2021-03-27T10:34:16Z</time>
      </trkpt>
      <trkpt lat="43.68428" lon="3.91344">
        <ele>69</ele>
        <time>2021-03-27T10:34:17Z</time>
      </trkpt>
      <trkpt lat="43.6843" lon="3.9134">
        <ele>69</ele>
        <time>2021-03-27T10:34:18Z</time>
      </trkpt>
      <trkpt lat="43.68432" lon="3.91335">
        <ele>69</ele>
        <time>2021-03-27T10:34:19Z</time>
      </trkpt>
      <trkpt lat="43.68434" lon="3.91331">
        <ele>69</ele>
        <time>2021-03-27T10:34:20Z</time>
      </trkpt>
      <trkpt lat="43.68436" lon="3.91327">
        <ele>69</ele>
        <time>2021-03-27T10:34:21Z</time>
      </trkpt>
      <trkpt lat="43.68439" lon="3.91323">
        <ele>69</ele>
        <time>2021-03-27T10:34:22Z</time>
      </trkpt>
      <trkpt lat="43.68441" lon="3.9132">
        <ele>69</ele>
        <time>2021-03-27T10:34:23Z</time>
      </trkpt>
      <trkpt lat="43.68443" lon="3.91316">
        <ele>69</ele>
        <time>2021-03-27T10:34:24Z</time>
      </trkpt>
      <trkpt lat="43.68446" lon="3.91312">
        <ele>70</ele>
        <time>2021-03-27T10:34:25Z</time>
      </trkpt>
      <trkpt lat="43.68448" lon="3.91309">
        <ele>70</ele>
        <time>2021-03-27T10:34:26Z</time>
      </trkpt>
      <trkpt lat="43.6845" lon="3.91305">
        <ele>70</ele>
        <time>2021-03-27T10:34:27Z</time>
      </trkpt>
      <trkpt lat="43.68452" lon="3.91302">
        <ele>70</ele>
        <time>2021-03-27T10:34:28Z</time>
      </trkpt>
      <trkpt lat="43.68455" lon="3.91298">
        <ele>70</ele>
        <time>2021-03-27T10:34:29Z</time>
      </trkpt>
      <trkpt lat="43.68457" lon="3.91294">
        <ele>70</ele>
        <time>2021-03-27T10:34:30Z</time>
      </trkpt>
      <trkpt lat="43.68459" lon="3.91291">
        <ele>70</ele>
        <time>2021-03-27T10:34:31Z</time>
      </trkpt>
      <trkpt lat="43.68462" lon="3.91287">
        <ele>70</ele>
        <time>2021-03-27T10:34:32Z</time>
      </trkpt>
      <trkpt lat="43.68464" lon="3.91283">
        <ele>70</ele>
        <time>2021-03-27T10:34:33Z</time>
      </trkpt>
      <trkpt lat="43.68466" lon="3.9128">
        <ele>70</ele>
        <time>2021-03-27T10:34:34Z</time>
      </trkpt>
      <trkpt lat="43.68468" lon="3.91276">
        <ele>70</ele>
        <time>2021-03-27T10:34:35Z</time>
      </trkpt>
      <trkpt lat="43.6847" lon="3.91273">
        <ele>70</ele>
        <time>2021-03-27T10:34:36Z</time>
      </trkpt>
      <trkpt lat="43.68472" lon="3.91269">
        <ele>70</ele>
        <time>2021-03-27T10:34:37Z</time>
      </trkpt>
      <trkpt lat="43.68474" lon="3.91265">
        <ele>70</ele>
        <time>2021-03-27T10:34:38Z</time>
      </trkpt>
      <trkpt lat="43.68476" lon="3.91262">
        <ele>70</ele>
        <time>2021-03-27T10:34:39Z</time>
      </trkpt>
      <trkpt lat="43.68478" lon="3.91258">
        <ele>70</ele>
        <time>2021-03-27T10:34:40Z</time>
      </trkpt>
      <trkpt lat="43.6848" lon="3.91254">
        <ele>70</ele>
        <time>2021-03-27T10:34:41Z</time>
      </trkpt>
      <trkpt lat="43.68481" lon="3.91251">
        <ele>70</ele>
        <time>2021-03-27T10:34:42Z</time>
      </trkpt>
      <trkpt lat="43.68483" lon="3.91247">
        <ele>70</ele>
        <time>2021-03-27T10:34:43Z</time>
      </trkpt>
      <trkpt lat="43.68486" lon="3.9124">
        <ele>71</ele>
        <time>2021-03-27T10:34:45Z</time>
      </trkpt>
      <trkpt lat="43.68488" lon="3.91237">
        <ele>71</ele>
        <time>2021-03-27T10:34:46Z</time>
      </trkpt>
      <trkpt lat="43.68489" lon="3.91234">
        <ele>71</ele>
        <time>2021-03-27T10:34:47Z</time>
      </trkpt>
      <trkpt lat="43.6849" lon="3.91231">
        <ele>71</ele>
        <time>2021-03-27T10:34:48Z</time>
      </trkpt>
      <trkpt lat="43.68492" lon="3.91228">
        <ele>71</ele>
        <time>2021-03-27T10:34:49Z</time>
      </trkpt>
      <trkpt lat="43.68493" lon="3.91225">
        <ele>71</ele>
        <time>2021-03-27T10:34:50Z</time>
      </trkpt>
      <trkpt lat="43.68495" lon="3.9122">
        <ele>71</ele>
        <time>2021-03-27T10:34:52Z</time>
      </trkpt>
      <trkpt lat="43.68496" lon="3.91218">
        <ele>71</ele>
        <time>2021-03-27T10:34:53Z</time>
      </trkpt>
      <trkpt lat="43.68498" lon="3.91214">
        <ele>71</ele>
        <time>2021-03-27T10:34:55Z</time>
      </trkpt>
      <trkpt lat="43.68499" lon="3.9121">
        <ele>71</ele>
        <time>2021-03-27T10:34:57Z</time>
      </trkpt>
      <trkpt lat="43.68502" lon="3.91207">
        <ele>71</ele>
        <time>2021-03-27T10:34:59Z</time>
      </trkpt>
      <trkpt lat="43.68505" lon="3.91206">
        <ele>71</ele>
        <time>2021-03-27T10:35:01Z</time>
      </trkpt>
      <trkpt lat="43.68508" lon="3.91203">
        <ele>71</ele>
        <time>2021-03-27T10:35:03Z</time>
      </trkpt>
      <trkpt lat="43.6851" lon="3.912">
        <ele>74</ele>
        <time>2021-03-27T10:35:05Z</time>
      </trkpt>
      <trkpt lat="43.68513" lon="3.91198">
        <ele>74</ele>
        <time>2021-03-27T10:35:07Z</time>
      </trkpt>
      <trkpt lat="43.68516" lon="3.91196">
        <ele>74</ele>
        <time>2021-03-27T10:35:09Z</time>
      </trkpt>
      <trkpt lat="43.68519" lon="3.91194">
        <ele>74</ele>
        <time>2021-03-27T10:35:11Z</time>
      </trkpt>
      <trkpt lat="43.68522" lon="3.91192">
        <ele>74</ele>
        <time>2021-03-27T10:35:13Z</time>
      </trkpt>
      <trkpt lat="43.68525" lon="3.9119">
        <ele>74</ele>
        <time>2021-03-27T10:35:15Z</time>
      </trkpt>
      <trkpt lat="43.68528" lon="3.91188">
        <ele>74</ele>
        <time>2021-03-27T10:35:17Z</time>
      </trkpt>
      <trkpt lat="43.6853" lon="3.91185">
        <ele>74</ele>
        <time>2021-03-27T10:35:19Z</time>
      </trkpt>
      <trkpt lat="43.68533" lon="3.91182">
        <ele>74</ele>
        <time>2021-03-27T10:35:21Z</time>
      </trkpt>
      <trkpt lat="43.68535" lon="3.91179">
        <ele>74</ele>
        <time>2021-03-27T10:35:23Z</time>
      </trkpt>
      <trkpt lat="43.68537" lon="3.91176">
        <ele>74</ele>
        <time>2021-03-27T10:35:25Z</time>
      </trkpt>
      <trkpt lat="43.68539" lon="3.91172">
        <ele>74</ele>
        <time>2021-03-27T10:35:27Z</time>
      </trkpt>
      <trkpt lat="43.6854" lon="3.9117">
        <ele>74</ele>
        <time>2021-03-27T10:35:28Z</time>
      </trkpt>
      <trkpt lat="43.68542" lon="3.91167">
        <ele>74</ele>
        <time>2021-03-27T10:35:30Z</time>
      </trkpt>
      <trkpt lat="43.68544" lon="3.91163">
        <ele>74</ele>
        <time>2021-03-27T10:35:32Z</time>
      </trkpt>
      <trkpt lat="43.68546" lon="3.9116">
        <ele>80</ele>
        <time>2021-03-27T10:35:34Z</time>
      </trkpt>
      <trkpt lat="43.68548" lon="3.91157">
        <ele>80</ele>
        <time>2021-03-27T10:35:36Z</time>
      </trkpt>
      <trkpt lat="43.6855" lon="3.91154">
        <ele>80</ele>
        <time>2021-03-27T10:35:38Z</time>
      </trkpt>
      <trkpt lat="43.68551" lon="3.91152">
        <ele>80</ele>
        <time>2021-03-27T10:35:40Z</time>
      </trkpt>
      <trkpt lat="43.68553" lon="3.91149">
        <ele>80</ele>
        <time>2021-03-27T10:35:42Z</time>
      </trkpt>
      <trkpt lat="43.68554" lon="3.91146">
        <ele>82</ele>
        <time>2021-03-27T10:35:44Z</time>
      </trkpt>
      <trkpt lat="43.68556" lon="3.91143">
        <ele>82</ele>
        <time>2021-03-27T10:35:46Z</time>
      </trkpt>
      <trkpt lat="43.68558" lon="3.9114">
        <ele>82</ele>
        <time>2021-03-27T10:35:48Z</time>
      </trkpt>
      <trkpt lat="43.68559" lon="3.91136">
        <ele>82</ele>
        <time>2021-03-27T10:35:50Z</time>
      </trkpt>
      <trkpt lat="43.68561" lon="3.91133">
        <ele>82</ele>
        <time>2021-03-27T10:35:52Z</time>
      </trkpt>
      <trkpt lat="43.68562" lon="3.91131">
        <ele>82</ele>
        <time>2021-03-27T10:35:54Z</time>
      </trkpt>
      <trkpt lat="43.68564" lon="3.91128">
        <ele>82</ele>
        <time>2021-03-27T10:35:56Z</time>
      </trkpt>
      <trkpt lat="43.68566" lon="3.91125">
        <ele>82</ele>
        <time>2021-03-27T10:35:58Z</time>
      </trkpt>
      <trkpt lat="43.68567" lon="3.91122">
        <ele>82</ele>
        <time>2021-03-27T10:36:00Z</time>
      </trkpt>
      <trkpt lat="43.68569" lon="3.91119">
        <ele>82</ele>
        <time>2021-03-27T10:36:02Z</time>
      </trkpt>
      <trkpt lat="43.68571" lon="3.91116">
        <ele>82</ele>
        <time>2021-03-27T10:36:04Z</time>
      </trkpt>
      <trkpt lat="43.68573" lon="3.91113">
        <ele>82</ele>
        <time>2021-03-27T10:36:06Z</time>
      </trkpt>
      <trkpt lat="43.68575" lon="3.91111">
        <ele>82</ele>
        <time>2021-03-27T10:36:08Z</time>
      </trkpt>
      <trkpt lat="43.68577" lon="3.91108">
        <ele>82</ele>
        <time>2021-03-27T10:36:10Z</time>
      </trkpt>
      <trkpt lat="43.68578" lon="3.91104">
        <ele>82</ele>
        <time>2021-03-27T10:36:12Z</time>
      </trkpt>
      <trkpt lat="43.6858" lon="3.91101">
        <ele>82</ele>
        <time>2021-03-27T10:36:14Z</time>
      </trkpt>
      <trkpt lat="43.68582" lon="3.91099">
        <ele>82</ele>
        <time>2021-03-27T10:36:16Z</time>
      </trkpt>
      <trkpt lat="43.68584" lon="3.91097">
        <ele>82</ele>
        <time>2021-03-27T10:36:18Z</time>
      </trkpt>
      <trkpt lat="43.68587" lon="3.91095">
        <ele>82</ele>
        <time>2021-03-27T10:36:20Z</time>
      </trkpt>
      <trkpt lat="43.6859" lon="3.91093">
        <ele>82</ele>
        <time>2021-03-27T10:36:22Z</time>
      </trkpt>
      <trkpt lat="43.68592" lon="3.91091">
        <ele>91</ele>
        <time>2021-03-27T10:36:24Z</time>
      </trkpt>
      <trkpt lat="43.68595" lon="3.91089">
        <ele>91</ele>
        <time>2021-03-27T10:36:26Z</time>
      </trkpt>
      <trkpt lat="43.68598" lon="3.91086">
        <ele>91</ele>
        <time>2021-03-27T10:36:28Z</time>
      </trkpt>
      <trkpt lat="43.686" lon="3.91084">
        <ele>91</ele>
        <time>2021-03-27T10:36:30Z</time>
      </trkpt>
      <trkpt lat="43.68603" lon="3.91082">
        <ele>91</ele>
        <time>2021-03-27T10:36:32Z</time>
      </trkpt>
      <trkpt lat="43.68605" lon="3.91078">
        <ele>91</ele>
        <time>2021-03-27T10:36:34Z</time>
      </trkpt>
      <trkpt lat="43.68607" lon="3.91075">
        <ele>91</ele>
        <time>2021-03-27T10:36:36Z</time>
      </trkpt>
      <trkpt lat="43.6861" lon="3.91072">
        <ele>91</ele>
        <time>2021-03-27T10:36:38Z</time>
      </trkpt>
      <trkpt lat="43.68611" lon="3.9107">
        <ele>91</ele>
        <time>2021-03-27T10:36:39Z</time>
      </trkpt>
      <trkpt lat="43.68614" lon="3.91067">
        <ele>91</ele>
        <time>2021-03-27T10:36:41Z</time>
      </trkpt>
      <trkpt lat="43.68617" lon="3.91063">
        <ele>91</ele>
        <time>2021-03-27T10:36:43Z</time>
      </trkpt>
      <trkpt lat="43.68619" lon="3.9106">
        <ele>94</ele>
        <time>2021-03-27T10:36:45Z</time>
      </trkpt>
      <trkpt lat="43.68621" lon="3.91056">
        <ele>94</ele>
        <time>2021-03-27T10:36:47Z</time>
      </trkpt>
      <trkpt lat="43.68622" lon="3.91052">
        <ele>94</ele>
        <time>2021-03-27T10:36:49Z</time>
      </trkpt>
      <trkpt lat="43.68624" lon="3.91048">
        <ele>94</ele>
        <time>2021-03-27T10:36:51Z</time>
      </trkpt>
      <trkpt lat="43.68625" lon="3.91044">
        <ele>94</ele>
        <time>2021-03-27T10:36:53Z</time>
      </trkpt>
      <trkpt lat="43.68627" lon="3.9104">
        <ele>95</ele>
        <time>2021-03-27T10:36:55Z</time>
      </trkpt>
      <trkpt lat="43.68628" lon="3.91036">
        <ele>95</ele>
        <time>2021-03-27T10:36:57Z</time>
      </trkpt>
      <trkpt lat="43.68629" lon="3.91032">
        <ele>95</ele>
        <time>2021-03-27T10:36:59Z</time>
      </trkpt>
      <trkpt lat="43.68631" lon="3.91028">
        <ele>95</ele>
        <time>2021-03-27T10:37:01Z</time>
      </trkpt>
      <trkpt lat="43.68632" lon="3.91024">
        <ele>95</ele>
        <time>2021-03-27T10:37:03Z</time>
      </trkpt>
      <trkpt lat="43.68633" lon="3.9102">
        <ele>97</ele>
        <time>2021-03-27T10:37:05Z</time>
      </trkpt>
      <trkpt lat="43.68635" lon="3.91016">
        <ele>97</ele>
        <time>2021-03-27T10:37:07Z</time>
      </trkpt>
      <trkpt lat="43.68636" lon="3.91012">
        <ele>97</ele>
        <time>2021-03-27T10:37:09Z</time>
      </trkpt>
      <trkpt lat="43.68637" lon="3.91007">
        <ele>97</ele>
        <time>2021-03-27T10:37:11Z</time>
      </trkpt>
      <trkpt lat="43.68638" lon="3.91003">
        <ele>97</ele>
        <time>2021-03-27T10:37:13Z</time>
      </trkpt>
      <trkpt lat="43.6864" lon="3.90999">
        <ele>97</ele>
        <time>2021-03-27T10:37:15Z</time>
      </trkpt>
      <trkpt lat="43.68641" lon="3.90995">
        <ele>97</ele>
        <time>2021-03-27T10:37:17Z</time>
      </trkpt>
      <trkpt lat="43.68642" lon="3.90991">
        <ele>97</ele>
        <time>2021-03-27T10:37:19Z</time>
      </trkpt>
      <trkpt lat="43.68643" lon="3.90986">
        <ele>97</ele>
        <time>2021-03-27T10:37:21Z</time>
      </trkpt>
      <trkpt lat="43.68643" lon="3.90981">
        <ele>97</ele>
        <time>2021-03-27T10:37:23Z</time>
      </trkpt>
      <trkpt lat="43.68645" lon="3.90976">
        <ele>98</ele>
        <time>2021-03-27T10:37:25Z</time>
      </trkpt>
      <trkpt lat="43.68646" lon="3.90972">
        <ele>98</ele>
        <time>2021-03-27T10:37:27Z</time>
      </trkpt>
      <trkpt lat="43.68647" lon="3.9097">
        <ele>98</ele>
        <time>2021-03-27T10:37:28Z</time>
      </trkpt>
      <trkpt lat="43.68647" lon="3.90967">
        <ele>98</ele>
        <time>2021-03-27T10:37:29Z</time>
      </trkpt>
      <trkpt lat="43.68648" lon="3.90965">
        <ele>98</ele>
        <time>2021-03-27T10:37:30Z</time>
      </trkpt>
      <trkpt lat="43.68648" lon="3.90962">
        <ele>98</ele>
        <time>2021-03-27T10:37:31Z</time>
      </trkpt>
      <trkpt lat="43.68648" lon="3.9096">
        <ele>98</ele>
        <time>2021-03-27T10:37:32Z</time>
      </trkpt>
      <trkpt lat="43.68649" lon="3.90957">
        <ele>98</ele>
        <time>2021-03-27T10:37:33Z</time>
      </trkpt>
      <trkpt lat="43.68649" lon="3.90952">
        <ele>100</ele>
        <time>2021-03-27T10:37:35Z</time>
      </trkpt>
      <trkpt lat="43.68649" lon="3.9095">
        <ele>100</ele>
        <time>2021-03-27T10:37:36Z</time>
      </trkpt>
      <trkpt lat="43.68649" lon="3.90947">
        <ele>100</ele>
        <time>2021-03-27T10:37:37Z</time>
      </trkpt>
      <trkpt lat="43.68649" lon="3.90944">
        <ele>100</ele>
        <time>2021-03-27T10:37:38Z</time>
      </trkpt>
      <trkpt lat="43.6865" lon="3.9094">
        <ele>100</ele>
        <time>2021-03-27T10:37:40Z</time>
      </trkpt>
      <trkpt lat="43.6865" lon="3.90937">
        <ele>100</ele>
        <time>2021-03-27T10:37:41Z</time>
      </trkpt>
      <trkpt lat="43.68651" lon="3.90934">
        <ele>100</ele>
        <time>2021-03-27T10:37:42Z</time>
      </trkpt>
      <trkpt lat="43.68652" lon="3.90932">
        <ele>100</ele>
        <time>2021-03-27T10:37:43Z</time>
      </trkpt>
      <trkpt lat="43.68652" lon="3.9093">
        <ele>100</ele>
        <time>2021-03-27T10:37:44Z</time>
      </trkpt>
      <trkpt lat="43.68653" lon="3.90927">
        <ele>101</ele>
        <time>2021-03-27T10:37:45Z</time>
      </trkpt>
      <trkpt lat="43.68654" lon="3.90924">
        <ele>101</ele>
        <time>2021-03-27T10:37:46Z</time>
      </trkpt>
      <trkpt lat="43.68655" lon="3.90921">
        <ele>101</ele>
        <time>2021-03-27T10:37:47Z</time>
      </trkpt>
      <trkpt lat="43.68656" lon="3.90919">
        <ele>101</ele>
        <time>2021-03-27T10:37:48Z</time>
      </trkpt>
      <trkpt lat="43.68657" lon="3.90916">
        <ele>101</ele>
        <time>2021-03-27T10:37:49Z</time>
      </trkpt>
      <trkpt lat="43.68658" lon="3.90913">
        <ele>101</ele>
        <time>2021-03-27T10:37:50Z</time>
      </trkpt>
      <trkpt lat="43.68659" lon="3.9091">
        <ele>101</ele>
        <time>2021-03-27T10:37:51Z</time>
      </trkpt>
      <trkpt lat="43.6866" lon="3.90907">
        <ele>101</ele>
        <time>2021-03-27T10:37:52Z</time>
      </trkpt>
      <trkpt lat="43.68661" lon="3.90905">
        <ele>101</ele>
        <time>2021-03-27T10:37:53Z</time>
      </trkpt>
      <trkpt lat="43.68662" lon="3.90902">
        <ele>101</ele>
        <time>2021-03-27T10:37:54Z</time>
      </trkpt>
      <trkpt lat="43.68663" lon="3.909">
        <ele>102</ele>
        <time>2021-03-27T10:37:55Z</time>
      </trkpt>
      <trkpt lat="43.68664" lon="3.90897">
        <ele>102</ele>
        <time>2021-03-27T10:37:56Z</time>
      </trkpt>
      <trkpt lat="43.68665" lon="3.90894">
        <ele>102</ele>
        <time>2021-03-27T10:37:57Z</time>
      </trkpt>
      <trkpt lat="43.68666" lon="3.90892">
        <ele>102</ele>
        <time>2021-03-27T10:37:58Z</time>
      </trkpt>
      <trkpt lat="43.68669" lon="3.90886">
        <ele>102</ele>
        <time>2021-03-27T10:38:00Z</time>
      </trkpt>
      <trkpt lat="43.68671" lon="3.90883">
        <ele>102</ele>
        <time>2021-03-27T10:38:01Z</time>
      </trkpt>
      <trkpt lat="43.68672" lon="3.9088">
        <ele>102</ele>
        <time>2021-03-27T10:38:02Z</time>
      </trkpt>
      <trkpt lat="43.68676" lon="3.90874">
        <ele>102</ele>
        <time>2021-03-27T10:38:04Z</time>
      </trkpt>
      <trkpt lat="43.6868" lon="3.90868">
        <ele>102</ele>
        <time>2021-03-27T10:38:06Z</time>
      </trkpt>
      <trkpt lat="43.68682" lon="3.90865">
        <ele>102</ele>
        <time>2021-03-27T10:38:07Z</time>
      </trkpt>
      <trkpt lat="43.68684" lon="3.90862">
        <ele>102</ele>
        <time>2021-03-27T10:38:08Z</time>
      </trkpt>
      <trkpt lat="43.68687" lon="3.9086">
        <ele>102</ele>
        <time>2021-03-27T10:38:09Z</time>
      </trkpt>
      <trkpt lat="43.68689" lon="3.90857">
        <ele>102</ele>
        <time>2021-03-27T10:38:10Z</time>
      </trkpt>
      <trkpt lat="43.68692" lon="3.90855">
        <ele>102</ele>
        <time>2021-03-27T10:38:11Z</time>
      </trkpt>
      <trkpt lat="43.68695" lon="3.90852">
        <ele>102</ele>
        <time>2021-03-27T10:38:12Z</time>
      </trkpt>
      <trkpt lat="43.68697" lon="3.9085">
        <ele>102</ele>
        <time>2021-03-27T10:38:13Z</time>
      </trkpt>
      <trkpt lat="43.687" lon="3.90848">
        <ele>103</ele>
        <time>2021-03-27T10:38:14Z</time>
      </trkpt>
      <trkpt lat="43.68702" lon="3.90846">
        <ele>103</ele>
        <time>2021-03-27T10:38:15Z</time>
      </trkpt>
      <trkpt lat="43.68704" lon="3.90843">
        <ele>103</ele>
        <time>2021-03-27T10:38:16Z</time>
      </trkpt>
      <trkpt lat="43.68706" lon="3.9084">
        <ele>103</ele>
        <time>2021-03-27T10:38:17Z</time>
      </trkpt>
      <trkpt lat="43.68708" lon="3.90838">
        <ele>103</ele>
        <time>2021-03-27T10:38:18Z</time>
      </trkpt>
      <trkpt lat="43.6871" lon="3.90835">
        <ele>103</ele>
        <time>2021-03-27T10:38:19Z</time>
      </trkpt>
      <trkpt lat="43.68713" lon="3.90831">
        <ele>103</ele>
        <time>2021-03-27T10:38:20Z</time>
      </trkpt>
      <trkpt lat="43.68715" lon="3.90828">
        <ele>103</ele>
        <time>2021-03-27T10:38:21Z</time>
      </trkpt>
      <trkpt lat="43.68717" lon="3.90825">
        <ele>103</ele>
        <time>2021-03-27T10:38:22Z</time>
      </trkpt>
      <trkpt lat="43.68718" lon="3.90822">
        <ele>103</ele>
        <time>2021-03-27T10:38:23Z</time>
      </trkpt>
      <trkpt lat="43.6872" lon="3.90818">
        <ele>104</ele>
        <time>2021-03-27T10:38:24Z</time>
      </trkpt>
      <trkpt lat="43.68722" lon="3.90814">
        <ele>104</ele>
        <time>2021-03-27T10:38:25Z</time>
      </trkpt>
      <trkpt lat="43.68724" lon="3.90811">
        <ele>104</ele>
        <time>2021-03-27T10:38:26Z</time>
      </trkpt>
      <trkpt lat="43.68726" lon="3.90807">
        <ele>104</ele>
        <time>2021-03-27T10:38:27Z</time>
      </trkpt>
      <trkpt lat="43.68728" lon="3.90803">
        <ele>104</ele>
        <time>2021-03-27T10:38:28Z</time>
      </trkpt>
      <trkpt lat="43.6873" lon="3.908">
        <ele>104</ele>
        <time>2021-03-27T10:38:29Z</time>
      </trkpt>
      <trkpt lat="43.68732" lon="3.90796">
        <ele>104</ele>
        <time>2021-03-27T10:38:30Z</time>
      </trkpt>
      <trkpt lat="43.68735" lon="3.90793">
        <ele>104</ele>
        <time>2021-03-27T10:38:31Z</time>
      </trkpt>
      <trkpt lat="43.68737" lon="3.90789">
        <ele>104</ele>
        <time>2021-03-27T10:38:32Z</time>
      </trkpt>
      <trkpt lat="43.68739" lon="3.90786">
        <ele>104</ele>
        <time>2021-03-27T10:38:33Z</time>
      </trkpt>
      <trkpt lat="43.68741" lon="3.90781">
        <ele>104</ele>
        <time>2021-03-27T10:38:34Z</time>
      </trkpt>
      <trkpt lat="43.68742" lon="3.90777">
        <ele>104</ele>
        <time>2021-03-27T10:38:35Z</time>
      </trkpt>
      <trkpt lat="43.68744" lon="3.90773">
        <ele>104</ele>
        <time>2021-03-27T10:38:36Z</time>
      </trkpt>
      <trkpt lat="43.68745" lon="3.90769">
        <ele>104</ele>
        <time>2021-03-27T10:38:37Z</time>
      </trkpt>
      <trkpt lat="43.68747" lon="3.90765">
        <ele>104</ele>
        <time>2021-03-27T10:38:38Z</time>
      </trkpt>
      <trkpt lat="43.68749" lon="3.90762">
        <ele>104</ele>
        <time>2021-03-27T10:38:39Z</time>
      </trkpt>
      <trkpt lat="43.6875" lon="3.90759">
        <ele>104</ele>
        <time>2021-03-27T10:38:40Z</time>
      </trkpt>
      <trkpt lat="43.68751" lon="3.90757">
        <ele>104</ele>
        <time>2021-03-27T10:38:41Z</time>
      </trkpt>
      <trkpt lat="43.68752" lon="3.90754">
        <ele>104</ele>
        <time>2021-03-27T10:38:42Z</time>
      </trkpt>
      <trkpt lat="43.68754" lon="3.90751">
        <ele>104</ele>
        <time>2021-03-27T10:38:43Z</time>
      </trkpt>
      <trkpt lat="43.68756" lon="3.90747">
        <ele>104</ele>
        <time>2021-03-27T10:38:44Z</time>
      </trkpt>
      <trkpt lat="43.68759" lon="3.90744">
        <ele>103</ele>
        <time>2021-03-27T10:38:45Z</time>
      </trkpt>
      <trkpt lat="43.68761" lon="3.9074">
        <ele>103</ele>
        <time>2021-03-27T10:38:46Z</time>
      </trkpt>
      <trkpt lat="43.68764" lon="3.90736">
        <ele>103</ele>
        <time>2021-03-27T10:38:47Z</time>
      </trkpt>
      <trkpt lat="43.68767" lon="3.90733">
        <ele>103</ele>
        <time>2021-03-27T10:38:48Z</time>
      </trkpt>
      <trkpt lat="43.6877" lon="3.90729">
        <ele>103</ele>
        <time>2021-03-27T10:38:49Z</time>
      </trkpt>
      <trkpt lat="43.68773" lon="3.90725">
        <ele>103</ele>
        <time>2021-03-27T10:38:50Z</time>
      </trkpt>
      <trkpt lat="43.68775" lon="3.90721">
        <ele>103</ele>
        <time>2021-03-27T10:38:51Z</time>
      </trkpt>
      <trkpt lat="43.68778" lon="3.90717">
        <ele>103</ele>
        <time>2021-03-27T10:38:52Z</time>
      </trkpt>
      <trkpt lat="43.68781" lon="3.90713">
        <ele>103</ele>
        <time>2021-03-27T10:38:53Z</time>
      </trkpt>
      <trkpt lat="43.68783" lon="3.90709">
        <ele>103</ele>
        <time>2021-03-27T10:38:54Z</time>
      </trkpt>
      <trkpt lat="43.68786" lon="3.90704">
        <ele>102</ele>
        <time>2021-03-27T10:38:55Z</time>
      </trkpt>
      <trkpt lat="43.68788" lon="3.90699">
        <ele>102</ele>
        <time>2021-03-27T10:38:56Z</time>
      </trkpt>
      <trkpt lat="43.6879" lon="3.90693">
        <ele>102</ele>
        <time>2021-03-27T10:38:57Z</time>
      </trkpt>
      <trkpt lat="43.68792" lon="3.90687">
        <ele>102</ele>
        <time>2021-03-27T10:38:58Z</time>
      </trkpt>
      <trkpt lat="43.68793" lon="3.9068">
        <ele>102</ele>
        <time>2021-03-27T10:38:59Z</time>
      </trkpt>
      <trkpt lat="43.68794" lon="3.90673">
        <ele>102</ele>
        <time>2021-03-27T10:39:00Z</time>
      </trkpt>
      <trkpt lat="43.68795" lon="3.90665">
        <ele>102</ele>
        <time>2021-03-27T10:39:01Z</time>
      </trkpt>
      <trkpt lat="43.68796" lon="3.90658">
        <ele>102</ele>
        <time>2021-03-27T10:39:02Z</time>
      </trkpt>
      <trkpt lat="43.68796" lon="3.90651">
        <ele>102</ele>
        <time>2021-03-27T10:39:03Z</time>
      </trkpt>
      <trkpt lat="43.68797" lon="3.90644">
        <ele>99</ele>
        <time>2021-03-27T10:39:04Z</time>
      </trkpt>
      <trkpt lat="43.68797" lon="3.90637">
        <ele>99</ele>
        <time>2021-03-27T10:39:05Z</time>
      </trkpt>
      <trkpt lat="43.68798" lon="3.9063">
        <ele>99</ele>
        <time>2021-03-27T10:39:07Z</time>
      </trkpt>
      <trkpt lat="43.688" lon="3.90619">
        <ele>99</ele>
        <time>2021-03-27T10:39:08Z</time>
      </trkpt>
      <trkpt lat="43.68802" lon="3.90613">
        <ele>99</ele>
        <time>2021-03-27T10:39:09Z</time>
      </trkpt>
      <trkpt lat="43.68803" lon="3.90607">
        <ele>99</ele>
        <time>2021-03-27T10:39:10Z</time>
      </trkpt>
      <trkpt lat="43.68805" lon="3.90601">
        <ele>99</ele>
        <time>2021-03-27T10:39:11Z</time>
      </trkpt>
      <trkpt lat="43.68806" lon="3.90596">
        <ele>99</ele>
        <time>2021-03-27T10:39:12Z</time>
      </trkpt>
      <trkpt lat="43.68807" lon="3.90591">
        <ele>99</ele>
        <time>2021-03-27T10:39:13Z</time>
      </trkpt>
      <trkpt lat="43.68809" lon="3.90586">
        <ele>99</ele>
        <time>2021-03-27T10:39:14Z</time>
      </trkpt>
      <trkpt lat="43.68812" lon="3.90581">
        <ele>98</ele>
        <time>2021-03-27T10:39:15Z</time>
      </trkpt>
      <trkpt lat="43.68815" lon="3.90576">
        <ele>98</ele>
        <time>2021-03-27T10:39:16Z</time>
      </trkpt>
      <trkpt lat="43.68818" lon="3.90571">
        <ele>98</ele>
        <time>2021-03-27T10:39:17Z</time>
      </trkpt>
      <trkpt lat="43.68821" lon="3.90568">
        <ele>98</ele>
        <time>2021-03-27T10:39:18Z</time>
      </trkpt>
      <trkpt lat="43.68825" lon="3.90564">
        <ele>98</ele>
        <time>2021-03-27T10:39:19Z</time>
      </trkpt>
      <trkpt lat="43.68828" lon="3.9056">
        <ele>98</ele>
        <time>2021-03-27T10:39:20Z</time>
      </trkpt>
      <trkpt lat="43.68832" lon="3.90557">
        <ele>98</ele>
        <time>2021-03-27T10:39:21Z</time>
      </trkpt>
      <trkpt lat="43.68834" lon="3.90553">
        <ele>98</ele>
        <time>2021-03-27T10:39:22Z</time>
      </trkpt>
      <trkpt lat="43.68837" lon="3.9055">
        <ele>98</ele>
        <time>2021-03-27T10:39:23Z</time>
      </trkpt>
      <trkpt lat="43.68838" lon="3.90546">
        <ele>98</ele>
        <time>2021-03-27T10:39:24Z</time>
      </trkpt>
      <trkpt lat="43.6884" lon="3.90543">
        <ele>95</ele>
        <time>2021-03-27T10:39:25Z</time>
      </trkpt>
      <trkpt lat="43.68844" lon="3.90537">
        <ele>95</ele>
        <time>2021-03-27T10:39:27Z</time>
      </trkpt>
      <trkpt lat="43.68846" lon="3.90534">
        <ele>95</ele>
        <time>2021-03-27T10:39:28Z</time>
      </trkpt>
      <trkpt lat="43.68849" lon="3.90531">
        <ele>95</ele>
        <time>2021-03-27T10:39:29Z</time>
      </trkpt>
      <trkpt lat="43.68852" lon="3.90527">
        <ele>95</ele>
        <time>2021-03-27T10:39:30Z</time>
      </trkpt>
      <trkpt lat="43.68855" lon="3.90523">
        <ele>95</ele>
        <time>2021-03-27T10:39:31Z</time>
      </trkpt>
      <trkpt lat="43.68858" lon="3.9052">
        <ele>95</ele>
        <time>2021-03-27T10:39:32Z</time>
      </trkpt>
      <trkpt lat="43.68861" lon="3.90517">
        <ele>95</ele>
        <time>2021-03-27T10:39:33Z</time>
      </trkpt>
      <trkpt lat="43.68864" lon="3.90514">
        <ele>93</ele>
        <time>2021-03-27T10:39:34Z</time>
      </trkpt>
      <trkpt lat="43.68867" lon="3.90512">
        <ele>93</ele>
        <time>2021-03-27T10:39:35Z</time>
      </trkpt>
      <trkpt lat="43.6887" lon="3.9051">
        <ele>93</ele>
        <time>2021-03-27T10:39:36Z</time>
      </trkpt>
      <trkpt lat="43.68873" lon="3.90508">
        <ele>93</ele>
        <time>2021-03-27T10:39:37Z</time>
      </trkpt>
      <trkpt lat="43.68876" lon="3.90507">
        <ele>93</ele>
        <time>2021-03-27T10:39:38Z</time>
      </trkpt>
      <trkpt lat="43.6888" lon="3.90505">
        <ele>93</ele>
        <time>2021-03-27T10:39:39Z</time>
      </trkpt>
      <trkpt lat="43.68883" lon="3.90502">
        <ele>93</ele>
        <time>2021-03-27T10:39:40Z</time>
      </trkpt>
      <trkpt lat="43.68886" lon="3.905">
        <ele>93</ele>
        <time>2021-03-27T10:39:41Z</time>
      </trkpt>
      <trkpt lat="43.68889" lon="3.90497">
        <ele>93</ele>
        <time>2021-03-27T10:39:42Z</time>
      </trkpt>
      <trkpt lat="43.68892" lon="3.90494">
        <ele>93</ele>
        <time>2021-03-27T10:39:43Z</time>
      </trkpt>
      <trkpt lat="43.68895" lon="3.90491">
        <ele>93</ele>
        <time>2021-03-27T10:39:44Z</time>
      </trkpt>
      <trkpt lat="43.68899" lon="3.90489">
        <ele>93</ele>
        <time>2021-03-27T10:39:45Z</time>
      </trkpt>
      <trkpt lat="43.68902" lon="3.90487">
        <ele>93</ele>
        <time>2021-03-27T10:39:46Z</time>
      </trkpt>
      <trkpt lat="43.68905" lon="3.90485">
        <ele>93</ele>
        <time>2021-03-27T10:39:47Z</time>
      </trkpt>
      <trkpt lat="43.68909" lon="3.90483">
        <ele>93</ele>
        <time>2021-03-27T10:39:48Z</time>
      </trkpt>
      <trkpt lat="43.68914" lon="3.90481">
        <ele>93</ele>
        <time>2021-03-27T10:39:49Z</time>
      </trkpt>
      <trkpt lat="43.68919" lon="3.90479">
        <ele>93</ele>
        <time>2021-03-27T10:39:50Z</time>
      </trkpt>
      <trkpt lat="43.68923" lon="3.90477">
        <ele>93</ele>
        <time>2021-03-27T10:39:51Z</time>
      </trkpt>
      <trkpt lat="43.68927" lon="3.90475">
        <ele>93</ele>
        <time>2021-03-27T10:39:52Z</time>
      </trkpt>
      <trkpt lat="43.68931" lon="3.90473">
        <ele>93</ele>
        <time>2021-03-27T10:39:53Z</time>
      </trkpt>
      <trkpt lat="43.68934" lon="3.90472">
        <ele>93</ele>
        <time>2021-03-27T10:39:54Z</time>
      </trkpt>
      <trkpt lat="43.68937" lon="3.90471">
        <ele>93</ele>
        <time>2021-03-27T10:39:55Z</time>
      </trkpt>
      <trkpt lat="43.68941" lon="3.9047">
        <ele>93</ele>
        <time>2021-03-27T10:39:56Z</time>
      </trkpt>
      <trkpt lat="43.68943" lon="3.90468">
        <ele>93</ele>
        <time>2021-03-27T10:39:57Z</time>
      </trkpt>
      <trkpt lat="43.68946" lon="3.90467">
        <ele>93</ele>
        <time>2021-03-27T10:39:58Z</time>
      </trkpt>
      <trkpt lat="43.68949" lon="3.90466">
        <ele>93</ele>
        <time>2021-03-27T10:39:59Z</time>
      </trkpt>
      <trkpt lat="43.68954" lon="3.90464">
        <ele>93</ele>
        <time>2021-03-27T10:40:01Z</time>
      </trkpt>
      <trkpt lat="43.68957" lon="3.90463">
        <ele>93</ele>
        <time>2021-03-27T10:40:02Z</time>
      </trkpt>
      <trkpt lat="43.6896" lon="3.90463">
        <ele>93</ele>
        <time>2021-03-27T10:40:03Z</time>
      </trkpt>
      <trkpt lat="43.68962" lon="3.90463">
        <ele>93</ele>
        <time>2021-03-27T10:40:04Z</time>
      </trkpt>
      <trkpt lat="43.68965" lon="3.90462">
        <ele>94</ele>
        <time>2021-03-27T10:40:05Z</time>
      </trkpt>
      <trkpt lat="43.68967" lon="3.90463">
        <ele>94</ele>
        <time>2021-03-27T10:40:06Z</time>
      </trkpt>
      <trkpt lat="43.68969" lon="3.90463">
        <ele>94</ele>
        <time>2021-03-27T10:40:07Z</time>
      </trkpt>
      <trkpt lat="43.68972" lon="3.90463">
        <ele>94</ele>
        <time>2021-03-27T10:40:08Z</time>
      </trkpt>
      <trkpt lat="43.68974" lon="3.90463">
        <ele>94</ele>
        <time>2021-03-27T10:40:09Z</time>
      </trkpt>
      <trkpt lat="43.68976" lon="3.90464">
        <ele>94</ele>
        <time>2021-03-27T10:40:10Z</time>
      </trkpt>
      <trkpt lat="43.68979" lon="3.90465">
        <ele>94</ele>
        <time>2021-03-27T10:40:11Z</time>
      </trkpt>
      <trkpt lat="43.68981" lon="3.90466">
        <ele>94</ele>
        <time>2021-03-27T10:40:12Z</time>
      </trkpt>
      <trkpt lat="43.68984" lon="3.90467">
        <ele>94</ele>
        <time>2021-03-27T10:40:13Z</time>
      </trkpt>
      <trkpt lat="43.68989" lon="3.90467">
        <ele>95</ele>
        <time>2021-03-27T10:40:15Z</time>
      </trkpt>
      <trkpt lat="43.68992" lon="3.90467">
        <ele>95</ele>
        <time>2021-03-27T10:40:16Z</time>
      </trkpt>
      <trkpt lat="43.68994" lon="3.90467">
        <ele>95</ele>
        <time>2021-03-27T10:40:17Z</time>
      </trkpt>
      <trkpt lat="43.68997" lon="3.90466">
        <ele>95</ele>
        <time>2021-03-27T10:40:18Z</time>
      </trkpt>
      <trkpt lat="43.68999" lon="3.90465">
        <ele>95</ele>
        <time>2021-03-27T10:40:19Z</time>
      </trkpt>
      <trkpt lat="43.69001" lon="3.90465">
        <ele>95</ele>
        <time>2021-03-27T10:40:20Z</time>
      </trkpt>
      <trkpt lat="43.69003" lon="3.90463">
        <ele>95</ele>
        <time>2021-03-27T10:40:21Z</time>
      </trkpt>
      <trkpt lat="43.69004" lon="3.90462">
        <ele>95</ele>
        <time>2021-03-27T10:40:22Z</time>
      </trkpt>
      <trkpt lat="43.69006" lon="3.90461">
        <ele>95</ele>
        <time>2021-03-27T10:40:23Z</time>
      </trkpt>
      <trkpt lat="43.69009" lon="3.9046">
        <ele>97</ele>
        <time>2021-03-27T10:40:24Z</time>
      </trkpt>
      <trkpt lat="43.69011" lon="3.9046">
        <ele>97</ele>
        <time>2021-03-27T10:40:25Z</time>
      </trkpt>
      <trkpt lat="43.69014" lon="3.9046">
        <ele>97</ele>
        <time>2021-03-27T10:40:26Z</time>
      </trkpt>
      <trkpt lat="43.69016" lon="3.90461">
        <ele>97</ele>
        <time>2021-03-27T10:40:27Z</time>
      </trkpt>
      <trkpt lat="43.69018" lon="3.90461">
        <ele>97</ele>
        <time>2021-03-27T10:40:28Z</time>
      </trkpt>
      <trkpt lat="43.69021" lon="3.90461">
        <ele>97</ele>
        <time>2021-03-27T10:40:29Z</time>
      </trkpt>
      <trkpt lat="43.69023" lon="3.90461">
        <ele>97</ele>
        <time>2021-03-27T10:40:30Z</time>
      </trkpt>
      <trkpt lat="43.69025" lon="3.90461">
        <ele>97</ele>
        <time>2021-03-27T10:40:31Z</time>
      </trkpt>
      <trkpt lat="43.69028" lon="3.90461">
        <ele>97</ele>
        <time>2021-03-27T10:40:32Z</time>
      </trkpt>
      <trkpt lat="43.6903" lon="3.9046">
        <ele>97</ele>
        <time>2021-03-27T10:40:33Z</time>
      </trkpt>
      <trkpt lat="43.69033" lon="3.90459">
        <ele>97</ele>
        <time>2021-03-27T10:40:34Z</time>
      </trkpt>
      <trkpt lat="43.6904" lon="3.90454">
        <ele>97</ele>
        <time>2021-03-27T10:40:36Z</time>
      </trkpt>
      <trkpt lat="43.69044" lon="3.9045">
        <ele>97</ele>
        <time>2021-03-27T10:40:37Z</time>
      </trkpt>
      <trkpt lat="43.69046" lon="3.90446">
        <ele>97</ele>
        <time>2021-03-27T10:40:38Z</time>
      </trkpt>
      <trkpt lat="43.69049" lon="3.90442">
        <ele>97</ele>
        <time>2021-03-27T10:40:39Z</time>
      </trkpt>
      <trkpt lat="43.69052" lon="3.90439">
        <ele>97</ele>
        <time>2021-03-27T10:40:40Z</time>
      </trkpt>
      <trkpt lat="43.69055" lon="3.90436">
        <ele>97</ele>
        <time>2021-03-27T10:40:41Z</time>
      </trkpt>
      <trkpt lat="43.69063" lon="3.90428">
        <ele>97</ele>
        <time>2021-03-27T10:40:43Z</time>
      </trkpt>
      <trkpt lat="43.69068" lon="3.90424">
        <ele>97</ele>
        <time>2021-03-27T10:40:44Z</time>
      </trkpt>
      <trkpt lat="43.69073" lon="3.9042">
        <ele>95</ele>
        <time>2021-03-27T10:40:45Z</time>
      </trkpt>
      <trkpt lat="43.69077" lon="3.90416">
        <ele>95</ele>
        <time>2021-03-27T10:40:46Z</time>
      </trkpt>
      <trkpt lat="43.69081" lon="3.90412">
        <ele>95</ele>
        <time>2021-03-27T10:40:47Z</time>
      </trkpt>
      <trkpt lat="43.69086" lon="3.90407">
        <ele>95</ele>
        <time>2021-03-27T10:40:48Z</time>
      </trkpt>
      <trkpt lat="43.6909" lon="3.90403">
        <ele>95</ele>
        <time>2021-03-27T10:40:49Z</time>
      </trkpt>
      <trkpt lat="43.69095" lon="3.90398">
        <ele>95</ele>
        <time>2021-03-27T10:40:50Z</time>
      </trkpt>
      <trkpt lat="43.69101" lon="3.90393">
        <ele>95</ele>
        <time>2021-03-27T10:40:51Z</time>
      </trkpt>
      <trkpt lat="43.69107" lon="3.90388">
        <ele>95</ele>
        <time>2021-03-27T10:40:52Z</time>
      </trkpt>
      <trkpt lat="43.69113" lon="3.90383">
        <ele>95</ele>
        <time>2021-03-27T10:40:53Z</time>
      </trkpt>
      <trkpt lat="43.69119" lon="3.90378">
        <ele>95</ele>
        <time>2021-03-27T10:40:54Z</time>
      </trkpt>
      <trkpt lat="43.69125" lon="3.90373">
        <ele>91</ele>
        <time>2021-03-27T10:40:55Z</time>
      </trkpt>
      <trkpt lat="43.69131" lon="3.90369">
        <ele>91</ele>
        <time>2021-03-27T10:40:56Z</time>
      </trkpt>
      <trkpt lat="43.69137" lon="3.90365">
        <ele>91</ele>
        <time>2021-03-27T10:40:57Z</time>
      </trkpt>
      <trkpt lat="43.69142" lon="3.9036">
        <ele>91</ele>
        <time>2021-03-27T10:40:58Z</time>
      </trkpt>
      <trkpt lat="43.69147" lon="3.90356">
        <ele>91</ele>
        <time>2021-03-27T10:40:59Z</time>
      </trkpt>
      <trkpt lat="43.69152" lon="3.90353">
        <ele>91</ele>
        <time>2021-03-27T10:41:00Z</time>
      </trkpt>
      <trkpt lat="43.69155" lon="3.90349">
        <ele>91</ele>
        <time>2021-03-27T10:41:01Z</time>
      </trkpt>
      <trkpt lat="43.69158" lon="3.90346">
        <ele>91</ele>
        <time>2021-03-27T10:41:02Z</time>
      </trkpt>
      <trkpt lat="43.69161" lon="3.90342">
        <ele>91</ele>
        <time>2021-03-27T10:41:03Z</time>
      </trkpt>
      <trkpt lat="43.6916" lon="3.90334">
        <ele>86</ele>
        <time>2021-03-27T10:41:05Z</time>
      </trkpt>
      <trkpt lat="43.69158" lon="3.9033">
        <ele>86</ele>
        <time>2021-03-27T10:41:06Z</time>
      </trkpt>
      <trkpt lat="43.69156" lon="3.90326">
        <ele>86</ele>
        <time>2021-03-27T10:41:07Z</time>
      </trkpt>
      <trkpt lat="43.69153" lon="3.90322">
        <ele>86</ele>
        <time>2021-03-27T10:41:08Z</time>
      </trkpt>
      <trkpt lat="43.6915" lon="3.90318">
        <ele>86</ele>
        <time>2021-03-27T10:41:09Z</time>
      </trkpt>
      <trkpt lat="43.69149" lon="3.90315">
        <ele>86</ele>
        <time>2021-03-27T10:41:10Z</time>
      </trkpt>
      <trkpt lat="43.69149" lon="3.90313">
        <ele>86</ele>
        <time>2021-03-27T10:41:11Z</time>
      </trkpt>
      <trkpt lat="43.69151" lon="3.9031">
        <ele>86</ele>
        <time>2021-03-27T10:41:13Z</time>
      </trkpt>
      <trkpt lat="43.69153" lon="3.9031">
        <ele>86</ele>
        <time>2021-03-27T10:41:14Z</time>
      </trkpt>
      <trkpt lat="43.69156" lon="3.90308">
        <ele>86</ele>
        <time>2021-03-27T10:41:16Z</time>
      </trkpt>
      <trkpt lat="43.69157" lon="3.90306">
        <ele>86</ele>
        <time>2021-03-27T10:41:18Z</time>
      </trkpt>
      <trkpt lat="43.6916" lon="3.90305">
        <ele>86</ele>
        <time>2021-03-27T10:41:20Z</time>
      </trkpt>
      <trkpt lat="43.69161" lon="3.90303">
        <ele>86</ele>
        <time>2021-03-27T10:41:22Z</time>
      </trkpt>
      <trkpt lat="43.69163" lon="3.903">
        <ele>84</ele>
        <time>2021-03-27T10:41:24Z</time>
      </trkpt>
      <trkpt lat="43.69164" lon="3.90297">
        <ele>84</ele>
        <time>2021-03-27T10:41:26Z</time>
      </trkpt>
      <trkpt lat="43.69166" lon="3.90292">
        <ele>84</ele>
        <time>2021-03-27T10:41:28Z</time>
      </trkpt>
      <trkpt lat="43.69167" lon="3.90289">
        <ele>84</ele>
        <time>2021-03-27T10:41:29Z</time>
      </trkpt>
      <trkpt lat="43.69169" lon="3.90287">
        <ele>84</ele>
        <time>2021-03-27T10:41:30Z</time>
      </trkpt>
      <trkpt lat="43.69171" lon="3.90284">
        <ele>84</ele>
        <time>2021-03-27T10:41:31Z</time>
      </trkpt>
      <trkpt lat="43.69173" lon="3.90281">
        <ele>84</ele>
        <time>2021-03-27T10:41:32Z</time>
      </trkpt>
      <trkpt lat="43.69175" lon="3.90276">
        <ele>83</ele>
        <time>2021-03-27T10:41:34Z</time>
      </trkpt>
      <trkpt lat="43.69176" lon="3.90273">
        <ele>83</ele>
        <time>2021-03-27T10:41:35Z</time>
      </trkpt>
      <trkpt lat="43.69177" lon="3.9027">
        <ele>83</ele>
        <time>2021-03-27T10:41:36Z</time>
      </trkpt>
      <trkpt lat="43.69178" lon="3.90267">
        <ele>83</ele>
        <time>2021-03-27T10:41:37Z</time>
      </trkpt>
      <trkpt lat="43.69179" lon="3.90263">
        <ele>83</ele>
        <time>2021-03-27T10:41:38Z</time>
      </trkpt>
      <trkpt lat="43.69181" lon="3.90259">
        <ele>83</ele>
        <time>2021-03-27T10:41:39Z</time>
      </trkpt>
      <trkpt lat="43.69181" lon="3.90256">
        <ele>83</ele>
        <time>2021-03-27T10:41:40Z</time>
      </trkpt>
      <trkpt lat="43.69182" lon="3.90252">
        <ele>83</ele>
        <time>2021-03-27T10:41:41Z</time>
      </trkpt>
      <trkpt lat="43.69183" lon="3.90248">
        <ele>83</ele>
        <time>2021-03-27T10:41:42Z</time>
      </trkpt>
      <trkpt lat="43.69185" lon="3.90245">
        <ele>83</ele>
        <time>2021-03-27T10:41:43Z</time>
      </trkpt>
      <trkpt lat="43.69186" lon="3.90243">
        <ele>83</ele>
        <time>2021-03-27T10:41:44Z</time>
      </trkpt>
      <trkpt lat="43.69187" lon="3.90239">
        <ele>83</ele>
        <time>2021-03-27T10:41:46Z</time>
      </trkpt>
      <trkpt lat="43.69188" lon="3.90234">
        <ele>83</ele>
        <time>2021-03-27T10:41:49Z</time>
      </trkpt>
      <trkpt lat="43.6919" lon="3.9023">
        <ele>83</ele>
        <time>2021-03-27T10:41:50Z</time>
      </trkpt>
      <trkpt lat="43.69191" lon="3.90228">
        <ele>83</ele>
        <time>2021-03-27T10:41:52Z</time>
      </trkpt>
      <trkpt lat="43.69189" lon="3.90226">
        <ele>83</ele>
        <time>2021-03-27T10:41:55Z</time>
      </trkpt>
      <trkpt lat="43.69188" lon="3.90229">
        <ele>83</ele>
        <time>2021-03-27T10:41:57Z</time>
      </trkpt>
      <trkpt lat="43.69187" lon="3.90233">
        <ele>83</ele>
        <time>2021-03-27T10:41:59Z</time>
      </trkpt>
      <trkpt lat="43.69187" lon="3.90237">
        <ele>83</ele>
        <time>2021-03-27T10:42:01Z</time>
      </trkpt>
      <trkpt lat="43.69185" lon="3.9024">
        <ele>83</ele>
        <time>2021-03-27T10:42:03Z</time>
      </trkpt>
      <trkpt lat="43.69184" lon="3.90244">
        <ele>83</ele>
        <time>2021-03-27T10:42:05Z</time>
      </trkpt>
      <trkpt lat="43.69183" lon="3.90247">
        <ele>83</ele>
        <time>2021-03-27T10:42:06Z</time>
      </trkpt>
      <trkpt lat="43.69182" lon="3.9025">
        <ele>83</ele>
        <time>2021-03-27T10:42:07Z</time>
      </trkpt>
      <trkpt lat="43.69182" lon="3.90254">
        <ele>83</ele>
        <time>2021-03-27T10:42:09Z</time>
      </trkpt>
      <trkpt lat="43.69179" lon="3.90263">
        <ele>83</ele>
        <time>2021-03-27T10:42:10Z</time>
      </trkpt>
      <trkpt lat="43.69178" lon="3.90267">
        <ele>83</ele>
        <time>2021-03-27T10:42:11Z</time>
      </trkpt>
      <trkpt lat="43.69176" lon="3.90272">
        <ele>83</ele>
        <time>2021-03-27T10:42:12Z</time>
      </trkpt>
      <trkpt lat="43.69175" lon="3.90276">
        <ele>83</ele>
        <time>2021-03-27T10:42:13Z</time>
      </trkpt>
      <trkpt lat="43.69173" lon="3.90281">
        <ele>82</ele>
        <time>2021-03-27T10:42:14Z</time>
      </trkpt>
      <trkpt lat="43.69171" lon="3.90285">
        <ele>82</ele>
        <time>2021-03-27T10:42:15Z</time>
      </trkpt>
      <trkpt lat="43.69168" lon="3.90289">
        <ele>82</ele>
        <time>2021-03-27T10:42:16Z</time>
      </trkpt>
      <trkpt lat="43.69166" lon="3.90293">
        <ele>82</ele>
        <time>2021-03-27T10:42:17Z</time>
      </trkpt>
      <trkpt lat="43.69164" lon="3.90296">
        <ele>82</ele>
        <time>2021-03-27T10:42:18Z</time>
      </trkpt>
      <trkpt lat="43.69162" lon="3.903">
        <ele>82</ele>
        <time>2021-03-27T10:42:19Z</time>
      </trkpt>
      <trkpt lat="43.6916" lon="3.90304">
        <ele>82</ele>
        <time>2021-03-27T10:42:20Z</time>
      </trkpt>
      <trkpt lat="43.69158" lon="3.90308">
        <ele>82</ele>
        <time>2021-03-27T10:42:21Z</time>
      </trkpt>
      <trkpt lat="43.69156" lon="3.90312">
        <ele>82</ele>
        <time>2021-03-27T10:42:22Z</time>
      </trkpt>
      <trkpt lat="43.69155" lon="3.90315">
        <ele>82</ele>
        <time>2021-03-27T10:42:23Z</time>
      </trkpt>
      <trkpt lat="43.69155" lon="3.90319">
        <ele>82</ele>
        <time>2021-03-27T10:42:25Z</time>
      </trkpt>
      <trkpt lat="43.69158" lon="3.90326">
        <ele>82</ele>
        <time>2021-03-27T10:42:26Z</time>
      </trkpt>
      <trkpt lat="43.69161" lon="3.90329">
        <ele>82</ele>
        <time>2021-03-27T10:42:27Z</time>
      </trkpt>
      <trkpt lat="43.69164" lon="3.90332">
        <ele>82</ele>
        <time>2021-03-27T10:42:28Z</time>
      </trkpt>
      <trkpt lat="43.69166" lon="3.90335">
        <ele>82</ele>
        <time>2021-03-27T10:42:29Z</time>
      </trkpt>
      <trkpt lat="43.69169" lon="3.90337">
        <ele>82</ele>
        <time>2021-03-27T10:42:30Z</time>
      </trkpt>
      <trkpt lat="43.69175" lon="3.90341">
        <ele>82</ele>
        <time>2021-03-27T10:42:32Z</time>
      </trkpt>
      <trkpt lat="43.69177" lon="3.90342">
        <ele>82</ele>
        <time>2021-03-27T10:42:33Z</time>
      </trkpt>
      <trkpt lat="43.69179" lon="3.90344">
        <ele>82</ele>
        <time>2021-03-27T10:42:34Z</time>
      </trkpt>
      <trkpt lat="43.69181" lon="3.90346">
        <ele>82</ele>
        <time>2021-03-27T10:42:35Z</time>
      </trkpt>
      <trkpt lat="43.69183" lon="3.90346">
        <ele>82</ele>
        <time>2021-03-27T10:42:36Z</time>
      </trkpt>
      <trkpt lat="43.69186" lon="3.90345">
        <ele>82</ele>
        <time>2021-03-27T10:42:37Z</time>
      </trkpt>
      <trkpt lat="43.69191" lon="3.9034">
        <ele>82</ele>
        <time>2021-03-27T10:42:39Z</time>
      </trkpt>
      <trkpt lat="43.69193" lon="3.90337">
        <ele>82</ele>
        <time>2021-03-27T10:42:40Z</time>
      </trkpt>
      <trkpt lat="43.69196" lon="3.90333">
        <ele>82</ele>
        <time>2021-03-27T10:42:41Z</time>
      </trkpt>
      <trkpt lat="43.69198" lon="3.90329">
        <ele>82</ele>
        <time>2021-03-27T10:42:42Z</time>
      </trkpt>
      <trkpt lat="43.69202" lon="3.90326">
        <ele>82</ele>
        <time>2021-03-27T10:42:43Z</time>
      </trkpt>
      <trkpt lat="43.69205" lon="3.90323">
        <ele>82</ele>
        <time>2021-03-27T10:42:44Z</time>
      </trkpt>
      <trkpt lat="43.69212" lon="3.90317">
        <ele>82</ele>
        <time>2021-03-27T10:42:46Z</time>
      </trkpt>
      <trkpt lat="43.69215" lon="3.90314">
        <ele>82</ele>
        <time>2021-03-27T10:42:47Z</time>
      </trkpt>
      <trkpt lat="43.69218" lon="3.90311">
        <ele>82</ele>
        <time>2021-03-27T10:42:48Z</time>
      </trkpt>
      <trkpt lat="43.69222" lon="3.90308">
        <ele>82</ele>
        <time>2021-03-27T10:42:49Z</time>
      </trkpt>
      <trkpt lat="43.69225" lon="3.90305">
        <ele>82</ele>
        <time>2021-03-27T10:42:50Z</time>
      </trkpt>
      <trkpt lat="43.69229" lon="3.90302">
        <ele>82</ele>
        <time>2021-03-27T10:42:52Z</time>
      </trkpt>
      <trkpt lat="43.69236" lon="3.90296">
        <ele>82</ele>
        <time>2021-03-27T10:42:53Z</time>
      </trkpt>
      <trkpt lat="43.69239" lon="3.90292">
        <ele>81</ele>
        <time>2021-03-27T10:42:54Z</time>
      </trkpt>
      <trkpt lat="43.69243" lon="3.90289">
        <ele>81</ele>
        <time>2021-03-27T10:42:55Z</time>
      </trkpt>
      <trkpt lat="43.69246" lon="3.90286">
        <ele>81</ele>
        <time>2021-03-27T10:42:56Z</time>
      </trkpt>
      <trkpt lat="43.6925" lon="3.90283">
        <ele>81</ele>
        <time>2021-03-27T10:42:57Z</time>
      </trkpt>
      <trkpt lat="43.69256" lon="3.90278">
        <ele>81</ele>
        <time>2021-03-27T10:42:59Z</time>
      </trkpt>
      <trkpt lat="43.6926" lon="3.90275">
        <ele>81</ele>
        <time>2021-03-27T10:43:00Z</time>
      </trkpt>
      <trkpt lat="43.69263" lon="3.90272">
        <ele>81</ele>
        <time>2021-03-27T10:43:01Z</time>
      </trkpt>
      <trkpt lat="43.69267" lon="3.90269">
        <ele>81</ele>
        <time>2021-03-27T10:43:02Z</time>
      </trkpt>
      <trkpt lat="43.6927" lon="3.90266">
        <ele>81</ele>
        <time>2021-03-27T10:43:03Z</time>
      </trkpt>
      <trkpt lat="43.69274" lon="3.90263">
        <ele>81</ele>
        <time>2021-03-27T10:43:04Z</time>
      </trkpt>
      <trkpt lat="43.69277" lon="3.9026">
        <ele>81</ele>
        <time>2021-03-27T10:43:05Z</time>
      </trkpt>
      <trkpt lat="43.6928" lon="3.90257">
        <ele>81</ele>
        <time>2021-03-27T10:43:06Z</time>
      </trkpt>
      <trkpt lat="43.69284" lon="3.90253">
        <ele>81</ele>
        <time>2021-03-27T10:43:07Z</time>
      </trkpt>
      <trkpt lat="43.69287" lon="3.9025">
        <ele>81</ele>
        <time>2021-03-27T10:43:08Z</time>
      </trkpt>
      <trkpt lat="43.6929" lon="3.90247">
        <ele>81</ele>
        <time>2021-03-27T10:43:09Z</time>
      </trkpt>
      <trkpt lat="43.69293" lon="3.90243">
        <ele>81</ele>
        <time>2021-03-27T10:43:10Z</time>
      </trkpt>
      <trkpt lat="43.69296" lon="3.9024">
        <ele>81</ele>
        <time>2021-03-27T10:43:11Z</time>
      </trkpt>
      <trkpt lat="43.69302" lon="3.90233">
        <ele>81</ele>
        <time>2021-03-27T10:43:13Z</time>
      </trkpt>
      <trkpt lat="43.69305" lon="3.90229">
        <ele>81</ele>
        <time>2021-03-27T10:43:14Z</time>
      </trkpt>
      <trkpt lat="43.69308" lon="3.90225">
        <ele>81</ele>
        <time>2021-03-27T10:43:15Z</time>
      </trkpt>
      <trkpt lat="43.69311" lon="3.90222">
        <ele>81</ele>
        <time>2021-03-27T10:43:16Z</time>
      </trkpt>
      <trkpt lat="43.69314" lon="3.90218">
        <ele>81</ele>
        <time>2021-03-27T10:43:17Z</time>
      </trkpt>
      <trkpt lat="43.69316" lon="3.90215">
        <ele>81</ele>
        <time>2021-03-27T10:43:18Z</time>
      </trkpt>
      <trkpt lat="43.69319" lon="3.90211">
        <ele>81</ele>
        <time>2021-03-27T10:43:19Z</time>
      </trkpt>
      <trkpt lat="43.69322" lon="3.90208">
        <ele>81</ele>
        <time>2021-03-27T10:43:20Z</time>
      </trkpt>
      <trkpt lat="43.69325" lon="3.90204">
        <ele>81</ele>
        <time>2021-03-27T10:43:21Z</time>
      </trkpt>
      <trkpt lat="43.69328" lon="3.90201">
        <ele>81</ele>
        <time>2021-03-27T10:43:22Z</time>
      </trkpt>
      <trkpt lat="43.6933" lon="3.90197">
        <ele>81</ele>
        <time>2021-03-27T10:43:23Z</time>
      </trkpt>
      <trkpt lat="43.69333" lon="3.90194">
        <ele>81</ele>
        <time>2021-03-27T10:43:24Z</time>
      </trkpt>
      <trkpt lat="43.69336" lon="3.90191">
        <ele>82</ele>
        <time>2021-03-27T10:43:25Z</time>
      </trkpt>
      <trkpt lat="43.69339" lon="3.90187">
        <ele>82</ele>
        <time>2021-03-27T10:43:26Z</time>
      </trkpt>
      <trkpt lat="43.69341" lon="3.90184">
        <ele>82</ele>
        <time>2021-03-27T10:43:27Z</time>
      </trkpt>
      <trkpt lat="43.69344" lon="3.9018">
        <ele>82</ele>
        <time>2021-03-27T10:43:28Z</time>
      </trkpt>
      <trkpt lat="43.69347" lon="3.90177">
        <ele>82</ele>
        <time>2021-03-27T10:43:29Z</time>
      </trkpt>
      <trkpt lat="43.69349" lon="3.90174">
        <ele>82</ele>
        <time>2021-03-27T10:43:30Z</time>
      </trkpt>
      <trkpt lat="43.69352" lon="3.90171">
        <ele>82</ele>
        <time>2021-03-27T10:43:31Z</time>
      </trkpt>
      <trkpt lat="43.69355" lon="3.90167">
        <ele>82</ele>
        <time>2021-03-27T10:43:32Z</time>
      </trkpt>
      <trkpt lat="43.69357" lon="3.90164">
        <ele>82</ele>
        <time>2021-03-27T10:43:33Z</time>
      </trkpt>
      <trkpt lat="43.6936" lon="3.90161">
        <ele>82</ele>
        <time>2021-03-27T10:43:34Z</time>
      </trkpt>
      <trkpt lat="43.69363" lon="3.90158">
        <ele>82</ele>
        <time>2021-03-27T10:43:35Z</time>
      </trkpt>
      <trkpt lat="43.69365" lon="3.90155">
        <ele>82</ele>
        <time>2021-03-27T10:43:36Z</time>
      </trkpt>
      <trkpt lat="43.69368" lon="3.90151">
        <ele>82</ele>
        <time>2021-03-27T10:43:37Z</time>
      </trkpt>
      <trkpt lat="43.6937" lon="3.90148">
        <ele>82</ele>
        <time>2021-03-27T10:43:38Z</time>
      </trkpt>
      <trkpt lat="43.69373" lon="3.90145">
        <ele>82</ele>
        <time>2021-03-27T10:43:39Z</time>
      </trkpt>
      <trkpt lat="43.69376" lon="3.90141">
        <ele>82</ele>
        <time>2021-03-27T10:43:40Z</time>
      </trkpt>
      <trkpt lat="43.69378" lon="3.90138">
        <ele>82</ele>
        <time>2021-03-27T10:43:41Z</time>
      </trkpt>
      <trkpt lat="43.69381" lon="3.90135">
        <ele>82</ele>
        <time>2021-03-27T10:43:42Z</time>
      </trkpt>
      <trkpt lat="43.69384" lon="3.90131">
        <ele>82</ele>
        <time>2021-03-27T10:43:43Z</time>
      </trkpt>
      <trkpt lat="43.69386" lon="3.90128">
        <ele>82</ele>
        <time>2021-03-27T10:43:44Z</time>
      </trkpt>
      <trkpt lat="43.69389" lon="3.90125">
        <ele>83</ele>
        <time>2021-03-27T10:43:45Z</time>
      </trkpt>
      <trkpt lat="43.69392" lon="3.90121">
        <ele>83</ele>
        <time>2021-03-27T10:43:46Z</time>
      </trkpt>
      <trkpt lat="43.69394" lon="3.90118">
        <ele>83</ele>
        <time>2021-03-27T10:43:47Z</time>
      </trkpt>
      <trkpt lat="43.69397" lon="3.90115">
        <ele>83</ele>
        <time>2021-03-27T10:43:48Z</time>
      </trkpt>
      <trkpt lat="43.694" lon="3.90112">
        <ele>83</ele>
        <time>2021-03-27T10:43:49Z</time>
      </trkpt>
      <trkpt lat="43.69402" lon="3.90108">
        <ele>83</ele>
        <time>2021-03-27T10:43:50Z</time>
      </trkpt>
      <trkpt lat="43.69405" lon="3.90105">
        <ele>83</ele>
        <time>2021-03-27T10:43:51Z</time>
      </trkpt>
      <trkpt lat="43.69407" lon="3.90102">
        <ele>83</ele>
        <time>2021-03-27T10:43:52Z</time>
      </trkpt>
      <trkpt lat="43.6941" lon="3.90098">
        <ele>83</ele>
        <time>2021-03-27T10:43:53Z</time>
      </trkpt>
      <trkpt lat="43.69413" lon="3.90095">
        <ele>83</ele>
        <time>2021-03-27T10:43:54Z</time>
      </trkpt>
      <trkpt lat="43.69416" lon="3.90092">
        <ele>83</ele>
        <time>2021-03-27T10:43:55Z</time>
      </trkpt>
      <trkpt lat="43.69418" lon="3.90089">
        <ele>83</ele>
        <time>2021-03-27T10:43:56Z</time>
      </trkpt>
      <trkpt lat="43.69421" lon="3.90086">
        <ele>83</ele>
        <time>2021-03-27T10:43:57Z</time>
      </trkpt>
      <trkpt lat="43.69424" lon="3.90083">
        <ele>83</ele>
        <time>2021-03-27T10:43:58Z</time>
      </trkpt>
      <trkpt lat="43.69426" lon="3.9008">
        <ele>83</ele>
        <time>2021-03-27T10:43:59Z</time>
      </trkpt>
      <trkpt lat="43.69429" lon="3.90076">
        <ele>83</ele>
        <time>2021-03-27T10:44:00Z</time>
      </trkpt>
      <trkpt lat="43.69434" lon="3.9007">
        <ele>83</ele>
        <time>2021-03-27T10:44:02Z</time>
      </trkpt>
      <trkpt lat="43.69436" lon="3.90068">
        <ele>83</ele>
        <time>2021-03-27T10:44:03Z</time>
      </trkpt>
      <trkpt lat="43.69438" lon="3.90065">
        <ele>84</ele>
        <time>2021-03-27T10:44:04Z</time>
      </trkpt>
      <trkpt lat="43.69441" lon="3.90062">
        <ele>84</ele>
        <time>2021-03-27T10:44:05Z</time>
      </trkpt>
      <trkpt lat="43.69443" lon="3.90059">
        <ele>84</ele>
        <time>2021-03-27T10:44:06Z</time>
      </trkpt>
      <trkpt lat="43.69445" lon="3.90056">
        <ele>84</ele>
        <time>2021-03-27T10:44:07Z</time>
      </trkpt>
      <trkpt lat="43.69447" lon="3.90054">
        <ele>84</ele>
        <time>2021-03-27T10:44:08Z</time>
      </trkpt>
      <trkpt lat="43.6945" lon="3.90051">
        <ele>84</ele>
        <time>2021-03-27T10:44:09Z</time>
      </trkpt>
      <trkpt lat="43.69452" lon="3.90048">
        <ele>84</ele>
        <time>2021-03-27T10:44:10Z</time>
      </trkpt>
      <trkpt lat="43.69454" lon="3.90045">
        <ele>84</ele>
        <time>2021-03-27T10:44:11Z</time>
      </trkpt>
      <trkpt lat="43.69456" lon="3.90042">
        <ele>84</ele>
        <time>2021-03-27T10:44:12Z</time>
      </trkpt>
      <trkpt lat="43.69459" lon="3.90039">
        <ele>84</ele>
        <time>2021-03-27T10:44:13Z</time>
      </trkpt>
      <trkpt lat="43.69461" lon="3.90036">
        <ele>84</ele>
        <time>2021-03-27T10:44:14Z</time>
      </trkpt>
      <trkpt lat="43.69466" lon="3.90029">
        <ele>84</ele>
        <time>2021-03-27T10:44:16Z</time>
      </trkpt>
      <trkpt lat="43.69468" lon="3.90026">
        <ele>84</ele>
        <time>2021-03-27T10:44:17Z</time>
      </trkpt>
      <trkpt lat="43.6947" lon="3.90023">
        <ele>84</ele>
        <time>2021-03-27T10:44:18Z</time>
      </trkpt>
      <trkpt lat="43.69472" lon="3.90021">
        <ele>84</ele>
        <time>2021-03-27T10:44:19Z</time>
      </trkpt>
      <trkpt lat="43.69475" lon="3.90018">
        <ele>84</ele>
        <time>2021-03-27T10:44:20Z</time>
      </trkpt>
      <trkpt lat="43.69477" lon="3.90015">
        <ele>84</ele>
        <time>2021-03-27T10:44:21Z</time>
      </trkpt>
      <trkpt lat="43.69479" lon="3.90012">
        <ele>84</ele>
        <time>2021-03-27T10:44:22Z</time>
      </trkpt>
      <trkpt lat="43.69482" lon="3.90009">
        <ele>84</ele>
        <time>2021-03-27T10:44:23Z</time>
      </trkpt>
      <trkpt lat="43.69484" lon="3.90006">
        <ele>85</ele>
        <time>2021-03-27T10:44:24Z</time>
      </trkpt>
      <trkpt lat="43.69486" lon="3.90004">
        <ele>85</ele>
        <time>2021-03-27T10:44:25Z</time>
      </trkpt>
      <trkpt lat="43.69488" lon="3.90001">
        <ele>85</ele>
        <time>2021-03-27T10:44:26Z</time>
      </trkpt>
      <trkpt lat="43.69491" lon="3.89998">
        <ele>85</ele>
        <time>2021-03-27T10:44:27Z</time>
      </trkpt>
      <trkpt lat="43.69493" lon="3.89995">
        <ele>85</ele>
        <time>2021-03-27T10:44:28Z</time>
      </trkpt>
      <trkpt lat="43.69496" lon="3.89993">
        <ele>85</ele>
        <time>2021-03-27T10:44:29Z</time>
      </trkpt>
      <trkpt lat="43.69498" lon="3.8999">
        <ele>85</ele>
        <time>2021-03-27T10:44:30Z</time>
      </trkpt>
      <trkpt lat="43.695" lon="3.89987">
        <ele>85</ele>
        <time>2021-03-27T10:44:31Z</time>
      </trkpt>
      <trkpt lat="43.69503" lon="3.89984">
        <ele>85</ele>
        <time>2021-03-27T10:44:32Z</time>
      </trkpt>
      <trkpt lat="43.69505" lon="3.89982">
        <ele>85</ele>
        <time>2021-03-27T10:44:33Z</time>
      </trkpt>
      <trkpt lat="43.69507" lon="3.89979">
        <ele>86</ele>
        <time>2021-03-27T10:44:34Z</time>
      </trkpt>
      <trkpt lat="43.6951" lon="3.89977">
        <ele>86</ele>
        <time>2021-03-27T10:44:35Z</time>
      </trkpt>
      <trkpt lat="43.69512" lon="3.89974">
        <ele>86</ele>
        <time>2021-03-27T10:44:36Z</time>
      </trkpt>
      <trkpt lat="43.69514" lon="3.89972">
        <ele>86</ele>
        <time>2021-03-27T10:44:37Z</time>
      </trkpt>
      <trkpt lat="43.69519" lon="3.89968">
        <ele>86</ele>
        <time>2021-03-27T10:44:39Z</time>
      </trkpt>
      <trkpt lat="43.69521" lon="3.89966">
        <ele>86</ele>
        <time>2021-03-27T10:44:40Z</time>
      </trkpt>
      <trkpt lat="43.69524" lon="3.89965">
        <ele>86</ele>
        <time>2021-03-27T10:44:41Z</time>
      </trkpt>
      <trkpt lat="43.69526" lon="3.89963">
        <ele>86</ele>
        <time>2021-03-27T10:44:42Z</time>
      </trkpt>
      <trkpt lat="43.69528" lon="3.89961">
        <ele>86</ele>
        <time>2021-03-27T10:44:43Z</time>
      </trkpt>
      <trkpt lat="43.69531" lon="3.8996">
        <ele>88</ele>
        <time>2021-03-27T10:44:44Z</time>
      </trkpt>
      <trkpt lat="43.69533" lon="3.89959">
        <ele>88</ele>
        <time>2021-03-27T10:44:45Z</time>
      </trkpt>
      <trkpt lat="43.69536" lon="3.8996">
        <ele>88</ele>
        <time>2021-03-27T10:44:47Z</time>
      </trkpt>
      <trkpt lat="43.69536" lon="3.89965">
        <ele>88</ele>
        <time>2021-03-27T10:44:49Z</time>
      </trkpt>
      <trkpt lat="43.69534" lon="3.8997">
        <ele>88</ele>
        <time>2021-03-27T10:44:51Z</time>
      </trkpt>
      <trkpt lat="43.69533" lon="3.89972">
        <ele>88</ele>
        <time>2021-03-27T10:44:52Z</time>
      </trkpt>
      <trkpt lat="43.69532" lon="3.89976">
        <ele>88</ele>
        <time>2021-03-27T10:44:53Z</time>
      </trkpt>
      <trkpt lat="43.69531" lon="3.89979">
        <ele>88</ele>
        <time>2021-03-27T10:44:54Z</time>
      </trkpt>
      <trkpt lat="43.69529" lon="3.89985">
        <ele>88</ele>
        <time>2021-03-27T10:44:56Z</time>
      </trkpt>
      <trkpt lat="43.69527" lon="3.89989">
        <ele>88</ele>
        <time>2021-03-27T10:44:57Z</time>
      </trkpt>
      <trkpt lat="43.69527" lon="3.89993">
        <ele>88</ele>
        <time>2021-03-27T10:44:58Z</time>
      </trkpt>
      <trkpt lat="43.69526" lon="3.89997">
        <ele>88</ele>
        <time>2021-03-27T10:44:59Z</time>
      </trkpt>
      <trkpt lat="43.69524" lon="3.90006">
        <ele>88</ele>
        <time>2021-03-27T10:45:01Z</time>
      </trkpt>
      <trkpt lat="43.69523" lon="3.90011">
        <ele>88</ele>
        <time>2021-03-27T10:45:02Z</time>
      </trkpt>
      <trkpt lat="43.6952" lon="3.90019">
        <ele>89</ele>
        <time>2021-03-27T10:45:04Z</time>
      </trkpt>
      <trkpt lat="43.69519" lon="3.90023">
        <ele>89</ele>
        <time>2021-03-27T10:45:05Z</time>
      </trkpt>
      <trkpt lat="43.69518" lon="3.90027">
        <ele>89</ele>
        <time>2021-03-27T10:45:06Z</time>
      </trkpt>
      <trkpt lat="43.69517" lon="3.90031">
        <ele>89</ele>
        <time>2021-03-27T10:45:07Z</time>
      </trkpt>
      <trkpt lat="43.69516" lon="3.90035">
        <ele>89</ele>
        <time>2021-03-27T10:45:08Z</time>
      </trkpt>
      <trkpt lat="43.69514" lon="3.90039">
        <ele>89</ele>
        <time>2021-03-27T10:45:09Z</time>
      </trkpt>
      <trkpt lat="43.69513" lon="3.90043">
        <ele>89</ele>
        <time>2021-03-27T10:45:10Z</time>
      </trkpt>
      <trkpt lat="43.69512" lon="3.90048">
        <ele>89</ele>
        <time>2021-03-27T10:45:11Z</time>
      </trkpt>
      <trkpt lat="43.69511" lon="3.90053">
        <ele>89</ele>
        <time>2021-03-27T10:45:12Z</time>
      </trkpt>
      <trkpt lat="43.6951" lon="3.90058">
        <ele>89</ele>
        <time>2021-03-27T10:45:13Z</time>
      </trkpt>
      <trkpt lat="43.69508" lon="3.90063">
        <ele>89</ele>
        <time>2021-03-27T10:45:14Z</time>
      </trkpt>
      <trkpt lat="43.69507" lon="3.90068">
        <ele>90</ele>
        <time>2021-03-27T10:45:15Z</time>
      </trkpt>
      <trkpt lat="43.69505" lon="3.90072">
        <ele>90</ele>
        <time>2021-03-27T10:45:16Z</time>
      </trkpt>
      <trkpt lat="43.69504" lon="3.90076">
        <ele>90</ele>
        <time>2021-03-27T10:45:17Z</time>
      </trkpt>
      <trkpt lat="43.69502" lon="3.90078">
        <ele>90</ele>
        <time>2021-03-27T10:45:18Z</time>
      </trkpt>
      <trkpt lat="43.69498" lon="3.90084">
        <ele>90</ele>
        <time>2021-03-27T10:45:20Z</time>
      </trkpt>
      <trkpt lat="43.69497" lon="3.90088">
        <ele>90</ele>
        <time>2021-03-27T10:45:21Z</time>
      </trkpt>
      <trkpt lat="43.69496" lon="3.90091">
        <ele>90</ele>
        <time>2021-03-27T10:45:22Z</time>
      </trkpt>
      <trkpt lat="43.69495" lon="3.90095">
        <ele>90</ele>
        <time>2021-03-27T10:45:23Z</time>
      </trkpt>
      <trkpt lat="43.69495" lon="3.90097">
        <ele>90</ele>
        <time>2021-03-27T10:45:24Z</time>
      </trkpt>
      <trkpt lat="43.69494" lon="3.901">
        <ele>90</ele>
        <time>2021-03-27T10:45:26Z</time>
      </trkpt>
      <trkpt lat="43.69494" lon="3.90098">
        <ele>90</ele>
        <time>2021-03-27T10:45:30Z</time>
      </trkpt>
      <trkpt lat="43.69495" lon="3.90094">
        <ele>90</ele>
        <time>2021-03-27T10:45:32Z</time>
      </trkpt>
      <trkpt lat="43.69495" lon="3.90092">
        <ele>90</ele>
        <time>2021-03-27T10:45:33Z</time>
      </trkpt>
      <trkpt lat="43.69496" lon="3.90087">
        <ele>90</ele>
        <time>2021-03-27T10:45:35Z</time>
      </trkpt>
      <trkpt lat="43.69497" lon="3.90085">
        <ele>90</ele>
        <time>2021-03-27T10:45:36Z</time>
      </trkpt>
      <trkpt lat="43.69497" lon="3.90082">
        <ele>90</ele>
        <time>2021-03-27T10:45:37Z</time>
      </trkpt>
      <trkpt lat="43.695" lon="3.9008">
        <ele>90</ele>
        <time>2021-03-27T10:45:39Z</time>
      </trkpt>
      <trkpt lat="43.69501" lon="3.90082">
        <ele>90</ele>
        <time>2021-03-27T10:45:41Z</time>
      </trkpt>
      <trkpt lat="43.69502" lon="3.90086">
        <ele>90</ele>
        <time>2021-03-27T10:45:43Z</time>
      </trkpt>
      <trkpt lat="43.69504" lon="3.9009">
        <ele>90</ele>
        <time>2021-03-27T10:45:45Z</time>
      </trkpt>
      <trkpt lat="43.69506" lon="3.90093">
        <ele>90</ele>
        <time>2021-03-27T10:45:47Z</time>
      </trkpt>
      <trkpt lat="43.69507" lon="3.90096">
        <ele>90</ele>
        <time>2021-03-27T10:45:49Z</time>
      </trkpt>
      <trkpt lat="43.69506" lon="3.90099">
        <ele>90</ele>
        <time>2021-03-27T10:45:51Z</time>
      </trkpt>
      <trkpt lat="43.69506" lon="3.90103">
        <ele>90</ele>
        <time>2021-03-27T10:45:53Z</time>
      </trkpt>
      <trkpt lat="43.69508" lon="3.90106">
        <ele>90</ele>
        <time>2021-03-27T10:45:55Z</time>
      </trkpt>
      <trkpt lat="43.69511" lon="3.90106">
        <ele>90</ele>
        <time>2021-03-27T10:45:57Z</time>
      </trkpt>
      <trkpt lat="43.69514" lon="3.90106">
        <ele>90</ele>
        <time>2021-03-27T10:45:59Z</time>
      </trkpt>
      <trkpt lat="43.69515" lon="3.90104">
        <ele>90</ele>
        <time>2021-03-27T10:46:08Z</time>
      </trkpt>
      <trkpt lat="43.69516" lon="3.90104">
        <ele>98</ele>
        <time>2021-03-27T10:46:10Z</time>
      </trkpt>
      <trkpt lat="43.69524" lon="3.90126">
        <ele>103</ele>
        <time>2021-03-27T10:46:51Z</time>
      </trkpt>
      <trkpt lat="43.69526" lon="3.90129">
        <ele>103</ele>
        <time>2021-03-27T10:46:53Z</time>
      </trkpt>
      <trkpt lat="43.69526" lon="3.90133">
        <ele>103</ele>
        <time>2021-03-27T10:46:55Z</time>
      </trkpt>
      <trkpt lat="43.69526" lon="3.90137">
        <ele>103</ele>
        <time>2021-03-27T10:46:57Z</time>
      </trkpt>
      <trkpt lat="43.69527" lon="3.90139">
        <ele>103</ele>
        <time>2021-03-27T10:46:59Z</time>
      </trkpt>
      <trkpt lat="43.69529" lon="3.90142">
        <ele>103</ele>
        <time>2021-03-27T10:47:01Z</time>
      </trkpt>
      <trkpt lat="43.6953" lon="3.90145">
        <ele>103</ele>
        <time>2021-03-27T10:47:03Z</time>
      </trkpt>
      <trkpt lat="43.6953" lon="3.90148">
        <ele>103</ele>
        <time>2021-03-27T10:47:04Z</time>
      </trkpt>
      <trkpt lat="43.69531" lon="3.90151">
        <ele>103</ele>
        <time>2021-03-27T10:47:05Z</time>
      </trkpt>
      <trkpt lat="43.69531" lon="3.90155">
        <ele>103</ele>
        <time>2021-03-27T10:47:06Z</time>
      </trkpt>
      <trkpt lat="43.69531" lon="3.90158">
        <ele>103</ele>
        <time>2021-03-27T10:47:07Z</time>
      </trkpt>
      <trkpt lat="43.69531" lon="3.9016">
        <ele>103</ele>
        <time>2021-03-27T10:47:08Z</time>
      </trkpt>
      <trkpt lat="43.69531" lon="3.90163">
        <ele>103</ele>
        <time>2021-03-27T10:47:09Z</time>
      </trkpt>
      <trkpt lat="43.69531" lon="3.90166">
        <ele>103</ele>
        <time>2021-03-27T10:47:10Z</time>
      </trkpt>
      <trkpt lat="43.69531" lon="3.90169">
        <ele>102</ele>
        <time>2021-03-27T10:47:11Z</time>
      </trkpt>
      <trkpt lat="43.69531" lon="3.90171">
        <ele>102</ele>
        <time>2021-03-27T10:47:12Z</time>
      </trkpt>
      <trkpt lat="43.69531" lon="3.90174">
        <ele>102</ele>
        <time>2021-03-27T10:47:13Z</time>
      </trkpt>
      <trkpt lat="43.69532" lon="3.90176">
        <ele>102</ele>
        <time>2021-03-27T10:47:14Z</time>
      </trkpt>
      <trkpt lat="43.69533" lon="3.90179">
        <ele>102</ele>
        <time>2021-03-27T10:47:15Z</time>
      </trkpt>
      <trkpt lat="43.69534" lon="3.90182">
        <ele>102</ele>
        <time>2021-03-27T10:47:16Z</time>
      </trkpt>
      <trkpt lat="43.69535" lon="3.90184">
        <ele>102</ele>
        <time>2021-03-27T10:47:17Z</time>
      </trkpt>
      <trkpt lat="43.69537" lon="3.90188">
        <ele>102</ele>
        <time>2021-03-27T10:47:19Z</time>
      </trkpt>
      <trkpt lat="43.69538" lon="3.90192">
        <ele>102</ele>
        <time>2021-03-27T10:47:21Z</time>
      </trkpt>
      <trkpt lat="43.69541" lon="3.90194">
        <ele>102</ele>
        <time>2021-03-27T10:47:23Z</time>
      </trkpt>
      <trkpt lat="43.69543" lon="3.90197">
        <ele>102</ele>
        <time>2021-03-27T10:47:26Z</time>
      </trkpt>
      <trkpt lat="43.69545" lon="3.90201">
        <ele>102</ele>
        <time>2021-03-27T10:47:27Z</time>
      </trkpt>
      <trkpt lat="43.69546" lon="3.90202">
        <ele>102</ele>
        <time>2021-03-27T10:47:29Z</time>
      </trkpt>
      <trkpt lat="43.69549" lon="3.90203">
        <ele>103</ele>
        <time>2021-03-27T10:47:31Z</time>
      </trkpt>
      <trkpt lat="43.6955" lon="3.90204">
        <ele>103</ele>
        <time>2021-03-27T10:47:32Z</time>
      </trkpt>
      <trkpt lat="43.69552" lon="3.90209">
        <ele>103</ele>
        <time>2021-03-27T10:47:34Z</time>
      </trkpt>
      <trkpt lat="43.69551" lon="3.90212">
        <ele>103</ele>
        <time>2021-03-27T10:47:35Z</time>
      </trkpt>
      <trkpt lat="43.69552" lon="3.90214">
        <ele>103</ele>
        <time>2021-03-27T10:47:36Z</time>
      </trkpt>
      <trkpt lat="43.69553" lon="3.90217">
        <ele>103</ele>
        <time>2021-03-27T10:47:37Z</time>
      </trkpt>
      <trkpt lat="43.69555" lon="3.90219">
        <ele>103</ele>
        <time>2021-03-27T10:47:38Z</time>
      </trkpt>
      <trkpt lat="43.69556" lon="3.90222">
        <ele>103</ele>
        <time>2021-03-27T10:47:39Z</time>
      </trkpt>
      <trkpt lat="43.69557" lon="3.90224">
        <ele>103</ele>
        <time>2021-03-27T10:47:40Z</time>
      </trkpt>
      <trkpt lat="43.69557" lon="3.90227">
        <ele>103</ele>
        <time>2021-03-27T10:47:41Z</time>
      </trkpt>
      <trkpt lat="43.69557" lon="3.90231">
        <ele>103</ele>
        <time>2021-03-27T10:47:43Z</time>
      </trkpt>
      <trkpt lat="43.69558" lon="3.90234">
        <ele>103</ele>
        <time>2021-03-27T10:47:44Z</time>
      </trkpt>
      <trkpt lat="43.69562" lon="3.90239">
        <ele>103</ele>
        <time>2021-03-27T10:47:46Z</time>
      </trkpt>
      <trkpt lat="43.69563" lon="3.9024">
        <ele>103</ele>
        <time>2021-03-27T10:47:47Z</time>
      </trkpt>
      <trkpt lat="43.69566" lon="3.9024">
        <ele>103</ele>
        <time>2021-03-27T10:47:49Z</time>
      </trkpt>
      <trkpt lat="43.69568" lon="3.90239">
        <ele>101</ele>
        <time>2021-03-27T10:47:50Z</time>
      </trkpt>
      <trkpt lat="43.69569" lon="3.90239">
        <ele>101</ele>
        <time>2021-03-27T10:47:51Z</time>
      </trkpt>
      <trkpt lat="43.69571" lon="3.90239">
        <ele>101</ele>
        <time>2021-03-27T10:47:52Z</time>
      </trkpt>
      <trkpt lat="43.69574" lon="3.90238">
        <ele>101</ele>
        <time>2021-03-27T10:47:54Z</time>
      </trkpt>
      <trkpt lat="43.69574" lon="3.90238">
        <ele>102</ele>
        <time>2021-03-27T10:48:02Z</time>
      </trkpt>
      <trkpt lat="43.69579" lon="3.90236">
        <ele>103</ele>
        <time>2021-03-27T10:48:20Z</time>
      </trkpt>
      <trkpt lat="43.6958" lon="3.90237">
        <ele>103</ele>
        <time>2021-03-27T10:48:21Z</time>
      </trkpt>
      <trkpt lat="43.69582" lon="3.90242">
        <ele>103</ele>
        <time>2021-03-27T10:48:24Z</time>
      </trkpt>
      <trkpt lat="43.69583" lon="3.90245">
        <ele>103</ele>
        <time>2021-03-27T10:48:25Z</time>
      </trkpt>
      <trkpt lat="43.69584" lon="3.90249">
        <ele>103</ele>
        <time>2021-03-27T10:48:26Z</time>
      </trkpt>
      <trkpt lat="43.69584" lon="3.90253">
        <ele>103</ele>
        <time>2021-03-27T10:48:27Z</time>
      </trkpt>
      <trkpt lat="43.69584" lon="3.90256">
        <ele>104</ele>
        <time>2021-03-27T10:48:28Z</time>
      </trkpt>
      <trkpt lat="43.69584" lon="3.90259">
        <ele>104</ele>
        <time>2021-03-27T10:48:29Z</time>
      </trkpt>
      <trkpt lat="43.69586" lon="3.90261">
        <ele>104</ele>
        <time>2021-03-27T10:48:30Z</time>
      </trkpt>
      <trkpt lat="43.69588" lon="3.90262">
        <ele>104</ele>
        <time>2021-03-27T10:48:31Z</time>
      </trkpt>
      <trkpt lat="43.69591" lon="3.90263">
        <ele>104</ele>
        <time>2021-03-27T10:48:32Z</time>
      </trkpt>
      <trkpt lat="43.69593" lon="3.90264">
        <ele>104</ele>
        <time>2021-03-27T10:48:33Z</time>
      </trkpt>
      <trkpt lat="43.69595" lon="3.90264">
        <ele>104</ele>
        <time>2021-03-27T10:48:34Z</time>
      </trkpt>
      <trkpt lat="43.69597" lon="3.90263">
        <ele>104</ele>
        <time>2021-03-27T10:48:35Z</time>
      </trkpt>
      <trkpt lat="43.69599" lon="3.90261">
        <ele>104</ele>
        <time>2021-03-27T10:48:36Z</time>
      </trkpt>
      <trkpt lat="43.696" lon="3.9026">
        <ele>104</ele>
        <time>2021-03-27T10:48:37Z</time>
      </trkpt>
      <trkpt lat="43.69603" lon="3.90264">
        <ele>104</ele>
        <time>2021-03-27T10:48:39Z</time>
      </trkpt>
      <trkpt lat="43.69603" lon="3.90267">
        <ele>104</ele>
        <time>2021-03-27T10:48:40Z</time>
      </trkpt>
      <trkpt lat="43.69604" lon="3.9027">
        <ele>104</ele>
        <time>2021-03-27T10:48:41Z</time>
      </trkpt>
      <trkpt lat="43.69605" lon="3.90274">
        <ele>104</ele>
        <time>2021-03-27T10:48:42Z</time>
      </trkpt>
      <trkpt lat="43.69606" lon="3.90279">
        <ele>104</ele>
        <time>2021-03-27T10:48:43Z</time>
      </trkpt>
      <trkpt lat="43.69606" lon="3.90284">
        <ele>104</ele>
        <time>2021-03-27T10:48:44Z</time>
      </trkpt>
      <trkpt lat="43.69606" lon="3.9029">
        <ele>104</ele>
        <time>2021-03-27T10:48:45Z</time>
      </trkpt>
      <trkpt lat="43.69607" lon="3.90296">
        <ele>104</ele>
        <time>2021-03-27T10:48:46Z</time>
      </trkpt>
      <trkpt lat="43.69609" lon="3.90302">
        <ele>104</ele>
        <time>2021-03-27T10:48:47Z</time>
      </trkpt>
      <trkpt lat="43.69612" lon="3.90306">
        <ele>103</ele>
        <time>2021-03-27T10:48:48Z</time>
      </trkpt>
      <trkpt lat="43.69614" lon="3.90309">
        <ele>103</ele>
        <time>2021-03-27T10:48:49Z</time>
      </trkpt>
      <trkpt lat="43.69615" lon="3.90313">
        <ele>103</ele>
        <time>2021-03-27T10:48:50Z</time>
      </trkpt>
      <trkpt lat="43.69617" lon="3.90321">
        <ele>103</ele>
        <time>2021-03-27T10:48:52Z</time>
      </trkpt>
      <trkpt lat="43.69618" lon="3.90325">
        <ele>103</ele>
        <time>2021-03-27T10:48:53Z</time>
      </trkpt>
      <trkpt lat="43.6962" lon="3.90329">
        <ele>103</ele>
        <time>2021-03-27T10:48:54Z</time>
      </trkpt>
      <trkpt lat="43.69622" lon="3.90332">
        <ele>103</ele>
        <time>2021-03-27T10:48:55Z</time>
      </trkpt>
      <trkpt lat="43.69624" lon="3.90333">
        <ele>103</ele>
        <time>2021-03-27T10:48:56Z</time>
      </trkpt>
      <trkpt lat="43.69626" lon="3.90335">
        <ele>103</ele>
        <time>2021-03-27T10:48:57Z</time>
      </trkpt>
      <trkpt lat="43.69627" lon="3.90337">
        <ele>103</ele>
        <time>2021-03-27T10:48:58Z</time>
      </trkpt>
      <trkpt lat="43.69625" lon="3.9034">
        <ele>103</ele>
        <time>2021-03-27T10:49:00Z</time>
      </trkpt>
      <trkpt lat="43.69624" lon="3.90342">
        <ele>103</ele>
        <time>2021-03-27T10:49:01Z</time>
      </trkpt>
      <trkpt lat="43.69623" lon="3.90346">
        <ele>103</ele>
        <time>2021-03-27T10:49:03Z</time>
      </trkpt>
      <trkpt lat="43.69624" lon="3.9035">
        <ele>103</ele>
        <time>2021-03-27T10:49:04Z</time>
      </trkpt>
      <trkpt lat="43.69628" lon="3.90361">
        <ele>103</ele>
        <time>2021-03-27T10:49:06Z</time>
      </trkpt>
      <trkpt lat="43.6963" lon="3.90368">
        <ele>103</ele>
        <time>2021-03-27T10:49:07Z</time>
      </trkpt>
      <trkpt lat="43.69631" lon="3.90374">
        <ele>102</ele>
        <time>2021-03-27T10:49:08Z</time>
      </trkpt>
      <trkpt lat="43.69633" lon="3.90379">
        <ele>102</ele>
        <time>2021-03-27T10:49:09Z</time>
      </trkpt>
      <trkpt lat="43.69635" lon="3.90384">
        <ele>102</ele>
        <time>2021-03-27T10:49:10Z</time>
      </trkpt>
      <trkpt lat="43.69637" lon="3.90387">
        <ele>102</ele>
        <time>2021-03-27T10:49:11Z</time>
      </trkpt>
      <trkpt lat="43.69638" lon="3.90391">
        <ele>102</ele>
        <time>2021-03-27T10:49:12Z</time>
      </trkpt>
      <trkpt lat="43.69639" lon="3.90395">
        <ele>102</ele>
        <time>2021-03-27T10:49:13Z</time>
      </trkpt>
      <trkpt lat="43.69639" lon="3.90399">
        <ele>102</ele>
        <time>2021-03-27T10:49:14Z</time>
      </trkpt>
      <trkpt lat="43.69639" lon="3.90402">
        <ele>102</ele>
        <time>2021-03-27T10:49:15Z</time>
      </trkpt>
      <trkpt lat="43.69639" lon="3.9041">
        <ele>102</ele>
        <time>2021-03-27T10:49:17Z</time>
      </trkpt>
      <trkpt lat="43.6964" lon="3.90413">
        <ele>102</ele>
        <time>2021-03-27T10:49:18Z</time>
      </trkpt>
      <trkpt lat="43.6964" lon="3.90417">
        <ele>102</ele>
        <time>2021-03-27T10:49:19Z</time>
      </trkpt>
      <trkpt lat="43.69641" lon="3.9042">
        <ele>102</ele>
        <time>2021-03-27T10:49:20Z</time>
      </trkpt>
      <trkpt lat="43.69641" lon="3.90423">
        <ele>102</ele>
        <time>2021-03-27T10:49:21Z</time>
      </trkpt>
      <trkpt lat="43.69641" lon="3.90427">
        <ele>102</ele>
        <time>2021-03-27T10:49:22Z</time>
      </trkpt>
      <trkpt lat="43.69641" lon="3.9043">
        <ele>102</ele>
        <time>2021-03-27T10:49:23Z</time>
      </trkpt>
      <trkpt lat="43.69644" lon="3.90433">
        <ele>102</ele>
        <time>2021-03-27T10:49:25Z</time>
      </trkpt>
      <trkpt lat="43.69645" lon="3.90435">
        <ele>102</ele>
        <time>2021-03-27T10:49:27Z</time>
      </trkpt>
      <trkpt lat="43.69647" lon="3.90441">
        <ele>102</ele>
        <time>2021-03-27T10:49:28Z</time>
      </trkpt>
      <trkpt lat="43.69647" lon="3.90443">
        <ele>103</ele>
        <time>2021-03-27T10:49:29Z</time>
      </trkpt>
      <trkpt lat="43.69646" lon="3.90446">
        <ele>103</ele>
        <time>2021-03-27T10:49:30Z</time>
      </trkpt>
      <trkpt lat="43.69645" lon="3.90449">
        <ele>103</ele>
        <time>2021-03-27T10:49:31Z</time>
      </trkpt>
      <trkpt lat="43.69644" lon="3.90452">
        <ele>103</ele>
        <time>2021-03-27T10:49:32Z</time>
      </trkpt>
      <trkpt lat="43.69645" lon="3.90455">
        <ele>103</ele>
        <time>2021-03-27T10:49:33Z</time>
      </trkpt>
      <trkpt lat="43.69646" lon="3.90459">
        <ele>103</ele>
        <time>2021-03-27T10:49:34Z</time>
      </trkpt>
      <trkpt lat="43.69647" lon="3.90464">
        <ele>103</ele>
        <time>2021-03-27T10:49:35Z</time>
      </trkpt>
      <trkpt lat="43.69648" lon="3.90469">
        <ele>103</ele>
        <time>2021-03-27T10:49:36Z</time>
      </trkpt>
      <trkpt lat="43.69649" lon="3.90473">
        <ele>103</ele>
        <time>2021-03-27T10:49:37Z</time>
      </trkpt>
      <trkpt lat="43.6965" lon="3.90476">
        <ele>103</ele>
        <time>2021-03-27T10:49:38Z</time>
      </trkpt>
      <trkpt lat="43.6965" lon="3.9048">
        <ele>103</ele>
        <time>2021-03-27T10:49:39Z</time>
      </trkpt>
      <trkpt lat="43.6965" lon="3.90484">
        <ele>103</ele>
        <time>2021-03-27T10:49:40Z</time>
      </trkpt>
      <trkpt lat="43.69651" lon="3.90487">
        <ele>103</ele>
        <time>2021-03-27T10:49:41Z</time>
      </trkpt>
      <trkpt lat="43.69653" lon="3.90491">
        <ele>103</ele>
        <time>2021-03-27T10:49:43Z</time>
      </trkpt>
      <trkpt lat="43.69655" lon="3.90493">
        <ele>103</ele>
        <time>2021-03-27T10:49:44Z</time>
      </trkpt>
      <trkpt lat="43.69656" lon="3.90496">
        <ele>103</ele>
        <time>2021-03-27T10:49:45Z</time>
      </trkpt>
      <trkpt lat="43.69656" lon="3.90498">
        <ele>103</ele>
        <time>2021-03-27T10:49:46Z</time>
      </trkpt>
      <trkpt lat="43.69656" lon="3.90501">
        <ele>103</ele>
        <time>2021-03-27T10:49:47Z</time>
      </trkpt>
      <trkpt lat="43.69658" lon="3.90505">
        <ele>103</ele>
        <time>2021-03-27T10:49:50Z</time>
      </trkpt>
      <trkpt lat="43.69662" lon="3.90508">
        <ele>103</ele>
        <time>2021-03-27T10:49:51Z</time>
      </trkpt>
      <trkpt lat="43.69663" lon="3.9051">
        <ele>103</ele>
        <time>2021-03-27T10:49:52Z</time>
      </trkpt>
      <trkpt lat="43.69664" lon="3.90515">
        <ele>103</ele>
        <time>2021-03-27T10:49:54Z</time>
      </trkpt>
      <trkpt lat="43.69665" lon="3.90518">
        <ele>103</ele>
        <time>2021-03-27T10:49:55Z</time>
      </trkpt>
      <trkpt lat="43.69665" lon="3.90522">
        <ele>103</ele>
        <time>2021-03-27T10:49:56Z</time>
      </trkpt>
      <trkpt lat="43.69665" lon="3.90526">
        <ele>103</ele>
        <time>2021-03-27T10:49:57Z</time>
      </trkpt>
      <trkpt lat="43.69666" lon="3.90529">
        <ele>103</ele>
        <time>2021-03-27T10:49:58Z</time>
      </trkpt>
      <trkpt lat="43.69668" lon="3.9053">
        <ele>104</ele>
        <time>2021-03-27T10:49:59Z</time>
      </trkpt>
      <trkpt lat="43.69669" lon="3.90533">
        <ele>104</ele>
        <time>2021-03-27T10:50:00Z</time>
      </trkpt>
      <trkpt lat="43.6967" lon="3.90535">
        <ele>104</ele>
        <time>2021-03-27T10:50:01Z</time>
      </trkpt>
      <trkpt lat="43.69671" lon="3.90538">
        <ele>104</ele>
        <time>2021-03-27T10:50:02Z</time>
      </trkpt>
      <trkpt lat="43.69672" lon="3.90541">
        <ele>104</ele>
        <time>2021-03-27T10:50:03Z</time>
      </trkpt>
      <trkpt lat="43.69674" lon="3.90544">
        <ele>104</ele>
        <time>2021-03-27T10:50:04Z</time>
      </trkpt>
      <trkpt lat="43.69675" lon="3.90547">
        <ele>104</ele>
        <time>2021-03-27T10:50:05Z</time>
      </trkpt>
      <trkpt lat="43.69676" lon="3.90551">
        <ele>104</ele>
        <time>2021-03-27T10:50:06Z</time>
      </trkpt>
      <trkpt lat="43.69678" lon="3.90555">
        <ele>104</ele>
        <time>2021-03-27T10:50:07Z</time>
      </trkpt>
      <trkpt lat="43.69679" lon="3.9056">
        <ele>105</ele>
        <time>2021-03-27T10:50:08Z</time>
      </trkpt>
      <trkpt lat="43.6968" lon="3.90566">
        <ele>105</ele>
        <time>2021-03-27T10:50:09Z</time>
      </trkpt>
      <trkpt lat="43.69682" lon="3.90569">
        <ele>105</ele>
        <time>2021-03-27T10:50:10Z</time>
      </trkpt>
      <trkpt lat="43.69685" lon="3.90573">
        <ele>105</ele>
        <time>2021-03-27T10:50:12Z</time>
      </trkpt>
      <trkpt lat="43.69686" lon="3.90576">
        <ele>105</ele>
        <time>2021-03-27T10:50:13Z</time>
      </trkpt>
      <trkpt lat="43.69688" lon="3.90578">
        <ele>105</ele>
        <time>2021-03-27T10:50:14Z</time>
      </trkpt>
      <trkpt lat="43.69689" lon="3.90579">
        <ele>105</ele>
        <time>2021-03-27T10:50:15Z</time>
      </trkpt>
      <trkpt lat="43.6969" lon="3.90582">
        <ele>105</ele>
        <time>2021-03-27T10:50:16Z</time>
      </trkpt>
      <trkpt lat="43.69691" lon="3.90586">
        <ele>105</ele>
        <time>2021-03-27T10:50:17Z</time>
      </trkpt>
      <trkpt lat="43.69692" lon="3.9059">
        <ele>105</ele>
        <time>2021-03-27T10:50:18Z</time>
      </trkpt>
      <trkpt lat="43.69693" lon="3.90594">
        <ele>105</ele>
        <time>2021-03-27T10:50:19Z</time>
      </trkpt>
      <trkpt lat="43.69694" lon="3.90597">
        <ele>105</ele>
        <time>2021-03-27T10:50:20Z</time>
      </trkpt>
      <trkpt lat="43.69696" lon="3.90601">
        <ele>105</ele>
        <time>2021-03-27T10:50:21Z</time>
      </trkpt>
      <trkpt lat="43.69697" lon="3.90605">
        <ele>105</ele>
        <time>2021-03-27T10:50:22Z</time>
      </trkpt>
      <trkpt lat="43.697" lon="3.90608">
        <ele>105</ele>
        <time>2021-03-27T10:50:23Z</time>
      </trkpt>
      <trkpt lat="43.69703" lon="3.90612">
        <ele>105</ele>
        <time>2021-03-27T10:50:24Z</time>
      </trkpt>
      <trkpt lat="43.69705" lon="3.90616">
        <ele>105</ele>
        <time>2021-03-27T10:50:25Z</time>
      </trkpt>
      <trkpt lat="43.69708" lon="3.90618">
        <ele>105</ele>
        <time>2021-03-27T10:50:26Z</time>
      </trkpt>
      <trkpt lat="43.69711" lon="3.9062">
        <ele>105</ele>
        <time>2021-03-27T10:50:27Z</time>
      </trkpt>
      <trkpt lat="43.69714" lon="3.90623">
        <ele>105</ele>
        <time>2021-03-27T10:50:28Z</time>
      </trkpt>
      <trkpt lat="43.69715" lon="3.90625">
        <ele>104</ele>
        <time>2021-03-27T10:50:29Z</time>
      </trkpt>
      <trkpt lat="43.69719" lon="3.90627">
        <ele>104</ele>
        <time>2021-03-27T10:50:31Z</time>
      </trkpt>
      <trkpt lat="43.69722" lon="3.9063">
        <ele>104</ele>
        <time>2021-03-27T10:50:33Z</time>
      </trkpt>
      <trkpt lat="43.69723" lon="3.90633">
        <ele>104</ele>
        <time>2021-03-27T10:50:35Z</time>
      </trkpt>
      <trkpt lat="43.69726" lon="3.9064">
        <ele>104</ele>
        <time>2021-03-27T10:50:36Z</time>
      </trkpt>
      <trkpt lat="43.69728" lon="3.90644">
        <ele>104</ele>
        <time>2021-03-27T10:50:37Z</time>
      </trkpt>
      <trkpt lat="43.6973" lon="3.90648">
        <ele>103</ele>
        <time>2021-03-27T10:50:38Z</time>
      </trkpt>
      <trkpt lat="43.69732" lon="3.90651">
        <ele>103</ele>
        <time>2021-03-27T10:50:39Z</time>
      </trkpt>
      <trkpt lat="43.69734" lon="3.90654">
        <ele>103</ele>
        <time>2021-03-27T10:50:40Z</time>
      </trkpt>
      <trkpt lat="43.69736" lon="3.90655">
        <ele>103</ele>
        <time>2021-03-27T10:50:41Z</time>
      </trkpt>
      <trkpt lat="43.69738" lon="3.90657">
        <ele>103</ele>
        <time>2021-03-27T10:50:42Z</time>
      </trkpt>
      <trkpt lat="43.69739" lon="3.90659">
        <ele>103</ele>
        <time>2021-03-27T10:50:43Z</time>
      </trkpt>
      <trkpt lat="43.69741" lon="3.90661">
        <ele>103</ele>
        <time>2021-03-27T10:50:45Z</time>
      </trkpt>
      <trkpt lat="43.69743" lon="3.90662">
        <ele>102</ele>
        <time>2021-03-27T10:50:49Z</time>
      </trkpt>
      <trkpt lat="43.69745" lon="3.90664">
        <ele>102</ele>
        <time>2021-03-27T10:50:50Z</time>
      </trkpt>
      <trkpt lat="43.69747" lon="3.90667">
        <ele>102</ele>
        <time>2021-03-27T10:50:51Z</time>
      </trkpt>
      <trkpt lat="43.69749" lon="3.90671">
        <ele>102</ele>
        <time>2021-03-27T10:50:52Z</time>
      </trkpt>
      <trkpt lat="43.69752" lon="3.90674">
        <ele>102</ele>
        <time>2021-03-27T10:50:53Z</time>
      </trkpt>
      <trkpt lat="43.69754" lon="3.90677">
        <ele>102</ele>
        <time>2021-03-27T10:50:54Z</time>
      </trkpt>
      <trkpt lat="43.69756" lon="3.90679">
        <ele>102</ele>
        <time>2021-03-27T10:50:55Z</time>
      </trkpt>
      <trkpt lat="43.69758" lon="3.90683">
        <ele>102</ele>
        <time>2021-03-27T10:50:56Z</time>
      </trkpt>
      <trkpt lat="43.6976" lon="3.90687">
        <ele>102</ele>
        <time>2021-03-27T10:50:57Z</time>
      </trkpt>
      <trkpt lat="43.69762" lon="3.90691">
        <ele>102</ele>
        <time>2021-03-27T10:50:58Z</time>
      </trkpt>
      <trkpt lat="43.69764" lon="3.90694">
        <ele>102</ele>
        <time>2021-03-27T10:50:59Z</time>
      </trkpt>
      <trkpt lat="43.69766" lon="3.90698">
        <ele>102</ele>
        <time>2021-03-27T10:51:00Z</time>
      </trkpt>
      <trkpt lat="43.69768" lon="3.90701">
        <ele>102</ele>
        <time>2021-03-27T10:51:01Z</time>
      </trkpt>
      <trkpt lat="43.69769" lon="3.90703">
        <ele>102</ele>
        <time>2021-03-27T10:51:02Z</time>
      </trkpt>
      <trkpt lat="43.69771" lon="3.90707">
        <ele>102</ele>
        <time>2021-03-27T10:51:04Z</time>
      </trkpt>
      <trkpt lat="43.69772" lon="3.90709">
        <ele>102</ele>
        <time>2021-03-27T10:51:05Z</time>
      </trkpt>
      <trkpt lat="43.69774" lon="3.9071">
        <ele>102</ele>
        <time>2021-03-27T10:51:06Z</time>
      </trkpt>
      <trkpt lat="43.69776" lon="3.90712">
        <ele>102</ele>
        <time>2021-03-27T10:51:07Z</time>
      </trkpt>
      <trkpt lat="43.69778" lon="3.90714">
        <ele>102</ele>
        <time>2021-03-27T10:51:08Z</time>
      </trkpt>
      <trkpt lat="43.69779" lon="3.90716">
        <ele>102</ele>
        <time>2021-03-27T10:51:09Z</time>
      </trkpt>
      <trkpt lat="43.69781" lon="3.90718">
        <ele>102</ele>
        <time>2021-03-27T10:51:10Z</time>
      </trkpt>
      <trkpt lat="43.69782" lon="3.90722">
        <ele>102</ele>
        <time>2021-03-27T10:51:11Z</time>
      </trkpt>
      <trkpt lat="43.69785" lon="3.90726">
        <ele>102</ele>
        <time>2021-03-27T10:51:13Z</time>
      </trkpt>
      <trkpt lat="43.69787" lon="3.90727">
        <ele>102</ele>
        <time>2021-03-27T10:51:14Z</time>
      </trkpt>
      <trkpt lat="43.69789" lon="3.9073">
        <ele>102</ele>
        <time>2021-03-27T10:51:15Z</time>
      </trkpt>
      <trkpt lat="43.69791" lon="3.90733">
        <ele>102</ele>
        <time>2021-03-27T10:51:16Z</time>
      </trkpt>
      <trkpt lat="43.69793" lon="3.90736">
        <ele>102</ele>
        <time>2021-03-27T10:51:17Z</time>
      </trkpt>
      <trkpt lat="43.69795" lon="3.9074">
        <ele>102</ele>
        <time>2021-03-27T10:51:18Z</time>
      </trkpt>
      <trkpt lat="43.69798" lon="3.90744">
        <ele>102</ele>
        <time>2021-03-27T10:51:19Z</time>
      </trkpt>
      <trkpt lat="43.69801" lon="3.90749">
        <ele>102</ele>
        <time>2021-03-27T10:51:20Z</time>
      </trkpt>
      <trkpt lat="43.69804" lon="3.90753">
        <ele>102</ele>
        <time>2021-03-27T10:51:21Z</time>
      </trkpt>
      <trkpt lat="43.69807" lon="3.90757">
        <ele>102</ele>
        <time>2021-03-27T10:51:22Z</time>
      </trkpt>
      <trkpt lat="43.69812" lon="3.90763">
        <ele>102</ele>
        <time>2021-03-27T10:51:24Z</time>
      </trkpt>
      <trkpt lat="43.69814" lon="3.90767">
        <ele>102</ele>
        <time>2021-03-27T10:51:25Z</time>
      </trkpt>
      <trkpt lat="43.69816" lon="3.9077">
        <ele>102</ele>
        <time>2021-03-27T10:51:26Z</time>
      </trkpt>
      <trkpt lat="43.69819" lon="3.90772">
        <ele>102</ele>
        <time>2021-03-27T10:51:27Z</time>
      </trkpt>
      <trkpt lat="43.69821" lon="3.90774">
        <ele>102</ele>
        <time>2021-03-27T10:51:28Z</time>
      </trkpt>
      <trkpt lat="43.69824" lon="3.90777">
        <ele>102</ele>
        <time>2021-03-27T10:51:30Z</time>
      </trkpt>
      <trkpt lat="43.69829" lon="3.90783">
        <ele>102</ele>
        <time>2021-03-27T10:51:31Z</time>
      </trkpt>
      <trkpt lat="43.6983" lon="3.90785">
        <ele>102</ele>
        <time>2021-03-27T10:51:32Z</time>
      </trkpt>
      <trkpt lat="43.69833" lon="3.90786">
        <ele>102</ele>
        <time>2021-03-27T10:51:33Z</time>
      </trkpt>
      <trkpt lat="43.69836" lon="3.90788">
        <ele>102</ele>
        <time>2021-03-27T10:51:34Z</time>
      </trkpt>
      <trkpt lat="43.69839" lon="3.90791">
        <ele>102</ele>
        <time>2021-03-27T10:51:35Z</time>
      </trkpt>
      <trkpt lat="43.69842" lon="3.90795">
        <ele>102</ele>
        <time>2021-03-27T10:51:36Z</time>
      </trkpt>
      <trkpt lat="43.69844" lon="3.90798">
        <ele>102</ele>
        <time>2021-03-27T10:51:37Z</time>
      </trkpt>
      <trkpt lat="43.69845" lon="3.90802">
        <ele>100</ele>
        <time>2021-03-27T10:51:38Z</time>
      </trkpt>
      <trkpt lat="43.69846" lon="3.90805">
        <ele>100</ele>
        <time>2021-03-27T10:51:39Z</time>
      </trkpt>
      <trkpt lat="43.69848" lon="3.90809">
        <ele>100</ele>
        <time>2021-03-27T10:51:40Z</time>
      </trkpt>
      <trkpt lat="43.6985" lon="3.90811">
        <ele>100</ele>
        <time>2021-03-27T10:51:41Z</time>
      </trkpt>
      <trkpt lat="43.69853" lon="3.90814">
        <ele>100</ele>
        <time>2021-03-27T10:51:42Z</time>
      </trkpt>
      <trkpt lat="43.69857" lon="3.90814">
        <ele>100</ele>
        <time>2021-03-27T10:51:43Z</time>
      </trkpt>
      <trkpt lat="43.69861" lon="3.90815">
        <ele>100</ele>
        <time>2021-03-27T10:51:44Z</time>
      </trkpt>
      <trkpt lat="43.69864" lon="3.90816">
        <ele>100</ele>
        <time>2021-03-27T10:51:45Z</time>
      </trkpt>
      <trkpt lat="43.69867" lon="3.90817">
        <ele>100</ele>
        <time>2021-03-27T10:51:46Z</time>
      </trkpt>
      <trkpt lat="43.69869" lon="3.90818">
        <ele>100</ele>
        <time>2021-03-27T10:51:47Z</time>
      </trkpt>
      <trkpt lat="43.69871" lon="3.90818">
        <ele>99</ele>
        <time>2021-03-27T10:51:57Z</time>
      </trkpt>
      <trkpt lat="43.6988" lon="3.90825">
        <ele>99</ele>
        <time>2021-03-27T10:52:15Z</time>
      </trkpt>
      <trkpt lat="43.69881" lon="3.90828">
        <ele>99</ele>
        <time>2021-03-27T10:52:16Z</time>
      </trkpt>
      <trkpt lat="43.69881" lon="3.90832">
        <ele>99</ele>
        <time>2021-03-27T10:52:18Z</time>
      </trkpt>
      <trkpt lat="43.69879" lon="3.90834">
        <ele>99</ele>
        <time>2021-03-27T10:52:20Z</time>
      </trkpt>
      <trkpt lat="43.69878" lon="3.90826">
        <ele>98</ele>
        <time>2021-03-27T10:53:17Z</time>
      </trkpt>
      <trkpt lat="43.6988" lon="3.90828">
        <ele>98</ele>
        <time>2021-03-27T10:53:20Z</time>
      </trkpt>
      <trkpt lat="43.69882" lon="3.9083">
        <ele>98</ele>
        <time>2021-03-27T10:53:22Z</time>
      </trkpt>
      <trkpt lat="43.69882" lon="3.9083">
        <ele>99</ele>
        <time>2021-03-27T10:53:30Z</time>
      </trkpt>
      <trkpt lat="43.69891" lon="3.90835">
        <ele>99</ele>
        <time>2021-03-27T10:53:43Z</time>
      </trkpt>
      <trkpt lat="43.69893" lon="3.90836">
        <ele>99</ele>
        <time>2021-03-27T10:53:44Z</time>
      </trkpt>
      <trkpt lat="43.69896" lon="3.90839">
        <ele>99</ele>
        <time>2021-03-27T10:53:45Z</time>
      </trkpt>
      <trkpt lat="43.699" lon="3.90841">
        <ele>99</ele>
        <time>2021-03-27T10:53:46Z</time>
      </trkpt>
      <trkpt lat="43.69904" lon="3.90845">
        <ele>99</ele>
        <time>2021-03-27T10:53:47Z</time>
      </trkpt>
      <trkpt lat="43.69905" lon="3.9085">
        <ele>99</ele>
        <time>2021-03-27T10:53:48Z</time>
      </trkpt>
      <trkpt lat="43.69907" lon="3.90854">
        <ele>99</ele>
        <time>2021-03-27T10:53:49Z</time>
      </trkpt>
      <trkpt lat="43.6991" lon="3.90857">
        <ele>99</ele>
        <time>2021-03-27T10:53:50Z</time>
      </trkpt>
      <trkpt lat="43.69913" lon="3.9086">
        <ele>99</ele>
        <time>2021-03-27T10:53:51Z</time>
      </trkpt>
      <trkpt lat="43.69917" lon="3.90861">
        <ele>100</ele>
        <time>2021-03-27T10:53:52Z</time>
      </trkpt>
      <trkpt lat="43.69921" lon="3.90862">
        <ele>100</ele>
        <time>2021-03-27T10:53:53Z</time>
      </trkpt>
      <trkpt lat="43.69925" lon="3.90863">
        <ele>100</ele>
        <time>2021-03-27T10:53:54Z</time>
      </trkpt>
      <trkpt lat="43.69933" lon="3.90869">
        <ele>100</ele>
        <time>2021-03-27T10:53:56Z</time>
      </trkpt>
      <trkpt lat="43.6994" lon="3.90877">
        <ele>100</ele>
        <time>2021-03-27T10:53:58Z</time>
      </trkpt>
      <trkpt lat="43.69943" lon="3.9088">
        <ele>100</ele>
        <time>2021-03-27T10:53:59Z</time>
      </trkpt>
      <trkpt lat="43.69947" lon="3.90884">
        <ele>100</ele>
        <time>2021-03-27T10:54:00Z</time>
      </trkpt>
      <trkpt lat="43.6995" lon="3.9089">
        <ele>100</ele>
        <time>2021-03-27T10:54:01Z</time>
      </trkpt>
      <trkpt lat="43.69952" lon="3.90896">
        <ele>100</ele>
        <time>2021-03-27T10:54:02Z</time>
      </trkpt>
      <trkpt lat="43.69953" lon="3.909">
        <ele>99</ele>
        <time>2021-03-27T10:54:03Z</time>
      </trkpt>
      <trkpt lat="43.69956" lon="3.90903">
        <ele>99</ele>
        <time>2021-03-27T10:54:04Z</time>
      </trkpt>
      <trkpt lat="43.69958" lon="3.90905">
        <ele>99</ele>
        <time>2021-03-27T10:54:05Z</time>
      </trkpt>
      <trkpt lat="43.69961" lon="3.90907">
        <ele>99</ele>
        <time>2021-03-27T10:54:06Z</time>
      </trkpt>
      <trkpt lat="43.69964" lon="3.90908">
        <ele>99</ele>
        <time>2021-03-27T10:54:07Z</time>
      </trkpt>
      <trkpt lat="43.69967" lon="3.90909">
        <ele>99</ele>
        <time>2021-03-27T10:54:08Z</time>
      </trkpt>
      <trkpt lat="43.6997" lon="3.90911">
        <ele>99</ele>
        <time>2021-03-27T10:54:09Z</time>
      </trkpt>
      <trkpt lat="43.69973" lon="3.90914">
        <ele>99</ele>
        <time>2021-03-27T10:54:10Z</time>
      </trkpt>
      <trkpt lat="43.69976" lon="3.90916">
        <ele>99</ele>
        <time>2021-03-27T10:54:11Z</time>
      </trkpt>
      <trkpt lat="43.69977" lon="3.90915">
        <ele>98</ele>
        <time>2021-03-27T10:54:12Z</time>
      </trkpt>
      <trkpt lat="43.6998" lon="3.90914">
        <ele>98</ele>
        <time>2021-03-27T10:54:14Z</time>
      </trkpt>
      <trkpt lat="43.69984" lon="3.90916">
        <ele>98</ele>
        <time>2021-03-27T10:54:16Z</time>
      </trkpt>
      <trkpt lat="43.69986" lon="3.90918">
        <ele>98</ele>
        <time>2021-03-27T10:54:17Z</time>
      </trkpt>
      <trkpt lat="43.69989" lon="3.9092">
        <ele>98</ele>
        <time>2021-03-27T10:54:18Z</time>
      </trkpt>
      <trkpt lat="43.69992" lon="3.9092">
        <ele>98</ele>
        <time>2021-03-27T10:54:19Z</time>
      </trkpt>
      <trkpt lat="43.69995" lon="3.9092">
        <ele>98</ele>
        <time>2021-03-27T10:54:20Z</time>
      </trkpt>
      <trkpt lat="43.69998" lon="3.9092">
        <ele>98</ele>
        <time>2021-03-27T10:54:21Z</time>
      </trkpt>
      <trkpt lat="43.70001" lon="3.90919">
        <ele>98</ele>
        <time>2021-03-27T10:54:22Z</time>
      </trkpt>
      <trkpt lat="43.70004" lon="3.90919">
        <ele>97</ele>
        <time>2021-03-27T10:54:23Z</time>
      </trkpt>
      <trkpt lat="43.70012" lon="3.90924">
        <ele>97</ele>
        <time>2021-03-27T10:54:25Z</time>
      </trkpt>
      <trkpt lat="43.70017" lon="3.90928">
        <ele>97</ele>
        <time>2021-03-27T10:54:26Z</time>
      </trkpt>
      <trkpt lat="43.70021" lon="3.9093">
        <ele>97</ele>
        <time>2021-03-27T10:54:27Z</time>
      </trkpt>
      <trkpt lat="43.70025" lon="3.90933">
        <ele>97</ele>
        <time>2021-03-27T10:54:28Z</time>
      </trkpt>
      <trkpt lat="43.70029" lon="3.90936">
        <ele>97</ele>
        <time>2021-03-27T10:54:29Z</time>
      </trkpt>
      <trkpt lat="43.70033" lon="3.90939">
        <ele>97</ele>
        <time>2021-03-27T10:54:30Z</time>
      </trkpt>
      <trkpt lat="43.70037" lon="3.90941">
        <ele>97</ele>
        <time>2021-03-27T10:54:31Z</time>
      </trkpt>
      <trkpt lat="43.70042" lon="3.90942">
        <ele>97</ele>
        <time>2021-03-27T10:54:33Z</time>
      </trkpt>
      <trkpt lat="43.70045" lon="3.90941">
        <ele>97</ele>
        <time>2021-03-27T10:54:35Z</time>
      </trkpt>
      <trkpt lat="43.70047" lon="3.90939">
        <ele>97</ele>
        <time>2021-03-27T10:54:37Z</time>
      </trkpt>
      <trkpt lat="43.7005" lon="3.90939">
        <ele>97</ele>
        <time>2021-03-27T10:54:39Z</time>
      </trkpt>
      <trkpt lat="43.70052" lon="3.90938">
        <ele>97</ele>
        <time>2021-03-27T10:54:41Z</time>
      </trkpt>
      <trkpt lat="43.70054" lon="3.90936">
        <ele>97</ele>
        <time>2021-03-27T10:54:43Z</time>
      </trkpt>
      <trkpt lat="43.70056" lon="3.90933">
        <ele>97</ele>
        <time>2021-03-27T10:54:45Z</time>
      </trkpt>
      <trkpt lat="43.70057" lon="3.90931">
        <ele>97</ele>
        <time>2021-03-27T10:54:46Z</time>
      </trkpt>
      <trkpt lat="43.70059" lon="3.90929">
        <ele>97</ele>
        <time>2021-03-27T10:54:47Z</time>
      </trkpt>
      <trkpt lat="43.7006" lon="3.90926">
        <ele>97</ele>
        <time>2021-03-27T10:54:48Z</time>
      </trkpt>
      <trkpt lat="43.70061" lon="3.90923">
        <ele>97</ele>
        <time>2021-03-27T10:54:49Z</time>
      </trkpt>
      <trkpt lat="43.70062" lon="3.9092">
        <ele>97</ele>
        <time>2021-03-27T10:54:50Z</time>
      </trkpt>
      <trkpt lat="43.70063" lon="3.90915">
        <ele>97</ele>
        <time>2021-03-27T10:54:51Z</time>
      </trkpt>
      <trkpt lat="43.70064" lon="3.90911">
        <ele>97</ele>
        <time>2021-03-27T10:54:52Z</time>
      </trkpt>
      <trkpt lat="43.70064" lon="3.90907">
        <ele>97</ele>
        <time>2021-03-27T10:54:53Z</time>
      </trkpt>
      <trkpt lat="43.70064" lon="3.90899">
        <ele>97</ele>
        <time>2021-03-27T10:54:55Z</time>
      </trkpt>
      <trkpt lat="43.70064" lon="3.90896">
        <ele>97</ele>
        <time>2021-03-27T10:54:56Z</time>
      </trkpt>
      <trkpt lat="43.70064" lon="3.90892">
        <ele>97</ele>
        <time>2021-03-27T10:54:57Z</time>
      </trkpt>
      <trkpt lat="43.70064" lon="3.90889">
        <ele>97</ele>
        <time>2021-03-27T10:54:58Z</time>
      </trkpt>
      <trkpt lat="43.70067" lon="3.90887">
        <ele>97</ele>
        <time>2021-03-27T10:54:59Z</time>
      </trkpt>
      <trkpt lat="43.70071" lon="3.90886">
        <ele>97</ele>
        <time>2021-03-27T10:55:00Z</time>
      </trkpt>
      <trkpt lat="43.70074" lon="3.90884">
        <ele>97</ele>
        <time>2021-03-27T10:55:01Z</time>
      </trkpt>
      <trkpt lat="43.70077" lon="3.90884">
        <ele>97</ele>
        <time>2021-03-27T10:55:02Z</time>
      </trkpt>
      <trkpt lat="43.70081" lon="3.90886">
        <ele>96</ele>
        <time>2021-03-27T10:55:03Z</time>
      </trkpt>
      <trkpt lat="43.70085" lon="3.90888">
        <ele>96</ele>
        <time>2021-03-27T10:55:04Z</time>
      </trkpt>
      <trkpt lat="43.7009" lon="3.9089">
        <ele>96</ele>
        <time>2021-03-27T10:55:05Z</time>
      </trkpt>
      <trkpt lat="43.70093" lon="3.90892">
        <ele>96</ele>
        <time>2021-03-27T10:55:06Z</time>
      </trkpt>
      <trkpt lat="43.70098" lon="3.90893">
        <ele>96</ele>
        <time>2021-03-27T10:55:07Z</time>
      </trkpt>
      <trkpt lat="43.70102" lon="3.90894">
        <ele>96</ele>
        <time>2021-03-27T10:55:08Z</time>
      </trkpt>
      <trkpt lat="43.70107" lon="3.90896">
        <ele>96</ele>
        <time>2021-03-27T10:55:09Z</time>
      </trkpt>
      <trkpt lat="43.7011" lon="3.90898">
        <ele>96</ele>
        <time>2021-03-27T10:55:10Z</time>
      </trkpt>
      <trkpt lat="43.70114" lon="3.90899">
        <ele>96</ele>
        <time>2021-03-27T10:55:11Z</time>
      </trkpt>
      <trkpt lat="43.70117" lon="3.909">
        <ele>93</ele>
        <time>2021-03-27T10:55:12Z</time>
      </trkpt>
      <trkpt lat="43.70119" lon="3.909">
        <ele>93</ele>
        <time>2021-03-27T10:55:13Z</time>
      </trkpt>
      <trkpt lat="43.70121" lon="3.90901">
        <ele>93</ele>
        <time>2021-03-27T10:55:14Z</time>
      </trkpt>
      <trkpt lat="43.70126" lon="3.90906">
        <ele>93</ele>
        <time>2021-03-27T10:55:16Z</time>
      </trkpt>
      <trkpt lat="43.70129" lon="3.9091">
        <ele>93</ele>
        <time>2021-03-27T10:55:17Z</time>
      </trkpt>
      <trkpt lat="43.70131" lon="3.90915">
        <ele>93</ele>
        <time>2021-03-27T10:55:18Z</time>
      </trkpt>
      <trkpt lat="43.70133" lon="3.90919">
        <ele>93</ele>
        <time>2021-03-27T10:55:19Z</time>
      </trkpt>
      <trkpt lat="43.70135" lon="3.90922">
        <ele>93</ele>
        <time>2021-03-27T10:55:20Z</time>
      </trkpt>
      <trkpt lat="43.70137" lon="3.90925">
        <ele>93</ele>
        <time>2021-03-27T10:55:21Z</time>
      </trkpt>
      <trkpt lat="43.70139" lon="3.90926">
        <ele>93</ele>
        <time>2021-03-27T10:55:23Z</time>
      </trkpt>
      <trkpt lat="43.70142" lon="3.90926">
        <ele>93</ele>
        <time>2021-03-27T10:55:25Z</time>
      </trkpt>
      <trkpt lat="43.70145" lon="3.90926">
        <ele>93</ele>
        <time>2021-03-27T10:55:27Z</time>
      </trkpt>
      <trkpt lat="43.70147" lon="3.9093">
        <ele>93</ele>
        <time>2021-03-27T10:55:29Z</time>
      </trkpt>
      <trkpt lat="43.70148" lon="3.90932">
        <ele>93</ele>
        <time>2021-03-27T10:55:30Z</time>
      </trkpt>
      <trkpt lat="43.70149" lon="3.90934">
        <ele>93</ele>
        <time>2021-03-27T10:55:31Z</time>
      </trkpt>
      <trkpt lat="43.7015" lon="3.90937">
        <ele>90</ele>
        <time>2021-03-27T10:55:32Z</time>
      </trkpt>
      <trkpt lat="43.70151" lon="3.90941">
        <ele>90</ele>
        <time>2021-03-27T10:55:33Z</time>
      </trkpt>
      <trkpt lat="43.70151" lon="3.90945">
        <ele>90</ele>
        <time>2021-03-27T10:55:34Z</time>
      </trkpt>
      <trkpt lat="43.70152" lon="3.90947">
        <ele>90</ele>
        <time>2021-03-27T10:55:35Z</time>
      </trkpt>
      <trkpt lat="43.70153" lon="3.9095">
        <ele>90</ele>
        <time>2021-03-27T10:55:36Z</time>
      </trkpt>
      <trkpt lat="43.70155" lon="3.90953">
        <ele>90</ele>
        <time>2021-03-27T10:55:37Z</time>
      </trkpt>
      <trkpt lat="43.70156" lon="3.90957">
        <ele>90</ele>
        <time>2021-03-27T10:55:38Z</time>
      </trkpt>
      <trkpt lat="43.70157" lon="3.90962">
        <ele>90</ele>
        <time>2021-03-27T10:55:39Z</time>
      </trkpt>
      <trkpt lat="43.70159" lon="3.90967">
        <ele>90</ele>
        <time>2021-03-27T10:55:40Z</time>
      </trkpt>
      <trkpt lat="43.70161" lon="3.90972">
        <ele>90</ele>
        <time>2021-03-27T10:55:41Z</time>
      </trkpt>
      <trkpt lat="43.70162" lon="3.90977">
        <ele>89</ele>
        <time>2021-03-27T10:55:42Z</time>
      </trkpt>
      <trkpt lat="43.70163" lon="3.90981">
        <ele>89</ele>
        <time>2021-03-27T10:55:43Z</time>
      </trkpt>
      <trkpt lat="43.70164" lon="3.90985">
        <ele>89</ele>
        <time>2021-03-27T10:55:44Z</time>
      </trkpt>
      <trkpt lat="43.70165" lon="3.90988">
        <ele>89</ele>
        <time>2021-03-27T10:55:45Z</time>
      </trkpt>
      <trkpt lat="43.70166" lon="3.90991">
        <ele>89</ele>
        <time>2021-03-27T10:55:46Z</time>
      </trkpt>
      <trkpt lat="43.70167" lon="3.90994">
        <ele>89</ele>
        <time>2021-03-27T10:55:47Z</time>
      </trkpt>
      <trkpt lat="43.70168" lon="3.90997">
        <ele>89</ele>
        <time>2021-03-27T10:55:48Z</time>
      </trkpt>
      <trkpt lat="43.7017" lon="3.91">
        <ele>89</ele>
        <time>2021-03-27T10:55:49Z</time>
      </trkpt>
      <trkpt lat="43.70171" lon="3.91003">
        <ele>89</ele>
        <time>2021-03-27T10:55:50Z</time>
      </trkpt>
      <trkpt lat="43.70173" lon="3.91006">
        <ele>89</ele>
        <time>2021-03-27T10:55:51Z</time>
      </trkpt>
      <trkpt lat="43.70174" lon="3.91008">
        <ele>89</ele>
        <time>2021-03-27T10:55:52Z</time>
      </trkpt>
      <trkpt lat="43.70175" lon="3.91011">
        <ele>89</ele>
        <time>2021-03-27T10:55:53Z</time>
      </trkpt>
      <trkpt lat="43.70177" lon="3.91013">
        <ele>89</ele>
        <time>2021-03-27T10:55:54Z</time>
      </trkpt>
      <trkpt lat="43.70179" lon="3.91015">
        <ele>89</ele>
        <time>2021-03-27T10:55:55Z</time>
      </trkpt>
      <trkpt lat="43.7018" lon="3.91018">
        <ele>89</ele>
        <time>2021-03-27T10:55:56Z</time>
      </trkpt>
      <trkpt lat="43.70181" lon="3.9102">
        <ele>89</ele>
        <time>2021-03-27T10:55:57Z</time>
      </trkpt>
      <trkpt lat="43.70183" lon="3.91023">
        <ele>89</ele>
        <time>2021-03-27T10:55:58Z</time>
      </trkpt>
      <trkpt lat="43.70186" lon="3.91028">
        <ele>89</ele>
        <time>2021-03-27T10:56:00Z</time>
      </trkpt>
      <trkpt lat="43.70187" lon="3.9103">
        <ele>89</ele>
        <time>2021-03-27T10:56:01Z</time>
      </trkpt>
      <trkpt lat="43.70189" lon="3.91032">
        <ele>90</ele>
        <time>2021-03-27T10:56:02Z</time>
      </trkpt>
      <trkpt lat="43.7019" lon="3.91034">
        <ele>90</ele>
        <time>2021-03-27T10:56:03Z</time>
      </trkpt>
      <trkpt lat="43.70191" lon="3.91036">
        <ele>90</ele>
        <time>2021-03-27T10:56:04Z</time>
      </trkpt>
      <trkpt lat="43.70193" lon="3.91038">
        <ele>90</ele>
        <time>2021-03-27T10:56:05Z</time>
      </trkpt>
      <trkpt lat="43.70194" lon="3.91041">
        <ele>90</ele>
        <time>2021-03-27T10:56:06Z</time>
      </trkpt>
      <trkpt lat="43.70194" lon="3.91044">
        <ele>90</ele>
        <time>2021-03-27T10:56:07Z</time>
      </trkpt>
      <trkpt lat="43.70195" lon="3.91046">
        <ele>90</ele>
        <time>2021-03-27T10:56:08Z</time>
      </trkpt>
      <trkpt lat="43.70196" lon="3.9105">
        <ele>90</ele>
        <time>2021-03-27T10:56:09Z</time>
      </trkpt>
      <trkpt lat="43.70197" lon="3.91053">
        <ele>90</ele>
        <time>2021-03-27T10:56:10Z</time>
      </trkpt>
      <trkpt lat="43.70197" lon="3.91056">
        <ele>90</ele>
        <time>2021-03-27T10:56:11Z</time>
      </trkpt>
      <trkpt lat="43.70197" lon="3.9106">
        <ele>90</ele>
        <time>2021-03-27T10:56:12Z</time>
      </trkpt>
      <trkpt lat="43.70198" lon="3.91063">
        <ele>91</ele>
        <time>2021-03-27T10:56:13Z</time>
      </trkpt>
      <trkpt lat="43.70198" lon="3.91067">
        <ele>91</ele>
        <time>2021-03-27T10:56:14Z</time>
      </trkpt>
      <trkpt lat="43.702" lon="3.91074">
        <ele>91</ele>
        <time>2021-03-27T10:56:16Z</time>
      </trkpt>
      <trkpt lat="43.70202" lon="3.91078">
        <ele>91</ele>
        <time>2021-03-27T10:56:17Z</time>
      </trkpt>
      <trkpt lat="43.70204" lon="3.91085">
        <ele>91</ele>
        <time>2021-03-27T10:56:19Z</time>
      </trkpt>
      <trkpt lat="43.70205" lon="3.91088">
        <ele>91</ele>
        <time>2021-03-27T10:56:20Z</time>
      </trkpt>
      <trkpt lat="43.70207" lon="3.91092">
        <ele>91</ele>
        <time>2021-03-27T10:56:21Z</time>
      </trkpt>
      <trkpt lat="43.70209" lon="3.91095">
        <ele>92</ele>
        <time>2021-03-27T10:56:22Z</time>
      </trkpt>
      <trkpt lat="43.70211" lon="3.91097">
        <ele>92</ele>
        <time>2021-03-27T10:56:23Z</time>
      </trkpt>
      <trkpt lat="43.70213" lon="3.91099">
        <ele>92</ele>
        <time>2021-03-27T10:56:24Z</time>
      </trkpt>
      <trkpt lat="43.70215" lon="3.911">
        <ele>92</ele>
        <time>2021-03-27T10:56:25Z</time>
      </trkpt>
      <trkpt lat="43.70217" lon="3.91102">
        <ele>92</ele>
        <time>2021-03-27T10:56:26Z</time>
      </trkpt>
      <trkpt lat="43.70219" lon="3.91104">
        <ele>92</ele>
        <time>2021-03-27T10:56:27Z</time>
      </trkpt>
      <trkpt lat="43.70221" lon="3.91105">
        <ele>92</ele>
        <time>2021-03-27T10:56:28Z</time>
      </trkpt>
      <trkpt lat="43.70223" lon="3.91107">
        <ele>92</ele>
        <time>2021-03-27T10:56:29Z</time>
      </trkpt>
      <trkpt lat="43.70224" lon="3.91109">
        <ele>92</ele>
        <time>2021-03-27T10:56:30Z</time>
      </trkpt>
      <trkpt lat="43.70226" lon="3.91111">
        <ele>92</ele>
        <time>2021-03-27T10:56:31Z</time>
      </trkpt>
      <trkpt lat="43.70227" lon="3.91112">
        <ele>92</ele>
        <time>2021-03-27T10:56:32Z</time>
      </trkpt>
      <trkpt lat="43.70228" lon="3.91114">
        <ele>94</ele>
        <time>2021-03-27T10:56:33Z</time>
      </trkpt>
      <trkpt lat="43.70231" lon="3.91117">
        <ele>94</ele>
        <time>2021-03-27T10:56:35Z</time>
      </trkpt>
      <trkpt lat="43.70234" lon="3.91119">
        <ele>94</ele>
        <time>2021-03-27T10:56:37Z</time>
      </trkpt>
      <trkpt lat="43.70237" lon="3.91121">
        <ele>94</ele>
        <time>2021-03-27T10:56:39Z</time>
      </trkpt>
      <trkpt lat="43.70239" lon="3.91123">
        <ele>94</ele>
        <time>2021-03-27T10:56:41Z</time>
      </trkpt>
      <trkpt lat="43.70242" lon="3.91125">
        <ele>96</ele>
        <time>2021-03-27T10:56:43Z</time>
      </trkpt>
      <trkpt lat="43.70245" lon="3.91128">
        <ele>96</ele>
        <time>2021-03-27T10:56:45Z</time>
      </trkpt>
      <trkpt lat="43.70247" lon="3.9113">
        <ele>96</ele>
        <time>2021-03-27T10:56:47Z</time>
      </trkpt>
      <trkpt lat="43.7025" lon="3.91133">
        <ele>96</ele>
        <time>2021-03-27T10:56:49Z</time>
      </trkpt>
      <trkpt lat="43.70252" lon="3.91135">
        <ele>96</ele>
        <time>2021-03-27T10:56:51Z</time>
      </trkpt>
      <trkpt lat="43.70254" lon="3.91139">
        <ele>98</ele>
        <time>2021-03-27T10:56:53Z</time>
      </trkpt>
      <trkpt lat="43.70256" lon="3.91142">
        <ele>98</ele>
        <time>2021-03-27T10:56:55Z</time>
      </trkpt>
      <trkpt lat="43.70257" lon="3.91144">
        <ele>98</ele>
        <time>2021-03-27T10:56:56Z</time>
      </trkpt>
      <trkpt lat="43.70259" lon="3.91146">
        <ele>98</ele>
        <time>2021-03-27T10:56:57Z</time>
      </trkpt>
      <trkpt lat="43.70261" lon="3.91149">
        <ele>98</ele>
        <time>2021-03-27T10:56:59Z</time>
      </trkpt>
      <trkpt lat="43.70262" lon="3.91151">
        <ele>98</ele>
        <time>2021-03-27T10:57:00Z</time>
      </trkpt>
      <trkpt lat="43.70265" lon="3.91154">
        <ele>100</ele>
        <time>2021-03-27T10:57:02Z</time>
      </trkpt>
      <trkpt lat="43.70266" lon="3.91158">
        <ele>100</ele>
        <time>2021-03-27T10:57:04Z</time>
      </trkpt>
      <trkpt lat="43.70268" lon="3.91162">
        <ele>100</ele>
        <time>2021-03-27T10:57:06Z</time>
      </trkpt>
      <trkpt lat="43.70271" lon="3.91164">
        <ele>100</ele>
        <time>2021-03-27T10:57:08Z</time>
      </trkpt>
      <trkpt lat="43.70273" lon="3.91167">
        <ele>100</ele>
        <time>2021-03-27T10:57:10Z</time>
      </trkpt>
      <trkpt lat="43.70276" lon="3.9117">
        <ele>100</ele>
        <time>2021-03-27T10:57:12Z</time>
      </trkpt>
      <trkpt lat="43.70278" lon="3.91171">
        <ele>102</ele>
        <time>2021-03-27T10:57:13Z</time>
      </trkpt>
      <trkpt lat="43.70279" lon="3.91172">
        <ele>102</ele>
        <time>2021-03-27T10:57:14Z</time>
      </trkpt>
      <trkpt lat="43.70281" lon="3.91174">
        <ele>102</ele>
        <time>2021-03-27T10:57:15Z</time>
      </trkpt>
      <trkpt lat="43.70283" lon="3.91176">
        <ele>102</ele>
        <time>2021-03-27T10:57:16Z</time>
      </trkpt>
      <trkpt lat="43.70284" lon="3.91177">
        <ele>102</ele>
        <time>2021-03-27T10:57:17Z</time>
      </trkpt>
      <trkpt lat="43.70288" lon="3.9118">
        <ele>102</ele>
        <time>2021-03-27T10:57:19Z</time>
      </trkpt>
      <trkpt lat="43.70289" lon="3.91181">
        <ele>102</ele>
        <time>2021-03-27T10:57:20Z</time>
      </trkpt>
      <trkpt lat="43.70291" lon="3.91183">
        <ele>102</ele>
        <time>2021-03-27T10:57:21Z</time>
      </trkpt>
      <trkpt lat="43.70293" lon="3.91184">
        <ele>102</ele>
        <time>2021-03-27T10:57:22Z</time>
      </trkpt>
      <trkpt lat="43.70295" lon="3.91185">
        <ele>103</ele>
        <time>2021-03-27T10:57:23Z</time>
      </trkpt>
      <trkpt lat="43.70297" lon="3.91187">
        <ele>103</ele>
        <time>2021-03-27T10:57:24Z</time>
      </trkpt>
      <trkpt lat="43.70299" lon="3.91189">
        <ele>103</ele>
        <time>2021-03-27T10:57:25Z</time>
      </trkpt>
      <trkpt lat="43.703" lon="3.9119">
        <ele>103</ele>
        <time>2021-03-27T10:57:26Z</time>
      </trkpt>
      <trkpt lat="43.70302" lon="3.9119">
        <ele>103</ele>
        <time>2021-03-27T10:57:27Z</time>
      </trkpt>
      <trkpt lat="43.70305" lon="3.91191">
        <ele>103</ele>
        <time>2021-03-27T10:57:28Z</time>
      </trkpt>
      <trkpt lat="43.70307" lon="3.91193">
        <ele>103</ele>
        <time>2021-03-27T10:57:29Z</time>
      </trkpt>
      <trkpt lat="43.70309" lon="3.91194">
        <ele>103</ele>
        <time>2021-03-27T10:57:30Z</time>
      </trkpt>
      <trkpt lat="43.70311" lon="3.91195">
        <ele>103</ele>
        <time>2021-03-27T10:57:31Z</time>
      </trkpt>
      <trkpt lat="43.70314" lon="3.91197">
        <ele>103</ele>
        <time>2021-03-27T10:57:32Z</time>
      </trkpt>
      <trkpt lat="43.70316" lon="3.91198">
        <ele>103</ele>
        <time>2021-03-27T10:57:33Z</time>
      </trkpt>
      <trkpt lat="43.70319" lon="3.912">
        <ele>103</ele>
        <time>2021-03-27T10:57:34Z</time>
      </trkpt>
      <trkpt lat="43.70321" lon="3.91202">
        <ele>103</ele>
        <time>2021-03-27T10:57:35Z</time>
      </trkpt>
      <trkpt lat="43.70324" lon="3.91203">
        <ele>103</ele>
        <time>2021-03-27T10:57:36Z</time>
      </trkpt>
      <trkpt lat="43.70326" lon="3.91205">
        <ele>103</ele>
        <time>2021-03-27T10:57:37Z</time>
      </trkpt>
      <trkpt lat="43.70329" lon="3.91206">
        <ele>103</ele>
        <time>2021-03-27T10:57:38Z</time>
      </trkpt>
      <trkpt lat="43.70331" lon="3.91208">
        <ele>103</ele>
        <time>2021-03-27T10:57:39Z</time>
      </trkpt>
      <trkpt lat="43.70333" lon="3.91209">
        <ele>103</ele>
        <time>2021-03-27T10:57:40Z</time>
      </trkpt>
      <trkpt lat="43.70335" lon="3.9121">
        <ele>103</ele>
        <time>2021-03-27T10:57:41Z</time>
      </trkpt>
      <trkpt lat="43.70337" lon="3.91211">
        <ele>104</ele>
        <time>2021-03-27T10:57:42Z</time>
      </trkpt>
      <trkpt lat="43.70339" lon="3.91212">
        <ele>104</ele>
        <time>2021-03-27T10:57:43Z</time>
      </trkpt>
      <trkpt lat="43.70341" lon="3.91213">
        <ele>104</ele>
        <time>2021-03-27T10:57:44Z</time>
      </trkpt>
      <trkpt lat="43.70343" lon="3.91215">
        <ele>104</ele>
        <time>2021-03-27T10:57:45Z</time>
      </trkpt>
      <trkpt lat="43.70346" lon="3.91216">
        <ele>104</ele>
        <time>2021-03-27T10:57:46Z</time>
      </trkpt>
      <trkpt lat="43.70351" lon="3.91217">
        <ele>104</ele>
        <time>2021-03-27T10:57:48Z</time>
      </trkpt>
      <trkpt lat="43.70353" lon="3.91217">
        <ele>104</ele>
        <time>2021-03-27T10:57:49Z</time>
      </trkpt>
      <trkpt lat="43.70356" lon="3.91218">
        <ele>104</ele>
        <time>2021-03-27T10:57:50Z</time>
      </trkpt>
      <trkpt lat="43.70359" lon="3.91218">
        <ele>104</ele>
        <time>2021-03-27T10:57:51Z</time>
      </trkpt>
      <trkpt lat="43.70362" lon="3.91218">
        <ele>104</ele>
        <time>2021-03-27T10:57:52Z</time>
      </trkpt>
      <trkpt lat="43.70364" lon="3.91218">
        <ele>104</ele>
        <time>2021-03-27T10:57:53Z</time>
      </trkpt>
      <trkpt lat="43.70368" lon="3.91218">
        <ele>104</ele>
        <time>2021-03-27T10:57:54Z</time>
      </trkpt>
      <trkpt lat="43.70373" lon="3.91216">
        <ele>104</ele>
        <time>2021-03-27T10:57:56Z</time>
      </trkpt>
      <trkpt lat="43.70376" lon="3.91214">
        <ele>104</ele>
        <time>2021-03-27T10:57:57Z</time>
      </trkpt>
      <trkpt lat="43.70379" lon="3.91212">
        <ele>104</ele>
        <time>2021-03-27T10:57:58Z</time>
      </trkpt>
      <trkpt lat="43.70382" lon="3.91211">
        <ele>104</ele>
        <time>2021-03-27T10:57:59Z</time>
      </trkpt>
      <trkpt lat="43.70387" lon="3.91211">
        <ele>104</ele>
        <time>2021-03-27T10:58:00Z</time>
      </trkpt>
      <trkpt lat="43.70391" lon="3.91211">
        <ele>104</ele>
        <time>2021-03-27T10:58:01Z</time>
      </trkpt>
      <trkpt lat="43.70395" lon="3.91212">
        <ele>104</ele>
        <time>2021-03-27T10:58:02Z</time>
      </trkpt>
      <trkpt lat="43.70399" lon="3.91213">
        <ele>103</ele>
        <time>2021-03-27T10:58:03Z</time>
      </trkpt>
      <trkpt lat="43.70403" lon="3.91214">
        <ele>103</ele>
        <time>2021-03-27T10:58:04Z</time>
      </trkpt>
      <trkpt lat="43.70407" lon="3.91216">
        <ele>103</ele>
        <time>2021-03-27T10:58:05Z</time>
      </trkpt>
      <trkpt lat="43.70411" lon="3.91218">
        <ele>103</ele>
        <time>2021-03-27T10:58:06Z</time>
      </trkpt>
      <trkpt lat="43.70415" lon="3.9122">
        <ele>103</ele>
        <time>2021-03-27T10:58:07Z</time>
      </trkpt>
      <trkpt lat="43.70425" lon="3.91225">
        <ele>103</ele>
        <time>2021-03-27T10:58:09Z</time>
      </trkpt>
      <trkpt lat="43.70429" lon="3.91229">
        <ele>103</ele>
        <time>2021-03-27T10:58:10Z</time>
      </trkpt>
      <trkpt lat="43.70435" lon="3.91233">
        <ele>103</ele>
        <time>2021-03-27T10:58:11Z</time>
      </trkpt>
      <trkpt lat="43.70441" lon="3.91237">
        <ele>103</ele>
        <time>2021-03-27T10:58:12Z</time>
      </trkpt>
      <trkpt lat="43.70447" lon="3.91242">
        <ele>102</ele>
        <time>2021-03-27T10:58:13Z</time>
      </trkpt>
      <trkpt lat="43.70453" lon="3.91247">
        <ele>102</ele>
        <time>2021-03-27T10:58:14Z</time>
      </trkpt>
      <trkpt lat="43.70459" lon="3.91253">
        <ele>102</ele>
        <time>2021-03-27T10:58:15Z</time>
      </trkpt>
      <trkpt lat="43.70469" lon="3.91264">
        <ele>102</ele>
        <time>2021-03-27T10:58:17Z</time>
      </trkpt>
      <trkpt lat="43.70474" lon="3.91268">
        <ele>102</ele>
        <time>2021-03-27T10:58:18Z</time>
      </trkpt>
      <trkpt lat="43.7048" lon="3.91272">
        <ele>102</ele>
        <time>2021-03-27T10:58:19Z</time>
      </trkpt>
      <trkpt lat="43.70485" lon="3.91276">
        <ele>102</ele>
        <time>2021-03-27T10:58:20Z</time>
      </trkpt>
      <trkpt lat="43.7049" lon="3.91278">
        <ele>102</ele>
        <time>2021-03-27T10:58:21Z</time>
      </trkpt>
      <trkpt lat="43.70496" lon="3.9128">
        <ele>99</ele>
        <time>2021-03-27T10:58:22Z</time>
      </trkpt>
      <trkpt lat="43.70501" lon="3.91282">
        <ele>99</ele>
        <time>2021-03-27T10:58:23Z</time>
      </trkpt>
      <trkpt lat="43.70506" lon="3.91285">
        <ele>99</ele>
        <time>2021-03-27T10:58:24Z</time>
      </trkpt>
      <trkpt lat="43.70511" lon="3.91287">
        <ele>99</ele>
        <time>2021-03-27T10:58:25Z</time>
      </trkpt>
      <trkpt lat="43.70516" lon="3.91289">
        <ele>99</ele>
        <time>2021-03-27T10:58:26Z</time>
      </trkpt>
      <trkpt lat="43.70519" lon="3.91291">
        <ele>99</ele>
        <time>2021-03-27T10:58:27Z</time>
      </trkpt>
      <trkpt lat="43.70523" lon="3.91294">
        <ele>99</ele>
        <time>2021-03-27T10:58:28Z</time>
      </trkpt>
      <trkpt lat="43.70527" lon="3.91296">
        <ele>99</ele>
        <time>2021-03-27T10:58:29Z</time>
      </trkpt>
      <trkpt lat="43.7053" lon="3.91299">
        <ele>99</ele>
        <time>2021-03-27T10:58:30Z</time>
      </trkpt>
      <trkpt lat="43.70537" lon="3.91302">
        <ele>99</ele>
        <time>2021-03-27T10:58:32Z</time>
      </trkpt>
      <trkpt lat="43.7054" lon="3.91305">
        <ele>97</ele>
        <time>2021-03-27T10:58:33Z</time>
      </trkpt>
      <trkpt lat="43.70544" lon="3.91307">
        <ele>97</ele>
        <time>2021-03-27T10:58:34Z</time>
      </trkpt>
      <trkpt lat="43.70548" lon="3.91311">
        <ele>97</ele>
        <time>2021-03-27T10:58:35Z</time>
      </trkpt>
      <trkpt lat="43.70551" lon="3.91316">
        <ele>97</ele>
        <time>2021-03-27T10:58:36Z</time>
      </trkpt>
      <trkpt lat="43.70554" lon="3.91321">
        <ele>97</ele>
        <time>2021-03-27T10:58:37Z</time>
      </trkpt>
      <trkpt lat="43.7056" lon="3.9133">
        <ele>97</ele>
        <time>2021-03-27T10:58:39Z</time>
      </trkpt>
      <trkpt lat="43.70565" lon="3.91334">
        <ele>97</ele>
        <time>2021-03-27T10:58:40Z</time>
      </trkpt>
      <trkpt lat="43.70569" lon="3.91337">
        <ele>97</ele>
        <time>2021-03-27T10:58:41Z</time>
      </trkpt>
      <trkpt lat="43.70574" lon="3.9134">
        <ele>97</ele>
        <time>2021-03-27T10:58:42Z</time>
      </trkpt>
      <trkpt lat="43.70578" lon="3.91343">
        <ele>94</ele>
        <time>2021-03-27T10:58:43Z</time>
      </trkpt>
      <trkpt lat="43.70582" lon="3.91346">
        <ele>94</ele>
        <time>2021-03-27T10:58:44Z</time>
      </trkpt>
      <trkpt lat="43.70585" lon="3.91349">
        <ele>94</ele>
        <time>2021-03-27T10:58:45Z</time>
      </trkpt>
      <trkpt lat="43.70589" lon="3.91352">
        <ele>94</ele>
        <time>2021-03-27T10:58:46Z</time>
      </trkpt>
      <trkpt lat="43.70593" lon="3.91355">
        <ele>94</ele>
        <time>2021-03-27T10:58:47Z</time>
      </trkpt>
      <trkpt lat="43.70597" lon="3.91357">
        <ele>94</ele>
        <time>2021-03-27T10:58:48Z</time>
      </trkpt>
      <trkpt lat="43.70601" lon="3.91359">
        <ele>94</ele>
        <time>2021-03-27T10:58:49Z</time>
      </trkpt>
      <trkpt lat="43.70605" lon="3.91361">
        <ele>94</ele>
        <time>2021-03-27T10:58:50Z</time>
      </trkpt>
      <trkpt lat="43.70608" lon="3.91363">
        <ele>94</ele>
        <time>2021-03-27T10:58:51Z</time>
      </trkpt>
      <trkpt lat="43.7061" lon="3.91364">
        <ele>92</ele>
        <time>2021-03-27T10:58:53Z</time>
      </trkpt>
      <trkpt lat="43.70612" lon="3.91367">
        <ele>92</ele>
        <time>2021-03-27T10:58:55Z</time>
      </trkpt>
      <trkpt lat="43.70613" lon="3.91372">
        <ele>92</ele>
        <time>2021-03-27T10:58:57Z</time>
      </trkpt>
      <trkpt lat="43.70612" lon="3.91375">
        <ele>92</ele>
        <time>2021-03-27T10:58:58Z</time>
      </trkpt>
      <trkpt lat="43.70612" lon="3.91379">
        <ele>92</ele>
        <time>2021-03-27T10:58:59Z</time>
      </trkpt>
      <trkpt lat="43.70613" lon="3.91383">
        <ele>92</ele>
        <time>2021-03-27T10:59:00Z</time>
      </trkpt>
      <trkpt lat="43.70614" lon="3.91387">
        <ele>92</ele>
        <time>2021-03-27T10:59:01Z</time>
      </trkpt>
      <trkpt lat="43.70615" lon="3.9139">
        <ele>92</ele>
        <time>2021-03-27T10:59:02Z</time>
      </trkpt>
      <trkpt lat="43.70617" lon="3.91394">
        <ele>90</ele>
        <time>2021-03-27T10:59:03Z</time>
      </trkpt>
      <trkpt lat="43.70618" lon="3.91398">
        <ele>90</ele>
        <time>2021-03-27T10:59:04Z</time>
      </trkpt>
      <trkpt lat="43.70619" lon="3.914">
        <ele>90</ele>
        <time>2021-03-27T10:59:08Z</time>
      </trkpt>
      <trkpt lat="43.70624" lon="3.91401">
        <ele>90</ele>
        <time>2021-03-27T10:59:11Z</time>
      </trkpt>
      <trkpt lat="43.70631" lon="3.91398">
        <ele>88</ele>
        <time>2021-03-27T10:59:13Z</time>
      </trkpt>
      <trkpt lat="43.70634" lon="3.91397">
        <ele>88</ele>
        <time>2021-03-27T10:59:14Z</time>
      </trkpt>
      <trkpt lat="43.70638" lon="3.91396">
        <ele>88</ele>
        <time>2021-03-27T10:59:15Z</time>
      </trkpt>
      <trkpt lat="43.70642" lon="3.91396">
        <ele>88</ele>
        <time>2021-03-27T10:59:16Z</time>
      </trkpt>
      <trkpt lat="43.70646" lon="3.91397">
        <ele>88</ele>
        <time>2021-03-27T10:59:17Z</time>
      </trkpt>
      <trkpt lat="43.70647" lon="3.91399">
        <ele>88</ele>
        <time>2021-03-27T10:59:18Z</time>
      </trkpt>
      <trkpt lat="43.70647" lon="3.91402">
        <ele>88</ele>
        <time>2021-03-27T10:59:19Z</time>
      </trkpt>
      <trkpt lat="43.70646" lon="3.91406">
        <ele>88</ele>
        <time>2021-03-27T10:59:20Z</time>
      </trkpt>
      <trkpt lat="43.70645" lon="3.9141">
        <ele>88</ele>
        <time>2021-03-27T10:59:21Z</time>
      </trkpt>
      <trkpt lat="43.70644" lon="3.91414">
        <ele>88</ele>
        <time>2021-03-27T10:59:22Z</time>
      </trkpt>
      <trkpt lat="43.70643" lon="3.91419">
        <ele>85</ele>
        <time>2021-03-27T10:59:23Z</time>
      </trkpt>
      <trkpt lat="43.70643" lon="3.91424">
        <ele>85</ele>
        <time>2021-03-27T10:59:24Z</time>
      </trkpt>
      <trkpt lat="43.70645" lon="3.91433">
        <ele>85</ele>
        <time>2021-03-27T10:59:26Z</time>
      </trkpt>
      <trkpt lat="43.70648" lon="3.91437">
        <ele>85</ele>
        <time>2021-03-27T10:59:27Z</time>
      </trkpt>
      <trkpt lat="43.70652" lon="3.9144">
        <ele>85</ele>
        <time>2021-03-27T10:59:28Z</time>
      </trkpt>
      <trkpt lat="43.70655" lon="3.91442">
        <ele>85</ele>
        <time>2021-03-27T10:59:29Z</time>
      </trkpt>
      <trkpt lat="43.70657" lon="3.91444">
        <ele>85</ele>
        <time>2021-03-27T10:59:30Z</time>
      </trkpt>
      <trkpt lat="43.70658" lon="3.91445">
        <ele>85</ele>
        <time>2021-03-27T10:59:31Z</time>
      </trkpt>
      <trkpt lat="43.70662" lon="3.91448">
        <ele>85</ele>
        <time>2021-03-27T10:59:33Z</time>
      </trkpt>
      <trkpt lat="43.70664" lon="3.9145">
        <ele>85</ele>
        <time>2021-03-27T10:59:34Z</time>
      </trkpt>
      <trkpt lat="43.70665" lon="3.91452">
        <ele>85</ele>
        <time>2021-03-27T10:59:35Z</time>
      </trkpt>
      <trkpt lat="43.70667" lon="3.91455">
        <ele>85</ele>
        <time>2021-03-27T10:59:37Z</time>
      </trkpt>
      <trkpt lat="43.7067" lon="3.91457">
        <ele>85</ele>
        <time>2021-03-27T10:59:39Z</time>
      </trkpt>
      <trkpt lat="43.70672" lon="3.91457">
        <ele>85</ele>
        <time>2021-03-27T10:59:40Z</time>
      </trkpt>
      <trkpt lat="43.70674" lon="3.91458">
        <ele>85</ele>
        <time>2021-03-27T10:59:41Z</time>
      </trkpt>
      <trkpt lat="43.70676" lon="3.91459">
        <ele>85</ele>
        <time>2021-03-27T10:59:42Z</time>
      </trkpt>
      <trkpt lat="43.70679" lon="3.91461">
        <ele>85</ele>
        <time>2021-03-27T10:59:44Z</time>
      </trkpt>
      <trkpt lat="43.70681" lon="3.91461">
        <ele>85</ele>
        <time>2021-03-27T10:59:45Z</time>
      </trkpt>
      <trkpt lat="43.70683" lon="3.91462">
        <ele>85</ele>
        <time>2021-03-27T10:59:46Z</time>
      </trkpt>
      <trkpt lat="43.70685" lon="3.91462">
        <ele>85</ele>
        <time>2021-03-27T10:59:47Z</time>
      </trkpt>
      <trkpt lat="43.70687" lon="3.91463">
        <ele>85</ele>
        <time>2021-03-27T10:59:48Z</time>
      </trkpt>
      <trkpt lat="43.70688" lon="3.91464">
        <ele>85</ele>
        <time>2021-03-27T10:59:49Z</time>
      </trkpt>
      <trkpt lat="43.70692" lon="3.91465">
        <ele>85</ele>
        <time>2021-03-27T10:59:51Z</time>
      </trkpt>
      <trkpt lat="43.70696" lon="3.91466">
        <ele>87</ele>
        <time>2021-03-27T10:59:53Z</time>
      </trkpt>
      <trkpt lat="43.70697" lon="3.91467">
        <ele>87</ele>
        <time>2021-03-27T10:59:54Z</time>
      </trkpt>
      <trkpt lat="43.70699" lon="3.91467">
        <ele>87</ele>
        <time>2021-03-27T10:59:55Z</time>
      </trkpt>
      <trkpt lat="43.70702" lon="3.91469">
        <ele>87</ele>
        <time>2021-03-27T10:59:57Z</time>
      </trkpt>
      <trkpt lat="43.70705" lon="3.91471">
        <ele>87</ele>
        <time>2021-03-27T10:59:59Z</time>
      </trkpt>
      <trkpt lat="43.70708" lon="3.91473">
        <ele>87</ele>
        <time>2021-03-27T11:00:01Z</time>
      </trkpt>
      <trkpt lat="43.70711" lon="3.91475">
        <ele>88</ele>
        <time>2021-03-27T11:00:03Z</time>
      </trkpt>
      <trkpt lat="43.70713" lon="3.91477">
        <ele>88</ele>
        <time>2021-03-27T11:00:05Z</time>
      </trkpt>
      <trkpt lat="43.70716" lon="3.91478">
        <ele>88</ele>
        <time>2021-03-27T11:00:07Z</time>
      </trkpt>
      <trkpt lat="43.70719" lon="3.9148">
        <ele>88</ele>
        <time>2021-03-27T11:00:09Z</time>
      </trkpt>
      <trkpt lat="43.70722" lon="3.91482">
        <ele>88</ele>
        <time>2021-03-27T11:00:11Z</time>
      </trkpt>
      <trkpt lat="43.70725" lon="3.91484">
        <ele>88</ele>
        <time>2021-03-27T11:00:13Z</time>
      </trkpt>
      <trkpt lat="43.70728" lon="3.91486">
        <ele>88</ele>
        <time>2021-03-27T11:00:15Z</time>
      </trkpt>
      <trkpt lat="43.7073" lon="3.91488">
        <ele>88</ele>
        <time>2021-03-27T11:00:17Z</time>
      </trkpt>
      <trkpt lat="43.70733" lon="3.9149">
        <ele>88</ele>
        <time>2021-03-27T11:00:19Z</time>
      </trkpt>
      <trkpt lat="43.70736" lon="3.91492">
        <ele>88</ele>
        <time>2021-03-27T11:00:22Z</time>
      </trkpt>
      <trkpt lat="43.70739" lon="3.91494">
        <ele>90</ele>
        <time>2021-03-27T11:00:23Z</time>
      </trkpt>
      <trkpt lat="43.70741" lon="3.91496">
        <ele>90</ele>
        <time>2021-03-27T11:00:25Z</time>
      </trkpt>
      <trkpt lat="43.70742" lon="3.91497">
        <ele>91</ele>
        <time>2021-03-27T11:00:32Z</time>
      </trkpt>
      <trkpt lat="43.70747" lon="3.91503">
        <ele>91</ele>
        <time>2021-03-27T11:00:36Z</time>
      </trkpt>
      <trkpt lat="43.70748" lon="3.91504">
        <ele>91</ele>
        <time>2021-03-27T11:00:37Z</time>
      </trkpt>
      <trkpt lat="43.7075" lon="3.91507">
        <ele>91</ele>
        <time>2021-03-27T11:00:38Z</time>
      </trkpt>
      <trkpt lat="43.70753" lon="3.9151">
        <ele>91</ele>
        <time>2021-03-27T11:00:40Z</time>
      </trkpt>
      <trkpt lat="43.70755" lon="3.91512">
        <ele>91</ele>
        <time>2021-03-27T11:00:42Z</time>
      </trkpt>
      <trkpt lat="43.70757" lon="3.91515">
        <ele>91</ele>
        <time>2021-03-27T11:00:44Z</time>
      </trkpt>
      <trkpt lat="43.70759" lon="3.91518">
        <ele>91</ele>
        <time>2021-03-27T11:00:46Z</time>
      </trkpt>
      <trkpt lat="43.70761" lon="3.91521">
        <ele>91</ele>
        <time>2021-03-27T11:00:48Z</time>
      </trkpt>
      <trkpt lat="43.70763" lon="3.91523">
        <ele>91</ele>
        <time>2021-03-27T11:00:50Z</time>
      </trkpt>
      <trkpt lat="43.70765" lon="3.91526">
        <ele>91</ele>
        <time>2021-03-27T11:00:52Z</time>
      </trkpt>
      <trkpt lat="43.70767" lon="3.91528">
        <ele>91</ele>
        <time>2021-03-27T11:00:54Z</time>
      </trkpt>
      <trkpt lat="43.70769" lon="3.91529">
        <ele>95</ele>
        <time>2021-03-27T11:00:56Z</time>
      </trkpt>
      <trkpt lat="43.70772" lon="3.9153">
        <ele>95</ele>
        <time>2021-03-27T11:00:58Z</time>
      </trkpt>
      <trkpt lat="43.70775" lon="3.9153">
        <ele>95</ele>
        <time>2021-03-27T11:01:00Z</time>
      </trkpt>
      <trkpt lat="43.70778" lon="3.91532">
        <ele>95</ele>
        <time>2021-03-27T11:01:02Z</time>
      </trkpt>
      <trkpt lat="43.70781" lon="3.91533">
        <ele>95</ele>
        <time>2021-03-27T11:01:04Z</time>
      </trkpt>
      <trkpt lat="43.70783" lon="3.91534">
        <ele>95</ele>
        <time>2021-03-27T11:01:05Z</time>
      </trkpt>
      <trkpt lat="43.70785" lon="3.91537">
        <ele>95</ele>
        <time>2021-03-27T11:01:07Z</time>
      </trkpt>
      <trkpt lat="43.70788" lon="3.91539">
        <ele>95</ele>
        <time>2021-03-27T11:01:09Z</time>
      </trkpt>
      <trkpt lat="43.7079" lon="3.91541">
        <ele>95</ele>
        <time>2021-03-27T11:01:11Z</time>
      </trkpt>
      <trkpt lat="43.70793" lon="3.91542">
        <ele>95</ele>
        <time>2021-03-27T11:01:13Z</time>
      </trkpt>
      <trkpt lat="43.70796" lon="3.91543">
        <ele>95</ele>
        <time>2021-03-27T11:01:15Z</time>
      </trkpt>
      <trkpt lat="43.70799" lon="3.91543">
        <ele>95</ele>
        <time>2021-03-27T11:01:17Z</time>
      </trkpt>
      <trkpt lat="43.70802" lon="3.91543">
        <ele>95</ele>
        <time>2021-03-27T11:01:19Z</time>
      </trkpt>
      <trkpt lat="43.70805" lon="3.91543">
        <ele>95</ele>
        <time>2021-03-27T11:01:21Z</time>
      </trkpt>
      <trkpt lat="43.70808" lon="3.91542">
        <ele>95</ele>
        <time>2021-03-27T11:01:23Z</time>
      </trkpt>
      <trkpt lat="43.70811" lon="3.91542">
        <ele>95</ele>
        <time>2021-03-27T11:01:25Z</time>
      </trkpt>
      <trkpt lat="43.70815" lon="3.91542">
        <ele>95</ele>
        <time>2021-03-27T11:01:27Z</time>
      </trkpt>
      <trkpt lat="43.70818" lon="3.91542">
        <ele>95</ele>
        <time>2021-03-27T11:01:29Z</time>
      </trkpt>
      <trkpt lat="43.70821" lon="3.91541">
        <ele>95</ele>
        <time>2021-03-27T11:01:31Z</time>
      </trkpt>
      <trkpt lat="43.70825" lon="3.9154">
        <ele>95</ele>
        <time>2021-03-27T11:01:33Z</time>
      </trkpt>
      <trkpt lat="43.70828" lon="3.9154">
        <ele>99</ele>
        <time>2021-03-27T11:01:35Z</time>
      </trkpt>
      <trkpt lat="43.7083" lon="3.9154">
        <ele>99</ele>
        <time>2021-03-27T11:01:36Z</time>
      </trkpt>
      <trkpt lat="43.70832" lon="3.9154">
        <ele>99</ele>
        <time>2021-03-27T11:01:37Z</time>
      </trkpt>
      <trkpt lat="43.70834" lon="3.9154">
        <ele>99</ele>
        <time>2021-03-27T11:01:38Z</time>
      </trkpt>
      <trkpt lat="43.70836" lon="3.9154">
        <ele>99</ele>
        <time>2021-03-27T11:01:39Z</time>
      </trkpt>
      <trkpt lat="43.70838" lon="3.91539">
        <ele>99</ele>
        <time>2021-03-27T11:01:40Z</time>
      </trkpt>
      <trkpt lat="43.7084" lon="3.91539">
        <ele>99</ele>
        <time>2021-03-27T11:01:41Z</time>
      </trkpt>
      <trkpt lat="43.70842" lon="3.91539">
        <ele>99</ele>
        <time>2021-03-27T11:01:42Z</time>
      </trkpt>
      <trkpt lat="43.70844" lon="3.91538">
        <ele>99</ele>
        <time>2021-03-27T11:01:43Z</time>
      </trkpt>
      <trkpt lat="43.70847" lon="3.91538">
        <ele>99</ele>
        <time>2021-03-27T11:01:44Z</time>
      </trkpt>
      <trkpt lat="43.70849" lon="3.91537">
        <ele>99</ele>
        <time>2021-03-27T11:01:45Z</time>
      </trkpt>
      <trkpt lat="43.70852" lon="3.91537">
        <ele>99</ele>
        <time>2021-03-27T11:01:46Z</time>
      </trkpt>
      <trkpt lat="43.70854" lon="3.91536">
        <ele>99</ele>
        <time>2021-03-27T11:01:47Z</time>
      </trkpt>
      <trkpt lat="43.70857" lon="3.91535">
        <ele>99</ele>
        <time>2021-03-27T11:01:48Z</time>
      </trkpt>
      <trkpt lat="43.70859" lon="3.91534">
        <ele>99</ele>
        <time>2021-03-27T11:01:49Z</time>
      </trkpt>
      <trkpt lat="43.70862" lon="3.91532">
        <ele>99</ele>
        <time>2021-03-27T11:01:50Z</time>
      </trkpt>
      <trkpt lat="43.70867" lon="3.9153">
        <ele>99</ele>
        <time>2021-03-27T11:01:52Z</time>
      </trkpt>
      <trkpt lat="43.70869" lon="3.9153">
        <ele>99</ele>
        <time>2021-03-27T11:01:53Z</time>
      </trkpt>
      <trkpt lat="43.70872" lon="3.91529">
        <ele>99</ele>
        <time>2021-03-27T11:01:54Z</time>
      </trkpt>
      <trkpt lat="43.70874" lon="3.91528">
        <ele>99</ele>
        <time>2021-03-27T11:01:55Z</time>
      </trkpt>
      <trkpt lat="43.70877" lon="3.91527">
        <ele>99</ele>
        <time>2021-03-27T11:01:56Z</time>
      </trkpt>
      <trkpt lat="43.70879" lon="3.91526">
        <ele>99</ele>
        <time>2021-03-27T11:01:57Z</time>
      </trkpt>
      <trkpt lat="43.70882" lon="3.91525">
        <ele>99</ele>
        <time>2021-03-27T11:01:58Z</time>
      </trkpt>
      <trkpt lat="43.70884" lon="3.91524">
        <ele>99</ele>
        <time>2021-03-27T11:01:59Z</time>
      </trkpt>
      <trkpt lat="43.70887" lon="3.91524">
        <ele>99</ele>
        <time>2021-03-27T11:02:00Z</time>
      </trkpt>
      <trkpt lat="43.70889" lon="3.91523">
        <ele>99</ele>
        <time>2021-03-27T11:02:01Z</time>
      </trkpt>
      <trkpt lat="43.70892" lon="3.91522">
        <ele>99</ele>
        <time>2021-03-27T11:02:02Z</time>
      </trkpt>
      <trkpt lat="43.70894" lon="3.91521">
        <ele>99</ele>
        <time>2021-03-27T11:02:03Z</time>
      </trkpt>
      <trkpt lat="43.70896" lon="3.9152">
        <ele>99</ele>
        <time>2021-03-27T11:02:04Z</time>
      </trkpt>
      <trkpt lat="43.709" lon="3.91517">
        <ele>100</ele>
        <time>2021-03-27T11:02:06Z</time>
      </trkpt>
      <trkpt lat="43.70902" lon="3.91515">
        <ele>100</ele>
        <time>2021-03-27T11:02:07Z</time>
      </trkpt>
      <trkpt lat="43.70904" lon="3.91514">
        <ele>100</ele>
        <time>2021-03-27T11:02:08Z</time>
      </trkpt>
      <trkpt lat="43.70906" lon="3.91512">
        <ele>100</ele>
        <time>2021-03-27T11:02:09Z</time>
      </trkpt>
      <trkpt lat="43.70907" lon="3.9151">
        <ele>100</ele>
        <time>2021-03-27T11:02:10Z</time>
      </trkpt>
      <trkpt lat="43.7091" lon="3.91506">
        <ele>100</ele>
        <time>2021-03-27T11:02:12Z</time>
      </trkpt>
      <trkpt lat="43.70912" lon="3.91504">
        <ele>100</ele>
        <time>2021-03-27T11:02:13Z</time>
      </trkpt>
      <trkpt lat="43.70913" lon="3.91502">
        <ele>100</ele>
        <time>2021-03-27T11:02:14Z</time>
      </trkpt>
      <trkpt lat="43.70915" lon="3.915">
        <ele>101</ele>
        <time>2021-03-27T11:02:15Z</time>
      </trkpt>
      <trkpt lat="43.70917" lon="3.91499">
        <ele>101</ele>
        <time>2021-03-27T11:02:16Z</time>
      </trkpt>
      <trkpt lat="43.70919" lon="3.91497">
        <ele>101</ele>
        <time>2021-03-27T11:02:17Z</time>
      </trkpt>
      <trkpt lat="43.70921" lon="3.91496">
        <ele>101</ele>
        <time>2021-03-27T11:02:18Z</time>
      </trkpt>
      <trkpt lat="43.70923" lon="3.91496">
        <ele>101</ele>
        <time>2021-03-27T11:02:19Z</time>
      </trkpt>
      <trkpt lat="43.70925" lon="3.91495">
        <ele>101</ele>
        <time>2021-03-27T11:02:20Z</time>
      </trkpt>
      <trkpt lat="43.70927" lon="3.91494">
        <ele>101</ele>
        <time>2021-03-27T11:02:21Z</time>
      </trkpt>
      <trkpt lat="43.70929" lon="3.91493">
        <ele>101</ele>
        <time>2021-03-27T11:02:22Z</time>
      </trkpt>
      <trkpt lat="43.70931" lon="3.91492">
        <ele>101</ele>
        <time>2021-03-27T11:02:23Z</time>
      </trkpt>
      <trkpt lat="43.70933" lon="3.91491">
        <ele>101</ele>
        <time>2021-03-27T11:02:24Z</time>
      </trkpt>
      <trkpt lat="43.70935" lon="3.9149">
        <ele>101</ele>
        <time>2021-03-27T11:02:25Z</time>
      </trkpt>
      <trkpt lat="43.70937" lon="3.91489">
        <ele>102</ele>
        <time>2021-03-27T11:02:26Z</time>
      </trkpt>
      <trkpt lat="43.70939" lon="3.91487">
        <ele>102</ele>
        <time>2021-03-27T11:02:27Z</time>
      </trkpt>
      <trkpt lat="43.7094" lon="3.91486">
        <ele>102</ele>
        <time>2021-03-27T11:02:28Z</time>
      </trkpt>
      <trkpt lat="43.70942" lon="3.91484">
        <ele>102</ele>
        <time>2021-03-27T11:02:29Z</time>
      </trkpt>
      <trkpt lat="43.70944" lon="3.91483">
        <ele>102</ele>
        <time>2021-03-27T11:02:30Z</time>
      </trkpt>
      <trkpt lat="43.70948" lon="3.91481">
        <ele>102</ele>
        <time>2021-03-27T11:02:32Z</time>
      </trkpt>
      <trkpt lat="43.7095" lon="3.9148">
        <ele>102</ele>
        <time>2021-03-27T11:02:33Z</time>
      </trkpt>
      <trkpt lat="43.70952" lon="3.91479">
        <ele>102</ele>
        <time>2021-03-27T11:02:34Z</time>
      </trkpt>
      <trkpt lat="43.70954" lon="3.91478">
        <ele>103</ele>
        <time>2021-03-27T11:02:35Z</time>
      </trkpt>
      <trkpt lat="43.70956" lon="3.91477">
        <ele>103</ele>
        <time>2021-03-27T11:02:36Z</time>
      </trkpt>
      <trkpt lat="43.70958" lon="3.91476">
        <ele>103</ele>
        <time>2021-03-27T11:02:37Z</time>
      </trkpt>
      <trkpt lat="43.7096" lon="3.91475">
        <ele>103</ele>
        <time>2021-03-27T11:02:38Z</time>
      </trkpt>
      <trkpt lat="43.70962" lon="3.91474">
        <ele>103</ele>
        <time>2021-03-27T11:02:39Z</time>
      </trkpt>
      <trkpt lat="43.70965" lon="3.91472">
        <ele>103</ele>
        <time>2021-03-27T11:02:40Z</time>
      </trkpt>
      <trkpt lat="43.70967" lon="3.91471">
        <ele>103</ele>
        <time>2021-03-27T11:02:41Z</time>
      </trkpt>
      <trkpt lat="43.70969" lon="3.91469">
        <ele>103</ele>
        <time>2021-03-27T11:02:42Z</time>
      </trkpt>
      <trkpt lat="43.7097" lon="3.91468">
        <ele>103</ele>
        <time>2021-03-27T11:02:43Z</time>
      </trkpt>
      <trkpt lat="43.70972" lon="3.91467">
        <ele>103</ele>
        <time>2021-03-27T11:02:44Z</time>
      </trkpt>
      <trkpt lat="43.70974" lon="3.91465">
        <ele>103</ele>
        <time>2021-03-27T11:02:45Z</time>
      </trkpt>
      <trkpt lat="43.70978" lon="3.91463">
        <ele>103</ele>
        <time>2021-03-27T11:02:47Z</time>
      </trkpt>
      <trkpt lat="43.7098" lon="3.91462">
        <ele>103</ele>
        <time>2021-03-27T11:02:48Z</time>
      </trkpt>
      <trkpt lat="43.70982" lon="3.9146">
        <ele>103</ele>
        <time>2021-03-27T11:02:49Z</time>
      </trkpt>
      <trkpt lat="43.70984" lon="3.91458">
        <ele>103</ele>
        <time>2021-03-27T11:02:50Z</time>
      </trkpt>
      <trkpt lat="43.70986" lon="3.91456">
        <ele>103</ele>
        <time>2021-03-27T11:02:51Z</time>
      </trkpt>
      <trkpt lat="43.70988" lon="3.91454">
        <ele>103</ele>
        <time>2021-03-27T11:02:52Z</time>
      </trkpt>
      <trkpt lat="43.70992" lon="3.91452">
        <ele>103</ele>
        <time>2021-03-27T11:02:54Z</time>
      </trkpt>
      <trkpt lat="43.70994" lon="3.91451">
        <ele>104</ele>
        <time>2021-03-27T11:02:55Z</time>
      </trkpt>
      <trkpt lat="43.70996" lon="3.91449">
        <ele>104</ele>
        <time>2021-03-27T11:02:56Z</time>
      </trkpt>
      <trkpt lat="43.70998" lon="3.91448">
        <ele>104</ele>
        <time>2021-03-27T11:02:57Z</time>
      </trkpt>
      <trkpt lat="43.71001" lon="3.91447">
        <ele>104</ele>
        <time>2021-03-27T11:02:58Z</time>
      </trkpt>
      <trkpt lat="43.71003" lon="3.91445">
        <ele>104</ele>
        <time>2021-03-27T11:02:59Z</time>
      </trkpt>
      <trkpt lat="43.71005" lon="3.91444">
        <ele>104</ele>
        <time>2021-03-27T11:03:00Z</time>
      </trkpt>
      <trkpt lat="43.71007" lon="3.91442">
        <ele>104</ele>
        <time>2021-03-27T11:03:01Z</time>
      </trkpt>
      <trkpt lat="43.71009" lon="3.9144">
        <ele>104</ele>
        <time>2021-03-27T11:03:02Z</time>
      </trkpt>
      <trkpt lat="43.7101" lon="3.91438">
        <ele>104</ele>
        <time>2021-03-27T11:03:03Z</time>
      </trkpt>
      <trkpt lat="43.71012" lon="3.91436">
        <ele>104</ele>
        <time>2021-03-27T11:03:04Z</time>
      </trkpt>
      <trkpt lat="43.71013" lon="3.91433">
        <ele>104</ele>
        <time>2021-03-27T11:03:05Z</time>
      </trkpt>
      <trkpt lat="43.71015" lon="3.91428">
        <ele>104</ele>
        <time>2021-03-27T11:03:07Z</time>
      </trkpt>
      <trkpt lat="43.71016" lon="3.91426">
        <ele>104</ele>
        <time>2021-03-27T11:03:08Z</time>
      </trkpt>
      <trkpt lat="43.71017" lon="3.91424">
        <ele>104</ele>
        <time>2021-03-27T11:03:09Z</time>
      </trkpt>
      <trkpt lat="43.71019" lon="3.91421">
        <ele>104</ele>
        <time>2021-03-27T11:03:10Z</time>
      </trkpt>
      <trkpt lat="43.7102" lon="3.91419">
        <ele>104</ele>
        <time>2021-03-27T11:03:11Z</time>
      </trkpt>
      <trkpt lat="43.71022" lon="3.91416">
        <ele>104</ele>
        <time>2021-03-27T11:03:12Z</time>
      </trkpt>
      <trkpt lat="43.71024" lon="3.91414">
        <ele>104</ele>
        <time>2021-03-27T11:03:13Z</time>
      </trkpt>
      <trkpt lat="43.71028" lon="3.91411">
        <ele>104</ele>
        <time>2021-03-27T11:03:15Z</time>
      </trkpt>
      <trkpt lat="43.7103" lon="3.91409">
        <ele>106</ele>
        <time>2021-03-27T11:03:16Z</time>
      </trkpt>
      <trkpt lat="43.71032" lon="3.91408">
        <ele>106</ele>
        <time>2021-03-27T11:03:17Z</time>
      </trkpt>
      <trkpt lat="43.71034" lon="3.91406">
        <ele>106</ele>
        <time>2021-03-27T11:03:18Z</time>
      </trkpt>
      <trkpt lat="43.71038" lon="3.91404">
        <ele>106</ele>
        <time>2021-03-27T11:03:20Z</time>
      </trkpt>
      <trkpt lat="43.7104" lon="3.91402">
        <ele>106</ele>
        <time>2021-03-27T11:03:21Z</time>
      </trkpt>
      <trkpt lat="43.71042" lon="3.91399">
        <ele>106</ele>
        <time>2021-03-27T11:03:22Z</time>
      </trkpt>
      <trkpt lat="43.71043" lon="3.91396">
        <ele>106</ele>
        <time>2021-03-27T11:03:23Z</time>
      </trkpt>
      <trkpt lat="43.71045" lon="3.91394">
        <ele>106</ele>
        <time>2021-03-27T11:03:24Z</time>
      </trkpt>
      <trkpt lat="43.71048" lon="3.91391">
        <ele>107</ele>
        <time>2021-03-27T11:03:25Z</time>
      </trkpt>
      <trkpt lat="43.7105" lon="3.91389">
        <ele>107</ele>
        <time>2021-03-27T11:03:26Z</time>
      </trkpt>
      <trkpt lat="43.71053" lon="3.91387">
        <ele>107</ele>
        <time>2021-03-27T11:03:27Z</time>
      </trkpt>
      <trkpt lat="43.71056" lon="3.91385">
        <ele>107</ele>
        <time>2021-03-27T11:03:28Z</time>
      </trkpt>
      <trkpt lat="43.71058" lon="3.91384">
        <ele>107</ele>
        <time>2021-03-27T11:03:29Z</time>
      </trkpt>
      <trkpt lat="43.71061" lon="3.91382">
        <ele>107</ele>
        <time>2021-03-27T11:03:30Z</time>
      </trkpt>
      <trkpt lat="43.71063" lon="3.91381">
        <ele>107</ele>
        <time>2021-03-27T11:03:31Z</time>
      </trkpt>
      <trkpt lat="43.71065" lon="3.91379">
        <ele>107</ele>
        <time>2021-03-27T11:03:32Z</time>
      </trkpt>
      <trkpt lat="43.71068" lon="3.91377">
        <ele>107</ele>
        <time>2021-03-27T11:03:33Z</time>
      </trkpt>
      <trkpt lat="43.7107" lon="3.91375">
        <ele>107</ele>
        <time>2021-03-27T11:03:34Z</time>
      </trkpt>
      <trkpt lat="43.71072" lon="3.91373">
        <ele>107</ele>
        <time>2021-03-27T11:03:35Z</time>
      </trkpt>
      <trkpt lat="43.71074" lon="3.91371">
        <ele>107</ele>
        <time>2021-03-27T11:03:36Z</time>
      </trkpt>
      <trkpt lat="43.71076" lon="3.91369">
        <ele>107</ele>
        <time>2021-03-27T11:03:37Z</time>
      </trkpt>
      <trkpt lat="43.71078" lon="3.91367">
        <ele>107</ele>
        <time>2021-03-27T11:03:38Z</time>
      </trkpt>
      <trkpt lat="43.7108" lon="3.91364">
        <ele>107</ele>
        <time>2021-03-27T11:03:39Z</time>
      </trkpt>
      <trkpt lat="43.71082" lon="3.91362">
        <ele>107</ele>
        <time>2021-03-27T11:03:40Z</time>
      </trkpt>
      <trkpt lat="43.71086" lon="3.91356">
        <ele>107</ele>
        <time>2021-03-27T11:03:42Z</time>
      </trkpt>
      <trkpt lat="43.71089" lon="3.91354">
        <ele>107</ele>
        <time>2021-03-27T11:03:43Z</time>
      </trkpt>
      <trkpt lat="43.71091" lon="3.91351">
        <ele>107</ele>
        <time>2021-03-27T11:03:44Z</time>
      </trkpt>
      <trkpt lat="43.71093" lon="3.91348">
        <ele>107</ele>
        <time>2021-03-27T11:03:45Z</time>
      </trkpt>
      <trkpt lat="43.71095" lon="3.91346">
        <ele>108</ele>
        <time>2021-03-27T11:03:46Z</time>
      </trkpt>
      <trkpt lat="43.71097" lon="3.91343">
        <ele>108</ele>
        <time>2021-03-27T11:03:47Z</time>
      </trkpt>
      <trkpt lat="43.711" lon="3.91341">
        <ele>108</ele>
        <time>2021-03-27T11:03:48Z</time>
      </trkpt>
      <trkpt lat="43.71102" lon="3.91339">
        <ele>108</ele>
        <time>2021-03-27T11:03:49Z</time>
      </trkpt>
      <trkpt lat="43.71104" lon="3.91336">
        <ele>108</ele>
        <time>2021-03-27T11:03:50Z</time>
      </trkpt>
      <trkpt lat="43.71107" lon="3.91334">
        <ele>108</ele>
        <time>2021-03-27T11:03:51Z</time>
      </trkpt>
      <trkpt lat="43.71109" lon="3.91332">
        <ele>108</ele>
        <time>2021-03-27T11:03:52Z</time>
      </trkpt>
      <trkpt lat="43.71111" lon="3.9133">
        <ele>108</ele>
        <time>2021-03-27T11:03:53Z</time>
      </trkpt>
      <trkpt lat="43.71113" lon="3.91328">
        <ele>108</ele>
        <time>2021-03-27T11:03:54Z</time>
      </trkpt>
      <trkpt lat="43.71115" lon="3.91325">
        <ele>108</ele>
        <time>2021-03-27T11:03:55Z</time>
      </trkpt>
      <trkpt lat="43.71118" lon="3.91323">
        <ele>109</ele>
        <time>2021-03-27T11:03:56Z</time>
      </trkpt>
      <trkpt lat="43.7112" lon="3.91321">
        <ele>109</ele>
        <time>2021-03-27T11:03:57Z</time>
      </trkpt>
      <trkpt lat="43.71121" lon="3.91319">
        <ele>109</ele>
        <time>2021-03-27T11:03:58Z</time>
      </trkpt>
      <trkpt lat="43.71123" lon="3.91318">
        <ele>109</ele>
        <time>2021-03-27T11:03:59Z</time>
      </trkpt>
      <trkpt lat="43.71125" lon="3.91316">
        <ele>109</ele>
        <time>2021-03-27T11:04:00Z</time>
      </trkpt>
      <trkpt lat="43.71127" lon="3.91314">
        <ele>109</ele>
        <time>2021-03-27T11:04:01Z</time>
      </trkpt>
      <trkpt lat="43.71129" lon="3.91313">
        <ele>109</ele>
        <time>2021-03-27T11:04:02Z</time>
      </trkpt>
      <trkpt lat="43.71133" lon="3.9131">
        <ele>109</ele>
        <time>2021-03-27T11:04:04Z</time>
      </trkpt>
      <trkpt lat="43.71135" lon="3.91309">
        <ele>109</ele>
        <time>2021-03-27T11:04:05Z</time>
      </trkpt>
      <trkpt lat="43.71137" lon="3.91308">
        <ele>111</ele>
        <time>2021-03-27T11:04:06Z</time>
      </trkpt>
      <trkpt lat="43.71139" lon="3.91307">
        <ele>111</ele>
        <time>2021-03-27T11:04:07Z</time>
      </trkpt>
      <trkpt lat="43.71141" lon="3.91306">
        <ele>111</ele>
        <time>2021-03-27T11:04:08Z</time>
      </trkpt>
      <trkpt lat="43.71143" lon="3.91305">
        <ele>111</ele>
        <time>2021-03-27T11:04:09Z</time>
      </trkpt>
      <trkpt lat="43.71145" lon="3.91303">
        <ele>111</ele>
        <time>2021-03-27T11:04:10Z</time>
      </trkpt>
      <trkpt lat="43.71146" lon="3.91302">
        <ele>111</ele>
        <time>2021-03-27T11:04:11Z</time>
      </trkpt>
      <trkpt lat="43.71148" lon="3.913">
        <ele>111</ele>
        <time>2021-03-27T11:04:12Z</time>
      </trkpt>
      <trkpt lat="43.7115" lon="3.91298">
        <ele>111</ele>
        <time>2021-03-27T11:04:13Z</time>
      </trkpt>
      <trkpt lat="43.71151" lon="3.91297">
        <ele>111</ele>
        <time>2021-03-27T11:04:14Z</time>
      </trkpt>
      <trkpt lat="43.71154" lon="3.91294">
        <ele>111</ele>
        <time>2021-03-27T11:04:16Z</time>
      </trkpt>
      <trkpt lat="43.71154" lon="3.91294">
        <ele>112</ele>
        <time>2021-03-27T11:04:24Z</time>
      </trkpt>
      <trkpt lat="43.71164" lon="3.91287">
        <ele>113</ele>
        <time>2021-03-27T11:05:18Z</time>
      </trkpt>
      <trkpt lat="43.71168" lon="3.91283">
        <ele>113</ele>
        <time>2021-03-27T11:05:20Z</time>
      </trkpt>
      <trkpt lat="43.71172" lon="3.9128">
        <ele>113</ele>
        <time>2021-03-27T11:05:22Z</time>
      </trkpt>
      <trkpt lat="43.71175" lon="3.91278">
        <ele>113</ele>
        <time>2021-03-27T11:05:23Z</time>
      </trkpt>
      <trkpt lat="43.71177" lon="3.91277">
        <ele>113</ele>
        <time>2021-03-27T11:05:24Z</time>
      </trkpt>
      <trkpt lat="43.71179" lon="3.91275">
        <ele>113</ele>
        <time>2021-03-27T11:05:25Z</time>
      </trkpt>
      <trkpt lat="43.71181" lon="3.91273">
        <ele>113</ele>
        <time>2021-03-27T11:05:26Z</time>
      </trkpt>
      <trkpt lat="43.71183" lon="3.91272">
        <ele>113</ele>
        <time>2021-03-27T11:05:27Z</time>
      </trkpt>
      <trkpt lat="43.71185" lon="3.9127">
        <ele>113</ele>
        <time>2021-03-27T11:05:28Z</time>
      </trkpt>
      <trkpt lat="43.71186" lon="3.91268">
        <ele>113</ele>
        <time>2021-03-27T11:05:29Z</time>
      </trkpt>
      <trkpt lat="43.71188" lon="3.91266">
        <ele>113</ele>
        <time>2021-03-27T11:05:30Z</time>
      </trkpt>
      <trkpt lat="43.7119" lon="3.91263">
        <ele>113</ele>
        <time>2021-03-27T11:05:31Z</time>
      </trkpt>
      <trkpt lat="43.71193" lon="3.9126">
        <ele>113</ele>
        <time>2021-03-27T11:05:32Z</time>
      </trkpt>
      <trkpt lat="43.71195" lon="3.91258">
        <ele>113</ele>
        <time>2021-03-27T11:05:33Z</time>
      </trkpt>
      <trkpt lat="43.71197" lon="3.91255">
        <ele>113</ele>
        <time>2021-03-27T11:05:34Z</time>
      </trkpt>
      <trkpt lat="43.71202" lon="3.91251">
        <ele>113</ele>
        <time>2021-03-27T11:05:36Z</time>
      </trkpt>
      <trkpt lat="43.71206" lon="3.91248">
        <ele>113</ele>
        <time>2021-03-27T11:05:38Z</time>
      </trkpt>
      <trkpt lat="43.71208" lon="3.91246">
        <ele>113</ele>
        <time>2021-03-27T11:05:39Z</time>
      </trkpt>
      <trkpt lat="43.7121" lon="3.91244">
        <ele>113</ele>
        <time>2021-03-27T11:05:40Z</time>
      </trkpt>
      <trkpt lat="43.71212" lon="3.91243">
        <ele>113</ele>
        <time>2021-03-27T11:05:41Z</time>
      </trkpt>
      <trkpt lat="43.71215" lon="3.91241">
        <ele>113</ele>
        <time>2021-03-27T11:05:43Z</time>
      </trkpt>
      <trkpt lat="43.71216" lon="3.9124">
        <ele>113</ele>
        <time>2021-03-27T11:05:44Z</time>
      </trkpt>
      <trkpt lat="43.71218" lon="3.91239">
        <ele>113</ele>
        <time>2021-03-27T11:05:45Z</time>
      </trkpt>
      <trkpt lat="43.7122" lon="3.91238">
        <ele>113</ele>
        <time>2021-03-27T11:05:46Z</time>
      </trkpt>
      <trkpt lat="43.71225" lon="3.91235">
        <ele>113</ele>
        <time>2021-03-27T11:05:48Z</time>
      </trkpt>
      <trkpt lat="43.71231" lon="3.91232">
        <ele>113</ele>
        <time>2021-03-27T11:05:50Z</time>
      </trkpt>
      <trkpt lat="43.71236" lon="3.91229">
        <ele>113</ele>
        <time>2021-03-27T11:05:52Z</time>
      </trkpt>
      <trkpt lat="43.71238" lon="3.91227">
        <ele>113</ele>
        <time>2021-03-27T11:05:53Z</time>
      </trkpt>
      <trkpt lat="43.71241" lon="3.91226">
        <ele>113</ele>
        <time>2021-03-27T11:05:54Z</time>
      </trkpt>
      <trkpt lat="43.71244" lon="3.91224">
        <ele>113</ele>
        <time>2021-03-27T11:05:56Z</time>
      </trkpt>
      <trkpt lat="43.71249" lon="3.91221">
        <ele>113</ele>
        <time>2021-03-27T11:05:57Z</time>
      </trkpt>
      <trkpt lat="43.71251" lon="3.91219">
        <ele>114</ele>
        <time>2021-03-27T11:05:58Z</time>
      </trkpt>
      <trkpt lat="43.71256" lon="3.91216">
        <ele>114</ele>
        <time>2021-03-27T11:06:00Z</time>
      </trkpt>
      <trkpt lat="43.71258" lon="3.91214">
        <ele>114</ele>
        <time>2021-03-27T11:06:02Z</time>
      </trkpt>
      <trkpt lat="43.71263" lon="3.9121">
        <ele>114</ele>
        <time>2021-03-27T11:06:03Z</time>
      </trkpt>
      <trkpt lat="43.71266" lon="3.91208">
        <ele>114</ele>
        <time>2021-03-27T11:06:04Z</time>
      </trkpt>
      <trkpt lat="43.71268" lon="3.91206">
        <ele>114</ele>
        <time>2021-03-27T11:06:05Z</time>
      </trkpt>
      <trkpt lat="43.7127" lon="3.91204">
        <ele>114</ele>
        <time>2021-03-27T11:06:06Z</time>
      </trkpt>
      <trkpt lat="43.71273" lon="3.91202">
        <ele>114</ele>
        <time>2021-03-27T11:06:07Z</time>
      </trkpt>
      <trkpt lat="43.71275" lon="3.912">
        <ele>114</ele>
        <time>2021-03-27T11:06:08Z</time>
      </trkpt>
      <trkpt lat="43.7128" lon="3.91196">
        <ele>114</ele>
        <time>2021-03-27T11:06:10Z</time>
      </trkpt>
      <trkpt lat="43.71283" lon="3.91194">
        <ele>114</ele>
        <time>2021-03-27T11:06:11Z</time>
      </trkpt>
      <trkpt lat="43.71285" lon="3.91191">
        <ele>114</ele>
        <time>2021-03-27T11:06:12Z</time>
      </trkpt>
      <trkpt lat="43.71288" lon="3.91189">
        <ele>114</ele>
        <time>2021-03-27T11:06:13Z</time>
      </trkpt>
      <trkpt lat="43.7129" lon="3.91187">
        <ele>114</ele>
        <time>2021-03-27T11:06:14Z</time>
      </trkpt>
      <trkpt lat="43.71295" lon="3.91182">
        <ele>114</ele>
        <time>2021-03-27T11:06:16Z</time>
      </trkpt>
      <trkpt lat="43.71297" lon="3.9118">
        <ele>114</ele>
        <time>2021-03-27T11:06:17Z</time>
      </trkpt>
      <trkpt lat="43.71301" lon="3.91177">
        <ele>114</ele>
        <time>2021-03-27T11:06:19Z</time>
      </trkpt>
      <trkpt lat="43.71306" lon="3.91173">
        <ele>114</ele>
        <time>2021-03-27T11:06:21Z</time>
      </trkpt>
      <trkpt lat="43.71309" lon="3.9117">
        <ele>114</ele>
        <time>2021-03-27T11:06:23Z</time>
      </trkpt>
      <trkpt lat="43.71313" lon="3.91167">
        <ele>114</ele>
        <time>2021-03-27T11:06:25Z</time>
      </trkpt>
      <trkpt lat="43.71316" lon="3.91163">
        <ele>115</ele>
        <time>2021-03-27T11:06:27Z</time>
      </trkpt>
      <trkpt lat="43.71321" lon="3.9116">
        <ele>115</ele>
        <time>2021-03-27T11:06:29Z</time>
      </trkpt>
      <trkpt lat="43.71325" lon="3.91157">
        <ele>115</ele>
        <time>2021-03-27T11:06:31Z</time>
      </trkpt>
      <trkpt lat="43.71327" lon="3.91155">
        <ele>115</ele>
        <time>2021-03-27T11:06:32Z</time>
      </trkpt>
      <trkpt lat="43.71329" lon="3.91154">
        <ele>115</ele>
        <time>2021-03-27T11:06:33Z</time>
      </trkpt>
      <trkpt lat="43.71331" lon="3.91152">
        <ele>115</ele>
        <time>2021-03-27T11:06:34Z</time>
      </trkpt>
      <trkpt lat="43.71333" lon="3.91151">
        <ele>115</ele>
        <time>2021-03-27T11:06:35Z</time>
      </trkpt>
      <trkpt lat="43.71335" lon="3.91149">
        <ele>115</ele>
        <time>2021-03-27T11:06:36Z</time>
      </trkpt>
      <trkpt lat="43.71339" lon="3.91147">
        <ele>116</ele>
        <time>2021-03-27T11:06:38Z</time>
      </trkpt>
      <trkpt lat="43.71341" lon="3.91145">
        <ele>116</ele>
        <time>2021-03-27T11:06:39Z</time>
      </trkpt>
      <trkpt lat="43.71343" lon="3.91144">
        <ele>116</ele>
        <time>2021-03-27T11:06:40Z</time>
      </trkpt>
      <trkpt lat="43.71346" lon="3.91142">
        <ele>116</ele>
        <time>2021-03-27T11:06:41Z</time>
      </trkpt>
      <trkpt lat="43.71348" lon="3.91141">
        <ele>116</ele>
        <time>2021-03-27T11:06:42Z</time>
      </trkpt>
      <trkpt lat="43.7135" lon="3.9114">
        <ele>116</ele>
        <time>2021-03-27T11:06:43Z</time>
      </trkpt>
      <trkpt lat="43.71352" lon="3.91139">
        <ele>116</ele>
        <time>2021-03-27T11:06:44Z</time>
      </trkpt>
      <trkpt lat="43.71354" lon="3.91138">
        <ele>116</ele>
        <time>2021-03-27T11:06:45Z</time>
      </trkpt>
      <trkpt lat="43.71357" lon="3.91137">
        <ele>116</ele>
        <time>2021-03-27T11:06:46Z</time>
      </trkpt>
      <trkpt lat="43.71361" lon="3.91135">
        <ele>117</ele>
        <time>2021-03-27T11:06:48Z</time>
      </trkpt>
      <trkpt lat="43.71363" lon="3.91135">
        <ele>117</ele>
        <time>2021-03-27T11:06:50Z</time>
      </trkpt>
      <trkpt lat="43.71368" lon="3.91134">
        <ele>117</ele>
        <time>2021-03-27T11:06:51Z</time>
      </trkpt>
      <trkpt lat="43.7137" lon="3.91133">
        <ele>117</ele>
        <time>2021-03-27T11:06:52Z</time>
      </trkpt>
      <trkpt lat="43.71374" lon="3.91131">
        <ele>117</ele>
        <time>2021-03-27T11:06:54Z</time>
      </trkpt>
      <trkpt lat="43.71377" lon="3.91129">
        <ele>117</ele>
        <time>2021-03-27T11:06:55Z</time>
      </trkpt>
      <trkpt lat="43.71379" lon="3.91128">
        <ele>117</ele>
        <time>2021-03-27T11:06:56Z</time>
      </trkpt>
      <trkpt lat="43.71381" lon="3.91126">
        <ele>118</ele>
        <time>2021-03-27T11:06:57Z</time>
      </trkpt>
      <trkpt lat="43.71386" lon="3.91122">
        <ele>118</ele>
        <time>2021-03-27T11:06:59Z</time>
      </trkpt>
      <trkpt lat="43.71388" lon="3.9112">
        <ele>118</ele>
        <time>2021-03-27T11:07:00Z</time>
      </trkpt>
      <trkpt lat="43.71391" lon="3.91118">
        <ele>118</ele>
        <time>2021-03-27T11:07:01Z</time>
      </trkpt>
      <trkpt lat="43.71393" lon="3.91117">
        <ele>118</ele>
        <time>2021-03-27T11:07:02Z</time>
      </trkpt>
      <trkpt lat="43.71396" lon="3.91115">
        <ele>118</ele>
        <time>2021-03-27T11:07:03Z</time>
      </trkpt>
      <trkpt lat="43.71398" lon="3.91114">
        <ele>118</ele>
        <time>2021-03-27T11:07:05Z</time>
      </trkpt>
      <trkpt lat="43.71404" lon="3.91111">
        <ele>118</ele>
        <time>2021-03-27T11:07:06Z</time>
      </trkpt>
      <trkpt lat="43.71407" lon="3.9111">
        <ele>119</ele>
        <time>2021-03-27T11:07:08Z</time>
      </trkpt>
      <trkpt lat="43.71409" lon="3.91108">
        <ele>119</ele>
        <time>2021-03-27T11:07:09Z</time>
      </trkpt>
      <trkpt lat="43.71412" lon="3.91106">
        <ele>119</ele>
        <time>2021-03-27T11:07:10Z</time>
      </trkpt>
      <trkpt lat="43.71417" lon="3.91102">
        <ele>119</ele>
        <time>2021-03-27T11:07:11Z</time>
      </trkpt>
      <trkpt lat="43.71421" lon="3.91096">
        <ele>119</ele>
        <time>2021-03-27T11:07:13Z</time>
      </trkpt>
      <trkpt lat="43.71424" lon="3.91093">
        <ele>119</ele>
        <time>2021-03-27T11:07:15Z</time>
      </trkpt>
      <trkpt lat="43.71431" lon="3.91093">
        <ele>119</ele>
        <time>2021-03-27T11:07:16Z</time>
      </trkpt>
      <trkpt lat="43.71435" lon="3.91096">
        <ele>119</ele>
        <time>2021-03-27T11:07:18Z</time>
      </trkpt>
      <trkpt lat="43.71438" lon="3.91098">
        <ele>119</ele>
        <time>2021-03-27T11:07:19Z</time>
      </trkpt>
      <trkpt lat="43.71442" lon="3.91104">
        <ele>119</ele>
        <time>2021-03-27T11:07:20Z</time>
      </trkpt>
      <trkpt lat="43.71447" lon="3.91107">
        <ele>119</ele>
        <time>2021-03-27T11:07:22Z</time>
      </trkpt>
      <trkpt lat="43.71453" lon="3.91108">
        <ele>119</ele>
        <time>2021-03-27T11:07:24Z</time>
      </trkpt>
      <trkpt lat="43.71459" lon="3.91109">
        <ele>119</ele>
        <time>2021-03-27T11:07:26Z</time>
      </trkpt>
      <trkpt lat="43.71462" lon="3.91109">
        <ele>120</ele>
        <time>2021-03-27T11:07:27Z</time>
      </trkpt>
      <trkpt lat="43.71465" lon="3.91109">
        <ele>120</ele>
        <time>2021-03-27T11:07:28Z</time>
      </trkpt>
      <trkpt lat="43.71468" lon="3.91108">
        <ele>120</ele>
        <time>2021-03-27T11:07:29Z</time>
      </trkpt>
      <trkpt lat="43.71471" lon="3.91107">
        <ele>120</ele>
        <time>2021-03-27T11:07:30Z</time>
      </trkpt>
      <trkpt lat="43.71474" lon="3.91106">
        <ele>120</ele>
        <time>2021-03-27T11:07:31Z</time>
      </trkpt>
      <trkpt lat="43.71477" lon="3.91105">
        <ele>120</ele>
        <time>2021-03-27T11:07:32Z</time>
      </trkpt>
      <trkpt lat="43.7148" lon="3.91104">
        <ele>120</ele>
        <time>2021-03-27T11:07:33Z</time>
      </trkpt>
      <trkpt lat="43.71482" lon="3.91103">
        <ele>120</ele>
        <time>2021-03-27T11:07:34Z</time>
      </trkpt>
      <trkpt lat="43.71488" lon="3.911">
        <ele>120</ele>
        <time>2021-03-27T11:07:36Z</time>
      </trkpt>
      <trkpt lat="43.71493" lon="3.91096">
        <ele>121</ele>
        <time>2021-03-27T11:07:38Z</time>
      </trkpt>
      <trkpt lat="43.71496" lon="3.91094">
        <ele>121</ele>
        <time>2021-03-27T11:07:40Z</time>
      </trkpt>
      <trkpt lat="43.71501" lon="3.91091">
        <ele>121</ele>
        <time>2021-03-27T11:07:41Z</time>
      </trkpt>
      <trkpt lat="43.71504" lon="3.91089">
        <ele>121</ele>
        <time>2021-03-27T11:07:42Z</time>
      </trkpt>
      <trkpt lat="43.71509" lon="3.91085">
        <ele>121</ele>
        <time>2021-03-27T11:07:44Z</time>
      </trkpt>
      <trkpt lat="43.71514" lon="3.9108">
        <ele>121</ele>
        <time>2021-03-27T11:07:46Z</time>
      </trkpt>
      <trkpt lat="43.71516" lon="3.91078">
        <ele>121</ele>
        <time>2021-03-27T11:07:47Z</time>
      </trkpt>
      <trkpt lat="43.71521" lon="3.91074">
        <ele>121</ele>
        <time>2021-03-27T11:07:49Z</time>
      </trkpt>
      <trkpt lat="43.71527" lon="3.91071">
        <ele>121</ele>
        <time>2021-03-27T11:07:51Z</time>
      </trkpt>
      <trkpt lat="43.71533" lon="3.9107">
        <ele>121</ele>
        <time>2021-03-27T11:07:53Z</time>
      </trkpt>
      <trkpt lat="43.7154" lon="3.91069">
        <ele>121</ele>
        <time>2021-03-27T11:07:55Z</time>
      </trkpt>
      <trkpt lat="43.71543" lon="3.91071">
        <ele>121</ele>
        <time>2021-03-27T11:07:56Z</time>
      </trkpt>
      <trkpt lat="43.71546" lon="3.91073">
        <ele>122</ele>
        <time>2021-03-27T11:07:57Z</time>
      </trkpt>
      <trkpt lat="43.71552" lon="3.91076">
        <ele>122</ele>
        <time>2021-03-27T11:07:59Z</time>
      </trkpt>
      <trkpt lat="43.71556" lon="3.91076">
        <ele>122</ele>
        <time>2021-03-27T11:08:00Z</time>
      </trkpt>
      <trkpt lat="43.71559" lon="3.91076">
        <ele>122</ele>
        <time>2021-03-27T11:08:02Z</time>
      </trkpt>
      <trkpt lat="43.71564" lon="3.91076">
        <ele>122</ele>
        <time>2021-03-27T11:08:03Z</time>
      </trkpt>
      <trkpt lat="43.71568" lon="3.91075">
        <ele>122</ele>
        <time>2021-03-27T11:08:04Z</time>
      </trkpt>
      <trkpt lat="43.71572" lon="3.91073">
        <ele>122</ele>
        <time>2021-03-27T11:08:05Z</time>
      </trkpt>
      <trkpt lat="43.71575" lon="3.9107">
        <ele>122</ele>
        <time>2021-03-27T11:08:06Z</time>
      </trkpt>
      <trkpt lat="43.71578" lon="3.91068">
        <ele>122</ele>
        <time>2021-03-27T11:08:07Z</time>
      </trkpt>
      <trkpt lat="43.71585" lon="3.91065">
        <ele>121</ele>
        <time>2021-03-27T11:08:08Z</time>
      </trkpt>
      <trkpt lat="43.71593" lon="3.91064">
        <ele>121</ele>
        <time>2021-03-27T11:08:10Z</time>
      </trkpt>
      <trkpt lat="43.71597" lon="3.91063">
        <ele>121</ele>
        <time>2021-03-27T11:08:11Z</time>
      </trkpt>
      <trkpt lat="43.716" lon="3.91061">
        <ele>121</ele>
        <time>2021-03-27T11:08:12Z</time>
      </trkpt>
      <trkpt lat="43.71604" lon="3.9106">
        <ele>121</ele>
        <time>2021-03-27T11:08:13Z</time>
      </trkpt>
      <trkpt lat="43.71607" lon="3.91058">
        <ele>121</ele>
        <time>2021-03-27T11:08:14Z</time>
      </trkpt>
      <trkpt lat="43.71611" lon="3.91055">
        <ele>121</ele>
        <time>2021-03-27T11:08:15Z</time>
      </trkpt>
      <trkpt lat="43.71614" lon="3.91053">
        <ele>121</ele>
        <time>2021-03-27T11:08:16Z</time>
      </trkpt>
      <trkpt lat="43.71618" lon="3.91051">
        <ele>119</ele>
        <time>2021-03-27T11:08:17Z</time>
      </trkpt>
      <trkpt lat="43.71626" lon="3.91048">
        <ele>119</ele>
        <time>2021-03-27T11:08:19Z</time>
      </trkpt>
      <trkpt lat="43.7163" lon="3.91046">
        <ele>119</ele>
        <time>2021-03-27T11:08:20Z</time>
      </trkpt>
      <trkpt lat="43.71634" lon="3.91045">
        <ele>119</ele>
        <time>2021-03-27T11:08:21Z</time>
      </trkpt>
      <trkpt lat="43.71638" lon="3.91042">
        <ele>119</ele>
        <time>2021-03-27T11:08:22Z</time>
      </trkpt>
      <trkpt lat="43.71642" lon="3.91039">
        <ele>119</ele>
        <time>2021-03-27T11:08:23Z</time>
      </trkpt>
      <trkpt lat="43.71646" lon="3.91036">
        <ele>119</ele>
        <time>2021-03-27T11:08:24Z</time>
      </trkpt>
      <trkpt lat="43.71651" lon="3.91033">
        <ele>119</ele>
        <time>2021-03-27T11:08:25Z</time>
      </trkpt>
      <trkpt lat="43.71655" lon="3.91031">
        <ele>117</ele>
        <time>2021-03-27T11:08:27Z</time>
      </trkpt>
      <trkpt lat="43.71664" lon="3.91033">
        <ele>117</ele>
        <time>2021-03-27T11:08:28Z</time>
      </trkpt>
      <trkpt lat="43.71669" lon="3.91032">
        <ele>117</ele>
        <time>2021-03-27T11:08:29Z</time>
      </trkpt>
      <trkpt lat="43.71674" lon="3.91031">
        <ele>117</ele>
        <time>2021-03-27T11:08:30Z</time>
      </trkpt>
      <trkpt lat="43.71678" lon="3.91028">
        <ele>117</ele>
        <time>2021-03-27T11:08:32Z</time>
      </trkpt>
      <trkpt lat="43.71682" lon="3.91026">
        <ele>117</ele>
        <time>2021-03-27T11:08:33Z</time>
      </trkpt>
      <trkpt lat="43.71686" lon="3.91025">
        <ele>117</ele>
        <time>2021-03-27T11:08:34Z</time>
      </trkpt>
      <trkpt lat="43.7169" lon="3.91023">
        <ele>117</ele>
        <time>2021-03-27T11:08:35Z</time>
      </trkpt>
      <trkpt lat="43.71699" lon="3.91019">
        <ele>117</ele>
        <time>2021-03-27T11:08:36Z</time>
      </trkpt>
      <trkpt lat="43.71703" lon="3.91016">
        <ele>113</ele>
        <time>2021-03-27T11:08:37Z</time>
      </trkpt>
      <trkpt lat="43.71708" lon="3.91014">
        <ele>113</ele>
        <time>2021-03-27T11:08:38Z</time>
      </trkpt>
      <trkpt lat="43.71712" lon="3.91013">
        <ele>113</ele>
        <time>2021-03-27T11:08:39Z</time>
      </trkpt>
      <trkpt lat="43.71714" lon="3.91013">
        <ele>113</ele>
        <time>2021-03-27T11:08:40Z</time>
      </trkpt>
      <trkpt lat="43.71715" lon="3.91011">
        <ele>113</ele>
        <time>2021-03-27T11:08:54Z</time>
      </trkpt>
      <trkpt lat="43.71719" lon="3.90998">
        <ele>110</ele>
        <time>2021-03-27T11:08:59Z</time>
      </trkpt>
      <trkpt lat="43.7172" lon="3.90994">
        <ele>110</ele>
        <time>2021-03-27T11:09:00Z</time>
      </trkpt>
      <trkpt lat="43.71722" lon="3.90991">
        <ele>110</ele>
        <time>2021-03-27T11:09:01Z</time>
      </trkpt>
      <trkpt lat="43.71723" lon="3.90989">
        <ele>110</ele>
        <time>2021-03-27T11:09:05Z</time>
      </trkpt>
      <trkpt lat="43.7172" lon="3.90974">
        <ele>108</ele>
        <time>2021-03-27T11:09:48Z</time>
      </trkpt>
      <trkpt lat="43.7172" lon="3.9097">
        <ele>108</ele>
        <time>2021-03-27T11:09:49Z</time>
      </trkpt>
      <trkpt lat="43.7172" lon="3.90965">
        <ele>108</ele>
        <time>2021-03-27T11:09:50Z</time>
      </trkpt>
      <trkpt lat="43.71719" lon="3.90958">
        <ele>108</ele>
        <time>2021-03-27T11:09:51Z</time>
      </trkpt>
      <trkpt lat="43.71719" lon="3.90953">
        <ele>108</ele>
        <time>2021-03-27T11:09:53Z</time>
      </trkpt>
      <trkpt lat="43.71719" lon="3.9095">
        <ele>108</ele>
        <time>2021-03-27T11:09:54Z</time>
      </trkpt>
      <trkpt lat="43.71719" lon="3.90946">
        <ele>108</ele>
        <time>2021-03-27T11:09:55Z</time>
      </trkpt>
      <trkpt lat="43.71719" lon="3.90939">
        <ele>108</ele>
        <time>2021-03-27T11:09:56Z</time>
      </trkpt>
      <trkpt lat="43.71719" lon="3.90936">
        <ele>106</ele>
        <time>2021-03-27T11:09:57Z</time>
      </trkpt>
      <trkpt lat="43.71719" lon="3.90931">
        <ele>106</ele>
        <time>2021-03-27T11:09:58Z</time>
      </trkpt>
      <trkpt lat="43.71718" lon="3.90925">
        <ele>106</ele>
        <time>2021-03-27T11:10:00Z</time>
      </trkpt>
      <trkpt lat="43.71716" lon="3.90921">
        <ele>106</ele>
        <time>2021-03-27T11:10:02Z</time>
      </trkpt>
      <trkpt lat="43.71708" lon="3.90913">
        <ele>102</ele>
        <time>2021-03-27T11:10:26Z</time>
      </trkpt>
      <trkpt lat="43.71704" lon="3.90908">
        <ele>102</ele>
        <time>2021-03-27T11:10:28Z</time>
      </trkpt>
      <trkpt lat="43.71704" lon="3.90904">
        <ele>102</ele>
        <time>2021-03-27T11:10:29Z</time>
      </trkpt>
      <trkpt lat="43.71704" lon="3.90901">
        <ele>102</ele>
        <time>2021-03-27T11:10:30Z</time>
      </trkpt>
      <trkpt lat="43.71703" lon="3.90896">
        <ele>102</ele>
        <time>2021-03-27T11:10:31Z</time>
      </trkpt>
      <trkpt lat="43.71702" lon="3.90892">
        <ele>102</ele>
        <time>2021-03-27T11:10:32Z</time>
      </trkpt>
      <trkpt lat="43.717" lon="3.90887">
        <ele>102</ele>
        <time>2021-03-27T11:10:33Z</time>
      </trkpt>
      <trkpt lat="43.71699" lon="3.90883">
        <ele>102</ele>
        <time>2021-03-27T11:10:34Z</time>
      </trkpt>
      <trkpt lat="43.71698" lon="3.9088">
        <ele>102</ele>
        <time>2021-03-27T11:10:35Z</time>
      </trkpt>
      <trkpt lat="43.71697" lon="3.90878">
        <ele>101</ele>
        <time>2021-03-27T11:10:36Z</time>
      </trkpt>
      <trkpt lat="43.71697" lon="3.90872">
        <ele>101</ele>
        <time>2021-03-27T11:10:38Z</time>
      </trkpt>
      <trkpt lat="43.71702" lon="3.90869">
        <ele>101</ele>
        <time>2021-03-27T11:10:40Z</time>
      </trkpt>
      <trkpt lat="43.71708" lon="3.90866">
        <ele>101</ele>
        <time>2021-03-27T11:10:42Z</time>
      </trkpt>
      <trkpt lat="43.71714" lon="3.90862">
        <ele>101</ele>
        <time>2021-03-27T11:10:44Z</time>
      </trkpt>
      <trkpt lat="43.7172" lon="3.90859">
        <ele>98</ele>
        <time>2021-03-27T11:10:46Z</time>
      </trkpt>
      <trkpt lat="43.71724" lon="3.9086">
        <ele>98</ele>
        <time>2021-03-27T11:10:47Z</time>
      </trkpt>
      <trkpt lat="43.7173" lon="3.90863">
        <ele>98</ele>
        <time>2021-03-27T11:10:49Z</time>
      </trkpt>
      <trkpt lat="43.71732" lon="3.90863">
        <ele>98</ele>
        <time>2021-03-27T11:10:50Z</time>
      </trkpt>
      <trkpt lat="43.71735" lon="3.90863">
        <ele>98</ele>
        <time>2021-03-27T11:10:51Z</time>
      </trkpt>
      <trkpt lat="43.71738" lon="3.90863">
        <ele>98</ele>
        <time>2021-03-27T11:10:52Z</time>
      </trkpt>
      <trkpt lat="43.71741" lon="3.90864">
        <ele>98</ele>
        <time>2021-03-27T11:10:53Z</time>
      </trkpt>
      <trkpt lat="43.71743" lon="3.90866">
        <ele>98</ele>
        <time>2021-03-27T11:10:54Z</time>
      </trkpt>
      <trkpt lat="43.71745" lon="3.9087">
        <ele>98</ele>
        <time>2021-03-27T11:10:55Z</time>
      </trkpt>
      <trkpt lat="43.71747" lon="3.90874">
        <ele>96</ele>
        <time>2021-03-27T11:10:56Z</time>
      </trkpt>
      <trkpt lat="43.71748" lon="3.90878">
        <ele>96</ele>
        <time>2021-03-27T11:10:57Z</time>
      </trkpt>
      <trkpt lat="43.7175" lon="3.9088">
        <ele>96</ele>
        <time>2021-03-27T11:10:59Z</time>
      </trkpt>
      <trkpt lat="43.71755" lon="3.90882">
        <ele>96</ele>
        <time>2021-03-27T11:11:00Z</time>
      </trkpt>
      <trkpt lat="43.71757" lon="3.90887">
        <ele>96</ele>
        <time>2021-03-27T11:11:02Z</time>
      </trkpt>
      <trkpt lat="43.71759" lon="3.90894">
        <ele>97</ele>
        <time>2021-03-27T11:11:05Z</time>
      </trkpt>
      <trkpt lat="43.7176" lon="3.90896">
        <ele>97</ele>
        <time>2021-03-27T11:11:06Z</time>
      </trkpt>
      <trkpt lat="43.71761" lon="3.90899">
        <ele>97</ele>
        <time>2021-03-27T11:11:07Z</time>
      </trkpt>
      <trkpt lat="43.71762" lon="3.90901">
        <ele>97</ele>
        <time>2021-03-27T11:11:08Z</time>
      </trkpt>
      <trkpt lat="43.71762" lon="3.90903">
        <ele>97</ele>
        <time>2021-03-27T11:11:16Z</time>
      </trkpt>
      <trkpt lat="43.71772" lon="3.90909">
        <ele>100</ele>
        <time>2021-03-27T11:11:52Z</time>
      </trkpt>
      <trkpt lat="43.71774" lon="3.90907">
        <ele>100</ele>
        <time>2021-03-27T11:11:53Z</time>
      </trkpt>
      <trkpt lat="43.71776" lon="3.90905">
        <ele>100</ele>
        <time>2021-03-27T11:11:54Z</time>
      </trkpt>
      <trkpt lat="43.71779" lon="3.90901">
        <ele>100</ele>
        <time>2021-03-27T11:11:55Z</time>
      </trkpt>
      <trkpt lat="43.71786" lon="3.90893">
        <ele>100</ele>
        <time>2021-03-27T11:11:56Z</time>
      </trkpt>
      <trkpt lat="43.7179" lon="3.9089">
        <ele>100</ele>
        <time>2021-03-27T11:11:57Z</time>
      </trkpt>
      <trkpt lat="43.71793" lon="3.90887">
        <ele>100</ele>
        <time>2021-03-27T11:11:58Z</time>
      </trkpt>
      <trkpt lat="43.71796" lon="3.90884">
        <ele>100</ele>
        <time>2021-03-27T11:11:59Z</time>
      </trkpt>
      <trkpt lat="43.71799" lon="3.90881">
        <ele>100</ele>
        <time>2021-03-27T11:12:00Z</time>
      </trkpt>
      <trkpt lat="43.71802" lon="3.90878">
        <ele>98</ele>
        <time>2021-03-27T11:12:01Z</time>
      </trkpt>
      <trkpt lat="43.71806" lon="3.90875">
        <ele>98</ele>
        <time>2021-03-27T11:12:02Z</time>
      </trkpt>
      <trkpt lat="43.71811" lon="3.90873">
        <ele>98</ele>
        <time>2021-03-27T11:12:03Z</time>
      </trkpt>
      <trkpt lat="43.71819" lon="3.90871">
        <ele>98</ele>
        <time>2021-03-27T11:12:05Z</time>
      </trkpt>
      <trkpt lat="43.71822" lon="3.90866">
        <ele>98</ele>
        <time>2021-03-27T11:12:07Z</time>
      </trkpt>
      <trkpt lat="43.71822" lon="3.90862">
        <ele>98</ele>
        <time>2021-03-27T11:12:09Z</time>
      </trkpt>
      <trkpt lat="43.71821" lon="3.90859">
        <ele>98</ele>
        <time>2021-03-27T11:12:10Z</time>
      </trkpt>
      <trkpt lat="43.71821" lon="3.90853">
        <ele>98</ele>
        <time>2021-03-27T11:12:11Z</time>
      </trkpt>
      <trkpt lat="43.7182" lon="3.9085">
        <ele>96</ele>
        <time>2021-03-27T11:12:12Z</time>
      </trkpt>
      <trkpt lat="43.7182" lon="3.90848">
        <ele>96</ele>
        <time>2021-03-27T11:12:13Z</time>
      </trkpt>
      <trkpt lat="43.7182" lon="3.90843">
        <ele>96</ele>
        <time>2021-03-27T11:12:15Z</time>
      </trkpt>
      <trkpt lat="43.71821" lon="3.90839">
        <ele>96</ele>
        <time>2021-03-27T11:12:17Z</time>
      </trkpt>
      <trkpt lat="43.71821" lon="3.90836">
        <ele>96</ele>
        <time>2021-03-27T11:12:18Z</time>
      </trkpt>
      <trkpt lat="43.71822" lon="3.90832">
        <ele>96</ele>
        <time>2021-03-27T11:12:20Z</time>
      </trkpt>
      <trkpt lat="43.71822" lon="3.90829">
        <ele>96</ele>
        <time>2021-03-27T11:12:21Z</time>
      </trkpt>
      <trkpt lat="43.71823" lon="3.90826">
        <ele>95</ele>
        <time>2021-03-27T11:12:22Z</time>
      </trkpt>
      <trkpt lat="43.71823" lon="3.90822">
        <ele>95</ele>
        <time>2021-03-27T11:12:23Z</time>
      </trkpt>
      <trkpt lat="43.71824" lon="3.90819">
        <ele>95</ele>
        <time>2021-03-27T11:12:24Z</time>
      </trkpt>
      <trkpt lat="43.71825" lon="3.90813">
        <ele>95</ele>
        <time>2021-03-27T11:12:26Z</time>
      </trkpt>
      <trkpt lat="43.71826" lon="3.9081">
        <ele>95</ele>
        <time>2021-03-27T11:12:27Z</time>
      </trkpt>
      <trkpt lat="43.71827" lon="3.90804">
        <ele>95</ele>
        <time>2021-03-27T11:12:29Z</time>
      </trkpt>
      <trkpt lat="43.71828" lon="3.90802">
        <ele>95</ele>
        <time>2021-03-27T11:12:30Z</time>
      </trkpt>
      <trkpt lat="43.71829" lon="3.90796">
        <ele>95</ele>
        <time>2021-03-27T11:12:32Z</time>
      </trkpt>
      <trkpt lat="43.7183" lon="3.90793">
        <ele>95</ele>
        <time>2021-03-27T11:12:33Z</time>
      </trkpt>
      <trkpt lat="43.7183" lon="3.9079">
        <ele>95</ele>
        <time>2021-03-27T11:12:34Z</time>
      </trkpt>
      <trkpt lat="43.71831" lon="3.90788">
        <ele>95</ele>
        <time>2021-03-27T11:12:35Z</time>
      </trkpt>
      <trkpt lat="43.71831" lon="3.90785">
        <ele>95</ele>
        <time>2021-03-27T11:12:36Z</time>
      </trkpt>
      <trkpt lat="43.71832" lon="3.90782">
        <ele>95</ele>
        <time>2021-03-27T11:12:37Z</time>
      </trkpt>
      <trkpt lat="43.71833" lon="3.90778">
        <ele>95</ele>
        <time>2021-03-27T11:12:39Z</time>
      </trkpt>
      <trkpt lat="43.71834" lon="3.90774">
        <ele>95</ele>
        <time>2021-03-27T11:12:41Z</time>
      </trkpt>
      <trkpt lat="43.71835" lon="3.90772">
        <ele>95</ele>
        <time>2021-03-27T11:12:42Z</time>
      </trkpt>
      <trkpt lat="43.71836" lon="3.9077">
        <ele>95</ele>
        <time>2021-03-27T11:12:43Z</time>
      </trkpt>
      <trkpt lat="43.71837" lon="3.90765">
        <ele>95</ele>
        <time>2021-03-27T11:12:45Z</time>
      </trkpt>
      <trkpt lat="43.71838" lon="3.90763">
        <ele>95</ele>
        <time>2021-03-27T11:12:46Z</time>
      </trkpt>
      <trkpt lat="43.7184" lon="3.90758">
        <ele>95</ele>
        <time>2021-03-27T11:12:48Z</time>
      </trkpt>
      <trkpt lat="43.7184" lon="3.90755">
        <ele>95</ele>
        <time>2021-03-27T11:12:50Z</time>
      </trkpt>
      <trkpt lat="43.71839" lon="3.9075">
        <ele>95</ele>
        <time>2021-03-27T11:12:51Z</time>
      </trkpt>
      <trkpt lat="43.71838" lon="3.90748">
        <ele>97</ele>
        <time>2021-03-27T11:12:52Z</time>
      </trkpt>
      <trkpt lat="43.71837" lon="3.90744">
        <ele>97</ele>
        <time>2021-03-27T11:12:53Z</time>
      </trkpt>
      <trkpt lat="43.71836" lon="3.90741">
        <ele>97</ele>
        <time>2021-03-27T11:12:54Z</time>
      </trkpt>
      <trkpt lat="43.71834" lon="3.90738">
        <ele>97</ele>
        <time>2021-03-27T11:12:55Z</time>
      </trkpt>
      <trkpt lat="43.71832" lon="3.90734">
        <ele>97</ele>
        <time>2021-03-27T11:12:56Z</time>
      </trkpt>
      <trkpt lat="43.7183" lon="3.90729">
        <ele>97</ele>
        <time>2021-03-27T11:12:57Z</time>
      </trkpt>
      <trkpt lat="43.71827" lon="3.90721">
        <ele>97</ele>
        <time>2021-03-27T11:12:59Z</time>
      </trkpt>
      <trkpt lat="43.71825" lon="3.90718">
        <ele>97</ele>
        <time>2021-03-27T11:13:00Z</time>
      </trkpt>
      <trkpt lat="43.71823" lon="3.90715">
        <ele>95</ele>
        <time>2021-03-27T11:13:01Z</time>
      </trkpt>
      <trkpt lat="43.7182" lon="3.90712">
        <ele>95</ele>
        <time>2021-03-27T11:13:02Z</time>
      </trkpt>
      <trkpt lat="43.71818" lon="3.90709">
        <ele>95</ele>
        <time>2021-03-27T11:13:03Z</time>
      </trkpt>
      <trkpt lat="43.71812" lon="3.90704">
        <ele>95</ele>
        <time>2021-03-27T11:13:05Z</time>
      </trkpt>
      <trkpt lat="43.71806" lon="3.907">
        <ele>95</ele>
        <time>2021-03-27T11:13:07Z</time>
      </trkpt>
      <trkpt lat="43.71799" lon="3.90696">
        <ele>95</ele>
        <time>2021-03-27T11:13:09Z</time>
      </trkpt>
      <trkpt lat="43.71796" lon="3.90694">
        <ele>94</ele>
        <time>2021-03-27T11:13:11Z</time>
      </trkpt>
      <trkpt lat="43.71788" lon="3.90689">
        <ele>94</ele>
        <time>2021-03-27T11:13:12Z</time>
      </trkpt>
      <trkpt lat="43.71785" lon="3.90686">
        <ele>94</ele>
        <time>2021-03-27T11:13:13Z</time>
      </trkpt>
      <trkpt lat="43.71781" lon="3.90684">
        <ele>94</ele>
        <time>2021-03-27T11:13:14Z</time>
      </trkpt>
      <trkpt lat="43.71778" lon="3.90682">
        <ele>94</ele>
        <time>2021-03-27T11:13:15Z</time>
      </trkpt>
      <trkpt lat="43.71774" lon="3.9068">
        <ele>94</ele>
        <time>2021-03-27T11:13:16Z</time>
      </trkpt>
      <trkpt lat="43.71771" lon="3.90678">
        <ele>94</ele>
        <time>2021-03-27T11:13:17Z</time>
      </trkpt>
      <trkpt lat="43.71767" lon="3.90676">
        <ele>94</ele>
        <time>2021-03-27T11:13:18Z</time>
      </trkpt>
      <trkpt lat="43.71763" lon="3.90674">
        <ele>94</ele>
        <time>2021-03-27T11:13:19Z</time>
      </trkpt>
      <trkpt lat="43.7176" lon="3.90673">
        <ele>94</ele>
        <time>2021-03-27T11:13:20Z</time>
      </trkpt>
      <trkpt lat="43.71756" lon="3.90671">
        <ele>94</ele>
        <time>2021-03-27T11:13:21Z</time>
      </trkpt>
      <trkpt lat="43.71752" lon="3.90669">
        <ele>93</ele>
        <time>2021-03-27T11:13:22Z</time>
      </trkpt>
      <trkpt lat="43.71749" lon="3.90668">
        <ele>93</ele>
        <time>2021-03-27T11:13:23Z</time>
      </trkpt>
      <trkpt lat="43.71746" lon="3.90666">
        <ele>93</ele>
        <time>2021-03-27T11:13:24Z</time>
      </trkpt>
      <trkpt lat="43.71742" lon="3.90664">
        <ele>93</ele>
        <time>2021-03-27T11:13:25Z</time>
      </trkpt>
      <trkpt lat="43.71736" lon="3.90661">
        <ele>93</ele>
        <time>2021-03-27T11:13:27Z</time>
      </trkpt>
      <trkpt lat="43.71733" lon="3.9066">
        <ele>93</ele>
        <time>2021-03-27T11:13:28Z</time>
      </trkpt>
      <trkpt lat="43.71727" lon="3.90657">
        <ele>93</ele>
        <time>2021-03-27T11:13:30Z</time>
      </trkpt>
      <trkpt lat="43.7172" lon="3.90654">
        <ele>93</ele>
        <time>2021-03-27T11:13:32Z</time>
      </trkpt>
      <trkpt lat="43.71714" lon="3.90652">
        <ele>93</ele>
        <time>2021-03-27T11:13:34Z</time>
      </trkpt>
      <trkpt lat="43.7171" lon="3.9065">
        <ele>93</ele>
        <time>2021-03-27T11:13:35Z</time>
      </trkpt>
      <trkpt lat="43.71706" lon="3.90649">
        <ele>93</ele>
        <time>2021-03-27T11:13:36Z</time>
      </trkpt>
      <trkpt lat="43.71703" lon="3.90648">
        <ele>93</ele>
        <time>2021-03-27T11:13:37Z</time>
      </trkpt>
      <trkpt lat="43.71699" lon="3.90646">
        <ele>93</ele>
        <time>2021-03-27T11:13:38Z</time>
      </trkpt>
      <trkpt lat="43.71695" lon="3.90645">
        <ele>93</ele>
        <time>2021-03-27T11:13:39Z</time>
      </trkpt>
      <trkpt lat="43.71691" lon="3.90643">
        <ele>93</ele>
        <time>2021-03-27T11:13:40Z</time>
      </trkpt>
      <trkpt lat="43.71684" lon="3.90641">
        <ele>92</ele>
        <time>2021-03-27T11:13:42Z</time>
      </trkpt>
      <trkpt lat="43.71681" lon="3.9064">
        <ele>92</ele>
        <time>2021-03-27T11:13:43Z</time>
      </trkpt>
      <trkpt lat="43.71677" lon="3.9064">
        <ele>92</ele>
        <time>2021-03-27T11:13:44Z</time>
      </trkpt>
      <trkpt lat="43.71674" lon="3.90639">
        <ele>92</ele>
        <time>2021-03-27T11:13:45Z</time>
      </trkpt>
      <trkpt lat="43.7167" lon="3.90638">
        <ele>92</ele>
        <time>2021-03-27T11:13:46Z</time>
      </trkpt>
      <trkpt lat="43.71666" lon="3.90637">
        <ele>92</ele>
        <time>2021-03-27T11:13:47Z</time>
      </trkpt>
      <trkpt lat="43.71659" lon="3.90633">
        <ele>92</ele>
        <time>2021-03-27T11:13:49Z</time>
      </trkpt>
      <trkpt lat="43.71656" lon="3.90632">
        <ele>92</ele>
        <time>2021-03-27T11:13:50Z</time>
      </trkpt>
      <trkpt lat="43.71653" lon="3.90631">
        <ele>91</ele>
        <time>2021-03-27T11:13:51Z</time>
      </trkpt>
      <trkpt lat="43.71649" lon="3.9063">
        <ele>91</ele>
        <time>2021-03-27T11:13:53Z</time>
      </trkpt>
      <trkpt lat="43.71644" lon="3.90627">
        <ele>91</ele>
        <time>2021-03-27T11:13:54Z</time>
      </trkpt>
      <trkpt lat="43.71641" lon="3.90625">
        <ele>91</ele>
        <time>2021-03-27T11:13:55Z</time>
      </trkpt>
      <trkpt lat="43.71638" lon="3.90624">
        <ele>91</ele>
        <time>2021-03-27T11:13:56Z</time>
      </trkpt>
      <trkpt lat="43.71635" lon="3.90624">
        <ele>91</ele>
        <time>2021-03-27T11:13:58Z</time>
      </trkpt>
      <trkpt lat="43.71627" lon="3.90623">
        <ele>91</ele>
        <time>2021-03-27T11:13:59Z</time>
      </trkpt>
      <trkpt lat="43.71623" lon="3.90622">
        <ele>91</ele>
        <time>2021-03-27T11:14:00Z</time>
      </trkpt>
      <trkpt lat="43.71618" lon="3.9062">
        <ele>91</ele>
        <time>2021-03-27T11:14:01Z</time>
      </trkpt>
      <trkpt lat="43.71614" lon="3.90618">
        <ele>91</ele>
        <time>2021-03-27T11:14:02Z</time>
      </trkpt>
      <trkpt lat="43.7161" lon="3.90615">
        <ele>91</ele>
        <time>2021-03-27T11:14:04Z</time>
      </trkpt>
      <trkpt lat="43.71605" lon="3.90612">
        <ele>91</ele>
        <time>2021-03-27T11:14:05Z</time>
      </trkpt>
      <trkpt lat="43.71597" lon="3.90607">
        <ele>91</ele>
        <time>2021-03-27T11:14:06Z</time>
      </trkpt>
      <trkpt lat="43.71593" lon="3.90605">
        <ele>91</ele>
        <time>2021-03-27T11:14:08Z</time>
      </trkpt>
      <trkpt lat="43.71588" lon="3.90604">
        <ele>91</ele>
        <time>2021-03-27T11:14:09Z</time>
      </trkpt>
      <trkpt lat="43.71579" lon="3.90604">
        <ele>91</ele>
        <time>2021-03-27T11:14:10Z</time>
      </trkpt>
      <trkpt lat="43.71571" lon="3.90603">
        <ele>90</ele>
        <time>2021-03-27T11:14:12Z</time>
      </trkpt>
      <trkpt lat="43.71563" lon="3.906">
        <ele>90</ele>
        <time>2021-03-27T11:14:14Z</time>
      </trkpt>
      <trkpt lat="43.71559" lon="3.90599">
        <ele>90</ele>
        <time>2021-03-27T11:14:16Z</time>
      </trkpt>
      <trkpt lat="43.71553" lon="3.90596">
        <ele>90</ele>
        <time>2021-03-27T11:14:17Z</time>
      </trkpt>
      <trkpt lat="43.7155" lon="3.90594">
        <ele>90</ele>
        <time>2021-03-27T11:14:18Z</time>
      </trkpt>
      <trkpt lat="43.71548" lon="3.90592">
        <ele>90</ele>
        <time>2021-03-27T11:14:19Z</time>
      </trkpt>
      <trkpt lat="43.71547" lon="3.9059">
        <ele>90</ele>
        <time>2021-03-27T11:14:20Z</time>
      </trkpt>
      <trkpt lat="43.71546" lon="3.90587">
        <ele>90</ele>
        <time>2021-03-27T11:14:21Z</time>
      </trkpt>
      <trkpt lat="43.71546" lon="3.90584">
        <ele>90</ele>
        <time>2021-03-27T11:14:22Z</time>
      </trkpt>
      <trkpt lat="43.71546" lon="3.90581">
        <ele>90</ele>
        <time>2021-03-27T11:14:25Z</time>
      </trkpt>
      <trkpt lat="43.71546" lon="3.90578">
        <ele>90</ele>
        <time>2021-03-27T11:14:26Z</time>
      </trkpt>
      <trkpt lat="43.71546" lon="3.90573">
        <ele>90</ele>
        <time>2021-03-27T11:14:28Z</time>
      </trkpt>
      <trkpt lat="43.71549" lon="3.9057">
        <ele>90</ele>
        <time>2021-03-27T11:14:30Z</time>
      </trkpt>
      <trkpt lat="43.7155" lon="3.90574">
        <ele>90</ele>
        <time>2021-03-27T11:14:32Z</time>
      </trkpt>
      <trkpt lat="43.7155" lon="3.90577">
        <ele>90</ele>
        <time>2021-03-27T11:14:33Z</time>
      </trkpt>
      <trkpt lat="43.71549" lon="3.90579">
        <ele>90</ele>
        <time>2021-03-27T11:14:34Z</time>
      </trkpt>
      <trkpt lat="43.71548" lon="3.90582">
        <ele>90</ele>
        <time>2021-03-27T11:14:35Z</time>
      </trkpt>
      <trkpt lat="43.71547" lon="3.90585">
        <ele>90</ele>
        <time>2021-03-27T11:14:36Z</time>
      </trkpt>
      <trkpt lat="43.71547" lon="3.90588">
        <ele>90</ele>
        <time>2021-03-27T11:14:37Z</time>
      </trkpt>
      <trkpt lat="43.71547" lon="3.9059">
        <ele>90</ele>
        <time>2021-03-27T11:14:38Z</time>
      </trkpt>
      <trkpt lat="43.71548" lon="3.90593">
        <ele>90</ele>
        <time>2021-03-27T11:14:40Z</time>
      </trkpt>
      <trkpt lat="43.7155" lon="3.90595">
        <ele>90</ele>
        <time>2021-03-27T11:14:45Z</time>
      </trkpt>
      <trkpt lat="43.7154" lon="3.90599">
        <ele>91</ele>
        <time>2021-03-27T11:15:16Z</time>
      </trkpt>
      <trkpt lat="43.71538" lon="3.90597">
        <ele>91</ele>
        <time>2021-03-27T11:15:17Z</time>
      </trkpt>
      <trkpt lat="43.71533" lon="3.90594">
        <ele>91</ele>
        <time>2021-03-27T11:15:18Z</time>
      </trkpt>
      <trkpt lat="43.71531" lon="3.90592">
        <ele>91</ele>
        <time>2021-03-27T11:15:19Z</time>
      </trkpt>
      <trkpt lat="43.71528" lon="3.9059">
        <ele>91</ele>
        <time>2021-03-27T11:15:20Z</time>
      </trkpt>
      <trkpt lat="43.71525" lon="3.90588">
        <ele>91</ele>
        <time>2021-03-27T11:15:21Z</time>
      </trkpt>
      <trkpt lat="43.71519" lon="3.90585">
        <ele>91</ele>
        <time>2021-03-27T11:15:23Z</time>
      </trkpt>
      <trkpt lat="43.71513" lon="3.9058">
        <ele>90</ele>
        <time>2021-03-27T11:15:25Z</time>
      </trkpt>
      <trkpt lat="43.71507" lon="3.90576">
        <ele>90</ele>
        <time>2021-03-27T11:15:27Z</time>
      </trkpt>
      <trkpt lat="43.71504" lon="3.90574">
        <ele>90</ele>
        <time>2021-03-27T11:15:29Z</time>
      </trkpt>
      <trkpt lat="43.71501" lon="3.90572">
        <ele>90</ele>
        <time>2021-03-27T11:15:30Z</time>
      </trkpt>
      <trkpt lat="43.71496" lon="3.90567">
        <ele>90</ele>
        <time>2021-03-27T11:15:31Z</time>
      </trkpt>
      <trkpt lat="43.71494" lon="3.90565">
        <ele>90</ele>
        <time>2021-03-27T11:15:33Z</time>
      </trkpt>
      <trkpt lat="43.71488" lon="3.90559">
        <ele>90</ele>
        <time>2021-03-27T11:15:34Z</time>
      </trkpt>
      <trkpt lat="43.71485" lon="3.90556">
        <ele>89</ele>
        <time>2021-03-27T11:15:36Z</time>
      </trkpt>
      <trkpt lat="43.71479" lon="3.90551">
        <ele>89</ele>
        <time>2021-03-27T11:15:37Z</time>
      </trkpt>
      <trkpt lat="43.71476" lon="3.90549">
        <ele>89</ele>
        <time>2021-03-27T11:15:38Z</time>
      </trkpt>
      <trkpt lat="43.71473" lon="3.90547">
        <ele>89</ele>
        <time>2021-03-27T11:15:39Z</time>
      </trkpt>
      <trkpt lat="43.71469" lon="3.90544">
        <ele>89</ele>
        <time>2021-03-27T11:15:40Z</time>
      </trkpt>
      <trkpt lat="43.71466" lon="3.90542">
        <ele>89</ele>
        <time>2021-03-27T11:15:41Z</time>
      </trkpt>
      <trkpt lat="43.71463" lon="3.9054">
        <ele>89</ele>
        <time>2021-03-27T11:15:42Z</time>
      </trkpt>
      <trkpt lat="43.7146" lon="3.90538">
        <ele>89</ele>
        <time>2021-03-27T11:15:43Z</time>
      </trkpt>
      <trkpt lat="43.71457" lon="3.90535">
        <ele>89</ele>
        <time>2021-03-27T11:15:44Z</time>
      </trkpt>
      <trkpt lat="43.71454" lon="3.90533">
        <ele>90</ele>
        <time>2021-03-27T11:15:45Z</time>
      </trkpt>
      <trkpt lat="43.71448" lon="3.90529">
        <ele>90</ele>
        <time>2021-03-27T11:15:47Z</time>
      </trkpt>
      <trkpt lat="43.71445" lon="3.90527">
        <ele>90</ele>
        <time>2021-03-27T11:15:49Z</time>
      </trkpt>
      <trkpt lat="43.71442" lon="3.90525">
        <ele>90</ele>
        <time>2021-03-27T11:15:50Z</time>
      </trkpt>
      <trkpt lat="43.71439" lon="3.90523">
        <ele>90</ele>
        <time>2021-03-27T11:15:51Z</time>
      </trkpt>
      <trkpt lat="43.71434" lon="3.90518">
        <ele>90</ele>
        <time>2021-03-27T11:15:52Z</time>
      </trkpt>
      <trkpt lat="43.71431" lon="3.90516">
        <ele>90</ele>
        <time>2021-03-27T11:15:53Z</time>
      </trkpt>
      <trkpt lat="43.71429" lon="3.90513">
        <ele>90</ele>
        <time>2021-03-27T11:15:54Z</time>
      </trkpt>
      <trkpt lat="43.71427" lon="3.90509">
        <ele>90</ele>
        <time>2021-03-27T11:15:55Z</time>
      </trkpt>
      <trkpt lat="43.71427" lon="3.90505">
        <ele>91</ele>
        <time>2021-03-27T11:15:56Z</time>
      </trkpt>
      <trkpt lat="43.71427" lon="3.90501">
        <ele>91</ele>
        <time>2021-03-27T11:15:58Z</time>
      </trkpt>
      <trkpt lat="43.71428" lon="3.90497">
        <ele>91</ele>
        <time>2021-03-27T11:15:59Z</time>
      </trkpt>
      <trkpt lat="43.7143" lon="3.90489">
        <ele>91</ele>
        <time>2021-03-27T11:16:00Z</time>
      </trkpt>
      <trkpt lat="43.71433" lon="3.9048">
        <ele>91</ele>
        <time>2021-03-27T11:16:02Z</time>
      </trkpt>
      <trkpt lat="43.71435" lon="3.9047">
        <ele>91</ele>
        <time>2021-03-27T11:16:04Z</time>
      </trkpt>
      <trkpt lat="43.71435" lon="3.90466">
        <ele>91</ele>
        <time>2021-03-27T11:16:05Z</time>
      </trkpt>
      <trkpt lat="43.71436" lon="3.90461">
        <ele>91</ele>
        <time>2021-03-27T11:16:06Z</time>
      </trkpt>
      <trkpt lat="43.71437" lon="3.90456">
        <ele>91</ele>
        <time>2021-03-27T11:16:07Z</time>
      </trkpt>
      <trkpt lat="43.71439" lon="3.90451">
        <ele>91</ele>
        <time>2021-03-27T11:16:08Z</time>
      </trkpt>
      <trkpt lat="43.7144" lon="3.90446">
        <ele>91</ele>
        <time>2021-03-27T11:16:09Z</time>
      </trkpt>
      <trkpt lat="43.71442" lon="3.90441">
        <ele>91</ele>
        <time>2021-03-27T11:16:10Z</time>
      </trkpt>
      <trkpt lat="43.71445" lon="3.90432">
        <ele>91</ele>
        <time>2021-03-27T11:16:12Z</time>
      </trkpt>
      <trkpt lat="43.71447" lon="3.90428">
        <ele>91</ele>
        <time>2021-03-27T11:16:13Z</time>
      </trkpt>
      <trkpt lat="43.71448" lon="3.90423">
        <ele>91</ele>
        <time>2021-03-27T11:16:14Z</time>
      </trkpt>
      <trkpt lat="43.7145" lon="3.90419">
        <ele>91</ele>
        <time>2021-03-27T11:16:15Z</time>
      </trkpt>
      <trkpt lat="43.71451" lon="3.90414">
        <ele>90</ele>
        <time>2021-03-27T11:16:16Z</time>
      </trkpt>
      <trkpt lat="43.71453" lon="3.9041">
        <ele>90</ele>
        <time>2021-03-27T11:16:17Z</time>
      </trkpt>
      <trkpt lat="43.71455" lon="3.90405">
        <ele>90</ele>
        <time>2021-03-27T11:16:18Z</time>
      </trkpt>
      <trkpt lat="43.71456" lon="3.90401">
        <ele>90</ele>
        <time>2021-03-27T11:16:19Z</time>
      </trkpt>
      <trkpt lat="43.71458" lon="3.90396">
        <ele>90</ele>
        <time>2021-03-27T11:16:21Z</time>
      </trkpt>
      <trkpt lat="43.71461" lon="3.90387">
        <ele>90</ele>
        <time>2021-03-27T11:16:22Z</time>
      </trkpt>
      <trkpt lat="43.71463" lon="3.90379">
        <ele>90</ele>
        <time>2021-03-27T11:16:24Z</time>
      </trkpt>
      <trkpt lat="43.71465" lon="3.9037">
        <ele>91</ele>
        <time>2021-03-27T11:16:26Z</time>
      </trkpt>
      <trkpt lat="43.71466" lon="3.90366">
        <ele>91</ele>
        <time>2021-03-27T11:16:27Z</time>
      </trkpt>
      <trkpt lat="43.71468" lon="3.90362">
        <ele>91</ele>
        <time>2021-03-27T11:16:28Z</time>
      </trkpt>
      <trkpt lat="43.71469" lon="3.90358">
        <ele>91</ele>
        <time>2021-03-27T11:16:29Z</time>
      </trkpt>
      <trkpt lat="43.7147" lon="3.90354">
        <ele>91</ele>
        <time>2021-03-27T11:16:30Z</time>
      </trkpt>
      <trkpt lat="43.7147" lon="3.90351">
        <ele>91</ele>
        <time>2021-03-27T11:16:31Z</time>
      </trkpt>
      <trkpt lat="43.71471" lon="3.90347">
        <ele>91</ele>
        <time>2021-03-27T11:16:32Z</time>
      </trkpt>
      <trkpt lat="43.71472" lon="3.90344">
        <ele>91</ele>
        <time>2021-03-27T11:16:33Z</time>
      </trkpt>
      <trkpt lat="43.71473" lon="3.9034">
        <ele>91</ele>
        <time>2021-03-27T11:16:34Z</time>
      </trkpt>
      <trkpt lat="43.71473" lon="3.90337">
        <ele>92</ele>
        <time>2021-03-27T11:16:35Z</time>
      </trkpt>
      <trkpt lat="43.71475" lon="3.90334">
        <ele>92</ele>
        <time>2021-03-27T11:16:36Z</time>
      </trkpt>
      <trkpt lat="43.71476" lon="3.90331">
        <ele>92</ele>
        <time>2021-03-27T11:16:37Z</time>
      </trkpt>
      <trkpt lat="43.71478" lon="3.90329">
        <ele>92</ele>
        <time>2021-03-27T11:16:38Z</time>
      </trkpt>
      <trkpt lat="43.7148" lon="3.90326">
        <ele>92</ele>
        <time>2021-03-27T11:16:39Z</time>
      </trkpt>
      <trkpt lat="43.71483" lon="3.90325">
        <ele>92</ele>
        <time>2021-03-27T11:16:40Z</time>
      </trkpt>
      <trkpt lat="43.71485" lon="3.90323">
        <ele>92</ele>
        <time>2021-03-27T11:16:41Z</time>
      </trkpt>
      <trkpt lat="43.71488" lon="3.90322">
        <ele>92</ele>
        <time>2021-03-27T11:16:42Z</time>
      </trkpt>
      <trkpt lat="43.71492" lon="3.90321">
        <ele>92</ele>
        <time>2021-03-27T11:16:45Z</time>
      </trkpt>
      <trkpt lat="43.71495" lon="3.9032">
        <ele>94</ele>
        <time>2021-03-27T11:16:46Z</time>
      </trkpt>
      <trkpt lat="43.71504" lon="3.90318">
        <ele>94</ele>
        <time>2021-03-27T11:16:48Z</time>
      </trkpt>
      <trkpt lat="43.71508" lon="3.90317">
        <ele>94</ele>
        <time>2021-03-27T11:16:49Z</time>
      </trkpt>
      <trkpt lat="43.71512" lon="3.90316">
        <ele>94</ele>
        <time>2021-03-27T11:16:50Z</time>
      </trkpt>
      <trkpt lat="43.71515" lon="3.90315">
        <ele>94</ele>
        <time>2021-03-27T11:16:51Z</time>
      </trkpt>
      <trkpt lat="43.71519" lon="3.90313">
        <ele>94</ele>
        <time>2021-03-27T11:16:52Z</time>
      </trkpt>
      <trkpt lat="43.71523" lon="3.90311">
        <ele>94</ele>
        <time>2021-03-27T11:16:53Z</time>
      </trkpt>
      <trkpt lat="43.71527" lon="3.90309">
        <ele>94</ele>
        <time>2021-03-27T11:16:54Z</time>
      </trkpt>
      <trkpt lat="43.71536" lon="3.90306">
        <ele>95</ele>
        <time>2021-03-27T11:16:56Z</time>
      </trkpt>
      <trkpt lat="43.7154" lon="3.90303">
        <ele>95</ele>
        <time>2021-03-27T11:16:57Z</time>
      </trkpt>
      <trkpt lat="43.71546" lon="3.90298">
        <ele>95</ele>
        <time>2021-03-27T11:16:59Z</time>
      </trkpt>
      <trkpt lat="43.71549" lon="3.90296">
        <ele>95</ele>
        <time>2021-03-27T11:17:00Z</time>
      </trkpt>
      <trkpt lat="43.71551" lon="3.90293">
        <ele>95</ele>
        <time>2021-03-27T11:17:01Z</time>
      </trkpt>
      <trkpt lat="43.71554" lon="3.9029">
        <ele>95</ele>
        <time>2021-03-27T11:17:02Z</time>
      </trkpt>
      <trkpt lat="43.71557" lon="3.90287">
        <ele>95</ele>
        <time>2021-03-27T11:17:03Z</time>
      </trkpt>
      <trkpt lat="43.71561" lon="3.90284">
        <ele>95</ele>
        <time>2021-03-27T11:17:04Z</time>
      </trkpt>
      <trkpt lat="43.71564" lon="3.90281">
        <ele>95</ele>
        <time>2021-03-27T11:17:05Z</time>
      </trkpt>
      <trkpt lat="43.71566" lon="3.90277">
        <ele>96</ele>
        <time>2021-03-27T11:17:06Z</time>
      </trkpt>
      <trkpt lat="43.71567" lon="3.90273">
        <ele>96</ele>
        <time>2021-03-27T11:17:07Z</time>
      </trkpt>
      <trkpt lat="43.71566" lon="3.90269">
        <ele>96</ele>
        <time>2021-03-27T11:17:08Z</time>
      </trkpt>
      <trkpt lat="43.71566" lon="3.90265">
        <ele>96</ele>
        <time>2021-03-27T11:17:09Z</time>
      </trkpt>
      <trkpt lat="43.71566" lon="3.9026">
        <ele>96</ele>
        <time>2021-03-27T11:17:11Z</time>
      </trkpt>
      <trkpt lat="43.71569" lon="3.90251">
        <ele>96</ele>
        <time>2021-03-27T11:17:12Z</time>
      </trkpt>
      <trkpt lat="43.71571" lon="3.90247">
        <ele>96</ele>
        <time>2021-03-27T11:17:13Z</time>
      </trkpt>
      <trkpt lat="43.71573" lon="3.90243">
        <ele>96</ele>
        <time>2021-03-27T11:17:14Z</time>
      </trkpt>
      <trkpt lat="43.71575" lon="3.90239">
        <ele>97</ele>
        <time>2021-03-27T11:17:15Z</time>
      </trkpt>
      <trkpt lat="43.71577" lon="3.90235">
        <ele>97</ele>
        <time>2021-03-27T11:17:16Z</time>
      </trkpt>
      <trkpt lat="43.71579" lon="3.90231">
        <ele>97</ele>
        <time>2021-03-27T11:17:17Z</time>
      </trkpt>
      <trkpt lat="43.71581" lon="3.90226">
        <ele>97</ele>
        <time>2021-03-27T11:17:18Z</time>
      </trkpt>
      <trkpt lat="43.71583" lon="3.90222">
        <ele>97</ele>
        <time>2021-03-27T11:17:20Z</time>
      </trkpt>
      <trkpt lat="43.71585" lon="3.90218">
        <ele>97</ele>
        <time>2021-03-27T11:17:21Z</time>
      </trkpt>
      <trkpt lat="43.71587" lon="3.9021">
        <ele>97</ele>
        <time>2021-03-27T11:17:22Z</time>
      </trkpt>
      <trkpt lat="43.71589" lon="3.90206">
        <ele>97</ele>
        <time>2021-03-27T11:17:24Z</time>
      </trkpt>
      <trkpt lat="43.7159" lon="3.90199">
        <ele>98</ele>
        <time>2021-03-27T11:17:25Z</time>
      </trkpt>
      <trkpt lat="43.71592" lon="3.90192">
        <ele>98</ele>
        <time>2021-03-27T11:17:27Z</time>
      </trkpt>
      <trkpt lat="43.71593" lon="3.90188">
        <ele>98</ele>
        <time>2021-03-27T11:17:29Z</time>
      </trkpt>
      <trkpt lat="43.71593" lon="3.90184">
        <ele>98</ele>
        <time>2021-03-27T11:17:30Z</time>
      </trkpt>
      <trkpt lat="43.71593" lon="3.9018">
        <ele>98</ele>
        <time>2021-03-27T11:17:31Z</time>
      </trkpt>
      <trkpt lat="43.71594" lon="3.90173">
        <ele>98</ele>
        <time>2021-03-27T11:17:32Z</time>
      </trkpt>
      <trkpt lat="43.71594" lon="3.90165">
        <ele>98</ele>
        <time>2021-03-27T11:17:34Z</time>
      </trkpt>
      <trkpt lat="43.71594" lon="3.90157">
        <ele>98</ele>
        <time>2021-03-27T11:17:36Z</time>
      </trkpt>
      <trkpt lat="43.71593" lon="3.90153">
        <ele>98</ele>
        <time>2021-03-27T11:17:37Z</time>
      </trkpt>
      <trkpt lat="43.71593" lon="3.90149">
        <ele>98</ele>
        <time>2021-03-27T11:17:38Z</time>
      </trkpt>
      <trkpt lat="43.71592" lon="3.90145">
        <ele>98</ele>
        <time>2021-03-27T11:17:39Z</time>
      </trkpt>
      <trkpt lat="43.71591" lon="3.90142">
        <ele>98</ele>
        <time>2021-03-27T11:17:40Z</time>
      </trkpt>
      <trkpt lat="43.71591" lon="3.90139">
        <ele>98</ele>
        <time>2021-03-27T11:17:41Z</time>
      </trkpt>
      <trkpt lat="43.7159" lon="3.90136">
        <ele>98</ele>
        <time>2021-03-27T11:17:42Z</time>
      </trkpt>
      <trkpt lat="43.71588" lon="3.90133">
        <ele>98</ele>
        <time>2021-03-27T11:17:43Z</time>
      </trkpt>
      <trkpt lat="43.71587" lon="3.9013">
        <ele>98</ele>
        <time>2021-03-27T11:17:44Z</time>
      </trkpt>
      <trkpt lat="43.71586" lon="3.90128">
        <ele>98</ele>
        <time>2021-03-27T11:17:45Z</time>
      </trkpt>
      <trkpt lat="43.71584" lon="3.90126">
        <ele>100</ele>
        <time>2021-03-27T11:17:46Z</time>
      </trkpt>
      <trkpt lat="43.71582" lon="3.90124">
        <ele>100</ele>
        <time>2021-03-27T11:17:47Z</time>
      </trkpt>
      <trkpt lat="43.7158" lon="3.90123">
        <ele>100</ele>
        <time>2021-03-27T11:17:49Z</time>
      </trkpt>
      <trkpt lat="43.71576" lon="3.90121">
        <ele>100</ele>
        <time>2021-03-27T11:17:50Z</time>
      </trkpt>
      <trkpt lat="43.71574" lon="3.90121">
        <ele>100</ele>
        <time>2021-03-27T11:17:51Z</time>
      </trkpt>
      <trkpt lat="43.71573" lon="3.9012">
        <ele>100</ele>
        <time>2021-03-27T11:17:52Z</time>
      </trkpt>
      <trkpt lat="43.71569" lon="3.90119">
        <ele>100</ele>
        <time>2021-03-27T11:17:54Z</time>
      </trkpt>
      <trkpt lat="43.71565" lon="3.90118">
        <ele>101</ele>
        <time>2021-03-27T11:17:56Z</time>
      </trkpt>
      <trkpt lat="43.71561" lon="3.90116">
        <ele>101</ele>
        <time>2021-03-27T11:17:58Z</time>
      </trkpt>
      <trkpt lat="43.71559" lon="3.90115">
        <ele>101</ele>
        <time>2021-03-27T11:17:59Z</time>
      </trkpt>
      <trkpt lat="43.71556" lon="3.90113">
        <ele>101</ele>
        <time>2021-03-27T11:18:02Z</time>
      </trkpt>
      <trkpt lat="43.71553" lon="3.90111">
        <ele>101</ele>
        <time>2021-03-27T11:18:03Z</time>
      </trkpt>
      <trkpt lat="43.7155" lon="3.9011">
        <ele>101</ele>
        <time>2021-03-27T11:18:06Z</time>
      </trkpt>
      <trkpt lat="43.71547" lon="3.90108">
        <ele>101</ele>
        <time>2021-03-27T11:18:07Z</time>
      </trkpt>
      <trkpt lat="43.71544" lon="3.90106">
        <ele>101</ele>
        <time>2021-03-27T11:18:09Z</time>
      </trkpt>
      <trkpt lat="43.71541" lon="3.90105">
        <ele>101</ele>
        <time>2021-03-27T11:18:11Z</time>
      </trkpt>
      <trkpt lat="43.71539" lon="3.90103">
        <ele>101</ele>
        <time>2021-03-27T11:18:13Z</time>
      </trkpt>
      <trkpt lat="43.71536" lon="3.90102">
        <ele>106</ele>
        <time>2021-03-27T11:18:15Z</time>
      </trkpt>
      <trkpt lat="43.71533" lon="3.90102">
        <ele>106</ele>
        <time>2021-03-27T11:18:18Z</time>
      </trkpt>
      <trkpt lat="43.71531" lon="3.901">
        <ele>106</ele>
        <time>2021-03-27T11:18:20Z</time>
      </trkpt>
      <trkpt lat="43.71528" lon="3.90098">
        <ele>106</ele>
        <time>2021-03-27T11:18:22Z</time>
      </trkpt>
      <trkpt lat="43.71526" lon="3.90096">
        <ele>106</ele>
        <time>2021-03-27T11:18:24Z</time>
      </trkpt>
      <trkpt lat="43.71524" lon="3.90094">
        <ele>108</ele>
        <time>2021-03-27T11:18:26Z</time>
      </trkpt>
      <trkpt lat="43.71521" lon="3.90094">
        <ele>108</ele>
        <time>2021-03-27T11:18:28Z</time>
      </trkpt>
      <trkpt lat="43.71519" lon="3.90093">
        <ele>108</ele>
        <time>2021-03-27T11:18:29Z</time>
      </trkpt>
      <trkpt lat="43.71517" lon="3.90093">
        <ele>108</ele>
        <time>2021-03-27T11:18:32Z</time>
      </trkpt>
      <trkpt lat="43.71515" lon="3.90095">
        <ele>108</ele>
        <time>2021-03-27T11:18:33Z</time>
      </trkpt>
      <trkpt lat="43.71514" lon="3.90097">
        <ele>110</ele>
        <time>2021-03-27T11:18:36Z</time>
      </trkpt>
      <trkpt lat="43.71514" lon="3.9009">
        <ele>113</ele>
        <time>2021-03-27T11:19:00Z</time>
      </trkpt>
      <trkpt lat="43.71511" lon="3.90089">
        <ele>116</ele>
        <time>2021-03-27T11:19:19Z</time>
      </trkpt>
      <trkpt lat="43.71513" lon="3.90091">
        <ele>116</ele>
        <time>2021-03-27T11:19:23Z</time>
      </trkpt>
      <trkpt lat="43.71517" lon="3.90092">
        <ele>116</ele>
        <time>2021-03-27T11:19:24Z</time>
      </trkpt>
      <trkpt lat="43.71519" lon="3.90093">
        <ele>116</ele>
        <time>2021-03-27T11:19:26Z</time>
      </trkpt>
      <trkpt lat="43.71521" lon="3.90095">
        <ele>114</ele>
        <time>2021-03-27T11:19:27Z</time>
      </trkpt>
      <trkpt lat="43.71525" lon="3.90098">
        <ele>114</ele>
        <time>2021-03-27T11:19:28Z</time>
      </trkpt>
      <trkpt lat="43.71528" lon="3.90099">
        <ele>114</ele>
        <time>2021-03-27T11:19:29Z</time>
      </trkpt>
      <trkpt lat="43.7153" lon="3.901">
        <ele>114</ele>
        <time>2021-03-27T11:19:30Z</time>
      </trkpt>
      <trkpt lat="43.71532" lon="3.90102">
        <ele>114</ele>
        <time>2021-03-27T11:19:31Z</time>
      </trkpt>
      <trkpt lat="43.71535" lon="3.90103">
        <ele>114</ele>
        <time>2021-03-27T11:19:32Z</time>
      </trkpt>
      <trkpt lat="43.71537" lon="3.90105">
        <ele>114</ele>
        <time>2021-03-27T11:19:33Z</time>
      </trkpt>
      <trkpt lat="43.71539" lon="3.90105">
        <ele>114</ele>
        <time>2021-03-27T11:19:34Z</time>
      </trkpt>
      <trkpt lat="43.71544" lon="3.90107">
        <ele>114</ele>
        <time>2021-03-27T11:19:36Z</time>
      </trkpt>
      <trkpt lat="43.71549" lon="3.90111">
        <ele>112</ele>
        <time>2021-03-27T11:19:38Z</time>
      </trkpt>
      <trkpt lat="43.71552" lon="3.90112">
        <ele>112</ele>
        <time>2021-03-27T11:19:39Z</time>
      </trkpt>
      <trkpt lat="43.71555" lon="3.90115">
        <ele>112</ele>
        <time>2021-03-27T11:19:40Z</time>
      </trkpt>
      <trkpt lat="43.71557" lon="3.90116">
        <ele>112</ele>
        <time>2021-03-27T11:19:41Z</time>
      </trkpt>
      <trkpt lat="43.71563" lon="3.90119">
        <ele>111</ele>
        <time>2021-03-27T11:19:43Z</time>
      </trkpt>
      <trkpt lat="43.71564" lon="3.9012">
        <ele>111</ele>
        <time>2021-03-27T11:19:45Z</time>
      </trkpt>
      <trkpt lat="43.71566" lon="3.90121">
        <ele>111</ele>
        <time>2021-03-27T11:19:46Z</time>
      </trkpt>
      <trkpt lat="43.71568" lon="3.90122">
        <ele>110</ele>
        <time>2021-03-27T11:19:47Z</time>
      </trkpt>
      <trkpt lat="43.71571" lon="3.90123">
        <ele>110</ele>
        <time>2021-03-27T11:19:49Z</time>
      </trkpt>
      <trkpt lat="43.71574" lon="3.90123">
        <ele>110</ele>
        <time>2021-03-27T11:19:50Z</time>
      </trkpt>
      <trkpt lat="43.71581" lon="3.90125">
        <ele>110</ele>
        <time>2021-03-27T11:19:51Z</time>
      </trkpt>
      <trkpt lat="43.71585" lon="3.90127">
        <ele>110</ele>
        <time>2021-03-27T11:19:52Z</time>
      </trkpt>
      <trkpt lat="43.71588" lon="3.9013">
        <ele>110</ele>
        <time>2021-03-27T11:19:53Z</time>
      </trkpt>
      <trkpt lat="43.7159" lon="3.90133">
        <ele>110</ele>
        <time>2021-03-27T11:19:54Z</time>
      </trkpt>
      <trkpt lat="43.71591" lon="3.90136">
        <ele>110</ele>
        <time>2021-03-27T11:19:55Z</time>
      </trkpt>
      <trkpt lat="43.71592" lon="3.9014">
        <ele>110</ele>
        <time>2021-03-27T11:19:56Z</time>
      </trkpt>
      <trkpt lat="43.71593" lon="3.90143">
        <ele>110</ele>
        <time>2021-03-27T11:19:57Z</time>
      </trkpt>
      <trkpt lat="43.71594" lon="3.90147">
        <ele>107</ele>
        <time>2021-03-27T11:19:58Z</time>
      </trkpt>
      <trkpt lat="43.71594" lon="3.90151">
        <ele>107</ele>
        <time>2021-03-27T11:19:59Z</time>
      </trkpt>
      <trkpt lat="43.71595" lon="3.90155">
        <ele>107</ele>
        <time>2021-03-27T11:20:00Z</time>
      </trkpt>
      <trkpt lat="43.71595" lon="3.9016">
        <ele>107</ele>
        <time>2021-03-27T11:20:01Z</time>
      </trkpt>
      <trkpt lat="43.71594" lon="3.90165">
        <ele>107</ele>
        <time>2021-03-27T11:20:02Z</time>
      </trkpt>
      <trkpt lat="43.71594" lon="3.9017">
        <ele>107</ele>
        <time>2021-03-27T11:20:03Z</time>
      </trkpt>
      <trkpt lat="43.71593" lon="3.90175">
        <ele>107</ele>
        <time>2021-03-27T11:20:04Z</time>
      </trkpt>
      <trkpt lat="43.71593" lon="3.9018">
        <ele>107</ele>
        <time>2021-03-27T11:20:05Z</time>
      </trkpt>
      <trkpt lat="43.71593" lon="3.90189">
        <ele>105</ele>
        <time>2021-03-27T11:20:07Z</time>
      </trkpt>
      <trkpt lat="43.71592" lon="3.90198">
        <ele>105</ele>
        <time>2021-03-27T11:20:09Z</time>
      </trkpt>
      <trkpt lat="43.71591" lon="3.90206">
        <ele>105</ele>
        <time>2021-03-27T11:20:11Z</time>
      </trkpt>
      <trkpt lat="43.7159" lon="3.90209">
        <ele>105</ele>
        <time>2021-03-27T11:20:13Z</time>
      </trkpt>
      <trkpt lat="43.71589" lon="3.90214">
        <ele>105</ele>
        <time>2021-03-27T11:20:15Z</time>
      </trkpt>
      <trkpt lat="43.71588" lon="3.90217">
        <ele>105</ele>
        <time>2021-03-27T11:20:16Z</time>
      </trkpt>
      <trkpt lat="43.71587" lon="3.90219">
        <ele>105</ele>
        <time>2021-03-27T11:20:17Z</time>
      </trkpt>
      <trkpt lat="43.71586" lon="3.90223">
        <ele>104</ele>
        <time>2021-03-27T11:20:18Z</time>
      </trkpt>
      <trkpt lat="43.71584" lon="3.9023">
        <ele>104</ele>
        <time>2021-03-27T11:20:21Z</time>
      </trkpt>
      <trkpt lat="43.71583" lon="3.90233">
        <ele>104</ele>
        <time>2021-03-27T11:20:22Z</time>
      </trkpt>
      <trkpt lat="43.71581" lon="3.90236">
        <ele>104</ele>
        <time>2021-03-27T11:20:24Z</time>
      </trkpt>
      <trkpt lat="43.71578" lon="3.90242">
        <ele>104</ele>
        <time>2021-03-27T11:20:25Z</time>
      </trkpt>
      <trkpt lat="43.71575" lon="3.90248">
        <ele>104</ele>
        <time>2021-03-27T11:20:27Z</time>
      </trkpt>
      <trkpt lat="43.71572" lon="3.90254">
        <ele>104</ele>
        <time>2021-03-27T11:20:29Z</time>
      </trkpt>
      <trkpt lat="43.7157" lon="3.9026">
        <ele>104</ele>
        <time>2021-03-27T11:20:31Z</time>
      </trkpt>
      <trkpt lat="43.71568" lon="3.90268">
        <ele>104</ele>
        <time>2021-03-27T11:20:33Z</time>
      </trkpt>
      <trkpt lat="43.71567" lon="3.90271">
        <ele>104</ele>
        <time>2021-03-27T11:20:35Z</time>
      </trkpt>
      <trkpt lat="43.71568" lon="3.90277">
        <ele>104</ele>
        <time>2021-03-27T11:20:36Z</time>
      </trkpt>
      <trkpt lat="43.71569" lon="3.9028">
        <ele>102</ele>
        <time>2021-03-27T11:20:38Z</time>
      </trkpt>
      <trkpt lat="43.71571" lon="3.90281">
        <ele>102</ele>
        <time>2021-03-27T11:20:39Z</time>
      </trkpt>
      <trkpt lat="43.71575" lon="3.90278">
        <ele>102</ele>
        <time>2021-03-27T11:20:40Z</time>
      </trkpt>
      <trkpt lat="43.71577" lon="3.90275">
        <ele>102</ele>
        <time>2021-03-27T11:20:42Z</time>
      </trkpt>
      <trkpt lat="43.71581" lon="3.90268">
        <ele>102</ele>
        <time>2021-03-27T11:20:43Z</time>
      </trkpt>
      <trkpt lat="43.71584" lon="3.90261">
        <ele>102</ele>
        <time>2021-03-27T11:20:45Z</time>
      </trkpt>
      <trkpt lat="43.71586" lon="3.90257">
        <ele>102</ele>
        <time>2021-03-27T11:20:46Z</time>
      </trkpt>
      <trkpt lat="43.71588" lon="3.90253">
        <ele>100</ele>
        <time>2021-03-27T11:20:47Z</time>
      </trkpt>
      <trkpt lat="43.71591" lon="3.90244">
        <ele>100</ele>
        <time>2021-03-27T11:20:49Z</time>
      </trkpt>
      <trkpt lat="43.71592" lon="3.90239">
        <ele>100</ele>
        <time>2021-03-27T11:20:50Z</time>
      </trkpt>
      <trkpt lat="43.71594" lon="3.90235">
        <ele>100</ele>
        <time>2021-03-27T11:20:51Z</time>
      </trkpt>
      <trkpt lat="43.71595" lon="3.90231">
        <ele>100</ele>
        <time>2021-03-27T11:20:52Z</time>
      </trkpt>
      <trkpt lat="43.71596" lon="3.90227">
        <ele>100</ele>
        <time>2021-03-27T11:20:53Z</time>
      </trkpt>
      <trkpt lat="43.71597" lon="3.90223">
        <ele>100</ele>
        <time>2021-03-27T11:20:54Z</time>
      </trkpt>
      <trkpt lat="43.71598" lon="3.90218">
        <ele>100</ele>
        <time>2021-03-27T11:20:55Z</time>
      </trkpt>
      <trkpt lat="43.71599" lon="3.90214">
        <ele>100</ele>
        <time>2021-03-27T11:20:56Z</time>
      </trkpt>
      <trkpt lat="43.71601" lon="3.90209">
        <ele>99</ele>
        <time>2021-03-27T11:20:57Z</time>
      </trkpt>
      <trkpt lat="43.71602" lon="3.90205">
        <ele>99</ele>
        <time>2021-03-27T11:20:58Z</time>
      </trkpt>
      <trkpt lat="43.71603" lon="3.902">
        <ele>99</ele>
        <time>2021-03-27T11:20:59Z</time>
      </trkpt>
      <trkpt lat="43.71604" lon="3.90196">
        <ele>99</ele>
        <time>2021-03-27T11:21:00Z</time>
      </trkpt>
      <trkpt lat="43.71605" lon="3.90191">
        <ele>99</ele>
        <time>2021-03-27T11:21:01Z</time>
      </trkpt>
      <trkpt lat="43.71606" lon="3.90187">
        <ele>99</ele>
        <time>2021-03-27T11:21:02Z</time>
      </trkpt>
      <trkpt lat="43.71607" lon="3.90178">
        <ele>99</ele>
        <time>2021-03-27T11:21:04Z</time>
      </trkpt>
      <trkpt lat="43.71608" lon="3.90174">
        <ele>99</ele>
        <time>2021-03-27T11:21:05Z</time>
      </trkpt>
      <trkpt lat="43.71609" lon="3.9017">
        <ele>99</ele>
        <time>2021-03-27T11:21:06Z</time>
      </trkpt>
      <trkpt lat="43.7161" lon="3.90161">
        <ele>99</ele>
        <time>2021-03-27T11:21:08Z</time>
      </trkpt>
      <trkpt lat="43.7161" lon="3.90157">
        <ele>99</ele>
        <time>2021-03-27T11:21:09Z</time>
      </trkpt>
      <trkpt lat="43.7161" lon="3.90152">
        <ele>99</ele>
        <time>2021-03-27T11:21:10Z</time>
      </trkpt>
      <trkpt lat="43.71611" lon="3.90148">
        <ele>99</ele>
        <time>2021-03-27T11:21:11Z</time>
      </trkpt>
      <trkpt lat="43.71611" lon="3.9014">
        <ele>99</ele>
        <time>2021-03-27T11:21:13Z</time>
      </trkpt>
      <trkpt lat="43.71612" lon="3.90137">
        <ele>99</ele>
        <time>2021-03-27T11:21:14Z</time>
      </trkpt>
      <trkpt lat="43.71613" lon="3.90133">
        <ele>99</ele>
        <time>2021-03-27T11:21:15Z</time>
      </trkpt>
      <trkpt lat="43.71614" lon="3.9013">
        <ele>99</ele>
        <time>2021-03-27T11:21:16Z</time>
      </trkpt>
      <trkpt lat="43.71615" lon="3.90126">
        <ele>99</ele>
        <time>2021-03-27T11:21:17Z</time>
      </trkpt>
      <trkpt lat="43.71615" lon="3.90121">
        <ele>99</ele>
        <time>2021-03-27T11:21:18Z</time>
      </trkpt>
      <trkpt lat="43.71617" lon="3.90113">
        <ele>99</ele>
        <time>2021-03-27T11:21:20Z</time>
      </trkpt>
      <trkpt lat="43.71619" lon="3.90105">
        <ele>99</ele>
        <time>2021-03-27T11:21:22Z</time>
      </trkpt>
      <trkpt lat="43.71621" lon="3.90098">
        <ele>99</ele>
        <time>2021-03-27T11:21:24Z</time>
      </trkpt>
      <trkpt lat="43.71623" lon="3.9009">
        <ele>99</ele>
        <time>2021-03-27T11:21:26Z</time>
      </trkpt>
      <trkpt lat="43.71623" lon="3.90085">
        <ele>99</ele>
        <time>2021-03-27T11:21:27Z</time>
      </trkpt>
      <trkpt lat="43.71623" lon="3.90081">
        <ele>99</ele>
        <time>2021-03-27T11:21:28Z</time>
      </trkpt>
      <trkpt lat="43.71623" lon="3.90076">
        <ele>99</ele>
        <time>2021-03-27T11:21:29Z</time>
      </trkpt>
      <trkpt lat="43.71623" lon="3.90071">
        <ele>99</ele>
        <time>2021-03-27T11:21:30Z</time>
      </trkpt>
      <trkpt lat="43.71622" lon="3.90067">
        <ele>99</ele>
        <time>2021-03-27T11:21:31Z</time>
      </trkpt>
      <trkpt lat="43.71621" lon="3.90062">
        <ele>99</ele>
        <time>2021-03-27T11:21:32Z</time>
      </trkpt>
      <trkpt lat="43.7162" lon="3.90058">
        <ele>99</ele>
        <time>2021-03-27T11:21:33Z</time>
      </trkpt>
      <trkpt lat="43.71619" lon="3.90054">
        <ele>99</ele>
        <time>2021-03-27T11:21:34Z</time>
      </trkpt>
      <trkpt lat="43.71618" lon="3.9005">
        <ele>99</ele>
        <time>2021-03-27T11:21:35Z</time>
      </trkpt>
      <trkpt lat="43.71617" lon="3.90046">
        <ele>99</ele>
        <time>2021-03-27T11:21:36Z</time>
      </trkpt>
      <trkpt lat="43.71616" lon="3.90042">
        <ele>100</ele>
        <time>2021-03-27T11:21:37Z</time>
      </trkpt>
      <trkpt lat="43.71615" lon="3.90038">
        <ele>100</ele>
        <time>2021-03-27T11:21:38Z</time>
      </trkpt>
      <trkpt lat="43.71614" lon="3.90034">
        <ele>100</ele>
        <time>2021-03-27T11:21:39Z</time>
      </trkpt>
      <trkpt lat="43.71613" lon="3.90029">
        <ele>100</ele>
        <time>2021-03-27T11:21:40Z</time>
      </trkpt>
      <trkpt lat="43.71612" lon="3.90025">
        <ele>100</ele>
        <time>2021-03-27T11:21:41Z</time>
      </trkpt>
      <trkpt lat="43.7161" lon="3.90021">
        <ele>100</ele>
        <time>2021-03-27T11:21:42Z</time>
      </trkpt>
      <trkpt lat="43.71608" lon="3.90017">
        <ele>100</ele>
        <time>2021-03-27T11:21:43Z</time>
      </trkpt>
      <trkpt lat="43.71607" lon="3.90013">
        <ele>100</ele>
        <time>2021-03-27T11:21:44Z</time>
      </trkpt>
      <trkpt lat="43.71605" lon="3.9001">
        <ele>100</ele>
        <time>2021-03-27T11:21:45Z</time>
      </trkpt>
      <trkpt lat="43.71603" lon="3.90006">
        <ele>100</ele>
        <time>2021-03-27T11:21:46Z</time>
      </trkpt>
      <trkpt lat="43.716" lon="3.89999">
        <ele>100</ele>
        <time>2021-03-27T11:21:48Z</time>
      </trkpt>
      <trkpt lat="43.71598" lon="3.89995">
        <ele>100</ele>
        <time>2021-03-27T11:21:50Z</time>
      </trkpt>
      <trkpt lat="43.71595" lon="3.89988">
        <ele>100</ele>
        <time>2021-03-27T11:21:51Z</time>
      </trkpt>
      <trkpt lat="43.71591" lon="3.89981">
        <ele>100</ele>
        <time>2021-03-27T11:21:53Z</time>
      </trkpt>
      <trkpt lat="43.71588" lon="3.89975">
        <ele>100</ele>
        <time>2021-03-27T11:21:55Z</time>
      </trkpt>
      <trkpt lat="43.71585" lon="3.89968">
        <ele>100</ele>
        <time>2021-03-27T11:21:57Z</time>
      </trkpt>
      <trkpt lat="43.71583" lon="3.89965">
        <ele>101</ele>
        <time>2021-03-27T11:21:58Z</time>
      </trkpt>
      <trkpt lat="43.71581" lon="3.89961">
        <ele>101</ele>
        <time>2021-03-27T11:21:59Z</time>
      </trkpt>
      <trkpt lat="43.71579" lon="3.89958">
        <ele>101</ele>
        <time>2021-03-27T11:22:00Z</time>
      </trkpt>
      <trkpt lat="43.71576" lon="3.89951">
        <ele>101</ele>
        <time>2021-03-27T11:22:02Z</time>
      </trkpt>
      <trkpt lat="43.71574" lon="3.89948">
        <ele>101</ele>
        <time>2021-03-27T11:22:03Z</time>
      </trkpt>
      <trkpt lat="43.71572" lon="3.89945">
        <ele>101</ele>
        <time>2021-03-27T11:22:04Z</time>
      </trkpt>
      <trkpt lat="43.7157" lon="3.89942">
        <ele>101</ele>
        <time>2021-03-27T11:22:05Z</time>
      </trkpt>
      <trkpt lat="43.71568" lon="3.89939">
        <ele>101</ele>
        <time>2021-03-27T11:22:06Z</time>
      </trkpt>
      <trkpt lat="43.71565" lon="3.89933">
        <ele>102</ele>
        <time>2021-03-27T11:22:08Z</time>
      </trkpt>
      <trkpt lat="43.71561" lon="3.89928">
        <ele>102</ele>
        <time>2021-03-27T11:22:10Z</time>
      </trkpt>
      <trkpt lat="43.71558" lon="3.89923">
        <ele>102</ele>
        <time>2021-03-27T11:22:12Z</time>
      </trkpt>
      <trkpt lat="43.71553" lon="3.89918">
        <ele>102</ele>
        <time>2021-03-27T11:22:14Z</time>
      </trkpt>
      <trkpt lat="43.71551" lon="3.89915">
        <ele>102</ele>
        <time>2021-03-27T11:22:15Z</time>
      </trkpt>
      <trkpt lat="43.71549" lon="3.89912">
        <ele>102</ele>
        <time>2021-03-27T11:22:16Z</time>
      </trkpt>
      <trkpt lat="43.71547" lon="3.89909">
        <ele>102</ele>
        <time>2021-03-27T11:22:17Z</time>
      </trkpt>
      <trkpt lat="43.71545" lon="3.89906">
        <ele>102</ele>
        <time>2021-03-27T11:22:18Z</time>
      </trkpt>
      <trkpt lat="43.71544" lon="3.89903">
        <ele>102</ele>
        <time>2021-03-27T11:22:19Z</time>
      </trkpt>
      <trkpt lat="43.71543" lon="3.899">
        <ele>102</ele>
        <time>2021-03-27T11:22:20Z</time>
      </trkpt>
      <trkpt lat="43.7154" lon="3.89894">
        <ele>102</ele>
        <time>2021-03-27T11:22:22Z</time>
      </trkpt>
      <trkpt lat="43.71537" lon="3.89887">
        <ele>102</ele>
        <time>2021-03-27T11:22:24Z</time>
      </trkpt>
      <trkpt lat="43.71534" lon="3.8988">
        <ele>102</ele>
        <time>2021-03-27T11:22:26Z</time>
      </trkpt>
      <trkpt lat="43.71533" lon="3.89876">
        <ele>102</ele>
        <time>2021-03-27T11:22:28Z</time>
      </trkpt>
      <trkpt lat="43.71532" lon="3.89869">
        <ele>102</ele>
        <time>2021-03-27T11:22:29Z</time>
      </trkpt>
      <trkpt lat="43.71531" lon="3.89865">
        <ele>102</ele>
        <time>2021-03-27T11:22:30Z</time>
      </trkpt>
      <trkpt lat="43.7153" lon="3.89861">
        <ele>102</ele>
        <time>2021-03-27T11:22:31Z</time>
      </trkpt>
      <trkpt lat="43.7153" lon="3.89857">
        <ele>102</ele>
        <time>2021-03-27T11:22:32Z</time>
      </trkpt>
      <trkpt lat="43.71529" lon="3.89853">
        <ele>102</ele>
        <time>2021-03-27T11:22:33Z</time>
      </trkpt>
      <trkpt lat="43.71528" lon="3.8985">
        <ele>102</ele>
        <time>2021-03-27T11:22:34Z</time>
      </trkpt>
      <trkpt lat="43.71527" lon="3.89846">
        <ele>102</ele>
        <time>2021-03-27T11:22:35Z</time>
      </trkpt>
      <trkpt lat="43.71527" lon="3.89842">
        <ele>102</ele>
        <time>2021-03-27T11:22:36Z</time>
      </trkpt>
      <trkpt lat="43.71526" lon="3.89838">
        <ele>104</ele>
        <time>2021-03-27T11:22:37Z</time>
      </trkpt>
      <trkpt lat="43.71525" lon="3.89834">
        <ele>104</ele>
        <time>2021-03-27T11:22:38Z</time>
      </trkpt>
      <trkpt lat="43.71524" lon="3.89831">
        <ele>104</ele>
        <time>2021-03-27T11:22:39Z</time>
      </trkpt>
      <trkpt lat="43.71523" lon="3.89827">
        <ele>104</ele>
        <time>2021-03-27T11:22:40Z</time>
      </trkpt>
      <trkpt lat="43.71521" lon="3.89823">
        <ele>104</ele>
        <time>2021-03-27T11:22:41Z</time>
      </trkpt>
      <trkpt lat="43.71519" lon="3.89816">
        <ele>104</ele>
        <time>2021-03-27T11:22:43Z</time>
      </trkpt>
      <trkpt lat="43.71518" lon="3.89812">
        <ele>104</ele>
        <time>2021-03-27T11:22:44Z</time>
      </trkpt>
      <trkpt lat="43.71517" lon="3.89809">
        <ele>104</ele>
        <time>2021-03-27T11:22:45Z</time>
      </trkpt>
      <trkpt lat="43.71516" lon="3.89805">
        <ele>104</ele>
        <time>2021-03-27T11:22:46Z</time>
      </trkpt>
      <trkpt lat="43.71515" lon="3.89802">
        <ele>104</ele>
        <time>2021-03-27T11:22:47Z</time>
      </trkpt>
      <trkpt lat="43.71514" lon="3.89798">
        <ele>105</ele>
        <time>2021-03-27T11:22:48Z</time>
      </trkpt>
      <trkpt lat="43.71513" lon="3.89794">
        <ele>105</ele>
        <time>2021-03-27T11:22:49Z</time>
      </trkpt>
      <trkpt lat="43.71512" lon="3.89791">
        <ele>105</ele>
        <time>2021-03-27T11:22:50Z</time>
      </trkpt>
      <trkpt lat="43.71509" lon="3.89784">
        <ele>105</ele>
        <time>2021-03-27T11:22:52Z</time>
      </trkpt>
      <trkpt lat="43.71508" lon="3.8978">
        <ele>105</ele>
        <time>2021-03-27T11:22:53Z</time>
      </trkpt>
      <trkpt lat="43.71507" lon="3.89777">
        <ele>105</ele>
        <time>2021-03-27T11:22:54Z</time>
      </trkpt>
      <trkpt lat="43.71506" lon="3.89773">
        <ele>105</ele>
        <time>2021-03-27T11:22:55Z</time>
      </trkpt>
      <trkpt lat="43.71505" lon="3.8977">
        <ele>105</ele>
        <time>2021-03-27T11:22:56Z</time>
      </trkpt>
      <trkpt lat="43.71503" lon="3.89766">
        <ele>106</ele>
        <time>2021-03-27T11:22:58Z</time>
      </trkpt>
      <trkpt lat="43.71502" lon="3.89762">
        <ele>106</ele>
        <time>2021-03-27T11:22:59Z</time>
      </trkpt>
      <trkpt lat="43.71501" lon="3.89759">
        <ele>106</ele>
        <time>2021-03-27T11:23:00Z</time>
      </trkpt>
      <trkpt lat="43.71499" lon="3.89755">
        <ele>106</ele>
        <time>2021-03-27T11:23:01Z</time>
      </trkpt>
      <trkpt lat="43.71498" lon="3.89751">
        <ele>106</ele>
        <time>2021-03-27T11:23:02Z</time>
      </trkpt>
      <trkpt lat="43.71497" lon="3.89748">
        <ele>106</ele>
        <time>2021-03-27T11:23:03Z</time>
      </trkpt>
      <trkpt lat="43.71496" lon="3.89744">
        <ele>106</ele>
        <time>2021-03-27T11:23:04Z</time>
      </trkpt>
      <trkpt lat="43.71496" lon="3.8974">
        <ele>106</ele>
        <time>2021-03-27T11:23:05Z</time>
      </trkpt>
      <trkpt lat="43.71496" lon="3.89737">
        <ele>106</ele>
        <time>2021-03-27T11:23:06Z</time>
      </trkpt>
      <trkpt lat="43.71496" lon="3.89734">
        <ele>107</ele>
        <time>2021-03-27T11:23:07Z</time>
      </trkpt>
      <trkpt lat="43.71497" lon="3.8973">
        <ele>107</ele>
        <time>2021-03-27T11:23:09Z</time>
      </trkpt>
      <trkpt lat="43.715" lon="3.89727">
        <ele>107</ele>
        <time>2021-03-27T11:23:10Z</time>
      </trkpt>
      <trkpt lat="43.71506" lon="3.89724">
        <ele>107</ele>
        <time>2021-03-27T11:23:12Z</time>
      </trkpt>
      <trkpt lat="43.71508" lon="3.89723">
        <ele>107</ele>
        <time>2021-03-27T11:23:13Z</time>
      </trkpt>
      <trkpt lat="43.71511" lon="3.89722">
        <ele>107</ele>
        <time>2021-03-27T11:23:14Z</time>
      </trkpt>
      <trkpt lat="43.71513" lon="3.89721">
        <ele>107</ele>
        <time>2021-03-27T11:23:15Z</time>
      </trkpt>
      <trkpt lat="43.71515" lon="3.8972">
        <ele>107</ele>
        <time>2021-03-27T11:23:16Z</time>
      </trkpt>
      <trkpt lat="43.71518" lon="3.89719">
        <ele>106</ele>
        <time>2021-03-27T11:23:17Z</time>
      </trkpt>
      <trkpt lat="43.71524" lon="3.89718">
        <ele>106</ele>
        <time>2021-03-27T11:23:19Z</time>
      </trkpt>
      <trkpt lat="43.71527" lon="3.89717">
        <ele>106</ele>
        <time>2021-03-27T11:23:20Z</time>
      </trkpt>
      <trkpt lat="43.71531" lon="3.89716">
        <ele>106</ele>
        <time>2021-03-27T11:23:21Z</time>
      </trkpt>
      <trkpt lat="43.71534" lon="3.89715">
        <ele>106</ele>
        <time>2021-03-27T11:23:22Z</time>
      </trkpt>
      <trkpt lat="43.71538" lon="3.89714">
        <ele>106</ele>
        <time>2021-03-27T11:23:23Z</time>
      </trkpt>
      <trkpt lat="43.71541" lon="3.89713">
        <ele>106</ele>
        <time>2021-03-27T11:23:24Z</time>
      </trkpt>
      <trkpt lat="43.71548" lon="3.8971">
        <ele>106</ele>
        <time>2021-03-27T11:23:26Z</time>
      </trkpt>
      <trkpt lat="43.71555" lon="3.89708">
        <ele>105</ele>
        <time>2021-03-27T11:23:28Z</time>
      </trkpt>
      <trkpt lat="43.71562" lon="3.89706">
        <ele>105</ele>
        <time>2021-03-27T11:23:30Z</time>
      </trkpt>
      <trkpt lat="43.71565" lon="3.89705">
        <ele>105</ele>
        <time>2021-03-27T11:23:32Z</time>
      </trkpt>
      <trkpt lat="43.71573" lon="3.89703">
        <ele>105</ele>
        <time>2021-03-27T11:23:33Z</time>
      </trkpt>
      <trkpt lat="43.71577" lon="3.89702">
        <ele>105</ele>
        <time>2021-03-27T11:23:34Z</time>
      </trkpt>
      <trkpt lat="43.71581" lon="3.89701">
        <ele>105</ele>
        <time>2021-03-27T11:23:35Z</time>
      </trkpt>
      <trkpt lat="43.71585" lon="3.897">
        <ele>105</ele>
        <time>2021-03-27T11:23:36Z</time>
      </trkpt>
      <trkpt lat="43.71589" lon="3.89698">
        <ele>105</ele>
        <time>2021-03-27T11:23:37Z</time>
      </trkpt>
      <trkpt lat="43.71593" lon="3.89697">
        <ele>105</ele>
        <time>2021-03-27T11:23:38Z</time>
      </trkpt>
      <trkpt lat="43.71597" lon="3.89696">
        <ele>105</ele>
        <time>2021-03-27T11:23:39Z</time>
      </trkpt>
      <trkpt lat="43.71601" lon="3.89695">
        <ele>105</ele>
        <time>2021-03-27T11:23:40Z</time>
      </trkpt>
      <trkpt lat="43.71605" lon="3.89693">
        <ele>105</ele>
        <time>2021-03-27T11:23:41Z</time>
      </trkpt>
      <trkpt lat="43.71609" lon="3.89692">
        <ele>105</ele>
        <time>2021-03-27T11:23:43Z</time>
      </trkpt>
      <trkpt lat="43.71613" lon="3.89691">
        <ele>105</ele>
        <time>2021-03-27T11:23:44Z</time>
      </trkpt>
      <trkpt lat="43.71618" lon="3.8969">
        <ele>105</ele>
        <time>2021-03-27T11:23:45Z</time>
      </trkpt>
      <trkpt lat="43.71622" lon="3.89688">
        <ele>105</ele>
        <time>2021-03-27T11:23:46Z</time>
      </trkpt>
      <trkpt lat="43.71626" lon="3.89687">
        <ele>105</ele>
        <time>2021-03-27T11:23:47Z</time>
      </trkpt>
      <trkpt lat="43.71635" lon="3.89684">
        <ele>105</ele>
        <time>2021-03-27T11:23:48Z</time>
      </trkpt>
      <trkpt lat="43.7164" lon="3.89683">
        <ele>105</ele>
        <time>2021-03-27T11:23:49Z</time>
      </trkpt>
      <trkpt lat="43.71644" lon="3.89682">
        <ele>105</ele>
        <time>2021-03-27T11:23:50Z</time>
      </trkpt>
      <trkpt lat="43.71649" lon="3.89681">
        <ele>105</ele>
        <time>2021-03-27T11:23:51Z</time>
      </trkpt>
      <trkpt lat="43.71653" lon="3.89679">
        <ele>105</ele>
        <time>2021-03-27T11:23:52Z</time>
      </trkpt>
      <trkpt lat="43.71658" lon="3.89678">
        <ele>105</ele>
        <time>2021-03-27T11:23:53Z</time>
      </trkpt>
      <trkpt lat="43.71662" lon="3.89676">
        <ele>105</ele>
        <time>2021-03-27T11:23:54Z</time>
      </trkpt>
      <trkpt lat="43.71667" lon="3.89675">
        <ele>105</ele>
        <time>2021-03-27T11:23:55Z</time>
      </trkpt>
      <trkpt lat="43.71672" lon="3.89674">
        <ele>105</ele>
        <time>2021-03-27T11:23:56Z</time>
      </trkpt>
      <trkpt lat="43.71676" lon="3.89672">
        <ele>105</ele>
        <time>2021-03-27T11:23:58Z</time>
      </trkpt>
      <trkpt lat="43.71681" lon="3.89671">
        <ele>105</ele>
        <time>2021-03-27T11:23:59Z</time>
      </trkpt>
      <trkpt lat="43.71685" lon="3.89669">
        <ele>105</ele>
        <time>2021-03-27T11:24:00Z</time>
      </trkpt>
      <trkpt lat="43.71694" lon="3.89666">
        <ele>105</ele>
        <time>2021-03-27T11:24:01Z</time>
      </trkpt>
      <trkpt lat="43.71699" lon="3.89665">
        <ele>105</ele>
        <time>2021-03-27T11:24:03Z</time>
      </trkpt>
      <trkpt lat="43.71703" lon="3.89664">
        <ele>105</ele>
        <time>2021-03-27T11:24:04Z</time>
      </trkpt>
      <trkpt lat="43.71708" lon="3.89662">
        <ele>105</ele>
        <time>2021-03-27T11:24:05Z</time>
      </trkpt>
      <trkpt lat="43.71713" lon="3.89661">
        <ele>105</ele>
        <time>2021-03-27T11:24:06Z</time>
      </trkpt>
      <trkpt lat="43.71717" lon="3.89659">
        <ele>105</ele>
        <time>2021-03-27T11:24:07Z</time>
      </trkpt>
      <trkpt lat="43.71726" lon="3.89657">
        <ele>104</ele>
        <time>2021-03-27T11:24:08Z</time>
      </trkpt>
      <trkpt lat="43.7173" lon="3.89656">
        <ele>104</ele>
        <time>2021-03-27T11:24:09Z</time>
      </trkpt>
      <trkpt lat="43.71735" lon="3.89655">
        <ele>104</ele>
        <time>2021-03-27T11:24:10Z</time>
      </trkpt>
      <trkpt lat="43.71739" lon="3.89654">
        <ele>104</ele>
        <time>2021-03-27T11:24:11Z</time>
      </trkpt>
      <trkpt lat="43.71743" lon="3.89652">
        <ele>104</ele>
        <time>2021-03-27T11:24:12Z</time>
      </trkpt>
      <trkpt lat="43.71752" lon="3.8965">
        <ele>104</ele>
        <time>2021-03-27T11:24:14Z</time>
      </trkpt>
      <trkpt lat="43.71756" lon="3.89648">
        <ele>104</ele>
        <time>2021-03-27T11:24:15Z</time>
      </trkpt>
      <trkpt lat="43.7176" lon="3.89646">
        <ele>104</ele>
        <time>2021-03-27T11:24:16Z</time>
      </trkpt>
      <trkpt lat="43.71768" lon="3.89643">
        <ele>104</ele>
        <time>2021-03-27T11:24:18Z</time>
      </trkpt>
      <trkpt lat="43.71776" lon="3.89639">
        <ele>104</ele>
        <time>2021-03-27T11:24:20Z</time>
      </trkpt>
      <trkpt lat="43.71781" lon="3.89637">
        <ele>104</ele>
        <time>2021-03-27T11:24:22Z</time>
      </trkpt>
      <trkpt lat="43.71789" lon="3.89634">
        <ele>104</ele>
        <time>2021-03-27T11:24:23Z</time>
      </trkpt>
      <trkpt lat="43.71797" lon="3.8963">
        <ele>104</ele>
        <time>2021-03-27T11:24:25Z</time>
      </trkpt>
      <trkpt lat="43.71805" lon="3.89626">
        <ele>104</ele>
        <time>2021-03-27T11:24:27Z</time>
      </trkpt>
      <trkpt lat="43.7181" lon="3.89624">
        <ele>104</ele>
        <time>2021-03-27T11:24:28Z</time>
      </trkpt>
      <trkpt lat="43.71814" lon="3.89623">
        <ele>104</ele>
        <time>2021-03-27T11:24:29Z</time>
      </trkpt>
      <trkpt lat="43.71818" lon="3.89621">
        <ele>104</ele>
        <time>2021-03-27T11:24:30Z</time>
      </trkpt>
      <trkpt lat="43.71822" lon="3.89619">
        <ele>104</ele>
        <time>2021-03-27T11:24:31Z</time>
      </trkpt>
      <trkpt lat="43.71826" lon="3.89617">
        <ele>104</ele>
        <time>2021-03-27T11:24:32Z</time>
      </trkpt>
      <trkpt lat="43.7183" lon="3.89615">
        <ele>104</ele>
        <time>2021-03-27T11:24:33Z</time>
      </trkpt>
      <trkpt lat="43.71834" lon="3.89614">
        <ele>104</ele>
        <time>2021-03-27T11:24:34Z</time>
      </trkpt>
      <trkpt lat="43.71838" lon="3.89611">
        <ele>104</ele>
        <time>2021-03-27T11:24:35Z</time>
      </trkpt>
      <trkpt lat="43.71842" lon="3.8961">
        <ele>104</ele>
        <time>2021-03-27T11:24:36Z</time>
      </trkpt>
      <trkpt lat="43.71845" lon="3.89608">
        <ele>104</ele>
        <time>2021-03-27T11:24:37Z</time>
      </trkpt>
      <trkpt lat="43.71849" lon="3.89606">
        <ele>104</ele>
        <time>2021-03-27T11:24:38Z</time>
      </trkpt>
      <trkpt lat="43.71853" lon="3.89605">
        <ele>104</ele>
        <time>2021-03-27T11:24:39Z</time>
      </trkpt>
      <trkpt lat="43.71856" lon="3.89603">
        <ele>104</ele>
        <time>2021-03-27T11:24:40Z</time>
      </trkpt>
      <trkpt lat="43.7186" lon="3.89602">
        <ele>104</ele>
        <time>2021-03-27T11:24:42Z</time>
      </trkpt>
      <trkpt lat="43.71867" lon="3.89599">
        <ele>104</ele>
        <time>2021-03-27T11:24:43Z</time>
      </trkpt>
      <trkpt lat="43.71869" lon="3.89597">
        <ele>104</ele>
        <time>2021-03-27T11:24:44Z</time>
      </trkpt>
      <trkpt lat="43.71872" lon="3.89594">
        <ele>104</ele>
        <time>2021-03-27T11:24:46Z</time>
      </trkpt>
      <trkpt lat="43.71877" lon="3.89589">
        <ele>105</ele>
        <time>2021-03-27T11:24:47Z</time>
      </trkpt>
      <trkpt lat="43.71882" lon="3.89584">
        <ele>105</ele>
        <time>2021-03-27T11:24:49Z</time>
      </trkpt>
      <trkpt lat="43.71885" lon="3.89582">
        <ele>105</ele>
        <time>2021-03-27T11:24:51Z</time>
      </trkpt>
      <trkpt lat="43.71891" lon="3.89577">
        <ele>105</ele>
        <time>2021-03-27T11:24:52Z</time>
      </trkpt>
      <trkpt lat="43.71894" lon="3.89575">
        <ele>105</ele>
        <time>2021-03-27T11:24:53Z</time>
      </trkpt>
      <trkpt lat="43.719" lon="3.89571">
        <ele>105</ele>
        <time>2021-03-27T11:24:55Z</time>
      </trkpt>
      <trkpt lat="43.71903" lon="3.89569">
        <ele>105</ele>
        <time>2021-03-27T11:24:56Z</time>
      </trkpt>
      <trkpt lat="43.71906" lon="3.89567">
        <ele>105</ele>
        <time>2021-03-27T11:24:57Z</time>
      </trkpt>
      <trkpt lat="43.71909" lon="3.89564">
        <ele>105</ele>
        <time>2021-03-27T11:24:59Z</time>
      </trkpt>
      <trkpt lat="43.71913" lon="3.89562">
        <ele>105</ele>
        <time>2021-03-27T11:25:00Z</time>
      </trkpt>
      <trkpt lat="43.71919" lon="3.89558">
        <ele>105</ele>
        <time>2021-03-27T11:25:01Z</time>
      </trkpt>
      <trkpt lat="43.71924" lon="3.89553">
        <ele>105</ele>
        <time>2021-03-27T11:25:03Z</time>
      </trkpt>
      <trkpt lat="43.71926" lon="3.89549">
        <ele>105</ele>
        <time>2021-03-27T11:25:05Z</time>
      </trkpt>
      <trkpt lat="43.71927" lon="3.89545">
        <ele>105</ele>
        <time>2021-03-27T11:25:06Z</time>
      </trkpt>
      <trkpt lat="43.71928" lon="3.8954">
        <ele>105</ele>
        <time>2021-03-27T11:25:07Z</time>
      </trkpt>
      <trkpt lat="43.71929" lon="3.8953">
        <ele>105</ele>
        <time>2021-03-27T11:25:08Z</time>
      </trkpt>
      <trkpt lat="43.71929" lon="3.8952">
        <ele>105</ele>
        <time>2021-03-27T11:25:10Z</time>
      </trkpt>
      <trkpt lat="43.71931" lon="3.8951">
        <ele>105</ele>
        <time>2021-03-27T11:25:12Z</time>
      </trkpt>
      <trkpt lat="43.71933" lon="3.89505">
        <ele>105</ele>
        <time>2021-03-27T11:25:14Z</time>
      </trkpt>
      <trkpt lat="43.71939" lon="3.89497">
        <ele>105</ele>
        <time>2021-03-27T11:25:15Z</time>
      </trkpt>
      <trkpt lat="43.71941" lon="3.89493">
        <ele>105</ele>
        <time>2021-03-27T11:25:16Z</time>
      </trkpt>
      <trkpt lat="43.71944" lon="3.89489">
        <ele>104</ele>
        <time>2021-03-27T11:25:17Z</time>
      </trkpt>
      <trkpt lat="43.71947" lon="3.89485">
        <ele>104</ele>
        <time>2021-03-27T11:25:19Z</time>
      </trkpt>
      <trkpt lat="43.71954" lon="3.89477">
        <ele>104</ele>
        <time>2021-03-27T11:25:20Z</time>
      </trkpt>
      <trkpt lat="43.71957" lon="3.89473">
        <ele>104</ele>
        <time>2021-03-27T11:25:22Z</time>
      </trkpt>
      <trkpt lat="43.71965" lon="3.89466">
        <ele>104</ele>
        <time>2021-03-27T11:25:23Z</time>
      </trkpt>
      <trkpt lat="43.71969" lon="3.89463">
        <ele>104</ele>
        <time>2021-03-27T11:25:24Z</time>
      </trkpt>
      <trkpt lat="43.71973" lon="3.8946">
        <ele>104</ele>
        <time>2021-03-27T11:25:25Z</time>
      </trkpt>
      <trkpt lat="43.71976" lon="3.89458">
        <ele>104</ele>
        <time>2021-03-27T11:25:26Z</time>
      </trkpt>
      <trkpt lat="43.7198" lon="3.89455">
        <ele>104</ele>
        <time>2021-03-27T11:25:27Z</time>
      </trkpt>
      <trkpt lat="43.71984" lon="3.89453">
        <ele>104</ele>
        <time>2021-03-27T11:25:28Z</time>
      </trkpt>
      <trkpt lat="43.71992" lon="3.89448">
        <ele>104</ele>
        <time>2021-03-27T11:25:30Z</time>
      </trkpt>
      <trkpt lat="43.71996" lon="3.89445">
        <ele>104</ele>
        <time>2021-03-27T11:25:31Z</time>
      </trkpt>
      <trkpt lat="43.71999" lon="3.89443">
        <ele>104</ele>
        <time>2021-03-27T11:25:32Z</time>
      </trkpt>
      <trkpt lat="43.72003" lon="3.89441">
        <ele>104</ele>
        <time>2021-03-27T11:25:33Z</time>
      </trkpt>
      <trkpt lat="43.72007" lon="3.89438">
        <ele>104</ele>
        <time>2021-03-27T11:25:34Z</time>
      </trkpt>
      <trkpt lat="43.72015" lon="3.89434">
        <ele>104</ele>
        <time>2021-03-27T11:25:36Z</time>
      </trkpt>
      <trkpt lat="43.72018" lon="3.89431">
        <ele>104</ele>
        <time>2021-03-27T11:25:38Z</time>
      </trkpt>
      <trkpt lat="43.7202" lon="3.89426">
        <ele>104</ele>
        <time>2021-03-27T11:25:39Z</time>
      </trkpt>
      <trkpt lat="43.72022" lon="3.8942">
        <ele>104</ele>
        <time>2021-03-27T11:25:40Z</time>
      </trkpt>
      <trkpt lat="43.72022" lon="3.89416">
        <ele>104</ele>
        <time>2021-03-27T11:25:43Z</time>
      </trkpt>
      <trkpt lat="43.72024" lon="3.89415">
        <ele>104</ele>
        <time>2021-03-27T11:25:44Z</time>
      </trkpt>
      <trkpt lat="43.72026" lon="3.89416">
        <ele>104</ele>
        <time>2021-03-27T11:25:45Z</time>
      </trkpt>
      <trkpt lat="43.72028" lon="3.89417">
        <ele>104</ele>
        <time>2021-03-27T11:25:46Z</time>
      </trkpt>
      <trkpt lat="43.7203" lon="3.89417">
        <ele>104</ele>
        <time>2021-03-27T11:25:47Z</time>
      </trkpt>
      <trkpt lat="43.72032" lon="3.89418">
        <ele>104</ele>
        <time>2021-03-27T11:25:48Z</time>
      </trkpt>
      <trkpt lat="43.72034" lon="3.89418">
        <ele>104</ele>
        <time>2021-03-27T11:25:49Z</time>
      </trkpt>
      <trkpt lat="43.72036" lon="3.89419">
        <ele>104</ele>
        <time>2021-03-27T11:25:50Z</time>
      </trkpt>
      <trkpt lat="43.72039" lon="3.8942">
        <ele>104</ele>
        <time>2021-03-27T11:25:51Z</time>
      </trkpt>
      <trkpt lat="43.72044" lon="3.89422">
        <ele>104</ele>
        <time>2021-03-27T11:25:53Z</time>
      </trkpt>
      <trkpt lat="43.72049" lon="3.89424">
        <ele>104</ele>
        <time>2021-03-27T11:25:55Z</time>
      </trkpt>
      <trkpt lat="43.72052" lon="3.89425">
        <ele>104</ele>
        <time>2021-03-27T11:25:57Z</time>
      </trkpt>
      <trkpt lat="43.72058" lon="3.89426">
        <ele>104</ele>
        <time>2021-03-27T11:25:58Z</time>
      </trkpt>
      <trkpt lat="43.7206" lon="3.89426">
        <ele>104</ele>
        <time>2021-03-27T11:25:59Z</time>
      </trkpt>
      <trkpt lat="43.72063" lon="3.89427">
        <ele>104</ele>
        <time>2021-03-27T11:26:00Z</time>
      </trkpt>
      <trkpt lat="43.72065" lon="3.89428">
        <ele>104</ele>
        <time>2021-03-27T11:26:01Z</time>
      </trkpt>
      <trkpt lat="43.72067" lon="3.89429">
        <ele>104</ele>
        <time>2021-03-27T11:26:02Z</time>
      </trkpt>
      <trkpt lat="43.72069" lon="3.89431">
        <ele>104</ele>
        <time>2021-03-27T11:26:03Z</time>
      </trkpt>
      <trkpt lat="43.72071" lon="3.89433">
        <ele>104</ele>
        <time>2021-03-27T11:26:04Z</time>
      </trkpt>
      <trkpt lat="43.72073" lon="3.89436">
        <ele>104</ele>
        <time>2021-03-27T11:26:05Z</time>
      </trkpt>
      <trkpt lat="43.72074" lon="3.89438">
        <ele>104</ele>
        <time>2021-03-27T11:26:06Z</time>
      </trkpt>
      <trkpt lat="43.72076" lon="3.89441">
        <ele>105</ele>
        <time>2021-03-27T11:26:07Z</time>
      </trkpt>
      <trkpt lat="43.72078" lon="3.89444">
        <ele>105</ele>
        <time>2021-03-27T11:26:08Z</time>
      </trkpt>
      <trkpt lat="43.72079" lon="3.89447">
        <ele>105</ele>
        <time>2021-03-27T11:26:09Z</time>
      </trkpt>
      <trkpt lat="43.72081" lon="3.89449">
        <ele>105</ele>
        <time>2021-03-27T11:26:10Z</time>
      </trkpt>
      <trkpt lat="43.72082" lon="3.89452">
        <ele>105</ele>
        <time>2021-03-27T11:26:12Z</time>
      </trkpt>
      <trkpt lat="43.72085" lon="3.89457">
        <ele>105</ele>
        <time>2021-03-27T11:26:13Z</time>
      </trkpt>
      <trkpt lat="43.72087" lon="3.89459">
        <ele>105</ele>
        <time>2021-03-27T11:26:15Z</time>
      </trkpt>
      <trkpt lat="43.72089" lon="3.89459">
        <ele>106</ele>
        <time>2021-03-27T11:26:18Z</time>
      </trkpt>
      <trkpt lat="43.72091" lon="3.89459">
        <ele>106</ele>
        <time>2021-03-27T11:26:20Z</time>
      </trkpt>
      <trkpt lat="43.72093" lon="3.89459">
        <ele>106</ele>
        <time>2021-03-27T11:26:22Z</time>
      </trkpt>
      <trkpt lat="43.72096" lon="3.89458">
        <ele>106</ele>
        <time>2021-03-27T11:26:24Z</time>
      </trkpt>
      <trkpt lat="43.72099" lon="3.8946">
        <ele>106</ele>
        <time>2021-03-27T11:26:26Z</time>
      </trkpt>
      <trkpt lat="43.72097" lon="3.89463">
        <ele>106</ele>
        <time>2021-03-27T11:26:28Z</time>
      </trkpt>
      <trkpt lat="43.72093" lon="3.89463">
        <ele>106</ele>
        <time>2021-03-27T11:26:30Z</time>
      </trkpt>
      <trkpt lat="43.72089" lon="3.89464">
        <ele>106</ele>
        <time>2021-03-27T11:26:32Z</time>
      </trkpt>
      <trkpt lat="43.72087" lon="3.89464">
        <ele>106</ele>
        <time>2021-03-27T11:26:33Z</time>
      </trkpt>
      <trkpt lat="43.72085" lon="3.89463">
        <ele>106</ele>
        <time>2021-03-27T11:26:34Z</time>
      </trkpt>
      <trkpt lat="43.72084" lon="3.8946">
        <ele>106</ele>
        <time>2021-03-27T11:26:36Z</time>
      </trkpt>
      <trkpt lat="43.7209" lon="3.89456">
        <ele>106</ele>
        <time>2021-03-27T11:26:39Z</time>
      </trkpt>
      <trkpt lat="43.72093" lon="3.89455">
        <ele>106</ele>
        <time>2021-03-27T11:26:40Z</time>
      </trkpt>
      <trkpt lat="43.72098" lon="3.89453">
        <ele>106</ele>
        <time>2021-03-27T11:26:42Z</time>
      </trkpt>
      <trkpt lat="43.72101" lon="3.89452">
        <ele>106</ele>
        <time>2021-03-27T11:26:44Z</time>
      </trkpt>
      <trkpt lat="43.72103" lon="3.89451">
        <ele>106</ele>
        <time>2021-03-27T11:26:45Z</time>
      </trkpt>
      <trkpt lat="43.72105" lon="3.8945">
        <ele>106</ele>
        <time>2021-03-27T11:26:46Z</time>
      </trkpt>
      <trkpt lat="43.72109" lon="3.89448">
        <ele>109</ele>
        <time>2021-03-27T11:26:48Z</time>
      </trkpt>
      <trkpt lat="43.72111" lon="3.89447">
        <ele>109</ele>
        <time>2021-03-27T11:26:50Z</time>
      </trkpt>
      <trkpt lat="43.72117" lon="3.89446">
        <ele>109</ele>
        <time>2021-03-27T11:26:52Z</time>
      </trkpt>
      <trkpt lat="43.72119" lon="3.89447">
        <ele>109</ele>
        <time>2021-03-27T11:26:53Z</time>
      </trkpt>
      <trkpt lat="43.72122" lon="3.89446">
        <ele>109</ele>
        <time>2021-03-27T11:26:54Z</time>
      </trkpt>
      <trkpt lat="43.72125" lon="3.89446">
        <ele>109</ele>
        <time>2021-03-27T11:26:55Z</time>
      </trkpt>
      <trkpt lat="43.72127" lon="3.89445">
        <ele>109</ele>
        <time>2021-03-27T11:26:56Z</time>
      </trkpt>
      <trkpt lat="43.72131" lon="3.89444">
        <ele>109</ele>
        <time>2021-03-27T11:26:59Z</time>
      </trkpt>
      <trkpt lat="43.72137" lon="3.89443">
        <ele>109</ele>
        <time>2021-03-27T11:27:01Z</time>
      </trkpt>
      <trkpt lat="43.72144" lon="3.89443">
        <ele>109</ele>
        <time>2021-03-27T11:27:03Z</time>
      </trkpt>
      <trkpt lat="43.72148" lon="3.8944">
        <ele>109</ele>
        <time>2021-03-27T11:27:05Z</time>
      </trkpt>
      <trkpt lat="43.72149" lon="3.89437">
        <ele>109</ele>
        <time>2021-03-27T11:27:06Z</time>
      </trkpt>
      <trkpt lat="43.72151" lon="3.89435">
        <ele>109</ele>
        <time>2021-03-27T11:27:07Z</time>
      </trkpt>
      <trkpt lat="43.72152" lon="3.89432">
        <ele>109</ele>
        <time>2021-03-27T11:27:09Z</time>
      </trkpt>
      <trkpt lat="43.72154" lon="3.89428">
        <ele>109</ele>
        <time>2021-03-27T11:27:11Z</time>
      </trkpt>
      <trkpt lat="43.72153" lon="3.89418">
        <ele>114</ele>
        <time>2021-03-27T11:27:29Z</time>
      </trkpt>
      <trkpt lat="43.72153" lon="3.89415">
        <ele>114</ele>
        <time>2021-03-27T11:27:32Z</time>
      </trkpt>
      <trkpt lat="43.72154" lon="3.89412">
        <ele>114</ele>
        <time>2021-03-27T11:27:34Z</time>
      </trkpt>
      <trkpt lat="43.72154" lon="3.89409">
        <ele>114</ele>
        <time>2021-03-27T11:27:37Z</time>
      </trkpt>
      <trkpt lat="43.72155" lon="3.89405">
        <ele>114</ele>
        <time>2021-03-27T11:27:40Z</time>
      </trkpt>
      <trkpt lat="43.72154" lon="3.89403">
        <ele>114</ele>
        <time>2021-03-27T11:27:42Z</time>
      </trkpt>
      <trkpt lat="43.72154" lon="3.89399">
        <ele>114</ele>
        <time>2021-03-27T11:27:45Z</time>
      </trkpt>
      <trkpt lat="43.72154" lon="3.89395">
        <ele>117</ele>
        <time>2021-03-27T11:27:49Z</time>
      </trkpt>
      <trkpt lat="43.72154" lon="3.89392">
        <ele>117</ele>
        <time>2021-03-27T11:27:51Z</time>
      </trkpt>
      <trkpt lat="43.72154" lon="3.89389">
        <ele>117</ele>
        <time>2021-03-27T11:27:54Z</time>
      </trkpt>
      <trkpt lat="43.72154" lon="3.89386">
        <ele>117</ele>
        <time>2021-03-27T11:27:56Z</time>
      </trkpt>
      <trkpt lat="43.72154" lon="3.89383">
        <ele>117</ele>
        <time>2021-03-27T11:27:59Z</time>
      </trkpt>
      <trkpt lat="43.72156" lon="3.89385">
        <ele>117</ele>
        <time>2021-03-27T11:28:02Z</time>
      </trkpt>
      <trkpt lat="43.72154" lon="3.89378">
        <ele>120</ele>
        <time>2021-03-27T11:28:18Z</time>
      </trkpt>
      <trkpt lat="43.72155" lon="3.8937">
        <ele>120</ele>
        <time>2021-03-27T11:28:20Z</time>
      </trkpt>
      <trkpt lat="43.72155" lon="3.89367">
        <ele>120</ele>
        <time>2021-03-27T11:28:21Z</time>
      </trkpt>
      <trkpt lat="43.72156" lon="3.89364">
        <ele>120</ele>
        <time>2021-03-27T11:28:22Z</time>
      </trkpt>
      <trkpt lat="43.72156" lon="3.89361">
        <ele>120</ele>
        <time>2021-03-27T11:28:23Z</time>
      </trkpt>
      <trkpt lat="43.72157" lon="3.89358">
        <ele>120</ele>
        <time>2021-03-27T11:28:24Z</time>
      </trkpt>
      <trkpt lat="43.72157" lon="3.89355">
        <ele>120</ele>
        <time>2021-03-27T11:28:25Z</time>
      </trkpt>
      <trkpt lat="43.72156" lon="3.89351">
        <ele>120</ele>
        <time>2021-03-27T11:28:27Z</time>
      </trkpt>
      <trkpt lat="43.72156" lon="3.89348">
        <ele>120</ele>
        <time>2021-03-27T11:28:28Z</time>
      </trkpt>
      <trkpt lat="43.72156" lon="3.89345">
        <ele>120</ele>
        <time>2021-03-27T11:28:29Z</time>
      </trkpt>
      <trkpt lat="43.72156" lon="3.89343">
        <ele>120</ele>
        <time>2021-03-27T11:28:30Z</time>
      </trkpt>
      <trkpt lat="43.72156" lon="3.8934">
        <ele>120</ele>
        <time>2021-03-27T11:28:31Z</time>
      </trkpt>
      <trkpt lat="43.72156" lon="3.89337">
        <ele>120</ele>
        <time>2021-03-27T11:28:32Z</time>
      </trkpt>
      <trkpt lat="43.72157" lon="3.89334">
        <ele>120</ele>
        <time>2021-03-27T11:28:33Z</time>
      </trkpt>
      <trkpt lat="43.72158" lon="3.89331">
        <ele>120</ele>
        <time>2021-03-27T11:28:34Z</time>
      </trkpt>
      <trkpt lat="43.7216" lon="3.89325">
        <ele>120</ele>
        <time>2021-03-27T11:28:35Z</time>
      </trkpt>
      <trkpt lat="43.72161" lon="3.89322">
        <ele>120</ele>
        <time>2021-03-27T11:28:37Z</time>
      </trkpt>
      <trkpt lat="43.72164" lon="3.89316">
        <ele>121</ele>
        <time>2021-03-27T11:28:38Z</time>
      </trkpt>
      <trkpt lat="43.72165" lon="3.89313">
        <ele>121</ele>
        <time>2021-03-27T11:28:39Z</time>
      </trkpt>
      <trkpt lat="43.72166" lon="3.8931">
        <ele>121</ele>
        <time>2021-03-27T11:28:40Z</time>
      </trkpt>
      <trkpt lat="43.72166" lon="3.89307">
        <ele>121</ele>
        <time>2021-03-27T11:28:41Z</time>
      </trkpt>
      <trkpt lat="43.72166" lon="3.89304">
        <ele>121</ele>
        <time>2021-03-27T11:28:42Z</time>
      </trkpt>
      <trkpt lat="43.72166" lon="3.89301">
        <ele>121</ele>
        <time>2021-03-27T11:28:43Z</time>
      </trkpt>
      <trkpt lat="43.72167" lon="3.89298">
        <ele>121</ele>
        <time>2021-03-27T11:28:44Z</time>
      </trkpt>
      <trkpt lat="43.72167" lon="3.89296">
        <ele>121</ele>
        <time>2021-03-27T11:28:45Z</time>
      </trkpt>
      <trkpt lat="43.72168" lon="3.89293">
        <ele>121</ele>
        <time>2021-03-27T11:28:46Z</time>
      </trkpt>
      <trkpt lat="43.72171" lon="3.89289">
        <ele>122</ele>
        <time>2021-03-27T11:28:48Z</time>
      </trkpt>
      <trkpt lat="43.72172" lon="3.89285">
        <ele>122</ele>
        <time>2021-03-27T11:28:50Z</time>
      </trkpt>
      <trkpt lat="43.72174" lon="3.89281">
        <ele>122</ele>
        <time>2021-03-27T11:28:52Z</time>
      </trkpt>
      <trkpt lat="43.72175" lon="3.89279">
        <ele>122</ele>
        <time>2021-03-27T11:28:53Z</time>
      </trkpt>
      <trkpt lat="43.72176" lon="3.89276">
        <ele>122</ele>
        <time>2021-03-27T11:28:55Z</time>
      </trkpt>
      <trkpt lat="43.72178" lon="3.89272">
        <ele>123</ele>
        <time>2021-03-27T11:28:57Z</time>
      </trkpt>
      <trkpt lat="43.7218" lon="3.89268">
        <ele>123</ele>
        <time>2021-03-27T11:28:58Z</time>
      </trkpt>
      <trkpt lat="43.72181" lon="3.89265">
        <ele>123</ele>
        <time>2021-03-27T11:29:00Z</time>
      </trkpt>
      <trkpt lat="43.72183" lon="3.89261">
        <ele>123</ele>
        <time>2021-03-27T11:29:03Z</time>
      </trkpt>
      <trkpt lat="43.72185" lon="3.89258">
        <ele>123</ele>
        <time>2021-03-27T11:29:04Z</time>
      </trkpt>
      <trkpt lat="43.72186" lon="3.89256">
        <ele>123</ele>
        <time>2021-03-27T11:29:05Z</time>
      </trkpt>
      <trkpt lat="43.72187" lon="3.89254">
        <ele>123</ele>
        <time>2021-03-27T11:29:06Z</time>
      </trkpt>
      <trkpt lat="43.72189" lon="3.8925">
        <ele>123</ele>
        <time>2021-03-27T11:29:08Z</time>
      </trkpt>
      <trkpt lat="43.72191" lon="3.89246">
        <ele>123</ele>
        <time>2021-03-27T11:29:10Z</time>
      </trkpt>
      <trkpt lat="43.72193" lon="3.89243">
        <ele>123</ele>
        <time>2021-03-27T11:29:12Z</time>
      </trkpt>
      <trkpt lat="43.72195" lon="3.8924">
        <ele>123</ele>
        <time>2021-03-27T11:29:15Z</time>
      </trkpt>
      <trkpt lat="43.72197" lon="3.89235">
        <ele>123</ele>
        <time>2021-03-27T11:29:16Z</time>
      </trkpt>
      <trkpt lat="43.72199" lon="3.89232">
        <ele>126</ele>
        <time>2021-03-27T11:29:17Z</time>
      </trkpt>
      <trkpt lat="43.722" lon="3.89228">
        <ele>126</ele>
        <time>2021-03-27T11:29:19Z</time>
      </trkpt>
      <trkpt lat="43.722" lon="3.89225">
        <ele>126</ele>
        <time>2021-03-27T11:29:20Z</time>
      </trkpt>
      <trkpt lat="43.722" lon="3.89221">
        <ele>126</ele>
        <time>2021-03-27T11:29:21Z</time>
      </trkpt>
      <trkpt lat="43.722" lon="3.89218">
        <ele>126</ele>
        <time>2021-03-27T11:29:22Z</time>
      </trkpt>
      <trkpt lat="43.72201" lon="3.89215">
        <ele>126</ele>
        <time>2021-03-27T11:29:23Z</time>
      </trkpt>
      <trkpt lat="43.72201" lon="3.89212">
        <ele>126</ele>
        <time>2021-03-27T11:29:24Z</time>
      </trkpt>
      <trkpt lat="43.72202" lon="3.89209">
        <ele>126</ele>
        <time>2021-03-27T11:29:25Z</time>
      </trkpt>
      <trkpt lat="43.72202" lon="3.89206">
        <ele>126</ele>
        <time>2021-03-27T11:29:26Z</time>
      </trkpt>
      <trkpt lat="43.72202" lon="3.89202">
        <ele>126</ele>
        <time>2021-03-27T11:29:27Z</time>
      </trkpt>
      <trkpt lat="43.72203" lon="3.89196">
        <ele>126</ele>
        <time>2021-03-27T11:29:28Z</time>
      </trkpt>
      <trkpt lat="43.72203" lon="3.89192">
        <ele>126</ele>
        <time>2021-03-27T11:29:29Z</time>
      </trkpt>
      <trkpt lat="43.72203" lon="3.89189">
        <ele>126</ele>
        <time>2021-03-27T11:29:30Z</time>
      </trkpt>
      <trkpt lat="43.72203" lon="3.89186">
        <ele>126</ele>
        <time>2021-03-27T11:29:31Z</time>
      </trkpt>
      <trkpt lat="43.72203" lon="3.89183">
        <ele>126</ele>
        <time>2021-03-27T11:29:32Z</time>
      </trkpt>
      <trkpt lat="43.72203" lon="3.89181">
        <ele>126</ele>
        <time>2021-03-27T11:29:33Z</time>
      </trkpt>
      <trkpt lat="43.72203" lon="3.89178">
        <ele>126</ele>
        <time>2021-03-27T11:29:34Z</time>
      </trkpt>
      <trkpt lat="43.72204" lon="3.89175">
        <ele>126</ele>
        <time>2021-03-27T11:29:36Z</time>
      </trkpt>
      <trkpt lat="43.72206" lon="3.89172">
        <ele>126</ele>
        <time>2021-03-27T11:29:38Z</time>
      </trkpt>
      <trkpt lat="43.72208" lon="3.8917">
        <ele>126</ele>
        <time>2021-03-27T11:29:39Z</time>
      </trkpt>
      <trkpt lat="43.72211" lon="3.89169">
        <ele>126</ele>
        <time>2021-03-27T11:29:41Z</time>
      </trkpt>
      <trkpt lat="43.72214" lon="3.89169">
        <ele>126</ele>
        <time>2021-03-27T11:29:43Z</time>
      </trkpt>
      <trkpt lat="43.72219" lon="3.89169">
        <ele>126</ele>
        <time>2021-03-27T11:29:44Z</time>
      </trkpt>
      <trkpt lat="43.72222" lon="3.89167">
        <ele>125</ele>
        <time>2021-03-27T11:29:47Z</time>
      </trkpt>
      <trkpt lat="43.72224" lon="3.89166">
        <ele>125</ele>
        <time>2021-03-27T11:29:48Z</time>
      </trkpt>
      <trkpt lat="43.72227" lon="3.89165">
        <ele>125</ele>
        <time>2021-03-27T11:29:49Z</time>
      </trkpt>
      <trkpt lat="43.72229" lon="3.89165">
        <ele>125</ele>
        <time>2021-03-27T11:29:50Z</time>
      </trkpt>
      <trkpt lat="43.72232" lon="3.89164">
        <ele>125</ele>
        <time>2021-03-27T11:29:52Z</time>
      </trkpt>
      <trkpt lat="43.72234" lon="3.8916">
        <ele>125</ele>
        <time>2021-03-27T11:29:55Z</time>
      </trkpt>
      <trkpt lat="43.72236" lon="3.89156">
        <ele>125</ele>
        <time>2021-03-27T11:29:56Z</time>
      </trkpt>
      <trkpt lat="43.72236" lon="3.89155">
        <ele>125</ele>
        <time>2021-03-27T11:30:06Z</time>
      </trkpt>
      <trkpt lat="43.72244" lon="3.89148">
        <ele>125</ele>
        <time>2021-03-27T11:30:20Z</time>
      </trkpt>
      <trkpt lat="43.72245" lon="3.89146">
        <ele>125</ele>
        <time>2021-03-27T11:30:21Z</time>
      </trkpt>
      <trkpt lat="43.72246" lon="3.89142">
        <ele>125</ele>
        <time>2021-03-27T11:30:22Z</time>
      </trkpt>
      <trkpt lat="43.72247" lon="3.89137">
        <ele>125</ele>
        <time>2021-03-27T11:30:24Z</time>
      </trkpt>
      <trkpt lat="43.72247" lon="3.89134">
        <ele>125</ele>
        <time>2021-03-27T11:30:27Z</time>
      </trkpt>
      <trkpt lat="43.72247" lon="3.89129">
        <ele>124</ele>
        <time>2021-03-27T11:30:29Z</time>
      </trkpt>
      <trkpt lat="43.72248" lon="3.89126">
        <ele>124</ele>
        <time>2021-03-27T11:30:31Z</time>
      </trkpt>
      <trkpt lat="43.72247" lon="3.89129">
        <ele>124</ele>
        <time>2021-03-27T11:30:36Z</time>
      </trkpt>
      <trkpt lat="43.72251" lon="3.89119">
        <ele>124</ele>
        <time>2021-03-27T11:30:54Z</time>
      </trkpt>
      <trkpt lat="43.72251" lon="3.89116">
        <ele>124</ele>
        <time>2021-03-27T11:30:56Z</time>
      </trkpt>
      <trkpt lat="43.72252" lon="3.89111">
        <ele>124</ele>
        <time>2021-03-27T11:30:58Z</time>
      </trkpt>
      <trkpt lat="43.72253" lon="3.89105">
        <ele>124</ele>
        <time>2021-03-27T11:30:59Z</time>
      </trkpt>
      <trkpt lat="43.72253" lon="3.89102">
        <ele>124</ele>
        <time>2021-03-27T11:31:00Z</time>
      </trkpt>
      <trkpt lat="43.72254" lon="3.89098">
        <ele>124</ele>
        <time>2021-03-27T11:31:01Z</time>
      </trkpt>
      <trkpt lat="43.72256" lon="3.89094">
        <ele>124</ele>
        <time>2021-03-27T11:31:02Z</time>
      </trkpt>
      <trkpt lat="43.72257" lon="3.89091">
        <ele>124</ele>
        <time>2021-03-27T11:31:03Z</time>
      </trkpt>
      <trkpt lat="43.72258" lon="3.89088">
        <ele>124</ele>
        <time>2021-03-27T11:31:04Z</time>
      </trkpt>
      <trkpt lat="43.72259" lon="3.89085">
        <ele>124</ele>
        <time>2021-03-27T11:31:05Z</time>
      </trkpt>
      <trkpt lat="43.72259" lon="3.89081">
        <ele>124</ele>
        <time>2021-03-27T11:31:06Z</time>
      </trkpt>
      <trkpt lat="43.72261" lon="3.89078">
        <ele>124</ele>
        <time>2021-03-27T11:31:07Z</time>
      </trkpt>
      <trkpt lat="43.72262" lon="3.89074">
        <ele>124</ele>
        <time>2021-03-27T11:31:08Z</time>
      </trkpt>
      <trkpt lat="43.72263" lon="3.89071">
        <ele>124</ele>
        <time>2021-03-27T11:31:09Z</time>
      </trkpt>
      <trkpt lat="43.72265" lon="3.89067">
        <ele>124</ele>
        <time>2021-03-27T11:31:10Z</time>
      </trkpt>
      <trkpt lat="43.72267" lon="3.89063">
        <ele>124</ele>
        <time>2021-03-27T11:31:11Z</time>
      </trkpt>
      <trkpt lat="43.72269" lon="3.89059">
        <ele>124</ele>
        <time>2021-03-27T11:31:13Z</time>
      </trkpt>
      <trkpt lat="43.72273" lon="3.89052">
        <ele>124</ele>
        <time>2021-03-27T11:31:14Z</time>
      </trkpt>
      <trkpt lat="43.72276" lon="3.89048">
        <ele>124</ele>
        <time>2021-03-27T11:31:15Z</time>
      </trkpt>
      <trkpt lat="43.72277" lon="3.89044">
        <ele>124</ele>
        <time>2021-03-27T11:31:16Z</time>
      </trkpt>
      <trkpt lat="43.72279" lon="3.8904">
        <ele>124</ele>
        <time>2021-03-27T11:31:17Z</time>
      </trkpt>
      <trkpt lat="43.72282" lon="3.89037">
        <ele>124</ele>
        <time>2021-03-27T11:31:18Z</time>
      </trkpt>
      <trkpt lat="43.72284" lon="3.89034">
        <ele>124</ele>
        <time>2021-03-27T11:31:19Z</time>
      </trkpt>
      <trkpt lat="43.72285" lon="3.89031">
        <ele>124</ele>
        <time>2021-03-27T11:31:20Z</time>
      </trkpt>
      <trkpt lat="43.72286" lon="3.89028">
        <ele>124</ele>
        <time>2021-03-27T11:31:21Z</time>
      </trkpt>
      <trkpt lat="43.72288" lon="3.89025">
        <ele>124</ele>
        <time>2021-03-27T11:31:22Z</time>
      </trkpt>
      <trkpt lat="43.72289" lon="3.89021">
        <ele>124</ele>
        <time>2021-03-27T11:31:23Z</time>
      </trkpt>
      <trkpt lat="43.72292" lon="3.89014">
        <ele>124</ele>
        <time>2021-03-27T11:31:25Z</time>
      </trkpt>
      <trkpt lat="43.72293" lon="3.89011">
        <ele>124</ele>
        <time>2021-03-27T11:31:26Z</time>
      </trkpt>
      <trkpt lat="43.72294" lon="3.89007">
        <ele>124</ele>
        <time>2021-03-27T11:31:27Z</time>
      </trkpt>
      <trkpt lat="43.72294" lon="3.89003">
        <ele>124</ele>
        <time>2021-03-27T11:31:28Z</time>
      </trkpt>
      <trkpt lat="43.72295" lon="3.89">
        <ele>124</ele>
        <time>2021-03-27T11:31:29Z</time>
      </trkpt>
      <trkpt lat="43.72294" lon="3.88995">
        <ele>124</ele>
        <time>2021-03-27T11:31:30Z</time>
      </trkpt>
      <trkpt lat="43.72293" lon="3.88991">
        <ele>124</ele>
        <time>2021-03-27T11:31:31Z</time>
      </trkpt>
      <trkpt lat="43.72292" lon="3.88986">
        <ele>124</ele>
        <time>2021-03-27T11:31:32Z</time>
      </trkpt>
      <trkpt lat="43.7229" lon="3.88981">
        <ele>124</ele>
        <time>2021-03-27T11:31:33Z</time>
      </trkpt>
      <trkpt lat="43.72287" lon="3.88977">
        <ele>124</ele>
        <time>2021-03-27T11:31:34Z</time>
      </trkpt>
      <trkpt lat="43.72282" lon="3.88966">
        <ele>124</ele>
        <time>2021-03-27T11:31:36Z</time>
      </trkpt>
      <trkpt lat="43.7228" lon="3.88958">
        <ele>124</ele>
        <time>2021-03-27T11:31:38Z</time>
      </trkpt>
      <trkpt lat="43.72276" lon="3.8895">
        <ele>124</ele>
        <time>2021-03-27T11:31:40Z</time>
      </trkpt>
      <trkpt lat="43.72272" lon="3.88945">
        <ele>124</ele>
        <time>2021-03-27T11:31:42Z</time>
      </trkpt>
      <trkpt lat="43.72269" lon="3.88941">
        <ele>124</ele>
        <time>2021-03-27T11:31:43Z</time>
      </trkpt>
      <trkpt lat="43.72266" lon="3.88936">
        <ele>123</ele>
        <time>2021-03-27T11:31:44Z</time>
      </trkpt>
      <trkpt lat="43.72264" lon="3.8893">
        <ele>123</ele>
        <time>2021-03-27T11:31:45Z</time>
      </trkpt>
      <trkpt lat="43.72263" lon="3.88926">
        <ele>123</ele>
        <time>2021-03-27T11:31:46Z</time>
      </trkpt>
      <trkpt lat="43.72262" lon="3.88923">
        <ele>123</ele>
        <time>2021-03-27T11:31:47Z</time>
      </trkpt>
      <trkpt lat="43.72262" lon="3.8892">
        <ele>123</ele>
        <time>2021-03-27T11:31:49Z</time>
      </trkpt>
      <trkpt lat="43.72262" lon="3.88917">
        <ele>123</ele>
        <time>2021-03-27T11:31:54Z</time>
      </trkpt>
      <trkpt lat="43.72261" lon="3.88915">
        <ele>123</ele>
        <time>2021-03-27T11:32:00Z</time>
      </trkpt>
      <trkpt lat="43.72259" lon="3.88906">
        <ele>124</ele>
        <time>2021-03-27T11:32:11Z</time>
      </trkpt>
      <trkpt lat="43.72259" lon="3.88906">
        <ele>124</ele>
        <time>2021-03-27T11:32:12Z</time>
      </trkpt>
      <trkpt lat="43.72259" lon="3.88903">
        <ele>124</ele>
        <time>2021-03-27T11:32:15Z</time>
      </trkpt>
      <trkpt lat="43.72259" lon="3.889">
        <ele>124</ele>
        <time>2021-03-27T11:32:21Z</time>
      </trkpt>
      <trkpt lat="43.72257" lon="3.88896">
        <ele>121</ele>
        <time>2021-03-27T11:32:33Z</time>
      </trkpt>
      <trkpt lat="43.72255" lon="3.88892">
        <ele>121</ele>
        <time>2021-03-27T11:32:35Z</time>
      </trkpt>
      <trkpt lat="43.72254" lon="3.88889">
        <ele>121</ele>
        <time>2021-03-27T11:32:36Z</time>
      </trkpt>
      <trkpt lat="43.72252" lon="3.88884">
        <ele>121</ele>
        <time>2021-03-27T11:32:37Z</time>
      </trkpt>
      <trkpt lat="43.72249" lon="3.88878">
        <ele>121</ele>
        <time>2021-03-27T11:32:39Z</time>
      </trkpt>
      <trkpt lat="43.72244" lon="3.88873">
        <ele>121</ele>
        <time>2021-03-27T11:32:41Z</time>
      </trkpt>
      <trkpt lat="43.72243" lon="3.88871">
        <ele>120</ele>
        <time>2021-03-27T11:32:42Z</time>
      </trkpt>
      <trkpt lat="43.72241" lon="3.88869">
        <ele>120</ele>
        <time>2021-03-27T11:32:43Z</time>
      </trkpt>
      <trkpt lat="43.7224" lon="3.88867">
        <ele>120</ele>
        <time>2021-03-27T11:32:44Z</time>
      </trkpt>
      <trkpt lat="43.72239" lon="3.88866">
        <ele>120</ele>
        <time>2021-03-27T11:32:45Z</time>
      </trkpt>
      <trkpt lat="43.72238" lon="3.88863">
        <ele>120</ele>
        <time>2021-03-27T11:32:48Z</time>
      </trkpt>
      <trkpt lat="43.72238" lon="3.88861">
        <ele>120</ele>
        <time>2021-03-27T11:32:54Z</time>
      </trkpt>
      <trkpt lat="43.72238" lon="3.88861">
        <ele>120</ele>
        <time>2021-03-27T11:32:56Z</time>
      </trkpt>
      <trkpt lat="43.72235" lon="3.88851">
        <ele>120</ele>
        <time>2021-03-27T11:33:00Z</time>
      </trkpt>
      <trkpt lat="43.72234" lon="3.88847">
        <ele>120</ele>
        <time>2021-03-27T11:33:01Z</time>
      </trkpt>
      <trkpt lat="43.72233" lon="3.88838">
        <ele>120</ele>
        <time>2021-03-27T11:33:02Z</time>
      </trkpt>
      <trkpt lat="43.72232" lon="3.88833">
        <ele>120</ele>
        <time>2021-03-27T11:33:04Z</time>
      </trkpt>
      <trkpt lat="43.72233" lon="3.88822">
        <ele>120</ele>
        <time>2021-03-27T11:33:05Z</time>
      </trkpt>
      <trkpt lat="43.72233" lon="3.88819">
        <ele>120</ele>
        <time>2021-03-27T11:33:06Z</time>
      </trkpt>
      <trkpt lat="43.72233" lon="3.88816">
        <ele>119</ele>
        <time>2021-03-27T11:33:09Z</time>
      </trkpt>
      <trkpt lat="43.72232" lon="3.88812">
        <ele>119</ele>
        <time>2021-03-27T11:33:10Z</time>
      </trkpt>
      <trkpt lat="43.72231" lon="3.88809">
        <ele>119</ele>
        <time>2021-03-27T11:33:13Z</time>
      </trkpt>
      <trkpt lat="43.72231" lon="3.88805">
        <ele>119</ele>
        <time>2021-03-27T11:33:15Z</time>
      </trkpt>
      <trkpt lat="43.7223" lon="3.88804">
        <ele>116</ele>
        <time>2021-03-27T11:33:25Z</time>
      </trkpt>
      <trkpt lat="43.72227" lon="3.888">
        <ele>116</ele>
        <time>2021-03-27T11:33:28Z</time>
      </trkpt>
      <trkpt lat="43.72226" lon="3.88795">
        <ele>116</ele>
        <time>2021-03-27T11:33:30Z</time>
      </trkpt>
      <trkpt lat="43.72226" lon="3.88792">
        <ele>116</ele>
        <time>2021-03-27T11:33:31Z</time>
      </trkpt>
      <trkpt lat="43.72226" lon="3.88786">
        <ele>116</ele>
        <time>2021-03-27T11:33:32Z</time>
      </trkpt>
      <trkpt lat="43.72226" lon="3.88782">
        <ele>116</ele>
        <time>2021-03-27T11:33:33Z</time>
      </trkpt>
      <trkpt lat="43.72226" lon="3.88778">
        <ele>116</ele>
        <time>2021-03-27T11:33:34Z</time>
      </trkpt>
      <trkpt lat="43.72226" lon="3.88773">
        <ele>116</ele>
        <time>2021-03-27T11:33:35Z</time>
      </trkpt>
      <trkpt lat="43.72227" lon="3.88768">
        <ele>116</ele>
        <time>2021-03-27T11:33:36Z</time>
      </trkpt>
      <trkpt lat="43.72228" lon="3.88765">
        <ele>115</ele>
        <time>2021-03-27T11:33:37Z</time>
      </trkpt>
      <trkpt lat="43.72229" lon="3.88762">
        <ele>115</ele>
        <time>2021-03-27T11:33:38Z</time>
      </trkpt>
      <trkpt lat="43.7223" lon="3.88759">
        <ele>115</ele>
        <time>2021-03-27T11:33:39Z</time>
      </trkpt>
      <trkpt lat="43.72231" lon="3.88756">
        <ele>115</ele>
        <time>2021-03-27T11:33:40Z</time>
      </trkpt>
      <trkpt lat="43.72231" lon="3.88751">
        <ele>115</ele>
        <time>2021-03-27T11:33:42Z</time>
      </trkpt>
      <trkpt lat="43.72231" lon="3.88749">
        <ele>115</ele>
        <time>2021-03-27T11:33:43Z</time>
      </trkpt>
      <trkpt lat="43.7223" lon="3.88746">
        <ele>115</ele>
        <time>2021-03-27T11:33:44Z</time>
      </trkpt>
      <trkpt lat="43.72229" lon="3.8874">
        <ele>115</ele>
        <time>2021-03-27T11:33:46Z</time>
      </trkpt>
      <trkpt lat="43.72228" lon="3.88733">
        <ele>116</ele>
        <time>2021-03-27T11:33:48Z</time>
      </trkpt>
      <trkpt lat="43.72227" lon="3.8873">
        <ele>116</ele>
        <time>2021-03-27T11:33:49Z</time>
      </trkpt>
      <trkpt lat="43.72227" lon="3.88726">
        <ele>116</ele>
        <time>2021-03-27T11:33:50Z</time>
      </trkpt>
      <trkpt lat="43.72227" lon="3.88721">
        <ele>116</ele>
        <time>2021-03-27T11:33:51Z</time>
      </trkpt>
      <trkpt lat="43.72227" lon="3.88717">
        <ele>116</ele>
        <time>2021-03-27T11:33:52Z</time>
      </trkpt>
      <trkpt lat="43.72227" lon="3.88712">
        <ele>116</ele>
        <time>2021-03-27T11:33:53Z</time>
      </trkpt>
      <trkpt lat="43.72228" lon="3.88708">
        <ele>116</ele>
        <time>2021-03-27T11:33:54Z</time>
      </trkpt>
      <trkpt lat="43.7223" lon="3.88703">
        <ele>116</ele>
        <time>2021-03-27T11:33:55Z</time>
      </trkpt>
      <trkpt lat="43.72232" lon="3.887">
        <ele>116</ele>
        <time>2021-03-27T11:33:56Z</time>
      </trkpt>
      <trkpt lat="43.72233" lon="3.88697">
        <ele>115</ele>
        <time>2021-03-27T11:33:57Z</time>
      </trkpt>
      <trkpt lat="43.72234" lon="3.88693">
        <ele>115</ele>
        <time>2021-03-27T11:33:58Z</time>
      </trkpt>
      <trkpt lat="43.72235" lon="3.88689">
        <ele>115</ele>
        <time>2021-03-27T11:33:59Z</time>
      </trkpt>
      <trkpt lat="43.72238" lon="3.88683">
        <ele>115</ele>
        <time>2021-03-27T11:34:01Z</time>
      </trkpt>
      <trkpt lat="43.7224" lon="3.88681">
        <ele>115</ele>
        <time>2021-03-27T11:34:04Z</time>
      </trkpt>
      <trkpt lat="43.7224" lon="3.88683">
        <ele>116</ele>
        <time>2021-03-27T11:34:16Z</time>
      </trkpt>
      <trkpt lat="43.72237" lon="3.88665">
        <ele>115</ele>
        <time>2021-03-27T11:34:42Z</time>
      </trkpt>
      <trkpt lat="43.72237" lon="3.88661">
        <ele>115</ele>
        <time>2021-03-27T11:34:43Z</time>
      </trkpt>
      <trkpt lat="43.72238" lon="3.88651">
        <ele>115</ele>
        <time>2021-03-27T11:34:44Z</time>
      </trkpt>
      <trkpt lat="43.72238" lon="3.88646">
        <ele>115</ele>
        <time>2021-03-27T11:34:45Z</time>
      </trkpt>
      <trkpt lat="43.72237" lon="3.88641">
        <ele>115</ele>
        <time>2021-03-27T11:34:46Z</time>
      </trkpt>
      <trkpt lat="43.72237" lon="3.88635">
        <ele>115</ele>
        <time>2021-03-27T11:34:47Z</time>
      </trkpt>
      <trkpt lat="43.72237" lon="3.8863">
        <ele>115</ele>
        <time>2021-03-27T11:34:48Z</time>
      </trkpt>
      <trkpt lat="43.72237" lon="3.88625">
        <ele>115</ele>
        <time>2021-03-27T11:34:49Z</time>
      </trkpt>
      <trkpt lat="43.72237" lon="3.88621">
        <ele>115</ele>
        <time>2021-03-27T11:34:50Z</time>
      </trkpt>
      <trkpt lat="43.72236" lon="3.88612">
        <ele>114</ele>
        <time>2021-03-27T11:34:52Z</time>
      </trkpt>
      <trkpt lat="43.72236" lon="3.88607">
        <ele>114</ele>
        <time>2021-03-27T11:34:53Z</time>
      </trkpt>
      <trkpt lat="43.72238" lon="3.88604">
        <ele>114</ele>
        <time>2021-03-27T11:34:54Z</time>
      </trkpt>
      <trkpt lat="43.7224" lon="3.88601">
        <ele>114</ele>
        <time>2021-03-27T11:34:56Z</time>
      </trkpt>
      <trkpt lat="43.72242" lon="3.88598">
        <ele>114</ele>
        <time>2021-03-27T11:34:57Z</time>
      </trkpt>
      <trkpt lat="43.72244" lon="3.88596">
        <ele>114</ele>
        <time>2021-03-27T11:35:00Z</time>
      </trkpt>
      <trkpt lat="43.72243" lon="3.88595">
        <ele>112</ele>
        <time>2021-03-27T11:35:08Z</time>
      </trkpt>
      <trkpt lat="43.72239" lon="3.88599">
        <ele>112</ele>
        <time>2021-03-27T11:35:16Z</time>
      </trkpt>
      <trkpt lat="43.72237" lon="3.88598">
        <ele>112</ele>
        <time>2021-03-27T11:35:17Z</time>
      </trkpt>
      <trkpt lat="43.72236" lon="3.88596">
        <ele>112</ele>
        <time>2021-03-27T11:35:22Z</time>
      </trkpt>
      <trkpt lat="43.72234" lon="3.88592">
        <ele>112</ele>
        <time>2021-03-27T11:35:24Z</time>
      </trkpt>
      <trkpt lat="43.72232" lon="3.88585">
        <ele>112</ele>
        <time>2021-03-27T11:35:25Z</time>
      </trkpt>
      <trkpt lat="43.72233" lon="3.88582">
        <ele>113</ele>
        <time>2021-03-27T11:35:26Z</time>
      </trkpt>
      <trkpt lat="43.72234" lon="3.88578">
        <ele>113</ele>
        <time>2021-03-27T11:35:27Z</time>
      </trkpt>
      <trkpt lat="43.72234" lon="3.88574">
        <ele>113</ele>
        <time>2021-03-27T11:35:28Z</time>
      </trkpt>
      <trkpt lat="43.72235" lon="3.8857">
        <ele>113</ele>
        <time>2021-03-27T11:35:29Z</time>
      </trkpt>
      <trkpt lat="43.72235" lon="3.88567">
        <ele>113</ele>
        <time>2021-03-27T11:35:30Z</time>
      </trkpt>
      <trkpt lat="43.72235" lon="3.88564">
        <ele>113</ele>
        <time>2021-03-27T11:35:31Z</time>
      </trkpt>
      <trkpt lat="43.72235" lon="3.8856">
        <ele>113</ele>
        <time>2021-03-27T11:35:33Z</time>
      </trkpt>
      <trkpt lat="43.72234" lon="3.88556">
        <ele>111</ele>
        <time>2021-03-27T11:35:36Z</time>
      </trkpt>
      <trkpt lat="43.72232" lon="3.88553">
        <ele>111</ele>
        <time>2021-03-27T11:35:37Z</time>
      </trkpt>
      <trkpt lat="43.7223" lon="3.88549">
        <ele>111</ele>
        <time>2021-03-27T11:35:39Z</time>
      </trkpt>
      <trkpt lat="43.72228" lon="3.88548">
        <ele>111</ele>
        <time>2021-03-27T11:35:40Z</time>
      </trkpt>
      <trkpt lat="43.72226" lon="3.88548">
        <ele>111</ele>
        <time>2021-03-27T11:35:41Z</time>
      </trkpt>
      <trkpt lat="43.72224" lon="3.88549">
        <ele>111</ele>
        <time>2021-03-27T11:35:42Z</time>
      </trkpt>
      <trkpt lat="43.72222" lon="3.88549">
        <ele>111</ele>
        <time>2021-03-27T11:35:43Z</time>
      </trkpt>
      <trkpt lat="43.72221" lon="3.8855">
        <ele>111</ele>
        <time>2021-03-27T11:35:44Z</time>
      </trkpt>
      <trkpt lat="43.72218" lon="3.88551">
        <ele>109</ele>
        <time>2021-03-27T11:35:45Z</time>
      </trkpt>
      <trkpt lat="43.72215" lon="3.88551">
        <ele>109</ele>
        <time>2021-03-27T11:35:46Z</time>
      </trkpt>
      <trkpt lat="43.72211" lon="3.88548">
        <ele>109</ele>
        <time>2021-03-27T11:35:48Z</time>
      </trkpt>
      <trkpt lat="43.7221" lon="3.88547">
        <ele>107</ele>
        <time>2021-03-27T11:35:59Z</time>
      </trkpt>
      <trkpt lat="43.72207" lon="3.88539">
        <ele>105</ele>
        <time>2021-03-27T11:36:10Z</time>
      </trkpt>
      <trkpt lat="43.72207" lon="3.88536">
        <ele>105</ele>
        <time>2021-03-27T11:36:11Z</time>
      </trkpt>
      <trkpt lat="43.72207" lon="3.8853">
        <ele>105</ele>
        <time>2021-03-27T11:36:12Z</time>
      </trkpt>
      <trkpt lat="43.72207" lon="3.88527">
        <ele>105</ele>
        <time>2021-03-27T11:36:15Z</time>
      </trkpt>
      <trkpt lat="43.72207" lon="3.8853">
        <ele>105</ele>
        <time>2021-03-27T11:36:22Z</time>
      </trkpt>
      <trkpt lat="43.72209" lon="3.8854">
        <ele>99</ele>
        <time>2021-03-27T11:36:32Z</time>
      </trkpt>
      <trkpt lat="43.72209" lon="3.88543">
        <ele>99</ele>
        <time>2021-03-27T11:36:34Z</time>
      </trkpt>
      <trkpt lat="43.72207" lon="3.88545">
        <ele>98</ele>
        <time>2021-03-27T11:36:51Z</time>
      </trkpt>
      <trkpt lat="43.72207" lon="3.88544">
        <ele>98</ele>
        <time>2021-03-27T11:36:56Z</time>
      </trkpt>
      <trkpt lat="43.722" lon="3.88524">
        <ele>96</ele>
        <time>2021-03-27T11:37:02Z</time>
      </trkpt>
      <trkpt lat="43.72204" lon="3.88512">
        <ele>96</ele>
        <time>2021-03-27T11:37:04Z</time>
      </trkpt>
      <trkpt lat="43.72207" lon="3.88507">
        <ele>96</ele>
        <time>2021-03-27T11:37:05Z</time>
      </trkpt>
      <trkpt lat="43.72209" lon="3.88502">
        <ele>96</ele>
        <time>2021-03-27T11:37:07Z</time>
      </trkpt>
      <trkpt lat="43.72214" lon="3.88491">
        <ele>96</ele>
        <time>2021-03-27T11:37:08Z</time>
      </trkpt>
      <trkpt lat="43.72218" lon="3.88487">
        <ele>96</ele>
        <time>2021-03-27T11:37:10Z</time>
      </trkpt>
      <trkpt lat="43.72219" lon="3.88484">
        <ele>96</ele>
        <time>2021-03-27T11:37:13Z</time>
      </trkpt>
      <trkpt lat="43.72217" lon="3.88483">
        <ele>96</ele>
        <time>2021-03-27T11:37:20Z</time>
      </trkpt>
      <trkpt lat="43.72218" lon="3.88482">
        <ele>92</ele>
        <time>2021-03-27T11:37:28Z</time>
      </trkpt>
      <trkpt lat="43.72217" lon="3.88476">
        <ele>91</ele>
        <time>2021-03-27T11:37:39Z</time>
      </trkpt>
      <trkpt lat="43.72216" lon="3.88472">
        <ele>91</ele>
        <time>2021-03-27T11:37:40Z</time>
      </trkpt>
      <trkpt lat="43.72216" lon="3.88468">
        <ele>91</ele>
        <time>2021-03-27T11:37:41Z</time>
      </trkpt>
      <trkpt lat="43.72216" lon="3.88464">
        <ele>91</ele>
        <time>2021-03-27T11:37:43Z</time>
      </trkpt>
      <trkpt lat="43.72215" lon="3.8846">
        <ele>91</ele>
        <time>2021-03-27T11:37:44Z</time>
      </trkpt>
      <trkpt lat="43.72217" lon="3.88454">
        <ele>91</ele>
        <time>2021-03-27T11:37:45Z</time>
      </trkpt>
      <trkpt lat="43.72221" lon="3.88451">
        <ele>91</ele>
        <time>2021-03-27T11:37:47Z</time>
      </trkpt>
      <trkpt lat="43.72223" lon="3.8845">
        <ele>91</ele>
        <time>2021-03-27T11:37:49Z</time>
      </trkpt>
      <trkpt lat="43.72227" lon="3.88449">
        <ele>91</ele>
        <time>2021-03-27T11:37:50Z</time>
      </trkpt>
      <trkpt lat="43.72229" lon="3.88449">
        <ele>91</ele>
        <time>2021-03-27T11:37:51Z</time>
      </trkpt>
      <trkpt lat="43.72232" lon="3.88447">
        <ele>91</ele>
        <time>2021-03-27T11:37:53Z</time>
      </trkpt>
      <trkpt lat="43.72234" lon="3.88448">
        <ele>91</ele>
        <time>2021-03-27T11:37:55Z</time>
      </trkpt>
      <trkpt lat="43.72238" lon="3.88448">
        <ele>91</ele>
        <time>2021-03-27T11:37:56Z</time>
      </trkpt>
      <trkpt lat="43.7224" lon="3.88447">
        <ele>91</ele>
        <time>2021-03-27T11:37:57Z</time>
      </trkpt>
      <trkpt lat="43.72244" lon="3.88447">
        <ele>91</ele>
        <time>2021-03-27T11:37:59Z</time>
      </trkpt>
      <trkpt lat="43.72246" lon="3.88446">
        <ele>91</ele>
        <time>2021-03-27T11:38:00Z</time>
      </trkpt>
      <trkpt lat="43.72248" lon="3.88446">
        <ele>91</ele>
        <time>2021-03-27T11:38:01Z</time>
      </trkpt>
      <trkpt lat="43.72251" lon="3.88445">
        <ele>91</ele>
        <time>2021-03-27T11:38:03Z</time>
      </trkpt>
      <trkpt lat="43.72252" lon="3.88442">
        <ele>91</ele>
        <time>2021-03-27T11:38:16Z</time>
      </trkpt>
      <trkpt lat="43.72253" lon="3.88429">
        <ele>91</ele>
        <time>2021-03-27T11:38:24Z</time>
      </trkpt>
      <trkpt lat="43.72253" lon="3.88426">
        <ele>91</ele>
        <time>2021-03-27T11:38:25Z</time>
      </trkpt>
      <trkpt lat="43.72253" lon="3.88421">
        <ele>91</ele>
        <time>2021-03-27T11:38:26Z</time>
      </trkpt>
      <trkpt lat="43.72251" lon="3.88419">
        <ele>91</ele>
        <time>2021-03-27T11:38:27Z</time>
      </trkpt>
      <trkpt lat="43.72247" lon="3.88416">
        <ele>91</ele>
        <time>2021-03-27T11:38:29Z</time>
      </trkpt>
      <trkpt lat="43.72244" lon="3.88417">
        <ele>91</ele>
        <time>2021-03-27T11:38:31Z</time>
      </trkpt>
      <trkpt lat="43.72241" lon="3.88417">
        <ele>91</ele>
        <time>2021-03-27T11:38:32Z</time>
      </trkpt>
      <trkpt lat="43.72238" lon="3.88418">
        <ele>91</ele>
        <time>2021-03-27T11:38:33Z</time>
      </trkpt>
      <trkpt lat="43.72235" lon="3.88419">
        <ele>90</ele>
        <time>2021-03-27T11:38:34Z</time>
      </trkpt>
      <trkpt lat="43.72229" lon="3.88421">
        <ele>90</ele>
        <time>2021-03-27T11:38:35Z</time>
      </trkpt>
      <trkpt lat="43.72226" lon="3.88424">
        <ele>90</ele>
        <time>2021-03-27T11:38:37Z</time>
      </trkpt>
      <trkpt lat="43.7222" lon="3.88428">
        <ele>90</ele>
        <time>2021-03-27T11:38:38Z</time>
      </trkpt>
      <trkpt lat="43.72217" lon="3.8843">
        <ele>90</ele>
        <time>2021-03-27T11:38:40Z</time>
      </trkpt>
      <trkpt lat="43.7221" lon="3.88432">
        <ele>90</ele>
        <time>2021-03-27T11:38:41Z</time>
      </trkpt>
      <trkpt lat="43.72207" lon="3.88432">
        <ele>90</ele>
        <time>2021-03-27T11:38:43Z</time>
      </trkpt>
      <trkpt lat="43.72199" lon="3.88429">
        <ele>90</ele>
        <time>2021-03-27T11:38:44Z</time>
      </trkpt>
      <trkpt lat="43.72196" lon="3.88427">
        <ele>90</ele>
        <time>2021-03-27T11:38:45Z</time>
      </trkpt>
      <trkpt lat="43.72193" lon="3.88424">
        <ele>90</ele>
        <time>2021-03-27T11:38:46Z</time>
      </trkpt>
      <trkpt lat="43.7219" lon="3.8842">
        <ele>90</ele>
        <time>2021-03-27T11:38:47Z</time>
      </trkpt>
      <trkpt lat="43.72188" lon="3.88417">
        <ele>90</ele>
        <time>2021-03-27T11:38:48Z</time>
      </trkpt>
      <trkpt lat="43.72186" lon="3.88414">
        <ele>90</ele>
        <time>2021-03-27T11:38:49Z</time>
      </trkpt>
      <trkpt lat="43.72184" lon="3.88412">
        <ele>90</ele>
        <time>2021-03-27T11:38:50Z</time>
      </trkpt>
      <trkpt lat="43.72182" lon="3.88408">
        <ele>90</ele>
        <time>2021-03-27T11:38:51Z</time>
      </trkpt>
      <trkpt lat="43.7218" lon="3.88404">
        <ele>90</ele>
        <time>2021-03-27T11:38:52Z</time>
      </trkpt>
      <trkpt lat="43.72178" lon="3.88401">
        <ele>90</ele>
        <time>2021-03-27T11:38:53Z</time>
      </trkpt>
      <trkpt lat="43.72176" lon="3.88397">
        <ele>90</ele>
        <time>2021-03-27T11:38:54Z</time>
      </trkpt>
      <trkpt lat="43.72175" lon="3.88394">
        <ele>90</ele>
        <time>2021-03-27T11:38:55Z</time>
      </trkpt>
      <trkpt lat="43.72173" lon="3.8839">
        <ele>90</ele>
        <time>2021-03-27T11:38:56Z</time>
      </trkpt>
      <trkpt lat="43.72172" lon="3.88387">
        <ele>90</ele>
        <time>2021-03-27T11:38:57Z</time>
      </trkpt>
      <trkpt lat="43.72171" lon="3.88384">
        <ele>90</ele>
        <time>2021-03-27T11:38:59Z</time>
      </trkpt>
      <trkpt lat="43.72168" lon="3.8838">
        <ele>90</ele>
        <time>2021-03-27T11:39:01Z</time>
      </trkpt>
      <trkpt lat="43.72167" lon="3.88377">
        <ele>90</ele>
        <time>2021-03-27T11:39:02Z</time>
      </trkpt>
      <trkpt lat="43.72166" lon="3.88373">
        <ele>90</ele>
        <time>2021-03-27T11:39:03Z</time>
      </trkpt>
      <trkpt lat="43.72164" lon="3.8837">
        <ele>89</ele>
        <time>2021-03-27T11:39:04Z</time>
      </trkpt>
      <trkpt lat="43.72163" lon="3.88367">
        <ele>89</ele>
        <time>2021-03-27T11:39:05Z</time>
      </trkpt>
      <trkpt lat="43.72161" lon="3.88364">
        <ele>89</ele>
        <time>2021-03-27T11:39:07Z</time>
      </trkpt>
      <trkpt lat="43.72159" lon="3.88363">
        <ele>89</ele>
        <time>2021-03-27T11:39:10Z</time>
      </trkpt>
      <trkpt lat="43.72155" lon="3.88358">
        <ele>89</ele>
        <time>2021-03-27T11:39:12Z</time>
      </trkpt>
      <trkpt lat="43.72154" lon="3.88355">
        <ele>88</ele>
        <time>2021-03-27T11:39:14Z</time>
      </trkpt>
      <trkpt lat="43.72154" lon="3.88351">
        <ele>88</ele>
        <time>2021-03-27T11:39:16Z</time>
      </trkpt>
      <trkpt lat="43.72156" lon="3.88356">
        <ele>87</ele>
        <time>2021-03-27T11:39:52Z</time>
      </trkpt>
      <trkpt lat="43.7216" lon="3.88356">
        <ele>87</ele>
        <time>2021-03-27T11:39:53Z</time>
      </trkpt>
      <trkpt lat="43.72162" lon="3.88355">
        <ele>87</ele>
        <time>2021-03-27T11:39:55Z</time>
      </trkpt>
      <trkpt lat="43.72165" lon="3.88354">
        <ele>87</ele>
        <time>2021-03-27T11:39:56Z</time>
      </trkpt>
      <trkpt lat="43.7217" lon="3.88352">
        <ele>87</ele>
        <time>2021-03-27T11:39:57Z</time>
      </trkpt>
      <trkpt lat="43.72172" lon="3.88348">
        <ele>87</ele>
        <time>2021-03-27T11:39:59Z</time>
      </trkpt>
      <trkpt lat="43.72172" lon="3.88344">
        <ele>86</ele>
        <time>2021-03-27T11:40:01Z</time>
      </trkpt>
      <trkpt lat="43.7217" lon="3.88344">
        <ele>86</ele>
        <time>2021-03-27T11:40:12Z</time>
      </trkpt>
      <trkpt lat="43.7217" lon="3.88344">
        <ele>87</ele>
        <time>2021-03-27T11:40:14Z</time>
      </trkpt>
      <trkpt lat="43.72161" lon="3.88333">
        <ele>86</ele>
        <time>2021-03-27T11:40:26Z</time>
      </trkpt>
      <trkpt lat="43.72159" lon="3.8833">
        <ele>86</ele>
        <time>2021-03-27T11:40:27Z</time>
      </trkpt>
      <trkpt lat="43.72152" lon="3.88325">
        <ele>86</ele>
        <time>2021-03-27T11:40:28Z</time>
      </trkpt>
      <trkpt lat="43.72149" lon="3.88323">
        <ele>86</ele>
        <time>2021-03-27T11:40:30Z</time>
      </trkpt>
      <trkpt lat="43.72147" lon="3.88321">
        <ele>86</ele>
        <time>2021-03-27T11:40:31Z</time>
      </trkpt>
      <trkpt lat="43.72146" lon="3.88319">
        <ele>86</ele>
        <time>2021-03-27T11:40:32Z</time>
      </trkpt>
      <trkpt lat="43.72145" lon="3.88316">
        <ele>86</ele>
        <time>2021-03-27T11:40:33Z</time>
      </trkpt>
      <trkpt lat="43.72143" lon="3.88313">
        <ele>86</ele>
        <time>2021-03-27T11:40:35Z</time>
      </trkpt>
      <trkpt lat="43.7214" lon="3.88308">
        <ele>86</ele>
        <time>2021-03-27T11:40:36Z</time>
      </trkpt>
      <trkpt lat="43.72137" lon="3.88304">
        <ele>86</ele>
        <time>2021-03-27T11:40:38Z</time>
      </trkpt>
      <trkpt lat="43.72133" lon="3.883">
        <ele>86</ele>
        <time>2021-03-27T11:40:40Z</time>
      </trkpt>
      <trkpt lat="43.7213" lon="3.88299">
        <ele>86</ele>
        <time>2021-03-27T11:40:42Z</time>
      </trkpt>
      <trkpt lat="43.72128" lon="3.88297">
        <ele>86</ele>
        <time>2021-03-27T11:40:43Z</time>
      </trkpt>
      <trkpt lat="43.72127" lon="3.88295">
        <ele>86</ele>
        <time>2021-03-27T11:40:44Z</time>
      </trkpt>
      <trkpt lat="43.72126" lon="3.88293">
        <ele>86</ele>
        <time>2021-03-27T11:40:45Z</time>
      </trkpt>
      <trkpt lat="43.72126" lon="3.8829">
        <ele>85</ele>
        <time>2021-03-27T11:40:46Z</time>
      </trkpt>
      <trkpt lat="43.72128" lon="3.88288">
        <ele>85</ele>
        <time>2021-03-27T11:40:50Z</time>
      </trkpt>
      <trkpt lat="43.7213" lon="3.88282">
        <ele>84</ele>
        <time>2021-03-27T11:41:02Z</time>
      </trkpt>
      <trkpt lat="43.72122" lon="3.88275">
        <ele>83</ele>
        <time>2021-03-27T11:41:18Z</time>
      </trkpt>
      <trkpt lat="43.72122" lon="3.8827">
        <ele>83</ele>
        <time>2021-03-27T11:41:19Z</time>
      </trkpt>
      <trkpt lat="43.72121" lon="3.88267">
        <ele>83</ele>
        <time>2021-03-27T11:41:21Z</time>
      </trkpt>
      <trkpt lat="43.7212" lon="3.88261">
        <ele>83</ele>
        <time>2021-03-27T11:41:22Z</time>
      </trkpt>
      <trkpt lat="43.7212" lon="3.88256">
        <ele>83</ele>
        <time>2021-03-27T11:41:24Z</time>
      </trkpt>
      <trkpt lat="43.72119" lon="3.88249">
        <ele>83</ele>
        <time>2021-03-27T11:41:26Z</time>
      </trkpt>
      <trkpt lat="43.7212" lon="3.88242">
        <ele>83</ele>
        <time>2021-03-27T11:41:28Z</time>
      </trkpt>
      <trkpt lat="43.7212" lon="3.8824">
        <ele>83</ele>
        <time>2021-03-27T11:41:30Z</time>
      </trkpt>
      <trkpt lat="43.72122" lon="3.88237">
        <ele>83</ele>
        <time>2021-03-27T11:41:32Z</time>
      </trkpt>
      <trkpt lat="43.72125" lon="3.88231">
        <ele>82</ele>
        <time>2021-03-27T11:41:50Z</time>
      </trkpt>
      <trkpt lat="43.72125" lon="3.8823">
        <ele>82</ele>
        <time>2021-03-27T11:41:51Z</time>
      </trkpt>
      <trkpt lat="43.72126" lon="3.88228">
        <ele>82</ele>
        <time>2021-03-27T11:41:52Z</time>
      </trkpt>
      <trkpt lat="43.72127" lon="3.88224">
        <ele>82</ele>
        <time>2021-03-27T11:41:57Z</time>
      </trkpt>
      <trkpt lat="43.72126" lon="3.88221">
        <ele>82</ele>
        <time>2021-03-27T11:41:59Z</time>
      </trkpt>
      <trkpt lat="43.72124" lon="3.88218">
        <ele>82</ele>
        <time>2021-03-27T11:42:00Z</time>
      </trkpt>
      <trkpt lat="43.72122" lon="3.8821">
        <ele>82</ele>
        <time>2021-03-27T11:42:03Z</time>
      </trkpt>
      <trkpt lat="43.72121" lon="3.88207">
        <ele>82</ele>
        <time>2021-03-27T11:42:04Z</time>
      </trkpt>
      <trkpt lat="43.7212" lon="3.882">
        <ele>82</ele>
        <time>2021-03-27T11:42:06Z</time>
      </trkpt>
      <trkpt lat="43.72119" lon="3.88194">
        <ele>82</ele>
        <time>2021-03-27T11:42:08Z</time>
      </trkpt>
      <trkpt lat="43.72117" lon="3.88187">
        <ele>82</ele>
        <time>2021-03-27T11:42:10Z</time>
      </trkpt>
      <trkpt lat="43.72116" lon="3.88184">
        <ele>82</ele>
        <time>2021-03-27T11:42:11Z</time>
      </trkpt>
      <trkpt lat="43.72115" lon="3.8818">
        <ele>82</ele>
        <time>2021-03-27T11:42:12Z</time>
      </trkpt>
      <trkpt lat="43.72115" lon="3.88177">
        <ele>82</ele>
        <time>2021-03-27T11:42:13Z</time>
      </trkpt>
      <trkpt lat="43.72114" lon="3.88173">
        <ele>82</ele>
        <time>2021-03-27T11:42:14Z</time>
      </trkpt>
      <trkpt lat="43.72114" lon="3.88169">
        <ele>82</ele>
        <time>2021-03-27T11:42:15Z</time>
      </trkpt>
      <trkpt lat="43.72115" lon="3.88161">
        <ele>82</ele>
        <time>2021-03-27T11:42:17Z</time>
      </trkpt>
      <trkpt lat="43.72116" lon="3.88158">
        <ele>82</ele>
        <time>2021-03-27T11:42:18Z</time>
      </trkpt>
      <trkpt lat="43.72116" lon="3.88155">
        <ele>82</ele>
        <time>2021-03-27T11:42:20Z</time>
      </trkpt>
      <trkpt lat="43.72117" lon="3.88152">
        <ele>82</ele>
        <time>2021-03-27T11:42:21Z</time>
      </trkpt>
      <trkpt lat="43.7212" lon="3.88149">
        <ele>82</ele>
        <time>2021-03-27T11:42:23Z</time>
      </trkpt>
      <trkpt lat="43.72121" lon="3.88147">
        <ele>82</ele>
        <time>2021-03-27T11:42:24Z</time>
      </trkpt>
      <trkpt lat="43.72122" lon="3.88143">
        <ele>82</ele>
        <time>2021-03-27T11:42:25Z</time>
      </trkpt>
      <trkpt lat="43.72124" lon="3.8814">
        <ele>82</ele>
        <time>2021-03-27T11:42:26Z</time>
      </trkpt>
      <trkpt lat="43.72125" lon="3.88138">
        <ele>82</ele>
        <time>2021-03-27T11:42:27Z</time>
      </trkpt>
      <trkpt lat="43.72126" lon="3.88134">
        <ele>82</ele>
        <time>2021-03-27T11:42:29Z</time>
      </trkpt>
      <trkpt lat="43.72129" lon="3.88128">
        <ele>82</ele>
        <time>2021-03-27T11:42:31Z</time>
      </trkpt>
      <trkpt lat="43.7213" lon="3.88125">
        <ele>82</ele>
        <time>2021-03-27T11:42:33Z</time>
      </trkpt>
      <trkpt lat="43.72131" lon="3.8812">
        <ele>82</ele>
        <time>2021-03-27T11:42:34Z</time>
      </trkpt>
      <trkpt lat="43.72134" lon="3.88115">
        <ele>82</ele>
        <time>2021-03-27T11:42:36Z</time>
      </trkpt>
      <trkpt lat="43.72135" lon="3.88113">
        <ele>82</ele>
        <time>2021-03-27T11:42:38Z</time>
      </trkpt>
      <trkpt lat="43.72138" lon="3.88108">
        <ele>82</ele>
        <time>2021-03-27T11:42:39Z</time>
      </trkpt>
      <trkpt lat="43.7214" lon="3.88106">
        <ele>82</ele>
        <time>2021-03-27T11:42:41Z</time>
      </trkpt>
      <trkpt lat="43.72143" lon="3.88103">
        <ele>82</ele>
        <time>2021-03-27T11:42:42Z</time>
      </trkpt>
      <trkpt lat="43.72145" lon="3.88101">
        <ele>82</ele>
        <time>2021-03-27T11:42:44Z</time>
      </trkpt>
      <trkpt lat="43.72148" lon="3.88097">
        <ele>82</ele>
        <time>2021-03-27T11:42:45Z</time>
      </trkpt>
      <trkpt lat="43.7215" lon="3.88095">
        <ele>82</ele>
        <time>2021-03-27T11:42:47Z</time>
      </trkpt>
      <trkpt lat="43.72156" lon="3.88091">
        <ele>82</ele>
        <time>2021-03-27T11:42:48Z</time>
      </trkpt>
      <trkpt lat="43.72159" lon="3.8809">
        <ele>82</ele>
        <time>2021-03-27T11:42:50Z</time>
      </trkpt>
      <trkpt lat="43.72164" lon="3.88088">
        <ele>82</ele>
        <time>2021-03-27T11:42:51Z</time>
      </trkpt>
      <trkpt lat="43.72166" lon="3.88088">
        <ele>82</ele>
        <time>2021-03-27T11:42:53Z</time>
      </trkpt>
      <trkpt lat="43.72169" lon="3.88085">
        <ele>82</ele>
        <time>2021-03-27T11:42:55Z</time>
      </trkpt>
      <trkpt lat="43.7217" lon="3.88083">
        <ele>82</ele>
        <time>2021-03-27T11:42:56Z</time>
      </trkpt>
      <trkpt lat="43.72173" lon="3.88079">
        <ele>82</ele>
        <time>2021-03-27T11:42:57Z</time>
      </trkpt>
      <trkpt lat="43.72174" lon="3.88076">
        <ele>82</ele>
        <time>2021-03-27T11:42:59Z</time>
      </trkpt>
      <trkpt lat="43.72177" lon="3.88071">
        <ele>82</ele>
        <time>2021-03-27T11:43:00Z</time>
      </trkpt>
      <trkpt lat="43.72178" lon="3.88068">
        <ele>82</ele>
        <time>2021-03-27T11:43:02Z</time>
      </trkpt>
      <trkpt lat="43.7218" lon="3.88063">
        <ele>82</ele>
        <time>2021-03-27T11:43:03Z</time>
      </trkpt>
      <trkpt lat="43.72182" lon="3.88058">
        <ele>82</ele>
        <time>2021-03-27T11:43:06Z</time>
      </trkpt>
      <trkpt lat="43.72183" lon="3.88056">
        <ele>82</ele>
        <time>2021-03-27T11:43:07Z</time>
      </trkpt>
      <trkpt lat="43.72185" lon="3.8805">
        <ele>82</ele>
        <time>2021-03-27T11:43:08Z</time>
      </trkpt>
      <trkpt lat="43.72186" lon="3.88046">
        <ele>82</ele>
        <time>2021-03-27T11:43:10Z</time>
      </trkpt>
      <trkpt lat="43.7219" lon="3.88041">
        <ele>82</ele>
        <time>2021-03-27T11:43:11Z</time>
      </trkpt>
      <trkpt lat="43.72191" lon="3.88037">
        <ele>82</ele>
        <time>2021-03-27T11:43:13Z</time>
      </trkpt>
      <trkpt lat="43.72195" lon="3.88032">
        <ele>82</ele>
        <time>2021-03-27T11:43:14Z</time>
      </trkpt>
      <trkpt lat="43.72196" lon="3.88029">
        <ele>82</ele>
        <time>2021-03-27T11:43:16Z</time>
      </trkpt>
      <trkpt lat="43.72197" lon="3.88023">
        <ele>82</ele>
        <time>2021-03-27T11:43:17Z</time>
      </trkpt>
      <trkpt lat="43.72198" lon="3.88016">
        <ele>81</ele>
        <time>2021-03-27T11:43:20Z</time>
      </trkpt>
      <trkpt lat="43.72198" lon="3.88013">
        <ele>81</ele>
        <time>2021-03-27T11:43:22Z</time>
      </trkpt>
      <trkpt lat="43.722" lon="3.88006">
        <ele>81</ele>
        <time>2021-03-27T11:43:23Z</time>
      </trkpt>
      <trkpt lat="43.72202" lon="3.88003">
        <ele>81</ele>
        <time>2021-03-27T11:43:25Z</time>
      </trkpt>
      <trkpt lat="43.72206" lon="3.88001">
        <ele>81</ele>
        <time>2021-03-27T11:43:26Z</time>
      </trkpt>
      <trkpt lat="43.72209" lon="3.88">
        <ele>81</ele>
        <time>2021-03-27T11:43:28Z</time>
      </trkpt>
      <trkpt lat="43.72214" lon="3.87998">
        <ele>81</ele>
        <time>2021-03-27T11:43:29Z</time>
      </trkpt>
      <trkpt lat="43.72217" lon="3.87997">
        <ele>81</ele>
        <time>2021-03-27T11:43:31Z</time>
      </trkpt>
      <trkpt lat="43.72222" lon="3.87994">
        <ele>81</ele>
        <time>2021-03-27T11:43:32Z</time>
      </trkpt>
      <trkpt lat="43.72225" lon="3.87994">
        <ele>81</ele>
        <time>2021-03-27T11:43:34Z</time>
      </trkpt>
      <trkpt lat="43.7223" lon="3.87994">
        <ele>81</ele>
        <time>2021-03-27T11:43:35Z</time>
      </trkpt>
      <trkpt lat="43.72232" lon="3.87995">
        <ele>81</ele>
        <time>2021-03-27T11:43:37Z</time>
      </trkpt>
      <trkpt lat="43.72234" lon="3.87995">
        <ele>81</ele>
        <time>2021-03-27T11:43:38Z</time>
      </trkpt>
      <trkpt lat="43.72236" lon="3.87993">
        <ele>81</ele>
        <time>2021-03-27T11:43:40Z</time>
      </trkpt>
      <trkpt lat="43.72238" lon="3.87989">
        <ele>81</ele>
        <time>2021-03-27T11:43:41Z</time>
      </trkpt>
      <trkpt lat="43.72238" lon="3.87986">
        <ele>81</ele>
        <time>2021-03-27T11:43:43Z</time>
      </trkpt>
      <trkpt lat="43.72239" lon="3.87984">
        <ele>81</ele>
        <time>2021-03-27T11:43:44Z</time>
      </trkpt>
      <trkpt lat="43.7224" lon="3.87981">
        <ele>81</ele>
        <time>2021-03-27T11:43:46Z</time>
      </trkpt>
      <trkpt lat="43.72239" lon="3.87969">
        <ele>81</ele>
        <time>2021-03-27T11:44:24Z</time>
      </trkpt>
      <trkpt lat="43.72239" lon="3.87966">
        <ele>81</ele>
        <time>2021-03-27T11:44:25Z</time>
      </trkpt>
      <trkpt lat="43.7224" lon="3.87963">
        <ele>81</ele>
        <time>2021-03-27T11:44:26Z</time>
      </trkpt>
      <trkpt lat="43.7224" lon="3.87961">
        <ele>81</ele>
        <time>2021-03-27T11:44:27Z</time>
      </trkpt>
      <trkpt lat="43.72241" lon="3.87957">
        <ele>81</ele>
        <time>2021-03-27T11:44:28Z</time>
      </trkpt>
      <trkpt lat="43.72241" lon="3.87954">
        <ele>81</ele>
        <time>2021-03-27T11:44:29Z</time>
      </trkpt>
      <trkpt lat="43.72241" lon="3.87951">
        <ele>81</ele>
        <time>2021-03-27T11:44:30Z</time>
      </trkpt>
      <trkpt lat="43.72242" lon="3.87945">
        <ele>81</ele>
        <time>2021-03-27T11:44:31Z</time>
      </trkpt>
      <trkpt lat="43.72243" lon="3.87939">
        <ele>81</ele>
        <time>2021-03-27T11:44:34Z</time>
      </trkpt>
      <trkpt lat="43.72243" lon="3.87935">
        <ele>81</ele>
        <time>2021-03-27T11:44:35Z</time>
      </trkpt>
      <trkpt lat="43.72244" lon="3.87931">
        <ele>81</ele>
        <time>2021-03-27T11:44:37Z</time>
      </trkpt>
      <trkpt lat="43.72246" lon="3.87924">
        <ele>81</ele>
        <time>2021-03-27T11:44:38Z</time>
      </trkpt>
      <trkpt lat="43.72247" lon="3.8792">
        <ele>81</ele>
        <time>2021-03-27T11:44:40Z</time>
      </trkpt>
      <trkpt lat="43.72248" lon="3.87917">
        <ele>81</ele>
        <time>2021-03-27T11:44:41Z</time>
      </trkpt>
      <trkpt lat="43.72249" lon="3.87909">
        <ele>81</ele>
        <time>2021-03-27T11:44:42Z</time>
      </trkpt>
      <trkpt lat="43.7225" lon="3.87905">
        <ele>80</ele>
        <time>2021-03-27T11:44:44Z</time>
      </trkpt>
      <trkpt lat="43.72252" lon="3.87897">
        <ele>80</ele>
        <time>2021-03-27T11:44:45Z</time>
      </trkpt>
      <trkpt lat="43.72252" lon="3.87894">
        <ele>80</ele>
        <time>2021-03-27T11:44:46Z</time>
      </trkpt>
      <trkpt lat="43.72253" lon="3.8789">
        <ele>80</ele>
        <time>2021-03-27T11:44:47Z</time>
      </trkpt>
      <trkpt lat="43.72254" lon="3.87887">
        <ele>80</ele>
        <time>2021-03-27T11:44:48Z</time>
      </trkpt>
      <trkpt lat="43.72254" lon="3.87883">
        <ele>80</ele>
        <time>2021-03-27T11:44:49Z</time>
      </trkpt>
      <trkpt lat="43.72254" lon="3.8788">
        <ele>80</ele>
        <time>2021-03-27T11:44:50Z</time>
      </trkpt>
      <trkpt lat="43.72254" lon="3.87877">
        <ele>80</ele>
        <time>2021-03-27T11:44:51Z</time>
      </trkpt>
      <trkpt lat="43.72254" lon="3.87873">
        <ele>80</ele>
        <time>2021-03-27T11:44:52Z</time>
      </trkpt>
      <trkpt lat="43.72253" lon="3.8787">
        <ele>80</ele>
        <time>2021-03-27T11:44:53Z</time>
      </trkpt>
      <trkpt lat="43.72252" lon="3.87866">
        <ele>79</ele>
        <time>2021-03-27T11:44:54Z</time>
      </trkpt>
      <trkpt lat="43.72253" lon="3.87862">
        <ele>79</ele>
        <time>2021-03-27T11:44:55Z</time>
      </trkpt>
      <trkpt lat="43.72254" lon="3.87859">
        <ele>79</ele>
        <time>2021-03-27T11:44:56Z</time>
      </trkpt>
      <trkpt lat="43.72254" lon="3.87856">
        <ele>79</ele>
        <time>2021-03-27T11:44:57Z</time>
      </trkpt>
      <trkpt lat="43.72255" lon="3.87853">
        <ele>79</ele>
        <time>2021-03-27T11:44:59Z</time>
      </trkpt>
      <trkpt lat="43.72255" lon="3.8785">
        <ele>79</ele>
        <time>2021-03-27T11:45:05Z</time>
      </trkpt>
      <trkpt lat="43.72256" lon="3.87847">
        <ele>79</ele>
        <time>2021-03-27T11:45:08Z</time>
      </trkpt>
      <trkpt lat="43.72258" lon="3.87846">
        <ele>79</ele>
        <time>2021-03-27T11:45:09Z</time>
      </trkpt>
      <trkpt lat="43.72257" lon="3.87846">
        <ele>80</ele>
        <time>2021-03-27T11:45:20Z</time>
      </trkpt>
      <trkpt lat="43.72261" lon="3.8784">
        <ele>80</ele>
        <time>2021-03-27T11:45:28Z</time>
      </trkpt>
      <trkpt lat="43.72261" lon="3.87838">
        <ele>80</ele>
        <time>2021-03-27T11:45:29Z</time>
      </trkpt>
      <trkpt lat="43.7226" lon="3.87834">
        <ele>80</ele>
        <time>2021-03-27T11:45:31Z</time>
      </trkpt>
      <trkpt lat="43.72259" lon="3.87832">
        <ele>80</ele>
        <time>2021-03-27T11:45:33Z</time>
      </trkpt>
      <trkpt lat="43.72256" lon="3.87831">
        <ele>80</ele>
        <time>2021-03-27T11:45:34Z</time>
      </trkpt>
      <trkpt lat="43.72253" lon="3.87831">
        <ele>80</ele>
        <time>2021-03-27T11:45:36Z</time>
      </trkpt>
      <trkpt lat="43.72249" lon="3.87831">
        <ele>80</ele>
        <time>2021-03-27T11:45:37Z</time>
      </trkpt>
      <trkpt lat="43.72246" lon="3.87829">
        <ele>80</ele>
        <time>2021-03-27T11:45:40Z</time>
      </trkpt>
      <trkpt lat="43.72243" lon="3.87829">
        <ele>80</ele>
        <time>2021-03-27T11:45:42Z</time>
      </trkpt>
      <trkpt lat="43.72241" lon="3.8783">
        <ele>80</ele>
        <time>2021-03-27T11:45:44Z</time>
      </trkpt>
      <trkpt lat="43.72239" lon="3.8783">
        <ele>80</ele>
        <time>2021-03-27T11:45:52Z</time>
      </trkpt>
      <trkpt lat="43.72247" lon="3.87829">
        <ele>80</ele>
        <time>2021-03-27T11:46:37Z</time>
      </trkpt>
      <trkpt lat="43.7225" lon="3.8783">
        <ele>80</ele>
        <time>2021-03-27T11:46:39Z</time>
      </trkpt>
      <trkpt lat="43.72252" lon="3.87831">
        <ele>80</ele>
        <time>2021-03-27T11:46:40Z</time>
      </trkpt>
      <trkpt lat="43.72256" lon="3.87832">
        <ele>80</ele>
        <time>2021-03-27T11:46:43Z</time>
      </trkpt>
      <trkpt lat="43.72264" lon="3.87837">
        <ele>80</ele>
        <time>2021-03-27T11:46:44Z</time>
      </trkpt>
      <trkpt lat="43.72268" lon="3.8784">
        <ele>80</ele>
        <time>2021-03-27T11:46:46Z</time>
      </trkpt>
      <trkpt lat="43.72273" lon="3.87841">
        <ele>80</ele>
        <time>2021-03-27T11:46:47Z</time>
      </trkpt>
      <trkpt lat="43.72275" lon="3.87842">
        <ele>80</ele>
        <time>2021-03-27T11:46:49Z</time>
      </trkpt>
      <trkpt lat="43.72277" lon="3.87844">
        <ele>80</ele>
        <time>2021-03-27T11:46:50Z</time>
      </trkpt>
      <trkpt lat="43.72279" lon="3.87846">
        <ele>80</ele>
        <time>2021-03-27T11:46:52Z</time>
      </trkpt>
      <trkpt lat="43.72282" lon="3.87846">
        <ele>80</ele>
        <time>2021-03-27T11:46:54Z</time>
      </trkpt>
      <trkpt lat="43.72284" lon="3.87846">
        <ele>79</ele>
        <time>2021-03-27T11:47:04Z</time>
      </trkpt>
      <trkpt lat="43.7229" lon="3.87842">
        <ele>80</ele>
        <time>2021-03-27T11:47:30Z</time>
      </trkpt>
      <trkpt lat="43.72284" lon="3.87844">
        <ele>80</ele>
        <time>2021-03-27T11:47:49Z</time>
      </trkpt>
      <trkpt lat="43.72285" lon="3.87845">
        <ele>80</ele>
        <time>2021-03-27T11:47:59Z</time>
      </trkpt>
      <trkpt lat="43.72299" lon="3.87842">
        <ele>78</ele>
        <time>2021-03-27T11:53:18Z</time>
      </trkpt>
      <trkpt lat="43.72301" lon="3.87842">
        <ele>78</ele>
        <time>2021-03-27T11:53:19Z</time>
      </trkpt>
      <trkpt lat="43.72303" lon="3.87841">
        <ele>78</ele>
        <time>2021-03-27T11:53:20Z</time>
      </trkpt>
      <trkpt lat="43.72305" lon="3.87838">
        <ele>78</ele>
        <time>2021-03-27T11:53:22Z</time>
      </trkpt>
      <trkpt lat="43.7231" lon="3.87836">
        <ele>78</ele>
        <time>2021-03-27T11:53:23Z</time>
      </trkpt>
      <trkpt lat="43.72312" lon="3.87837">
        <ele>78</ele>
        <time>2021-03-27T11:53:24Z</time>
      </trkpt>
      <trkpt lat="43.72315" lon="3.8784">
        <ele>78</ele>
        <time>2021-03-27T11:53:26Z</time>
      </trkpt>
      <trkpt lat="43.72319" lon="3.87844">
        <ele>77</ele>
        <time>2021-03-27T11:53:27Z</time>
      </trkpt>
      <trkpt lat="43.72321" lon="3.87845">
        <ele>77</ele>
        <time>2021-03-27T11:53:29Z</time>
      </trkpt>
      <trkpt lat="43.72327" lon="3.87845">
        <ele>77</ele>
        <time>2021-03-27T11:53:30Z</time>
      </trkpt>
      <trkpt lat="43.72331" lon="3.87845">
        <ele>77</ele>
        <time>2021-03-27T11:53:32Z</time>
      </trkpt>
      <trkpt lat="43.72338" lon="3.87845">
        <ele>77</ele>
        <time>2021-03-27T11:53:33Z</time>
      </trkpt>
      <trkpt lat="43.72342" lon="3.87844">
        <ele>77</ele>
        <time>2021-03-27T11:53:35Z</time>
      </trkpt>
      <trkpt lat="43.72346" lon="3.87842">
        <ele>77</ele>
        <time>2021-03-27T11:53:36Z</time>
      </trkpt>
      <trkpt lat="43.72348" lon="3.87841">
        <ele>77</ele>
        <time>2021-03-27T11:53:37Z</time>
      </trkpt>
      <trkpt lat="43.7235" lon="3.87841">
        <ele>77</ele>
        <time>2021-03-27T11:53:38Z</time>
      </trkpt>
      <trkpt lat="43.72352" lon="3.87839">
        <ele>77</ele>
        <time>2021-03-27T11:53:39Z</time>
      </trkpt>
      <trkpt lat="43.72354" lon="3.87837">
        <ele>77</ele>
        <time>2021-03-27T11:53:42Z</time>
      </trkpt>
      <trkpt lat="43.72355" lon="3.87833">
        <ele>77</ele>
        <time>2021-03-27T11:53:44Z</time>
      </trkpt>
      <trkpt lat="43.72356" lon="3.87829">
        <ele>77</ele>
        <time>2021-03-27T11:53:45Z</time>
      </trkpt>
      <trkpt lat="43.72356" lon="3.87826">
        <ele>77</ele>
        <time>2021-03-27T11:53:48Z</time>
      </trkpt>
      <trkpt lat="43.72356" lon="3.8782">
        <ele>77</ele>
        <time>2021-03-27T11:53:50Z</time>
      </trkpt>
      <trkpt lat="43.72356" lon="3.87814">
        <ele>77</ele>
        <time>2021-03-27T11:53:51Z</time>
      </trkpt>
      <trkpt lat="43.72356" lon="3.87811">
        <ele>77</ele>
        <time>2021-03-27T11:53:53Z</time>
      </trkpt>
      <trkpt lat="43.72357" lon="3.87808">
        <ele>77</ele>
        <time>2021-03-27T11:53:54Z</time>
      </trkpt>
      <trkpt lat="43.72359" lon="3.87803">
        <ele>77</ele>
        <time>2021-03-27T11:53:55Z</time>
      </trkpt>
      <trkpt lat="43.7236" lon="3.878">
        <ele>77</ele>
        <time>2021-03-27T11:53:57Z</time>
      </trkpt>
      <trkpt lat="43.72363" lon="3.87794">
        <ele>77</ele>
        <time>2021-03-27T11:53:58Z</time>
      </trkpt>
      <trkpt lat="43.72365" lon="3.87791">
        <ele>77</ele>
        <time>2021-03-27T11:53:59Z</time>
      </trkpt>
      <trkpt lat="43.72368" lon="3.87785">
        <ele>77</ele>
        <time>2021-03-27T11:54:01Z</time>
      </trkpt>
      <trkpt lat="43.7237" lon="3.87781">
        <ele>77</ele>
        <time>2021-03-27T11:54:03Z</time>
      </trkpt>
      <trkpt lat="43.72373" lon="3.87774">
        <ele>77</ele>
        <time>2021-03-27T11:54:04Z</time>
      </trkpt>
      <trkpt lat="43.72375" lon="3.8777">
        <ele>77</ele>
        <time>2021-03-27T11:54:05Z</time>
      </trkpt>
      <trkpt lat="43.72377" lon="3.87761">
        <ele>78</ele>
        <time>2021-03-27T11:54:07Z</time>
      </trkpt>
      <trkpt lat="43.72378" lon="3.87756">
        <ele>78</ele>
        <time>2021-03-27T11:54:09Z</time>
      </trkpt>
      <trkpt lat="43.7238" lon="3.87745">
        <ele>78</ele>
        <time>2021-03-27T11:54:10Z</time>
      </trkpt>
      <trkpt lat="43.72381" lon="3.8774">
        <ele>78</ele>
        <time>2021-03-27T11:54:12Z</time>
      </trkpt>
      <trkpt lat="43.72382" lon="3.87734">
        <ele>78</ele>
        <time>2021-03-27T11:54:13Z</time>
      </trkpt>
      <trkpt lat="43.72384" lon="3.87723">
        <ele>78</ele>
        <time>2021-03-27T11:54:14Z</time>
      </trkpt>
      <trkpt lat="43.72385" lon="3.87713">
        <ele>78</ele>
        <time>2021-03-27T11:54:16Z</time>
      </trkpt>
      <trkpt lat="43.72384" lon="3.87709">
        <ele>77</ele>
        <time>2021-03-27T11:54:18Z</time>
      </trkpt>
      <trkpt lat="43.72383" lon="3.87703">
        <ele>77</ele>
        <time>2021-03-27T11:54:19Z</time>
      </trkpt>
      <trkpt lat="43.72383" lon="3.87699">
        <ele>77</ele>
        <time>2021-03-27T11:54:21Z</time>
      </trkpt>
      <trkpt lat="43.72384" lon="3.87692">
        <ele>77</ele>
        <time>2021-03-27T11:54:22Z</time>
      </trkpt>
      <trkpt lat="43.72387" lon="3.87684">
        <ele>77</ele>
        <time>2021-03-27T11:54:24Z</time>
      </trkpt>
      <trkpt lat="43.72388" lon="3.8768">
        <ele>77</ele>
        <time>2021-03-27T11:54:25Z</time>
      </trkpt>
      <trkpt lat="43.72387" lon="3.87676">
        <ele>77</ele>
        <time>2021-03-27T11:54:26Z</time>
      </trkpt>
      <trkpt lat="43.72386" lon="3.87669">
        <ele>77</ele>
        <time>2021-03-27T11:54:28Z</time>
      </trkpt>
      <trkpt lat="43.72386" lon="3.87665">
        <ele>77</ele>
        <time>2021-03-27T11:54:29Z</time>
      </trkpt>
      <trkpt lat="43.72385" lon="3.87658">
        <ele>77</ele>
        <time>2021-03-27T11:54:31Z</time>
      </trkpt>
      <trkpt lat="43.72386" lon="3.8765">
        <ele>77</ele>
        <time>2021-03-27T11:54:33Z</time>
      </trkpt>
      <trkpt lat="43.72387" lon="3.87647">
        <ele>77</ele>
        <time>2021-03-27T11:54:35Z</time>
      </trkpt>
      <trkpt lat="43.72389" lon="3.87644">
        <ele>77</ele>
        <time>2021-03-27T11:54:36Z</time>
      </trkpt>
      <trkpt lat="43.72389" lon="3.87641">
        <ele>77</ele>
        <time>2021-03-27T11:54:37Z</time>
      </trkpt>
      <trkpt lat="43.72389" lon="3.87637">
        <ele>77</ele>
        <time>2021-03-27T11:54:39Z</time>
      </trkpt>
      <trkpt lat="43.7239" lon="3.87635">
        <ele>77</ele>
        <time>2021-03-27T11:54:41Z</time>
      </trkpt>
      <trkpt lat="43.72391" lon="3.87632">
        <ele>77</ele>
        <time>2021-03-27T11:54:43Z</time>
      </trkpt>
      <trkpt lat="43.72395" lon="3.87626">
        <ele>77</ele>
        <time>2021-03-27T11:54:46Z</time>
      </trkpt>
      <trkpt lat="43.72398" lon="3.87625">
        <ele>77</ele>
        <time>2021-03-27T11:54:48Z</time>
      </trkpt>
      <trkpt lat="43.72403" lon="3.87622">
        <ele>77</ele>
        <time>2021-03-27T11:54:49Z</time>
      </trkpt>
      <trkpt lat="43.72404" lon="3.87619">
        <ele>77</ele>
        <time>2021-03-27T11:54:50Z</time>
      </trkpt>
      <trkpt lat="43.72406" lon="3.87617">
        <ele>77</ele>
        <time>2021-03-27T11:54:51Z</time>
      </trkpt>
      <trkpt lat="43.72407" lon="3.87614">
        <ele>77</ele>
        <time>2021-03-27T11:54:54Z</time>
      </trkpt>
      <trkpt lat="43.72407" lon="3.87612">
        <ele>77</ele>
        <time>2021-03-27T11:54:57Z</time>
      </trkpt>
      <trkpt lat="43.72406" lon="3.87606">
        <ele>76</ele>
        <time>2021-03-27T11:54:58Z</time>
      </trkpt>
      <trkpt lat="43.72405" lon="3.87603">
        <ele>76</ele>
        <time>2021-03-27T11:55:00Z</time>
      </trkpt>
      <trkpt lat="43.72404" lon="3.876">
        <ele>76</ele>
        <time>2021-03-27T11:55:01Z</time>
      </trkpt>
      <trkpt lat="43.72403" lon="3.87598">
        <ele>76</ele>
        <time>2021-03-27T11:55:02Z</time>
      </trkpt>
      <trkpt lat="43.72403" lon="3.87594">
        <ele>76</ele>
        <time>2021-03-27T11:55:03Z</time>
      </trkpt>
      <trkpt lat="43.72403" lon="3.8759">
        <ele>76</ele>
        <time>2021-03-27T11:55:04Z</time>
      </trkpt>
      <trkpt lat="43.72403" lon="3.87584">
        <ele>76</ele>
        <time>2021-03-27T11:55:05Z</time>
      </trkpt>
      <trkpt lat="43.72403" lon="3.87578">
        <ele>76</ele>
        <time>2021-03-27T11:55:06Z</time>
      </trkpt>
      <trkpt lat="43.72404" lon="3.87574">
        <ele>76</ele>
        <time>2021-03-27T11:55:07Z</time>
      </trkpt>
      <trkpt lat="43.72404" lon="3.87571">
        <ele>76</ele>
        <time>2021-03-27T11:55:09Z</time>
      </trkpt>
      <trkpt lat="43.72404" lon="3.87568">
        <ele>76</ele>
        <time>2021-03-27T11:55:10Z</time>
      </trkpt>
      <trkpt lat="43.72404" lon="3.87564">
        <ele>76</ele>
        <time>2021-03-27T11:55:11Z</time>
      </trkpt>
      <trkpt lat="43.72406" lon="3.87559">
        <ele>76</ele>
        <time>2021-03-27T11:55:12Z</time>
      </trkpt>
      <trkpt lat="43.7241" lon="3.87555">
        <ele>76</ele>
        <time>2021-03-27T11:55:15Z</time>
      </trkpt>
      <trkpt lat="43.72412" lon="3.87555">
        <ele>76</ele>
        <time>2021-03-27T11:55:17Z</time>
      </trkpt>
      <trkpt lat="43.72415" lon="3.87555">
        <ele>75</ele>
        <time>2021-03-27T11:55:18Z</time>
      </trkpt>
      <trkpt lat="43.72416" lon="3.87553">
        <ele>75</ele>
        <time>2021-03-27T11:55:19Z</time>
      </trkpt>
      <trkpt lat="43.72418" lon="3.87551">
        <ele>75</ele>
        <time>2021-03-27T11:55:20Z</time>
      </trkpt>
      <trkpt lat="43.72421" lon="3.87548">
        <ele>75</ele>
        <time>2021-03-27T11:55:21Z</time>
      </trkpt>
      <trkpt lat="43.72423" lon="3.87545">
        <ele>75</ele>
        <time>2021-03-27T11:55:22Z</time>
      </trkpt>
      <trkpt lat="43.72425" lon="3.87543">
        <ele>75</ele>
        <time>2021-03-27T11:55:23Z</time>
      </trkpt>
      <trkpt lat="43.72427" lon="3.87541">
        <ele>75</ele>
        <time>2021-03-27T11:55:24Z</time>
      </trkpt>
      <trkpt lat="43.72429" lon="3.87538">
        <ele>75</ele>
        <time>2021-03-27T11:55:25Z</time>
      </trkpt>
      <trkpt lat="43.72432" lon="3.87534">
        <ele>75</ele>
        <time>2021-03-27T11:55:26Z</time>
      </trkpt>
      <trkpt lat="43.72433" lon="3.8753">
        <ele>75</ele>
        <time>2021-03-27T11:55:27Z</time>
      </trkpt>
      <trkpt lat="43.72435" lon="3.87527">
        <ele>74</ele>
        <time>2021-03-27T11:55:28Z</time>
      </trkpt>
      <trkpt lat="43.72437" lon="3.87523">
        <ele>74</ele>
        <time>2021-03-27T11:55:29Z</time>
      </trkpt>
      <trkpt lat="43.72439" lon="3.8752">
        <ele>74</ele>
        <time>2021-03-27T11:55:30Z</time>
      </trkpt>
      <trkpt lat="43.72442" lon="3.87517">
        <ele>74</ele>
        <time>2021-03-27T11:55:32Z</time>
      </trkpt>
      <trkpt lat="43.72444" lon="3.87515">
        <ele>74</ele>
        <time>2021-03-27T11:55:33Z</time>
      </trkpt>
      <trkpt lat="43.72447" lon="3.87512">
        <ele>74</ele>
        <time>2021-03-27T11:55:34Z</time>
      </trkpt>
      <trkpt lat="43.7245" lon="3.8751">
        <ele>74</ele>
        <time>2021-03-27T11:55:35Z</time>
      </trkpt>
      <trkpt lat="43.72453" lon="3.87507">
        <ele>74</ele>
        <time>2021-03-27T11:55:36Z</time>
      </trkpt>
      <trkpt lat="43.72456" lon="3.87505">
        <ele>74</ele>
        <time>2021-03-27T11:55:37Z</time>
      </trkpt>
      <trkpt lat="43.72459" lon="3.87504">
        <ele>74</ele>
        <time>2021-03-27T11:55:38Z</time>
      </trkpt>
      <trkpt lat="43.72463" lon="3.87503">
        <ele>74</ele>
        <time>2021-03-27T11:55:39Z</time>
      </trkpt>
      <trkpt lat="43.72467" lon="3.87502">
        <ele>74</ele>
        <time>2021-03-27T11:55:40Z</time>
      </trkpt>
      <trkpt lat="43.72474" lon="3.87501">
        <ele>74</ele>
        <time>2021-03-27T11:55:41Z</time>
      </trkpt>
      <trkpt lat="43.72478" lon="3.875">
        <ele>74</ele>
        <time>2021-03-27T11:55:42Z</time>
      </trkpt>
      <trkpt lat="43.72481" lon="3.87499">
        <ele>74</ele>
        <time>2021-03-27T11:55:43Z</time>
      </trkpt>
      <trkpt lat="43.72485" lon="3.87498">
        <ele>74</ele>
        <time>2021-03-27T11:55:44Z</time>
      </trkpt>
      <trkpt lat="43.72488" lon="3.87497">
        <ele>74</ele>
        <time>2021-03-27T11:55:46Z</time>
      </trkpt>
      <trkpt lat="43.72495" lon="3.87494">
        <ele>73</ele>
        <time>2021-03-27T11:55:47Z</time>
      </trkpt>
      <trkpt lat="43.72499" lon="3.87493">
        <ele>73</ele>
        <time>2021-03-27T11:55:48Z</time>
      </trkpt>
      <trkpt lat="43.72502" lon="3.87492">
        <ele>73</ele>
        <time>2021-03-27T11:55:49Z</time>
      </trkpt>
      <trkpt lat="43.72505" lon="3.87492">
        <ele>73</ele>
        <time>2021-03-27T11:55:50Z</time>
      </trkpt>
      <trkpt lat="43.7251" lon="3.87491">
        <ele>73</ele>
        <time>2021-03-27T11:55:52Z</time>
      </trkpt>
      <trkpt lat="43.72513" lon="3.8749">
        <ele>73</ele>
        <time>2021-03-27T11:55:54Z</time>
      </trkpt>
      <trkpt lat="43.72515" lon="3.87489">
        <ele>73</ele>
        <time>2021-03-27T11:55:55Z</time>
      </trkpt>
      <trkpt lat="43.72517" lon="3.87489">
        <ele>73</ele>
        <time>2021-03-27T11:55:56Z</time>
      </trkpt>
      <trkpt lat="43.72519" lon="3.87489">
        <ele>73</ele>
        <time>2021-03-27T11:55:57Z</time>
      </trkpt>
      <trkpt lat="43.72522" lon="3.87489">
        <ele>73</ele>
        <time>2021-03-27T11:55:58Z</time>
      </trkpt>
      <trkpt lat="43.72524" lon="3.87489">
        <ele>73</ele>
        <time>2021-03-27T11:55:59Z</time>
      </trkpt>
      <trkpt lat="43.72527" lon="3.8749">
        <ele>73</ele>
        <time>2021-03-27T11:56:00Z</time>
      </trkpt>
      <trkpt lat="43.72531" lon="3.87492">
        <ele>73</ele>
        <time>2021-03-27T11:56:01Z</time>
      </trkpt>
      <trkpt lat="43.72532" lon="3.87493">
        <ele>73</ele>
        <time>2021-03-27T11:56:02Z</time>
      </trkpt>
      <trkpt lat="43.72534" lon="3.87494">
        <ele>73</ele>
        <time>2021-03-27T11:56:04Z</time>
      </trkpt>
      <trkpt lat="43.72537" lon="3.87495">
        <ele>73</ele>
        <time>2021-03-27T11:56:05Z</time>
      </trkpt>
      <trkpt lat="43.7254" lon="3.87495">
        <ele>74</ele>
        <time>2021-03-27T11:56:07Z</time>
      </trkpt>
      <trkpt lat="43.72543" lon="3.87496">
        <ele>74</ele>
        <time>2021-03-27T11:56:10Z</time>
      </trkpt>
      <trkpt lat="43.72545" lon="3.87497">
        <ele>74</ele>
        <time>2021-03-27T11:56:12Z</time>
      </trkpt>
      <trkpt lat="43.72548" lon="3.87496">
        <ele>74</ele>
        <time>2021-03-27T11:56:14Z</time>
      </trkpt>
      <trkpt lat="43.7255" lon="3.87496">
        <ele>74</ele>
        <time>2021-03-27T11:56:16Z</time>
      </trkpt>
      <trkpt lat="43.72552" lon="3.87495">
        <ele>75</ele>
        <time>2021-03-27T11:56:18Z</time>
      </trkpt>
      <trkpt lat="43.72554" lon="3.87495">
        <ele>75</ele>
        <time>2021-03-27T11:56:19Z</time>
      </trkpt>
      <trkpt lat="43.72556" lon="3.87495">
        <ele>75</ele>
        <time>2021-03-27T11:56:21Z</time>
      </trkpt>
      <trkpt lat="43.72559" lon="3.87495">
        <ele>75</ele>
        <time>2021-03-27T11:56:23Z</time>
      </trkpt>
      <trkpt lat="43.72561" lon="3.87495">
        <ele>75</ele>
        <time>2021-03-27T11:56:25Z</time>
      </trkpt>
      <trkpt lat="43.72564" lon="3.87495">
        <ele>77</ele>
        <time>2021-03-27T11:56:27Z</time>
      </trkpt>
      <trkpt lat="43.72566" lon="3.87494">
        <ele>77</ele>
        <time>2021-03-27T11:56:30Z</time>
      </trkpt>
      <trkpt lat="43.72568" lon="3.87494">
        <ele>77</ele>
        <time>2021-03-27T11:56:31Z</time>
      </trkpt>
      <trkpt lat="43.7257" lon="3.87494">
        <ele>77</ele>
        <time>2021-03-27T11:56:35Z</time>
      </trkpt>
      <trkpt lat="43.7257" lon="3.8749">
        <ele>79</ele>
        <time>2021-03-27T11:56:37Z</time>
      </trkpt>
      <trkpt lat="43.72569" lon="3.87487">
        <ele>79</ele>
        <time>2021-03-27T11:56:39Z</time>
      </trkpt>
      <trkpt lat="43.72569" lon="3.87482">
        <ele>79</ele>
        <time>2021-03-27T11:56:41Z</time>
      </trkpt>
      <trkpt lat="43.72569" lon="3.8748">
        <ele>79</ele>
        <time>2021-03-27T11:56:42Z</time>
      </trkpt>
      <trkpt lat="43.72568" lon="3.87476">
        <ele>79</ele>
        <time>2021-03-27T11:56:43Z</time>
      </trkpt>
      <trkpt lat="43.7257" lon="3.87469">
        <ele>79</ele>
        <time>2021-03-27T11:56:45Z</time>
      </trkpt>
      <trkpt lat="43.72571" lon="3.87465">
        <ele>79</ele>
        <time>2021-03-27T11:56:46Z</time>
      </trkpt>
      <trkpt lat="43.72573" lon="3.87458">
        <ele>80</ele>
        <time>2021-03-27T11:56:48Z</time>
      </trkpt>
      <trkpt lat="43.72574" lon="3.87455">
        <ele>80</ele>
        <time>2021-03-27T11:56:49Z</time>
      </trkpt>
      <trkpt lat="43.72575" lon="3.87451">
        <ele>80</ele>
        <time>2021-03-27T11:56:51Z</time>
      </trkpt>
      <trkpt lat="43.72576" lon="3.87447">
        <ele>80</ele>
        <time>2021-03-27T11:56:53Z</time>
      </trkpt>
      <trkpt lat="43.72579" lon="3.87444">
        <ele>80</ele>
        <time>2021-03-27T11:56:55Z</time>
      </trkpt>
      <trkpt lat="43.72582" lon="3.87442">
        <ele>81</ele>
        <time>2021-03-27T11:56:57Z</time>
      </trkpt>
      <trkpt lat="43.72585" lon="3.8744">
        <ele>81</ele>
        <time>2021-03-27T11:56:59Z</time>
      </trkpt>
      <trkpt lat="43.72587" lon="3.87439">
        <ele>81</ele>
        <time>2021-03-27T11:57:01Z</time>
      </trkpt>
      <trkpt lat="43.72589" lon="3.87437">
        <ele>81</ele>
        <time>2021-03-27T11:57:03Z</time>
      </trkpt>
      <trkpt lat="43.72592" lon="3.87432">
        <ele>81</ele>
        <time>2021-03-27T11:57:04Z</time>
      </trkpt>
      <trkpt lat="43.72593" lon="3.87427">
        <ele>81</ele>
        <time>2021-03-27T11:57:06Z</time>
      </trkpt>
      <trkpt lat="43.72594" lon="3.87424">
        <ele>81</ele>
        <time>2021-03-27T11:57:08Z</time>
      </trkpt>
      <trkpt lat="43.72595" lon="3.8742">
        <ele>81</ele>
        <time>2021-03-27T11:57:09Z</time>
      </trkpt>
      <trkpt lat="43.72597" lon="3.87414">
        <ele>81</ele>
        <time>2021-03-27T11:57:10Z</time>
      </trkpt>
      <trkpt lat="43.72598" lon="3.87411">
        <ele>81</ele>
        <time>2021-03-27T11:57:11Z</time>
      </trkpt>
      <trkpt lat="43.72599" lon="3.87407">
        <ele>81</ele>
        <time>2021-03-27T11:57:12Z</time>
      </trkpt>
      <trkpt lat="43.726" lon="3.87404">
        <ele>81</ele>
        <time>2021-03-27T11:57:13Z</time>
      </trkpt>
      <trkpt lat="43.72601" lon="3.87401">
        <ele>81</ele>
        <time>2021-03-27T11:57:15Z</time>
      </trkpt>
      <trkpt lat="43.72603" lon="3.87399">
        <ele>76</ele>
        <time>2021-03-27T11:57:18Z</time>
      </trkpt>
      <trkpt lat="43.72605" lon="3.87398">
        <ele>76</ele>
        <time>2021-03-27T11:57:20Z</time>
      </trkpt>
      <trkpt lat="43.72605" lon="3.87399">
        <ele>75</ele>
        <time>2021-03-27T11:57:29Z</time>
      </trkpt>
      <trkpt lat="43.72615" lon="3.87392">
        <ele>74</ele>
        <time>2021-03-27T11:57:36Z</time>
      </trkpt>
      <trkpt lat="43.72617" lon="3.8739">
        <ele>74</ele>
        <time>2021-03-27T11:57:37Z</time>
      </trkpt>
      <trkpt lat="43.72621" lon="3.87387">
        <ele>74</ele>
        <time>2021-03-27T11:57:38Z</time>
      </trkpt>
      <trkpt lat="43.72623" lon="3.87386">
        <ele>74</ele>
        <time>2021-03-27T11:57:39Z</time>
      </trkpt>
      <trkpt lat="43.72627" lon="3.87383">
        <ele>74</ele>
        <time>2021-03-27T11:57:41Z</time>
      </trkpt>
      <trkpt lat="43.72631" lon="3.8738">
        <ele>74</ele>
        <time>2021-03-27T11:57:43Z</time>
      </trkpt>
      <trkpt lat="43.72637" lon="3.87376">
        <ele>74</ele>
        <time>2021-03-27T11:57:45Z</time>
      </trkpt>
      <trkpt lat="43.7264" lon="3.87374">
        <ele>74</ele>
        <time>2021-03-27T11:57:47Z</time>
      </trkpt>
      <trkpt lat="43.72644" lon="3.87369">
        <ele>74</ele>
        <time>2021-03-27T11:57:48Z</time>
      </trkpt>
      <trkpt lat="43.72646" lon="3.87366">
        <ele>74</ele>
        <time>2021-03-27T11:57:50Z</time>
      </trkpt>
      <trkpt lat="43.7265" lon="3.87359">
        <ele>74</ele>
        <time>2021-03-27T11:57:51Z</time>
      </trkpt>
      <trkpt lat="43.72652" lon="3.87356">
        <ele>74</ele>
        <time>2021-03-27T11:57:53Z</time>
      </trkpt>
      <trkpt lat="43.72654" lon="3.87353">
        <ele>74</ele>
        <time>2021-03-27T11:57:54Z</time>
      </trkpt>
      <trkpt lat="43.72657" lon="3.87346">
        <ele>74</ele>
        <time>2021-03-27T11:57:55Z</time>
      </trkpt>
      <trkpt lat="43.72659" lon="3.87343">
        <ele>73</ele>
        <time>2021-03-27T11:57:56Z</time>
      </trkpt>
      <trkpt lat="43.7266" lon="3.87339">
        <ele>73</ele>
        <time>2021-03-27T11:57:57Z</time>
      </trkpt>
      <trkpt lat="43.72661" lon="3.87335">
        <ele>73</ele>
        <time>2021-03-27T11:57:58Z</time>
      </trkpt>
      <trkpt lat="43.72664" lon="3.87327">
        <ele>73</ele>
        <time>2021-03-27T11:58:00Z</time>
      </trkpt>
      <trkpt lat="43.72665" lon="3.87323">
        <ele>73</ele>
        <time>2021-03-27T11:58:01Z</time>
      </trkpt>
      <trkpt lat="43.72666" lon="3.87319">
        <ele>73</ele>
        <time>2021-03-27T11:58:02Z</time>
      </trkpt>
      <trkpt lat="43.72667" lon="3.87315">
        <ele>73</ele>
        <time>2021-03-27T11:58:03Z</time>
      </trkpt>
      <trkpt lat="43.72668" lon="3.87312">
        <ele>73</ele>
        <time>2021-03-27T11:58:04Z</time>
      </trkpt>
      <trkpt lat="43.7267" lon="3.87308">
        <ele>73</ele>
        <time>2021-03-27T11:58:06Z</time>
      </trkpt>
      <trkpt lat="43.72671" lon="3.87302">
        <ele>73</ele>
        <time>2021-03-27T11:58:07Z</time>
      </trkpt>
      <trkpt lat="43.72671" lon="3.87299">
        <ele>73</ele>
        <time>2021-03-27T11:58:08Z</time>
      </trkpt>
      <trkpt lat="43.7267" lon="3.87297">
        <ele>73</ele>
        <time>2021-03-27T11:58:09Z</time>
      </trkpt>
      <trkpt lat="43.72668" lon="3.87295">
        <ele>73</ele>
        <time>2021-03-27T11:58:10Z</time>
      </trkpt>
      <trkpt lat="43.72666" lon="3.87294">
        <ele>73</ele>
        <time>2021-03-27T11:58:12Z</time>
      </trkpt>
      <trkpt lat="43.72663" lon="3.87295">
        <ele>73</ele>
        <time>2021-03-27T11:58:13Z</time>
      </trkpt>
      <trkpt lat="43.7266" lon="3.87298">
        <ele>71</ele>
        <time>2021-03-27T11:58:15Z</time>
      </trkpt>
      <trkpt lat="43.72659" lon="3.87301">
        <ele>71</ele>
        <time>2021-03-27T11:58:16Z</time>
      </trkpt>
      <trkpt lat="43.72655" lon="3.87306">
        <ele>71</ele>
        <time>2021-03-27T11:58:18Z</time>
      </trkpt>
      <trkpt lat="43.72651" lon="3.87309">
        <ele>71</ele>
        <time>2021-03-27T11:58:20Z</time>
      </trkpt>
      <trkpt lat="43.72647" lon="3.87311">
        <ele>71</ele>
        <time>2021-03-27T11:58:22Z</time>
      </trkpt>
      <trkpt lat="43.72643" lon="3.87313">
        <ele>71</ele>
        <time>2021-03-27T11:58:24Z</time>
      </trkpt>
      <trkpt lat="43.7264" lon="3.87316">
        <ele>71</ele>
        <time>2021-03-27T11:58:26Z</time>
      </trkpt>
      <trkpt lat="43.72638" lon="3.87317">
        <ele>71</ele>
        <time>2021-03-27T11:58:27Z</time>
      </trkpt>
      <trkpt lat="43.72634" lon="3.87319">
        <ele>71</ele>
        <time>2021-03-27T11:58:29Z</time>
      </trkpt>
      <trkpt lat="43.72632" lon="3.8732">
        <ele>71</ele>
        <time>2021-03-27T11:58:30Z</time>
      </trkpt>
      <trkpt lat="43.72629" lon="3.87322">
        <ele>71</ele>
        <time>2021-03-27T11:58:32Z</time>
      </trkpt>
      <trkpt lat="43.72626" lon="3.87323">
        <ele>71</ele>
        <time>2021-03-27T11:58:34Z</time>
      </trkpt>
      <trkpt lat="43.72622" lon="3.87324">
        <ele>71</ele>
        <time>2021-03-27T11:58:36Z</time>
      </trkpt>
      <trkpt lat="43.72619" lon="3.87326">
        <ele>71</ele>
        <time>2021-03-27T11:58:38Z</time>
      </trkpt>
      <trkpt lat="43.72616" lon="3.87327">
        <ele>71</ele>
        <time>2021-03-27T11:58:40Z</time>
      </trkpt>
      <trkpt lat="43.72613" lon="3.87327">
        <ele>71</ele>
        <time>2021-03-27T11:58:43Z</time>
      </trkpt>
      <trkpt lat="43.72609" lon="3.87328">
        <ele>71</ele>
        <time>2021-03-27T11:58:44Z</time>
      </trkpt>
      <trkpt lat="43.72606" lon="3.87329">
        <ele>73</ele>
        <time>2021-03-27T11:58:46Z</time>
      </trkpt>
      <trkpt lat="43.72603" lon="3.87331">
        <ele>73</ele>
        <time>2021-03-27T11:58:48Z</time>
      </trkpt>
      <trkpt lat="43.72601" lon="3.87331">
        <ele>73</ele>
        <time>2021-03-27T11:58:49Z</time>
      </trkpt>
      <trkpt lat="43.72599" lon="3.87332">
        <ele>73</ele>
        <time>2021-03-27T11:58:50Z</time>
      </trkpt>
      <trkpt lat="43.72596" lon="3.87332">
        <ele>73</ele>
        <time>2021-03-27T11:58:52Z</time>
      </trkpt>
      <trkpt lat="43.72592" lon="3.87332">
        <ele>73</ele>
        <time>2021-03-27T11:58:55Z</time>
      </trkpt>
      <trkpt lat="43.72589" lon="3.87331">
        <ele>73</ele>
        <time>2021-03-27T11:58:57Z</time>
      </trkpt>
      <trkpt lat="43.72586" lon="3.87329">
        <ele>73</ele>
        <time>2021-03-27T11:58:59Z</time>
      </trkpt>
      <trkpt lat="43.72583" lon="3.87328">
        <ele>73</ele>
        <time>2021-03-27T11:59:00Z</time>
      </trkpt>
      <trkpt lat="43.7258" lon="3.87326">
        <ele>73</ele>
        <time>2021-03-27T11:59:02Z</time>
      </trkpt>
      <trkpt lat="43.72577" lon="3.87325">
        <ele>73</ele>
        <time>2021-03-27T11:59:04Z</time>
      </trkpt>
      <trkpt lat="43.72574" lon="3.87322">
        <ele>73</ele>
        <time>2021-03-27T11:59:06Z</time>
      </trkpt>
      <trkpt lat="43.72571" lon="3.8732">
        <ele>73</ele>
        <time>2021-03-27T11:59:08Z</time>
      </trkpt>
      <trkpt lat="43.72569" lon="3.87317">
        <ele>73</ele>
        <time>2021-03-27T11:59:11Z</time>
      </trkpt>
      <trkpt lat="43.72567" lon="3.87314">
        <ele>73</ele>
        <time>2021-03-27T11:59:12Z</time>
      </trkpt>
      <trkpt lat="43.72565" lon="3.8731">
        <ele>73</ele>
        <time>2021-03-27T11:59:14Z</time>
      </trkpt>
      <trkpt lat="43.72564" lon="3.87307">
        <ele>73</ele>
        <time>2021-03-27T11:59:16Z</time>
      </trkpt>
      <trkpt lat="43.72562" lon="3.87304">
        <ele>73</ele>
        <time>2021-03-27T11:59:18Z</time>
      </trkpt>
      <trkpt lat="43.72561" lon="3.873">
        <ele>73</ele>
        <time>2021-03-27T11:59:21Z</time>
      </trkpt>
      <trkpt lat="43.7256" lon="3.87296">
        <ele>73</ele>
        <time>2021-03-27T11:59:23Z</time>
      </trkpt>
      <trkpt lat="43.72558" lon="3.87293">
        <ele>73</ele>
        <time>2021-03-27T11:59:25Z</time>
      </trkpt>
      <trkpt lat="43.72556" lon="3.8729">
        <ele>73</ele>
        <time>2021-03-27T11:59:27Z</time>
      </trkpt>
      <trkpt lat="43.72554" lon="3.87287">
        <ele>73</ele>
        <time>2021-03-27T11:59:29Z</time>
      </trkpt>
      <trkpt lat="43.72552" lon="3.87283">
        <ele>73</ele>
        <time>2021-03-27T11:59:31Z</time>
      </trkpt>
      <trkpt lat="43.72551" lon="3.8728">
        <ele>73</ele>
        <time>2021-03-27T11:59:32Z</time>
      </trkpt>
      <trkpt lat="43.72549" lon="3.87276">
        <ele>73</ele>
        <time>2021-03-27T11:59:34Z</time>
      </trkpt>
      <trkpt lat="43.72547" lon="3.87273">
        <ele>73</ele>
        <time>2021-03-27T11:59:36Z</time>
      </trkpt>
      <trkpt lat="43.72545" lon="3.87271">
        <ele>73</ele>
        <time>2021-03-27T11:59:38Z</time>
      </trkpt>
      <trkpt lat="43.72543" lon="3.87268">
        <ele>73</ele>
        <time>2021-03-27T11:59:40Z</time>
      </trkpt>
      <trkpt lat="43.72542" lon="3.87264">
        <ele>73</ele>
        <time>2021-03-27T11:59:42Z</time>
      </trkpt>
      <trkpt lat="43.7254" lon="3.87261">
        <ele>73</ele>
        <time>2021-03-27T11:59:44Z</time>
      </trkpt>
      <trkpt lat="43.72538" lon="3.87258">
        <ele>73</ele>
        <time>2021-03-27T11:59:46Z</time>
      </trkpt>
      <trkpt lat="43.72536" lon="3.87255">
        <ele>73</ele>
        <time>2021-03-27T11:59:48Z</time>
      </trkpt>
      <trkpt lat="43.72534" lon="3.87252">
        <ele>73</ele>
        <time>2021-03-27T11:59:51Z</time>
      </trkpt>
      <trkpt lat="43.72531" lon="3.8725">
        <ele>73</ele>
        <time>2021-03-27T11:59:53Z</time>
      </trkpt>
      <trkpt lat="43.72529" lon="3.87248">
        <ele>73</ele>
        <time>2021-03-27T11:59:54Z</time>
      </trkpt>
      <trkpt lat="43.72526" lon="3.87246">
        <ele>73</ele>
        <time>2021-03-27T11:59:57Z</time>
      </trkpt>
      <trkpt lat="43.72524" lon="3.87246">
        <ele>73</ele>
        <time>2021-03-27T11:59:59Z</time>
      </trkpt>
      <trkpt lat="43.72521" lon="3.87245">
        <ele>73</ele>
        <time>2021-03-27T12:00:00Z</time>
      </trkpt>
      <trkpt lat="43.72518" lon="3.87244">
        <ele>73</ele>
        <time>2021-03-27T12:00:02Z</time>
      </trkpt>
      <trkpt lat="43.72514" lon="3.87244">
        <ele>73</ele>
        <time>2021-03-27T12:00:05Z</time>
      </trkpt>
      <trkpt lat="43.72511" lon="3.87243">
        <ele>85</ele>
        <time>2021-03-27T12:00:06Z</time>
      </trkpt>
      <trkpt lat="43.72508" lon="3.87242">
        <ele>85</ele>
        <time>2021-03-27T12:00:08Z</time>
      </trkpt>
      <trkpt lat="43.72505" lon="3.87241">
        <ele>85</ele>
        <time>2021-03-27T12:00:10Z</time>
      </trkpt>
      <trkpt lat="43.72502" lon="3.8724">
        <ele>85</ele>
        <time>2021-03-27T12:00:12Z</time>
      </trkpt>
      <trkpt lat="43.72499" lon="3.87238">
        <ele>85</ele>
        <time>2021-03-27T12:00:14Z</time>
      </trkpt>
      <trkpt lat="43.72496" lon="3.87235">
        <ele>87</ele>
        <time>2021-03-27T12:00:16Z</time>
      </trkpt>
      <trkpt lat="43.72493" lon="3.87234">
        <ele>87</ele>
        <time>2021-03-27T12:00:18Z</time>
      </trkpt>
      <trkpt lat="43.72491" lon="3.87232">
        <ele>87</ele>
        <time>2021-03-27T12:00:21Z</time>
      </trkpt>
      <trkpt lat="43.72488" lon="3.87231">
        <ele>87</ele>
        <time>2021-03-27T12:00:23Z</time>
      </trkpt>
      <trkpt lat="43.72486" lon="3.87228">
        <ele>87</ele>
        <time>2021-03-27T12:00:24Z</time>
      </trkpt>
      <trkpt lat="43.72484" lon="3.87226">
        <ele>87</ele>
        <time>2021-03-27T12:00:27Z</time>
      </trkpt>
      <trkpt lat="43.72482" lon="3.87224">
        <ele>87</ele>
        <time>2021-03-27T12:00:29Z</time>
      </trkpt>
      <trkpt lat="43.7248" lon="3.87222">
        <ele>87</ele>
        <time>2021-03-27T12:00:31Z</time>
      </trkpt>
      <trkpt lat="43.72478" lon="3.87219">
        <ele>87</ele>
        <time>2021-03-27T12:00:33Z</time>
      </trkpt>
      <trkpt lat="43.72477" lon="3.87216">
        <ele>87</ele>
        <time>2021-03-27T12:00:34Z</time>
      </trkpt>
      <trkpt lat="43.72477" lon="3.87212">
        <ele>90</ele>
        <time>2021-03-27T12:00:36Z</time>
      </trkpt>
      <trkpt lat="43.72479" lon="3.87209">
        <ele>90</ele>
        <time>2021-03-27T12:00:39Z</time>
      </trkpt>
      <trkpt lat="43.72481" lon="3.87207">
        <ele>90</ele>
        <time>2021-03-27T12:00:41Z</time>
      </trkpt>
      <trkpt lat="43.72484" lon="3.87205">
        <ele>90</ele>
        <time>2021-03-27T12:00:42Z</time>
      </trkpt>
      <trkpt lat="43.72488" lon="3.87203">
        <ele>90</ele>
        <time>2021-03-27T12:00:44Z</time>
      </trkpt>
      <trkpt lat="43.7249" lon="3.87203">
        <ele>90</ele>
        <time>2021-03-27T12:00:46Z</time>
      </trkpt>
      <trkpt lat="43.72493" lon="3.87201">
        <ele>90</ele>
        <time>2021-03-27T12:00:47Z</time>
      </trkpt>
      <trkpt lat="43.72495" lon="3.87201">
        <ele>90</ele>
        <time>2021-03-27T12:00:48Z</time>
      </trkpt>
      <trkpt lat="43.72498" lon="3.87201">
        <ele>90</ele>
        <time>2021-03-27T12:00:50Z</time>
      </trkpt>
      <trkpt lat="43.725" lon="3.872">
        <ele>90</ele>
        <time>2021-03-27T12:00:51Z</time>
      </trkpt>
      <trkpt lat="43.72502" lon="3.872">
        <ele>90</ele>
        <time>2021-03-27T12:00:52Z</time>
      </trkpt>
      <trkpt lat="43.72504" lon="3.872">
        <ele>90</ele>
        <time>2021-03-27T12:00:53Z</time>
      </trkpt>
      <trkpt lat="43.72506" lon="3.87199">
        <ele>90</ele>
        <time>2021-03-27T12:00:54Z</time>
      </trkpt>
      <trkpt lat="43.72508" lon="3.87198">
        <ele>93</ele>
        <time>2021-03-27T12:00:55Z</time>
      </trkpt>
      <trkpt lat="43.72509" lon="3.87197">
        <ele>93</ele>
        <time>2021-03-27T12:00:57Z</time>
      </trkpt>
      <trkpt lat="43.72511" lon="3.87196">
        <ele>93</ele>
        <time>2021-03-27T12:00:58Z</time>
      </trkpt>
      <trkpt lat="43.72513" lon="3.87195">
        <ele>93</ele>
        <time>2021-03-27T12:00:59Z</time>
      </trkpt>
      <trkpt lat="43.72518" lon="3.87193">
        <ele>93</ele>
        <time>2021-03-27T12:01:00Z</time>
      </trkpt>
      <trkpt lat="43.7252" lon="3.87192">
        <ele>93</ele>
        <time>2021-03-27T12:01:01Z</time>
      </trkpt>
      <trkpt lat="43.72522" lon="3.87191">
        <ele>93</ele>
        <time>2021-03-27T12:01:02Z</time>
      </trkpt>
      <trkpt lat="43.72524" lon="3.8719">
        <ele>93</ele>
        <time>2021-03-27T12:01:04Z</time>
      </trkpt>
      <trkpt lat="43.72527" lon="3.87187">
        <ele>93</ele>
        <time>2021-03-27T12:01:05Z</time>
      </trkpt>
      <trkpt lat="43.72528" lon="3.87185">
        <ele>94</ele>
        <time>2021-03-27T12:01:06Z</time>
      </trkpt>
      <trkpt lat="43.7253" lon="3.87182">
        <ele>94</ele>
        <time>2021-03-27T12:01:07Z</time>
      </trkpt>
      <trkpt lat="43.7253" lon="3.8718">
        <ele>94</ele>
        <time>2021-03-27T12:01:08Z</time>
      </trkpt>
      <trkpt lat="43.72531" lon="3.87177">
        <ele>94</ele>
        <time>2021-03-27T12:01:09Z</time>
      </trkpt>
      <trkpt lat="43.72531" lon="3.87174">
        <ele>94</ele>
        <time>2021-03-27T12:01:10Z</time>
      </trkpt>
      <trkpt lat="43.72532" lon="3.87172">
        <ele>94</ele>
        <time>2021-03-27T12:01:11Z</time>
      </trkpt>
      <trkpt lat="43.72531" lon="3.87169">
        <ele>94</ele>
        <time>2021-03-27T12:01:12Z</time>
      </trkpt>
      <trkpt lat="43.72531" lon="3.87166">
        <ele>94</ele>
        <time>2021-03-27T12:01:13Z</time>
      </trkpt>
      <trkpt lat="43.72531" lon="3.87164">
        <ele>94</ele>
        <time>2021-03-27T12:01:14Z</time>
      </trkpt>
      <trkpt lat="43.7253" lon="3.87161">
        <ele>94</ele>
        <time>2021-03-27T12:01:16Z</time>
      </trkpt>
      <trkpt lat="43.72529" lon="3.87158">
        <ele>94</ele>
        <time>2021-03-27T12:01:17Z</time>
      </trkpt>
      <trkpt lat="43.72528" lon="3.87155">
        <ele>94</ele>
        <time>2021-03-27T12:01:18Z</time>
      </trkpt>
      <trkpt lat="43.72527" lon="3.87153">
        <ele>94</ele>
        <time>2021-03-27T12:01:19Z</time>
      </trkpt>
      <trkpt lat="43.72526" lon="3.8715">
        <ele>94</ele>
        <time>2021-03-27T12:01:20Z</time>
      </trkpt>
      <trkpt lat="43.72525" lon="3.87148">
        <ele>94</ele>
        <time>2021-03-27T12:01:21Z</time>
      </trkpt>
      <trkpt lat="43.72522" lon="3.87143">
        <ele>94</ele>
        <time>2021-03-27T12:01:22Z</time>
      </trkpt>
      <trkpt lat="43.72521" lon="3.8714">
        <ele>94</ele>
        <time>2021-03-27T12:01:23Z</time>
      </trkpt>
      <trkpt lat="43.72519" lon="3.87138">
        <ele>94</ele>
        <time>2021-03-27T12:01:24Z</time>
      </trkpt>
      <trkpt lat="43.72517" lon="3.87133">
        <ele>94</ele>
        <time>2021-03-27T12:01:26Z</time>
      </trkpt>
      <trkpt lat="43.72515" lon="3.87128">
        <ele>94</ele>
        <time>2021-03-27T12:01:28Z</time>
      </trkpt>
      <trkpt lat="43.72514" lon="3.87126">
        <ele>94</ele>
        <time>2021-03-27T12:01:29Z</time>
      </trkpt>
      <trkpt lat="43.72512" lon="3.87123">
        <ele>94</ele>
        <time>2021-03-27T12:01:30Z</time>
      </trkpt>
      <trkpt lat="43.72511" lon="3.87121">
        <ele>94</ele>
        <time>2021-03-27T12:01:31Z</time>
      </trkpt>
      <trkpt lat="43.7251" lon="3.87118">
        <ele>94</ele>
        <time>2021-03-27T12:01:32Z</time>
      </trkpt>
      <trkpt lat="43.72509" lon="3.87115">
        <ele>94</ele>
        <time>2021-03-27T12:01:33Z</time>
      </trkpt>
      <trkpt lat="43.72507" lon="3.87113">
        <ele>94</ele>
        <time>2021-03-27T12:01:34Z</time>
      </trkpt>
      <trkpt lat="43.72506" lon="3.8711">
        <ele>96</ele>
        <time>2021-03-27T12:01:35Z</time>
      </trkpt>
      <trkpt lat="43.72505" lon="3.87108">
        <ele>96</ele>
        <time>2021-03-27T12:01:36Z</time>
      </trkpt>
      <trkpt lat="43.72503" lon="3.87105">
        <ele>96</ele>
        <time>2021-03-27T12:01:37Z</time>
      </trkpt>
      <trkpt lat="43.72502" lon="3.87103">
        <ele>96</ele>
        <time>2021-03-27T12:01:38Z</time>
      </trkpt>
      <trkpt lat="43.725" lon="3.871">
        <ele>96</ele>
        <time>2021-03-27T12:01:39Z</time>
      </trkpt>
      <trkpt lat="43.72499" lon="3.87098">
        <ele>96</ele>
        <time>2021-03-27T12:01:40Z</time>
      </trkpt>
      <trkpt lat="43.72495" lon="3.87095">
        <ele>96</ele>
        <time>2021-03-27T12:01:42Z</time>
      </trkpt>
      <trkpt lat="43.72491" lon="3.87092">
        <ele>96</ele>
        <time>2021-03-27T12:01:44Z</time>
      </trkpt>
      <trkpt lat="43.72489" lon="3.87092">
        <ele>96</ele>
        <time>2021-03-27T12:01:45Z</time>
      </trkpt>
      <trkpt lat="43.72486" lon="3.87092">
        <ele>96</ele>
        <time>2021-03-27T12:01:46Z</time>
      </trkpt>
      <trkpt lat="43.72484" lon="3.87092">
        <ele>96</ele>
        <time>2021-03-27T12:01:47Z</time>
      </trkpt>
      <trkpt lat="43.72482" lon="3.87093">
        <ele>96</ele>
        <time>2021-03-27T12:01:48Z</time>
      </trkpt>
      <trkpt lat="43.7248" lon="3.87094">
        <ele>96</ele>
        <time>2021-03-27T12:01:50Z</time>
      </trkpt>
      <trkpt lat="43.72476" lon="3.87097">
        <ele>96</ele>
        <time>2021-03-27T12:01:51Z</time>
      </trkpt>
      <trkpt lat="43.72474" lon="3.87098">
        <ele>96</ele>
        <time>2021-03-27T12:01:53Z</time>
      </trkpt>
      <trkpt lat="43.72472" lon="3.871">
        <ele>96</ele>
        <time>2021-03-27T12:01:54Z</time>
      </trkpt>
      <trkpt lat="43.7247" lon="3.87102">
        <ele>96</ele>
        <time>2021-03-27T12:01:55Z</time>
      </trkpt>
      <trkpt lat="43.72467" lon="3.87107">
        <ele>96</ele>
        <time>2021-03-27T12:01:56Z</time>
      </trkpt>
      <trkpt lat="43.72465" lon="3.87109">
        <ele>96</ele>
        <time>2021-03-27T12:01:57Z</time>
      </trkpt>
      <trkpt lat="43.72462" lon="3.87113">
        <ele>96</ele>
        <time>2021-03-27T12:01:59Z</time>
      </trkpt>
      <trkpt lat="43.7246" lon="3.87115">
        <ele>96</ele>
        <time>2021-03-27T12:02:00Z</time>
      </trkpt>
      <trkpt lat="43.72459" lon="3.87118">
        <ele>96</ele>
        <time>2021-03-27T12:02:02Z</time>
      </trkpt>
      <trkpt lat="43.72455" lon="3.87123">
        <ele>96</ele>
        <time>2021-03-27T12:02:03Z</time>
      </trkpt>
      <trkpt lat="43.72453" lon="3.87125">
        <ele>96</ele>
        <time>2021-03-27T12:02:04Z</time>
      </trkpt>
      <trkpt lat="43.72452" lon="3.87128">
        <ele>97</ele>
        <time>2021-03-27T12:02:06Z</time>
      </trkpt>
      <trkpt lat="43.7245" lon="3.8713">
        <ele>97</ele>
        <time>2021-03-27T12:02:07Z</time>
      </trkpt>
      <trkpt lat="43.72448" lon="3.87133">
        <ele>97</ele>
        <time>2021-03-27T12:02:08Z</time>
      </trkpt>
      <trkpt lat="43.72446" lon="3.87134">
        <ele>97</ele>
        <time>2021-03-27T12:02:09Z</time>
      </trkpt>
      <trkpt lat="43.72444" lon="3.87136">
        <ele>97</ele>
        <time>2021-03-27T12:02:10Z</time>
      </trkpt>
      <trkpt lat="43.72442" lon="3.87138">
        <ele>97</ele>
        <time>2021-03-27T12:02:11Z</time>
      </trkpt>
      <trkpt lat="43.7244" lon="3.87139">
        <ele>97</ele>
        <time>2021-03-27T12:02:12Z</time>
      </trkpt>
      <trkpt lat="43.72437" lon="3.87139">
        <ele>97</ele>
        <time>2021-03-27T12:02:13Z</time>
      </trkpt>
      <trkpt lat="43.72433" lon="3.87138">
        <ele>97</ele>
        <time>2021-03-27T12:02:14Z</time>
      </trkpt>
      <trkpt lat="43.7243" lon="3.87136">
        <ele>97</ele>
        <time>2021-03-27T12:02:15Z</time>
      </trkpt>
      <trkpt lat="43.72428" lon="3.87135">
        <ele>97</ele>
        <time>2021-03-27T12:02:16Z</time>
      </trkpt>
      <trkpt lat="43.72426" lon="3.87133">
        <ele>97</ele>
        <time>2021-03-27T12:02:17Z</time>
      </trkpt>
      <trkpt lat="43.72424" lon="3.87131">
        <ele>97</ele>
        <time>2021-03-27T12:02:18Z</time>
      </trkpt>
      <trkpt lat="43.72422" lon="3.87129">
        <ele>97</ele>
        <time>2021-03-27T12:02:19Z</time>
      </trkpt>
      <trkpt lat="43.7242" lon="3.87127">
        <ele>97</ele>
        <time>2021-03-27T12:02:20Z</time>
      </trkpt>
      <trkpt lat="43.72417" lon="3.87125">
        <ele>97</ele>
        <time>2021-03-27T12:02:22Z</time>
      </trkpt>
      <trkpt lat="43.72415" lon="3.87122">
        <ele>97</ele>
        <time>2021-03-27T12:02:23Z</time>
      </trkpt>
      <trkpt lat="43.72413" lon="3.8712">
        <ele>97</ele>
        <time>2021-03-27T12:02:24Z</time>
      </trkpt>
      <trkpt lat="43.72411" lon="3.87117">
        <ele>97</ele>
        <time>2021-03-27T12:02:25Z</time>
      </trkpt>
      <trkpt lat="43.72409" lon="3.87114">
        <ele>97</ele>
        <time>2021-03-27T12:02:26Z</time>
      </trkpt>
      <trkpt lat="43.72405" lon="3.87109">
        <ele>97</ele>
        <time>2021-03-27T12:02:27Z</time>
      </trkpt>
      <trkpt lat="43.72401" lon="3.87104">
        <ele>97</ele>
        <time>2021-03-27T12:02:29Z</time>
      </trkpt>
      <trkpt lat="43.72398" lon="3.87102">
        <ele>97</ele>
        <time>2021-03-27T12:02:30Z</time>
      </trkpt>
      <trkpt lat="43.72396" lon="3.87099">
        <ele>97</ele>
        <time>2021-03-27T12:02:31Z</time>
      </trkpt>
      <trkpt lat="43.72392" lon="3.87094">
        <ele>97</ele>
        <time>2021-03-27T12:02:33Z</time>
      </trkpt>
      <trkpt lat="43.72389" lon="3.87092">
        <ele>97</ele>
        <time>2021-03-27T12:02:34Z</time>
      </trkpt>
      <trkpt lat="43.72387" lon="3.87089">
        <ele>97</ele>
        <time>2021-03-27T12:02:36Z</time>
      </trkpt>
      <trkpt lat="43.72382" lon="3.87085">
        <ele>97</ele>
        <time>2021-03-27T12:02:37Z</time>
      </trkpt>
      <trkpt lat="43.7238" lon="3.87083">
        <ele>97</ele>
        <time>2021-03-27T12:02:38Z</time>
      </trkpt>
      <trkpt lat="43.72377" lon="3.87081">
        <ele>97</ele>
        <time>2021-03-27T12:02:39Z</time>
      </trkpt>
      <trkpt lat="43.72374" lon="3.8708">
        <ele>97</ele>
        <time>2021-03-27T12:02:40Z</time>
      </trkpt>
      <trkpt lat="43.72371" lon="3.87078">
        <ele>97</ele>
        <time>2021-03-27T12:02:41Z</time>
      </trkpt>
      <trkpt lat="43.72366" lon="3.87078">
        <ele>97</ele>
        <time>2021-03-27T12:02:43Z</time>
      </trkpt>
      <trkpt lat="43.72363" lon="3.87078">
        <ele>97</ele>
        <time>2021-03-27T12:02:45Z</time>
      </trkpt>
      <trkpt lat="43.7236" lon="3.87079">
        <ele>98</ele>
        <time>2021-03-27T12:02:46Z</time>
      </trkpt>
      <trkpt lat="43.72356" lon="3.87084">
        <ele>98</ele>
        <time>2021-03-27T12:02:47Z</time>
      </trkpt>
      <trkpt lat="43.72354" lon="3.87086">
        <ele>98</ele>
        <time>2021-03-27T12:02:48Z</time>
      </trkpt>
      <trkpt lat="43.72353" lon="3.8709">
        <ele>98</ele>
        <time>2021-03-27T12:02:49Z</time>
      </trkpt>
      <trkpt lat="43.72352" lon="3.87094">
        <ele>98</ele>
        <time>2021-03-27T12:02:50Z</time>
      </trkpt>
      <trkpt lat="43.72351" lon="3.87098">
        <ele>98</ele>
        <time>2021-03-27T12:02:51Z</time>
      </trkpt>
      <trkpt lat="43.7235" lon="3.87102">
        <ele>98</ele>
        <time>2021-03-27T12:02:52Z</time>
      </trkpt>
      <trkpt lat="43.7235" lon="3.87106">
        <ele>98</ele>
        <time>2021-03-27T12:02:53Z</time>
      </trkpt>
      <trkpt lat="43.72349" lon="3.8711">
        <ele>98</ele>
        <time>2021-03-27T12:02:55Z</time>
      </trkpt>
      <trkpt lat="43.72347" lon="3.87114">
        <ele>99</ele>
        <time>2021-03-27T12:02:56Z</time>
      </trkpt>
      <trkpt lat="43.72345" lon="3.87117">
        <ele>99</ele>
        <time>2021-03-27T12:02:57Z</time>
      </trkpt>
      <trkpt lat="43.72343" lon="3.87119">
        <ele>99</ele>
        <time>2021-03-27T12:02:58Z</time>
      </trkpt>
      <trkpt lat="43.72338" lon="3.87121">
        <ele>99</ele>
        <time>2021-03-27T12:02:59Z</time>
      </trkpt>
      <trkpt lat="43.72333" lon="3.87122">
        <ele>99</ele>
        <time>2021-03-27T12:03:01Z</time>
      </trkpt>
      <trkpt lat="43.72331" lon="3.87122">
        <ele>99</ele>
        <time>2021-03-27T12:03:03Z</time>
      </trkpt>
      <trkpt lat="43.72328" lon="3.87123">
        <ele>99</ele>
        <time>2021-03-27T12:03:04Z</time>
      </trkpt>
      <trkpt lat="43.72325" lon="3.87125">
        <ele>99</ele>
        <time>2021-03-27T12:03:05Z</time>
      </trkpt>
      <trkpt lat="43.7232" lon="3.8713">
        <ele>99</ele>
        <time>2021-03-27T12:03:06Z</time>
      </trkpt>
      <trkpt lat="43.72318" lon="3.87133">
        <ele>99</ele>
        <time>2021-03-27T12:03:07Z</time>
      </trkpt>
      <trkpt lat="43.72316" lon="3.87137">
        <ele>99</ele>
        <time>2021-03-27T12:03:08Z</time>
      </trkpt>
      <trkpt lat="43.72314" lon="3.8714">
        <ele>99</ele>
        <time>2021-03-27T12:03:09Z</time>
      </trkpt>
      <trkpt lat="43.72312" lon="3.87144">
        <ele>99</ele>
        <time>2021-03-27T12:03:10Z</time>
      </trkpt>
      <trkpt lat="43.72311" lon="3.87147">
        <ele>99</ele>
        <time>2021-03-27T12:03:11Z</time>
      </trkpt>
      <trkpt lat="43.72309" lon="3.8715">
        <ele>99</ele>
        <time>2021-03-27T12:03:12Z</time>
      </trkpt>
      <trkpt lat="43.72308" lon="3.87154">
        <ele>99</ele>
        <time>2021-03-27T12:03:13Z</time>
      </trkpt>
      <trkpt lat="43.72308" lon="3.87158">
        <ele>99</ele>
        <time>2021-03-27T12:03:14Z</time>
      </trkpt>
      <trkpt lat="43.72307" lon="3.87162">
        <ele>99</ele>
        <time>2021-03-27T12:03:16Z</time>
      </trkpt>
      <trkpt lat="43.72306" lon="3.87166">
        <ele>99</ele>
        <time>2021-03-27T12:03:17Z</time>
      </trkpt>
      <trkpt lat="43.72306" lon="3.87171">
        <ele>99</ele>
        <time>2021-03-27T12:03:18Z</time>
      </trkpt>
      <trkpt lat="43.72305" lon="3.8718">
        <ele>99</ele>
        <time>2021-03-27T12:03:19Z</time>
      </trkpt>
      <trkpt lat="43.72305" lon="3.87184">
        <ele>99</ele>
        <time>2021-03-27T12:03:21Z</time>
      </trkpt>
      <trkpt lat="43.72305" lon="3.87188">
        <ele>99</ele>
        <time>2021-03-27T12:03:22Z</time>
      </trkpt>
      <trkpt lat="43.72305" lon="3.87191">
        <ele>99</ele>
        <time>2021-03-27T12:03:23Z</time>
      </trkpt>
      <trkpt lat="43.72305" lon="3.87194">
        <ele>99</ele>
        <time>2021-03-27T12:03:24Z</time>
      </trkpt>
      <trkpt lat="43.72304" lon="3.87197">
        <ele>99</ele>
        <time>2021-03-27T12:03:25Z</time>
      </trkpt>
      <trkpt lat="43.72304" lon="3.87201">
        <ele>98</ele>
        <time>2021-03-27T12:03:26Z</time>
      </trkpt>
      <trkpt lat="43.72302" lon="3.87205">
        <ele>98</ele>
        <time>2021-03-27T12:03:27Z</time>
      </trkpt>
      <trkpt lat="43.723" lon="3.87207">
        <ele>98</ele>
        <time>2021-03-27T12:03:28Z</time>
      </trkpt>
      <trkpt lat="43.72293" lon="3.87203">
        <ele>98</ele>
        <time>2021-03-27T12:03:29Z</time>
      </trkpt>
      <trkpt lat="43.72289" lon="3.87197">
        <ele>98</ele>
        <time>2021-03-27T12:03:30Z</time>
      </trkpt>
      <trkpt lat="43.72287" lon="3.87191">
        <ele>98</ele>
        <time>2021-03-27T12:03:31Z</time>
      </trkpt>
      <trkpt lat="43.72284" lon="3.87185">
        <ele>98</ele>
        <time>2021-03-27T12:03:32Z</time>
      </trkpt>
      <trkpt lat="43.7228" lon="3.8718">
        <ele>98</ele>
        <time>2021-03-27T12:03:33Z</time>
      </trkpt>
      <trkpt lat="43.72278" lon="3.87176">
        <ele>98</ele>
        <time>2021-03-27T12:03:34Z</time>
      </trkpt>
      <trkpt lat="43.72275" lon="3.87174">
        <ele>96</ele>
        <time>2021-03-27T12:03:35Z</time>
      </trkpt>
      <trkpt lat="43.72273" lon="3.87173">
        <ele>96</ele>
        <time>2021-03-27T12:03:36Z</time>
      </trkpt>
      <trkpt lat="43.72271" lon="3.8718">
        <ele>96</ele>
        <time>2021-03-27T12:03:39Z</time>
      </trkpt>
      <trkpt lat="43.72271" lon="3.87184">
        <ele>96</ele>
        <time>2021-03-27T12:03:40Z</time>
      </trkpt>
      <trkpt lat="43.72274" lon="3.87188">
        <ele>96</ele>
        <time>2021-03-27T12:03:41Z</time>
      </trkpt>
      <trkpt lat="43.72276" lon="3.87191">
        <ele>96</ele>
        <time>2021-03-27T12:03:42Z</time>
      </trkpt>
      <trkpt lat="43.72279" lon="3.87195">
        <ele>96</ele>
        <time>2021-03-27T12:03:43Z</time>
      </trkpt>
      <trkpt lat="43.72281" lon="3.87199">
        <ele>96</ele>
        <time>2021-03-27T12:03:44Z</time>
      </trkpt>
      <trkpt lat="43.72282" lon="3.87204">
        <ele>94</ele>
        <time>2021-03-27T12:03:46Z</time>
      </trkpt>
      <trkpt lat="43.72284" lon="3.87209">
        <ele>94</ele>
        <time>2021-03-27T12:03:47Z</time>
      </trkpt>
      <trkpt lat="43.72286" lon="3.87214">
        <ele>94</ele>
        <time>2021-03-27T12:03:48Z</time>
      </trkpt>
      <trkpt lat="43.72288" lon="3.87218">
        <ele>94</ele>
        <time>2021-03-27T12:03:49Z</time>
      </trkpt>
      <trkpt lat="43.72291" lon="3.87222">
        <ele>94</ele>
        <time>2021-03-27T12:03:50Z</time>
      </trkpt>
      <trkpt lat="43.72295" lon="3.87232">
        <ele>94</ele>
        <time>2021-03-27T12:03:51Z</time>
      </trkpt>
      <trkpt lat="43.72297" lon="3.87237">
        <ele>94</ele>
        <time>2021-03-27T12:03:53Z</time>
      </trkpt>
      <trkpt lat="43.72298" lon="3.87243">
        <ele>94</ele>
        <time>2021-03-27T12:03:54Z</time>
      </trkpt>
      <trkpt lat="43.72299" lon="3.8725">
        <ele>93</ele>
        <time>2021-03-27T12:03:55Z</time>
      </trkpt>
      <trkpt lat="43.72299" lon="3.87257">
        <ele>93</ele>
        <time>2021-03-27T12:03:56Z</time>
      </trkpt>
      <trkpt lat="43.72294" lon="3.87268">
        <ele>93</ele>
        <time>2021-03-27T12:03:57Z</time>
      </trkpt>
      <trkpt lat="43.7229" lon="3.87273">
        <ele>93</ele>
        <time>2021-03-27T12:03:59Z</time>
      </trkpt>
      <trkpt lat="43.72288" lon="3.87279">
        <ele>93</ele>
        <time>2021-03-27T12:04:00Z</time>
      </trkpt>
      <trkpt lat="43.72285" lon="3.87284">
        <ele>93</ele>
        <time>2021-03-27T12:04:01Z</time>
      </trkpt>
      <trkpt lat="43.72276" lon="3.87289">
        <ele>93</ele>
        <time>2021-03-27T12:04:02Z</time>
      </trkpt>
      <trkpt lat="43.72272" lon="3.87289">
        <ele>93</ele>
        <time>2021-03-27T12:04:04Z</time>
      </trkpt>
      <trkpt lat="43.72263" lon="3.87289">
        <ele>91</ele>
        <time>2021-03-27T12:04:05Z</time>
      </trkpt>
      <trkpt lat="43.7226" lon="3.87298">
        <ele>91</ele>
        <time>2021-03-27T12:04:07Z</time>
      </trkpt>
      <trkpt lat="43.72261" lon="3.87303">
        <ele>91</ele>
        <time>2021-03-27T12:04:08Z</time>
      </trkpt>
      <trkpt lat="43.72263" lon="3.87308">
        <ele>91</ele>
        <time>2021-03-27T12:04:09Z</time>
      </trkpt>
      <trkpt lat="43.72264" lon="3.87314">
        <ele>91</ele>
        <time>2021-03-27T12:04:10Z</time>
      </trkpt>
      <trkpt lat="43.72266" lon="3.87319">
        <ele>91</ele>
        <time>2021-03-27T12:04:11Z</time>
      </trkpt>
      <trkpt lat="43.72268" lon="3.87324">
        <ele>91</ele>
        <time>2021-03-27T12:04:13Z</time>
      </trkpt>
      <trkpt lat="43.7227" lon="3.87329">
        <ele>91</ele>
        <time>2021-03-27T12:04:14Z</time>
      </trkpt>
      <trkpt lat="43.72273" lon="3.87338">
        <ele>91</ele>
        <time>2021-03-27T12:04:15Z</time>
      </trkpt>
      <trkpt lat="43.72275" lon="3.87343">
        <ele>89</ele>
        <time>2021-03-27T12:04:16Z</time>
      </trkpt>
      <trkpt lat="43.72276" lon="3.87348">
        <ele>89</ele>
        <time>2021-03-27T12:04:17Z</time>
      </trkpt>
      <trkpt lat="43.72277" lon="3.87354">
        <ele>89</ele>
        <time>2021-03-27T12:04:18Z</time>
      </trkpt>
      <trkpt lat="43.72276" lon="3.87361">
        <ele>89</ele>
        <time>2021-03-27T12:04:19Z</time>
      </trkpt>
      <trkpt lat="43.72275" lon="3.87367">
        <ele>89</ele>
        <time>2021-03-27T12:04:20Z</time>
      </trkpt>
      <trkpt lat="43.72273" lon="3.87373">
        <ele>89</ele>
        <time>2021-03-27T12:04:21Z</time>
      </trkpt>
      <trkpt lat="43.72269" lon="3.87378">
        <ele>89</ele>
        <time>2021-03-27T12:04:22Z</time>
      </trkpt>
      <trkpt lat="43.72264" lon="3.87382">
        <ele>89</ele>
        <time>2021-03-27T12:04:23Z</time>
      </trkpt>
      <trkpt lat="43.7226" lon="3.87386">
        <ele>89</ele>
        <time>2021-03-27T12:04:24Z</time>
      </trkpt>
      <trkpt lat="43.72251" lon="3.87393">
        <ele>89</ele>
        <time>2021-03-27T12:04:26Z</time>
      </trkpt>
      <trkpt lat="43.72247" lon="3.87395">
        <ele>89</ele>
        <time>2021-03-27T12:04:27Z</time>
      </trkpt>
      <trkpt lat="43.72243" lon="3.87397">
        <ele>89</ele>
        <time>2021-03-27T12:04:28Z</time>
      </trkpt>
      <trkpt lat="43.72237" lon="3.87399">
        <ele>89</ele>
        <time>2021-03-27T12:04:30Z</time>
      </trkpt>
      <trkpt lat="43.72235" lon="3.87398">
        <ele>89</ele>
        <time>2021-03-27T12:04:31Z</time>
      </trkpt>
      <trkpt lat="43.72231" lon="3.87397">
        <ele>89</ele>
        <time>2021-03-27T12:04:33Z</time>
      </trkpt>
      <trkpt lat="43.72228" lon="3.87397">
        <ele>89</ele>
        <time>2021-03-27T12:04:35Z</time>
      </trkpt>
      <trkpt lat="43.72223" lon="3.87399">
        <ele>88</ele>
        <time>2021-03-27T12:04:36Z</time>
      </trkpt>
      <trkpt lat="43.7222" lon="3.87401">
        <ele>88</ele>
        <time>2021-03-27T12:04:37Z</time>
      </trkpt>
      <trkpt lat="43.72217" lon="3.87402">
        <ele>88</ele>
        <time>2021-03-27T12:04:38Z</time>
      </trkpt>
      <trkpt lat="43.72214" lon="3.87403">
        <ele>88</ele>
        <time>2021-03-27T12:04:39Z</time>
      </trkpt>
      <trkpt lat="43.72212" lon="3.87405">
        <ele>88</ele>
        <time>2021-03-27T12:04:40Z</time>
      </trkpt>
      <trkpt lat="43.72209" lon="3.87406">
        <ele>88</ele>
        <time>2021-03-27T12:04:41Z</time>
      </trkpt>
      <trkpt lat="43.72207" lon="3.87407">
        <ele>88</ele>
        <time>2021-03-27T12:04:42Z</time>
      </trkpt>
      <trkpt lat="43.72205" lon="3.87409">
        <ele>88</ele>
        <time>2021-03-27T12:04:43Z</time>
      </trkpt>
      <trkpt lat="43.72203" lon="3.87411">
        <ele>88</ele>
        <time>2021-03-27T12:04:44Z</time>
      </trkpt>
      <trkpt lat="43.722" lon="3.87414">
        <ele>88</ele>
        <time>2021-03-27T12:04:46Z</time>
      </trkpt>
      <trkpt lat="43.72197" lon="3.87418">
        <ele>88</ele>
        <time>2021-03-27T12:04:48Z</time>
      </trkpt>
      <trkpt lat="43.72195" lon="3.8742">
        <ele>88</ele>
        <time>2021-03-27T12:04:51Z</time>
      </trkpt>
      <trkpt lat="43.72194" lon="3.87422">
        <ele>88</ele>
        <time>2021-03-27T12:04:57Z</time>
      </trkpt>
      <trkpt lat="43.72192" lon="3.87424">
        <ele>88</ele>
        <time>2021-03-27T12:04:59Z</time>
      </trkpt>
      <trkpt lat="43.7219" lon="3.87426">
        <ele>88</ele>
        <time>2021-03-27T12:05:01Z</time>
      </trkpt>
      <trkpt lat="43.72188" lon="3.87428">
        <ele>88</ele>
        <time>2021-03-27T12:05:03Z</time>
      </trkpt>
      <trkpt lat="43.72186" lon="3.87429">
        <ele>90</ele>
        <time>2021-03-27T12:05:05Z</time>
      </trkpt>
      <trkpt lat="43.72185" lon="3.87431">
        <ele>90</ele>
        <time>2021-03-27T12:05:07Z</time>
      </trkpt>
      <trkpt lat="43.72184" lon="3.87433">
        <ele>90</ele>
        <time>2021-03-27T12:05:13Z</time>
      </trkpt>
      <trkpt lat="43.72183" lon="3.87432">
        <ele>90</ele>
        <time>2021-03-27T12:05:17Z</time>
      </trkpt>
      <trkpt lat="43.72175" lon="3.87433">
        <ele>90</ele>
        <time>2021-03-27T12:05:22Z</time>
      </trkpt>
      <trkpt lat="43.72172" lon="3.87432">
        <ele>90</ele>
        <time>2021-03-27T12:05:23Z</time>
      </trkpt>
      <trkpt lat="43.7217" lon="3.8743">
        <ele>90</ele>
        <time>2021-03-27T12:05:25Z</time>
      </trkpt>
      <trkpt lat="43.72165" lon="3.87428">
        <ele>90</ele>
        <time>2021-03-27T12:05:26Z</time>
      </trkpt>
      <trkpt lat="43.72163" lon="3.87427">
        <ele>90</ele>
        <time>2021-03-27T12:05:28Z</time>
      </trkpt>
      <trkpt lat="43.72157" lon="3.87424">
        <ele>90</ele>
        <time>2021-03-27T12:05:29Z</time>
      </trkpt>
      <trkpt lat="43.72155" lon="3.87421">
        <ele>90</ele>
        <time>2021-03-27T12:05:31Z</time>
      </trkpt>
      <trkpt lat="43.72153" lon="3.87418">
        <ele>90</ele>
        <time>2021-03-27T12:05:32Z</time>
      </trkpt>
      <trkpt lat="43.72147" lon="3.87412">
        <ele>90</ele>
        <time>2021-03-27T12:05:33Z</time>
      </trkpt>
      <trkpt lat="43.72141" lon="3.87408">
        <ele>90</ele>
        <time>2021-03-27T12:05:35Z</time>
      </trkpt>
      <trkpt lat="43.72133" lon="3.87406">
        <ele>90</ele>
        <time>2021-03-27T12:05:37Z</time>
      </trkpt>
      <trkpt lat="43.72126" lon="3.87402">
        <ele>90</ele>
        <time>2021-03-27T12:05:39Z</time>
      </trkpt>
      <trkpt lat="43.72121" lon="3.87395">
        <ele>90</ele>
        <time>2021-03-27T12:05:41Z</time>
      </trkpt>
      <trkpt lat="43.72118" lon="3.87391">
        <ele>90</ele>
        <time>2021-03-27T12:05:43Z</time>
      </trkpt>
      <trkpt lat="43.72116" lon="3.87387">
        <ele>90</ele>
        <time>2021-03-27T12:05:44Z</time>
      </trkpt>
      <trkpt lat="43.72112" lon="3.87384">
        <ele>90</ele>
        <time>2021-03-27T12:05:45Z</time>
      </trkpt>
      <trkpt lat="43.72109" lon="3.87381">
        <ele>90</ele>
        <time>2021-03-27T12:05:46Z</time>
      </trkpt>
      <trkpt lat="43.72105" lon="3.87375">
        <ele>90</ele>
        <time>2021-03-27T12:05:47Z</time>
      </trkpt>
      <trkpt lat="43.72102" lon="3.87367">
        <ele>90</ele>
        <time>2021-03-27T12:05:49Z</time>
      </trkpt>
      <trkpt lat="43.721" lon="3.87364">
        <ele>90</ele>
        <time>2021-03-27T12:05:50Z</time>
      </trkpt>
      <trkpt lat="43.72098" lon="3.87362">
        <ele>89</ele>
        <time>2021-03-27T12:05:51Z</time>
      </trkpt>
      <trkpt lat="43.72095" lon="3.8736">
        <ele>89</ele>
        <time>2021-03-27T12:05:52Z</time>
      </trkpt>
      <trkpt lat="43.72093" lon="3.87357">
        <ele>89</ele>
        <time>2021-03-27T12:05:53Z</time>
      </trkpt>
      <trkpt lat="43.7209" lon="3.87354">
        <ele>89</ele>
        <time>2021-03-27T12:05:55Z</time>
      </trkpt>
      <trkpt lat="43.72087" lon="3.87351">
        <ele>89</ele>
        <time>2021-03-27T12:05:56Z</time>
      </trkpt>
      <trkpt lat="43.72084" lon="3.87349">
        <ele>89</ele>
        <time>2021-03-27T12:05:57Z</time>
      </trkpt>
      <trkpt lat="43.72078" lon="3.87343">
        <ele>89</ele>
        <time>2021-03-27T12:05:58Z</time>
      </trkpt>
      <trkpt lat="43.72076" lon="3.87339">
        <ele>89</ele>
        <time>2021-03-27T12:06:00Z</time>
      </trkpt>
      <trkpt lat="43.72073" lon="3.87336">
        <ele>89</ele>
        <time>2021-03-27T12:06:01Z</time>
      </trkpt>
      <trkpt lat="43.7207" lon="3.87334">
        <ele>89</ele>
        <time>2021-03-27T12:06:02Z</time>
      </trkpt>
      <trkpt lat="43.72064" lon="3.87332">
        <ele>89</ele>
        <time>2021-03-27T12:06:03Z</time>
      </trkpt>
      <trkpt lat="43.72061" lon="3.8733">
        <ele>89</ele>
        <time>2021-03-27T12:06:04Z</time>
      </trkpt>
      <trkpt lat="43.72058" lon="3.87326">
        <ele>89</ele>
        <time>2021-03-27T12:06:05Z</time>
      </trkpt>
      <trkpt lat="43.72053" lon="3.87319">
        <ele>89</ele>
        <time>2021-03-27T12:06:07Z</time>
      </trkpt>
      <trkpt lat="43.7205" lon="3.87315">
        <ele>89</ele>
        <time>2021-03-27T12:06:08Z</time>
      </trkpt>
      <trkpt lat="43.72048" lon="3.87311">
        <ele>89</ele>
        <time>2021-03-27T12:06:09Z</time>
      </trkpt>
      <trkpt lat="43.72045" lon="3.87307">
        <ele>89</ele>
        <time>2021-03-27T12:06:11Z</time>
      </trkpt>
      <trkpt lat="43.72042" lon="3.87298">
        <ele>89</ele>
        <time>2021-03-27T12:06:12Z</time>
      </trkpt>
      <trkpt lat="43.72041" lon="3.87294">
        <ele>89</ele>
        <time>2021-03-27T12:06:13Z</time>
      </trkpt>
      <trkpt lat="43.72039" lon="3.87291">
        <ele>89</ele>
        <time>2021-03-27T12:06:14Z</time>
      </trkpt>
      <trkpt lat="43.72036" lon="3.8729">
        <ele>89</ele>
        <time>2021-03-27T12:06:15Z</time>
      </trkpt>
      <trkpt lat="43.72033" lon="3.8729">
        <ele>89</ele>
        <time>2021-03-27T12:06:17Z</time>
      </trkpt>
      <trkpt lat="43.7203" lon="3.87291">
        <ele>89</ele>
        <time>2021-03-27T12:06:18Z</time>
      </trkpt>
      <trkpt lat="43.72028" lon="3.87293">
        <ele>89</ele>
        <time>2021-03-27T12:06:19Z</time>
      </trkpt>
      <trkpt lat="43.72023" lon="3.87298">
        <ele>89</ele>
        <time>2021-03-27T12:06:20Z</time>
      </trkpt>
      <trkpt lat="43.72022" lon="3.873">
        <ele>89</ele>
        <time>2021-03-27T12:06:22Z</time>
      </trkpt>
      <trkpt lat="43.7202" lon="3.87302">
        <ele>89</ele>
        <time>2021-03-27T12:06:23Z</time>
      </trkpt>
      <trkpt lat="43.72016" lon="3.87305">
        <ele>89</ele>
        <time>2021-03-27T12:06:25Z</time>
      </trkpt>
      <trkpt lat="43.72009" lon="3.87311">
        <ele>89</ele>
        <time>2021-03-27T12:06:27Z</time>
      </trkpt>
      <trkpt lat="43.72005" lon="3.87314">
        <ele>89</ele>
        <time>2021-03-27T12:06:29Z</time>
      </trkpt>
      <trkpt lat="43.71997" lon="3.87319">
        <ele>89</ele>
        <time>2021-03-27T12:06:30Z</time>
      </trkpt>
      <trkpt lat="43.71992" lon="3.87324">
        <ele>89</ele>
        <time>2021-03-27T12:06:32Z</time>
      </trkpt>
      <trkpt lat="43.71988" lon="3.87327">
        <ele>89</ele>
        <time>2021-03-27T12:06:34Z</time>
      </trkpt>
      <trkpt lat="43.71987" lon="3.87329">
        <ele>89</ele>
        <time>2021-03-27T12:06:36Z</time>
      </trkpt>
      <trkpt lat="43.71985" lon="3.8733">
        <ele>89</ele>
        <time>2021-03-27T12:06:37Z</time>
      </trkpt>
      <trkpt lat="43.71983" lon="3.87332">
        <ele>89</ele>
        <time>2021-03-27T12:06:38Z</time>
      </trkpt>
      <trkpt lat="43.71977" lon="3.87336">
        <ele>89</ele>
        <time>2021-03-27T12:06:39Z</time>
      </trkpt>
      <trkpt lat="43.71972" lon="3.87339">
        <ele>89</ele>
        <time>2021-03-27T12:06:41Z</time>
      </trkpt>
      <trkpt lat="43.71969" lon="3.8734">
        <ele>89</ele>
        <time>2021-03-27T12:06:43Z</time>
      </trkpt>
      <trkpt lat="43.71966" lon="3.87342">
        <ele>89</ele>
        <time>2021-03-27T12:06:44Z</time>
      </trkpt>
      <trkpt lat="43.71964" lon="3.87343">
        <ele>89</ele>
        <time>2021-03-27T12:06:45Z</time>
      </trkpt>
      <trkpt lat="43.71959" lon="3.87347">
        <ele>89</ele>
        <time>2021-03-27T12:06:47Z</time>
      </trkpt>
      <trkpt lat="43.71954" lon="3.87349">
        <ele>89</ele>
        <time>2021-03-27T12:06:49Z</time>
      </trkpt>
      <trkpt lat="43.71949" lon="3.87351">
        <ele>88</ele>
        <time>2021-03-27T12:06:51Z</time>
      </trkpt>
      <trkpt lat="43.71945" lon="3.87353">
        <ele>88</ele>
        <time>2021-03-27T12:06:53Z</time>
      </trkpt>
      <trkpt lat="43.71941" lon="3.87354">
        <ele>88</ele>
        <time>2021-03-27T12:06:55Z</time>
      </trkpt>
      <trkpt lat="43.7194" lon="3.87355">
        <ele>88</ele>
        <time>2021-03-27T12:06:57Z</time>
      </trkpt>
      <trkpt lat="43.71938" lon="3.87357">
        <ele>88</ele>
        <time>2021-03-27T12:06:58Z</time>
      </trkpt>
      <trkpt lat="43.71935" lon="3.87359">
        <ele>88</ele>
        <time>2021-03-27T12:07:00Z</time>
      </trkpt>
      <trkpt lat="43.71932" lon="3.87361">
        <ele>88</ele>
        <time>2021-03-27T12:07:02Z</time>
      </trkpt>
      <trkpt lat="43.71929" lon="3.87363">
        <ele>88</ele>
        <time>2021-03-27T12:07:04Z</time>
      </trkpt>
      <trkpt lat="43.71926" lon="3.87364">
        <ele>88</ele>
        <time>2021-03-27T12:07:06Z</time>
      </trkpt>
      <trkpt lat="43.71923" lon="3.87364">
        <ele>88</ele>
        <time>2021-03-27T12:07:07Z</time>
      </trkpt>
      <trkpt lat="43.71919" lon="3.87365">
        <ele>88</ele>
        <time>2021-03-27T12:07:09Z</time>
      </trkpt>
      <trkpt lat="43.71917" lon="3.87366">
        <ele>90</ele>
        <time>2021-03-27T12:07:12Z</time>
      </trkpt>
      <trkpt lat="43.71915" lon="3.87368">
        <ele>90</ele>
        <time>2021-03-27T12:07:14Z</time>
      </trkpt>
      <trkpt lat="43.71912" lon="3.87369">
        <ele>90</ele>
        <time>2021-03-27T12:07:15Z</time>
      </trkpt>
      <trkpt lat="43.7191" lon="3.87371">
        <ele>90</ele>
        <time>2021-03-27T12:07:18Z</time>
      </trkpt>
      <trkpt lat="43.71908" lon="3.87372">
        <ele>90</ele>
        <time>2021-03-27T12:07:19Z</time>
      </trkpt>
      <trkpt lat="43.71906" lon="3.87373">
        <ele>90</ele>
        <time>2021-03-27T12:07:22Z</time>
      </trkpt>
      <trkpt lat="43.71903" lon="3.87373">
        <ele>90</ele>
        <time>2021-03-27T12:07:24Z</time>
      </trkpt>
      <trkpt lat="43.71901" lon="3.87373">
        <ele>90</ele>
        <time>2021-03-27T12:07:25Z</time>
      </trkpt>
      <trkpt lat="43.71896" lon="3.87375">
        <ele>90</ele>
        <time>2021-03-27T12:07:28Z</time>
      </trkpt>
      <trkpt lat="43.71889" lon="3.87378">
        <ele>90</ele>
        <time>2021-03-27T12:07:30Z</time>
      </trkpt>
      <trkpt lat="43.71885" lon="3.87379">
        <ele>90</ele>
        <time>2021-03-27T12:07:32Z</time>
      </trkpt>
      <trkpt lat="43.7188" lon="3.8738">
        <ele>90</ele>
        <time>2021-03-27T12:07:33Z</time>
      </trkpt>
      <trkpt lat="43.71867" lon="3.87383">
        <ele>90</ele>
        <time>2021-03-27T12:07:34Z</time>
      </trkpt>
      <trkpt lat="43.7186" lon="3.87384">
        <ele>90</ele>
        <time>2021-03-27T12:07:36Z</time>
      </trkpt>
      <trkpt lat="43.71852" lon="3.87386">
        <ele>90</ele>
        <time>2021-03-27T12:07:37Z</time>
      </trkpt>
      <trkpt lat="43.71834" lon="3.87389">
        <ele>90</ele>
        <time>2021-03-27T12:07:38Z</time>
      </trkpt>
      <trkpt lat="43.71825" lon="3.87392">
        <ele>90</ele>
        <time>2021-03-27T12:07:40Z</time>
      </trkpt>
      <trkpt lat="43.71816" lon="3.87394">
        <ele>90</ele>
        <time>2021-03-27T12:07:41Z</time>
      </trkpt>
      <trkpt lat="43.71807" lon="3.87397">
        <ele>86</ele>
        <time>2021-03-27T12:07:42Z</time>
      </trkpt>
      <trkpt lat="43.71799" lon="3.87399">
        <ele>86</ele>
        <time>2021-03-27T12:07:43Z</time>
      </trkpt>
      <trkpt lat="43.71783" lon="3.87401">
        <ele>86</ele>
        <time>2021-03-27T12:07:44Z</time>
      </trkpt>
      <trkpt lat="43.71772" lon="3.87405">
        <ele>86</ele>
        <time>2021-03-27T12:07:46Z</time>
      </trkpt>
      <trkpt lat="43.71765" lon="3.87409">
        <ele>86</ele>
        <time>2021-03-27T12:07:48Z</time>
      </trkpt>
      <trkpt lat="43.71763" lon="3.8741">
        <ele>86</ele>
        <time>2021-03-27T12:07:49Z</time>
      </trkpt>
      <trkpt lat="43.71762" lon="3.87413">
        <ele>86</ele>
        <time>2021-03-27T12:07:52Z</time>
      </trkpt>
      <trkpt lat="43.71762" lon="3.87417">
        <ele>86</ele>
        <time>2021-03-27T12:07:54Z</time>
      </trkpt>
      <trkpt lat="43.7176" lon="3.87419">
        <ele>86</ele>
        <time>2021-03-27T12:07:55Z</time>
      </trkpt>
      <trkpt lat="43.71759" lon="3.8742">
        <ele>86</ele>
        <time>2021-03-27T12:07:58Z</time>
      </trkpt>
      <trkpt lat="43.71757" lon="3.87424">
        <ele>86</ele>
        <time>2021-03-27T12:08:00Z</time>
      </trkpt>
      <trkpt lat="43.71755" lon="3.87428">
        <ele>86</ele>
        <time>2021-03-27T12:08:02Z</time>
      </trkpt>
      <trkpt lat="43.71753" lon="3.87432">
        <ele>86</ele>
        <time>2021-03-27T12:08:03Z</time>
      </trkpt>
      <trkpt lat="43.71752" lon="3.87434">
        <ele>86</ele>
        <time>2021-03-27T12:08:05Z</time>
      </trkpt>
      <trkpt lat="43.71749" lon="3.87437">
        <ele>86</ele>
        <time>2021-03-27T12:08:07Z</time>
      </trkpt>
      <trkpt lat="43.71745" lon="3.87438">
        <ele>86</ele>
        <time>2021-03-27T12:08:09Z</time>
      </trkpt>
      <trkpt lat="43.71742" lon="3.8744">
        <ele>86</ele>
        <time>2021-03-27T12:08:10Z</time>
      </trkpt>
      <trkpt lat="43.7174" lon="3.8744">
        <ele>87</ele>
        <time>2021-03-27T12:08:11Z</time>
      </trkpt>
      <trkpt lat="43.71736" lon="3.87441">
        <ele>87</ele>
        <time>2021-03-27T12:08:14Z</time>
      </trkpt>
      <trkpt lat="43.71731" lon="3.87444">
        <ele>87</ele>
        <time>2021-03-27T12:08:16Z</time>
      </trkpt>
      <trkpt lat="43.71729" lon="3.87445">
        <ele>87</ele>
        <time>2021-03-27T12:08:17Z</time>
      </trkpt>
      <trkpt lat="43.71727" lon="3.87445">
        <ele>87</ele>
        <time>2021-03-27T12:08:18Z</time>
      </trkpt>
      <trkpt lat="43.71725" lon="3.87447">
        <ele>87</ele>
        <time>2021-03-27T12:08:20Z</time>
      </trkpt>
      <trkpt lat="43.71722" lon="3.87449">
        <ele>88</ele>
        <time>2021-03-27T12:08:22Z</time>
      </trkpt>
      <trkpt lat="43.71718" lon="3.87451">
        <ele>88</ele>
        <time>2021-03-27T12:08:25Z</time>
      </trkpt>
      <trkpt lat="43.71715" lon="3.87453">
        <ele>88</ele>
        <time>2021-03-27T12:08:27Z</time>
      </trkpt>
      <trkpt lat="43.71712" lon="3.87455">
        <ele>88</ele>
        <time>2021-03-27T12:08:29Z</time>
      </trkpt>
      <trkpt lat="43.71709" lon="3.87457">
        <ele>88</ele>
        <time>2021-03-27T12:08:30Z</time>
      </trkpt>
      <trkpt lat="43.71704" lon="3.8746">
        <ele>88</ele>
        <time>2021-03-27T12:08:33Z</time>
      </trkpt>
      <trkpt lat="43.71701" lon="3.87463">
        <ele>88</ele>
        <time>2021-03-27T12:08:35Z</time>
      </trkpt>
      <trkpt lat="43.71699" lon="3.87464">
        <ele>88</ele>
        <time>2021-03-27T12:08:37Z</time>
      </trkpt>
      <trkpt lat="43.71697" lon="3.87467">
        <ele>88</ele>
        <time>2021-03-27T12:08:38Z</time>
      </trkpt>
      <trkpt lat="43.71694" lon="3.87468">
        <ele>90</ele>
        <time>2021-03-27T12:08:41Z</time>
      </trkpt>
      <trkpt lat="43.71691" lon="3.87469">
        <ele>90</ele>
        <time>2021-03-27T12:08:43Z</time>
      </trkpt>
      <trkpt lat="43.71688" lon="3.8747">
        <ele>90</ele>
        <time>2021-03-27T12:08:44Z</time>
      </trkpt>
      <trkpt lat="43.71684" lon="3.87472">
        <ele>90</ele>
        <time>2021-03-27T12:08:46Z</time>
      </trkpt>
      <trkpt lat="43.71681" lon="3.87474">
        <ele>90</ele>
        <time>2021-03-27T12:08:48Z</time>
      </trkpt>
      <trkpt lat="43.71679" lon="3.87475">
        <ele>90</ele>
        <time>2021-03-27T12:08:50Z</time>
      </trkpt>
      <trkpt lat="43.71678" lon="3.87476">
        <ele>90</ele>
        <time>2021-03-27T12:08:51Z</time>
      </trkpt>
      <trkpt lat="43.71674" lon="3.87479">
        <ele>91</ele>
        <time>2021-03-27T12:08:52Z</time>
      </trkpt>
      <trkpt lat="43.71671" lon="3.87482">
        <ele>91</ele>
        <time>2021-03-27T12:08:54Z</time>
      </trkpt>
      <trkpt lat="43.71667" lon="3.87486">
        <ele>91</ele>
        <time>2021-03-27T12:08:56Z</time>
      </trkpt>
      <trkpt lat="43.71665" lon="3.87488">
        <ele>91</ele>
        <time>2021-03-27T12:08:57Z</time>
      </trkpt>
      <trkpt lat="43.71661" lon="3.87491">
        <ele>91</ele>
        <time>2021-03-27T12:08:59Z</time>
      </trkpt>
      <trkpt lat="43.71658" lon="3.87493">
        <ele>91</ele>
        <time>2021-03-27T12:09:00Z</time>
      </trkpt>
      <trkpt lat="43.71656" lon="3.87495">
        <ele>92</ele>
        <time>2021-03-27T12:09:01Z</time>
      </trkpt>
      <trkpt lat="43.71651" lon="3.87499">
        <ele>92</ele>
        <time>2021-03-27T12:09:03Z</time>
      </trkpt>
      <trkpt lat="43.71649" lon="3.87501">
        <ele>92</ele>
        <time>2021-03-27T12:09:05Z</time>
      </trkpt>
      <trkpt lat="43.71647" lon="3.87503">
        <ele>92</ele>
        <time>2021-03-27T12:09:06Z</time>
      </trkpt>
      <trkpt lat="43.71643" lon="3.87507">
        <ele>92</ele>
        <time>2021-03-27T12:09:07Z</time>
      </trkpt>
      <trkpt lat="43.71639" lon="3.87511">
        <ele>92</ele>
        <time>2021-03-27T12:09:09Z</time>
      </trkpt>
      <trkpt lat="43.71635" lon="3.87514">
        <ele>93</ele>
        <time>2021-03-27T12:09:11Z</time>
      </trkpt>
      <trkpt lat="43.71633" lon="3.87516">
        <ele>93</ele>
        <time>2021-03-27T12:09:13Z</time>
      </trkpt>
      <trkpt lat="43.71631" lon="3.87518">
        <ele>93</ele>
        <time>2021-03-27T12:09:14Z</time>
      </trkpt>
      <trkpt lat="43.71627" lon="3.87523">
        <ele>93</ele>
        <time>2021-03-27T12:09:15Z</time>
      </trkpt>
      <trkpt lat="43.71625" lon="3.87526">
        <ele>93</ele>
        <time>2021-03-27T12:09:17Z</time>
      </trkpt>
      <trkpt lat="43.71624" lon="3.87529">
        <ele>93</ele>
        <time>2021-03-27T12:09:18Z</time>
      </trkpt>
      <trkpt lat="43.71622" lon="3.87532">
        <ele>93</ele>
        <time>2021-03-27T12:09:19Z</time>
      </trkpt>
      <trkpt lat="43.7162" lon="3.87535">
        <ele>93</ele>
        <time>2021-03-27T12:09:20Z</time>
      </trkpt>
      <trkpt lat="43.71617" lon="3.8754">
        <ele>94</ele>
        <time>2021-03-27T12:09:21Z</time>
      </trkpt>
      <trkpt lat="43.71615" lon="3.87544">
        <ele>94</ele>
        <time>2021-03-27T12:09:23Z</time>
      </trkpt>
      <trkpt lat="43.71613" lon="3.87546">
        <ele>94</ele>
        <time>2021-03-27T12:09:24Z</time>
      </trkpt>
      <trkpt lat="43.71611" lon="3.8755">
        <ele>94</ele>
        <time>2021-03-27T12:09:26Z</time>
      </trkpt>
      <trkpt lat="43.71609" lon="3.87552">
        <ele>94</ele>
        <time>2021-03-27T12:09:27Z</time>
      </trkpt>
      <trkpt lat="43.71608" lon="3.87554">
        <ele>94</ele>
        <time>2021-03-27T12:09:28Z</time>
      </trkpt>
      <trkpt lat="43.71606" lon="3.87558">
        <ele>94</ele>
        <time>2021-03-27T12:09:30Z</time>
      </trkpt>
      <trkpt lat="43.71605" lon="3.8756">
        <ele>96</ele>
        <time>2021-03-27T12:09:31Z</time>
      </trkpt>
      <trkpt lat="43.71603" lon="3.87565">
        <ele>96</ele>
        <time>2021-03-27T12:09:33Z</time>
      </trkpt>
      <trkpt lat="43.71602" lon="3.87567">
        <ele>96</ele>
        <time>2021-03-27T12:09:34Z</time>
      </trkpt>
      <trkpt lat="43.716" lon="3.87571">
        <ele>96</ele>
        <time>2021-03-27T12:09:36Z</time>
      </trkpt>
      <trkpt lat="43.71598" lon="3.87575">
        <ele>96</ele>
        <time>2021-03-27T12:09:38Z</time>
      </trkpt>
      <trkpt lat="43.71596" lon="3.87579">
        <ele>96</ele>
        <time>2021-03-27T12:09:40Z</time>
      </trkpt>
      <trkpt lat="43.71596" lon="3.87582">
        <ele>96</ele>
        <time>2021-03-27T12:09:43Z</time>
      </trkpt>
      <trkpt lat="43.71595" lon="3.87586">
        <ele>96</ele>
        <time>2021-03-27T12:09:44Z</time>
      </trkpt>
      <trkpt lat="43.71594" lon="3.87591">
        <ele>96</ele>
        <time>2021-03-27T12:09:47Z</time>
      </trkpt>
      <trkpt lat="43.71593" lon="3.87593">
        <ele>96</ele>
        <time>2021-03-27T12:09:48Z</time>
      </trkpt>
      <trkpt lat="43.71592" lon="3.87597">
        <ele>96</ele>
        <time>2021-03-27T12:09:49Z</time>
      </trkpt>
      <trkpt lat="43.71592" lon="3.87599">
        <ele>96</ele>
        <time>2021-03-27T12:09:50Z</time>
      </trkpt>
      <trkpt lat="43.7159" lon="3.87605">
        <ele>99</ele>
        <time>2021-03-27T12:09:52Z</time>
      </trkpt>
      <trkpt lat="43.71588" lon="3.8761">
        <ele>99</ele>
        <time>2021-03-27T12:09:54Z</time>
      </trkpt>
      <trkpt lat="43.71588" lon="3.87612">
        <ele>99</ele>
        <time>2021-03-27T12:09:55Z</time>
      </trkpt>
      <trkpt lat="43.71586" lon="3.87616">
        <ele>99</ele>
        <time>2021-03-27T12:09:57Z</time>
      </trkpt>
      <trkpt lat="43.71585" lon="3.87619">
        <ele>99</ele>
        <time>2021-03-27T12:09:59Z</time>
      </trkpt>
      <trkpt lat="43.71584" lon="3.87622">
        <ele>101</ele>
        <time>2021-03-27T12:10:01Z</time>
      </trkpt>
      <trkpt lat="43.71583" lon="3.87625">
        <ele>101</ele>
        <time>2021-03-27T12:10:03Z</time>
      </trkpt>
      <trkpt lat="43.71583" lon="3.87628">
        <ele>101</ele>
        <time>2021-03-27T12:10:06Z</time>
      </trkpt>
      <trkpt lat="43.7158" lon="3.8763">
        <ele>101</ele>
        <time>2021-03-27T12:10:08Z</time>
      </trkpt>
      <trkpt lat="43.71577" lon="3.87627">
        <ele>101</ele>
        <time>2021-03-27T12:10:10Z</time>
      </trkpt>
      <trkpt lat="43.71576" lon="3.87625">
        <ele>101</ele>
        <time>2021-03-27T12:10:11Z</time>
      </trkpt>
      <trkpt lat="43.71576" lon="3.87621">
        <ele>101</ele>
        <time>2021-03-27T12:10:13Z</time>
      </trkpt>
      <trkpt lat="43.71576" lon="3.87617">
        <ele>101</ele>
        <time>2021-03-27T12:10:15Z</time>
      </trkpt>
      <trkpt lat="43.71575" lon="3.87613">
        <ele>101</ele>
        <time>2021-03-27T12:10:17Z</time>
      </trkpt>
      <trkpt lat="43.71573" lon="3.87611">
        <ele>101</ele>
        <time>2021-03-27T12:10:18Z</time>
      </trkpt>
      <trkpt lat="43.7157" lon="3.87609">
        <ele>102</ele>
        <time>2021-03-27T12:10:21Z</time>
      </trkpt>
      <trkpt lat="43.71568" lon="3.87609">
        <ele>102</ele>
        <time>2021-03-27T12:10:23Z</time>
      </trkpt>
      <trkpt lat="43.71565" lon="3.8761">
        <ele>102</ele>
        <time>2021-03-27T12:10:24Z</time>
      </trkpt>
      <trkpt lat="43.71562" lon="3.8761">
        <ele>102</ele>
        <time>2021-03-27T12:10:26Z</time>
      </trkpt>
      <trkpt lat="43.7156" lon="3.8761">
        <ele>102</ele>
        <time>2021-03-27T12:10:28Z</time>
      </trkpt>
      <trkpt lat="43.71557" lon="3.87611">
        <ele>102</ele>
        <time>2021-03-27T12:10:31Z</time>
      </trkpt>
      <trkpt lat="43.71555" lon="3.87611">
        <ele>103</ele>
        <time>2021-03-27T12:10:32Z</time>
      </trkpt>
      <trkpt lat="43.71552" lon="3.87612">
        <ele>103</ele>
        <time>2021-03-27T12:10:35Z</time>
      </trkpt>
      <trkpt lat="43.7155" lon="3.87613">
        <ele>103</ele>
        <time>2021-03-27T12:10:36Z</time>
      </trkpt>
      <trkpt lat="43.71547" lon="3.87614">
        <ele>103</ele>
        <time>2021-03-27T12:10:39Z</time>
      </trkpt>
      <trkpt lat="43.71544" lon="3.87614">
        <ele>103</ele>
        <time>2021-03-27T12:10:40Z</time>
      </trkpt>
      <trkpt lat="43.71542" lon="3.87615">
        <ele>103</ele>
        <time>2021-03-27T12:10:42Z</time>
      </trkpt>
      <trkpt lat="43.71539" lon="3.87615">
        <ele>103</ele>
        <time>2021-03-27T12:10:44Z</time>
      </trkpt>
      <trkpt lat="43.71536" lon="3.87616">
        <ele>103</ele>
        <time>2021-03-27T12:10:47Z</time>
      </trkpt>
      <trkpt lat="43.71534" lon="3.87616">
        <ele>103</ele>
        <time>2021-03-27T12:10:48Z</time>
      </trkpt>
      <trkpt lat="43.71531" lon="3.87616">
        <ele>103</ele>
        <time>2021-03-27T12:10:51Z</time>
      </trkpt>
      <trkpt lat="43.71528" lon="3.87616">
        <ele>103</ele>
        <time>2021-03-27T12:10:53Z</time>
      </trkpt>
      <trkpt lat="43.71525" lon="3.87616">
        <ele>103</ele>
        <time>2021-03-27T12:10:55Z</time>
      </trkpt>
      <trkpt lat="43.71521" lon="3.87616">
        <ele>103</ele>
        <time>2021-03-27T12:10:57Z</time>
      </trkpt>
      <trkpt lat="43.71518" lon="3.87615">
        <ele>103</ele>
        <time>2021-03-27T12:10:59Z</time>
      </trkpt>
      <trkpt lat="43.71515" lon="3.87615">
        <ele>103</ele>
        <time>2021-03-27T12:11:00Z</time>
      </trkpt>
      <trkpt lat="43.71512" lon="3.87615">
        <ele>103</ele>
        <time>2021-03-27T12:11:02Z</time>
      </trkpt>
      <trkpt lat="43.71509" lon="3.87614">
        <ele>103</ele>
        <time>2021-03-27T12:11:05Z</time>
      </trkpt>
      <trkpt lat="43.71506" lon="3.87614">
        <ele>103</ele>
        <time>2021-03-27T12:11:07Z</time>
      </trkpt>
      <trkpt lat="43.71503" lon="3.87614">
        <ele>103</ele>
        <time>2021-03-27T12:11:09Z</time>
      </trkpt>
      <trkpt lat="43.715" lon="3.87614">
        <ele>103</ele>
        <time>2021-03-27T12:11:10Z</time>
      </trkpt>
      <trkpt lat="43.71496" lon="3.87613">
        <ele>109</ele>
        <time>2021-03-27T12:11:12Z</time>
      </trkpt>
      <trkpt lat="43.71493" lon="3.87613">
        <ele>109</ele>
        <time>2021-03-27T12:11:14Z</time>
      </trkpt>
      <trkpt lat="43.7149" lon="3.87613">
        <ele>109</ele>
        <time>2021-03-27T12:11:17Z</time>
      </trkpt>
      <trkpt lat="43.71487" lon="3.87612">
        <ele>109</ele>
        <time>2021-03-27T12:11:19Z</time>
      </trkpt>
      <trkpt lat="43.71485" lon="3.87612">
        <ele>109</ele>
        <time>2021-03-27T12:11:21Z</time>
      </trkpt>
      <trkpt lat="43.71483" lon="3.87612">
        <ele>109</ele>
        <time>2021-03-27T12:11:28Z</time>
      </trkpt>
      <trkpt lat="43.71488" lon="3.87607">
        <ele>112</ele>
        <time>2021-03-27T12:11:38Z</time>
      </trkpt>
      <trkpt lat="43.7149" lon="3.87604">
        <ele>112</ele>
        <time>2021-03-27T12:11:39Z</time>
      </trkpt>
      <trkpt lat="43.7149" lon="3.87601">
        <ele>112</ele>
        <time>2021-03-27T12:11:40Z</time>
      </trkpt>
      <trkpt lat="43.71489" lon="3.87598">
        <ele>112</ele>
        <time>2021-03-27T12:11:41Z</time>
      </trkpt>
      <trkpt lat="43.71488" lon="3.87593">
        <ele>112</ele>
        <time>2021-03-27T12:11:42Z</time>
      </trkpt>
      <trkpt lat="43.71486" lon="3.87588">
        <ele>112</ele>
        <time>2021-03-27T12:11:44Z</time>
      </trkpt>
      <trkpt lat="43.71484" lon="3.87576">
        <ele>112</ele>
        <time>2021-03-27T12:11:45Z</time>
      </trkpt>
      <trkpt lat="43.71484" lon="3.87569">
        <ele>112</ele>
        <time>2021-03-27T12:11:47Z</time>
      </trkpt>
      <trkpt lat="43.7148" lon="3.87557">
        <ele>110</ele>
        <time>2021-03-27T12:11:48Z</time>
      </trkpt>
      <trkpt lat="43.71477" lon="3.87552">
        <ele>110</ele>
        <time>2021-03-27T12:11:49Z</time>
      </trkpt>
      <trkpt lat="43.71476" lon="3.87547">
        <ele>110</ele>
        <time>2021-03-27T12:11:50Z</time>
      </trkpt>
      <trkpt lat="43.71477" lon="3.87542">
        <ele>110</ele>
        <time>2021-03-27T12:11:51Z</time>
      </trkpt>
      <trkpt lat="43.71478" lon="3.87536">
        <ele>110</ele>
        <time>2021-03-27T12:11:52Z</time>
      </trkpt>
      <trkpt lat="43.71479" lon="3.87531">
        <ele>110</ele>
        <time>2021-03-27T12:11:53Z</time>
      </trkpt>
      <trkpt lat="43.7148" lon="3.87522">
        <ele>110</ele>
        <time>2021-03-27T12:11:55Z</time>
      </trkpt>
      <trkpt lat="43.7148" lon="3.87519">
        <ele>110</ele>
        <time>2021-03-27T12:11:56Z</time>
      </trkpt>
      <trkpt lat="43.7148" lon="3.87516">
        <ele>109</ele>
        <time>2021-03-27T12:11:58Z</time>
      </trkpt>
      <trkpt lat="43.71482" lon="3.87511">
        <ele>109</ele>
        <time>2021-03-27T12:11:59Z</time>
      </trkpt>
      <trkpt lat="43.71484" lon="3.87509">
        <ele>109</ele>
        <time>2021-03-27T12:12:00Z</time>
      </trkpt>
      <trkpt lat="43.71486" lon="3.87506">
        <ele>109</ele>
        <time>2021-03-27T12:12:01Z</time>
      </trkpt>
      <trkpt lat="43.71488" lon="3.87503">
        <ele>109</ele>
        <time>2021-03-27T12:12:02Z</time>
      </trkpt>
      <trkpt lat="43.7149" lon="3.875">
        <ele>109</ele>
        <time>2021-03-27T12:12:03Z</time>
      </trkpt>
      <trkpt lat="43.71491" lon="3.87497">
        <ele>109</ele>
        <time>2021-03-27T12:12:04Z</time>
      </trkpt>
      <trkpt lat="43.71492" lon="3.87494">
        <ele>109</ele>
        <time>2021-03-27T12:12:05Z</time>
      </trkpt>
      <trkpt lat="43.71491" lon="3.8749">
        <ele>109</ele>
        <time>2021-03-27T12:12:06Z</time>
      </trkpt>
      <trkpt lat="43.71491" lon="3.87487">
        <ele>109</ele>
        <time>2021-03-27T12:12:07Z</time>
      </trkpt>
      <trkpt lat="43.71491" lon="3.87484">
        <ele>109</ele>
        <time>2021-03-27T12:12:08Z</time>
      </trkpt>
      <trkpt lat="43.71491" lon="3.8748">
        <ele>109</ele>
        <time>2021-03-27T12:12:09Z</time>
      </trkpt>
      <trkpt lat="43.71491" lon="3.87476">
        <ele>109</ele>
        <time>2021-03-27T12:12:10Z</time>
      </trkpt>
      <trkpt lat="43.7149" lon="3.87472">
        <ele>109</ele>
        <time>2021-03-27T12:12:12Z</time>
      </trkpt>
      <trkpt lat="43.71489" lon="3.87469">
        <ele>109</ele>
        <time>2021-03-27T12:12:13Z</time>
      </trkpt>
      <trkpt lat="43.71487" lon="3.87467">
        <ele>109</ele>
        <time>2021-03-27T12:12:14Z</time>
      </trkpt>
      <trkpt lat="43.71486" lon="3.87464">
        <ele>109</ele>
        <time>2021-03-27T12:12:15Z</time>
      </trkpt>
      <trkpt lat="43.71486" lon="3.87462">
        <ele>109</ele>
        <time>2021-03-27T12:12:16Z</time>
      </trkpt>
      <trkpt lat="43.71484" lon="3.87456">
        <ele>109</ele>
        <time>2021-03-27T12:12:17Z</time>
      </trkpt>
      <trkpt lat="43.71483" lon="3.87454">
        <ele>109</ele>
        <time>2021-03-27T12:12:18Z</time>
      </trkpt>
      <trkpt lat="43.71482" lon="3.87451">
        <ele>109</ele>
        <time>2021-03-27T12:12:19Z</time>
      </trkpt>
      <trkpt lat="43.71481" lon="3.87449">
        <ele>109</ele>
        <time>2021-03-27T12:12:21Z</time>
      </trkpt>
      <trkpt lat="43.7148" lon="3.87446">
        <ele>109</ele>
        <time>2021-03-27T12:12:22Z</time>
      </trkpt>
      <trkpt lat="43.71479" lon="3.87443">
        <ele>109</ele>
        <time>2021-03-27T12:12:23Z</time>
      </trkpt>
      <trkpt lat="43.71478" lon="3.87439">
        <ele>109</ele>
        <time>2021-03-27T12:12:24Z</time>
      </trkpt>
      <trkpt lat="43.71479" lon="3.8743">
        <ele>109</ele>
        <time>2021-03-27T12:12:25Z</time>
      </trkpt>
      <trkpt lat="43.71481" lon="3.87426">
        <ele>109</ele>
        <time>2021-03-27T12:12:26Z</time>
      </trkpt>
      <trkpt lat="43.71483" lon="3.87423">
        <ele>109</ele>
        <time>2021-03-27T12:12:27Z</time>
      </trkpt>
      <trkpt lat="43.71485" lon="3.8742">
        <ele>109</ele>
        <time>2021-03-27T12:12:28Z</time>
      </trkpt>
      <trkpt lat="43.71486" lon="3.87417">
        <ele>109</ele>
        <time>2021-03-27T12:12:29Z</time>
      </trkpt>
      <trkpt lat="43.71488" lon="3.87415">
        <ele>109</ele>
        <time>2021-03-27T12:12:30Z</time>
      </trkpt>
      <trkpt lat="43.71489" lon="3.87412">
        <ele>109</ele>
        <time>2021-03-27T12:12:31Z</time>
      </trkpt>
      <trkpt lat="43.71491" lon="3.87408">
        <ele>109</ele>
        <time>2021-03-27T12:12:32Z</time>
      </trkpt>
      <trkpt lat="43.71493" lon="3.87405">
        <ele>109</ele>
        <time>2021-03-27T12:12:33Z</time>
      </trkpt>
      <trkpt lat="43.71495" lon="3.87401">
        <ele>109</ele>
        <time>2021-03-27T12:12:35Z</time>
      </trkpt>
      <trkpt lat="43.71501" lon="3.87395">
        <ele>109</ele>
        <time>2021-03-27T12:12:36Z</time>
      </trkpt>
      <trkpt lat="43.71504" lon="3.87392">
        <ele>109</ele>
        <time>2021-03-27T12:12:38Z</time>
      </trkpt>
      <trkpt lat="43.71511" lon="3.87387">
        <ele>109</ele>
        <time>2021-03-27T12:12:39Z</time>
      </trkpt>
      <trkpt lat="43.71514" lon="3.87384">
        <ele>109</ele>
        <time>2021-03-27T12:12:40Z</time>
      </trkpt>
      <trkpt lat="43.71517" lon="3.87382">
        <ele>109</ele>
        <time>2021-03-27T12:12:41Z</time>
      </trkpt>
      <trkpt lat="43.71521" lon="3.87379">
        <ele>109</ele>
        <time>2021-03-27T12:12:42Z</time>
      </trkpt>
      <trkpt lat="43.71524" lon="3.87376">
        <ele>109</ele>
        <time>2021-03-27T12:12:43Z</time>
      </trkpt>
      <trkpt lat="43.71527" lon="3.87374">
        <ele>109</ele>
        <time>2021-03-27T12:12:45Z</time>
      </trkpt>
      <trkpt lat="43.7153" lon="3.87371">
        <ele>109</ele>
        <time>2021-03-27T12:12:46Z</time>
      </trkpt>
      <trkpt lat="43.71533" lon="3.87369">
        <ele>109</ele>
        <time>2021-03-27T12:12:47Z</time>
      </trkpt>
      <trkpt lat="43.71535" lon="3.87367">
        <ele>109</ele>
        <time>2021-03-27T12:12:48Z</time>
      </trkpt>
      <trkpt lat="43.71538" lon="3.87363">
        <ele>109</ele>
        <time>2021-03-27T12:12:49Z</time>
      </trkpt>
      <trkpt lat="43.7154" lon="3.8736">
        <ele>109</ele>
        <time>2021-03-27T12:12:50Z</time>
      </trkpt>
      <trkpt lat="43.71543" lon="3.87356">
        <ele>109</ele>
        <time>2021-03-27T12:12:51Z</time>
      </trkpt>
      <trkpt lat="43.71548" lon="3.87348">
        <ele>109</ele>
        <time>2021-03-27T12:12:52Z</time>
      </trkpt>
      <trkpt lat="43.71551" lon="3.87345">
        <ele>109</ele>
        <time>2021-03-27T12:12:54Z</time>
      </trkpt>
      <trkpt lat="43.71559" lon="3.87341">
        <ele>109</ele>
        <time>2021-03-27T12:12:55Z</time>
      </trkpt>
      <trkpt lat="43.71568" lon="3.87337">
        <ele>108</ele>
        <time>2021-03-27T12:12:57Z</time>
      </trkpt>
      <trkpt lat="43.71571" lon="3.87334">
        <ele>108</ele>
        <time>2021-03-27T12:12:59Z</time>
      </trkpt>
      <trkpt lat="43.71578" lon="3.87328">
        <ele>108</ele>
        <time>2021-03-27T12:13:00Z</time>
      </trkpt>
      <trkpt lat="43.71582" lon="3.87324">
        <ele>108</ele>
        <time>2021-03-27T12:13:02Z</time>
      </trkpt>
      <trkpt lat="43.71586" lon="3.8732">
        <ele>108</ele>
        <time>2021-03-27T12:13:03Z</time>
      </trkpt>
      <trkpt lat="43.71589" lon="3.87315">
        <ele>108</ele>
        <time>2021-03-27T12:13:04Z</time>
      </trkpt>
      <trkpt lat="43.71592" lon="3.87308">
        <ele>108</ele>
        <time>2021-03-27T12:13:05Z</time>
      </trkpt>
      <trkpt lat="43.71594" lon="3.873">
        <ele>108</ele>
        <time>2021-03-27T12:13:06Z</time>
      </trkpt>
      <trkpt lat="43.71597" lon="3.87284">
        <ele>107</ele>
        <time>2021-03-27T12:13:07Z</time>
      </trkpt>
      <trkpt lat="43.71597" lon="3.87274">
        <ele>107</ele>
        <time>2021-03-27T12:13:09Z</time>
      </trkpt>
      <trkpt lat="43.71595" lon="3.87256">
        <ele>107</ele>
        <time>2021-03-27T12:13:10Z</time>
      </trkpt>
      <trkpt lat="43.71592" lon="3.87249">
        <ele>107</ele>
        <time>2021-03-27T12:13:12Z</time>
      </trkpt>
      <trkpt lat="43.7159" lon="3.87243">
        <ele>107</ele>
        <time>2021-03-27T12:13:13Z</time>
      </trkpt>
      <trkpt lat="43.71587" lon="3.87237">
        <ele>107</ele>
        <time>2021-03-27T12:13:14Z</time>
      </trkpt>
      <trkpt lat="43.7159" lon="3.87224">
        <ele>107</ele>
        <time>2021-03-27T12:13:15Z</time>
      </trkpt>
      <trkpt lat="43.71593" lon="3.87219">
        <ele>104</ele>
        <time>2021-03-27T12:13:17Z</time>
      </trkpt>
      <trkpt lat="43.71599" lon="3.87207">
        <ele>104</ele>
        <time>2021-03-27T12:13:18Z</time>
      </trkpt>
      <trkpt lat="43.71602" lon="3.87193">
        <ele>104</ele>
        <time>2021-03-27T12:13:20Z</time>
      </trkpt>
      <trkpt lat="43.71602" lon="3.87185">
        <ele>104</ele>
        <time>2021-03-27T12:13:22Z</time>
      </trkpt>
      <trkpt lat="43.71605" lon="3.87171">
        <ele>104</ele>
        <time>2021-03-27T12:13:23Z</time>
      </trkpt>
      <trkpt lat="43.7161" lon="3.87159">
        <ele>104</ele>
        <time>2021-03-27T12:13:25Z</time>
      </trkpt>
      <trkpt lat="43.71615" lon="3.87156">
        <ele>104</ele>
        <time>2021-03-27T12:13:27Z</time>
      </trkpt>
      <trkpt lat="43.7162" lon="3.87152">
        <ele>100</ele>
        <time>2021-03-27T12:13:28Z</time>
      </trkpt>
      <trkpt lat="43.71627" lon="3.8715">
        <ele>100</ele>
        <time>2021-03-27T12:13:29Z</time>
      </trkpt>
      <trkpt lat="43.71637" lon="3.87147">
        <ele>100</ele>
        <time>2021-03-27T12:13:30Z</time>
      </trkpt>
      <trkpt lat="43.71643" lon="3.8714">
        <ele>100</ele>
        <time>2021-03-27T12:13:32Z</time>
      </trkpt>
      <trkpt lat="43.71645" lon="3.87133">
        <ele>100</ele>
        <time>2021-03-27T12:13:34Z</time>
      </trkpt>
      <trkpt lat="43.71647" lon="3.87128">
        <ele>100</ele>
        <time>2021-03-27T12:13:35Z</time>
      </trkpt>
      <trkpt lat="43.71647" lon="3.87122">
        <ele>100</ele>
        <time>2021-03-27T12:13:36Z</time>
      </trkpt>
      <trkpt lat="43.71646" lon="3.87107">
        <ele>98</ele>
        <time>2021-03-27T12:13:38Z</time>
      </trkpt>
      <trkpt lat="43.71644" lon="3.87091">
        <ele>98</ele>
        <time>2021-03-27T12:13:39Z</time>
      </trkpt>
      <trkpt lat="43.71645" lon="3.87084">
        <ele>98</ele>
        <time>2021-03-27T12:13:41Z</time>
      </trkpt>
      <trkpt lat="43.71646" lon="3.87081">
        <ele>98</ele>
        <time>2021-03-27T12:13:43Z</time>
      </trkpt>
      <trkpt lat="43.71648" lon="3.87077">
        <ele>98</ele>
        <time>2021-03-27T12:13:44Z</time>
      </trkpt>
      <trkpt lat="43.71653" lon="3.87071">
        <ele>98</ele>
        <time>2021-03-27T12:13:45Z</time>
      </trkpt>
      <trkpt lat="43.71656" lon="3.87068">
        <ele>98</ele>
        <time>2021-03-27T12:13:47Z</time>
      </trkpt>
      <trkpt lat="43.7166" lon="3.87064">
        <ele>94</ele>
        <time>2021-03-27T12:13:48Z</time>
      </trkpt>
      <trkpt lat="43.71666" lon="3.87058">
        <ele>94</ele>
        <time>2021-03-27T12:13:49Z</time>
      </trkpt>
      <trkpt lat="43.71669" lon="3.87055">
        <ele>94</ele>
        <time>2021-03-27T12:13:51Z</time>
      </trkpt>
      <trkpt lat="43.71671" lon="3.87052">
        <ele>94</ele>
        <time>2021-03-27T12:13:52Z</time>
      </trkpt>
      <trkpt lat="43.71673" lon="3.87049">
        <ele>94</ele>
        <time>2021-03-27T12:13:53Z</time>
      </trkpt>
      <trkpt lat="43.71677" lon="3.87043">
        <ele>94</ele>
        <time>2021-03-27T12:13:54Z</time>
      </trkpt>
      <trkpt lat="43.71683" lon="3.87037">
        <ele>94</ele>
        <time>2021-03-27T12:13:56Z</time>
      </trkpt>
      <trkpt lat="43.7169" lon="3.87035">
        <ele>94</ele>
        <time>2021-03-27T12:13:58Z</time>
      </trkpt>
      <trkpt lat="43.71694" lon="3.87033">
        <ele>94</ele>
        <time>2021-03-27T12:13:59Z</time>
      </trkpt>
      <trkpt lat="43.71696" lon="3.87031">
        <ele>94</ele>
        <time>2021-03-27T12:14:00Z</time>
      </trkpt>
      <trkpt lat="43.71699" lon="3.87029">
        <ele>94</ele>
        <time>2021-03-27T12:14:02Z</time>
      </trkpt>
      <trkpt lat="43.71705" lon="3.87028">
        <ele>94</ele>
        <time>2021-03-27T12:14:03Z</time>
      </trkpt>
      <trkpt lat="43.71709" lon="3.87027">
        <ele>94</ele>
        <time>2021-03-27T12:14:05Z</time>
      </trkpt>
      <trkpt lat="43.71711" lon="3.87027">
        <ele>87</ele>
        <time>2021-03-27T12:14:07Z</time>
      </trkpt>
      <trkpt lat="43.71715" lon="3.87028">
        <ele>87</ele>
        <time>2021-03-27T12:14:08Z</time>
      </trkpt>
      <trkpt lat="43.71718" lon="3.87028">
        <ele>87</ele>
        <time>2021-03-27T12:14:09Z</time>
      </trkpt>
      <trkpt lat="43.7172" lon="3.87028">
        <ele>87</ele>
        <time>2021-03-27T12:14:10Z</time>
      </trkpt>
      <trkpt lat="43.71723" lon="3.87028">
        <ele>87</ele>
        <time>2021-03-27T12:14:11Z</time>
      </trkpt>
      <trkpt lat="43.71726" lon="3.87027">
        <ele>87</ele>
        <time>2021-03-27T12:14:12Z</time>
      </trkpt>
      <trkpt lat="43.71731" lon="3.87027">
        <ele>87</ele>
        <time>2021-03-27T12:14:13Z</time>
      </trkpt>
      <trkpt lat="43.71735" lon="3.87028">
        <ele>87</ele>
        <time>2021-03-27T12:14:14Z</time>
      </trkpt>
      <trkpt lat="43.71739" lon="3.87031">
        <ele>87</ele>
        <time>2021-03-27T12:14:15Z</time>
      </trkpt>
      <trkpt lat="43.71742" lon="3.87034">
        <ele>87</ele>
        <time>2021-03-27T12:14:16Z</time>
      </trkpt>
      <trkpt lat="43.71747" lon="3.87038">
        <ele>84</ele>
        <time>2021-03-27T12:14:18Z</time>
      </trkpt>
      <trkpt lat="43.71754" lon="3.87044">
        <ele>84</ele>
        <time>2021-03-27T12:14:19Z</time>
      </trkpt>
      <trkpt lat="43.71757" lon="3.87046">
        <ele>84</ele>
        <time>2021-03-27T12:14:21Z</time>
      </trkpt>
      <trkpt lat="43.71765" lon="3.87048">
        <ele>84</ele>
        <time>2021-03-27T12:14:22Z</time>
      </trkpt>
      <trkpt lat="43.71768" lon="3.87049">
        <ele>84</ele>
        <time>2021-03-27T12:14:24Z</time>
      </trkpt>
      <trkpt lat="43.7177" lon="3.87048">
        <ele>81</ele>
        <time>2021-03-27T12:14:34Z</time>
      </trkpt>
      <trkpt lat="43.7177" lon="3.87059">
        <ele>81</ele>
        <time>2021-03-27T12:14:47Z</time>
      </trkpt>
      <trkpt lat="43.71772" lon="3.87066">
        <ele>81</ele>
        <time>2021-03-27T12:14:48Z</time>
      </trkpt>
      <trkpt lat="43.71773" lon="3.87069">
        <ele>81</ele>
        <time>2021-03-27T12:14:50Z</time>
      </trkpt>
      <trkpt lat="43.71773" lon="3.87072">
        <ele>81</ele>
        <time>2021-03-27T12:14:51Z</time>
      </trkpt>
      <trkpt lat="43.71774" lon="3.87075">
        <ele>81</ele>
        <time>2021-03-27T12:14:59Z</time>
      </trkpt>
      <trkpt lat="43.71774" lon="3.87075">
        <ele>79</ele>
        <time>2021-03-27T12:15:03Z</time>
      </trkpt>
      <trkpt lat="43.71771" lon="3.87068">
        <ele>77</ele>
        <time>2021-03-27T12:15:15Z</time>
      </trkpt>
      <trkpt lat="43.7177" lon="3.87067">
        <ele>77</ele>
        <time>2021-03-27T12:15:16Z</time>
      </trkpt>
      <trkpt lat="43.71772" lon="3.87075">
        <ele>77</ele>
        <time>2021-03-27T12:15:28Z</time>
      </trkpt>
      <trkpt lat="43.71772" lon="3.87075">
        <ele>76</ele>
        <time>2021-03-27T12:15:36Z</time>
      </trkpt>
      <trkpt lat="43.71769" lon="3.87065">
        <ele>75</ele>
        <time>2021-03-27T12:16:25Z</time>
      </trkpt>
      <trkpt lat="43.71768" lon="3.87062">
        <ele>75</ele>
        <time>2021-03-27T12:16:26Z</time>
      </trkpt>
      <trkpt lat="43.71768" lon="3.87055">
        <ele>75</ele>
        <time>2021-03-27T12:16:27Z</time>
      </trkpt>
      <trkpt lat="43.7177" lon="3.87049">
        <ele>75</ele>
        <time>2021-03-27T12:16:29Z</time>
      </trkpt>
      <trkpt lat="43.71772" lon="3.87047">
        <ele>75</ele>
        <time>2021-03-27T12:16:31Z</time>
      </trkpt>
      <trkpt lat="43.71777" lon="3.87043">
        <ele>75</ele>
        <time>2021-03-27T12:16:32Z</time>
      </trkpt>
      <trkpt lat="43.71779" lon="3.8704">
        <ele>75</ele>
        <time>2021-03-27T12:16:34Z</time>
      </trkpt>
      <trkpt lat="43.71784" lon="3.87037">
        <ele>74</ele>
        <time>2021-03-27T12:16:35Z</time>
      </trkpt>
      <trkpt lat="43.71786" lon="3.87036">
        <ele>74</ele>
        <time>2021-03-27T12:16:37Z</time>
      </trkpt>
      <trkpt lat="43.71791" lon="3.87038">
        <ele>74</ele>
        <time>2021-03-27T12:16:38Z</time>
      </trkpt>
      <trkpt lat="43.71793" lon="3.87038">
        <ele>74</ele>
        <time>2021-03-27T12:16:40Z</time>
      </trkpt>
      <trkpt lat="43.71797" lon="3.8704">
        <ele>74</ele>
        <time>2021-03-27T12:16:41Z</time>
      </trkpt>
      <trkpt lat="43.71798" lon="3.87044">
        <ele>74</ele>
        <time>2021-03-27T12:16:44Z</time>
      </trkpt>
      <trkpt lat="43.71798" lon="3.87048">
        <ele>74</ele>
        <time>2021-03-27T12:16:45Z</time>
      </trkpt>
      <trkpt lat="43.71799" lon="3.87051">
        <ele>74</ele>
        <time>2021-03-27T12:16:47Z</time>
      </trkpt>
      <trkpt lat="43.718" lon="3.87053">
        <ele>74</ele>
        <time>2021-03-27T12:16:48Z</time>
      </trkpt>
      <trkpt lat="43.71801" lon="3.87056">
        <ele>74</ele>
        <time>2021-03-27T12:16:49Z</time>
      </trkpt>
      <trkpt lat="43.71804" lon="3.87058">
        <ele>74</ele>
        <time>2021-03-27T12:16:51Z</time>
      </trkpt>
      <trkpt lat="43.71806" lon="3.8706">
        <ele>74</ele>
        <time>2021-03-27T12:16:53Z</time>
      </trkpt>
      <trkpt lat="43.71807" lon="3.87064">
        <ele>74</ele>
        <time>2021-03-27T12:16:55Z</time>
      </trkpt>
      <trkpt lat="43.71806" lon="3.87069">
        <ele>74</ele>
        <time>2021-03-27T12:16:58Z</time>
      </trkpt>
      <trkpt lat="43.71806" lon="3.87073">
        <ele>74</ele>
        <time>2021-03-27T12:17:00Z</time>
      </trkpt>
      <trkpt lat="43.71804" lon="3.87077">
        <ele>74</ele>
        <time>2021-03-27T12:17:01Z</time>
      </trkpt>
      <trkpt lat="43.71802" lon="3.8708">
        <ele>74</ele>
        <time>2021-03-27T12:17:04Z</time>
      </trkpt>
      <trkpt lat="43.71801" lon="3.87083">
        <ele>74</ele>
        <time>2021-03-27T12:17:06Z</time>
      </trkpt>
      <trkpt lat="43.71801" lon="3.87086">
        <ele>74</ele>
        <time>2021-03-27T12:17:07Z</time>
      </trkpt>
      <trkpt lat="43.71801" lon="3.8709">
        <ele>74</ele>
        <time>2021-03-27T12:17:10Z</time>
      </trkpt>
      <trkpt lat="43.71802" lon="3.87092">
        <ele>74</ele>
        <time>2021-03-27T12:17:13Z</time>
      </trkpt>
      <trkpt lat="43.71804" lon="3.87092">
        <ele>74</ele>
        <time>2021-03-27T12:17:16Z</time>
      </trkpt>
      <trkpt lat="43.71805" lon="3.8709">
        <ele>74</ele>
        <time>2021-03-27T12:17:23Z</time>
      </trkpt>
      <trkpt lat="43.71806" lon="3.87088">
        <ele>74</ele>
        <time>2021-03-27T12:17:24Z</time>
      </trkpt>
      <trkpt lat="43.7181" lon="3.87084">
        <ele>75</ele>
        <time>2021-03-27T12:17:25Z</time>
      </trkpt>
      <trkpt lat="43.71813" lon="3.87081">
        <ele>75</ele>
        <time>2021-03-27T12:17:26Z</time>
      </trkpt>
      <trkpt lat="43.71817" lon="3.87077">
        <ele>75</ele>
        <time>2021-03-27T12:17:27Z</time>
      </trkpt>
      <trkpt lat="43.71821" lon="3.87074">
        <ele>75</ele>
        <time>2021-03-27T12:17:28Z</time>
      </trkpt>
      <trkpt lat="43.71825" lon="3.8707">
        <ele>75</ele>
        <time>2021-03-27T12:17:29Z</time>
      </trkpt>
      <trkpt lat="43.7183" lon="3.87067">
        <ele>75</ele>
        <time>2021-03-27T12:17:30Z</time>
      </trkpt>
      <trkpt lat="43.71834" lon="3.87064">
        <ele>75</ele>
        <time>2021-03-27T12:17:31Z</time>
      </trkpt>
      <trkpt lat="43.71838" lon="3.8706">
        <ele>75</ele>
        <time>2021-03-27T12:17:32Z</time>
      </trkpt>
      <trkpt lat="43.71841" lon="3.87057">
        <ele>75</ele>
        <time>2021-03-27T12:17:33Z</time>
      </trkpt>
      <trkpt lat="43.71844" lon="3.87053">
        <ele>74</ele>
        <time>2021-03-27T12:17:34Z</time>
      </trkpt>
      <trkpt lat="43.71846" lon="3.87048">
        <ele>74</ele>
        <time>2021-03-27T12:17:36Z</time>
      </trkpt>
      <trkpt lat="43.71849" lon="3.87042">
        <ele>74</ele>
        <time>2021-03-27T12:17:37Z</time>
      </trkpt>
      <trkpt lat="43.7185" lon="3.87038">
        <ele>74</ele>
        <time>2021-03-27T12:17:40Z</time>
      </trkpt>
      <trkpt lat="43.7185" lon="3.87035">
        <ele>74</ele>
        <time>2021-03-27T12:17:42Z</time>
      </trkpt>
      <trkpt lat="43.71851" lon="3.87031">
        <ele>74</ele>
        <time>2021-03-27T12:17:43Z</time>
      </trkpt>
      <trkpt lat="43.71852" lon="3.87027">
        <ele>75</ele>
        <time>2021-03-27T12:17:45Z</time>
      </trkpt>
      <trkpt lat="43.71852" lon="3.87027">
        <ele>76</ele>
        <time>2021-03-27T12:17:54Z</time>
      </trkpt>
      <trkpt lat="43.71841" lon="3.8704">
        <ele>77</ele>
        <time>2021-03-27T12:18:39Z</time>
      </trkpt>
      <trkpt lat="43.71837" lon="3.87043">
        <ele>77</ele>
        <time>2021-03-27T12:18:40Z</time>
      </trkpt>
      <trkpt lat="43.71833" lon="3.87047">
        <ele>77</ele>
        <time>2021-03-27T12:18:41Z</time>
      </trkpt>
      <trkpt lat="43.71829" lon="3.8705">
        <ele>77</ele>
        <time>2021-03-27T12:18:42Z</time>
      </trkpt>
      <trkpt lat="43.71826" lon="3.87053">
        <ele>77</ele>
        <time>2021-03-27T12:18:43Z</time>
      </trkpt>
      <trkpt lat="43.71822" lon="3.87056">
        <ele>77</ele>
        <time>2021-03-27T12:18:44Z</time>
      </trkpt>
      <trkpt lat="43.71819" lon="3.87058">
        <ele>77</ele>
        <time>2021-03-27T12:18:45Z</time>
      </trkpt>
      <trkpt lat="43.71816" lon="3.8706">
        <ele>77</ele>
        <time>2021-03-27T12:18:46Z</time>
      </trkpt>
      <trkpt lat="43.71814" lon="3.87063">
        <ele>77</ele>
        <time>2021-03-27T12:18:47Z</time>
      </trkpt>
      <trkpt lat="43.71812" lon="3.87064">
        <ele>77</ele>
        <time>2021-03-27T12:18:48Z</time>
      </trkpt>
      <trkpt lat="43.7181" lon="3.87066">
        <ele>77</ele>
        <time>2021-03-27T12:18:49Z</time>
      </trkpt>
      <trkpt lat="43.71807" lon="3.87069">
        <ele>77</ele>
        <time>2021-03-27T12:18:51Z</time>
      </trkpt>
      <trkpt lat="43.71806" lon="3.87069">
        <ele>76</ele>
        <time>2021-03-27T12:19:03Z</time>
      </trkpt>
      <trkpt lat="43.718" lon="3.87062">
        <ele>76</ele>
        <time>2021-03-27T12:19:59Z</time>
      </trkpt>
      <trkpt lat="43.71799" lon="3.87061">
        <ele>76</ele>
        <time>2021-03-27T12:20:00Z</time>
      </trkpt>
      <trkpt lat="43.71796" lon="3.87058">
        <ele>76</ele>
        <time>2021-03-27T12:20:01Z</time>
      </trkpt>
      <trkpt lat="43.71794" lon="3.87053">
        <ele>76</ele>
        <time>2021-03-27T12:20:03Z</time>
      </trkpt>
      <trkpt lat="43.71794" lon="3.87048">
        <ele>76</ele>
        <time>2021-03-27T12:20:05Z</time>
      </trkpt>
      <trkpt lat="43.71795" lon="3.87044">
        <ele>75</ele>
        <time>2021-03-27T12:20:08Z</time>
      </trkpt>
      <trkpt lat="43.71794" lon="3.87041">
        <ele>75</ele>
        <time>2021-03-27T12:20:10Z</time>
      </trkpt>
      <trkpt lat="43.71791" lon="3.87041">
        <ele>75</ele>
        <time>2021-03-27T12:20:12Z</time>
      </trkpt>
      <trkpt lat="43.71787" lon="3.87039">
        <ele>75</ele>
        <time>2021-03-27T12:20:13Z</time>
      </trkpt>
      <trkpt lat="43.71784" lon="3.87038">
        <ele>75</ele>
        <time>2021-03-27T12:20:15Z</time>
      </trkpt>
      <trkpt lat="43.7178" lon="3.8704">
        <ele>75</ele>
        <time>2021-03-27T12:20:16Z</time>
      </trkpt>
      <trkpt lat="43.71777" lon="3.87042">
        <ele>75</ele>
        <time>2021-03-27T12:20:18Z</time>
      </trkpt>
      <trkpt lat="43.71772" lon="3.87048">
        <ele>74</ele>
        <time>2021-03-27T12:20:19Z</time>
      </trkpt>
      <trkpt lat="43.71769" lon="3.8705">
        <ele>74</ele>
        <time>2021-03-27T12:20:21Z</time>
      </trkpt>
      <trkpt lat="43.71762" lon="3.87051">
        <ele>74</ele>
        <time>2021-03-27T12:20:22Z</time>
      </trkpt>
      <trkpt lat="43.71755" lon="3.87049">
        <ele>74</ele>
        <time>2021-03-27T12:20:24Z</time>
      </trkpt>
      <trkpt lat="43.71753" lon="3.87047">
        <ele>74</ele>
        <time>2021-03-27T12:20:25Z</time>
      </trkpt>
      <trkpt lat="43.7175" lon="3.87046">
        <ele>74</ele>
        <time>2021-03-27T12:20:27Z</time>
      </trkpt>
      <trkpt lat="43.71746" lon="3.87041">
        <ele>74</ele>
        <time>2021-03-27T12:20:28Z</time>
      </trkpt>
      <trkpt lat="43.71743" lon="3.8704">
        <ele>74</ele>
        <time>2021-03-27T12:20:30Z</time>
      </trkpt>
      <trkpt lat="43.71741" lon="3.87038">
        <ele>74</ele>
        <time>2021-03-27T12:20:31Z</time>
      </trkpt>
      <trkpt lat="43.71739" lon="3.87036">
        <ele>74</ele>
        <time>2021-03-27T12:20:32Z</time>
      </trkpt>
      <trkpt lat="43.71737" lon="3.87033">
        <ele>74</ele>
        <time>2021-03-27T12:20:33Z</time>
      </trkpt>
      <trkpt lat="43.71733" lon="3.87029">
        <ele>74</ele>
        <time>2021-03-27T12:20:34Z</time>
      </trkpt>
      <trkpt lat="43.71731" lon="3.87028">
        <ele>74</ele>
        <time>2021-03-27T12:20:36Z</time>
      </trkpt>
      <trkpt lat="43.71729" lon="3.87027">
        <ele>74</ele>
        <time>2021-03-27T12:20:37Z</time>
      </trkpt>
      <trkpt lat="43.71726" lon="3.87026">
        <ele>74</ele>
        <time>2021-03-27T12:20:39Z</time>
      </trkpt>
      <trkpt lat="43.71723" lon="3.87027">
        <ele>74</ele>
        <time>2021-03-27T12:20:40Z</time>
      </trkpt>
      <trkpt lat="43.71721" lon="3.87028">
        <ele>74</ele>
        <time>2021-03-27T12:20:41Z</time>
      </trkpt>
      <trkpt lat="43.71718" lon="3.87029">
        <ele>74</ele>
        <time>2021-03-27T12:20:43Z</time>
      </trkpt>
      <trkpt lat="43.71715" lon="3.87029">
        <ele>74</ele>
        <time>2021-03-27T12:20:45Z</time>
      </trkpt>
      <trkpt lat="43.71712" lon="3.87029">
        <ele>75</ele>
        <time>2021-03-27T12:20:48Z</time>
      </trkpt>
      <trkpt lat="43.71708" lon="3.87029">
        <ele>75</ele>
        <time>2021-03-27T12:20:50Z</time>
      </trkpt>
      <trkpt lat="43.71705" lon="3.87029">
        <ele>75</ele>
        <time>2021-03-27T12:20:52Z</time>
      </trkpt>
      <trkpt lat="43.71702" lon="3.8703">
        <ele>75</ele>
        <time>2021-03-27T12:20:54Z</time>
      </trkpt>
      <trkpt lat="43.71699" lon="3.8703">
        <ele>75</ele>
        <time>2021-03-27T12:20:56Z</time>
      </trkpt>
      <trkpt lat="43.71697" lon="3.87032">
        <ele>76</ele>
        <time>2021-03-27T12:20:58Z</time>
      </trkpt>
      <trkpt lat="43.71695" lon="3.87034">
        <ele>76</ele>
        <time>2021-03-27T12:20:59Z</time>
      </trkpt>
      <trkpt lat="43.71692" lon="3.87037">
        <ele>76</ele>
        <time>2021-03-27T12:21:02Z</time>
      </trkpt>
      <trkpt lat="43.7169" lon="3.87038">
        <ele>76</ele>
        <time>2021-03-27T12:21:03Z</time>
      </trkpt>
      <trkpt lat="43.71688" lon="3.87039">
        <ele>76</ele>
        <time>2021-03-27T12:21:06Z</time>
      </trkpt>
      <trkpt lat="43.71685" lon="3.87039">
        <ele>76</ele>
        <time>2021-03-27T12:21:08Z</time>
      </trkpt>
      <trkpt lat="43.71683" lon="3.87039">
        <ele>76</ele>
        <time>2021-03-27T12:21:10Z</time>
      </trkpt>
      <trkpt lat="43.71681" lon="3.8704">
        <ele>76</ele>
        <time>2021-03-27T12:21:16Z</time>
      </trkpt>
      <trkpt lat="43.71681" lon="3.8704">
        <ele>79</ele>
        <time>2021-03-27T12:21:18Z</time>
      </trkpt>
      <trkpt lat="43.71676" lon="3.87051">
        <ele>80</ele>
        <time>2021-03-27T12:21:51Z</time>
      </trkpt>
      <trkpt lat="43.71674" lon="3.87054">
        <ele>80</ele>
        <time>2021-03-27T12:21:53Z</time>
      </trkpt>
      <trkpt lat="43.71672" lon="3.87057">
        <ele>80</ele>
        <time>2021-03-27T12:21:55Z</time>
      </trkpt>
      <trkpt lat="43.7167" lon="3.8706">
        <ele>80</ele>
        <time>2021-03-27T12:21:57Z</time>
      </trkpt>
      <trkpt lat="43.71668" lon="3.87062">
        <ele>80</ele>
        <time>2021-03-27T12:21:58Z</time>
      </trkpt>
      <trkpt lat="43.71665" lon="3.87064">
        <ele>80</ele>
        <time>2021-03-27T12:22:01Z</time>
      </trkpt>
      <trkpt lat="43.71663" lon="3.87067">
        <ele>80</ele>
        <time>2021-03-27T12:22:03Z</time>
      </trkpt>
      <trkpt lat="43.71661" lon="3.87069">
        <ele>80</ele>
        <time>2021-03-27T12:22:04Z</time>
      </trkpt>
      <trkpt lat="43.71658" lon="3.87071">
        <ele>80</ele>
        <time>2021-03-27T12:22:06Z</time>
      </trkpt>
      <trkpt lat="43.71655" lon="3.87073">
        <ele>80</ele>
        <time>2021-03-27T12:22:08Z</time>
      </trkpt>
      <trkpt lat="43.71652" lon="3.87075">
        <ele>83</ele>
        <time>2021-03-27T12:22:11Z</time>
      </trkpt>
      <trkpt lat="43.7165" lon="3.87077">
        <ele>83</ele>
        <time>2021-03-27T12:22:12Z</time>
      </trkpt>
      <trkpt lat="43.71647" lon="3.8708">
        <ele>83</ele>
        <time>2021-03-27T12:22:14Z</time>
      </trkpt>
      <trkpt lat="43.71645" lon="3.87081">
        <ele>83</ele>
        <time>2021-03-27T12:22:16Z</time>
      </trkpt>
      <trkpt lat="43.71643" lon="3.87082">
        <ele>87</ele>
        <time>2021-03-27T12:22:26Z</time>
      </trkpt>
      <trkpt lat="43.71642" lon="3.87101">
        <ele>90</ele>
        <time>2021-03-27T12:23:28Z</time>
      </trkpt>
      <trkpt lat="43.71643" lon="3.87105">
        <ele>90</ele>
        <time>2021-03-27T12:23:30Z</time>
      </trkpt>
      <trkpt lat="43.71644" lon="3.87109">
        <ele>90</ele>
        <time>2021-03-27T12:23:32Z</time>
      </trkpt>
      <trkpt lat="43.71644" lon="3.87113">
        <ele>90</ele>
        <time>2021-03-27T12:23:34Z</time>
      </trkpt>
      <trkpt lat="43.71645" lon="3.87118">
        <ele>90</ele>
        <time>2021-03-27T12:23:36Z</time>
      </trkpt>
      <trkpt lat="43.71645" lon="3.87123">
        <ele>90</ele>
        <time>2021-03-27T12:23:37Z</time>
      </trkpt>
      <trkpt lat="43.71646" lon="3.87125">
        <ele>90</ele>
        <time>2021-03-27T12:23:38Z</time>
      </trkpt>
      <trkpt lat="43.71646" lon="3.87128">
        <ele>90</ele>
        <time>2021-03-27T12:23:39Z</time>
      </trkpt>
      <trkpt lat="43.71646" lon="3.8713">
        <ele>90</ele>
        <time>2021-03-27T12:23:40Z</time>
      </trkpt>
      <trkpt lat="43.71645" lon="3.87133">
        <ele>90</ele>
        <time>2021-03-27T12:23:41Z</time>
      </trkpt>
      <trkpt lat="43.71644" lon="3.87138">
        <ele>90</ele>
        <time>2021-03-27T12:23:43Z</time>
      </trkpt>
      <trkpt lat="43.71643" lon="3.87142">
        <ele>90</ele>
        <time>2021-03-27T12:23:45Z</time>
      </trkpt>
      <trkpt lat="43.71641" lon="3.87147">
        <ele>90</ele>
        <time>2021-03-27T12:23:47Z</time>
      </trkpt>
      <trkpt lat="43.71639" lon="3.87149">
        <ele>90</ele>
        <time>2021-03-27T12:23:48Z</time>
      </trkpt>
      <trkpt lat="43.71638" lon="3.8715">
        <ele>90</ele>
        <time>2021-03-27T12:23:49Z</time>
      </trkpt>
      <trkpt lat="43.71636" lon="3.87152">
        <ele>90</ele>
        <time>2021-03-27T12:23:50Z</time>
      </trkpt>
      <trkpt lat="43.71633" lon="3.87153">
        <ele>90</ele>
        <time>2021-03-27T12:23:51Z</time>
      </trkpt>
      <trkpt lat="43.71631" lon="3.87153">
        <ele>90</ele>
        <time>2021-03-27T12:23:52Z</time>
      </trkpt>
      <trkpt lat="43.71628" lon="3.87153">
        <ele>90</ele>
        <time>2021-03-27T12:23:53Z</time>
      </trkpt>
      <trkpt lat="43.71622" lon="3.87154">
        <ele>90</ele>
        <time>2021-03-27T12:23:55Z</time>
      </trkpt>
      <trkpt lat="43.71619" lon="3.87155">
        <ele>92</ele>
        <time>2021-03-27T12:23:56Z</time>
      </trkpt>
      <trkpt lat="43.71617" lon="3.87157">
        <ele>92</ele>
        <time>2021-03-27T12:23:58Z</time>
      </trkpt>
      <trkpt lat="43.71612" lon="3.8716">
        <ele>92</ele>
        <time>2021-03-27T12:23:59Z</time>
      </trkpt>
      <trkpt lat="43.71611" lon="3.87162">
        <ele>92</ele>
        <time>2021-03-27T12:24:00Z</time>
      </trkpt>
      <trkpt lat="43.71609" lon="3.87164">
        <ele>92</ele>
        <time>2021-03-27T12:24:02Z</time>
      </trkpt>
      <trkpt lat="43.71607" lon="3.87168">
        <ele>92</ele>
        <time>2021-03-27T12:24:03Z</time>
      </trkpt>
      <trkpt lat="43.71607" lon="3.87171">
        <ele>92</ele>
        <time>2021-03-27T12:24:05Z</time>
      </trkpt>
      <trkpt lat="43.71606" lon="3.87173">
        <ele>92</ele>
        <time>2021-03-27T12:24:06Z</time>
      </trkpt>
      <trkpt lat="43.71605" lon="3.87176">
        <ele>93</ele>
        <time>2021-03-27T12:24:07Z</time>
      </trkpt>
      <trkpt lat="43.71604" lon="3.87179">
        <ele>93</ele>
        <time>2021-03-27T12:24:08Z</time>
      </trkpt>
      <trkpt lat="43.71604" lon="3.87182">
        <ele>93</ele>
        <time>2021-03-27T12:24:09Z</time>
      </trkpt>
      <trkpt lat="43.71603" lon="3.87188">
        <ele>93</ele>
        <time>2021-03-27T12:24:10Z</time>
      </trkpt>
      <trkpt lat="43.71603" lon="3.87191">
        <ele>93</ele>
        <time>2021-03-27T12:24:12Z</time>
      </trkpt>
      <trkpt lat="43.71603" lon="3.87197">
        <ele>93</ele>
        <time>2021-03-27T12:24:13Z</time>
      </trkpt>
      <trkpt lat="43.71603" lon="3.87204">
        <ele>93</ele>
        <time>2021-03-27T12:24:15Z</time>
      </trkpt>
      <trkpt lat="43.71602" lon="3.8721">
        <ele>94</ele>
        <time>2021-03-27T12:24:17Z</time>
      </trkpt>
      <trkpt lat="43.716" lon="3.87213">
        <ele>94</ele>
        <time>2021-03-27T12:24:19Z</time>
      </trkpt>
      <trkpt lat="43.71597" lon="3.87217">
        <ele>94</ele>
        <time>2021-03-27T12:24:20Z</time>
      </trkpt>
      <trkpt lat="43.71595" lon="3.87222">
        <ele>94</ele>
        <time>2021-03-27T12:24:22Z</time>
      </trkpt>
      <trkpt lat="43.71594" lon="3.87225">
        <ele>94</ele>
        <time>2021-03-27T12:24:24Z</time>
      </trkpt>
      <trkpt lat="43.71592" lon="3.87228">
        <ele>94</ele>
        <time>2021-03-27T12:24:25Z</time>
      </trkpt>
      <trkpt lat="43.71591" lon="3.8723">
        <ele>95</ele>
        <time>2021-03-27T12:24:26Z</time>
      </trkpt>
      <trkpt lat="43.71589" lon="3.87236">
        <ele>95</ele>
        <time>2021-03-27T12:24:27Z</time>
      </trkpt>
      <trkpt lat="43.71589" lon="3.87239">
        <ele>95</ele>
        <time>2021-03-27T12:24:29Z</time>
      </trkpt>
      <trkpt lat="43.71589" lon="3.87244">
        <ele>95</ele>
        <time>2021-03-27T12:24:30Z</time>
      </trkpt>
      <trkpt lat="43.71588" lon="3.87247">
        <ele>95</ele>
        <time>2021-03-27T12:24:32Z</time>
      </trkpt>
      <trkpt lat="43.71587" lon="3.87253">
        <ele>95</ele>
        <time>2021-03-27T12:24:33Z</time>
      </trkpt>
      <trkpt lat="43.71587" lon="3.87257">
        <ele>95</ele>
        <time>2021-03-27T12:24:35Z</time>
      </trkpt>
      <trkpt lat="43.71586" lon="3.8726">
        <ele>95</ele>
        <time>2021-03-27T12:24:36Z</time>
      </trkpt>
      <trkpt lat="43.71586" lon="3.87263">
        <ele>97</ele>
        <time>2021-03-27T12:24:37Z</time>
      </trkpt>
      <trkpt lat="43.71586" lon="3.87269">
        <ele>97</ele>
        <time>2021-03-27T12:24:38Z</time>
      </trkpt>
      <trkpt lat="43.71586" lon="3.87271">
        <ele>97</ele>
        <time>2021-03-27T12:24:40Z</time>
      </trkpt>
      <trkpt lat="43.71588" lon="3.87276">
        <ele>97</ele>
        <time>2021-03-27T12:24:41Z</time>
      </trkpt>
      <trkpt lat="43.71589" lon="3.87278">
        <ele>97</ele>
        <time>2021-03-27T12:24:43Z</time>
      </trkpt>
      <trkpt lat="43.71589" lon="3.87281">
        <ele>97</ele>
        <time>2021-03-27T12:24:44Z</time>
      </trkpt>
      <trkpt lat="43.7159" lon="3.87284">
        <ele>97</ele>
        <time>2021-03-27T12:24:45Z</time>
      </trkpt>
      <trkpt lat="43.7159" lon="3.87286">
        <ele>97</ele>
        <time>2021-03-27T12:24:46Z</time>
      </trkpt>
      <trkpt lat="43.7159" lon="3.87291">
        <ele>98</ele>
        <time>2021-03-27T12:24:47Z</time>
      </trkpt>
      <trkpt lat="43.7159" lon="3.87294">
        <ele>98</ele>
        <time>2021-03-27T12:24:49Z</time>
      </trkpt>
      <trkpt lat="43.7159" lon="3.87298">
        <ele>98</ele>
        <time>2021-03-27T12:24:50Z</time>
      </trkpt>
      <trkpt lat="43.71591" lon="3.87301">
        <ele>98</ele>
        <time>2021-03-27T12:24:52Z</time>
      </trkpt>
      <trkpt lat="43.71592" lon="3.87306">
        <ele>98</ele>
        <time>2021-03-27T12:24:53Z</time>
      </trkpt>
      <trkpt lat="43.71592" lon="3.87308">
        <ele>98</ele>
        <time>2021-03-27T12:24:55Z</time>
      </trkpt>
      <trkpt lat="43.71592" lon="3.87313">
        <ele>99</ele>
        <time>2021-03-27T12:24:57Z</time>
      </trkpt>
      <trkpt lat="43.7159" lon="3.87317">
        <ele>99</ele>
        <time>2021-03-27T12:24:58Z</time>
      </trkpt>
      <trkpt lat="43.71589" lon="3.8732">
        <ele>99</ele>
        <time>2021-03-27T12:25:00Z</time>
      </trkpt>
      <trkpt lat="43.71586" lon="3.87323">
        <ele>99</ele>
        <time>2021-03-27T12:25:01Z</time>
      </trkpt>
      <trkpt lat="43.71584" lon="3.87325">
        <ele>99</ele>
        <time>2021-03-27T12:25:03Z</time>
      </trkpt>
      <trkpt lat="43.71582" lon="3.87328">
        <ele>99</ele>
        <time>2021-03-27T12:25:04Z</time>
      </trkpt>
      <trkpt lat="43.71577" lon="3.87333">
        <ele>99</ele>
        <time>2021-03-27T12:25:07Z</time>
      </trkpt>
      <trkpt lat="43.71576" lon="3.87335">
        <ele>99</ele>
        <time>2021-03-27T12:25:09Z</time>
      </trkpt>
      <trkpt lat="43.71572" lon="3.87338">
        <ele>99</ele>
        <time>2021-03-27T12:25:10Z</time>
      </trkpt>
      <trkpt lat="43.71568" lon="3.8734">
        <ele>99</ele>
        <time>2021-03-27T12:25:12Z</time>
      </trkpt>
      <trkpt lat="43.71564" lon="3.87342">
        <ele>99</ele>
        <time>2021-03-27T12:25:14Z</time>
      </trkpt>
      <trkpt lat="43.71559" lon="3.87344">
        <ele>103</ele>
        <time>2021-03-27T12:25:16Z</time>
      </trkpt>
      <trkpt lat="43.71555" lon="3.87346">
        <ele>103</ele>
        <time>2021-03-27T12:25:18Z</time>
      </trkpt>
      <trkpt lat="43.71551" lon="3.87349">
        <ele>103</ele>
        <time>2021-03-27T12:25:20Z</time>
      </trkpt>
      <trkpt lat="43.71548" lon="3.87354">
        <ele>103</ele>
        <time>2021-03-27T12:25:22Z</time>
      </trkpt>
      <trkpt lat="43.71546" lon="3.87357">
        <ele>103</ele>
        <time>2021-03-27T12:25:24Z</time>
      </trkpt>
      <trkpt lat="43.71545" lon="3.87359">
        <ele>103</ele>
        <time>2021-03-27T12:25:25Z</time>
      </trkpt>
      <trkpt lat="43.71541" lon="3.87364">
        <ele>104</ele>
        <time>2021-03-27T12:25:26Z</time>
      </trkpt>
      <trkpt lat="43.71538" lon="3.87369">
        <ele>104</ele>
        <time>2021-03-27T12:25:28Z</time>
      </trkpt>
      <trkpt lat="43.71536" lon="3.8737">
        <ele>104</ele>
        <time>2021-03-27T12:25:30Z</time>
      </trkpt>
      <trkpt lat="43.71534" lon="3.87372">
        <ele>104</ele>
        <time>2021-03-27T12:25:31Z</time>
      </trkpt>
      <trkpt lat="43.71529" lon="3.87375">
        <ele>104</ele>
        <time>2021-03-27T12:25:32Z</time>
      </trkpt>
      <trkpt lat="43.71526" lon="3.87377">
        <ele>104</ele>
        <time>2021-03-27T12:25:33Z</time>
      </trkpt>
      <trkpt lat="43.71524" lon="3.87381">
        <ele>104</ele>
        <time>2021-03-27T12:25:34Z</time>
      </trkpt>
      <trkpt lat="43.71517" lon="3.87386">
        <ele>105</ele>
        <time>2021-03-27T12:25:36Z</time>
      </trkpt>
      <trkpt lat="43.71515" lon="3.87388">
        <ele>105</ele>
        <time>2021-03-27T12:25:38Z</time>
      </trkpt>
      <trkpt lat="43.71513" lon="3.87389">
        <ele>105</ele>
        <time>2021-03-27T12:25:39Z</time>
      </trkpt>
      <trkpt lat="43.71509" lon="3.87392">
        <ele>105</ele>
        <time>2021-03-27T12:25:40Z</time>
      </trkpt>
      <trkpt lat="43.71507" lon="3.87394">
        <ele>105</ele>
        <time>2021-03-27T12:25:42Z</time>
      </trkpt>
      <trkpt lat="43.71504" lon="3.87397">
        <ele>105</ele>
        <time>2021-03-27T12:25:43Z</time>
      </trkpt>
      <trkpt lat="43.715" lon="3.874">
        <ele>105</ele>
        <time>2021-03-27T12:25:44Z</time>
      </trkpt>
      <trkpt lat="43.71498" lon="3.87401">
        <ele>105</ele>
        <time>2021-03-27T12:25:46Z</time>
      </trkpt>
      <trkpt lat="43.71494" lon="3.87406">
        <ele>106</ele>
        <time>2021-03-27T12:25:47Z</time>
      </trkpt>
      <trkpt lat="43.71493" lon="3.87409">
        <ele>106</ele>
        <time>2021-03-27T12:25:48Z</time>
      </trkpt>
      <trkpt lat="43.71491" lon="3.87415">
        <ele>106</ele>
        <time>2021-03-27T12:25:50Z</time>
      </trkpt>
      <trkpt lat="43.7149" lon="3.87418">
        <ele>106</ele>
        <time>2021-03-27T12:25:51Z</time>
      </trkpt>
      <trkpt lat="43.71488" lon="3.8742">
        <ele>106</ele>
        <time>2021-03-27T12:25:52Z</time>
      </trkpt>
      <trkpt lat="43.71487" lon="3.87423">
        <ele>106</ele>
        <time>2021-03-27T12:25:53Z</time>
      </trkpt>
      <trkpt lat="43.71486" lon="3.87425">
        <ele>106</ele>
        <time>2021-03-27T12:25:54Z</time>
      </trkpt>
      <trkpt lat="43.71485" lon="3.87427">
        <ele>106</ele>
        <time>2021-03-27T12:25:55Z</time>
      </trkpt>
      <trkpt lat="43.71484" lon="3.8743">
        <ele>107</ele>
        <time>2021-03-27T12:25:56Z</time>
      </trkpt>
      <trkpt lat="43.71483" lon="3.87432">
        <ele>107</ele>
        <time>2021-03-27T12:25:57Z</time>
      </trkpt>
      <trkpt lat="43.71482" lon="3.87436">
        <ele>107</ele>
        <time>2021-03-27T12:25:58Z</time>
      </trkpt>
      <trkpt lat="43.71482" lon="3.87442">
        <ele>107</ele>
        <time>2021-03-27T12:26:00Z</time>
      </trkpt>
      <trkpt lat="43.71482" lon="3.87445">
        <ele>107</ele>
        <time>2021-03-27T12:26:01Z</time>
      </trkpt>
      <trkpt lat="43.71483" lon="3.87448">
        <ele>107</ele>
        <time>2021-03-27T12:26:02Z</time>
      </trkpt>
      <trkpt lat="43.71484" lon="3.87451">
        <ele>107</ele>
        <time>2021-03-27T12:26:03Z</time>
      </trkpt>
      <trkpt lat="43.71485" lon="3.87453">
        <ele>107</ele>
        <time>2021-03-27T12:26:04Z</time>
      </trkpt>
      <trkpt lat="43.71486" lon="3.87456">
        <ele>107</ele>
        <time>2021-03-27T12:26:05Z</time>
      </trkpt>
      <trkpt lat="43.71488" lon="3.87462">
        <ele>108</ele>
        <time>2021-03-27T12:26:07Z</time>
      </trkpt>
      <trkpt lat="43.71489" lon="3.87465">
        <ele>108</ele>
        <time>2021-03-27T12:26:08Z</time>
      </trkpt>
      <trkpt lat="43.7149" lon="3.87469">
        <ele>108</ele>
        <time>2021-03-27T12:26:09Z</time>
      </trkpt>
      <trkpt lat="43.71491" lon="3.87472">
        <ele>108</ele>
        <time>2021-03-27T12:26:10Z</time>
      </trkpt>
      <trkpt lat="43.71493" lon="3.87475">
        <ele>108</ele>
        <time>2021-03-27T12:26:11Z</time>
      </trkpt>
      <trkpt lat="43.71494" lon="3.8748">
        <ele>108</ele>
        <time>2021-03-27T12:26:12Z</time>
      </trkpt>
      <trkpt lat="43.71494" lon="3.87485">
        <ele>108</ele>
        <time>2021-03-27T12:26:13Z</time>
      </trkpt>
      <trkpt lat="43.71495" lon="3.8749">
        <ele>108</ele>
        <time>2021-03-27T12:26:14Z</time>
      </trkpt>
      <trkpt lat="43.71495" lon="3.87495">
        <ele>108</ele>
        <time>2021-03-27T12:26:15Z</time>
      </trkpt>
      <trkpt lat="43.71494" lon="3.87501">
        <ele>109</ele>
        <time>2021-03-27T12:26:17Z</time>
      </trkpt>
      <trkpt lat="43.71492" lon="3.87506">
        <ele>109</ele>
        <time>2021-03-27T12:26:18Z</time>
      </trkpt>
      <trkpt lat="43.71487" lon="3.87515">
        <ele>109</ele>
        <time>2021-03-27T12:26:19Z</time>
      </trkpt>
      <trkpt lat="43.71485" lon="3.87519">
        <ele>109</ele>
        <time>2021-03-27T12:26:20Z</time>
      </trkpt>
      <trkpt lat="43.71484" lon="3.87522">
        <ele>109</ele>
        <time>2021-03-27T12:26:22Z</time>
      </trkpt>
      <trkpt lat="43.71484" lon="3.87526">
        <ele>109</ele>
        <time>2021-03-27T12:26:23Z</time>
      </trkpt>
      <trkpt lat="43.71484" lon="3.87531">
        <ele>109</ele>
        <time>2021-03-27T12:26:24Z</time>
      </trkpt>
      <trkpt lat="43.71483" lon="3.87536">
        <ele>109</ele>
        <time>2021-03-27T12:26:25Z</time>
      </trkpt>
      <trkpt lat="43.7148" lon="3.87545">
        <ele>110</ele>
        <time>2021-03-27T12:26:26Z</time>
      </trkpt>
      <trkpt lat="43.71479" lon="3.87549">
        <ele>110</ele>
        <time>2021-03-27T12:26:27Z</time>
      </trkpt>
      <trkpt lat="43.71479" lon="3.87552">
        <ele>110</ele>
        <time>2021-03-27T12:26:28Z</time>
      </trkpt>
      <trkpt lat="43.7148" lon="3.87555">
        <ele>110</ele>
        <time>2021-03-27T12:26:30Z</time>
      </trkpt>
      <trkpt lat="43.71482" lon="3.87559">
        <ele>110</ele>
        <time>2021-03-27T12:26:31Z</time>
      </trkpt>
      <trkpt lat="43.71484" lon="3.87563">
        <ele>110</ele>
        <time>2021-03-27T12:26:32Z</time>
      </trkpt>
      <trkpt lat="43.71488" lon="3.87573">
        <ele>110</ele>
        <time>2021-03-27T12:26:33Z</time>
      </trkpt>
      <trkpt lat="43.71488" lon="3.87578">
        <ele>110</ele>
        <time>2021-03-27T12:26:35Z</time>
      </trkpt>
      <trkpt lat="43.71489" lon="3.87582">
        <ele>110</ele>
        <time>2021-03-27T12:26:36Z</time>
      </trkpt>
      <trkpt lat="43.7149" lon="3.87586">
        <ele>110</ele>
        <time>2021-03-27T12:26:37Z</time>
      </trkpt>
      <trkpt lat="43.71491" lon="3.87593">
        <ele>110</ele>
        <time>2021-03-27T12:26:38Z</time>
      </trkpt>
      <trkpt lat="43.71492" lon="3.87596">
        <ele>110</ele>
        <time>2021-03-27T12:26:40Z</time>
      </trkpt>
      <trkpt lat="43.71493" lon="3.87599">
        <ele>110</ele>
        <time>2021-03-27T12:26:41Z</time>
      </trkpt>
      <trkpt lat="43.71494" lon="3.87604">
        <ele>110</ele>
        <time>2021-03-27T12:26:42Z</time>
      </trkpt>
      <trkpt lat="43.71494" lon="3.87609">
        <ele>110</ele>
        <time>2021-03-27T12:26:45Z</time>
      </trkpt>
      <trkpt lat="43.71492" lon="3.87613">
        <ele>112</ele>
        <time>2021-03-27T12:26:47Z</time>
      </trkpt>
      <trkpt lat="43.71489" lon="3.87614">
        <ele>112</ele>
        <time>2021-03-27T12:26:49Z</time>
      </trkpt>
      <trkpt lat="43.71486" lon="3.87613">
        <ele>112</ele>
        <time>2021-03-27T12:26:50Z</time>
      </trkpt>
      <trkpt lat="43.71483" lon="3.87613">
        <ele>112</ele>
        <time>2021-03-27T12:26:53Z</time>
      </trkpt>
      <trkpt lat="43.71481" lon="3.87613">
        <ele>112</ele>
        <time>2021-03-27T12:26:55Z</time>
      </trkpt>
      <trkpt lat="43.71478" lon="3.87612">
        <ele>112</ele>
        <time>2021-03-27T12:26:56Z</time>
      </trkpt>
      <trkpt lat="43.71476" lon="3.87612">
        <ele>112</ele>
        <time>2021-03-27T12:26:58Z</time>
      </trkpt>
      <trkpt lat="43.71473" lon="3.87612">
        <ele>112</ele>
        <time>2021-03-27T12:27:00Z</time>
      </trkpt>
      <trkpt lat="43.71471" lon="3.87612">
        <ele>112</ele>
        <time>2021-03-27T12:27:02Z</time>
      </trkpt>
      <trkpt lat="43.71468" lon="3.87611">
        <ele>112</ele>
        <time>2021-03-27T12:27:04Z</time>
      </trkpt>
      <trkpt lat="43.71466" lon="3.87611">
        <ele>116</ele>
        <time>2021-03-27T12:27:07Z</time>
      </trkpt>
      <trkpt lat="43.71463" lon="3.87611">
        <ele>116</ele>
        <time>2021-03-27T12:27:09Z</time>
      </trkpt>
      <trkpt lat="43.71461" lon="3.87611">
        <ele>116</ele>
        <time>2021-03-27T12:27:11Z</time>
      </trkpt>
      <trkpt lat="43.71458" lon="3.87611">
        <ele>116</ele>
        <time>2021-03-27T12:27:12Z</time>
      </trkpt>
      <trkpt lat="43.71456" lon="3.87611">
        <ele>116</ele>
        <time>2021-03-27T12:27:15Z</time>
      </trkpt>
      <trkpt lat="43.71453" lon="3.87611">
        <ele>117</ele>
        <time>2021-03-27T12:27:17Z</time>
      </trkpt>
      <trkpt lat="43.7145" lon="3.87611">
        <ele>117</ele>
        <time>2021-03-27T12:27:18Z</time>
      </trkpt>
      <trkpt lat="43.71448" lon="3.8761">
        <ele>117</ele>
        <time>2021-03-27T12:27:20Z</time>
      </trkpt>
      <trkpt lat="43.71445" lon="3.8761">
        <ele>117</ele>
        <time>2021-03-27T12:27:22Z</time>
      </trkpt>
      <trkpt lat="43.71443" lon="3.8761">
        <ele>117</ele>
        <time>2021-03-27T12:27:24Z</time>
      </trkpt>
      <trkpt lat="43.7144" lon="3.8761">
        <ele>119</ele>
        <time>2021-03-27T12:27:27Z</time>
      </trkpt>
      <trkpt lat="43.71438" lon="3.8761">
        <ele>119</ele>
        <time>2021-03-27T12:27:28Z</time>
      </trkpt>
      <trkpt lat="43.71435" lon="3.87609">
        <ele>119</ele>
        <time>2021-03-27T12:27:31Z</time>
      </trkpt>
      <trkpt lat="43.71432" lon="3.87609">
        <ele>119</ele>
        <time>2021-03-27T12:27:33Z</time>
      </trkpt>
      <trkpt lat="43.71429" lon="3.87608">
        <ele>119</ele>
        <time>2021-03-27T12:27:35Z</time>
      </trkpt>
      <trkpt lat="43.71427" lon="3.87607">
        <ele>121</ele>
        <time>2021-03-27T12:27:36Z</time>
      </trkpt>
      <trkpt lat="43.71424" lon="3.87607">
        <ele>121</ele>
        <time>2021-03-27T12:27:39Z</time>
      </trkpt>
      <trkpt lat="43.71422" lon="3.87607">
        <ele>121</ele>
        <time>2021-03-27T12:27:41Z</time>
      </trkpt>
      <trkpt lat="43.71419" lon="3.87607">
        <ele>121</ele>
        <time>2021-03-27T12:27:43Z</time>
      </trkpt>
      <trkpt lat="43.71416" lon="3.87606">
        <ele>121</ele>
        <time>2021-03-27T12:27:45Z</time>
      </trkpt>
      <trkpt lat="43.71414" lon="3.87606">
        <ele>121</ele>
        <time>2021-03-27T12:27:46Z</time>
      </trkpt>
      <trkpt lat="43.71411" lon="3.87607">
        <ele>121</ele>
        <time>2021-03-27T12:27:48Z</time>
      </trkpt>
      <trkpt lat="43.71409" lon="3.87607">
        <ele>121</ele>
        <time>2021-03-27T12:27:50Z</time>
      </trkpt>
      <trkpt lat="43.71406" lon="3.87606">
        <ele>121</ele>
        <time>2021-03-27T12:27:52Z</time>
      </trkpt>
      <trkpt lat="43.71404" lon="3.87606">
        <ele>121</ele>
        <time>2021-03-27T12:27:55Z</time>
      </trkpt>
      <trkpt lat="43.71401" lon="3.87605">
        <ele>125</ele>
        <time>2021-03-27T12:27:56Z</time>
      </trkpt>
      <trkpt lat="43.71399" lon="3.87605">
        <ele>125</ele>
        <time>2021-03-27T12:27:59Z</time>
      </trkpt>
      <trkpt lat="43.71396" lon="3.87605">
        <ele>125</ele>
        <time>2021-03-27T12:28:01Z</time>
      </trkpt>
      <trkpt lat="43.71393" lon="3.87605">
        <ele>125</ele>
        <time>2021-03-27T12:28:03Z</time>
      </trkpt>
      <trkpt lat="43.7139" lon="3.87604">
        <ele>125</ele>
        <time>2021-03-27T12:28:05Z</time>
      </trkpt>
      <trkpt lat="43.71387" lon="3.87604">
        <ele>126</ele>
        <time>2021-03-27T12:28:07Z</time>
      </trkpt>
      <trkpt lat="43.71384" lon="3.87603">
        <ele>126</ele>
        <time>2021-03-27T12:28:08Z</time>
      </trkpt>
      <trkpt lat="43.71381" lon="3.87603">
        <ele>126</ele>
        <time>2021-03-27T12:28:10Z</time>
      </trkpt>
      <trkpt lat="43.71378" lon="3.87603">
        <ele>126</ele>
        <time>2021-03-27T12:28:13Z</time>
      </trkpt>
      <trkpt lat="43.71374" lon="3.87602">
        <ele>126</ele>
        <time>2021-03-27T12:28:14Z</time>
      </trkpt>
      <trkpt lat="43.71372" lon="3.87601">
        <ele>126</ele>
        <time>2021-03-27T12:28:15Z</time>
      </trkpt>
      <trkpt lat="43.7137" lon="3.876">
        <ele>127</ele>
        <time>2021-03-27T12:28:16Z</time>
      </trkpt>
      <trkpt lat="43.71368" lon="3.876">
        <ele>127</ele>
        <time>2021-03-27T12:28:17Z</time>
      </trkpt>
      <trkpt lat="43.71365" lon="3.87599">
        <ele>127</ele>
        <time>2021-03-27T12:28:18Z</time>
      </trkpt>
      <trkpt lat="43.71363" lon="3.87598">
        <ele>127</ele>
        <time>2021-03-27T12:28:19Z</time>
      </trkpt>
      <trkpt lat="43.71361" lon="3.87597">
        <ele>127</ele>
        <time>2021-03-27T12:28:21Z</time>
      </trkpt>
      <trkpt lat="43.71358" lon="3.87596">
        <ele>127</ele>
        <time>2021-03-27T12:28:22Z</time>
      </trkpt>
      <trkpt lat="43.71356" lon="3.87595">
        <ele>127</ele>
        <time>2021-03-27T12:28:23Z</time>
      </trkpt>
      <trkpt lat="43.71354" lon="3.87594">
        <ele>127</ele>
        <time>2021-03-27T12:28:24Z</time>
      </trkpt>
      <trkpt lat="43.71351" lon="3.87593">
        <ele>127</ele>
        <time>2021-03-27T12:28:25Z</time>
      </trkpt>
      <trkpt lat="43.71349" lon="3.87592">
        <ele>129</ele>
        <time>2021-03-27T12:28:26Z</time>
      </trkpt>
      <trkpt lat="43.71346" lon="3.87591">
        <ele>129</ele>
        <time>2021-03-27T12:28:27Z</time>
      </trkpt>
      <trkpt lat="43.71344" lon="3.87589">
        <ele>129</ele>
        <time>2021-03-27T12:28:28Z</time>
      </trkpt>
      <trkpt lat="43.7134" lon="3.87587">
        <ele>129</ele>
        <time>2021-03-27T12:28:29Z</time>
      </trkpt>
      <trkpt lat="43.71335" lon="3.87586">
        <ele>129</ele>
        <time>2021-03-27T12:28:31Z</time>
      </trkpt>
      <trkpt lat="43.71333" lon="3.87585">
        <ele>129</ele>
        <time>2021-03-27T12:28:32Z</time>
      </trkpt>
      <trkpt lat="43.71331" lon="3.87584">
        <ele>129</ele>
        <time>2021-03-27T12:28:33Z</time>
      </trkpt>
      <trkpt lat="43.71328" lon="3.87584">
        <ele>129</ele>
        <time>2021-03-27T12:28:34Z</time>
      </trkpt>
      <trkpt lat="43.71326" lon="3.87583">
        <ele>129</ele>
        <time>2021-03-27T12:28:35Z</time>
      </trkpt>
      <trkpt lat="43.71323" lon="3.87582">
        <ele>130</ele>
        <time>2021-03-27T12:28:36Z</time>
      </trkpt>
      <trkpt lat="43.71321" lon="3.8758">
        <ele>130</ele>
        <time>2021-03-27T12:28:37Z</time>
      </trkpt>
      <trkpt lat="43.71319" lon="3.87579">
        <ele>130</ele>
        <time>2021-03-27T12:28:38Z</time>
      </trkpt>
      <trkpt lat="43.71318" lon="3.87578">
        <ele>130</ele>
        <time>2021-03-27T12:28:39Z</time>
      </trkpt>
      <trkpt lat="43.71315" lon="3.87578">
        <ele>130</ele>
        <time>2021-03-27T12:28:40Z</time>
      </trkpt>
      <trkpt lat="43.71313" lon="3.87576">
        <ele>130</ele>
        <time>2021-03-27T12:28:41Z</time>
      </trkpt>
      <trkpt lat="43.71311" lon="3.87576">
        <ele>130</ele>
        <time>2021-03-27T12:28:42Z</time>
      </trkpt>
      <trkpt lat="43.71309" lon="3.87576">
        <ele>130</ele>
        <time>2021-03-27T12:28:43Z</time>
      </trkpt>
      <trkpt lat="43.71306" lon="3.87574">
        <ele>130</ele>
        <time>2021-03-27T12:28:45Z</time>
      </trkpt>
      <trkpt lat="43.71303" lon="3.87573">
        <ele>131</ele>
        <time>2021-03-27T12:28:47Z</time>
      </trkpt>
      <trkpt lat="43.71299" lon="3.87573">
        <ele>131</ele>
        <time>2021-03-27T12:28:50Z</time>
      </trkpt>
      <trkpt lat="43.71297" lon="3.87573">
        <ele>131</ele>
        <time>2021-03-27T12:28:51Z</time>
      </trkpt>
      <trkpt lat="43.71293" lon="3.87573">
        <ele>131</ele>
        <time>2021-03-27T12:28:53Z</time>
      </trkpt>
      <trkpt lat="43.7129" lon="3.87574">
        <ele>131</ele>
        <time>2021-03-27T12:28:54Z</time>
      </trkpt>
      <trkpt lat="43.71288" lon="3.87574">
        <ele>131</ele>
        <time>2021-03-27T12:28:55Z</time>
      </trkpt>
      <trkpt lat="43.71286" lon="3.87575">
        <ele>131</ele>
        <time>2021-03-27T12:28:57Z</time>
      </trkpt>
      <trkpt lat="43.71285" lon="3.87577">
        <ele>131</ele>
        <time>2021-03-27T12:28:58Z</time>
      </trkpt>
      <trkpt lat="43.71282" lon="3.87582">
        <ele>131</ele>
        <time>2021-03-27T12:28:59Z</time>
      </trkpt>
      <trkpt lat="43.71281" lon="3.87585">
        <ele>131</ele>
        <time>2021-03-27T12:29:01Z</time>
      </trkpt>
      <trkpt lat="43.71279" lon="3.87591">
        <ele>131</ele>
        <time>2021-03-27T12:29:02Z</time>
      </trkpt>
      <trkpt lat="43.71279" lon="3.87594">
        <ele>131</ele>
        <time>2021-03-27T12:29:03Z</time>
      </trkpt>
      <trkpt lat="43.71278" lon="3.87596">
        <ele>131</ele>
        <time>2021-03-27T12:29:05Z</time>
      </trkpt>
      <trkpt lat="43.71278" lon="3.87599">
        <ele>131</ele>
        <time>2021-03-27T12:29:06Z</time>
      </trkpt>
      <trkpt lat="43.71277" lon="3.87603">
        <ele>131</ele>
        <time>2021-03-27T12:29:07Z</time>
      </trkpt>
      <trkpt lat="43.71277" lon="3.87606">
        <ele>131</ele>
        <time>2021-03-27T12:29:08Z</time>
      </trkpt>
      <trkpt lat="43.71276" lon="3.87609">
        <ele>131</ele>
        <time>2021-03-27T12:29:09Z</time>
      </trkpt>
      <trkpt lat="43.71276" lon="3.87612">
        <ele>131</ele>
        <time>2021-03-27T12:29:10Z</time>
      </trkpt>
      <trkpt lat="43.71276" lon="3.87615">
        <ele>131</ele>
        <time>2021-03-27T12:29:11Z</time>
      </trkpt>
      <trkpt lat="43.71275" lon="3.87618">
        <ele>131</ele>
        <time>2021-03-27T12:29:12Z</time>
      </trkpt>
      <trkpt lat="43.71275" lon="3.87621">
        <ele>131</ele>
        <time>2021-03-27T12:29:13Z</time>
      </trkpt>
      <trkpt lat="43.71275" lon="3.87623">
        <ele>131</ele>
        <time>2021-03-27T12:29:14Z</time>
      </trkpt>
      <trkpt lat="43.71275" lon="3.87626">
        <ele>131</ele>
        <time>2021-03-27T12:29:15Z</time>
      </trkpt>
      <trkpt lat="43.71274" lon="3.87629">
        <ele>133</ele>
        <time>2021-03-27T12:29:16Z</time>
      </trkpt>
      <trkpt lat="43.71273" lon="3.87631">
        <ele>133</ele>
        <time>2021-03-27T12:29:17Z</time>
      </trkpt>
      <trkpt lat="43.71271" lon="3.87633">
        <ele>133</ele>
        <time>2021-03-27T12:29:18Z</time>
      </trkpt>
      <trkpt lat="43.71268" lon="3.87634">
        <ele>133</ele>
        <time>2021-03-27T12:29:19Z</time>
      </trkpt>
      <trkpt lat="43.71262" lon="3.87635">
        <ele>133</ele>
        <time>2021-03-27T12:29:20Z</time>
      </trkpt>
      <trkpt lat="43.71259" lon="3.87635">
        <ele>133</ele>
        <time>2021-03-27T12:29:21Z</time>
      </trkpt>
      <trkpt lat="43.71256" lon="3.87636">
        <ele>133</ele>
        <time>2021-03-27T12:29:22Z</time>
      </trkpt>
      <trkpt lat="43.71253" lon="3.87636">
        <ele>133</ele>
        <time>2021-03-27T12:29:23Z</time>
      </trkpt>
      <trkpt lat="43.7125" lon="3.87636">
        <ele>133</ele>
        <time>2021-03-27T12:29:24Z</time>
      </trkpt>
      <trkpt lat="43.71247" lon="3.87636">
        <ele>133</ele>
        <time>2021-03-27T12:29:25Z</time>
      </trkpt>
      <trkpt lat="43.71243" lon="3.87635">
        <ele>133</ele>
        <time>2021-03-27T12:29:26Z</time>
      </trkpt>
      <trkpt lat="43.7124" lon="3.87635">
        <ele>133</ele>
        <time>2021-03-27T12:29:28Z</time>
      </trkpt>
      <trkpt lat="43.71238" lon="3.87634">
        <ele>133</ele>
        <time>2021-03-27T12:29:29Z</time>
      </trkpt>
      <trkpt lat="43.71233" lon="3.87632">
        <ele>133</ele>
        <time>2021-03-27T12:29:30Z</time>
      </trkpt>
      <trkpt lat="43.71231" lon="3.87632">
        <ele>133</ele>
        <time>2021-03-27T12:29:31Z</time>
      </trkpt>
      <trkpt lat="43.71225" lon="3.87631">
        <ele>133</ele>
        <time>2021-03-27T12:29:33Z</time>
      </trkpt>
      <trkpt lat="43.71222" lon="3.87631">
        <ele>133</ele>
        <time>2021-03-27T12:29:35Z</time>
      </trkpt>
      <trkpt lat="43.71219" lon="3.87632">
        <ele>133</ele>
        <time>2021-03-27T12:29:36Z</time>
      </trkpt>
      <trkpt lat="43.71216" lon="3.87632">
        <ele>133</ele>
        <time>2021-03-27T12:29:37Z</time>
      </trkpt>
      <trkpt lat="43.71213" lon="3.87632">
        <ele>133</ele>
        <time>2021-03-27T12:29:38Z</time>
      </trkpt>
      <trkpt lat="43.7121" lon="3.8763">
        <ele>133</ele>
        <time>2021-03-27T12:29:39Z</time>
      </trkpt>
      <trkpt lat="43.71206" lon="3.87629">
        <ele>133</ele>
        <time>2021-03-27T12:29:40Z</time>
      </trkpt>
      <trkpt lat="43.71203" lon="3.87628">
        <ele>133</ele>
        <time>2021-03-27T12:29:41Z</time>
      </trkpt>
      <trkpt lat="43.712" lon="3.87627">
        <ele>133</ele>
        <time>2021-03-27T12:29:42Z</time>
      </trkpt>
      <trkpt lat="43.71198" lon="3.87627">
        <ele>133</ele>
        <time>2021-03-27T12:29:43Z</time>
      </trkpt>
      <trkpt lat="43.71196" lon="3.87628">
        <ele>133</ele>
        <time>2021-03-27T12:29:44Z</time>
      </trkpt>
      <trkpt lat="43.71192" lon="3.87628">
        <ele>133</ele>
        <time>2021-03-27T12:29:46Z</time>
      </trkpt>
      <trkpt lat="43.71189" lon="3.87627">
        <ele>132</ele>
        <time>2021-03-27T12:29:47Z</time>
      </trkpt>
      <trkpt lat="43.71183" lon="3.87624">
        <ele>132</ele>
        <time>2021-03-27T12:29:48Z</time>
      </trkpt>
      <trkpt lat="43.7118" lon="3.87621">
        <ele>132</ele>
        <time>2021-03-27T12:29:49Z</time>
      </trkpt>
      <trkpt lat="43.71177" lon="3.87615">
        <ele>132</ele>
        <time>2021-03-27T12:29:50Z</time>
      </trkpt>
      <trkpt lat="43.71176" lon="3.8761">
        <ele>132</ele>
        <time>2021-03-27T12:29:51Z</time>
      </trkpt>
      <trkpt lat="43.71175" lon="3.87607">
        <ele>132</ele>
        <time>2021-03-27T12:29:52Z</time>
      </trkpt>
      <trkpt lat="43.71174" lon="3.87604">
        <ele>132</ele>
        <time>2021-03-27T12:29:53Z</time>
      </trkpt>
      <trkpt lat="43.71173" lon="3.87602">
        <ele>132</ele>
        <time>2021-03-27T12:29:54Z</time>
      </trkpt>
      <trkpt lat="43.71172" lon="3.876">
        <ele>132</ele>
        <time>2021-03-27T12:29:55Z</time>
      </trkpt>
      <trkpt lat="43.71171" lon="3.87599">
        <ele>129</ele>
        <time>2021-03-27T12:30:06Z</time>
      </trkpt>
      <trkpt lat="43.71173" lon="3.87606">
        <ele>127</ele>
        <time>2021-03-27T12:31:38Z</time>
      </trkpt>
      <trkpt lat="43.71173" lon="3.87606">
        <ele>126</ele>
        <time>2021-03-27T12:31:43Z</time>
      </trkpt>
      <trkpt lat="43.71177" lon="3.87614">
        <ele>125</ele>
        <time>2021-03-27T12:31:51Z</time>
      </trkpt>
      <trkpt lat="43.71179" lon="3.87618">
        <ele>125</ele>
        <time>2021-03-27T12:31:52Z</time>
      </trkpt>
      <trkpt lat="43.71182" lon="3.87621">
        <ele>125</ele>
        <time>2021-03-27T12:31:54Z</time>
      </trkpt>
      <trkpt lat="43.71184" lon="3.87623">
        <ele>125</ele>
        <time>2021-03-27T12:31:56Z</time>
      </trkpt>
      <trkpt lat="43.71187" lon="3.87624">
        <ele>125</ele>
        <time>2021-03-27T12:31:59Z</time>
      </trkpt>
      <trkpt lat="43.7119" lon="3.87625">
        <ele>125</ele>
        <time>2021-03-27T12:32:01Z</time>
      </trkpt>
      <trkpt lat="43.71194" lon="3.87625">
        <ele>125</ele>
        <time>2021-03-27T12:32:03Z</time>
      </trkpt>
      <trkpt lat="43.71197" lon="3.87624">
        <ele>125</ele>
        <time>2021-03-27T12:32:05Z</time>
      </trkpt>
      <trkpt lat="43.712" lon="3.87624">
        <ele>125</ele>
        <time>2021-03-27T12:32:07Z</time>
      </trkpt>
      <trkpt lat="43.71203" lon="3.87625">
        <ele>125</ele>
        <time>2021-03-27T12:32:09Z</time>
      </trkpt>
      <trkpt lat="43.71205" lon="3.87626">
        <ele>126</ele>
        <time>2021-03-27T12:32:11Z</time>
      </trkpt>
      <trkpt lat="43.71208" lon="3.87628">
        <ele>126</ele>
        <time>2021-03-27T12:32:12Z</time>
      </trkpt>
      <trkpt lat="43.71211" lon="3.87628">
        <ele>126</ele>
        <time>2021-03-27T12:32:14Z</time>
      </trkpt>
      <trkpt lat="43.71214" lon="3.87628">
        <ele>126</ele>
        <time>2021-03-27T12:32:16Z</time>
      </trkpt>
      <trkpt lat="43.71217" lon="3.87628">
        <ele>126</ele>
        <time>2021-03-27T12:32:18Z</time>
      </trkpt>
      <trkpt lat="43.7122" lon="3.87628">
        <ele>127</ele>
        <time>2021-03-27T12:32:20Z</time>
      </trkpt>
      <trkpt lat="43.71222" lon="3.87629">
        <ele>127</ele>
        <time>2021-03-27T12:32:22Z</time>
      </trkpt>
      <trkpt lat="43.71225" lon="3.87629">
        <ele>127</ele>
        <time>2021-03-27T12:32:24Z</time>
      </trkpt>
      <trkpt lat="43.71227" lon="3.87629">
        <ele>127</ele>
        <time>2021-03-27T12:32:27Z</time>
      </trkpt>
      <trkpt lat="43.71231" lon="3.8763">
        <ele>127</ele>
        <time>2021-03-27T12:32:29Z</time>
      </trkpt>
      <trkpt lat="43.71233" lon="3.87631">
        <ele>127</ele>
        <time>2021-03-27T12:32:31Z</time>
      </trkpt>
      <trkpt lat="43.71236" lon="3.87631">
        <ele>127</ele>
        <time>2021-03-27T12:32:32Z</time>
      </trkpt>
      <trkpt lat="43.71239" lon="3.87632">
        <ele>127</ele>
        <time>2021-03-27T12:32:34Z</time>
      </trkpt>
      <trkpt lat="43.71243" lon="3.87632">
        <ele>127</ele>
        <time>2021-03-27T12:32:36Z</time>
      </trkpt>
      <trkpt lat="43.71246" lon="3.87633">
        <ele>127</ele>
        <time>2021-03-27T12:32:38Z</time>
      </trkpt>
      <trkpt lat="43.71249" lon="3.87634">
        <ele>127</ele>
        <time>2021-03-27T12:32:41Z</time>
      </trkpt>
      <trkpt lat="43.71253" lon="3.87634">
        <ele>127</ele>
        <time>2021-03-27T12:32:42Z</time>
      </trkpt>
      <trkpt lat="43.71255" lon="3.87634">
        <ele>127</ele>
        <time>2021-03-27T12:32:43Z</time>
      </trkpt>
      <trkpt lat="43.71257" lon="3.87634">
        <ele>127</ele>
        <time>2021-03-27T12:32:44Z</time>
      </trkpt>
      <trkpt lat="43.7126" lon="3.87634">
        <ele>127</ele>
        <time>2021-03-27T12:32:46Z</time>
      </trkpt>
      <trkpt lat="43.71263" lon="3.87633">
        <ele>127</ele>
        <time>2021-03-27T12:32:49Z</time>
      </trkpt>
      <trkpt lat="43.71266" lon="3.87633">
        <ele>127</ele>
        <time>2021-03-27T12:32:51Z</time>
      </trkpt>
      <trkpt lat="43.7127" lon="3.87633">
        <ele>127</ele>
        <time>2021-03-27T12:32:52Z</time>
      </trkpt>
      <trkpt lat="43.71272" lon="3.87634">
        <ele>127</ele>
        <time>2021-03-27T12:32:53Z</time>
      </trkpt>
      <trkpt lat="43.71274" lon="3.87635">
        <ele>127</ele>
        <time>2021-03-27T12:32:54Z</time>
      </trkpt>
      <trkpt lat="43.71277" lon="3.8764">
        <ele>127</ele>
        <time>2021-03-27T12:32:56Z</time>
      </trkpt>
      <trkpt lat="43.71277" lon="3.87643">
        <ele>127</ele>
        <time>2021-03-27T12:32:57Z</time>
      </trkpt>
      <trkpt lat="43.71277" lon="3.87645">
        <ele>127</ele>
        <time>2021-03-27T12:32:59Z</time>
      </trkpt>
      <trkpt lat="43.71278" lon="3.87648">
        <ele>127</ele>
        <time>2021-03-27T12:33:00Z</time>
      </trkpt>
      <trkpt lat="43.71278" lon="3.8765">
        <ele>132</ele>
        <time>2021-03-27T12:33:01Z</time>
      </trkpt>
      <trkpt lat="43.71279" lon="3.87656">
        <ele>132</ele>
        <time>2021-03-27T12:33:02Z</time>
      </trkpt>
      <trkpt lat="43.71279" lon="3.87659">
        <ele>132</ele>
        <time>2021-03-27T12:33:03Z</time>
      </trkpt>
      <trkpt lat="43.71279" lon="3.87661">
        <ele>132</ele>
        <time>2021-03-27T12:33:05Z</time>
      </trkpt>
      <trkpt lat="43.7128" lon="3.87666">
        <ele>132</ele>
        <time>2021-03-27T12:33:06Z</time>
      </trkpt>
      <trkpt lat="43.7128" lon="3.87669">
        <ele>132</ele>
        <time>2021-03-27T12:33:08Z</time>
      </trkpt>
      <trkpt lat="43.7128" lon="3.87674">
        <ele>132</ele>
        <time>2021-03-27T12:33:09Z</time>
      </trkpt>
      <trkpt lat="43.7128" lon="3.87679">
        <ele>135</ele>
        <time>2021-03-27T12:33:11Z</time>
      </trkpt>
      <trkpt lat="43.7128" lon="3.87684">
        <ele>135</ele>
        <time>2021-03-27T12:33:13Z</time>
      </trkpt>
      <trkpt lat="43.7128" lon="3.87687">
        <ele>135</ele>
        <time>2021-03-27T12:33:14Z</time>
      </trkpt>
      <trkpt lat="43.7128" lon="3.8769">
        <ele>135</ele>
        <time>2021-03-27T12:33:15Z</time>
      </trkpt>
      <trkpt lat="43.7128" lon="3.87692">
        <ele>135</ele>
        <time>2021-03-27T12:33:16Z</time>
      </trkpt>
      <trkpt lat="43.7128" lon="3.87695">
        <ele>135</ele>
        <time>2021-03-27T12:33:17Z</time>
      </trkpt>
      <trkpt lat="43.7128" lon="3.87697">
        <ele>135</ele>
        <time>2021-03-27T12:33:18Z</time>
      </trkpt>
      <trkpt lat="43.7128" lon="3.877">
        <ele>135</ele>
        <time>2021-03-27T12:33:19Z</time>
      </trkpt>
      <trkpt lat="43.71279" lon="3.87706">
        <ele>135</ele>
        <time>2021-03-27T12:33:21Z</time>
      </trkpt>
      <trkpt lat="43.71279" lon="3.87709">
        <ele>135</ele>
        <time>2021-03-27T12:33:23Z</time>
      </trkpt>
      <trkpt lat="43.71279" lon="3.87712">
        <ele>135</ele>
        <time>2021-03-27T12:33:24Z</time>
      </trkpt>
      <trkpt lat="43.71279" lon="3.87718">
        <ele>135</ele>
        <time>2021-03-27T12:33:25Z</time>
      </trkpt>
      <trkpt lat="43.71279" lon="3.87725">
        <ele>135</ele>
        <time>2021-03-27T12:33:27Z</time>
      </trkpt>
      <trkpt lat="43.71278" lon="3.87728">
        <ele>135</ele>
        <time>2021-03-27T12:33:28Z</time>
      </trkpt>
      <trkpt lat="43.71278" lon="3.87734">
        <ele>139</ele>
        <time>2021-03-27T12:33:30Z</time>
      </trkpt>
      <trkpt lat="43.71277" lon="3.87737">
        <ele>139</ele>
        <time>2021-03-27T12:33:32Z</time>
      </trkpt>
      <trkpt lat="43.71276" lon="3.87743">
        <ele>139</ele>
        <time>2021-03-27T12:33:33Z</time>
      </trkpt>
      <trkpt lat="43.71276" lon="3.87746">
        <ele>139</ele>
        <time>2021-03-27T12:33:35Z</time>
      </trkpt>
      <trkpt lat="43.71276" lon="3.87752">
        <ele>139</ele>
        <time>2021-03-27T12:33:36Z</time>
      </trkpt>
      <trkpt lat="43.71276" lon="3.87755">
        <ele>139</ele>
        <time>2021-03-27T12:33:37Z</time>
      </trkpt>
      <trkpt lat="43.71275" lon="3.87758">
        <ele>139</ele>
        <time>2021-03-27T12:33:39Z</time>
      </trkpt>
      <trkpt lat="43.71275" lon="3.87761">
        <ele>141</ele>
        <time>2021-03-27T12:33:40Z</time>
      </trkpt>
      <trkpt lat="43.71274" lon="3.87764">
        <ele>141</ele>
        <time>2021-03-27T12:33:41Z</time>
      </trkpt>
      <trkpt lat="43.71273" lon="3.87767">
        <ele>141</ele>
        <time>2021-03-27T12:33:42Z</time>
      </trkpt>
      <trkpt lat="43.71273" lon="3.8777">
        <ele>141</ele>
        <time>2021-03-27T12:33:43Z</time>
      </trkpt>
      <trkpt lat="43.71272" lon="3.87773">
        <ele>141</ele>
        <time>2021-03-27T12:33:44Z</time>
      </trkpt>
      <trkpt lat="43.71272" lon="3.87776">
        <ele>141</ele>
        <time>2021-03-27T12:33:45Z</time>
      </trkpt>
      <trkpt lat="43.71271" lon="3.87782">
        <ele>141</ele>
        <time>2021-03-27T12:33:46Z</time>
      </trkpt>
      <trkpt lat="43.7127" lon="3.87785">
        <ele>141</ele>
        <time>2021-03-27T12:33:47Z</time>
      </trkpt>
      <trkpt lat="43.7127" lon="3.87788">
        <ele>141</ele>
        <time>2021-03-27T12:33:48Z</time>
      </trkpt>
      <trkpt lat="43.71269" lon="3.87791">
        <ele>141</ele>
        <time>2021-03-27T12:33:49Z</time>
      </trkpt>
      <trkpt lat="43.71269" lon="3.87794">
        <ele>143</ele>
        <time>2021-03-27T12:33:50Z</time>
      </trkpt>
      <trkpt lat="43.71268" lon="3.87797">
        <ele>143</ele>
        <time>2021-03-27T12:33:51Z</time>
      </trkpt>
      <trkpt lat="43.71268" lon="3.878">
        <ele>143</ele>
        <time>2021-03-27T12:33:52Z</time>
      </trkpt>
      <trkpt lat="43.71267" lon="3.87804">
        <ele>143</ele>
        <time>2021-03-27T12:33:54Z</time>
      </trkpt>
      <trkpt lat="43.71267" lon="3.87807">
        <ele>143</ele>
        <time>2021-03-27T12:33:55Z</time>
      </trkpt>
      <trkpt lat="43.71267" lon="3.8781">
        <ele>143</ele>
        <time>2021-03-27T12:33:56Z</time>
      </trkpt>
      <trkpt lat="43.71266" lon="3.87814">
        <ele>143</ele>
        <time>2021-03-27T12:33:57Z</time>
      </trkpt>
      <trkpt lat="43.71266" lon="3.87817">
        <ele>143</ele>
        <time>2021-03-27T12:33:58Z</time>
      </trkpt>
      <trkpt lat="43.71265" lon="3.87823">
        <ele>143</ele>
        <time>2021-03-27T12:33:59Z</time>
      </trkpt>
      <trkpt lat="43.71265" lon="3.87827">
        <ele>144</ele>
        <time>2021-03-27T12:34:00Z</time>
      </trkpt>
      <trkpt lat="43.71264" lon="3.8783">
        <ele>144</ele>
        <time>2021-03-27T12:34:02Z</time>
      </trkpt>
      <trkpt lat="43.71264" lon="3.87833">
        <ele>144</ele>
        <time>2021-03-27T12:34:03Z</time>
      </trkpt>
      <trkpt lat="43.71263" lon="3.87836">
        <ele>144</ele>
        <time>2021-03-27T12:34:04Z</time>
      </trkpt>
      <trkpt lat="43.71262" lon="3.8784">
        <ele>144</ele>
        <time>2021-03-27T12:34:05Z</time>
      </trkpt>
      <trkpt lat="43.71262" lon="3.87843">
        <ele>144</ele>
        <time>2021-03-27T12:34:06Z</time>
      </trkpt>
      <trkpt lat="43.71261" lon="3.87846">
        <ele>144</ele>
        <time>2021-03-27T12:34:07Z</time>
      </trkpt>
      <trkpt lat="43.7126" lon="3.87849">
        <ele>144</ele>
        <time>2021-03-27T12:34:08Z</time>
      </trkpt>
      <trkpt lat="43.71259" lon="3.87852">
        <ele>144</ele>
        <time>2021-03-27T12:34:09Z</time>
      </trkpt>
      <trkpt lat="43.71258" lon="3.87855">
        <ele>146</ele>
        <time>2021-03-27T12:34:10Z</time>
      </trkpt>
      <trkpt lat="43.71258" lon="3.87858">
        <ele>146</ele>
        <time>2021-03-27T12:34:11Z</time>
      </trkpt>
      <trkpt lat="43.71257" lon="3.87861">
        <ele>146</ele>
        <time>2021-03-27T12:34:12Z</time>
      </trkpt>
      <trkpt lat="43.71256" lon="3.87865">
        <ele>146</ele>
        <time>2021-03-27T12:34:14Z</time>
      </trkpt>
      <trkpt lat="43.71256" lon="3.87868">
        <ele>146</ele>
        <time>2021-03-27T12:34:15Z</time>
      </trkpt>
      <trkpt lat="43.71255" lon="3.8787">
        <ele>146</ele>
        <time>2021-03-27T12:34:16Z</time>
      </trkpt>
      <trkpt lat="43.71254" lon="3.87873">
        <ele>146</ele>
        <time>2021-03-27T12:34:17Z</time>
      </trkpt>
      <trkpt lat="43.71254" lon="3.87876">
        <ele>146</ele>
        <time>2021-03-27T12:34:18Z</time>
      </trkpt>
      <trkpt lat="43.71253" lon="3.8788">
        <ele>146</ele>
        <time>2021-03-27T12:34:19Z</time>
      </trkpt>
      <trkpt lat="43.71252" lon="3.87883">
        <ele>146</ele>
        <time>2021-03-27T12:34:20Z</time>
      </trkpt>
      <trkpt lat="43.71251" lon="3.87887">
        <ele>146</ele>
        <time>2021-03-27T12:34:21Z</time>
      </trkpt>
      <trkpt lat="43.71251" lon="3.87891">
        <ele>146</ele>
        <time>2021-03-27T12:34:22Z</time>
      </trkpt>
      <trkpt lat="43.7125" lon="3.87895">
        <ele>146</ele>
        <time>2021-03-27T12:34:23Z</time>
      </trkpt>
      <trkpt lat="43.7125" lon="3.87899">
        <ele>146</ele>
        <time>2021-03-27T12:34:24Z</time>
      </trkpt>
      <trkpt lat="43.71249" lon="3.87903">
        <ele>146</ele>
        <time>2021-03-27T12:34:25Z</time>
      </trkpt>
      <trkpt lat="43.71249" lon="3.87906">
        <ele>146</ele>
        <time>2021-03-27T12:34:26Z</time>
      </trkpt>
      <trkpt lat="43.71249" lon="3.87911">
        <ele>146</ele>
        <time>2021-03-27T12:34:27Z</time>
      </trkpt>
      <trkpt lat="43.71249" lon="3.87915">
        <ele>146</ele>
        <time>2021-03-27T12:34:28Z</time>
      </trkpt>
      <trkpt lat="43.71248" lon="3.87924">
        <ele>146</ele>
        <time>2021-03-27T12:34:29Z</time>
      </trkpt>
      <trkpt lat="43.71248" lon="3.87928">
        <ele>145</ele>
        <time>2021-03-27T12:34:30Z</time>
      </trkpt>
      <trkpt lat="43.71248" lon="3.87932">
        <ele>145</ele>
        <time>2021-03-27T12:34:31Z</time>
      </trkpt>
      <trkpt lat="43.71249" lon="3.87937">
        <ele>145</ele>
        <time>2021-03-27T12:34:32Z</time>
      </trkpt>
      <trkpt lat="43.71249" lon="3.87942">
        <ele>145</ele>
        <time>2021-03-27T12:34:34Z</time>
      </trkpt>
      <trkpt lat="43.7125" lon="3.87947">
        <ele>145</ele>
        <time>2021-03-27T12:34:35Z</time>
      </trkpt>
      <trkpt lat="43.7125" lon="3.87951">
        <ele>145</ele>
        <time>2021-03-27T12:34:36Z</time>
      </trkpt>
      <trkpt lat="43.71251" lon="3.87955">
        <ele>145</ele>
        <time>2021-03-27T12:34:37Z</time>
      </trkpt>
      <trkpt lat="43.71251" lon="3.87959">
        <ele>145</ele>
        <time>2021-03-27T12:34:38Z</time>
      </trkpt>
      <trkpt lat="43.71252" lon="3.87963">
        <ele>145</ele>
        <time>2021-03-27T12:34:39Z</time>
      </trkpt>
      <trkpt lat="43.71253" lon="3.87967">
        <ele>145</ele>
        <time>2021-03-27T12:34:40Z</time>
      </trkpt>
      <trkpt lat="43.71253" lon="3.8797">
        <ele>146</ele>
        <time>2021-03-27T12:34:41Z</time>
      </trkpt>
      <trkpt lat="43.71254" lon="3.87974">
        <ele>146</ele>
        <time>2021-03-27T12:34:42Z</time>
      </trkpt>
      <trkpt lat="43.71256" lon="3.8798">
        <ele>146</ele>
        <time>2021-03-27T12:34:43Z</time>
      </trkpt>
      <trkpt lat="43.71253" lon="3.87983">
        <ele>146</ele>
        <time>2021-03-27T12:34:45Z</time>
      </trkpt>
      <trkpt lat="43.71251" lon="3.87983">
        <ele>146</ele>
        <time>2021-03-27T12:34:47Z</time>
      </trkpt>
      <trkpt lat="43.71249" lon="3.87981">
        <ele>146</ele>
        <time>2021-03-27T12:34:48Z</time>
      </trkpt>
      <trkpt lat="43.71246" lon="3.8798">
        <ele>146</ele>
        <time>2021-03-27T12:34:49Z</time>
      </trkpt>
      <trkpt lat="43.71243" lon="3.87978">
        <ele>146</ele>
        <time>2021-03-27T12:34:50Z</time>
      </trkpt>
      <trkpt lat="43.71239" lon="3.87976">
        <ele>146</ele>
        <time>2021-03-27T12:34:51Z</time>
      </trkpt>
      <trkpt lat="43.71236" lon="3.87975">
        <ele>146</ele>
        <time>2021-03-27T12:34:52Z</time>
      </trkpt>
      <trkpt lat="43.71229" lon="3.87971">
        <ele>146</ele>
        <time>2021-03-27T12:34:53Z</time>
      </trkpt>
      <trkpt lat="43.71226" lon="3.87967">
        <ele>146</ele>
        <time>2021-03-27T12:34:54Z</time>
      </trkpt>
      <trkpt lat="43.71223" lon="3.87963">
        <ele>146</ele>
        <time>2021-03-27T12:34:55Z</time>
      </trkpt>
      <trkpt lat="43.71221" lon="3.87958">
        <ele>146</ele>
        <time>2021-03-27T12:34:56Z</time>
      </trkpt>
      <trkpt lat="43.7122" lon="3.87954">
        <ele>146</ele>
        <time>2021-03-27T12:34:57Z</time>
      </trkpt>
      <trkpt lat="43.71219" lon="3.8795">
        <ele>146</ele>
        <time>2021-03-27T12:34:58Z</time>
      </trkpt>
      <trkpt lat="43.71218" lon="3.87947">
        <ele>146</ele>
        <time>2021-03-27T12:34:59Z</time>
      </trkpt>
      <trkpt lat="43.71218" lon="3.87942">
        <ele>144</ele>
        <time>2021-03-27T12:35:00Z</time>
      </trkpt>
      <trkpt lat="43.71218" lon="3.87938">
        <ele>144</ele>
        <time>2021-03-27T12:35:02Z</time>
      </trkpt>
      <trkpt lat="43.71218" lon="3.87934">
        <ele>144</ele>
        <time>2021-03-27T12:35:03Z</time>
      </trkpt>
      <trkpt lat="43.71217" lon="3.87929">
        <ele>144</ele>
        <time>2021-03-27T12:35:04Z</time>
      </trkpt>
      <trkpt lat="43.71217" lon="3.87925">
        <ele>144</ele>
        <time>2021-03-27T12:35:05Z</time>
      </trkpt>
      <trkpt lat="43.71215" lon="3.87918">
        <ele>144</ele>
        <time>2021-03-27T12:35:06Z</time>
      </trkpt>
      <trkpt lat="43.71214" lon="3.87914">
        <ele>144</ele>
        <time>2021-03-27T12:35:07Z</time>
      </trkpt>
      <trkpt lat="43.71212" lon="3.87911">
        <ele>144</ele>
        <time>2021-03-27T12:35:08Z</time>
      </trkpt>
      <trkpt lat="43.7121" lon="3.87909">
        <ele>143</ele>
        <time>2021-03-27T12:35:10Z</time>
      </trkpt>
      <trkpt lat="43.71208" lon="3.87907">
        <ele>143</ele>
        <time>2021-03-27T12:35:11Z</time>
      </trkpt>
      <trkpt lat="43.71206" lon="3.87906">
        <ele>143</ele>
        <time>2021-03-27T12:35:12Z</time>
      </trkpt>
      <trkpt lat="43.71203" lon="3.87904">
        <ele>143</ele>
        <time>2021-03-27T12:35:13Z</time>
      </trkpt>
      <trkpt lat="43.712" lon="3.87903">
        <ele>143</ele>
        <time>2021-03-27T12:35:14Z</time>
      </trkpt>
      <trkpt lat="43.71197" lon="3.87901">
        <ele>143</ele>
        <time>2021-03-27T12:35:15Z</time>
      </trkpt>
      <trkpt lat="43.71194" lon="3.879">
        <ele>143</ele>
        <time>2021-03-27T12:35:16Z</time>
      </trkpt>
      <trkpt lat="43.71192" lon="3.879">
        <ele>143</ele>
        <time>2021-03-27T12:35:17Z</time>
      </trkpt>
      <trkpt lat="43.71187" lon="3.87904">
        <ele>143</ele>
        <time>2021-03-27T12:35:18Z</time>
      </trkpt>
      <trkpt lat="43.71184" lon="3.87905">
        <ele>143</ele>
        <time>2021-03-27T12:35:19Z</time>
      </trkpt>
      <trkpt lat="43.71176" lon="3.87903">
        <ele>141</ele>
        <time>2021-03-27T12:35:21Z</time>
      </trkpt>
      <trkpt lat="43.71174" lon="3.87899">
        <ele>141</ele>
        <time>2021-03-27T12:35:22Z</time>
      </trkpt>
      <trkpt lat="43.71173" lon="3.87895">
        <ele>141</ele>
        <time>2021-03-27T12:35:23Z</time>
      </trkpt>
      <trkpt lat="43.71173" lon="3.87892">
        <ele>141</ele>
        <time>2021-03-27T12:35:24Z</time>
      </trkpt>
      <trkpt lat="43.71171" lon="3.87889">
        <ele>141</ele>
        <time>2021-03-27T12:35:25Z</time>
      </trkpt>
      <trkpt lat="43.71171" lon="3.87886">
        <ele>141</ele>
        <time>2021-03-27T12:35:26Z</time>
      </trkpt>
      <trkpt lat="43.7117" lon="3.87882">
        <ele>141</ele>
        <time>2021-03-27T12:35:27Z</time>
      </trkpt>
      <trkpt lat="43.7117" lon="3.87879">
        <ele>141</ele>
        <time>2021-03-27T12:35:28Z</time>
      </trkpt>
      <trkpt lat="43.71169" lon="3.87875">
        <ele>138</ele>
        <time>2021-03-27T12:35:30Z</time>
      </trkpt>
      <trkpt lat="43.71168" lon="3.87871">
        <ele>138</ele>
        <time>2021-03-27T12:35:33Z</time>
      </trkpt>
      <trkpt lat="43.71166" lon="3.87869">
        <ele>138</ele>
        <time>2021-03-27T12:35:35Z</time>
      </trkpt>
      <trkpt lat="43.71163" lon="3.87866">
        <ele>138</ele>
        <time>2021-03-27T12:35:37Z</time>
      </trkpt>
      <trkpt lat="43.71161" lon="3.87864">
        <ele>138</ele>
        <time>2021-03-27T12:35:39Z</time>
      </trkpt>
      <trkpt lat="43.7116" lon="3.87863">
        <ele>138</ele>
        <time>2021-03-27T12:35:40Z</time>
      </trkpt>
      <trkpt lat="43.71159" lon="3.8786">
        <ele>136</ele>
        <time>2021-03-27T12:35:41Z</time>
      </trkpt>
      <trkpt lat="43.71157" lon="3.87858">
        <ele>136</ele>
        <time>2021-03-27T12:35:42Z</time>
      </trkpt>
      <trkpt lat="43.71156" lon="3.87856">
        <ele>136</ele>
        <time>2021-03-27T12:35:43Z</time>
      </trkpt>
      <trkpt lat="43.71154" lon="3.87854">
        <ele>136</ele>
        <time>2021-03-27T12:35:44Z</time>
      </trkpt>
      <trkpt lat="43.71153" lon="3.87852">
        <ele>136</ele>
        <time>2021-03-27T12:35:45Z</time>
      </trkpt>
      <trkpt lat="43.71151" lon="3.8785">
        <ele>136</ele>
        <time>2021-03-27T12:35:46Z</time>
      </trkpt>
      <trkpt lat="43.7115" lon="3.87848">
        <ele>136</ele>
        <time>2021-03-27T12:35:47Z</time>
      </trkpt>
      <trkpt lat="43.71149" lon="3.87846">
        <ele>136</ele>
        <time>2021-03-27T12:35:50Z</time>
      </trkpt>
      <trkpt lat="43.71147" lon="3.87844">
        <ele>136</ele>
        <time>2021-03-27T12:35:52Z</time>
      </trkpt>
      <trkpt lat="43.71144" lon="3.87841">
        <ele>136</ele>
        <time>2021-03-27T12:35:54Z</time>
      </trkpt>
      <trkpt lat="43.71142" lon="3.87834">
        <ele>136</ele>
        <time>2021-03-27T12:35:55Z</time>
      </trkpt>
      <trkpt lat="43.71139" lon="3.87831">
        <ele>136</ele>
        <time>2021-03-27T12:35:57Z</time>
      </trkpt>
      <trkpt lat="43.71137" lon="3.87829">
        <ele>136</ele>
        <time>2021-03-27T12:35:59Z</time>
      </trkpt>
      <trkpt lat="43.71133" lon="3.87829">
        <ele>132</ele>
        <time>2021-03-27T12:36:00Z</time>
      </trkpt>
      <trkpt lat="43.7113" lon="3.87829">
        <ele>132</ele>
        <time>2021-03-27T12:36:01Z</time>
      </trkpt>
      <trkpt lat="43.71128" lon="3.87831">
        <ele>132</ele>
        <time>2021-03-27T12:36:02Z</time>
      </trkpt>
      <trkpt lat="43.71125" lon="3.87832">
        <ele>132</ele>
        <time>2021-03-27T12:36:03Z</time>
      </trkpt>
      <trkpt lat="43.71123" lon="3.87832">
        <ele>132</ele>
        <time>2021-03-27T12:36:04Z</time>
      </trkpt>
      <trkpt lat="43.7112" lon="3.87832">
        <ele>132</ele>
        <time>2021-03-27T12:36:06Z</time>
      </trkpt>
      <trkpt lat="43.71118" lon="3.87832">
        <ele>132</ele>
        <time>2021-03-27T12:36:09Z</time>
      </trkpt>
      <trkpt lat="43.71116" lon="3.87833">
        <ele>132</ele>
        <time>2021-03-27T12:36:14Z</time>
      </trkpt>
      <trkpt lat="43.71114" lon="3.87833">
        <ele>132</ele>
        <time>2021-03-27T12:36:18Z</time>
      </trkpt>
      <trkpt lat="43.71112" lon="3.87834">
        <ele>132</ele>
        <time>2021-03-27T12:36:21Z</time>
      </trkpt>
      <trkpt lat="43.7111" lon="3.87833">
        <ele>132</ele>
        <time>2021-03-27T12:36:24Z</time>
      </trkpt>
      <trkpt lat="43.71108" lon="3.87833">
        <ele>132</ele>
        <time>2021-03-27T12:36:27Z</time>
      </trkpt>
      <trkpt lat="43.71106" lon="3.87832">
        <ele>132</ele>
        <time>2021-03-27T12:36:29Z</time>
      </trkpt>
      <trkpt lat="43.71104" lon="3.87831">
        <ele>132</ele>
        <time>2021-03-27T12:36:33Z</time>
      </trkpt>
      <trkpt lat="43.71102" lon="3.8783">
        <ele>132</ele>
        <time>2021-03-27T12:36:38Z</time>
      </trkpt>
      <trkpt lat="43.711" lon="3.87829">
        <ele>132</ele>
        <time>2021-03-27T12:36:42Z</time>
      </trkpt>
      <trkpt lat="43.71098" lon="3.87827">
        <ele>132</ele>
        <time>2021-03-27T12:36:45Z</time>
      </trkpt>
      <trkpt lat="43.71096" lon="3.87826">
        <ele>132</ele>
        <time>2021-03-27T12:36:48Z</time>
      </trkpt>
      <trkpt lat="43.71094" lon="3.87825">
        <ele>132</ele>
        <time>2021-03-27T12:36:50Z</time>
      </trkpt>
      <trkpt lat="43.71092" lon="3.87824">
        <ele>132</ele>
        <time>2021-03-27T12:36:54Z</time>
      </trkpt>
      <trkpt lat="43.71091" lon="3.87822">
        <ele>132</ele>
        <time>2021-03-27T12:36:57Z</time>
      </trkpt>
      <trkpt lat="43.71089" lon="3.87821">
        <ele>132</ele>
        <time>2021-03-27T12:36:59Z</time>
      </trkpt>
      <trkpt lat="43.71087" lon="3.8782">
        <ele>136</ele>
        <time>2021-03-27T12:37:01Z</time>
      </trkpt>
      <trkpt lat="43.71085" lon="3.87819">
        <ele>136</ele>
        <time>2021-03-27T12:37:04Z</time>
      </trkpt>
      <trkpt lat="43.71083" lon="3.87817">
        <ele>136</ele>
        <time>2021-03-27T12:37:08Z</time>
      </trkpt>
      <trkpt lat="43.71081" lon="3.87816">
        <ele>136</ele>
        <time>2021-03-27T12:37:11Z</time>
      </trkpt>
      <trkpt lat="43.71079" lon="3.87814">
        <ele>136</ele>
        <time>2021-03-27T12:37:13Z</time>
      </trkpt>
      <trkpt lat="43.71079" lon="3.87812">
        <ele>136</ele>
        <time>2021-03-27T12:37:21Z</time>
      </trkpt>
      <trkpt lat="43.71078" lon="3.87801">
        <ele>138</ele>
        <time>2021-03-27T12:37:29Z</time>
      </trkpt>
      <trkpt lat="43.71077" lon="3.87798">
        <ele>138</ele>
        <time>2021-03-27T12:37:30Z</time>
      </trkpt>
      <trkpt lat="43.71076" lon="3.87793">
        <ele>138</ele>
        <time>2021-03-27T12:37:31Z</time>
      </trkpt>
      <trkpt lat="43.71075" lon="3.8779">
        <ele>138</ele>
        <time>2021-03-27T12:37:33Z</time>
      </trkpt>
      <trkpt lat="43.71074" lon="3.87788">
        <ele>138</ele>
        <time>2021-03-27T12:37:34Z</time>
      </trkpt>
      <trkpt lat="43.71073" lon="3.87786">
        <ele>138</ele>
        <time>2021-03-27T12:37:35Z</time>
      </trkpt>
      <trkpt lat="43.7107" lon="3.87782">
        <ele>138</ele>
        <time>2021-03-27T12:37:37Z</time>
      </trkpt>
      <trkpt lat="43.71069" lon="3.8778">
        <ele>138</ele>
        <time>2021-03-27T12:37:38Z</time>
      </trkpt>
      <trkpt lat="43.71068" lon="3.87778">
        <ele>139</ele>
        <time>2021-03-27T12:37:39Z</time>
      </trkpt>
      <trkpt lat="43.71066" lon="3.87773">
        <ele>139</ele>
        <time>2021-03-27T12:37:40Z</time>
      </trkpt>
      <trkpt lat="43.71065" lon="3.87771">
        <ele>139</ele>
        <time>2021-03-27T12:37:41Z</time>
      </trkpt>
      <trkpt lat="43.71063" lon="3.87768">
        <ele>139</ele>
        <time>2021-03-27T12:37:43Z</time>
      </trkpt>
      <trkpt lat="43.71061" lon="3.87764">
        <ele>139</ele>
        <time>2021-03-27T12:37:44Z</time>
      </trkpt>
      <trkpt lat="43.71059" lon="3.87759">
        <ele>139</ele>
        <time>2021-03-27T12:37:46Z</time>
      </trkpt>
      <trkpt lat="43.71058" lon="3.87756">
        <ele>139</ele>
        <time>2021-03-27T12:37:47Z</time>
      </trkpt>
      <trkpt lat="43.71056" lon="3.87751">
        <ele>140</ele>
        <time>2021-03-27T12:37:49Z</time>
      </trkpt>
      <trkpt lat="43.71055" lon="3.87748">
        <ele>140</ele>
        <time>2021-03-27T12:37:50Z</time>
      </trkpt>
      <trkpt lat="43.71054" lon="3.87745">
        <ele>140</ele>
        <time>2021-03-27T12:37:51Z</time>
      </trkpt>
      <trkpt lat="43.71052" lon="3.87742">
        <ele>140</ele>
        <time>2021-03-27T12:37:52Z</time>
      </trkpt>
      <trkpt lat="43.71051" lon="3.8774">
        <ele>140</ele>
        <time>2021-03-27T12:37:53Z</time>
      </trkpt>
      <trkpt lat="43.71049" lon="3.87736">
        <ele>140</ele>
        <time>2021-03-27T12:37:54Z</time>
      </trkpt>
      <trkpt lat="43.71048" lon="3.87733">
        <ele>140</ele>
        <time>2021-03-27T12:37:55Z</time>
      </trkpt>
      <trkpt lat="43.71046" lon="3.8773">
        <ele>140</ele>
        <time>2021-03-27T12:37:56Z</time>
      </trkpt>
      <trkpt lat="43.71045" lon="3.87727">
        <ele>140</ele>
        <time>2021-03-27T12:37:57Z</time>
      </trkpt>
      <trkpt lat="43.71041" lon="3.87722">
        <ele>141</ele>
        <time>2021-03-27T12:37:59Z</time>
      </trkpt>
      <trkpt lat="43.71039" lon="3.87719">
        <ele>141</ele>
        <time>2021-03-27T12:38:01Z</time>
      </trkpt>
      <trkpt lat="43.71036" lon="3.87713">
        <ele>141</ele>
        <time>2021-03-27T12:38:02Z</time>
      </trkpt>
      <trkpt lat="43.71035" lon="3.8771">
        <ele>141</ele>
        <time>2021-03-27T12:38:03Z</time>
      </trkpt>
      <trkpt lat="43.71034" lon="3.87707">
        <ele>141</ele>
        <time>2021-03-27T12:38:04Z</time>
      </trkpt>
      <trkpt lat="43.71031" lon="3.877">
        <ele>141</ele>
        <time>2021-03-27T12:38:06Z</time>
      </trkpt>
      <trkpt lat="43.71029" lon="3.87693">
        <ele>141</ele>
        <time>2021-03-27T12:38:08Z</time>
      </trkpt>
      <trkpt lat="43.71028" lon="3.8769">
        <ele>141</ele>
        <time>2021-03-27T12:38:10Z</time>
      </trkpt>
      <trkpt lat="43.71026" lon="3.87688">
        <ele>141</ele>
        <time>2021-03-27T12:38:11Z</time>
      </trkpt>
      <trkpt lat="43.71023" lon="3.87687">
        <ele>141</ele>
        <time>2021-03-27T12:38:12Z</time>
      </trkpt>
      <trkpt lat="43.71022" lon="3.87687">
        <ele>141</ele>
        <time>2021-03-27T12:38:13Z</time>
      </trkpt>
      <trkpt lat="43.71019" lon="3.87689">
        <ele>141</ele>
        <time>2021-03-27T12:38:15Z</time>
      </trkpt>
      <trkpt lat="43.71016" lon="3.87692">
        <ele>141</ele>
        <time>2021-03-27T12:38:16Z</time>
      </trkpt>
      <trkpt lat="43.71014" lon="3.87696">
        <ele>140</ele>
        <time>2021-03-27T12:38:18Z</time>
      </trkpt>
      <trkpt lat="43.71013" lon="3.877">
        <ele>140</ele>
        <time>2021-03-27T12:38:21Z</time>
      </trkpt>
      <trkpt lat="43.71011" lon="3.87703">
        <ele>140</ele>
        <time>2021-03-27T12:38:23Z</time>
      </trkpt>
      <trkpt lat="43.71008" lon="3.87707">
        <ele>140</ele>
        <time>2021-03-27T12:38:24Z</time>
      </trkpt>
      <trkpt lat="43.71007" lon="3.8771">
        <ele>140</ele>
        <time>2021-03-27T12:38:26Z</time>
      </trkpt>
      <trkpt lat="43.71005" lon="3.87713">
        <ele>140</ele>
        <time>2021-03-27T12:38:27Z</time>
      </trkpt>
      <trkpt lat="43.71004" lon="3.87716">
        <ele>139</ele>
        <time>2021-03-27T12:38:28Z</time>
      </trkpt>
      <trkpt lat="43.71002" lon="3.8772">
        <ele>139</ele>
        <time>2021-03-27T12:38:29Z</time>
      </trkpt>
      <trkpt lat="43.71" lon="3.87723">
        <ele>139</ele>
        <time>2021-03-27T12:38:30Z</time>
      </trkpt>
      <trkpt lat="43.70996" lon="3.8773">
        <ele>139</ele>
        <time>2021-03-27T12:38:31Z</time>
      </trkpt>
      <trkpt lat="43.70995" lon="3.87733">
        <ele>139</ele>
        <time>2021-03-27T12:38:33Z</time>
      </trkpt>
      <trkpt lat="43.7099" lon="3.8774">
        <ele>139</ele>
        <time>2021-03-27T12:38:34Z</time>
      </trkpt>
      <trkpt lat="43.70984" lon="3.87747">
        <ele>139</ele>
        <time>2021-03-27T12:38:36Z</time>
      </trkpt>
      <trkpt lat="43.70975" lon="3.87747">
        <ele>138</ele>
        <time>2021-03-27T12:38:38Z</time>
      </trkpt>
      <trkpt lat="43.70971" lon="3.87746">
        <ele>138</ele>
        <time>2021-03-27T12:38:40Z</time>
      </trkpt>
      <trkpt lat="43.70966" lon="3.87746">
        <ele>138</ele>
        <time>2021-03-27T12:38:41Z</time>
      </trkpt>
      <trkpt lat="43.70962" lon="3.87746">
        <ele>138</ele>
        <time>2021-03-27T12:38:42Z</time>
      </trkpt>
      <trkpt lat="43.70953" lon="3.87747">
        <ele>138</ele>
        <time>2021-03-27T12:38:43Z</time>
      </trkpt>
      <trkpt lat="43.70949" lon="3.87748">
        <ele>138</ele>
        <time>2021-03-27T12:38:44Z</time>
      </trkpt>
      <trkpt lat="43.70945" lon="3.8775">
        <ele>138</ele>
        <time>2021-03-27T12:38:46Z</time>
      </trkpt>
      <trkpt lat="43.70941" lon="3.87752">
        <ele>138</ele>
        <time>2021-03-27T12:38:47Z</time>
      </trkpt>
      <trkpt lat="43.70936" lon="3.87755">
        <ele>138</ele>
        <time>2021-03-27T12:38:48Z</time>
      </trkpt>
      <trkpt lat="43.70925" lon="3.87761">
        <ele>137</ele>
        <time>2021-03-27T12:38:49Z</time>
      </trkpt>
      <trkpt lat="43.70914" lon="3.87764">
        <ele>137</ele>
        <time>2021-03-27T12:38:51Z</time>
      </trkpt>
      <trkpt lat="43.70909" lon="3.87766">
        <ele>137</ele>
        <time>2021-03-27T12:38:52Z</time>
      </trkpt>
      <trkpt lat="43.70898" lon="3.87766">
        <ele>137</ele>
        <time>2021-03-27T12:38:54Z</time>
      </trkpt>
      <trkpt lat="43.70888" lon="3.87766">
        <ele>137</ele>
        <time>2021-03-27T12:38:56Z</time>
      </trkpt>
      <trkpt lat="43.70876" lon="3.87766">
        <ele>137</ele>
        <time>2021-03-27T12:38:58Z</time>
      </trkpt>
      <trkpt lat="43.70864" lon="3.87766">
        <ele>137</ele>
        <time>2021-03-27T12:39:00Z</time>
      </trkpt>
      <trkpt lat="43.70852" lon="3.8777">
        <ele>137</ele>
        <time>2021-03-27T12:39:02Z</time>
      </trkpt>
      <trkpt lat="43.70847" lon="3.87771">
        <ele>137</ele>
        <time>2021-03-27T12:39:03Z</time>
      </trkpt>
      <trkpt lat="43.70842" lon="3.87774">
        <ele>137</ele>
        <time>2021-03-27T12:39:04Z</time>
      </trkpt>
      <trkpt lat="43.70837" lon="3.87776">
        <ele>137</ele>
        <time>2021-03-27T12:39:05Z</time>
      </trkpt>
      <trkpt lat="43.70833" lon="3.87779">
        <ele>137</ele>
        <time>2021-03-27T12:39:06Z</time>
      </trkpt>
      <trkpt lat="43.70822" lon="3.87785">
        <ele>137</ele>
        <time>2021-03-27T12:39:08Z</time>
      </trkpt>
      <trkpt lat="43.70808" lon="3.87789">
        <ele>137</ele>
        <time>2021-03-27T12:39:10Z</time>
      </trkpt>
      <trkpt lat="43.70801" lon="3.87789">
        <ele>137</ele>
        <time>2021-03-27T12:39:11Z</time>
      </trkpt>
      <trkpt lat="43.70789" lon="3.87792">
        <ele>137</ele>
        <time>2021-03-27T12:39:13Z</time>
      </trkpt>
      <trkpt lat="43.70784" lon="3.87795">
        <ele>137</ele>
        <time>2021-03-27T12:39:14Z</time>
      </trkpt>
      <trkpt lat="43.70779" lon="3.87798">
        <ele>137</ele>
        <time>2021-03-27T12:39:16Z</time>
      </trkpt>
      <trkpt lat="43.70774" lon="3.87801">
        <ele>137</ele>
        <time>2021-03-27T12:39:17Z</time>
      </trkpt>
      <trkpt lat="43.70766" lon="3.878">
        <ele>133</ele>
        <time>2021-03-27T12:39:18Z</time>
      </trkpt>
      <trkpt lat="43.70756" lon="3.87792">
        <ele>133</ele>
        <time>2021-03-27T12:39:20Z</time>
      </trkpt>
      <trkpt lat="43.70751" lon="3.87778">
        <ele>133</ele>
        <time>2021-03-27T12:39:22Z</time>
      </trkpt>
      <trkpt lat="43.70745" lon="3.87766">
        <ele>133</ele>
        <time>2021-03-27T12:39:24Z</time>
      </trkpt>
      <trkpt lat="43.70741" lon="3.87756">
        <ele>133</ele>
        <time>2021-03-27T12:39:26Z</time>
      </trkpt>
      <trkpt lat="43.70742" lon="3.87749">
        <ele>131</ele>
        <time>2021-03-27T12:39:28Z</time>
      </trkpt>
      <trkpt lat="43.70746" lon="3.87741">
        <ele>131</ele>
        <time>2021-03-27T12:39:30Z</time>
      </trkpt>
      <trkpt lat="43.7075" lon="3.87732">
        <ele>131</ele>
        <time>2021-03-27T12:39:32Z</time>
      </trkpt>
      <trkpt lat="43.70754" lon="3.87723">
        <ele>131</ele>
        <time>2021-03-27T12:39:34Z</time>
      </trkpt>
      <trkpt lat="43.70757" lon="3.87718">
        <ele>131</ele>
        <time>2021-03-27T12:39:36Z</time>
      </trkpt>
      <trkpt lat="43.70763" lon="3.87707">
        <ele>131</ele>
        <time>2021-03-27T12:39:37Z</time>
      </trkpt>
      <trkpt lat="43.70766" lon="3.877">
        <ele>130</ele>
        <time>2021-03-27T12:39:39Z</time>
      </trkpt>
      <trkpt lat="43.7077" lon="3.87687">
        <ele>130</ele>
        <time>2021-03-27T12:39:40Z</time>
      </trkpt>
      <trkpt lat="43.70772" lon="3.8768">
        <ele>130</ele>
        <time>2021-03-27T12:39:42Z</time>
      </trkpt>
      <trkpt lat="43.70772" lon="3.87674">
        <ele>130</ele>
        <time>2021-03-27T12:39:43Z</time>
      </trkpt>
      <trkpt lat="43.7077" lon="3.87669">
        <ele>130</ele>
        <time>2021-03-27T12:39:44Z</time>
      </trkpt>
      <trkpt lat="43.70764" lon="3.87658">
        <ele>130</ele>
        <time>2021-03-27T12:39:45Z</time>
      </trkpt>
      <trkpt lat="43.70762" lon="3.87654">
        <ele>130</ele>
        <time>2021-03-27T12:39:46Z</time>
      </trkpt>
      <trkpt lat="43.70759" lon="3.8765">
        <ele>130</ele>
        <time>2021-03-27T12:39:47Z</time>
      </trkpt>
      <trkpt lat="43.70755" lon="3.87642">
        <ele>128</ele>
        <time>2021-03-27T12:39:49Z</time>
      </trkpt>
      <trkpt lat="43.70753" lon="3.87639">
        <ele>128</ele>
        <time>2021-03-27T12:39:50Z</time>
      </trkpt>
      <trkpt lat="43.7075" lon="3.87635">
        <ele>128</ele>
        <time>2021-03-27T12:39:52Z</time>
      </trkpt>
      <trkpt lat="43.70746" lon="3.87628">
        <ele>128</ele>
        <time>2021-03-27T12:39:53Z</time>
      </trkpt>
      <trkpt lat="43.70742" lon="3.8762">
        <ele>128</ele>
        <time>2021-03-27T12:39:55Z</time>
      </trkpt>
      <trkpt lat="43.70737" lon="3.87613">
        <ele>128</ele>
        <time>2021-03-27T12:39:57Z</time>
      </trkpt>
      <trkpt lat="43.70736" lon="3.8761">
        <ele>129</ele>
        <time>2021-03-27T12:39:58Z</time>
      </trkpt>
      <trkpt lat="43.70734" lon="3.87606">
        <ele>129</ele>
        <time>2021-03-27T12:40:00Z</time>
      </trkpt>
      <trkpt lat="43.7073" lon="3.87597">
        <ele>129</ele>
        <time>2021-03-27T12:40:01Z</time>
      </trkpt>
      <trkpt lat="43.70729" lon="3.87593">
        <ele>129</ele>
        <time>2021-03-27T12:40:02Z</time>
      </trkpt>
      <trkpt lat="43.70727" lon="3.87588">
        <ele>129</ele>
        <time>2021-03-27T12:40:04Z</time>
      </trkpt>
      <trkpt lat="43.70723" lon="3.87579">
        <ele>129</ele>
        <time>2021-03-27T12:40:05Z</time>
      </trkpt>
      <trkpt lat="43.70721" lon="3.87576">
        <ele>129</ele>
        <time>2021-03-27T12:40:07Z</time>
      </trkpt>
      <trkpt lat="43.70714" lon="3.87573">
        <ele>128</ele>
        <time>2021-03-27T12:40:08Z</time>
      </trkpt>
      <trkpt lat="43.70707" lon="3.87571">
        <ele>128</ele>
        <time>2021-03-27T12:40:10Z</time>
      </trkpt>
      <trkpt lat="43.70704" lon="3.8757">
        <ele>128</ele>
        <time>2021-03-27T12:40:11Z</time>
      </trkpt>
      <trkpt lat="43.70702" lon="3.87569">
        <ele>128</ele>
        <time>2021-03-27T12:40:13Z</time>
      </trkpt>
      <trkpt lat="43.707" lon="3.87566">
        <ele>128</ele>
        <time>2021-03-27T12:40:14Z</time>
      </trkpt>
      <trkpt lat="43.70692" lon="3.8756">
        <ele>128</ele>
        <time>2021-03-27T12:40:15Z</time>
      </trkpt>
      <trkpt lat="43.70687" lon="3.87556">
        <ele>128</ele>
        <time>2021-03-27T12:40:17Z</time>
      </trkpt>
      <trkpt lat="43.70683" lon="3.87553">
        <ele>128</ele>
        <time>2021-03-27T12:40:18Z</time>
      </trkpt>
      <trkpt lat="43.70678" lon="3.8755">
        <ele>128</ele>
        <time>2021-03-27T12:40:19Z</time>
      </trkpt>
      <trkpt lat="43.70674" lon="3.87548">
        <ele>128</ele>
        <time>2021-03-27T12:40:20Z</time>
      </trkpt>
      <trkpt lat="43.70662" lon="3.87544">
        <ele>128</ele>
        <time>2021-03-27T12:40:21Z</time>
      </trkpt>
      <trkpt lat="43.70652" lon="3.87542">
        <ele>128</ele>
        <time>2021-03-27T12:40:23Z</time>
      </trkpt>
      <trkpt lat="43.70642" lon="3.87541">
        <ele>128</ele>
        <time>2021-03-27T12:40:25Z</time>
      </trkpt>
      <trkpt lat="43.70636" lon="3.8754">
        <ele>128</ele>
        <time>2021-03-27T12:40:27Z</time>
      </trkpt>
      <trkpt lat="43.70631" lon="3.87539">
        <ele>128</ele>
        <time>2021-03-27T12:40:28Z</time>
      </trkpt>
      <trkpt lat="43.70622" lon="3.87539">
        <ele>127</ele>
        <time>2021-03-27T12:40:29Z</time>
      </trkpt>
      <trkpt lat="43.70613" lon="3.8754">
        <ele>127</ele>
        <time>2021-03-27T12:40:31Z</time>
      </trkpt>
      <trkpt lat="43.70609" lon="3.87541">
        <ele>127</ele>
        <time>2021-03-27T12:40:33Z</time>
      </trkpt>
      <trkpt lat="43.70605" lon="3.87542">
        <ele>127</ele>
        <time>2021-03-27T12:40:34Z</time>
      </trkpt>
      <trkpt lat="43.70602" lon="3.87544">
        <ele>127</ele>
        <time>2021-03-27T12:40:35Z</time>
      </trkpt>
      <trkpt lat="43.70599" lon="3.87546">
        <ele>127</ele>
        <time>2021-03-27T12:40:36Z</time>
      </trkpt>
      <trkpt lat="43.70597" lon="3.87549">
        <ele>127</ele>
        <time>2021-03-27T12:40:37Z</time>
      </trkpt>
      <trkpt lat="43.70595" lon="3.87553">
        <ele>127</ele>
        <time>2021-03-27T12:40:38Z</time>
      </trkpt>
      <trkpt lat="43.70594" lon="3.87556">
        <ele>127</ele>
        <time>2021-03-27T12:40:39Z</time>
      </trkpt>
      <trkpt lat="43.70593" lon="3.87559">
        <ele>127</ele>
        <time>2021-03-27T12:40:40Z</time>
      </trkpt>
      <trkpt lat="43.7059" lon="3.87565">
        <ele>127</ele>
        <time>2021-03-27T12:40:41Z</time>
      </trkpt>
      <trkpt lat="43.70589" lon="3.87568">
        <ele>127</ele>
        <time>2021-03-27T12:40:42Z</time>
      </trkpt>
      <trkpt lat="43.70589" lon="3.87571">
        <ele>127</ele>
        <time>2021-03-27T12:40:43Z</time>
      </trkpt>
      <trkpt lat="43.70588" lon="3.87574">
        <ele>127</ele>
        <time>2021-03-27T12:40:44Z</time>
      </trkpt>
      <trkpt lat="43.70587" lon="3.87579">
        <ele>127</ele>
        <time>2021-03-27T12:40:46Z</time>
      </trkpt>
      <trkpt lat="43.70585" lon="3.87583">
        <ele>127</ele>
        <time>2021-03-27T12:40:49Z</time>
      </trkpt>
      <trkpt lat="43.70584" lon="3.87586">
        <ele>127</ele>
        <time>2021-03-27T12:40:50Z</time>
      </trkpt>
      <trkpt lat="43.70583" lon="3.87588">
        <ele>127</ele>
        <time>2021-03-27T12:40:52Z</time>
      </trkpt>
      <trkpt lat="43.70581" lon="3.87591">
        <ele>127</ele>
        <time>2021-03-27T12:40:54Z</time>
      </trkpt>
      <trkpt lat="43.70579" lon="3.87593">
        <ele>127</ele>
        <time>2021-03-27T12:40:56Z</time>
      </trkpt>
      <trkpt lat="43.70573" lon="3.87592">
        <ele>128</ele>
        <time>2021-03-27T12:40:59Z</time>
      </trkpt>
      <trkpt lat="43.70571" lon="3.87592">
        <ele>128</ele>
        <time>2021-03-27T12:41:00Z</time>
      </trkpt>
      <trkpt lat="43.70569" lon="3.87591">
        <ele>128</ele>
        <time>2021-03-27T12:41:01Z</time>
      </trkpt>
      <trkpt lat="43.70567" lon="3.8759">
        <ele>128</ele>
        <time>2021-03-27T12:41:02Z</time>
      </trkpt>
      <trkpt lat="43.70565" lon="3.87587">
        <ele>128</ele>
        <time>2021-03-27T12:41:03Z</time>
      </trkpt>
      <trkpt lat="43.70564" lon="3.87584">
        <ele>128</ele>
        <time>2021-03-27T12:41:04Z</time>
      </trkpt>
      <trkpt lat="43.70562" lon="3.87576">
        <ele>128</ele>
        <time>2021-03-27T12:41:06Z</time>
      </trkpt>
      <trkpt lat="43.70562" lon="3.87571">
        <ele>128</ele>
        <time>2021-03-27T12:41:07Z</time>
      </trkpt>
      <trkpt lat="43.70562" lon="3.87566">
        <ele>128</ele>
        <time>2021-03-27T12:41:09Z</time>
      </trkpt>
      <trkpt lat="43.70561" lon="3.87561">
        <ele>128</ele>
        <time>2021-03-27T12:41:10Z</time>
      </trkpt>
      <trkpt lat="43.70561" lon="3.87553">
        <ele>128</ele>
        <time>2021-03-27T12:41:11Z</time>
      </trkpt>
      <trkpt lat="43.70559" lon="3.87543">
        <ele>128</ele>
        <time>2021-03-27T12:41:13Z</time>
      </trkpt>
      <trkpt lat="43.70556" lon="3.87536">
        <ele>128</ele>
        <time>2021-03-27T12:41:15Z</time>
      </trkpt>
      <trkpt lat="43.70554" lon="3.87533">
        <ele>128</ele>
        <time>2021-03-27T12:41:16Z</time>
      </trkpt>
      <trkpt lat="43.70552" lon="3.8753">
        <ele>128</ele>
        <time>2021-03-27T12:41:17Z</time>
      </trkpt>
      <trkpt lat="43.70549" lon="3.87528">
        <ele>128</ele>
        <time>2021-03-27T12:41:18Z</time>
      </trkpt>
      <trkpt lat="43.70547" lon="3.87526">
        <ele>128</ele>
        <time>2021-03-27T12:41:19Z</time>
      </trkpt>
      <trkpt lat="43.70542" lon="3.87521">
        <ele>128</ele>
        <time>2021-03-27T12:41:21Z</time>
      </trkpt>
      <trkpt lat="43.7054" lon="3.87518">
        <ele>128</ele>
        <time>2021-03-27T12:41:22Z</time>
      </trkpt>
      <trkpt lat="43.70538" lon="3.87516">
        <ele>128</ele>
        <time>2021-03-27T12:41:23Z</time>
      </trkpt>
      <trkpt lat="43.70532" lon="3.87513">
        <ele>128</ele>
        <time>2021-03-27T12:41:25Z</time>
      </trkpt>
      <trkpt lat="43.70526" lon="3.87508">
        <ele>128</ele>
        <time>2021-03-27T12:41:27Z</time>
      </trkpt>
      <trkpt lat="43.70522" lon="3.87503">
        <ele>128</ele>
        <time>2021-03-27T12:41:29Z</time>
      </trkpt>
      <trkpt lat="43.7052" lon="3.875">
        <ele>128</ele>
        <time>2021-03-27T12:41:30Z</time>
      </trkpt>
      <trkpt lat="43.70518" lon="3.87497">
        <ele>128</ele>
        <time>2021-03-27T12:41:31Z</time>
      </trkpt>
      <trkpt lat="43.70515" lon="3.87495">
        <ele>128</ele>
        <time>2021-03-27T12:41:32Z</time>
      </trkpt>
      <trkpt lat="43.70514" lon="3.87493">
        <ele>128</ele>
        <time>2021-03-27T12:41:33Z</time>
      </trkpt>
      <trkpt lat="43.70512" lon="3.87491">
        <ele>128</ele>
        <time>2021-03-27T12:41:34Z</time>
      </trkpt>
      <trkpt lat="43.7051" lon="3.87489">
        <ele>128</ele>
        <time>2021-03-27T12:41:35Z</time>
      </trkpt>
      <trkpt lat="43.70506" lon="3.87485">
        <ele>128</ele>
        <time>2021-03-27T12:41:37Z</time>
      </trkpt>
      <trkpt lat="43.70504" lon="3.87483">
        <ele>128</ele>
        <time>2021-03-27T12:41:38Z</time>
      </trkpt>
      <trkpt lat="43.70502" lon="3.87481">
        <ele>129</ele>
        <time>2021-03-27T12:41:39Z</time>
      </trkpt>
      <trkpt lat="43.705" lon="3.87479">
        <ele>129</ele>
        <time>2021-03-27T12:41:40Z</time>
      </trkpt>
      <trkpt lat="43.70497" lon="3.87477">
        <ele>129</ele>
        <time>2021-03-27T12:41:42Z</time>
      </trkpt>
      <trkpt lat="43.70495" lon="3.87475">
        <ele>129</ele>
        <time>2021-03-27T12:41:43Z</time>
      </trkpt>
      <trkpt lat="43.70492" lon="3.87474">
        <ele>129</ele>
        <time>2021-03-27T12:41:44Z</time>
      </trkpt>
      <trkpt lat="43.70489" lon="3.87473">
        <ele>129</ele>
        <time>2021-03-27T12:41:45Z</time>
      </trkpt>
      <trkpt lat="43.70486" lon="3.87471">
        <ele>129</ele>
        <time>2021-03-27T12:41:46Z</time>
      </trkpt>
      <trkpt lat="43.70484" lon="3.87469">
        <ele>129</ele>
        <time>2021-03-27T12:41:47Z</time>
      </trkpt>
      <trkpt lat="43.70482" lon="3.87467">
        <ele>128</ele>
        <time>2021-03-27T12:41:48Z</time>
      </trkpt>
      <trkpt lat="43.7048" lon="3.87464">
        <ele>128</ele>
        <time>2021-03-27T12:41:49Z</time>
      </trkpt>
      <trkpt lat="43.70477" lon="3.87462">
        <ele>128</ele>
        <time>2021-03-27T12:41:50Z</time>
      </trkpt>
      <trkpt lat="43.70475" lon="3.8746">
        <ele>128</ele>
        <time>2021-03-27T12:41:51Z</time>
      </trkpt>
      <trkpt lat="43.70473" lon="3.87459">
        <ele>128</ele>
        <time>2021-03-27T12:41:52Z</time>
      </trkpt>
      <trkpt lat="43.70472" lon="3.87457">
        <ele>128</ele>
        <time>2021-03-27T12:41:53Z</time>
      </trkpt>
      <trkpt lat="43.7047" lon="3.87455">
        <ele>128</ele>
        <time>2021-03-27T12:41:54Z</time>
      </trkpt>
      <trkpt lat="43.70469" lon="3.87453">
        <ele>128</ele>
        <time>2021-03-27T12:41:55Z</time>
      </trkpt>
      <trkpt lat="43.70467" lon="3.87451">
        <ele>128</ele>
        <time>2021-03-27T12:41:56Z</time>
      </trkpt>
      <trkpt lat="43.70465" lon="3.87448">
        <ele>128</ele>
        <time>2021-03-27T12:41:57Z</time>
      </trkpt>
      <trkpt lat="43.70464" lon="3.87445">
        <ele>128</ele>
        <time>2021-03-27T12:41:58Z</time>
      </trkpt>
      <trkpt lat="43.7046" lon="3.87442">
        <ele>129</ele>
        <time>2021-03-27T12:41:59Z</time>
      </trkpt>
      <trkpt lat="43.70455" lon="3.87438">
        <ele>129</ele>
        <time>2021-03-27T12:42:01Z</time>
      </trkpt>
      <trkpt lat="43.70451" lon="3.87431">
        <ele>129</ele>
        <time>2021-03-27T12:42:03Z</time>
      </trkpt>
      <trkpt lat="43.70449" lon="3.87426">
        <ele>129</ele>
        <time>2021-03-27T12:42:04Z</time>
      </trkpt>
      <trkpt lat="43.70446" lon="3.87422">
        <ele>129</ele>
        <time>2021-03-27T12:42:05Z</time>
      </trkpt>
      <trkpt lat="43.70443" lon="3.87417">
        <ele>129</ele>
        <time>2021-03-27T12:42:07Z</time>
      </trkpt>
      <trkpt lat="43.70441" lon="3.87415">
        <ele>127</ele>
        <time>2021-03-27T12:42:09Z</time>
      </trkpt>
      <trkpt lat="43.70439" lon="3.87412">
        <ele>127</ele>
        <time>2021-03-27T12:42:10Z</time>
      </trkpt>
      <trkpt lat="43.70437" lon="3.87408">
        <ele>127</ele>
        <time>2021-03-27T12:42:11Z</time>
      </trkpt>
      <trkpt lat="43.70432" lon="3.87398">
        <ele>127</ele>
        <time>2021-03-27T12:42:12Z</time>
      </trkpt>
      <trkpt lat="43.70428" lon="3.87394">
        <ele>127</ele>
        <time>2021-03-27T12:42:14Z</time>
      </trkpt>
      <trkpt lat="43.70424" lon="3.87389">
        <ele>127</ele>
        <time>2021-03-27T12:42:15Z</time>
      </trkpt>
      <trkpt lat="43.70419" lon="3.87385">
        <ele>127</ele>
        <time>2021-03-27T12:42:16Z</time>
      </trkpt>
      <trkpt lat="43.70414" lon="3.87382">
        <ele>127</ele>
        <time>2021-03-27T12:42:17Z</time>
      </trkpt>
      <trkpt lat="43.70401" lon="3.87376">
        <ele>126</ele>
        <time>2021-03-27T12:42:18Z</time>
      </trkpt>
      <trkpt lat="43.70395" lon="3.87372">
        <ele>126</ele>
        <time>2021-03-27T12:42:20Z</time>
      </trkpt>
      <trkpt lat="43.70385" lon="3.8736">
        <ele>126</ele>
        <time>2021-03-27T12:42:21Z</time>
      </trkpt>
      <trkpt lat="43.70381" lon="3.87353">
        <ele>126</ele>
        <time>2021-03-27T12:42:23Z</time>
      </trkpt>
      <trkpt lat="43.70372" lon="3.87343">
        <ele>126</ele>
        <time>2021-03-27T12:42:24Z</time>
      </trkpt>
      <trkpt lat="43.70367" lon="3.87343">
        <ele>126</ele>
        <time>2021-03-27T12:42:26Z</time>
      </trkpt>
      <trkpt lat="43.70363" lon="3.87343">
        <ele>126</ele>
        <time>2021-03-27T12:42:27Z</time>
      </trkpt>
      <trkpt lat="43.70354" lon="3.8734">
        <ele>121</ele>
        <time>2021-03-27T12:42:28Z</time>
      </trkpt>
      <trkpt lat="43.70347" lon="3.87333">
        <ele>121</ele>
        <time>2021-03-27T12:42:30Z</time>
      </trkpt>
      <trkpt lat="43.70345" lon="3.87327">
        <ele>121</ele>
        <time>2021-03-27T12:42:32Z</time>
      </trkpt>
      <trkpt lat="43.70344" lon="3.87321">
        <ele>121</ele>
        <time>2021-03-27T12:42:33Z</time>
      </trkpt>
      <trkpt lat="43.70342" lon="3.87315">
        <ele>121</ele>
        <time>2021-03-27T12:42:34Z</time>
      </trkpt>
      <trkpt lat="43.70339" lon="3.87301">
        <ele>121</ele>
        <time>2021-03-27T12:42:35Z</time>
      </trkpt>
      <trkpt lat="43.70335" lon="3.8729">
        <ele>121</ele>
        <time>2021-03-27T12:42:37Z</time>
      </trkpt>
      <trkpt lat="43.70327" lon="3.87281">
        <ele>119</ele>
        <time>2021-03-27T12:42:39Z</time>
      </trkpt>
      <trkpt lat="43.70317" lon="3.87278">
        <ele>119</ele>
        <time>2021-03-27T12:42:41Z</time>
      </trkpt>
      <trkpt lat="43.70313" lon="3.87275">
        <ele>119</ele>
        <time>2021-03-27T12:42:43Z</time>
      </trkpt>
      <trkpt lat="43.70308" lon="3.87267">
        <ele>119</ele>
        <time>2021-03-27T12:42:44Z</time>
      </trkpt>
      <trkpt lat="43.70303" lon="3.87262">
        <ele>119</ele>
        <time>2021-03-27T12:42:46Z</time>
      </trkpt>
      <trkpt lat="43.703" lon="3.87261">
        <ele>119</ele>
        <time>2021-03-27T12:42:48Z</time>
      </trkpt>
      <trkpt lat="43.70293" lon="3.87257">
        <ele>117</ele>
        <time>2021-03-27T12:42:49Z</time>
      </trkpt>
      <trkpt lat="43.70291" lon="3.87253">
        <ele>117</ele>
        <time>2021-03-27T12:42:50Z</time>
      </trkpt>
      <trkpt lat="43.70289" lon="3.87249">
        <ele>117</ele>
        <time>2021-03-27T12:42:51Z</time>
      </trkpt>
      <trkpt lat="43.70289" lon="3.87243">
        <ele>117</ele>
        <time>2021-03-27T12:42:52Z</time>
      </trkpt>
      <trkpt lat="43.70288" lon="3.87238">
        <ele>117</ele>
        <time>2021-03-27T12:42:53Z</time>
      </trkpt>
      <trkpt lat="43.70287" lon="3.87233">
        <ele>117</ele>
        <time>2021-03-27T12:42:54Z</time>
      </trkpt>
      <trkpt lat="43.70283" lon="3.87223">
        <ele>117</ele>
        <time>2021-03-27T12:42:56Z</time>
      </trkpt>
      <trkpt lat="43.70282" lon="3.87219">
        <ele>117</ele>
        <time>2021-03-27T12:42:57Z</time>
      </trkpt>
      <trkpt lat="43.70278" lon="3.8721">
        <ele>117</ele>
        <time>2021-03-27T12:42:59Z</time>
      </trkpt>
      <trkpt lat="43.70273" lon="3.87204">
        <ele>117</ele>
        <time>2021-03-27T12:43:01Z</time>
      </trkpt>
      <trkpt lat="43.7027" lon="3.872">
        <ele>117</ele>
        <time>2021-03-27T12:43:02Z</time>
      </trkpt>
      <trkpt lat="43.70268" lon="3.87197">
        <ele>117</ele>
        <time>2021-03-27T12:43:03Z</time>
      </trkpt>
      <trkpt lat="43.70263" lon="3.87188">
        <ele>117</ele>
        <time>2021-03-27T12:43:05Z</time>
      </trkpt>
      <trkpt lat="43.7026" lon="3.8718">
        <ele>117</ele>
        <time>2021-03-27T12:43:07Z</time>
      </trkpt>
      <trkpt lat="43.70257" lon="3.87177">
        <ele>115</ele>
        <time>2021-03-27T12:43:09Z</time>
      </trkpt>
      <trkpt lat="43.7025" lon="3.87172">
        <ele>115</ele>
        <time>2021-03-27T12:43:10Z</time>
      </trkpt>
      <trkpt lat="43.70244" lon="3.87172">
        <ele>115</ele>
        <time>2021-03-27T12:43:12Z</time>
      </trkpt>
      <trkpt lat="43.70241" lon="3.87173">
        <ele>115</ele>
        <time>2021-03-27T12:43:14Z</time>
      </trkpt>
      <trkpt lat="43.70238" lon="3.87173">
        <ele>115</ele>
        <time>2021-03-27T12:43:15Z</time>
      </trkpt>
      <trkpt lat="43.70235" lon="3.87172">
        <ele>115</ele>
        <time>2021-03-27T12:43:16Z</time>
      </trkpt>
      <trkpt lat="43.70232" lon="3.87172">
        <ele>115</ele>
        <time>2021-03-27T12:43:17Z</time>
      </trkpt>
      <trkpt lat="43.70229" lon="3.87171">
        <ele>112</ele>
        <time>2021-03-27T12:43:18Z</time>
      </trkpt>
      <trkpt lat="43.70225" lon="3.87171">
        <ele>112</ele>
        <time>2021-03-27T12:43:19Z</time>
      </trkpt>
      <trkpt lat="43.7022" lon="3.87173">
        <ele>112</ele>
        <time>2021-03-27T12:43:20Z</time>
      </trkpt>
      <trkpt lat="43.70216" lon="3.87176">
        <ele>112</ele>
        <time>2021-03-27T12:43:21Z</time>
      </trkpt>
      <trkpt lat="43.70212" lon="3.87178">
        <ele>112</ele>
        <time>2021-03-27T12:43:22Z</time>
      </trkpt>
      <trkpt lat="43.70209" lon="3.87179">
        <ele>111</ele>
        <time>2021-03-27T12:43:23Z</time>
      </trkpt>
      <trkpt lat="43.70207" lon="3.8718">
        <ele>111</ele>
        <time>2021-03-27T12:43:24Z</time>
      </trkpt>
      <trkpt lat="43.70206" lon="3.8718">
        <ele>111</ele>
        <time>2021-03-27T12:43:25Z</time>
      </trkpt>
      <trkpt lat="43.70198" lon="3.87192">
        <ele>109</ele>
        <time>2021-03-27T12:44:01Z</time>
      </trkpt>
      <trkpt lat="43.70197" lon="3.87195">
        <ele>109</ele>
        <time>2021-03-27T12:44:02Z</time>
      </trkpt>
      <trkpt lat="43.70197" lon="3.87199">
        <ele>109</ele>
        <time>2021-03-27T12:44:03Z</time>
      </trkpt>
      <trkpt lat="43.70196" lon="3.87203">
        <ele>109</ele>
        <time>2021-03-27T12:44:05Z</time>
      </trkpt>
      <trkpt lat="43.70194" lon="3.87205">
        <ele>109</ele>
        <time>2021-03-27T12:44:07Z</time>
      </trkpt>
      <trkpt lat="43.7019" lon="3.8721">
        <ele>109</ele>
        <time>2021-03-27T12:44:08Z</time>
      </trkpt>
      <trkpt lat="43.70188" lon="3.87214">
        <ele>109</ele>
        <time>2021-03-27T12:44:10Z</time>
      </trkpt>
      <trkpt lat="43.70186" lon="3.87217">
        <ele>108</ele>
        <time>2021-03-27T12:44:11Z</time>
      </trkpt>
      <trkpt lat="43.70185" lon="3.87221">
        <ele>108</ele>
        <time>2021-03-27T12:44:12Z</time>
      </trkpt>
      <trkpt lat="43.70184" lon="3.87225">
        <ele>108</ele>
        <time>2021-03-27T12:44:13Z</time>
      </trkpt>
      <trkpt lat="43.70182" lon="3.87233">
        <ele>108</ele>
        <time>2021-03-27T12:44:14Z</time>
      </trkpt>
      <trkpt lat="43.7018" lon="3.87243">
        <ele>108</ele>
        <time>2021-03-27T12:44:16Z</time>
      </trkpt>
      <trkpt lat="43.7018" lon="3.87248">
        <ele>108</ele>
        <time>2021-03-27T12:44:18Z</time>
      </trkpt>
      <trkpt lat="43.70178" lon="3.87257">
        <ele>108</ele>
        <time>2021-03-27T12:44:19Z</time>
      </trkpt>
      <trkpt lat="43.70177" lon="3.87266">
        <ele>107</ele>
        <time>2021-03-27T12:44:21Z</time>
      </trkpt>
      <trkpt lat="43.70175" lon="3.87269">
        <ele>107</ele>
        <time>2021-03-27T12:44:22Z</time>
      </trkpt>
      <trkpt lat="43.70172" lon="3.8727">
        <ele>107</ele>
        <time>2021-03-27T12:44:23Z</time>
      </trkpt>
      <trkpt lat="43.70169" lon="3.87269">
        <ele>107</ele>
        <time>2021-03-27T12:44:24Z</time>
      </trkpt>
      <trkpt lat="43.70167" lon="3.87266">
        <ele>107</ele>
        <time>2021-03-27T12:44:25Z</time>
      </trkpt>
      <trkpt lat="43.70163" lon="3.87263">
        <ele>107</ele>
        <time>2021-03-27T12:44:26Z</time>
      </trkpt>
      <trkpt lat="43.7016" lon="3.8726">
        <ele>107</ele>
        <time>2021-03-27T12:44:27Z</time>
      </trkpt>
      <trkpt lat="43.70157" lon="3.87258">
        <ele>107</ele>
        <time>2021-03-27T12:44:28Z</time>
      </trkpt>
      <trkpt lat="43.70154" lon="3.87255">
        <ele>107</ele>
        <time>2021-03-27T12:44:29Z</time>
      </trkpt>
      <trkpt lat="43.70151" lon="3.87249">
        <ele>107</ele>
        <time>2021-03-27T12:44:31Z</time>
      </trkpt>
      <trkpt lat="43.70151" lon="3.87245">
        <ele>107</ele>
        <time>2021-03-27T12:44:32Z</time>
      </trkpt>
      <trkpt lat="43.7015" lon="3.87242">
        <ele>107</ele>
        <time>2021-03-27T12:44:33Z</time>
      </trkpt>
      <trkpt lat="43.70148" lon="3.87238">
        <ele>107</ele>
        <time>2021-03-27T12:44:34Z</time>
      </trkpt>
      <trkpt lat="43.70147" lon="3.87235">
        <ele>107</ele>
        <time>2021-03-27T12:44:35Z</time>
      </trkpt>
      <trkpt lat="43.70146" lon="3.87231">
        <ele>107</ele>
        <time>2021-03-27T12:44:36Z</time>
      </trkpt>
      <trkpt lat="43.70146" lon="3.87227">
        <ele>107</ele>
        <time>2021-03-27T12:44:37Z</time>
      </trkpt>
      <trkpt lat="43.70145" lon="3.87223">
        <ele>107</ele>
        <time>2021-03-27T12:44:38Z</time>
      </trkpt>
      <trkpt lat="43.70144" lon="3.87219">
        <ele>107</ele>
        <time>2021-03-27T12:44:39Z</time>
      </trkpt>
      <trkpt lat="43.70143" lon="3.87211">
        <ele>106</ele>
        <time>2021-03-27T12:44:41Z</time>
      </trkpt>
      <trkpt lat="43.70143" lon="3.87208">
        <ele>106</ele>
        <time>2021-03-27T12:44:42Z</time>
      </trkpt>
      <trkpt lat="43.70142" lon="3.87204">
        <ele>106</ele>
        <time>2021-03-27T12:44:43Z</time>
      </trkpt>
      <trkpt lat="43.70142" lon="3.872">
        <ele>106</ele>
        <time>2021-03-27T12:44:44Z</time>
      </trkpt>
      <trkpt lat="43.70141" lon="3.87196">
        <ele>106</ele>
        <time>2021-03-27T12:44:45Z</time>
      </trkpt>
      <trkpt lat="43.70141" lon="3.87192">
        <ele>106</ele>
        <time>2021-03-27T12:44:46Z</time>
      </trkpt>
      <trkpt lat="43.7014" lon="3.87188">
        <ele>106</ele>
        <time>2021-03-27T12:44:47Z</time>
      </trkpt>
      <trkpt lat="43.7014" lon="3.87184">
        <ele>106</ele>
        <time>2021-03-27T12:44:48Z</time>
      </trkpt>
      <trkpt lat="43.7014" lon="3.87179">
        <ele>106</ele>
        <time>2021-03-27T12:44:49Z</time>
      </trkpt>
      <trkpt lat="43.7014" lon="3.87175">
        <ele>106</ele>
        <time>2021-03-27T12:44:51Z</time>
      </trkpt>
      <trkpt lat="43.70141" lon="3.8717">
        <ele>106</ele>
        <time>2021-03-27T12:44:52Z</time>
      </trkpt>
      <trkpt lat="43.70141" lon="3.87165">
        <ele>106</ele>
        <time>2021-03-27T12:44:53Z</time>
      </trkpt>
      <trkpt lat="43.70141" lon="3.87155">
        <ele>106</ele>
        <time>2021-03-27T12:44:54Z</time>
      </trkpt>
      <trkpt lat="43.70141" lon="3.87146">
        <ele>106</ele>
        <time>2021-03-27T12:44:56Z</time>
      </trkpt>
      <trkpt lat="43.70142" lon="3.87141">
        <ele>106</ele>
        <time>2021-03-27T12:44:57Z</time>
      </trkpt>
      <trkpt lat="43.70143" lon="3.87136">
        <ele>106</ele>
        <time>2021-03-27T12:44:59Z</time>
      </trkpt>
      <trkpt lat="43.70143" lon="3.87131">
        <ele>106</ele>
        <time>2021-03-27T12:45:00Z</time>
      </trkpt>
      <trkpt lat="43.70144" lon="3.87126">
        <ele>106</ele>
        <time>2021-03-27T12:45:01Z</time>
      </trkpt>
      <trkpt lat="43.70144" lon="3.87121">
        <ele>106</ele>
        <time>2021-03-27T12:45:02Z</time>
      </trkpt>
      <trkpt lat="43.70144" lon="3.87116">
        <ele>106</ele>
        <time>2021-03-27T12:45:03Z</time>
      </trkpt>
      <trkpt lat="43.70144" lon="3.8711">
        <ele>106</ele>
        <time>2021-03-27T12:45:04Z</time>
      </trkpt>
      <trkpt lat="43.70144" lon="3.87106">
        <ele>106</ele>
        <time>2021-03-27T12:45:05Z</time>
      </trkpt>
      <trkpt lat="43.70143" lon="3.87101">
        <ele>106</ele>
        <time>2021-03-27T12:45:06Z</time>
      </trkpt>
      <trkpt lat="43.70143" lon="3.87097">
        <ele>106</ele>
        <time>2021-03-27T12:45:07Z</time>
      </trkpt>
      <trkpt lat="43.70143" lon="3.87093">
        <ele>106</ele>
        <time>2021-03-27T12:45:08Z</time>
      </trkpt>
      <trkpt lat="43.70142" lon="3.87088">
        <ele>106</ele>
        <time>2021-03-27T12:45:09Z</time>
      </trkpt>
      <trkpt lat="43.70141" lon="3.87083">
        <ele>106</ele>
        <time>2021-03-27T12:45:10Z</time>
      </trkpt>
      <trkpt lat="43.7014" lon="3.87078">
        <ele>106</ele>
        <time>2021-03-27T12:45:11Z</time>
      </trkpt>
      <trkpt lat="43.70139" lon="3.87074">
        <ele>106</ele>
        <time>2021-03-27T12:45:12Z</time>
      </trkpt>
      <trkpt lat="43.70138" lon="3.8707">
        <ele>106</ele>
        <time>2021-03-27T12:45:13Z</time>
      </trkpt>
      <trkpt lat="43.70137" lon="3.87066">
        <ele>106</ele>
        <time>2021-03-27T12:45:14Z</time>
      </trkpt>
      <trkpt lat="43.70136" lon="3.87062">
        <ele>106</ele>
        <time>2021-03-27T12:45:15Z</time>
      </trkpt>
      <trkpt lat="43.70136" lon="3.87058">
        <ele>106</ele>
        <time>2021-03-27T12:45:16Z</time>
      </trkpt>
      <trkpt lat="43.70135" lon="3.87054">
        <ele>106</ele>
        <time>2021-03-27T12:45:17Z</time>
      </trkpt>
      <trkpt lat="43.70134" lon="3.87049">
        <ele>106</ele>
        <time>2021-03-27T12:45:18Z</time>
      </trkpt>
      <trkpt lat="43.70132" lon="3.87045">
        <ele>106</ele>
        <time>2021-03-27T12:45:19Z</time>
      </trkpt>
      <trkpt lat="43.70129" lon="3.87041">
        <ele>106</ele>
        <time>2021-03-27T12:45:20Z</time>
      </trkpt>
      <trkpt lat="43.70126" lon="3.87037">
        <ele>106</ele>
        <time>2021-03-27T12:45:21Z</time>
      </trkpt>
      <trkpt lat="43.70119" lon="3.87029">
        <ele>106</ele>
        <time>2021-03-27T12:45:22Z</time>
      </trkpt>
      <trkpt lat="43.70117" lon="3.87024">
        <ele>106</ele>
        <time>2021-03-27T12:45:24Z</time>
      </trkpt>
      <trkpt lat="43.70114" lon="3.87013">
        <ele>106</ele>
        <time>2021-03-27T12:45:25Z</time>
      </trkpt>
      <trkpt lat="43.7011" lon="3.87005">
        <ele>106</ele>
        <time>2021-03-27T12:45:27Z</time>
      </trkpt>
      <trkpt lat="43.70106" lon="3.87002">
        <ele>106</ele>
        <time>2021-03-27T12:45:29Z</time>
      </trkpt>
      <trkpt lat="43.70101" lon="3.87002">
        <ele>106</ele>
        <time>2021-03-27T12:45:30Z</time>
      </trkpt>
      <trkpt lat="43.70095" lon="3.87003">
        <ele>105</ele>
        <time>2021-03-27T12:45:31Z</time>
      </trkpt>
      <trkpt lat="43.7009" lon="3.87007">
        <ele>105</ele>
        <time>2021-03-27T12:45:32Z</time>
      </trkpt>
      <trkpt lat="43.70084" lon="3.87011">
        <ele>105</ele>
        <time>2021-03-27T12:45:33Z</time>
      </trkpt>
      <trkpt lat="43.7008" lon="3.87014">
        <ele>105</ele>
        <time>2021-03-27T12:45:34Z</time>
      </trkpt>
      <trkpt lat="43.70076" lon="3.87018">
        <ele>105</ele>
        <time>2021-03-27T12:45:35Z</time>
      </trkpt>
      <trkpt lat="43.70072" lon="3.87023">
        <ele>105</ele>
        <time>2021-03-27T12:45:36Z</time>
      </trkpt>
      <trkpt lat="43.70069" lon="3.87028">
        <ele>105</ele>
        <time>2021-03-27T12:45:37Z</time>
      </trkpt>
      <trkpt lat="43.70064" lon="3.87031">
        <ele>105</ele>
        <time>2021-03-27T12:45:38Z</time>
      </trkpt>
      <trkpt lat="43.7006" lon="3.87033">
        <ele>105</ele>
        <time>2021-03-27T12:45:39Z</time>
      </trkpt>
      <trkpt lat="43.70052" lon="3.87034">
        <ele>103</ele>
        <time>2021-03-27T12:45:40Z</time>
      </trkpt>
      <trkpt lat="43.70044" lon="3.87029">
        <ele>103</ele>
        <time>2021-03-27T12:45:42Z</time>
      </trkpt>
      <trkpt lat="43.70039" lon="3.87027">
        <ele>103</ele>
        <time>2021-03-27T12:45:43Z</time>
      </trkpt>
      <trkpt lat="43.70035" lon="3.87025">
        <ele>103</ele>
        <time>2021-03-27T12:45:44Z</time>
      </trkpt>
      <trkpt lat="43.7003" lon="3.87023">
        <ele>103</ele>
        <time>2021-03-27T12:45:45Z</time>
      </trkpt>
      <trkpt lat="43.70026" lon="3.87022">
        <ele>103</ele>
        <time>2021-03-27T12:45:46Z</time>
      </trkpt>
      <trkpt lat="43.70021" lon="3.87021">
        <ele>103</ele>
        <time>2021-03-27T12:45:47Z</time>
      </trkpt>
      <trkpt lat="43.70016" lon="3.87022">
        <ele>103</ele>
        <time>2021-03-27T12:45:48Z</time>
      </trkpt>
      <trkpt lat="43.70012" lon="3.87022">
        <ele>103</ele>
        <time>2021-03-27T12:45:49Z</time>
      </trkpt>
      <trkpt lat="43.70008" lon="3.87025">
        <ele>101</ele>
        <time>2021-03-27T12:45:51Z</time>
      </trkpt>
      <trkpt lat="43.70005" lon="3.87028">
        <ele>101</ele>
        <time>2021-03-27T12:45:52Z</time>
      </trkpt>
      <trkpt lat="43.70002" lon="3.87032">
        <ele>101</ele>
        <time>2021-03-27T12:45:53Z</time>
      </trkpt>
      <trkpt lat="43.7" lon="3.87036">
        <ele>101</ele>
        <time>2021-03-27T12:45:54Z</time>
      </trkpt>
      <trkpt lat="43.69998" lon="3.8704">
        <ele>101</ele>
        <time>2021-03-27T12:45:55Z</time>
      </trkpt>
      <trkpt lat="43.69996" lon="3.87044">
        <ele>101</ele>
        <time>2021-03-27T12:45:56Z</time>
      </trkpt>
      <trkpt lat="43.69994" lon="3.8705">
        <ele>101</ele>
        <time>2021-03-27T12:45:57Z</time>
      </trkpt>
      <trkpt lat="43.69992" lon="3.87055">
        <ele>101</ele>
        <time>2021-03-27T12:45:58Z</time>
      </trkpt>
      <trkpt lat="43.69989" lon="3.87061">
        <ele>101</ele>
        <time>2021-03-27T12:45:59Z</time>
      </trkpt>
      <trkpt lat="43.69987" lon="3.87066">
        <ele>101</ele>
        <time>2021-03-27T12:46:00Z</time>
      </trkpt>
      <trkpt lat="43.69984" lon="3.87076">
        <ele>99</ele>
        <time>2021-03-27T12:46:01Z</time>
      </trkpt>
      <trkpt lat="43.69983" lon="3.8708">
        <ele>99</ele>
        <time>2021-03-27T12:46:02Z</time>
      </trkpt>
      <trkpt lat="43.69975" lon="3.87089">
        <ele>99</ele>
        <time>2021-03-27T12:46:06Z</time>
      </trkpt>
      <trkpt lat="43.69973" lon="3.87087">
        <ele>99</ele>
        <time>2021-03-27T12:46:08Z</time>
      </trkpt>
      <trkpt lat="43.69971" lon="3.87082">
        <ele>99</ele>
        <time>2021-03-27T12:46:11Z</time>
      </trkpt>
      <trkpt lat="43.69971" lon="3.8708">
        <ele>99</ele>
        <time>2021-03-27T12:46:12Z</time>
      </trkpt>
      <trkpt lat="43.6997" lon="3.87078">
        <ele>99</ele>
        <time>2021-03-27T12:46:13Z</time>
      </trkpt>
      <trkpt lat="43.69967" lon="3.87077">
        <ele>99</ele>
        <time>2021-03-27T12:46:15Z</time>
      </trkpt>
      <trkpt lat="43.69965" lon="3.87078">
        <ele>99</ele>
        <time>2021-03-27T12:46:16Z</time>
      </trkpt>
      <trkpt lat="43.69963" lon="3.8708">
        <ele>99</ele>
        <time>2021-03-27T12:46:17Z</time>
      </trkpt>
      <trkpt lat="43.69959" lon="3.87081">
        <ele>99</ele>
        <time>2021-03-27T12:46:18Z</time>
      </trkpt>
      <trkpt lat="43.69956" lon="3.87082">
        <ele>99</ele>
        <time>2021-03-27T12:46:19Z</time>
      </trkpt>
      <trkpt lat="43.69954" lon="3.87084">
        <ele>96</ele>
        <time>2021-03-27T12:46:20Z</time>
      </trkpt>
      <trkpt lat="43.69953" lon="3.87087">
        <ele>96</ele>
        <time>2021-03-27T12:46:21Z</time>
      </trkpt>
      <trkpt lat="43.69952" lon="3.87092">
        <ele>96</ele>
        <time>2021-03-27T12:46:22Z</time>
      </trkpt>
      <trkpt lat="43.69953" lon="3.87096">
        <ele>96</ele>
        <time>2021-03-27T12:46:23Z</time>
      </trkpt>
      <trkpt lat="43.69952" lon="3.87101">
        <ele>96</ele>
        <time>2021-03-27T12:46:24Z</time>
      </trkpt>
      <trkpt lat="43.69952" lon="3.87105">
        <ele>96</ele>
        <time>2021-03-27T12:46:25Z</time>
      </trkpt>
      <trkpt lat="43.69951" lon="3.8711">
        <ele>96</ele>
        <time>2021-03-27T12:46:26Z</time>
      </trkpt>
      <trkpt lat="43.6995" lon="3.87115">
        <ele>96</ele>
        <time>2021-03-27T12:46:27Z</time>
      </trkpt>
      <trkpt lat="43.6995" lon="3.8712">
        <ele>96</ele>
        <time>2021-03-27T12:46:28Z</time>
      </trkpt>
      <trkpt lat="43.6995" lon="3.87123">
        <ele>96</ele>
        <time>2021-03-27T12:46:29Z</time>
      </trkpt>
      <trkpt lat="43.69949" lon="3.87127">
        <ele>94</ele>
        <time>2021-03-27T12:46:30Z</time>
      </trkpt>
      <trkpt lat="43.69948" lon="3.87131">
        <ele>94</ele>
        <time>2021-03-27T12:46:31Z</time>
      </trkpt>
      <trkpt lat="43.69948" lon="3.87135">
        <ele>94</ele>
        <time>2021-03-27T12:46:32Z</time>
      </trkpt>
      <trkpt lat="43.69947" lon="3.87139">
        <ele>94</ele>
        <time>2021-03-27T12:46:33Z</time>
      </trkpt>
      <trkpt lat="43.69947" lon="3.87143">
        <ele>94</ele>
        <time>2021-03-27T12:46:34Z</time>
      </trkpt>
      <trkpt lat="43.69947" lon="3.87147">
        <ele>94</ele>
        <time>2021-03-27T12:46:35Z</time>
      </trkpt>
      <trkpt lat="43.69946" lon="3.87151">
        <ele>94</ele>
        <time>2021-03-27T12:46:36Z</time>
      </trkpt>
      <trkpt lat="43.69946" lon="3.87155">
        <ele>94</ele>
        <time>2021-03-27T12:46:37Z</time>
      </trkpt>
      <trkpt lat="43.69944" lon="3.87158">
        <ele>94</ele>
        <time>2021-03-27T12:46:38Z</time>
      </trkpt>
      <trkpt lat="43.69941" lon="3.87161">
        <ele>94</ele>
        <time>2021-03-27T12:46:39Z</time>
      </trkpt>
      <trkpt lat="43.69939" lon="3.87165">
        <ele>94</ele>
        <time>2021-03-27T12:46:40Z</time>
      </trkpt>
      <trkpt lat="43.69935" lon="3.8717">
        <ele>92</ele>
        <time>2021-03-27T12:46:41Z</time>
      </trkpt>
      <trkpt lat="43.69931" lon="3.87176">
        <ele>92</ele>
        <time>2021-03-27T12:46:42Z</time>
      </trkpt>
      <trkpt lat="43.69926" lon="3.87181">
        <ele>92</ele>
        <time>2021-03-27T12:46:43Z</time>
      </trkpt>
      <trkpt lat="43.69922" lon="3.87188">
        <ele>92</ele>
        <time>2021-03-27T12:46:44Z</time>
      </trkpt>
      <trkpt lat="43.69918" lon="3.87194">
        <ele>92</ele>
        <time>2021-03-27T12:46:45Z</time>
      </trkpt>
      <trkpt lat="43.69915" lon="3.872">
        <ele>92</ele>
        <time>2021-03-27T12:46:46Z</time>
      </trkpt>
      <trkpt lat="43.69911" lon="3.87206">
        <ele>92</ele>
        <time>2021-03-27T12:46:47Z</time>
      </trkpt>
      <trkpt lat="43.69907" lon="3.8721">
        <ele>92</ele>
        <time>2021-03-27T12:46:48Z</time>
      </trkpt>
      <trkpt lat="43.69902" lon="3.87213">
        <ele>92</ele>
        <time>2021-03-27T12:46:49Z</time>
      </trkpt>
      <trkpt lat="43.69898" lon="3.87217">
        <ele>92</ele>
        <time>2021-03-27T12:46:50Z</time>
      </trkpt>
      <trkpt lat="43.69889" lon="3.87228">
        <ele>92</ele>
        <time>2021-03-27T12:46:53Z</time>
      </trkpt>
      <trkpt lat="43.69882" lon="3.87237">
        <ele>92</ele>
        <time>2021-03-27T12:46:56Z</time>
      </trkpt>
      <trkpt lat="43.69878" lon="3.87242">
        <ele>92</ele>
        <time>2021-03-27T12:46:57Z</time>
      </trkpt>
      <trkpt lat="43.69875" lon="3.87246">
        <ele>92</ele>
        <time>2021-03-27T12:46:58Z</time>
      </trkpt>
      <trkpt lat="43.69872" lon="3.8725">
        <ele>92</ele>
        <time>2021-03-27T12:46:59Z</time>
      </trkpt>
      <trkpt lat="43.69869" lon="3.87254">
        <ele>92</ele>
        <time>2021-03-27T12:47:00Z</time>
      </trkpt>
      <trkpt lat="43.69867" lon="3.87257">
        <ele>89</ele>
        <time>2021-03-27T12:47:01Z</time>
      </trkpt>
      <trkpt lat="43.69864" lon="3.8726">
        <ele>89</ele>
        <time>2021-03-27T12:47:02Z</time>
      </trkpt>
      <trkpt lat="43.69861" lon="3.87262">
        <ele>89</ele>
        <time>2021-03-27T12:47:03Z</time>
      </trkpt>
      <trkpt lat="43.69858" lon="3.87261">
        <ele>89</ele>
        <time>2021-03-27T12:47:04Z</time>
      </trkpt>
      <trkpt lat="43.69854" lon="3.87258">
        <ele>89</ele>
        <time>2021-03-27T12:47:05Z</time>
      </trkpt>
      <trkpt lat="43.6985" lon="3.87254">
        <ele>89</ele>
        <time>2021-03-27T12:47:06Z</time>
      </trkpt>
      <trkpt lat="43.69846" lon="3.87251">
        <ele>89</ele>
        <time>2021-03-27T12:47:07Z</time>
      </trkpt>
      <trkpt lat="43.69843" lon="3.87249">
        <ele>89</ele>
        <time>2021-03-27T12:47:08Z</time>
      </trkpt>
      <trkpt lat="43.6984" lon="3.87249">
        <ele>89</ele>
        <time>2021-03-27T12:47:09Z</time>
      </trkpt>
      <trkpt lat="43.69837" lon="3.87249">
        <ele>90</ele>
        <time>2021-03-27T12:47:10Z</time>
      </trkpt>
      <trkpt lat="43.69834" lon="3.8725">
        <ele>90</ele>
        <time>2021-03-27T12:47:11Z</time>
      </trkpt>
      <trkpt lat="43.69832" lon="3.87251">
        <ele>90</ele>
        <time>2021-03-27T12:47:12Z</time>
      </trkpt>
      <trkpt lat="43.6983" lon="3.87252">
        <ele>90</ele>
        <time>2021-03-27T12:47:13Z</time>
      </trkpt>
      <trkpt lat="43.69828" lon="3.87252">
        <ele>90</ele>
        <time>2021-03-27T12:47:14Z</time>
      </trkpt>
      <trkpt lat="43.69826" lon="3.87252">
        <ele>90</ele>
        <time>2021-03-27T12:47:15Z</time>
      </trkpt>
      <trkpt lat="43.69824" lon="3.87252">
        <ele>90</ele>
        <time>2021-03-27T12:47:16Z</time>
      </trkpt>
      <trkpt lat="43.69822" lon="3.87253">
        <ele>90</ele>
        <time>2021-03-27T12:47:17Z</time>
      </trkpt>
      <trkpt lat="43.6982" lon="3.87254">
        <ele>90</ele>
        <time>2021-03-27T12:47:18Z</time>
      </trkpt>
      <trkpt lat="43.69818" lon="3.87254">
        <ele>90</ele>
        <time>2021-03-27T12:47:19Z</time>
      </trkpt>
      <trkpt lat="43.69816" lon="3.87254">
        <ele>90</ele>
        <time>2021-03-27T12:47:20Z</time>
      </trkpt>
      <trkpt lat="43.69814" lon="3.87253">
        <ele>91</ele>
        <time>2021-03-27T12:47:21Z</time>
      </trkpt>
      <trkpt lat="43.69812" lon="3.87252">
        <ele>91</ele>
        <time>2021-03-27T12:47:22Z</time>
      </trkpt>
      <trkpt lat="43.69811" lon="3.87248">
        <ele>91</ele>
        <time>2021-03-27T12:47:24Z</time>
      </trkpt>
      <trkpt lat="43.6981" lon="3.87246">
        <ele>91</ele>
        <time>2021-03-27T12:47:26Z</time>
      </trkpt>
      <trkpt lat="43.69809" lon="3.87243">
        <ele>91</ele>
        <time>2021-03-27T12:47:28Z</time>
      </trkpt>
      <trkpt lat="43.69806" lon="3.87244">
        <ele>91</ele>
        <time>2021-03-27T12:47:30Z</time>
      </trkpt>
      <trkpt lat="43.69804" lon="3.87245">
        <ele>93</ele>
        <time>2021-03-27T12:47:31Z</time>
      </trkpt>
      <trkpt lat="43.69801" lon="3.8725">
        <ele>93</ele>
        <time>2021-03-27T12:47:32Z</time>
      </trkpt>
      <trkpt lat="43.69795" lon="3.87265">
        <ele>93</ele>
        <time>2021-03-27T12:47:35Z</time>
      </trkpt>
      <trkpt lat="43.69794" lon="3.87271">
        <ele>93</ele>
        <time>2021-03-27T12:47:36Z</time>
      </trkpt>
      <trkpt lat="43.69792" lon="3.87277">
        <ele>93</ele>
        <time>2021-03-27T12:47:37Z</time>
      </trkpt>
      <trkpt lat="43.69791" lon="3.87281">
        <ele>93</ele>
        <time>2021-03-27T12:47:38Z</time>
      </trkpt>
      <trkpt lat="43.69789" lon="3.87286">
        <ele>93</ele>
        <time>2021-03-27T12:47:39Z</time>
      </trkpt>
      <trkpt lat="43.69788" lon="3.8729">
        <ele>92</ele>
        <time>2021-03-27T12:47:41Z</time>
      </trkpt>
      <trkpt lat="43.69787" lon="3.87294">
        <ele>92</ele>
        <time>2021-03-27T12:47:42Z</time>
      </trkpt>
      <trkpt lat="43.69785" lon="3.87299">
        <ele>92</ele>
        <time>2021-03-27T12:47:43Z</time>
      </trkpt>
      <trkpt lat="43.69784" lon="3.87304">
        <ele>92</ele>
        <time>2021-03-27T12:47:44Z</time>
      </trkpt>
      <trkpt lat="43.69782" lon="3.87308">
        <ele>92</ele>
        <time>2021-03-27T12:47:45Z</time>
      </trkpt>
      <trkpt lat="43.69781" lon="3.87313">
        <ele>92</ele>
        <time>2021-03-27T12:47:46Z</time>
      </trkpt>
      <trkpt lat="43.69779" lon="3.87316">
        <ele>92</ele>
        <time>2021-03-27T12:47:47Z</time>
      </trkpt>
      <trkpt lat="43.69778" lon="3.8732">
        <ele>92</ele>
        <time>2021-03-27T12:47:48Z</time>
      </trkpt>
      <trkpt lat="43.69776" lon="3.87323">
        <ele>92</ele>
        <time>2021-03-27T12:47:49Z</time>
      </trkpt>
      <trkpt lat="43.69773" lon="3.8733">
        <ele>93</ele>
        <time>2021-03-27T12:47:51Z</time>
      </trkpt>
      <trkpt lat="43.69772" lon="3.87334">
        <ele>93</ele>
        <time>2021-03-27T12:47:52Z</time>
      </trkpt>
      <trkpt lat="43.6977" lon="3.87337">
        <ele>93</ele>
        <time>2021-03-27T12:47:53Z</time>
      </trkpt>
      <trkpt lat="43.69769" lon="3.87341">
        <ele>93</ele>
        <time>2021-03-27T12:47:54Z</time>
      </trkpt>
      <trkpt lat="43.69767" lon="3.87344">
        <ele>93</ele>
        <time>2021-03-27T12:47:55Z</time>
      </trkpt>
      <trkpt lat="43.69766" lon="3.87347">
        <ele>93</ele>
        <time>2021-03-27T12:47:56Z</time>
      </trkpt>
      <trkpt lat="43.69765" lon="3.87349">
        <ele>93</ele>
        <time>2021-03-27T12:47:57Z</time>
      </trkpt>
      <trkpt lat="43.69763" lon="3.87352">
        <ele>93</ele>
        <time>2021-03-27T12:47:58Z</time>
      </trkpt>
      <trkpt lat="43.69761" lon="3.87353">
        <ele>93</ele>
        <time>2021-03-27T12:47:59Z</time>
      </trkpt>
      <trkpt lat="43.69759" lon="3.87353">
        <ele>94</ele>
        <time>2021-03-27T12:48:00Z</time>
      </trkpt>
      <trkpt lat="43.69756" lon="3.87353">
        <ele>94</ele>
        <time>2021-03-27T12:48:01Z</time>
      </trkpt>
      <trkpt lat="43.69754" lon="3.87352">
        <ele>94</ele>
        <time>2021-03-27T12:48:02Z</time>
      </trkpt>
      <trkpt lat="43.69752" lon="3.87351">
        <ele>94</ele>
        <time>2021-03-27T12:48:03Z</time>
      </trkpt>
      <trkpt lat="43.69749" lon="3.8735">
        <ele>94</ele>
        <time>2021-03-27T12:48:04Z</time>
      </trkpt>
      <trkpt lat="43.69747" lon="3.8735">
        <ele>94</ele>
        <time>2021-03-27T12:48:05Z</time>
      </trkpt>
      <trkpt lat="43.69745" lon="3.87349">
        <ele>94</ele>
        <time>2021-03-27T12:48:06Z</time>
      </trkpt>
      <trkpt lat="43.69743" lon="3.87349">
        <ele>94</ele>
        <time>2021-03-27T12:48:07Z</time>
      </trkpt>
      <trkpt lat="43.69741" lon="3.87349">
        <ele>94</ele>
        <time>2021-03-27T12:48:08Z</time>
      </trkpt>
      <trkpt lat="43.69739" lon="3.87349">
        <ele>94</ele>
        <time>2021-03-27T12:48:09Z</time>
      </trkpt>
      <trkpt lat="43.69737" lon="3.87347">
        <ele>94</ele>
        <time>2021-03-27T12:48:10Z</time>
      </trkpt>
      <trkpt lat="43.69735" lon="3.87346">
        <ele>95</ele>
        <time>2021-03-27T12:48:11Z</time>
      </trkpt>
      <trkpt lat="43.69733" lon="3.87346">
        <ele>95</ele>
        <time>2021-03-27T12:48:12Z</time>
      </trkpt>
      <trkpt lat="43.6973" lon="3.87347">
        <ele>95</ele>
        <time>2021-03-27T12:48:14Z</time>
      </trkpt>
      <trkpt lat="43.69726" lon="3.87348">
        <ele>95</ele>
        <time>2021-03-27T12:48:16Z</time>
      </trkpt>
      <trkpt lat="43.69724" lon="3.87348">
        <ele>95</ele>
        <time>2021-03-27T12:48:17Z</time>
      </trkpt>
      <trkpt lat="43.69722" lon="3.87348">
        <ele>95</ele>
        <time>2021-03-27T12:48:19Z</time>
      </trkpt>
      <trkpt lat="43.69718" lon="3.87349">
        <ele>95</ele>
        <time>2021-03-27T12:48:21Z</time>
      </trkpt>
      <trkpt lat="43.69715" lon="3.87349">
        <ele>95</ele>
        <time>2021-03-27T12:48:23Z</time>
      </trkpt>
      <trkpt lat="43.69712" lon="3.8735">
        <ele>95</ele>
        <time>2021-03-27T12:48:25Z</time>
      </trkpt>
      <trkpt lat="43.6971" lon="3.87351">
        <ele>95</ele>
        <time>2021-03-27T12:48:27Z</time>
      </trkpt>
      <trkpt lat="43.69708" lon="3.87351">
        <ele>95</ele>
        <time>2021-03-27T12:48:28Z</time>
      </trkpt>
      <trkpt lat="43.69706" lon="3.87351">
        <ele>95</ele>
        <time>2021-03-27T12:48:29Z</time>
      </trkpt>
      <trkpt lat="43.69704" lon="3.87352">
        <ele>95</ele>
        <time>2021-03-27T12:48:30Z</time>
      </trkpt>
      <trkpt lat="43.69702" lon="3.87352">
        <ele>96</ele>
        <time>2021-03-27T12:48:31Z</time>
      </trkpt>
      <trkpt lat="43.69699" lon="3.87353">
        <ele>96</ele>
        <time>2021-03-27T12:48:32Z</time>
      </trkpt>
      <trkpt lat="43.69697" lon="3.87355">
        <ele>96</ele>
        <time>2021-03-27T12:48:33Z</time>
      </trkpt>
      <trkpt lat="43.69696" lon="3.87357">
        <ele>96</ele>
        <time>2021-03-27T12:48:34Z</time>
      </trkpt>
      <trkpt lat="43.69694" lon="3.87359">
        <ele>96</ele>
        <time>2021-03-27T12:48:35Z</time>
      </trkpt>
      <trkpt lat="43.69693" lon="3.87363">
        <ele>96</ele>
        <time>2021-03-27T12:48:37Z</time>
      </trkpt>
      <trkpt lat="43.69692" lon="3.87365">
        <ele>96</ele>
        <time>2021-03-27T12:48:38Z</time>
      </trkpt>
      <trkpt lat="43.69692" lon="3.87368">
        <ele>96</ele>
        <time>2021-03-27T12:48:39Z</time>
      </trkpt>
      <trkpt lat="43.69692" lon="3.87372">
        <ele>96</ele>
        <time>2021-03-27T12:48:41Z</time>
      </trkpt>
      <trkpt lat="43.69693" lon="3.87376">
        <ele>96</ele>
        <time>2021-03-27T12:48:43Z</time>
      </trkpt>
      <trkpt lat="43.69694" lon="3.8738">
        <ele>96</ele>
        <time>2021-03-27T12:48:45Z</time>
      </trkpt>
      <trkpt lat="43.69695" lon="3.87385">
        <ele>96</ele>
        <time>2021-03-27T12:48:47Z</time>
      </trkpt>
      <trkpt lat="43.69696" lon="3.87389">
        <ele>96</ele>
        <time>2021-03-27T12:48:49Z</time>
      </trkpt>
      <trkpt lat="43.69697" lon="3.87391">
        <ele>96</ele>
        <time>2021-03-27T12:48:50Z</time>
      </trkpt>
      <trkpt lat="43.69698" lon="3.87393">
        <ele>96</ele>
        <time>2021-03-27T12:48:51Z</time>
      </trkpt>
      <trkpt lat="43.69699" lon="3.87398">
        <ele>96</ele>
        <time>2021-03-27T12:48:53Z</time>
      </trkpt>
      <trkpt lat="43.697" lon="3.874">
        <ele>96</ele>
        <time>2021-03-27T12:48:54Z</time>
      </trkpt>
      <trkpt lat="43.69701" lon="3.87403">
        <ele>96</ele>
        <time>2021-03-27T12:48:55Z</time>
      </trkpt>
      <trkpt lat="43.69702" lon="3.87405">
        <ele>96</ele>
        <time>2021-03-27T12:48:56Z</time>
      </trkpt>
      <trkpt lat="43.69703" lon="3.87408">
        <ele>96</ele>
        <time>2021-03-27T12:48:57Z</time>
      </trkpt>
      <trkpt lat="43.69705" lon="3.87412">
        <ele>96</ele>
        <time>2021-03-27T12:48:58Z</time>
      </trkpt>
      <trkpt lat="43.69706" lon="3.87415">
        <ele>96</ele>
        <time>2021-03-27T12:48:59Z</time>
      </trkpt>
      <trkpt lat="43.69707" lon="3.87419">
        <ele>96</ele>
        <time>2021-03-27T12:49:00Z</time>
      </trkpt>
      <trkpt lat="43.69709" lon="3.87422">
        <ele>96</ele>
        <time>2021-03-27T12:49:01Z</time>
      </trkpt>
      <trkpt lat="43.6971" lon="3.87426">
        <ele>96</ele>
        <time>2021-03-27T12:49:02Z</time>
      </trkpt>
      <trkpt lat="43.69711" lon="3.8743">
        <ele>96</ele>
        <time>2021-03-27T12:49:03Z</time>
      </trkpt>
      <trkpt lat="43.69712" lon="3.87433">
        <ele>96</ele>
        <time>2021-03-27T12:49:04Z</time>
      </trkpt>
      <trkpt lat="43.69713" lon="3.87437">
        <ele>96</ele>
        <time>2021-03-27T12:49:05Z</time>
      </trkpt>
      <trkpt lat="43.69714" lon="3.87441">
        <ele>96</ele>
        <time>2021-03-27T12:49:06Z</time>
      </trkpt>
      <trkpt lat="43.69715" lon="3.87444">
        <ele>96</ele>
        <time>2021-03-27T12:49:07Z</time>
      </trkpt>
      <trkpt lat="43.69716" lon="3.87448">
        <ele>96</ele>
        <time>2021-03-27T12:49:08Z</time>
      </trkpt>
      <trkpt lat="43.69717" lon="3.87451">
        <ele>96</ele>
        <time>2021-03-27T12:49:09Z</time>
      </trkpt>
      <trkpt lat="43.69718" lon="3.87455">
        <ele>96</ele>
        <time>2021-03-27T12:49:10Z</time>
      </trkpt>
      <trkpt lat="43.69719" lon="3.87459">
        <ele>96</ele>
        <time>2021-03-27T12:49:11Z</time>
      </trkpt>
      <trkpt lat="43.6972" lon="3.87467">
        <ele>96</ele>
        <time>2021-03-27T12:49:12Z</time>
      </trkpt>
      <trkpt lat="43.69722" lon="3.87477">
        <ele>96</ele>
        <time>2021-03-27T12:49:14Z</time>
      </trkpt>
      <trkpt lat="43.69723" lon="3.87487">
        <ele>96</ele>
        <time>2021-03-27T12:49:16Z</time>
      </trkpt>
      <trkpt lat="43.69724" lon="3.87496">
        <ele>96</ele>
        <time>2021-03-27T12:49:18Z</time>
      </trkpt>
      <trkpt lat="43.69724" lon="3.875">
        <ele>96</ele>
        <time>2021-03-27T12:49:20Z</time>
      </trkpt>
      <trkpt lat="43.69725" lon="3.87504">
        <ele>96</ele>
        <time>2021-03-27T12:49:21Z</time>
      </trkpt>
      <trkpt lat="43.69725" lon="3.87508">
        <ele>96</ele>
        <time>2021-03-27T12:49:22Z</time>
      </trkpt>
      <trkpt lat="43.69725" lon="3.87511">
        <ele>96</ele>
        <time>2021-03-27T12:49:23Z</time>
      </trkpt>
      <trkpt lat="43.69725" lon="3.87515">
        <ele>96</ele>
        <time>2021-03-27T12:49:24Z</time>
      </trkpt>
      <trkpt lat="43.69725" lon="3.87519">
        <ele>96</ele>
        <time>2021-03-27T12:49:25Z</time>
      </trkpt>
      <trkpt lat="43.69725" lon="3.87523">
        <ele>96</ele>
        <time>2021-03-27T12:49:26Z</time>
      </trkpt>
      <trkpt lat="43.69725" lon="3.87526">
        <ele>96</ele>
        <time>2021-03-27T12:49:27Z</time>
      </trkpt>
      <trkpt lat="43.69724" lon="3.8753">
        <ele>96</ele>
        <time>2021-03-27T12:49:28Z</time>
      </trkpt>
      <trkpt lat="43.69724" lon="3.87534">
        <ele>96</ele>
        <time>2021-03-27T12:49:29Z</time>
      </trkpt>
      <trkpt lat="43.69723" lon="3.87537">
        <ele>97</ele>
        <time>2021-03-27T12:49:30Z</time>
      </trkpt>
      <trkpt lat="43.69723" lon="3.8754">
        <ele>97</ele>
        <time>2021-03-27T12:49:31Z</time>
      </trkpt>
      <trkpt lat="43.69722" lon="3.87543">
        <ele>97</ele>
        <time>2021-03-27T12:49:32Z</time>
      </trkpt>
      <trkpt lat="43.69722" lon="3.87547">
        <ele>97</ele>
        <time>2021-03-27T12:49:33Z</time>
      </trkpt>
      <trkpt lat="43.69722" lon="3.8755">
        <ele>97</ele>
        <time>2021-03-27T12:49:34Z</time>
      </trkpt>
      <trkpt lat="43.69721" lon="3.87553">
        <ele>97</ele>
        <time>2021-03-27T12:49:35Z</time>
      </trkpt>
      <trkpt lat="43.69721" lon="3.87557">
        <ele>97</ele>
        <time>2021-03-27T12:49:36Z</time>
      </trkpt>
      <trkpt lat="43.6972" lon="3.8756">
        <ele>97</ele>
        <time>2021-03-27T12:49:37Z</time>
      </trkpt>
      <trkpt lat="43.6972" lon="3.87563">
        <ele>97</ele>
        <time>2021-03-27T12:49:38Z</time>
      </trkpt>
      <trkpt lat="43.69719" lon="3.87566">
        <ele>97</ele>
        <time>2021-03-27T12:49:39Z</time>
      </trkpt>
      <trkpt lat="43.69719" lon="3.87569">
        <ele>97</ele>
        <time>2021-03-27T12:49:40Z</time>
      </trkpt>
      <trkpt lat="43.69718" lon="3.87576">
        <ele>98</ele>
        <time>2021-03-27T12:49:41Z</time>
      </trkpt>
      <trkpt lat="43.69719" lon="3.87579">
        <ele>98</ele>
        <time>2021-03-27T12:49:42Z</time>
      </trkpt>
      <trkpt lat="43.69721" lon="3.87585">
        <ele>98</ele>
        <time>2021-03-27T12:49:44Z</time>
      </trkpt>
      <trkpt lat="43.69721" lon="3.87588">
        <ele>98</ele>
        <time>2021-03-27T12:49:45Z</time>
      </trkpt>
      <trkpt lat="43.69722" lon="3.8759">
        <ele>98</ele>
        <time>2021-03-27T12:49:46Z</time>
      </trkpt>
      <trkpt lat="43.69723" lon="3.87596">
        <ele>98</ele>
        <time>2021-03-27T12:49:48Z</time>
      </trkpt>
      <trkpt lat="43.69724" lon="3.87599">
        <ele>98</ele>
        <time>2021-03-27T12:49:49Z</time>
      </trkpt>
      <trkpt lat="43.69725" lon="3.87601">
        <ele>100</ele>
        <time>2021-03-27T12:49:51Z</time>
      </trkpt>
      <trkpt lat="43.69726" lon="3.87604">
        <ele>100</ele>
        <time>2021-03-27T12:49:52Z</time>
      </trkpt>
      <trkpt lat="43.69727" lon="3.87606">
        <ele>100</ele>
        <time>2021-03-27T12:49:53Z</time>
      </trkpt>
      <trkpt lat="43.69728" lon="3.87609">
        <ele>100</ele>
        <time>2021-03-27T12:49:54Z</time>
      </trkpt>
      <trkpt lat="43.69729" lon="3.87611">
        <ele>100</ele>
        <time>2021-03-27T12:49:55Z</time>
      </trkpt>
      <trkpt lat="43.6973" lon="3.87614">
        <ele>100</ele>
        <time>2021-03-27T12:49:56Z</time>
      </trkpt>
      <trkpt lat="43.69731" lon="3.87617">
        <ele>100</ele>
        <time>2021-03-27T12:49:57Z</time>
      </trkpt>
      <trkpt lat="43.69733" lon="3.87619">
        <ele>100</ele>
        <time>2021-03-27T12:49:58Z</time>
      </trkpt>
      <trkpt lat="43.69734" lon="3.87622">
        <ele>100</ele>
        <time>2021-03-27T12:49:59Z</time>
      </trkpt>
      <trkpt lat="43.69735" lon="3.87625">
        <ele>100</ele>
        <time>2021-03-27T12:50:00Z</time>
      </trkpt>
      <trkpt lat="43.69736" lon="3.87629">
        <ele>100</ele>
        <time>2021-03-27T12:50:01Z</time>
      </trkpt>
      <trkpt lat="43.69737" lon="3.87632">
        <ele>100</ele>
        <time>2021-03-27T12:50:02Z</time>
      </trkpt>
      <trkpt lat="43.69738" lon="3.87635">
        <ele>100</ele>
        <time>2021-03-27T12:50:03Z</time>
      </trkpt>
      <trkpt lat="43.69739" lon="3.87638">
        <ele>100</ele>
        <time>2021-03-27T12:50:04Z</time>
      </trkpt>
      <trkpt lat="43.6974" lon="3.87641">
        <ele>100</ele>
        <time>2021-03-27T12:50:05Z</time>
      </trkpt>
      <trkpt lat="43.69741" lon="3.87645">
        <ele>100</ele>
        <time>2021-03-27T12:50:06Z</time>
      </trkpt>
      <trkpt lat="43.69742" lon="3.87649">
        <ele>100</ele>
        <time>2021-03-27T12:50:07Z</time>
      </trkpt>
      <trkpt lat="43.69742" lon="3.87652">
        <ele>100</ele>
        <time>2021-03-27T12:50:08Z</time>
      </trkpt>
      <trkpt lat="43.69743" lon="3.87656">
        <ele>100</ele>
        <time>2021-03-27T12:50:09Z</time>
      </trkpt>
      <trkpt lat="43.69744" lon="3.87659">
        <ele>100</ele>
        <time>2021-03-27T12:50:10Z</time>
      </trkpt>
      <trkpt lat="43.69746" lon="3.87662">
        <ele>101</ele>
        <time>2021-03-27T12:50:11Z</time>
      </trkpt>
      <trkpt lat="43.69747" lon="3.87665">
        <ele>101</ele>
        <time>2021-03-27T12:50:12Z</time>
      </trkpt>
      <trkpt lat="43.69749" lon="3.87668">
        <ele>101</ele>
        <time>2021-03-27T12:50:13Z</time>
      </trkpt>
      <trkpt lat="43.6975" lon="3.87671">
        <ele>101</ele>
        <time>2021-03-27T12:50:14Z</time>
      </trkpt>
      <trkpt lat="43.69751" lon="3.87675">
        <ele>101</ele>
        <time>2021-03-27T12:50:15Z</time>
      </trkpt>
      <trkpt lat="43.69752" lon="3.87678">
        <ele>101</ele>
        <time>2021-03-27T12:50:16Z</time>
      </trkpt>
      <trkpt lat="43.69753" lon="3.87681">
        <ele>101</ele>
        <time>2021-03-27T12:50:17Z</time>
      </trkpt>
      <trkpt lat="43.69754" lon="3.87685">
        <ele>101</ele>
        <time>2021-03-27T12:50:18Z</time>
      </trkpt>
      <trkpt lat="43.69755" lon="3.87688">
        <ele>101</ele>
        <time>2021-03-27T12:50:19Z</time>
      </trkpt>
      <trkpt lat="43.69756" lon="3.87691">
        <ele>101</ele>
        <time>2021-03-27T12:50:20Z</time>
      </trkpt>
      <trkpt lat="43.69757" lon="3.87694">
        <ele>103</ele>
        <time>2021-03-27T12:50:21Z</time>
      </trkpt>
      <trkpt lat="43.69759" lon="3.87696">
        <ele>103</ele>
        <time>2021-03-27T12:50:22Z</time>
      </trkpt>
      <trkpt lat="43.6976" lon="3.87699">
        <ele>103</ele>
        <time>2021-03-27T12:50:23Z</time>
      </trkpt>
      <trkpt lat="43.69761" lon="3.87702">
        <ele>103</ele>
        <time>2021-03-27T12:50:24Z</time>
      </trkpt>
      <trkpt lat="43.69762" lon="3.87704">
        <ele>103</ele>
        <time>2021-03-27T12:50:25Z</time>
      </trkpt>
      <trkpt lat="43.69763" lon="3.87707">
        <ele>103</ele>
        <time>2021-03-27T12:50:26Z</time>
      </trkpt>
      <trkpt lat="43.69764" lon="3.8771">
        <ele>103</ele>
        <time>2021-03-27T12:50:27Z</time>
      </trkpt>
      <trkpt lat="43.69765" lon="3.87712">
        <ele>103</ele>
        <time>2021-03-27T12:50:28Z</time>
      </trkpt>
      <trkpt lat="43.69767" lon="3.87714">
        <ele>103</ele>
        <time>2021-03-27T12:50:29Z</time>
      </trkpt>
      <trkpt lat="43.69768" lon="3.87717">
        <ele>103</ele>
        <time>2021-03-27T12:50:30Z</time>
      </trkpt>
      <trkpt lat="43.69769" lon="3.8772">
        <ele>105</ele>
        <time>2021-03-27T12:50:31Z</time>
      </trkpt>
      <trkpt lat="43.69771" lon="3.87722">
        <ele>105</ele>
        <time>2021-03-27T12:50:32Z</time>
      </trkpt>
      <trkpt lat="43.69772" lon="3.87725">
        <ele>105</ele>
        <time>2021-03-27T12:50:33Z</time>
      </trkpt>
      <trkpt lat="43.69773" lon="3.87727">
        <ele>105</ele>
        <time>2021-03-27T12:50:34Z</time>
      </trkpt>
      <trkpt lat="43.69774" lon="3.8773">
        <ele>105</ele>
        <time>2021-03-27T12:50:35Z</time>
      </trkpt>
      <trkpt lat="43.69776" lon="3.87733">
        <ele>105</ele>
        <time>2021-03-27T12:50:36Z</time>
      </trkpt>
      <trkpt lat="43.69777" lon="3.87736">
        <ele>105</ele>
        <time>2021-03-27T12:50:37Z</time>
      </trkpt>
      <trkpt lat="43.69778" lon="3.87738">
        <ele>105</ele>
        <time>2021-03-27T12:50:38Z</time>
      </trkpt>
      <trkpt lat="43.6978" lon="3.87741">
        <ele>105</ele>
        <time>2021-03-27T12:50:39Z</time>
      </trkpt>
      <trkpt lat="43.69781" lon="3.87744">
        <ele>105</ele>
        <time>2021-03-27T12:50:40Z</time>
      </trkpt>
      <trkpt lat="43.69784" lon="3.8775">
        <ele>107</ele>
        <time>2021-03-27T12:50:41Z</time>
      </trkpt>
      <trkpt lat="43.69786" lon="3.87753">
        <ele>107</ele>
        <time>2021-03-27T12:50:42Z</time>
      </trkpt>
      <trkpt lat="43.69788" lon="3.87756">
        <ele>107</ele>
        <time>2021-03-27T12:50:43Z</time>
      </trkpt>
      <trkpt lat="43.69789" lon="3.87759">
        <ele>107</ele>
        <time>2021-03-27T12:50:44Z</time>
      </trkpt>
      <trkpt lat="43.6979" lon="3.87762">
        <ele>107</ele>
        <time>2021-03-27T12:50:45Z</time>
      </trkpt>
      <trkpt lat="43.69792" lon="3.87766">
        <ele>107</ele>
        <time>2021-03-27T12:50:46Z</time>
      </trkpt>
      <trkpt lat="43.69793" lon="3.87769">
        <ele>107</ele>
        <time>2021-03-27T12:50:47Z</time>
      </trkpt>
      <trkpt lat="43.69794" lon="3.87773">
        <ele>107</ele>
        <time>2021-03-27T12:50:48Z</time>
      </trkpt>
      <trkpt lat="43.69794" lon="3.87776">
        <ele>107</ele>
        <time>2021-03-27T12:50:50Z</time>
      </trkpt>
      <trkpt lat="43.69795" lon="3.8778">
        <ele>108</ele>
        <time>2021-03-27T12:50:51Z</time>
      </trkpt>
      <trkpt lat="43.69796" lon="3.87783">
        <ele>108</ele>
        <time>2021-03-27T12:50:52Z</time>
      </trkpt>
      <trkpt lat="43.69797" lon="3.87787">
        <ele>108</ele>
        <time>2021-03-27T12:50:53Z</time>
      </trkpt>
      <trkpt lat="43.69798" lon="3.8779">
        <ele>108</ele>
        <time>2021-03-27T12:50:54Z</time>
      </trkpt>
      <trkpt lat="43.69798" lon="3.87793">
        <ele>108</ele>
        <time>2021-03-27T12:50:55Z</time>
      </trkpt>
      <trkpt lat="43.69798" lon="3.87797">
        <ele>108</ele>
        <time>2021-03-27T12:50:56Z</time>
      </trkpt>
      <trkpt lat="43.69797" lon="3.87801">
        <ele>108</ele>
        <time>2021-03-27T12:50:57Z</time>
      </trkpt>
      <trkpt lat="43.69797" lon="3.87804">
        <ele>108</ele>
        <time>2021-03-27T12:50:58Z</time>
      </trkpt>
      <trkpt lat="43.69797" lon="3.87808">
        <ele>108</ele>
        <time>2021-03-27T12:50:59Z</time>
      </trkpt>
      <trkpt lat="43.69797" lon="3.87812">
        <ele>110</ele>
        <time>2021-03-27T12:51:00Z</time>
      </trkpt>
      <trkpt lat="43.69796" lon="3.87815">
        <ele>110</ele>
        <time>2021-03-27T12:51:01Z</time>
      </trkpt>
      <trkpt lat="43.69796" lon="3.87818">
        <ele>110</ele>
        <time>2021-03-27T12:51:02Z</time>
      </trkpt>
      <trkpt lat="43.69795" lon="3.87821">
        <ele>110</ele>
        <time>2021-03-27T12:51:03Z</time>
      </trkpt>
      <trkpt lat="43.69795" lon="3.87824">
        <ele>110</ele>
        <time>2021-03-27T12:51:04Z</time>
      </trkpt>
      <trkpt lat="43.69795" lon="3.87828">
        <ele>110</ele>
        <time>2021-03-27T12:51:05Z</time>
      </trkpt>
      <trkpt lat="43.69795" lon="3.87831">
        <ele>110</ele>
        <time>2021-03-27T12:51:06Z</time>
      </trkpt>
      <trkpt lat="43.69795" lon="3.87834">
        <ele>110</ele>
        <time>2021-03-27T12:51:07Z</time>
      </trkpt>
      <trkpt lat="43.69794" lon="3.87837">
        <ele>110</ele>
        <time>2021-03-27T12:51:09Z</time>
      </trkpt>
      <trkpt lat="43.69791" lon="3.87839">
        <ele>110</ele>
        <time>2021-03-27T12:51:11Z</time>
      </trkpt>
      <trkpt lat="43.6979" lon="3.87836">
        <ele>110</ele>
        <time>2021-03-27T12:51:12Z</time>
      </trkpt>
      <trkpt lat="43.69791" lon="3.87829">
        <ele>110</ele>
        <time>2021-03-27T12:51:14Z</time>
      </trkpt>
      <trkpt lat="43.69792" lon="3.87824">
        <ele>110</ele>
        <time>2021-03-27T12:51:15Z</time>
      </trkpt>
      <trkpt lat="43.69793" lon="3.87814">
        <ele>110</ele>
        <time>2021-03-27T12:51:17Z</time>
      </trkpt>
      <trkpt lat="43.69795" lon="3.87803">
        <ele>110</ele>
        <time>2021-03-27T12:51:19Z</time>
      </trkpt>
      <trkpt lat="43.69799" lon="3.87801">
        <ele>110</ele>
        <time>2021-03-27T12:51:21Z</time>
      </trkpt>
      <trkpt lat="43.69803" lon="3.87802">
        <ele>110</ele>
        <time>2021-03-27T12:51:22Z</time>
      </trkpt>
      <trkpt lat="43.69806" lon="3.87806">
        <ele>110</ele>
        <time>2021-03-27T12:51:23Z</time>
      </trkpt>
      <trkpt lat="43.69809" lon="3.87809">
        <ele>110</ele>
        <time>2021-03-27T12:51:24Z</time>
      </trkpt>
      <trkpt lat="43.69811" lon="3.87813">
        <ele>110</ele>
        <time>2021-03-27T12:51:25Z</time>
      </trkpt>
      <trkpt lat="43.69813" lon="3.87816">
        <ele>110</ele>
        <time>2021-03-27T12:51:26Z</time>
      </trkpt>
      <trkpt lat="43.69815" lon="3.87819">
        <ele>110</ele>
        <time>2021-03-27T12:51:27Z</time>
      </trkpt>
      <trkpt lat="43.69816" lon="3.87822">
        <ele>110</ele>
        <time>2021-03-27T12:51:28Z</time>
      </trkpt>
      <trkpt lat="43.69817" lon="3.87824">
        <ele>110</ele>
        <time>2021-03-27T12:51:29Z</time>
      </trkpt>
      <trkpt lat="43.69818" lon="3.87826">
        <ele>110</ele>
        <time>2021-03-27T12:51:30Z</time>
      </trkpt>
      <trkpt lat="43.6982" lon="3.87829">
        <ele>114</ele>
        <time>2021-03-27T12:51:31Z</time>
      </trkpt>
      <trkpt lat="43.69821" lon="3.87831">
        <ele>114</ele>
        <time>2021-03-27T12:51:32Z</time>
      </trkpt>
      <trkpt lat="43.69822" lon="3.87834">
        <ele>114</ele>
        <time>2021-03-27T12:51:33Z</time>
      </trkpt>
      <trkpt lat="43.69823" lon="3.87836">
        <ele>114</ele>
        <time>2021-03-27T12:51:34Z</time>
      </trkpt>
      <trkpt lat="43.69824" lon="3.87839">
        <ele>114</ele>
        <time>2021-03-27T12:51:35Z</time>
      </trkpt>
      <trkpt lat="43.69824" lon="3.87842">
        <ele>114</ele>
        <time>2021-03-27T12:51:36Z</time>
      </trkpt>
      <trkpt lat="43.69825" lon="3.87844">
        <ele>114</ele>
        <time>2021-03-27T12:51:37Z</time>
      </trkpt>
      <trkpt lat="43.69825" lon="3.87847">
        <ele>114</ele>
        <time>2021-03-27T12:51:38Z</time>
      </trkpt>
      <trkpt lat="43.69825" lon="3.8785">
        <ele>114</ele>
        <time>2021-03-27T12:51:39Z</time>
      </trkpt>
      <trkpt lat="43.69824" lon="3.87853">
        <ele>114</ele>
        <time>2021-03-27T12:51:40Z</time>
      </trkpt>
      <trkpt lat="43.69824" lon="3.87856">
        <ele>115</ele>
        <time>2021-03-27T12:51:41Z</time>
      </trkpt>
      <trkpt lat="43.69824" lon="3.87858">
        <ele>115</ele>
        <time>2021-03-27T12:51:42Z</time>
      </trkpt>
      <trkpt lat="43.69823" lon="3.87861">
        <ele>115</ele>
        <time>2021-03-27T12:51:43Z</time>
      </trkpt>
      <trkpt lat="43.69823" lon="3.87865">
        <ele>115</ele>
        <time>2021-03-27T12:51:45Z</time>
      </trkpt>
      <trkpt lat="43.69823" lon="3.87868">
        <ele>115</ele>
        <time>2021-03-27T12:51:46Z</time>
      </trkpt>
      <trkpt lat="43.69822" lon="3.8787">
        <ele>115</ele>
        <time>2021-03-27T12:51:47Z</time>
      </trkpt>
      <trkpt lat="43.69822" lon="3.87873">
        <ele>115</ele>
        <time>2021-03-27T12:51:48Z</time>
      </trkpt>
      <trkpt lat="43.69821" lon="3.87878">
        <ele>115</ele>
        <time>2021-03-27T12:51:50Z</time>
      </trkpt>
      <trkpt lat="43.6982" lon="3.87882">
        <ele>118</ele>
        <time>2021-03-27T12:51:51Z</time>
      </trkpt>
      <trkpt lat="43.6982" lon="3.87886">
        <ele>118</ele>
        <time>2021-03-27T12:51:53Z</time>
      </trkpt>
      <trkpt lat="43.69821" lon="3.8789">
        <ele>118</ele>
        <time>2021-03-27T12:51:56Z</time>
      </trkpt>
      <trkpt lat="43.69821" lon="3.87892">
        <ele>118</ele>
        <time>2021-03-27T12:51:57Z</time>
      </trkpt>
      <trkpt lat="43.69823" lon="3.87896">
        <ele>118</ele>
        <time>2021-03-27T12:51:59Z</time>
      </trkpt>
      <trkpt lat="43.6983" lon="3.87904">
        <ele>118</ele>
        <time>2021-03-27T12:52:03Z</time>
      </trkpt>
      <trkpt lat="43.69834" lon="3.87909">
        <ele>118</ele>
        <time>2021-03-27T12:52:06Z</time>
      </trkpt>
      <trkpt lat="43.69843" lon="3.87917">
        <ele>118</ele>
        <time>2021-03-27T12:52:13Z</time>
      </trkpt>
      <trkpt lat="43.69844" lon="3.87919">
        <ele>118</ele>
        <time>2021-03-27T12:52:14Z</time>
      </trkpt>
      <trkpt lat="43.69847" lon="3.87922">
        <ele>118</ele>
        <time>2021-03-27T12:52:16Z</time>
      </trkpt>
      <trkpt lat="43.69848" lon="3.87923">
        <ele>118</ele>
        <time>2021-03-27T12:52:17Z</time>
      </trkpt>
      <trkpt lat="43.6985" lon="3.87924">
        <ele>118</ele>
        <time>2021-03-27T12:52:18Z</time>
      </trkpt>
      <trkpt lat="43.69852" lon="3.87925">
        <ele>118</ele>
        <time>2021-03-27T12:52:19Z</time>
      </trkpt>
      <trkpt lat="43.69854" lon="3.87926">
        <ele>118</ele>
        <time>2021-03-27T12:52:20Z</time>
      </trkpt>
      <trkpt lat="43.69857" lon="3.87929">
        <ele>118</ele>
        <time>2021-03-27T12:52:22Z</time>
      </trkpt>
      <trkpt lat="43.6986" lon="3.8793">
        <ele>118</ele>
        <time>2021-03-27T12:52:24Z</time>
      </trkpt>
      <trkpt lat="43.69859" lon="3.87934">
        <ele>118</ele>
        <time>2021-03-27T12:52:26Z</time>
      </trkpt>
      <trkpt lat="43.69859" lon="3.87939">
        <ele>118</ele>
        <time>2021-03-27T12:52:29Z</time>
      </trkpt>
      <trkpt lat="43.69859" lon="3.87944">
        <ele>118</ele>
        <time>2021-03-27T12:52:31Z</time>
      </trkpt>
      <trkpt lat="43.69859" lon="3.87948">
        <ele>118</ele>
        <time>2021-03-27T12:52:33Z</time>
      </trkpt>
      <trkpt lat="43.69861" lon="3.87951">
        <ele>118</ele>
        <time>2021-03-27T12:52:35Z</time>
      </trkpt>
      <trkpt lat="43.69863" lon="3.87955">
        <ele>118</ele>
        <time>2021-03-27T12:52:37Z</time>
      </trkpt>
      <trkpt lat="43.69865" lon="3.87957">
        <ele>118</ele>
        <time>2021-03-27T12:52:38Z</time>
      </trkpt>
      <trkpt lat="43.69866" lon="3.87959">
        <ele>118</ele>
        <time>2021-03-27T12:52:39Z</time>
      </trkpt>
      <trkpt lat="43.69868" lon="3.87962">
        <ele>118</ele>
        <time>2021-03-27T12:52:40Z</time>
      </trkpt>
      <trkpt lat="43.6987" lon="3.87966">
        <ele>125</ele>
        <time>2021-03-27T12:52:41Z</time>
      </trkpt>
      <trkpt lat="43.69873" lon="3.8797">
        <ele>125</ele>
        <time>2021-03-27T12:52:42Z</time>
      </trkpt>
      <trkpt lat="43.69876" lon="3.87975">
        <ele>125</ele>
        <time>2021-03-27T12:52:43Z</time>
      </trkpt>
      <trkpt lat="43.6988" lon="3.87981">
        <ele>125</ele>
        <time>2021-03-27T12:52:44Z</time>
      </trkpt>
      <trkpt lat="43.69884" lon="3.87987">
        <ele>125</ele>
        <time>2021-03-27T12:52:45Z</time>
      </trkpt>
      <trkpt lat="43.69888" lon="3.87993">
        <ele>125</ele>
        <time>2021-03-27T12:52:46Z</time>
      </trkpt>
      <trkpt lat="43.69892" lon="3.88">
        <ele>125</ele>
        <time>2021-03-27T12:52:47Z</time>
      </trkpt>
      <trkpt lat="43.69896" lon="3.88007">
        <ele>125</ele>
        <time>2021-03-27T12:52:48Z</time>
      </trkpt>
      <trkpt lat="43.69898" lon="3.88012">
        <ele>125</ele>
        <time>2021-03-27T12:52:49Z</time>
      </trkpt>
      <trkpt lat="43.69899" lon="3.88017">
        <ele>125</ele>
        <time>2021-03-27T12:52:50Z</time>
      </trkpt>
      <trkpt lat="43.69897" lon="3.88025">
        <ele>122</ele>
        <time>2021-03-27T12:52:51Z</time>
      </trkpt>
      <trkpt lat="43.69894" lon="3.88027">
        <ele>122</ele>
        <time>2021-03-27T12:52:52Z</time>
      </trkpt>
      <trkpt lat="43.69891" lon="3.88028">
        <ele>122</ele>
        <time>2021-03-27T12:52:53Z</time>
      </trkpt>
      <trkpt lat="43.69887" lon="3.88029">
        <ele>122</ele>
        <time>2021-03-27T12:52:54Z</time>
      </trkpt>
      <trkpt lat="43.69884" lon="3.88029">
        <ele>122</ele>
        <time>2021-03-27T12:52:55Z</time>
      </trkpt>
      <trkpt lat="43.69881" lon="3.8803">
        <ele>122</ele>
        <time>2021-03-27T12:52:56Z</time>
      </trkpt>
      <trkpt lat="43.69877" lon="3.8803">
        <ele>122</ele>
        <time>2021-03-27T12:52:57Z</time>
      </trkpt>
      <trkpt lat="43.69873" lon="3.88031">
        <ele>122</ele>
        <time>2021-03-27T12:52:58Z</time>
      </trkpt>
      <trkpt lat="43.6987" lon="3.88032">
        <ele>122</ele>
        <time>2021-03-27T12:52:59Z</time>
      </trkpt>
      <trkpt lat="43.69866" lon="3.88033">
        <ele>120</ele>
        <time>2021-03-27T12:53:01Z</time>
      </trkpt>
      <trkpt lat="43.69862" lon="3.88033">
        <ele>120</ele>
        <time>2021-03-27T12:53:02Z</time>
      </trkpt>
      <trkpt lat="43.69849" lon="3.88038">
        <ele>120</ele>
        <time>2021-03-27T12:53:05Z</time>
      </trkpt>
      <trkpt lat="43.69845" lon="3.88039">
        <ele>120</ele>
        <time>2021-03-27T12:53:06Z</time>
      </trkpt>
      <trkpt lat="43.69841" lon="3.88042">
        <ele>120</ele>
        <time>2021-03-27T12:53:07Z</time>
      </trkpt>
      <trkpt lat="43.69838" lon="3.88044">
        <ele>120</ele>
        <time>2021-03-27T12:53:08Z</time>
      </trkpt>
      <trkpt lat="43.69834" lon="3.88048">
        <ele>120</ele>
        <time>2021-03-27T12:53:09Z</time>
      </trkpt>
      <trkpt lat="43.6983" lon="3.88051">
        <ele>120</ele>
        <time>2021-03-27T12:53:10Z</time>
      </trkpt>
      <trkpt lat="43.69827" lon="3.88055">
        <ele>119</ele>
        <time>2021-03-27T12:53:11Z</time>
      </trkpt>
      <trkpt lat="43.69824" lon="3.88059">
        <ele>119</ele>
        <time>2021-03-27T12:53:12Z</time>
      </trkpt>
      <trkpt lat="43.69822" lon="3.88063">
        <ele>119</ele>
        <time>2021-03-27T12:53:13Z</time>
      </trkpt>
      <trkpt lat="43.69819" lon="3.88067">
        <ele>119</ele>
        <time>2021-03-27T12:53:14Z</time>
      </trkpt>
      <trkpt lat="43.69816" lon="3.88074">
        <ele>119</ele>
        <time>2021-03-27T12:53:16Z</time>
      </trkpt>
      <trkpt lat="43.69814" lon="3.88077">
        <ele>119</ele>
        <time>2021-03-27T12:53:17Z</time>
      </trkpt>
      <trkpt lat="43.69812" lon="3.88081">
        <ele>119</ele>
        <time>2021-03-27T12:53:18Z</time>
      </trkpt>
      <trkpt lat="43.69807" lon="3.88094">
        <ele>119</ele>
        <time>2021-03-27T12:53:22Z</time>
      </trkpt>
      <trkpt lat="43.69805" lon="3.88111">
        <ele>119</ele>
        <time>2021-03-27T12:53:26Z</time>
      </trkpt>
      <trkpt lat="43.69804" lon="3.88116">
        <ele>119</ele>
        <time>2021-03-27T12:53:27Z</time>
      </trkpt>
      <trkpt lat="43.69804" lon="3.88124">
        <ele>119</ele>
        <time>2021-03-27T12:53:29Z</time>
      </trkpt>
      <trkpt lat="43.69803" lon="3.88128">
        <ele>120</ele>
        <time>2021-03-27T12:53:30Z</time>
      </trkpt>
      <trkpt lat="43.69803" lon="3.88136">
        <ele>120</ele>
        <time>2021-03-27T12:53:32Z</time>
      </trkpt>
      <trkpt lat="43.69802" lon="3.8814">
        <ele>120</ele>
        <time>2021-03-27T12:53:33Z</time>
      </trkpt>
      <trkpt lat="43.698" lon="3.88144">
        <ele>120</ele>
        <time>2021-03-27T12:53:34Z</time>
      </trkpt>
      <trkpt lat="43.69792" lon="3.88156">
        <ele>120</ele>
        <time>2021-03-27T12:53:38Z</time>
      </trkpt>
      <trkpt lat="43.69791" lon="3.88159">
        <ele>120</ele>
        <time>2021-03-27T12:53:39Z</time>
      </trkpt>
      <trkpt lat="43.69786" lon="3.88165">
        <ele>122</ele>
        <time>2021-03-27T12:53:41Z</time>
      </trkpt>
      <trkpt lat="43.69784" lon="3.88168">
        <ele>122</ele>
        <time>2021-03-27T12:53:42Z</time>
      </trkpt>
      <trkpt lat="43.69782" lon="3.88171">
        <ele>122</ele>
        <time>2021-03-27T12:53:43Z</time>
      </trkpt>
      <trkpt lat="43.69781" lon="3.88174">
        <ele>122</ele>
        <time>2021-03-27T12:53:44Z</time>
      </trkpt>
      <trkpt lat="43.69779" lon="3.88177">
        <ele>122</ele>
        <time>2021-03-27T12:53:45Z</time>
      </trkpt>
      <trkpt lat="43.69774" lon="3.88183">
        <ele>122</ele>
        <time>2021-03-27T12:53:47Z</time>
      </trkpt>
      <trkpt lat="43.69772" lon="3.88185">
        <ele>122</ele>
        <time>2021-03-27T12:53:48Z</time>
      </trkpt>
      <trkpt lat="43.69761" lon="3.88193">
        <ele>125</ele>
        <time>2021-03-27T12:53:51Z</time>
      </trkpt>
      <trkpt lat="43.69758" lon="3.88194">
        <ele>125</ele>
        <time>2021-03-27T12:53:52Z</time>
      </trkpt>
      <trkpt lat="43.69755" lon="3.88196">
        <ele>125</ele>
        <time>2021-03-27T12:53:53Z</time>
      </trkpt>
      <trkpt lat="43.69752" lon="3.88198">
        <ele>125</ele>
        <time>2021-03-27T12:53:54Z</time>
      </trkpt>
      <trkpt lat="43.69749" lon="3.88199">
        <ele>125</ele>
        <time>2021-03-27T12:53:55Z</time>
      </trkpt>
      <trkpt lat="43.69746" lon="3.882">
        <ele>125</ele>
        <time>2021-03-27T12:53:56Z</time>
      </trkpt>
      <trkpt lat="43.69743" lon="3.882">
        <ele>125</ele>
        <time>2021-03-27T12:53:57Z</time>
      </trkpt>
      <trkpt lat="43.6974" lon="3.882">
        <ele>125</ele>
        <time>2021-03-27T12:53:58Z</time>
      </trkpt>
      <trkpt lat="43.69737" lon="3.88201">
        <ele>125</ele>
        <time>2021-03-27T12:53:59Z</time>
      </trkpt>
      <trkpt lat="43.6973" lon="3.88204">
        <ele>125</ele>
        <time>2021-03-27T12:54:02Z</time>
      </trkpt>
      <trkpt lat="43.69727" lon="3.88204">
        <ele>125</ele>
        <time>2021-03-27T12:54:03Z</time>
      </trkpt>
      <trkpt lat="43.69724" lon="3.88204">
        <ele>125</ele>
        <time>2021-03-27T12:54:04Z</time>
      </trkpt>
      <trkpt lat="43.6972" lon="3.88203">
        <ele>125</ele>
        <time>2021-03-27T12:54:05Z</time>
      </trkpt>
      <trkpt lat="43.69717" lon="3.88204">
        <ele>125</ele>
        <time>2021-03-27T12:54:06Z</time>
      </trkpt>
      <trkpt lat="43.69708" lon="3.88205">
        <ele>125</ele>
        <time>2021-03-27T12:54:09Z</time>
      </trkpt>
      <trkpt lat="43.69705" lon="3.88205">
        <ele>125</ele>
        <time>2021-03-27T12:54:10Z</time>
      </trkpt>
      <trkpt lat="43.69702" lon="3.88205">
        <ele>127</ele>
        <time>2021-03-27T12:54:11Z</time>
      </trkpt>
      <trkpt lat="43.69696" lon="3.88206">
        <ele>127</ele>
        <time>2021-03-27T12:54:12Z</time>
      </trkpt>
      <trkpt lat="43.69691" lon="3.88206">
        <ele>127</ele>
        <time>2021-03-27T12:54:14Z</time>
      </trkpt>
      <trkpt lat="43.69688" lon="3.88206">
        <ele>127</ele>
        <time>2021-03-27T12:54:15Z</time>
      </trkpt>
      <trkpt lat="43.69685" lon="3.88205">
        <ele>127</ele>
        <time>2021-03-27T12:54:16Z</time>
      </trkpt>
      <trkpt lat="43.69684" lon="3.88204">
        <ele>127</ele>
        <time>2021-03-27T12:54:17Z</time>
      </trkpt>
      <trkpt lat="43.69682" lon="3.88202">
        <ele>127</ele>
        <time>2021-03-27T12:54:18Z</time>
      </trkpt>
      <trkpt lat="43.6968" lon="3.88202">
        <ele>127</ele>
        <time>2021-03-27T12:54:19Z</time>
      </trkpt>
      <trkpt lat="43.69677" lon="3.88201">
        <ele>127</ele>
        <time>2021-03-27T12:54:21Z</time>
      </trkpt>
      <trkpt lat="43.69674" lon="3.88202">
        <ele>127</ele>
        <time>2021-03-27T12:54:22Z</time>
      </trkpt>
      <trkpt lat="43.69672" lon="3.88202">
        <ele>127</ele>
        <time>2021-03-27T12:54:23Z</time>
      </trkpt>
      <trkpt lat="43.69669" lon="3.88201">
        <ele>127</ele>
        <time>2021-03-27T12:54:24Z</time>
      </trkpt>
      <trkpt lat="43.69666" lon="3.88201">
        <ele>127</ele>
        <time>2021-03-27T12:54:26Z</time>
      </trkpt>
      <trkpt lat="43.69664" lon="3.88202">
        <ele>127</ele>
        <time>2021-03-27T12:54:27Z</time>
      </trkpt>
      <trkpt lat="43.69661" lon="3.88201">
        <ele>127</ele>
        <time>2021-03-27T12:54:28Z</time>
      </trkpt>
      <trkpt lat="43.69659" lon="3.88201">
        <ele>127</ele>
        <time>2021-03-27T12:54:29Z</time>
      </trkpt>
      <trkpt lat="43.69657" lon="3.882">
        <ele>127</ele>
        <time>2021-03-27T12:54:30Z</time>
      </trkpt>
      <trkpt lat="43.69647" lon="3.88195">
        <ele>127</ele>
        <time>2021-03-27T12:54:35Z</time>
      </trkpt>
      <trkpt lat="43.69639" lon="3.88191">
        <ele>127</ele>
        <time>2021-03-27T12:54:43Z</time>
      </trkpt>
      <trkpt lat="43.69637" lon="3.88189">
        <ele>127</ele>
        <time>2021-03-27T12:54:44Z</time>
      </trkpt>
      <trkpt lat="43.69634" lon="3.88187">
        <ele>127</ele>
        <time>2021-03-27T12:54:45Z</time>
      </trkpt>
      <trkpt lat="43.69629" lon="3.88179">
        <ele>127</ele>
        <time>2021-03-27T12:54:48Z</time>
      </trkpt>
      <trkpt lat="43.69628" lon="3.88177">
        <ele>127</ele>
        <time>2021-03-27T12:54:49Z</time>
      </trkpt>
      <trkpt lat="43.69626" lon="3.88176">
        <ele>133</ele>
        <time>2021-03-27T12:54:51Z</time>
      </trkpt>
      <trkpt lat="43.69623" lon="3.88175">
        <ele>133</ele>
        <time>2021-03-27T12:54:52Z</time>
      </trkpt>
      <trkpt lat="43.69621" lon="3.88173">
        <ele>133</ele>
        <time>2021-03-27T12:54:53Z</time>
      </trkpt>
      <trkpt lat="43.69619" lon="3.88171">
        <ele>133</ele>
        <time>2021-03-27T12:54:54Z</time>
      </trkpt>
      <trkpt lat="43.69616" lon="3.8817">
        <ele>133</ele>
        <time>2021-03-27T12:54:55Z</time>
      </trkpt>
      <trkpt lat="43.69614" lon="3.88167">
        <ele>133</ele>
        <time>2021-03-27T12:54:56Z</time>
      </trkpt>
      <trkpt lat="43.69612" lon="3.88165">
        <ele>133</ele>
        <time>2021-03-27T12:54:57Z</time>
      </trkpt>
      <trkpt lat="43.6961" lon="3.88163">
        <ele>133</ele>
        <time>2021-03-27T12:54:58Z</time>
      </trkpt>
      <trkpt lat="43.69608" lon="3.88161">
        <ele>133</ele>
        <time>2021-03-27T12:54:59Z</time>
      </trkpt>
      <trkpt lat="43.69606" lon="3.88159">
        <ele>133</ele>
        <time>2021-03-27T12:55:00Z</time>
      </trkpt>
      <trkpt lat="43.69603" lon="3.88157">
        <ele>133</ele>
        <time>2021-03-27T12:55:01Z</time>
      </trkpt>
      <trkpt lat="43.69601" lon="3.88155">
        <ele>133</ele>
        <time>2021-03-27T12:55:02Z</time>
      </trkpt>
      <trkpt lat="43.69599" lon="3.88153">
        <ele>133</ele>
        <time>2021-03-27T12:55:03Z</time>
      </trkpt>
      <trkpt lat="43.69596" lon="3.8815">
        <ele>133</ele>
        <time>2021-03-27T12:55:04Z</time>
      </trkpt>
      <trkpt lat="43.69594" lon="3.88148">
        <ele>133</ele>
        <time>2021-03-27T12:55:05Z</time>
      </trkpt>
      <trkpt lat="43.69592" lon="3.88145">
        <ele>133</ele>
        <time>2021-03-27T12:55:06Z</time>
      </trkpt>
      <trkpt lat="43.6959" lon="3.88143">
        <ele>133</ele>
        <time>2021-03-27T12:55:07Z</time>
      </trkpt>
      <trkpt lat="43.69588" lon="3.88141">
        <ele>133</ele>
        <time>2021-03-27T12:55:08Z</time>
      </trkpt>
      <trkpt lat="43.69586" lon="3.88139">
        <ele>133</ele>
        <time>2021-03-27T12:55:09Z</time>
      </trkpt>
      <trkpt lat="43.69583" lon="3.88136">
        <ele>132</ele>
        <time>2021-03-27T12:55:10Z</time>
      </trkpt>
      <trkpt lat="43.6958" lon="3.88133">
        <ele>132</ele>
        <time>2021-03-27T12:55:11Z</time>
      </trkpt>
      <trkpt lat="43.69577" lon="3.8813">
        <ele>132</ele>
        <time>2021-03-27T12:55:12Z</time>
      </trkpt>
      <trkpt lat="43.69575" lon="3.88126">
        <ele>132</ele>
        <time>2021-03-27T12:55:13Z</time>
      </trkpt>
      <trkpt lat="43.69572" lon="3.88122">
        <ele>132</ele>
        <time>2021-03-27T12:55:14Z</time>
      </trkpt>
      <trkpt lat="43.6957" lon="3.88117">
        <ele>132</ele>
        <time>2021-03-27T12:55:15Z</time>
      </trkpt>
      <trkpt lat="43.69567" lon="3.88112">
        <ele>132</ele>
        <time>2021-03-27T12:55:16Z</time>
      </trkpt>
      <trkpt lat="43.69565" lon="3.88106">
        <ele>132</ele>
        <time>2021-03-27T12:55:17Z</time>
      </trkpt>
      <trkpt lat="43.69562" lon="3.88101">
        <ele>132</ele>
        <time>2021-03-27T12:55:18Z</time>
      </trkpt>
      <trkpt lat="43.69559" lon="3.88096">
        <ele>132</ele>
        <time>2021-03-27T12:55:19Z</time>
      </trkpt>
      <trkpt lat="43.69551" lon="3.88088">
        <ele>132</ele>
        <time>2021-03-27T12:55:21Z</time>
      </trkpt>
      <trkpt lat="43.69541" lon="3.88082">
        <ele>132</ele>
        <time>2021-03-27T12:55:23Z</time>
      </trkpt>
      <trkpt lat="43.69532" lon="3.88077">
        <ele>132</ele>
        <time>2021-03-27T12:55:25Z</time>
      </trkpt>
      <trkpt lat="43.69522" lon="3.88074">
        <ele>132</ele>
        <time>2021-03-27T12:55:27Z</time>
      </trkpt>
      <trkpt lat="43.69513" lon="3.8807">
        <ele>132</ele>
        <time>2021-03-27T12:55:29Z</time>
      </trkpt>
      <trkpt lat="43.69503" lon="3.88068">
        <ele>132</ele>
        <time>2021-03-27T12:55:31Z</time>
      </trkpt>
      <trkpt lat="43.69497" lon="3.88068">
        <ele>132</ele>
        <time>2021-03-27T12:55:32Z</time>
      </trkpt>
      <trkpt lat="43.69491" lon="3.88068">
        <ele>132</ele>
        <time>2021-03-27T12:55:33Z</time>
      </trkpt>
      <trkpt lat="43.69487" lon="3.88068">
        <ele>132</ele>
        <time>2021-03-27T12:55:34Z</time>
      </trkpt>
      <trkpt lat="43.69482" lon="3.88068">
        <ele>132</ele>
        <time>2021-03-27T12:55:35Z</time>
      </trkpt>
      <trkpt lat="43.69476" lon="3.88069">
        <ele>132</ele>
        <time>2021-03-27T12:55:36Z</time>
      </trkpt>
      <trkpt lat="43.69471" lon="3.8807">
        <ele>132</ele>
        <time>2021-03-27T12:55:37Z</time>
      </trkpt>
      <trkpt lat="43.69466" lon="3.88071">
        <ele>132</ele>
        <time>2021-03-27T12:55:38Z</time>
      </trkpt>
      <trkpt lat="43.69462" lon="3.88071">
        <ele>132</ele>
        <time>2021-03-27T12:55:39Z</time>
      </trkpt>
      <trkpt lat="43.69458" lon="3.88073">
        <ele>129</ele>
        <time>2021-03-27T12:55:40Z</time>
      </trkpt>
      <trkpt lat="43.69454" lon="3.88074">
        <ele>129</ele>
        <time>2021-03-27T12:55:41Z</time>
      </trkpt>
      <trkpt lat="43.69451" lon="3.88076">
        <ele>129</ele>
        <time>2021-03-27T12:55:42Z</time>
      </trkpt>
      <trkpt lat="43.69448" lon="3.88077">
        <ele>129</ele>
        <time>2021-03-27T12:55:43Z</time>
      </trkpt>
      <trkpt lat="43.69445" lon="3.88078">
        <ele>129</ele>
        <time>2021-03-27T12:55:44Z</time>
      </trkpt>
      <trkpt lat="43.69443" lon="3.88079">
        <ele>129</ele>
        <time>2021-03-27T12:55:45Z</time>
      </trkpt>
      <trkpt lat="43.6944" lon="3.88082">
        <ele>129</ele>
        <time>2021-03-27T12:55:46Z</time>
      </trkpt>
      <trkpt lat="43.69434" lon="3.88086">
        <ele>129</ele>
        <time>2021-03-27T12:55:48Z</time>
      </trkpt>
      <trkpt lat="43.69431" lon="3.88088">
        <ele>129</ele>
        <time>2021-03-27T12:55:49Z</time>
      </trkpt>
      <trkpt lat="43.69425" lon="3.88091">
        <ele>129</ele>
        <time>2021-03-27T12:55:51Z</time>
      </trkpt>
      <trkpt lat="43.69415" lon="3.88096">
        <ele>129</ele>
        <time>2021-03-27T12:55:54Z</time>
      </trkpt>
      <trkpt lat="43.69405" lon="3.88101">
        <ele>129</ele>
        <time>2021-03-27T12:55:57Z</time>
      </trkpt>
      <trkpt lat="43.69395" lon="3.88103">
        <ele>129</ele>
        <time>2021-03-27T12:55:59Z</time>
      </trkpt>
      <trkpt lat="43.69383" lon="3.88106">
        <ele>128</ele>
        <time>2021-03-27T12:56:01Z</time>
      </trkpt>
      <trkpt lat="43.69369" lon="3.88113">
        <ele>128</ele>
        <time>2021-03-27T12:56:03Z</time>
      </trkpt>
      <trkpt lat="43.69352" lon="3.88118">
        <ele>128</ele>
        <time>2021-03-27T12:56:05Z</time>
      </trkpt>
      <trkpt lat="43.69336" lon="3.88125">
        <ele>128</ele>
        <time>2021-03-27T12:56:07Z</time>
      </trkpt>
      <trkpt lat="43.69327" lon="3.88129">
        <ele>128</ele>
        <time>2021-03-27T12:56:08Z</time>
      </trkpt>
      <trkpt lat="43.69318" lon="3.88133">
        <ele>128</ele>
        <time>2021-03-27T12:56:09Z</time>
      </trkpt>
      <trkpt lat="43.69308" lon="3.88138">
        <ele>128</ele>
        <time>2021-03-27T12:56:10Z</time>
      </trkpt>
      <trkpt lat="43.69298" lon="3.88142">
        <ele>124</ele>
        <time>2021-03-27T12:56:11Z</time>
      </trkpt>
      <trkpt lat="43.69289" lon="3.88146">
        <ele>124</ele>
        <time>2021-03-27T12:56:12Z</time>
      </trkpt>
      <trkpt lat="43.6928" lon="3.88149">
        <ele>124</ele>
        <time>2021-03-27T12:56:13Z</time>
      </trkpt>
      <trkpt lat="43.69272" lon="3.88152">
        <ele>124</ele>
        <time>2021-03-27T12:56:14Z</time>
      </trkpt>
      <trkpt lat="43.69264" lon="3.88155">
        <ele>124</ele>
        <time>2021-03-27T12:56:15Z</time>
      </trkpt>
      <trkpt lat="43.69256" lon="3.8816">
        <ele>124</ele>
        <time>2021-03-27T12:56:16Z</time>
      </trkpt>
      <trkpt lat="43.69247" lon="3.88164">
        <ele>124</ele>
        <time>2021-03-27T12:56:17Z</time>
      </trkpt>
      <trkpt lat="43.69239" lon="3.88168">
        <ele>124</ele>
        <time>2021-03-27T12:56:18Z</time>
      </trkpt>
      <trkpt lat="43.69231" lon="3.88172">
        <ele>124</ele>
        <time>2021-03-27T12:56:19Z</time>
      </trkpt>
      <trkpt lat="43.69224" lon="3.88177">
        <ele>119</ele>
        <time>2021-03-27T12:56:20Z</time>
      </trkpt>
      <trkpt lat="43.69217" lon="3.88182">
        <ele>119</ele>
        <time>2021-03-27T12:56:21Z</time>
      </trkpt>
      <trkpt lat="43.6921" lon="3.88186">
        <ele>119</ele>
        <time>2021-03-27T12:56:22Z</time>
      </trkpt>
      <trkpt lat="43.69202" lon="3.88191">
        <ele>119</ele>
        <time>2021-03-27T12:56:23Z</time>
      </trkpt>
      <trkpt lat="43.69194" lon="3.88195">
        <ele>119</ele>
        <time>2021-03-27T12:56:24Z</time>
      </trkpt>
      <trkpt lat="43.69186" lon="3.88199">
        <ele>119</ele>
        <time>2021-03-27T12:56:25Z</time>
      </trkpt>
      <trkpt lat="43.69178" lon="3.88202">
        <ele>119</ele>
        <time>2021-03-27T12:56:26Z</time>
      </trkpt>
      <trkpt lat="43.69169" lon="3.88204">
        <ele>119</ele>
        <time>2021-03-27T12:56:27Z</time>
      </trkpt>
      <trkpt lat="43.69162" lon="3.88207">
        <ele>119</ele>
        <time>2021-03-27T12:56:28Z</time>
      </trkpt>
      <trkpt lat="43.69155" lon="3.8821">
        <ele>119</ele>
        <time>2021-03-27T12:56:29Z</time>
      </trkpt>
      <trkpt lat="43.69148" lon="3.88213">
        <ele>113</ele>
        <time>2021-03-27T12:56:30Z</time>
      </trkpt>
      <trkpt lat="43.69141" lon="3.88216">
        <ele>113</ele>
        <time>2021-03-27T12:56:31Z</time>
      </trkpt>
      <trkpt lat="43.69134" lon="3.88219">
        <ele>113</ele>
        <time>2021-03-27T12:56:32Z</time>
      </trkpt>
      <trkpt lat="43.69128" lon="3.88221">
        <ele>113</ele>
        <time>2021-03-27T12:56:33Z</time>
      </trkpt>
      <trkpt lat="43.69116" lon="3.88224">
        <ele>113</ele>
        <time>2021-03-27T12:56:35Z</time>
      </trkpt>
      <trkpt lat="43.69112" lon="3.88227">
        <ele>113</ele>
        <time>2021-03-27T12:56:36Z</time>
      </trkpt>
      <trkpt lat="43.69108" lon="3.88231">
        <ele>113</ele>
        <time>2021-03-27T12:56:37Z</time>
      </trkpt>
      <trkpt lat="43.69102" lon="3.88235">
        <ele>113</ele>
        <time>2021-03-27T12:56:38Z</time>
      </trkpt>
      <trkpt lat="43.69096" lon="3.8824">
        <ele>113</ele>
        <time>2021-03-27T12:56:39Z</time>
      </trkpt>
      <trkpt lat="43.6909" lon="3.88245">
        <ele>112</ele>
        <time>2021-03-27T12:56:40Z</time>
      </trkpt>
      <trkpt lat="43.69085" lon="3.88249">
        <ele>112</ele>
        <time>2021-03-27T12:56:41Z</time>
      </trkpt>
      <trkpt lat="43.6908" lon="3.88254">
        <ele>112</ele>
        <time>2021-03-27T12:56:42Z</time>
      </trkpt>
      <trkpt lat="43.69076" lon="3.88258">
        <ele>112</ele>
        <time>2021-03-27T12:56:43Z</time>
      </trkpt>
      <trkpt lat="43.69072" lon="3.88262">
        <ele>112</ele>
        <time>2021-03-27T12:56:44Z</time>
      </trkpt>
      <trkpt lat="43.69068" lon="3.88265">
        <ele>112</ele>
        <time>2021-03-27T12:56:45Z</time>
      </trkpt>
      <trkpt lat="43.69065" lon="3.88268">
        <ele>112</ele>
        <time>2021-03-27T12:56:46Z</time>
      </trkpt>
      <trkpt lat="43.6906" lon="3.88273">
        <ele>112</ele>
        <time>2021-03-27T12:56:47Z</time>
      </trkpt>
      <trkpt lat="43.69056" lon="3.88276">
        <ele>112</ele>
        <time>2021-03-27T12:56:48Z</time>
      </trkpt>
      <trkpt lat="43.69052" lon="3.8828">
        <ele>112</ele>
        <time>2021-03-27T12:56:49Z</time>
      </trkpt>
      <trkpt lat="43.69048" lon="3.88283">
        <ele>111</ele>
        <time>2021-03-27T12:56:50Z</time>
      </trkpt>
      <trkpt lat="43.69041" lon="3.8829">
        <ele>111</ele>
        <time>2021-03-27T12:56:51Z</time>
      </trkpt>
      <trkpt lat="43.69038" lon="3.88293">
        <ele>111</ele>
        <time>2021-03-27T12:56:52Z</time>
      </trkpt>
      <trkpt lat="43.69035" lon="3.88296">
        <ele>111</ele>
        <time>2021-03-27T12:56:53Z</time>
      </trkpt>
      <trkpt lat="43.69032" lon="3.88299">
        <ele>111</ele>
        <time>2021-03-27T12:56:54Z</time>
      </trkpt>
      <trkpt lat="43.69029" lon="3.88301">
        <ele>111</ele>
        <time>2021-03-27T12:56:55Z</time>
      </trkpt>
      <trkpt lat="43.69026" lon="3.88302">
        <ele>111</ele>
        <time>2021-03-27T12:56:56Z</time>
      </trkpt>
      <trkpt lat="43.69023" lon="3.88304">
        <ele>111</ele>
        <time>2021-03-27T12:56:57Z</time>
      </trkpt>
      <trkpt lat="43.6902" lon="3.88305">
        <ele>111</ele>
        <time>2021-03-27T12:56:58Z</time>
      </trkpt>
      <trkpt lat="43.69018" lon="3.88307">
        <ele>111</ele>
        <time>2021-03-27T12:56:59Z</time>
      </trkpt>
      <trkpt lat="43.69012" lon="3.88313">
        <ele>112</ele>
        <time>2021-03-27T12:57:01Z</time>
      </trkpt>
      <trkpt lat="43.69009" lon="3.88316">
        <ele>112</ele>
        <time>2021-03-27T12:57:02Z</time>
      </trkpt>
      <trkpt lat="43.69006" lon="3.8832">
        <ele>112</ele>
        <time>2021-03-27T12:57:03Z</time>
      </trkpt>
      <trkpt lat="43.69003" lon="3.88323">
        <ele>112</ele>
        <time>2021-03-27T12:57:04Z</time>
      </trkpt>
      <trkpt lat="43.68999" lon="3.88325">
        <ele>112</ele>
        <time>2021-03-27T12:57:05Z</time>
      </trkpt>
      <trkpt lat="43.68995" lon="3.88328">
        <ele>112</ele>
        <time>2021-03-27T12:57:06Z</time>
      </trkpt>
      <trkpt lat="43.68991" lon="3.8833">
        <ele>112</ele>
        <time>2021-03-27T12:57:07Z</time>
      </trkpt>
      <trkpt lat="43.68987" lon="3.88331">
        <ele>112</ele>
        <time>2021-03-27T12:57:08Z</time>
      </trkpt>
      <trkpt lat="43.68983" lon="3.88333">
        <ele>112</ele>
        <time>2021-03-27T12:57:09Z</time>
      </trkpt>
      <trkpt lat="43.6898" lon="3.88334">
        <ele>112</ele>
        <time>2021-03-27T12:57:11Z</time>
      </trkpt>
      <trkpt lat="43.68976" lon="3.88335">
        <ele>112</ele>
        <time>2021-03-27T12:57:12Z</time>
      </trkpt>
      <trkpt lat="43.68973" lon="3.88336">
        <ele>112</ele>
        <time>2021-03-27T12:57:13Z</time>
      </trkpt>
      <trkpt lat="43.68969" lon="3.88337">
        <ele>112</ele>
        <time>2021-03-27T12:57:14Z</time>
      </trkpt>
      <trkpt lat="43.68965" lon="3.88337">
        <ele>112</ele>
        <time>2021-03-27T12:57:15Z</time>
      </trkpt>
      <trkpt lat="43.68961" lon="3.88338">
        <ele>112</ele>
        <time>2021-03-27T12:57:16Z</time>
      </trkpt>
      <trkpt lat="43.68958" lon="3.88339">
        <ele>112</ele>
        <time>2021-03-27T12:57:17Z</time>
      </trkpt>
      <trkpt lat="43.68953" lon="3.8834">
        <ele>112</ele>
        <time>2021-03-27T12:57:18Z</time>
      </trkpt>
      <trkpt lat="43.68949" lon="3.8834">
        <ele>112</ele>
        <time>2021-03-27T12:57:19Z</time>
      </trkpt>
      <trkpt lat="43.68945" lon="3.88341">
        <ele>113</ele>
        <time>2021-03-27T12:57:20Z</time>
      </trkpt>
      <trkpt lat="43.68942" lon="3.88342">
        <ele>113</ele>
        <time>2021-03-27T12:57:21Z</time>
      </trkpt>
      <trkpt lat="43.68938" lon="3.88343">
        <ele>113</ele>
        <time>2021-03-27T12:57:22Z</time>
      </trkpt>
      <trkpt lat="43.68934" lon="3.88344">
        <ele>113</ele>
        <time>2021-03-27T12:57:23Z</time>
      </trkpt>
      <trkpt lat="43.6893" lon="3.88345">
        <ele>113</ele>
        <time>2021-03-27T12:57:24Z</time>
      </trkpt>
      <trkpt lat="43.68927" lon="3.88346">
        <ele>113</ele>
        <time>2021-03-27T12:57:25Z</time>
      </trkpt>
      <trkpt lat="43.68923" lon="3.88347">
        <ele>113</ele>
        <time>2021-03-27T12:57:26Z</time>
      </trkpt>
      <trkpt lat="43.68919" lon="3.88348">
        <ele>113</ele>
        <time>2021-03-27T12:57:27Z</time>
      </trkpt>
      <trkpt lat="43.68915" lon="3.88348">
        <ele>113</ele>
        <time>2021-03-27T12:57:28Z</time>
      </trkpt>
      <trkpt lat="43.68911" lon="3.88347">
        <ele>113</ele>
        <time>2021-03-27T12:57:29Z</time>
      </trkpt>
      <trkpt lat="43.68907" lon="3.88347">
        <ele>113</ele>
        <time>2021-03-27T12:57:30Z</time>
      </trkpt>
      <trkpt lat="43.68904" lon="3.88347">
        <ele>113</ele>
        <time>2021-03-27T12:57:31Z</time>
      </trkpt>
      <trkpt lat="43.689" lon="3.88347">
        <ele>113</ele>
        <time>2021-03-27T12:57:32Z</time>
      </trkpt>
      <trkpt lat="43.68896" lon="3.88347">
        <ele>113</ele>
        <time>2021-03-27T12:57:33Z</time>
      </trkpt>
      <trkpt lat="43.68892" lon="3.88347">
        <ele>113</ele>
        <time>2021-03-27T12:57:34Z</time>
      </trkpt>
      <trkpt lat="43.68889" lon="3.88347">
        <ele>113</ele>
        <time>2021-03-27T12:57:35Z</time>
      </trkpt>
      <trkpt lat="43.68885" lon="3.88347">
        <ele>113</ele>
        <time>2021-03-27T12:57:36Z</time>
      </trkpt>
      <trkpt lat="43.68881" lon="3.88347">
        <ele>113</ele>
        <time>2021-03-27T12:57:37Z</time>
      </trkpt>
      <trkpt lat="43.68878" lon="3.88347">
        <ele>113</ele>
        <time>2021-03-27T12:57:38Z</time>
      </trkpt>
      <trkpt lat="43.68874" lon="3.88346">
        <ele>113</ele>
        <time>2021-03-27T12:57:39Z</time>
      </trkpt>
      <trkpt lat="43.6887" lon="3.88345">
        <ele>113</ele>
        <time>2021-03-27T12:57:40Z</time>
      </trkpt>
      <trkpt lat="43.68867" lon="3.88344">
        <ele>114</ele>
        <time>2021-03-27T12:57:41Z</time>
      </trkpt>
      <trkpt lat="43.68863" lon="3.88344">
        <ele>114</ele>
        <time>2021-03-27T12:57:42Z</time>
      </trkpt>
      <trkpt lat="43.68859" lon="3.88344">
        <ele>114</ele>
        <time>2021-03-27T12:57:43Z</time>
      </trkpt>
      <trkpt lat="43.68856" lon="3.88345">
        <ele>114</ele>
        <time>2021-03-27T12:57:44Z</time>
      </trkpt>
      <trkpt lat="43.68852" lon="3.88345">
        <ele>114</ele>
        <time>2021-03-27T12:57:45Z</time>
      </trkpt>
      <trkpt lat="43.6885" lon="3.88344">
        <ele>114</ele>
        <time>2021-03-27T12:57:46Z</time>
      </trkpt>
      <trkpt lat="43.68847" lon="3.88344">
        <ele>114</ele>
        <time>2021-03-27T12:57:47Z</time>
      </trkpt>
      <trkpt lat="43.68844" lon="3.88344">
        <ele>114</ele>
        <time>2021-03-27T12:57:48Z</time>
      </trkpt>
      <trkpt lat="43.68841" lon="3.88343">
        <ele>114</ele>
        <time>2021-03-27T12:57:49Z</time>
      </trkpt>
      <trkpt lat="43.68839" lon="3.88342">
        <ele>114</ele>
        <time>2021-03-27T12:57:50Z</time>
      </trkpt>
      <trkpt lat="43.68837" lon="3.8834">
        <ele>115</ele>
        <time>2021-03-27T12:57:51Z</time>
      </trkpt>
      <trkpt lat="43.68834" lon="3.88339">
        <ele>115</ele>
        <time>2021-03-27T12:57:52Z</time>
      </trkpt>
      <trkpt lat="43.68832" lon="3.88338">
        <ele>115</ele>
        <time>2021-03-27T12:57:53Z</time>
      </trkpt>
      <trkpt lat="43.6883" lon="3.88338">
        <ele>115</ele>
        <time>2021-03-27T12:57:54Z</time>
      </trkpt>
      <trkpt lat="43.68828" lon="3.88338">
        <ele>115</ele>
        <time>2021-03-27T12:57:55Z</time>
      </trkpt>
      <trkpt lat="43.68826" lon="3.88338">
        <ele>115</ele>
        <time>2021-03-27T12:57:56Z</time>
      </trkpt>
      <trkpt lat="43.68825" lon="3.88338">
        <ele>115</ele>
        <time>2021-03-27T12:57:57Z</time>
      </trkpt>
      <trkpt lat="43.68823" lon="3.88338">
        <ele>115</ele>
        <time>2021-03-27T12:57:58Z</time>
      </trkpt>
      <trkpt lat="43.68821" lon="3.88338">
        <ele>115</ele>
        <time>2021-03-27T12:57:59Z</time>
      </trkpt>
      <trkpt lat="43.68819" lon="3.88338">
        <ele>115</ele>
        <time>2021-03-27T12:58:00Z</time>
      </trkpt>
      <trkpt lat="43.68815" lon="3.88338">
        <ele>115</ele>
        <time>2021-03-27T12:58:02Z</time>
      </trkpt>
      <trkpt lat="43.68812" lon="3.88338">
        <ele>115</ele>
        <time>2021-03-27T12:58:04Z</time>
      </trkpt>
      <trkpt lat="43.6881" lon="3.88338">
        <ele>115</ele>
        <time>2021-03-27T12:58:05Z</time>
      </trkpt>
      <trkpt lat="43.68808" lon="3.88338">
        <ele>115</ele>
        <time>2021-03-27T12:58:06Z</time>
      </trkpt>
      <trkpt lat="43.68806" lon="3.88337">
        <ele>115</ele>
        <time>2021-03-27T12:58:07Z</time>
      </trkpt>
      <trkpt lat="43.68803" lon="3.88337">
        <ele>115</ele>
        <time>2021-03-27T12:58:09Z</time>
      </trkpt>
      <trkpt lat="43.68801" lon="3.88337">
        <ele>118</ele>
        <time>2021-03-27T12:58:10Z</time>
      </trkpt>
      <trkpt lat="43.68799" lon="3.88337">
        <ele>118</ele>
        <time>2021-03-27T12:58:11Z</time>
      </trkpt>
      <trkpt lat="43.68797" lon="3.88337">
        <ele>118</ele>
        <time>2021-03-27T12:58:12Z</time>
      </trkpt>
      <trkpt lat="43.68795" lon="3.88337">
        <ele>118</ele>
        <time>2021-03-27T12:58:13Z</time>
      </trkpt>
      <trkpt lat="43.68793" lon="3.88337">
        <ele>118</ele>
        <time>2021-03-27T12:58:14Z</time>
      </trkpt>
      <trkpt lat="43.68791" lon="3.88337">
        <ele>118</ele>
        <time>2021-03-27T12:58:15Z</time>
      </trkpt>
      <trkpt lat="43.68789" lon="3.88338">
        <ele>118</ele>
        <time>2021-03-27T12:58:16Z</time>
      </trkpt>
      <trkpt lat="43.68787" lon="3.88337">
        <ele>118</ele>
        <time>2021-03-27T12:58:17Z</time>
      </trkpt>
      <trkpt lat="43.68784" lon="3.88337">
        <ele>118</ele>
        <time>2021-03-27T12:58:18Z</time>
      </trkpt>
      <trkpt lat="43.68782" lon="3.88337">
        <ele>118</ele>
        <time>2021-03-27T12:58:19Z</time>
      </trkpt>
      <trkpt lat="43.6878" lon="3.88336">
        <ele>120</ele>
        <time>2021-03-27T12:58:20Z</time>
      </trkpt>
      <trkpt lat="43.68778" lon="3.88336">
        <ele>120</ele>
        <time>2021-03-27T12:58:21Z</time>
      </trkpt>
      <trkpt lat="43.68776" lon="3.88335">
        <ele>120</ele>
        <time>2021-03-27T12:58:22Z</time>
      </trkpt>
      <trkpt lat="43.68774" lon="3.88335">
        <ele>120</ele>
        <time>2021-03-27T12:58:23Z</time>
      </trkpt>
      <trkpt lat="43.68772" lon="3.88335">
        <ele>120</ele>
        <time>2021-03-27T12:58:24Z</time>
      </trkpt>
      <trkpt lat="43.6877" lon="3.88335">
        <ele>120</ele>
        <time>2021-03-27T12:58:25Z</time>
      </trkpt>
      <trkpt lat="43.68767" lon="3.88335">
        <ele>120</ele>
        <time>2021-03-27T12:58:26Z</time>
      </trkpt>
      <trkpt lat="43.68765" lon="3.88336">
        <ele>120</ele>
        <time>2021-03-27T12:58:27Z</time>
      </trkpt>
      <trkpt lat="43.68763" lon="3.88336">
        <ele>120</ele>
        <time>2021-03-27T12:58:28Z</time>
      </trkpt>
      <trkpt lat="43.6876" lon="3.88335">
        <ele>120</ele>
        <time>2021-03-27T12:58:29Z</time>
      </trkpt>
      <trkpt lat="43.68758" lon="3.88335">
        <ele>122</ele>
        <time>2021-03-27T12:58:30Z</time>
      </trkpt>
      <trkpt lat="43.68756" lon="3.88334">
        <ele>122</ele>
        <time>2021-03-27T12:58:31Z</time>
      </trkpt>
      <trkpt lat="43.68754" lon="3.88334">
        <ele>122</ele>
        <time>2021-03-27T12:58:32Z</time>
      </trkpt>
      <trkpt lat="43.68752" lon="3.88333">
        <ele>122</ele>
        <time>2021-03-27T12:58:33Z</time>
      </trkpt>
      <trkpt lat="43.6875" lon="3.88333">
        <ele>122</ele>
        <time>2021-03-27T12:58:34Z</time>
      </trkpt>
      <trkpt lat="43.68748" lon="3.88332">
        <ele>122</ele>
        <time>2021-03-27T12:58:35Z</time>
      </trkpt>
      <trkpt lat="43.68746" lon="3.8833">
        <ele>122</ele>
        <time>2021-03-27T12:58:36Z</time>
      </trkpt>
      <trkpt lat="43.68744" lon="3.88329">
        <ele>122</ele>
        <time>2021-03-27T12:58:37Z</time>
      </trkpt>
      <trkpt lat="43.68741" lon="3.88327">
        <ele>122</ele>
        <time>2021-03-27T12:58:38Z</time>
      </trkpt>
      <trkpt lat="43.68739" lon="3.88326">
        <ele>122</ele>
        <time>2021-03-27T12:58:39Z</time>
      </trkpt>
      <trkpt lat="43.68737" lon="3.88324">
        <ele>124</ele>
        <time>2021-03-27T12:58:40Z</time>
      </trkpt>
      <trkpt lat="43.68733" lon="3.88322">
        <ele>124</ele>
        <time>2021-03-27T12:58:41Z</time>
      </trkpt>
      <trkpt lat="43.68729" lon="3.8832">
        <ele>124</ele>
        <time>2021-03-27T12:58:42Z</time>
      </trkpt>
      <trkpt lat="43.68726" lon="3.88316">
        <ele>124</ele>
        <time>2021-03-27T12:58:43Z</time>
      </trkpt>
      <trkpt lat="43.68722" lon="3.88313">
        <ele>124</ele>
        <time>2021-03-27T12:58:44Z</time>
      </trkpt>
      <trkpt lat="43.6872" lon="3.8831">
        <ele>124</ele>
        <time>2021-03-27T12:58:45Z</time>
      </trkpt>
      <trkpt lat="43.68718" lon="3.88308">
        <ele>124</ele>
        <time>2021-03-27T12:58:46Z</time>
      </trkpt>
      <trkpt lat="43.68714" lon="3.88302">
        <ele>124</ele>
        <time>2021-03-27T12:58:48Z</time>
      </trkpt>
      <trkpt lat="43.68711" lon="3.88299">
        <ele>124</ele>
        <time>2021-03-27T12:58:49Z</time>
      </trkpt>
      <trkpt lat="43.68709" lon="3.88297">
        <ele>125</ele>
        <time>2021-03-27T12:58:50Z</time>
      </trkpt>
      <trkpt lat="43.68705" lon="3.88297">
        <ele>125</ele>
        <time>2021-03-27T12:58:51Z</time>
      </trkpt>
      <trkpt lat="43.68701" lon="3.88297">
        <ele>125</ele>
        <time>2021-03-27T12:58:52Z</time>
      </trkpt>
      <trkpt lat="43.68697" lon="3.88296">
        <ele>125</ele>
        <time>2021-03-27T12:58:53Z</time>
      </trkpt>
      <trkpt lat="43.68692" lon="3.88292">
        <ele>125</ele>
        <time>2021-03-27T12:58:54Z</time>
      </trkpt>
      <trkpt lat="43.68687" lon="3.8829">
        <ele>125</ele>
        <time>2021-03-27T12:58:55Z</time>
      </trkpt>
      <trkpt lat="43.68682" lon="3.88289">
        <ele>125</ele>
        <time>2021-03-27T12:58:56Z</time>
      </trkpt>
      <trkpt lat="43.68676" lon="3.88287">
        <ele>125</ele>
        <time>2021-03-27T12:58:57Z</time>
      </trkpt>
      <trkpt lat="43.6867" lon="3.88285">
        <ele>125</ele>
        <time>2021-03-27T12:58:58Z</time>
      </trkpt>
      <trkpt lat="43.68663" lon="3.88281">
        <ele>125</ele>
        <time>2021-03-27T12:58:59Z</time>
      </trkpt>
      <trkpt lat="43.68656" lon="3.88278">
        <ele>124</ele>
        <time>2021-03-27T12:59:00Z</time>
      </trkpt>
      <trkpt lat="43.68648" lon="3.88274">
        <ele>124</ele>
        <time>2021-03-27T12:59:01Z</time>
      </trkpt>
      <trkpt lat="43.68632" lon="3.88269">
        <ele>124</ele>
        <time>2021-03-27T12:59:03Z</time>
      </trkpt>
      <trkpt lat="43.68624" lon="3.88269">
        <ele>124</ele>
        <time>2021-03-27T12:59:04Z</time>
      </trkpt>
      <trkpt lat="43.68616" lon="3.88269">
        <ele>124</ele>
        <time>2021-03-27T12:59:05Z</time>
      </trkpt>
      <trkpt lat="43.68609" lon="3.88268">
        <ele>124</ele>
        <time>2021-03-27T12:59:06Z</time>
      </trkpt>
      <trkpt lat="43.68603" lon="3.88266">
        <ele>124</ele>
        <time>2021-03-27T12:59:07Z</time>
      </trkpt>
      <trkpt lat="43.68597" lon="3.88265">
        <ele>124</ele>
        <time>2021-03-27T12:59:08Z</time>
      </trkpt>
      <trkpt lat="43.68592" lon="3.88266">
        <ele>124</ele>
        <time>2021-03-27T12:59:09Z</time>
      </trkpt>
      <trkpt lat="43.68588" lon="3.88267">
        <ele>121</ele>
        <time>2021-03-27T12:59:10Z</time>
      </trkpt>
      <trkpt lat="43.68584" lon="3.88268">
        <ele>121</ele>
        <time>2021-03-27T12:59:11Z</time>
      </trkpt>
      <trkpt lat="43.68581" lon="3.88268">
        <ele>121</ele>
        <time>2021-03-27T12:59:12Z</time>
      </trkpt>
      <trkpt lat="43.68578" lon="3.88269">
        <ele>121</ele>
        <time>2021-03-27T12:59:13Z</time>
      </trkpt>
      <trkpt lat="43.68574" lon="3.88268">
        <ele>121</ele>
        <time>2021-03-27T12:59:14Z</time>
      </trkpt>
      <trkpt lat="43.6857" lon="3.88267">
        <ele>121</ele>
        <time>2021-03-27T12:59:15Z</time>
      </trkpt>
      <trkpt lat="43.68566" lon="3.88266">
        <ele>121</ele>
        <time>2021-03-27T12:59:16Z</time>
      </trkpt>
      <trkpt lat="43.68563" lon="3.88265">
        <ele>121</ele>
        <time>2021-03-27T12:59:17Z</time>
      </trkpt>
      <trkpt lat="43.68559" lon="3.88265">
        <ele>121</ele>
        <time>2021-03-27T12:59:18Z</time>
      </trkpt>
      <trkpt lat="43.68556" lon="3.88264">
        <ele>121</ele>
        <time>2021-03-27T12:59:19Z</time>
      </trkpt>
      <trkpt lat="43.68552" lon="3.88263">
        <ele>121</ele>
        <time>2021-03-27T12:59:20Z</time>
      </trkpt>
      <trkpt lat="43.68548" lon="3.88262">
        <ele>121</ele>
        <time>2021-03-27T12:59:21Z</time>
      </trkpt>
      <trkpt lat="43.68543" lon="3.88262">
        <ele>121</ele>
        <time>2021-03-27T12:59:22Z</time>
      </trkpt>
      <trkpt lat="43.68539" lon="3.88262">
        <ele>121</ele>
        <time>2021-03-27T12:59:23Z</time>
      </trkpt>
      <trkpt lat="43.68534" lon="3.88262">
        <ele>121</ele>
        <time>2021-03-27T12:59:24Z</time>
      </trkpt>
      <trkpt lat="43.6853" lon="3.88261">
        <ele>121</ele>
        <time>2021-03-27T12:59:25Z</time>
      </trkpt>
      <trkpt lat="43.68526" lon="3.8826">
        <ele>121</ele>
        <time>2021-03-27T12:59:26Z</time>
      </trkpt>
      <trkpt lat="43.68521" lon="3.88259">
        <ele>121</ele>
        <time>2021-03-27T12:59:27Z</time>
      </trkpt>
      <trkpt lat="43.68517" lon="3.88258">
        <ele>121</ele>
        <time>2021-03-27T12:59:28Z</time>
      </trkpt>
      <trkpt lat="43.68513" lon="3.88258">
        <ele>121</ele>
        <time>2021-03-27T12:59:29Z</time>
      </trkpt>
      <trkpt lat="43.68509" lon="3.88257">
        <ele>121</ele>
        <time>2021-03-27T12:59:30Z</time>
      </trkpt>
      <trkpt lat="43.68505" lon="3.88256">
        <ele>121</ele>
        <time>2021-03-27T12:59:31Z</time>
      </trkpt>
      <trkpt lat="43.68501" lon="3.88255">
        <ele>121</ele>
        <time>2021-03-27T12:59:32Z</time>
      </trkpt>
      <trkpt lat="43.68498" lon="3.88253">
        <ele>121</ele>
        <time>2021-03-27T12:59:33Z</time>
      </trkpt>
      <trkpt lat="43.68495" lon="3.88252">
        <ele>121</ele>
        <time>2021-03-27T12:59:34Z</time>
      </trkpt>
      <trkpt lat="43.68492" lon="3.88251">
        <ele>121</ele>
        <time>2021-03-27T12:59:35Z</time>
      </trkpt>
      <trkpt lat="43.68488" lon="3.88249">
        <ele>121</ele>
        <time>2021-03-27T12:59:36Z</time>
      </trkpt>
      <trkpt lat="43.68484" lon="3.88249">
        <ele>121</ele>
        <time>2021-03-27T12:59:37Z</time>
      </trkpt>
      <trkpt lat="43.68481" lon="3.88247">
        <ele>121</ele>
        <time>2021-03-27T12:59:38Z</time>
      </trkpt>
      <trkpt lat="43.68477" lon="3.88246">
        <ele>121</ele>
        <time>2021-03-27T12:59:39Z</time>
      </trkpt>
      <trkpt lat="43.68473" lon="3.88245">
        <ele>121</ele>
        <time>2021-03-27T12:59:40Z</time>
      </trkpt>
      <trkpt lat="43.68469" lon="3.88244">
        <ele>121</ele>
        <time>2021-03-27T12:59:41Z</time>
      </trkpt>
      <trkpt lat="43.68465" lon="3.88244">
        <ele>121</ele>
        <time>2021-03-27T12:59:42Z</time>
      </trkpt>
      <trkpt lat="43.68461" lon="3.88243">
        <ele>121</ele>
        <time>2021-03-27T12:59:43Z</time>
      </trkpt>
      <trkpt lat="43.68457" lon="3.88243">
        <ele>121</ele>
        <time>2021-03-27T12:59:44Z</time>
      </trkpt>
      <trkpt lat="43.68454" lon="3.88242">
        <ele>121</ele>
        <time>2021-03-27T12:59:45Z</time>
      </trkpt>
      <trkpt lat="43.68451" lon="3.88242">
        <ele>121</ele>
        <time>2021-03-27T12:59:46Z</time>
      </trkpt>
      <trkpt lat="43.68447" lon="3.88241">
        <ele>121</ele>
        <time>2021-03-27T12:59:47Z</time>
      </trkpt>
      <trkpt lat="43.68444" lon="3.8824">
        <ele>121</ele>
        <time>2021-03-27T12:59:48Z</time>
      </trkpt>
      <trkpt lat="43.68441" lon="3.8824">
        <ele>121</ele>
        <time>2021-03-27T12:59:49Z</time>
      </trkpt>
      <trkpt lat="43.68438" lon="3.8824">
        <ele>121</ele>
        <time>2021-03-27T12:59:50Z</time>
      </trkpt>
      <trkpt lat="43.68435" lon="3.88239">
        <ele>121</ele>
        <time>2021-03-27T12:59:51Z</time>
      </trkpt>
      <trkpt lat="43.68432" lon="3.88238">
        <ele>121</ele>
        <time>2021-03-27T12:59:52Z</time>
      </trkpt>
      <trkpt lat="43.68429" lon="3.88238">
        <ele>121</ele>
        <time>2021-03-27T12:59:53Z</time>
      </trkpt>
      <trkpt lat="43.68426" lon="3.88237">
        <ele>121</ele>
        <time>2021-03-27T12:59:54Z</time>
      </trkpt>
      <trkpt lat="43.68423" lon="3.88237">
        <ele>121</ele>
        <time>2021-03-27T12:59:55Z</time>
      </trkpt>
      <trkpt lat="43.6842" lon="3.88236">
        <ele>121</ele>
        <time>2021-03-27T12:59:56Z</time>
      </trkpt>
      <trkpt lat="43.68418" lon="3.88235">
        <ele>121</ele>
        <time>2021-03-27T12:59:57Z</time>
      </trkpt>
      <trkpt lat="43.68415" lon="3.88235">
        <ele>121</ele>
        <time>2021-03-27T12:59:58Z</time>
      </trkpt>
      <trkpt lat="43.68412" lon="3.88235">
        <ele>121</ele>
        <time>2021-03-27T12:59:59Z</time>
      </trkpt>
      <trkpt lat="43.68407" lon="3.88237">
        <ele>121</ele>
        <time>2021-03-27T13:00:01Z</time>
      </trkpt>
      <trkpt lat="43.68402" lon="3.88238">
        <ele>121</ele>
        <time>2021-03-27T13:00:03Z</time>
      </trkpt>
      <trkpt lat="43.68399" lon="3.88239">
        <ele>121</ele>
        <time>2021-03-27T13:00:04Z</time>
      </trkpt>
      <trkpt lat="43.68396" lon="3.88239">
        <ele>121</ele>
        <time>2021-03-27T13:00:05Z</time>
      </trkpt>
      <trkpt lat="43.68392" lon="3.88239">
        <ele>121</ele>
        <time>2021-03-27T13:00:06Z</time>
      </trkpt>
      <trkpt lat="43.68389" lon="3.88239">
        <ele>121</ele>
        <time>2021-03-27T13:00:07Z</time>
      </trkpt>
      <trkpt lat="43.68385" lon="3.88239">
        <ele>121</ele>
        <time>2021-03-27T13:00:08Z</time>
      </trkpt>
      <trkpt lat="43.68383" lon="3.88238">
        <ele>121</ele>
        <time>2021-03-27T13:00:09Z</time>
      </trkpt>
      <trkpt lat="43.68378" lon="3.88238">
        <ele>123</ele>
        <time>2021-03-27T13:00:11Z</time>
      </trkpt>
      <trkpt lat="43.68376" lon="3.88239">
        <ele>123</ele>
        <time>2021-03-27T13:00:13Z</time>
      </trkpt>
      <trkpt lat="43.68373" lon="3.8824">
        <ele>123</ele>
        <time>2021-03-27T13:00:15Z</time>
      </trkpt>
      <trkpt lat="43.68371" lon="3.88241">
        <ele>123</ele>
        <time>2021-03-27T13:00:17Z</time>
      </trkpt>
      <trkpt lat="43.68376" lon="3.88239">
        <ele>125</ele>
        <time>2021-03-27T13:02:24Z</time>
      </trkpt>
      <trkpt lat="43.68376" lon="3.88239">
        <ele>125</ele>
        <time>2021-03-27T13:02:29Z</time>
      </trkpt>
      <trkpt lat="43.68365" lon="3.88247">
        <ele>125</ele>
        <time>2021-03-27T13:02:55Z</time>
      </trkpt>
      <trkpt lat="43.68362" lon="3.88247">
        <ele>125</ele>
        <time>2021-03-27T13:02:56Z</time>
      </trkpt>
      <trkpt lat="43.68358" lon="3.88247">
        <ele>125</ele>
        <time>2021-03-27T13:02:57Z</time>
      </trkpt>
      <trkpt lat="43.68354" lon="3.88246">
        <ele>125</ele>
        <time>2021-03-27T13:02:58Z</time>
      </trkpt>
      <trkpt lat="43.6835" lon="3.88245">
        <ele>125</ele>
        <time>2021-03-27T13:02:59Z</time>
      </trkpt>
      <trkpt lat="43.68347" lon="3.88245">
        <ele>125</ele>
        <time>2021-03-27T13:03:00Z</time>
      </trkpt>
      <trkpt lat="43.68343" lon="3.88247">
        <ele>125</ele>
        <time>2021-03-27T13:03:01Z</time>
      </trkpt>
      <trkpt lat="43.6834" lon="3.88249">
        <ele>125</ele>
        <time>2021-03-27T13:03:02Z</time>
      </trkpt>
      <trkpt lat="43.68336" lon="3.88252">
        <ele>125</ele>
        <time>2021-03-27T13:03:03Z</time>
      </trkpt>
      <trkpt lat="43.68333" lon="3.88255">
        <ele>124</ele>
        <time>2021-03-27T13:03:04Z</time>
      </trkpt>
      <trkpt lat="43.68329" lon="3.88256">
        <ele>124</ele>
        <time>2021-03-27T13:03:05Z</time>
      </trkpt>
      <trkpt lat="43.68325" lon="3.88257">
        <ele>124</ele>
        <time>2021-03-27T13:03:06Z</time>
      </trkpt>
      <trkpt lat="43.68322" lon="3.88258">
        <ele>124</ele>
        <time>2021-03-27T13:03:07Z</time>
      </trkpt>
      <trkpt lat="43.68319" lon="3.88259">
        <ele>124</ele>
        <time>2021-03-27T13:03:08Z</time>
      </trkpt>
      <trkpt lat="43.68317" lon="3.88259">
        <ele>124</ele>
        <time>2021-03-27T13:03:09Z</time>
      </trkpt>
      <trkpt lat="43.68313" lon="3.8826">
        <ele>124</ele>
        <time>2021-03-27T13:03:11Z</time>
      </trkpt>
      <trkpt lat="43.68311" lon="3.88259">
        <ele>124</ele>
        <time>2021-03-27T13:03:12Z</time>
      </trkpt>
      <trkpt lat="43.68308" lon="3.88259">
        <ele>124</ele>
        <time>2021-03-27T13:03:13Z</time>
      </trkpt>
      <trkpt lat="43.68306" lon="3.8826">
        <ele>124</ele>
        <time>2021-03-27T13:03:14Z</time>
      </trkpt>
      <trkpt lat="43.683" lon="3.88261">
        <ele>124</ele>
        <time>2021-03-27T13:03:15Z</time>
      </trkpt>
      <trkpt lat="43.68297" lon="3.88263">
        <ele>124</ele>
        <time>2021-03-27T13:03:16Z</time>
      </trkpt>
      <trkpt lat="43.68293" lon="3.88265">
        <ele>124</ele>
        <time>2021-03-27T13:03:17Z</time>
      </trkpt>
      <trkpt lat="43.68284" lon="3.8827">
        <ele>124</ele>
        <time>2021-03-27T13:03:19Z</time>
      </trkpt>
      <trkpt lat="43.6828" lon="3.88272">
        <ele>124</ele>
        <time>2021-03-27T13:03:20Z</time>
      </trkpt>
      <trkpt lat="43.68277" lon="3.88274">
        <ele>124</ele>
        <time>2021-03-27T13:03:21Z</time>
      </trkpt>
      <trkpt lat="43.68273" lon="3.88275">
        <ele>124</ele>
        <time>2021-03-27T13:03:22Z</time>
      </trkpt>
      <trkpt lat="43.6827" lon="3.88276">
        <ele>123</ele>
        <time>2021-03-27T13:03:24Z</time>
      </trkpt>
      <trkpt lat="43.68267" lon="3.88277">
        <ele>123</ele>
        <time>2021-03-27T13:03:25Z</time>
      </trkpt>
      <trkpt lat="43.68263" lon="3.88278">
        <ele>123</ele>
        <time>2021-03-27T13:03:26Z</time>
      </trkpt>
      <trkpt lat="43.68259" lon="3.8828">
        <ele>123</ele>
        <time>2021-03-27T13:03:27Z</time>
      </trkpt>
      <trkpt lat="43.68255" lon="3.88281">
        <ele>123</ele>
        <time>2021-03-27T13:03:28Z</time>
      </trkpt>
      <trkpt lat="43.68252" lon="3.88282">
        <ele>123</ele>
        <time>2021-03-27T13:03:29Z</time>
      </trkpt>
      <trkpt lat="43.68248" lon="3.88283">
        <ele>123</ele>
        <time>2021-03-27T13:03:30Z</time>
      </trkpt>
      <trkpt lat="43.68244" lon="3.88284">
        <ele>123</ele>
        <time>2021-03-27T13:03:31Z</time>
      </trkpt>
      <trkpt lat="43.68239" lon="3.88286">
        <ele>123</ele>
        <time>2021-03-27T13:03:32Z</time>
      </trkpt>
      <trkpt lat="43.68235" lon="3.88286">
        <ele>123</ele>
        <time>2021-03-27T13:03:33Z</time>
      </trkpt>
      <trkpt lat="43.68231" lon="3.88287">
        <ele>122</ele>
        <time>2021-03-27T13:03:34Z</time>
      </trkpt>
      <trkpt lat="43.68227" lon="3.88287">
        <ele>122</ele>
        <time>2021-03-27T13:03:35Z</time>
      </trkpt>
      <trkpt lat="43.68224" lon="3.88287">
        <ele>122</ele>
        <time>2021-03-27T13:03:36Z</time>
      </trkpt>
      <trkpt lat="43.68221" lon="3.88287">
        <ele>122</ele>
        <time>2021-03-27T13:03:37Z</time>
      </trkpt>
      <trkpt lat="43.68218" lon="3.88286">
        <ele>122</ele>
        <time>2021-03-27T13:03:38Z</time>
      </trkpt>
      <trkpt lat="43.68215" lon="3.88285">
        <ele>122</ele>
        <time>2021-03-27T13:03:39Z</time>
      </trkpt>
      <trkpt lat="43.68211" lon="3.88283">
        <ele>122</ele>
        <time>2021-03-27T13:03:40Z</time>
      </trkpt>
      <trkpt lat="43.68209" lon="3.88281">
        <ele>122</ele>
        <time>2021-03-27T13:03:41Z</time>
      </trkpt>
      <trkpt lat="43.68206" lon="3.8828">
        <ele>122</ele>
        <time>2021-03-27T13:03:42Z</time>
      </trkpt>
      <trkpt lat="43.68203" lon="3.88278">
        <ele>122</ele>
        <time>2021-03-27T13:03:43Z</time>
      </trkpt>
      <trkpt lat="43.68201" lon="3.88276">
        <ele>122</ele>
        <time>2021-03-27T13:03:44Z</time>
      </trkpt>
      <trkpt lat="43.68199" lon="3.88274">
        <ele>123</ele>
        <time>2021-03-27T13:03:45Z</time>
      </trkpt>
      <trkpt lat="43.68196" lon="3.88272">
        <ele>123</ele>
        <time>2021-03-27T13:03:46Z</time>
      </trkpt>
      <trkpt lat="43.68194" lon="3.8827">
        <ele>123</ele>
        <time>2021-03-27T13:03:47Z</time>
      </trkpt>
      <trkpt lat="43.68191" lon="3.88269">
        <ele>123</ele>
        <time>2021-03-27T13:03:48Z</time>
      </trkpt>
      <trkpt lat="43.68189" lon="3.88267">
        <ele>123</ele>
        <time>2021-03-27T13:03:49Z</time>
      </trkpt>
      <trkpt lat="43.68186" lon="3.88266">
        <ele>123</ele>
        <time>2021-03-27T13:03:50Z</time>
      </trkpt>
      <trkpt lat="43.68184" lon="3.88265">
        <ele>123</ele>
        <time>2021-03-27T13:03:51Z</time>
      </trkpt>
      <trkpt lat="43.68182" lon="3.88263">
        <ele>123</ele>
        <time>2021-03-27T13:03:52Z</time>
      </trkpt>
      <trkpt lat="43.6818" lon="3.88262">
        <ele>123</ele>
        <time>2021-03-27T13:03:53Z</time>
      </trkpt>
      <trkpt lat="43.68176" lon="3.88263">
        <ele>123</ele>
        <time>2021-03-27T13:03:55Z</time>
      </trkpt>
      <trkpt lat="43.68174" lon="3.88266">
        <ele>123</ele>
        <time>2021-03-27T13:03:57Z</time>
      </trkpt>
      <trkpt lat="43.68173" lon="3.8827">
        <ele>123</ele>
        <time>2021-03-27T13:03:59Z</time>
      </trkpt>
      <trkpt lat="43.68172" lon="3.88274">
        <ele>123</ele>
        <time>2021-03-27T13:04:00Z</time>
      </trkpt>
      <trkpt lat="43.68172" lon="3.88277">
        <ele>123</ele>
        <time>2021-03-27T13:04:01Z</time>
      </trkpt>
      <trkpt lat="43.68172" lon="3.88281">
        <ele>123</ele>
        <time>2021-03-27T13:04:02Z</time>
      </trkpt>
      <trkpt lat="43.68171" lon="3.88285">
        <ele>123</ele>
        <time>2021-03-27T13:04:03Z</time>
      </trkpt>
      <trkpt lat="43.68169" lon="3.88289">
        <ele>124</ele>
        <time>2021-03-27T13:04:04Z</time>
      </trkpt>
      <trkpt lat="43.68169" lon="3.88294">
        <ele>124</ele>
        <time>2021-03-27T13:04:05Z</time>
      </trkpt>
      <trkpt lat="43.68168" lon="3.88301">
        <ele>124</ele>
        <time>2021-03-27T13:04:06Z</time>
      </trkpt>
      <trkpt lat="43.68168" lon="3.88306">
        <ele>124</ele>
        <time>2021-03-27T13:04:07Z</time>
      </trkpt>
      <trkpt lat="43.68167" lon="3.8831">
        <ele>124</ele>
        <time>2021-03-27T13:04:08Z</time>
      </trkpt>
      <trkpt lat="43.68166" lon="3.88314">
        <ele>124</ele>
        <time>2021-03-27T13:04:09Z</time>
      </trkpt>
      <trkpt lat="43.68165" lon="3.88319">
        <ele>124</ele>
        <time>2021-03-27T13:04:10Z</time>
      </trkpt>
      <trkpt lat="43.68164" lon="3.88324">
        <ele>124</ele>
        <time>2021-03-27T13:04:11Z</time>
      </trkpt>
      <trkpt lat="43.68161" lon="3.88336">
        <ele>124</ele>
        <time>2021-03-27T13:04:13Z</time>
      </trkpt>
      <trkpt lat="43.68159" lon="3.88341">
        <ele>124</ele>
        <time>2021-03-27T13:04:14Z</time>
      </trkpt>
      <trkpt lat="43.68157" lon="3.88347">
        <ele>123</ele>
        <time>2021-03-27T13:04:15Z</time>
      </trkpt>
      <trkpt lat="43.68155" lon="3.88354">
        <ele>123</ele>
        <time>2021-03-27T13:04:16Z</time>
      </trkpt>
      <trkpt lat="43.68153" lon="3.88362">
        <ele>123</ele>
        <time>2021-03-27T13:04:17Z</time>
      </trkpt>
      <trkpt lat="43.68152" lon="3.8837">
        <ele>123</ele>
        <time>2021-03-27T13:04:18Z</time>
      </trkpt>
      <trkpt lat="43.6815" lon="3.88376">
        <ele>123</ele>
        <time>2021-03-27T13:04:19Z</time>
      </trkpt>
      <trkpt lat="43.68148" lon="3.88382">
        <ele>123</ele>
        <time>2021-03-27T13:04:20Z</time>
      </trkpt>
      <trkpt lat="43.68147" lon="3.88388">
        <ele>123</ele>
        <time>2021-03-27T13:04:21Z</time>
      </trkpt>
      <trkpt lat="43.68145" lon="3.88394">
        <ele>123</ele>
        <time>2021-03-27T13:04:22Z</time>
      </trkpt>
      <trkpt lat="43.68143" lon="3.88399">
        <ele>123</ele>
        <time>2021-03-27T13:04:23Z</time>
      </trkpt>
      <trkpt lat="43.68137" lon="3.88407">
        <ele>122</ele>
        <time>2021-03-27T13:04:25Z</time>
      </trkpt>
      <trkpt lat="43.6813" lon="3.88417">
        <ele>122</ele>
        <time>2021-03-27T13:04:28Z</time>
      </trkpt>
      <trkpt lat="43.68126" lon="3.88429">
        <ele>122</ele>
        <time>2021-03-27T13:04:32Z</time>
      </trkpt>
      <trkpt lat="43.6812" lon="3.8845">
        <ele>122</ele>
        <time>2021-03-27T13:04:35Z</time>
      </trkpt>
      <trkpt lat="43.68119" lon="3.88455">
        <ele>122</ele>
        <time>2021-03-27T13:04:36Z</time>
      </trkpt>
      <trkpt lat="43.68118" lon="3.8846">
        <ele>122</ele>
        <time>2021-03-27T13:04:37Z</time>
      </trkpt>
      <trkpt lat="43.68117" lon="3.88465">
        <ele>122</ele>
        <time>2021-03-27T13:04:38Z</time>
      </trkpt>
      <trkpt lat="43.68112" lon="3.88477">
        <ele>122</ele>
        <time>2021-03-27T13:04:41Z</time>
      </trkpt>
      <trkpt lat="43.68108" lon="3.88488">
        <ele>122</ele>
        <time>2021-03-27T13:04:43Z</time>
      </trkpt>
      <trkpt lat="43.68098" lon="3.88497">
        <ele>120</ele>
        <time>2021-03-27T13:04:45Z</time>
      </trkpt>
      <trkpt lat="43.68092" lon="3.88501">
        <ele>120</ele>
        <time>2021-03-27T13:04:47Z</time>
      </trkpt>
      <trkpt lat="43.68081" lon="3.88502">
        <ele>120</ele>
        <time>2021-03-27T13:04:48Z</time>
      </trkpt>
      <trkpt lat="43.68076" lon="3.88501">
        <ele>120</ele>
        <time>2021-03-27T13:04:50Z</time>
      </trkpt>
      <trkpt lat="43.68071" lon="3.88501">
        <ele>120</ele>
        <time>2021-03-27T13:04:51Z</time>
      </trkpt>
      <trkpt lat="43.68062" lon="3.88498">
        <ele>120</ele>
        <time>2021-03-27T13:04:52Z</time>
      </trkpt>
      <trkpt lat="43.68057" lon="3.88496">
        <ele>117</ele>
        <time>2021-03-27T13:04:54Z</time>
      </trkpt>
      <trkpt lat="43.68053" lon="3.88494">
        <ele>117</ele>
        <time>2021-03-27T13:04:55Z</time>
      </trkpt>
      <trkpt lat="43.6805" lon="3.88493">
        <ele>117</ele>
        <time>2021-03-27T13:04:56Z</time>
      </trkpt>
      <trkpt lat="43.68046" lon="3.88492">
        <ele>117</ele>
        <time>2021-03-27T13:04:57Z</time>
      </trkpt>
      <trkpt lat="43.68043" lon="3.88492">
        <ele>117</ele>
        <time>2021-03-27T13:04:58Z</time>
      </trkpt>
      <trkpt lat="43.68039" lon="3.88492">
        <ele>117</ele>
        <time>2021-03-27T13:04:59Z</time>
      </trkpt>
      <trkpt lat="43.68035" lon="3.88492">
        <ele>117</ele>
        <time>2021-03-27T13:05:00Z</time>
      </trkpt>
      <trkpt lat="43.68031" lon="3.88492">
        <ele>117</ele>
        <time>2021-03-27T13:05:01Z</time>
      </trkpt>
      <trkpt lat="43.68026" lon="3.88491">
        <ele>117</ele>
        <time>2021-03-27T13:05:02Z</time>
      </trkpt>
      <trkpt lat="43.68022" lon="3.8849">
        <ele>117</ele>
        <time>2021-03-27T13:05:03Z</time>
      </trkpt>
      <trkpt lat="43.68018" lon="3.88488">
        <ele>117</ele>
        <time>2021-03-27T13:05:04Z</time>
      </trkpt>
      <trkpt lat="43.68015" lon="3.88487">
        <ele>116</ele>
        <time>2021-03-27T13:05:05Z</time>
      </trkpt>
      <trkpt lat="43.68013" lon="3.88487">
        <ele>116</ele>
        <time>2021-03-27T13:05:06Z</time>
      </trkpt>
      <trkpt lat="43.68008" lon="3.88488">
        <ele>116</ele>
        <time>2021-03-27T13:05:07Z</time>
      </trkpt>
      <trkpt lat="43.68004" lon="3.88488">
        <ele>116</ele>
        <time>2021-03-27T13:05:08Z</time>
      </trkpt>
      <trkpt lat="43.67999" lon="3.88488">
        <ele>116</ele>
        <time>2021-03-27T13:05:09Z</time>
      </trkpt>
      <trkpt lat="43.67994" lon="3.88487">
        <ele>116</ele>
        <time>2021-03-27T13:05:10Z</time>
      </trkpt>
      <trkpt lat="43.67989" lon="3.88486">
        <ele>116</ele>
        <time>2021-03-27T13:05:11Z</time>
      </trkpt>
      <trkpt lat="43.67983" lon="3.88486">
        <ele>116</ele>
        <time>2021-03-27T13:05:12Z</time>
      </trkpt>
      <trkpt lat="43.67977" lon="3.88486">
        <ele>116</ele>
        <time>2021-03-27T13:05:13Z</time>
      </trkpt>
      <trkpt lat="43.67972" lon="3.88485">
        <ele>113</ele>
        <time>2021-03-27T13:05:14Z</time>
      </trkpt>
      <trkpt lat="43.67967" lon="3.88483">
        <ele>113</ele>
        <time>2021-03-27T13:05:15Z</time>
      </trkpt>
      <trkpt lat="43.67962" lon="3.88482">
        <ele>113</ele>
        <time>2021-03-27T13:05:16Z</time>
      </trkpt>
      <trkpt lat="43.67958" lon="3.8848">
        <ele>113</ele>
        <time>2021-03-27T13:05:17Z</time>
      </trkpt>
      <trkpt lat="43.67954" lon="3.88479">
        <ele>113</ele>
        <time>2021-03-27T13:05:18Z</time>
      </trkpt>
      <trkpt lat="43.6795" lon="3.88478">
        <ele>113</ele>
        <time>2021-03-27T13:05:19Z</time>
      </trkpt>
      <trkpt lat="43.67947" lon="3.88478">
        <ele>113</ele>
        <time>2021-03-27T13:05:20Z</time>
      </trkpt>
      <trkpt lat="43.67944" lon="3.88477">
        <ele>113</ele>
        <time>2021-03-27T13:05:21Z</time>
      </trkpt>
      <trkpt lat="43.67942" lon="3.88478">
        <ele>113</ele>
        <time>2021-03-27T13:05:22Z</time>
      </trkpt>
      <trkpt lat="43.6794" lon="3.88477">
        <ele>113</ele>
        <time>2021-03-27T13:05:23Z</time>
      </trkpt>
      <trkpt lat="43.67938" lon="3.88476">
        <ele>113</ele>
        <time>2021-03-27T13:05:24Z</time>
      </trkpt>
      <trkpt lat="43.67935" lon="3.88476">
        <ele>111</ele>
        <time>2021-03-27T13:05:25Z</time>
      </trkpt>
      <trkpt lat="43.67933" lon="3.88474">
        <ele>111</ele>
        <time>2021-03-27T13:05:26Z</time>
      </trkpt>
      <trkpt lat="43.67929" lon="3.88472">
        <ele>111</ele>
        <time>2021-03-27T13:05:27Z</time>
      </trkpt>
      <trkpt lat="43.67926" lon="3.8847">
        <ele>111</ele>
        <time>2021-03-27T13:05:28Z</time>
      </trkpt>
      <trkpt lat="43.67922" lon="3.88467">
        <ele>111</ele>
        <time>2021-03-27T13:05:29Z</time>
      </trkpt>
      <trkpt lat="43.67914" lon="3.88461">
        <ele>111</ele>
        <time>2021-03-27T13:05:31Z</time>
      </trkpt>
      <trkpt lat="43.67902" lon="3.88453">
        <ele>111</ele>
        <time>2021-03-27T13:05:33Z</time>
      </trkpt>
      <trkpt lat="43.67897" lon="3.88448">
        <ele>111</ele>
        <time>2021-03-27T13:05:34Z</time>
      </trkpt>
      <trkpt lat="43.67893" lon="3.88444">
        <ele>108</ele>
        <time>2021-03-27T13:05:35Z</time>
      </trkpt>
      <trkpt lat="43.67888" lon="3.88441">
        <ele>108</ele>
        <time>2021-03-27T13:05:36Z</time>
      </trkpt>
      <trkpt lat="43.67882" lon="3.88438">
        <ele>108</ele>
        <time>2021-03-27T13:05:37Z</time>
      </trkpt>
      <trkpt lat="43.67872" lon="3.88435">
        <ele>108</ele>
        <time>2021-03-27T13:05:39Z</time>
      </trkpt>
      <trkpt lat="43.67868" lon="3.88435">
        <ele>108</ele>
        <time>2021-03-27T13:05:40Z</time>
      </trkpt>
      <trkpt lat="43.67865" lon="3.88435">
        <ele>108</ele>
        <time>2021-03-27T13:05:41Z</time>
      </trkpt>
      <trkpt lat="43.67863" lon="3.88436">
        <ele>108</ele>
        <time>2021-03-27T13:05:42Z</time>
      </trkpt>
      <trkpt lat="43.67861" lon="3.88441">
        <ele>108</ele>
        <time>2021-03-27T13:05:44Z</time>
      </trkpt>
      <trkpt lat="43.6786" lon="3.88444">
        <ele>105</ele>
        <time>2021-03-27T13:05:45Z</time>
      </trkpt>
      <trkpt lat="43.67859" lon="3.88449">
        <ele>105</ele>
        <time>2021-03-27T13:05:46Z</time>
      </trkpt>
      <trkpt lat="43.67857" lon="3.88453">
        <ele>105</ele>
        <time>2021-03-27T13:05:47Z</time>
      </trkpt>
      <trkpt lat="43.67855" lon="3.88458">
        <ele>105</ele>
        <time>2021-03-27T13:05:48Z</time>
      </trkpt>
      <trkpt lat="43.67853" lon="3.88464">
        <ele>105</ele>
        <time>2021-03-27T13:05:49Z</time>
      </trkpt>
      <trkpt lat="43.6785" lon="3.88471">
        <ele>105</ele>
        <time>2021-03-27T13:05:50Z</time>
      </trkpt>
      <trkpt lat="43.67848" lon="3.88477">
        <ele>105</ele>
        <time>2021-03-27T13:05:51Z</time>
      </trkpt>
      <trkpt lat="43.67844" lon="3.88482">
        <ele>105</ele>
        <time>2021-03-27T13:05:52Z</time>
      </trkpt>
      <trkpt lat="43.6784" lon="3.88486">
        <ele>105</ele>
        <time>2021-03-27T13:05:53Z</time>
      </trkpt>
      <trkpt lat="43.67835" lon="3.88489">
        <ele>102</ele>
        <time>2021-03-27T13:05:54Z</time>
      </trkpt>
      <trkpt lat="43.6783" lon="3.8849">
        <ele>102</ele>
        <time>2021-03-27T13:05:55Z</time>
      </trkpt>
      <trkpt lat="43.67825" lon="3.88491">
        <ele>102</ele>
        <time>2021-03-27T13:05:56Z</time>
      </trkpt>
      <trkpt lat="43.67821" lon="3.88493">
        <ele>102</ele>
        <time>2021-03-27T13:05:57Z</time>
      </trkpt>
      <trkpt lat="43.6782" lon="3.88495">
        <ele>102</ele>
        <time>2021-03-27T13:05:58Z</time>
      </trkpt>
      <trkpt lat="43.67818" lon="3.88498">
        <ele>102</ele>
        <time>2021-03-27T13:05:59Z</time>
      </trkpt>
      <trkpt lat="43.67816" lon="3.88501">
        <ele>102</ele>
        <time>2021-03-27T13:06:00Z</time>
      </trkpt>
      <trkpt lat="43.67815" lon="3.88503">
        <ele>102</ele>
        <time>2021-03-27T13:06:01Z</time>
      </trkpt>
      <trkpt lat="43.67813" lon="3.88507">
        <ele>102</ele>
        <time>2021-03-27T13:06:02Z</time>
      </trkpt>
      <trkpt lat="43.67811" lon="3.88511">
        <ele>102</ele>
        <time>2021-03-27T13:06:03Z</time>
      </trkpt>
      <trkpt lat="43.67809" lon="3.88515">
        <ele>102</ele>
        <time>2021-03-27T13:06:04Z</time>
      </trkpt>
      <trkpt lat="43.67807" lon="3.88519">
        <ele>102</ele>
        <time>2021-03-27T13:06:05Z</time>
      </trkpt>
      <trkpt lat="43.67806" lon="3.88522">
        <ele>102</ele>
        <time>2021-03-27T13:06:06Z</time>
      </trkpt>
      <trkpt lat="43.67805" lon="3.88526">
        <ele>102</ele>
        <time>2021-03-27T13:06:07Z</time>
      </trkpt>
      <trkpt lat="43.67803" lon="3.8853">
        <ele>102</ele>
        <time>2021-03-27T13:06:08Z</time>
      </trkpt>
      <trkpt lat="43.67801" lon="3.88534">
        <ele>102</ele>
        <time>2021-03-27T13:06:09Z</time>
      </trkpt>
      <trkpt lat="43.67799" lon="3.88538">
        <ele>102</ele>
        <time>2021-03-27T13:06:10Z</time>
      </trkpt>
      <trkpt lat="43.67797" lon="3.88542">
        <ele>102</ele>
        <time>2021-03-27T13:06:11Z</time>
      </trkpt>
      <trkpt lat="43.67794" lon="3.88545">
        <ele>102</ele>
        <time>2021-03-27T13:06:12Z</time>
      </trkpt>
      <trkpt lat="43.67792" lon="3.88547">
        <ele>102</ele>
        <time>2021-03-27T13:06:13Z</time>
      </trkpt>
      <trkpt lat="43.6779" lon="3.88549">
        <ele>102</ele>
        <time>2021-03-27T13:06:14Z</time>
      </trkpt>
      <trkpt lat="43.67788" lon="3.88551">
        <ele>103</ele>
        <time>2021-03-27T13:06:15Z</time>
      </trkpt>
      <trkpt lat="43.67786" lon="3.88552">
        <ele>103</ele>
        <time>2021-03-27T13:06:16Z</time>
      </trkpt>
      <trkpt lat="43.67784" lon="3.88554">
        <ele>103</ele>
        <time>2021-03-27T13:06:17Z</time>
      </trkpt>
      <trkpt lat="43.67782" lon="3.88556">
        <ele>103</ele>
        <time>2021-03-27T13:06:18Z</time>
      </trkpt>
      <trkpt lat="43.67779" lon="3.88557">
        <ele>103</ele>
        <time>2021-03-27T13:06:19Z</time>
      </trkpt>
      <trkpt lat="43.67777" lon="3.88559">
        <ele>103</ele>
        <time>2021-03-27T13:06:20Z</time>
      </trkpt>
      <trkpt lat="43.67774" lon="3.88561">
        <ele>103</ele>
        <time>2021-03-27T13:06:21Z</time>
      </trkpt>
      <trkpt lat="43.67771" lon="3.88562">
        <ele>103</ele>
        <time>2021-03-27T13:06:22Z</time>
      </trkpt>
      <trkpt lat="43.67768" lon="3.88564">
        <ele>103</ele>
        <time>2021-03-27T13:06:23Z</time>
      </trkpt>
      <trkpt lat="43.67765" lon="3.88565">
        <ele>103</ele>
        <time>2021-03-27T13:06:24Z</time>
      </trkpt>
      <trkpt lat="43.67763" lon="3.88565">
        <ele>103</ele>
        <time>2021-03-27T13:06:25Z</time>
      </trkpt>
      <trkpt lat="43.67758" lon="3.88567">
        <ele>103</ele>
        <time>2021-03-27T13:06:26Z</time>
      </trkpt>
      <trkpt lat="43.67756" lon="3.88568">
        <ele>103</ele>
        <time>2021-03-27T13:06:27Z</time>
      </trkpt>
      <trkpt lat="43.67752" lon="3.88569">
        <ele>103</ele>
        <time>2021-03-27T13:06:28Z</time>
      </trkpt>
      <trkpt lat="43.67749" lon="3.8857">
        <ele>103</ele>
        <time>2021-03-27T13:06:29Z</time>
      </trkpt>
      <trkpt lat="43.67745" lon="3.8857">
        <ele>103</ele>
        <time>2021-03-27T13:06:30Z</time>
      </trkpt>
      <trkpt lat="43.67742" lon="3.8857">
        <ele>103</ele>
        <time>2021-03-27T13:06:31Z</time>
      </trkpt>
      <trkpt lat="43.67739" lon="3.88571">
        <ele>103</ele>
        <time>2021-03-27T13:06:32Z</time>
      </trkpt>
      <trkpt lat="43.67735" lon="3.88572">
        <ele>103</ele>
        <time>2021-03-27T13:06:33Z</time>
      </trkpt>
      <trkpt lat="43.67732" lon="3.88573">
        <ele>103</ele>
        <time>2021-03-27T13:06:35Z</time>
      </trkpt>
      <trkpt lat="43.67728" lon="3.88576">
        <ele>103</ele>
        <time>2021-03-27T13:06:36Z</time>
      </trkpt>
      <trkpt lat="43.67726" lon="3.88578">
        <ele>103</ele>
        <time>2021-03-27T13:06:37Z</time>
      </trkpt>
      <trkpt lat="43.67722" lon="3.88582">
        <ele>103</ele>
        <time>2021-03-27T13:06:38Z</time>
      </trkpt>
      <trkpt lat="43.67719" lon="3.88585">
        <ele>103</ele>
        <time>2021-03-27T13:06:39Z</time>
      </trkpt>
      <trkpt lat="43.67717" lon="3.88587">
        <ele>103</ele>
        <time>2021-03-27T13:06:40Z</time>
      </trkpt>
      <trkpt lat="43.67714" lon="3.88589">
        <ele>103</ele>
        <time>2021-03-27T13:06:41Z</time>
      </trkpt>
      <trkpt lat="43.67711" lon="3.88592">
        <ele>103</ele>
        <time>2021-03-27T13:06:42Z</time>
      </trkpt>
      <trkpt lat="43.67708" lon="3.88596">
        <ele>103</ele>
        <time>2021-03-27T13:06:43Z</time>
      </trkpt>
      <trkpt lat="43.67705" lon="3.88598">
        <ele>103</ele>
        <time>2021-03-27T13:06:44Z</time>
      </trkpt>
      <trkpt lat="43.67703" lon="3.886">
        <ele>105</ele>
        <time>2021-03-27T13:06:45Z</time>
      </trkpt>
      <trkpt lat="43.677" lon="3.88601">
        <ele>105</ele>
        <time>2021-03-27T13:06:46Z</time>
      </trkpt>
      <trkpt lat="43.67696" lon="3.88603">
        <ele>105</ele>
        <time>2021-03-27T13:06:47Z</time>
      </trkpt>
      <trkpt lat="43.67693" lon="3.88604">
        <ele>105</ele>
        <time>2021-03-27T13:06:48Z</time>
      </trkpt>
      <trkpt lat="43.67691" lon="3.88605">
        <ele>105</ele>
        <time>2021-03-27T13:06:49Z</time>
      </trkpt>
      <trkpt lat="43.67689" lon="3.88607">
        <ele>105</ele>
        <time>2021-03-27T13:06:50Z</time>
      </trkpt>
      <trkpt lat="43.67687" lon="3.8861">
        <ele>105</ele>
        <time>2021-03-27T13:06:51Z</time>
      </trkpt>
      <trkpt lat="43.67687" lon="3.88612">
        <ele>105</ele>
        <time>2021-03-27T13:06:52Z</time>
      </trkpt>
      <trkpt lat="43.67686" lon="3.88615">
        <ele>105</ele>
        <time>2021-03-27T13:06:53Z</time>
      </trkpt>
      <trkpt lat="43.67685" lon="3.88619">
        <ele>106</ele>
        <time>2021-03-27T13:06:54Z</time>
      </trkpt>
      <trkpt lat="43.67685" lon="3.88622">
        <ele>106</ele>
        <time>2021-03-27T13:06:55Z</time>
      </trkpt>
      <trkpt lat="43.67685" lon="3.88627">
        <ele>106</ele>
        <time>2021-03-27T13:06:56Z</time>
      </trkpt>
      <trkpt lat="43.67685" lon="3.88631">
        <ele>106</ele>
        <time>2021-03-27T13:06:57Z</time>
      </trkpt>
      <trkpt lat="43.67687" lon="3.88636">
        <ele>106</ele>
        <time>2021-03-27T13:06:58Z</time>
      </trkpt>
      <trkpt lat="43.67689" lon="3.88638">
        <ele>106</ele>
        <time>2021-03-27T13:06:59Z</time>
      </trkpt>
      <trkpt lat="43.67692" lon="3.88639">
        <ele>106</ele>
        <time>2021-03-27T13:07:00Z</time>
      </trkpt>
      <trkpt lat="43.67695" lon="3.88639">
        <ele>106</ele>
        <time>2021-03-27T13:07:01Z</time>
      </trkpt>
      <trkpt lat="43.67697" lon="3.8864">
        <ele>106</ele>
        <time>2021-03-27T13:07:02Z</time>
      </trkpt>
      <trkpt lat="43.67701" lon="3.88641">
        <ele>106</ele>
        <time>2021-03-27T13:07:03Z</time>
      </trkpt>
      <trkpt lat="43.67704" lon="3.88643">
        <ele>105</ele>
        <time>2021-03-27T13:07:04Z</time>
      </trkpt>
      <trkpt lat="43.67708" lon="3.88647">
        <ele>105</ele>
        <time>2021-03-27T13:07:05Z</time>
      </trkpt>
      <trkpt lat="43.67711" lon="3.88651">
        <ele>105</ele>
        <time>2021-03-27T13:07:06Z</time>
      </trkpt>
      <trkpt lat="43.67715" lon="3.88654">
        <ele>105</ele>
        <time>2021-03-27T13:07:07Z</time>
      </trkpt>
      <trkpt lat="43.67719" lon="3.88658">
        <ele>105</ele>
        <time>2021-03-27T13:07:08Z</time>
      </trkpt>
      <trkpt lat="43.67723" lon="3.88662">
        <ele>105</ele>
        <time>2021-03-27T13:07:09Z</time>
      </trkpt>
      <trkpt lat="43.67726" lon="3.88665">
        <ele>105</ele>
        <time>2021-03-27T13:07:10Z</time>
      </trkpt>
      <trkpt lat="43.67729" lon="3.88669">
        <ele>105</ele>
        <time>2021-03-27T13:07:11Z</time>
      </trkpt>
      <trkpt lat="43.67731" lon="3.88673">
        <ele>105</ele>
        <time>2021-03-27T13:07:12Z</time>
      </trkpt>
      <trkpt lat="43.67734" lon="3.88677">
        <ele>105</ele>
        <time>2021-03-27T13:07:13Z</time>
      </trkpt>
      <trkpt lat="43.67737" lon="3.88679">
        <ele>106</ele>
        <time>2021-03-27T13:07:14Z</time>
      </trkpt>
      <trkpt lat="43.67739" lon="3.88681">
        <ele>106</ele>
        <time>2021-03-27T13:07:15Z</time>
      </trkpt>
      <trkpt lat="43.67742" lon="3.88682">
        <ele>106</ele>
        <time>2021-03-27T13:07:16Z</time>
      </trkpt>
      <trkpt lat="43.67745" lon="3.88684">
        <ele>106</ele>
        <time>2021-03-27T13:07:17Z</time>
      </trkpt>
      <trkpt lat="43.67748" lon="3.88684">
        <ele>106</ele>
        <time>2021-03-27T13:07:18Z</time>
      </trkpt>
      <trkpt lat="43.67758" lon="3.88682">
        <ele>106</ele>
        <time>2021-03-27T13:07:22Z</time>
      </trkpt>
      <trkpt lat="43.67763" lon="3.88682">
        <ele>106</ele>
        <time>2021-03-27T13:07:23Z</time>
      </trkpt>
      <trkpt lat="43.67766" lon="3.88683">
        <ele>106</ele>
        <time>2021-03-27T13:07:24Z</time>
      </trkpt>
      <trkpt lat="43.6777" lon="3.88684">
        <ele>106</ele>
        <time>2021-03-27T13:07:25Z</time>
      </trkpt>
      <trkpt lat="43.67774" lon="3.88684">
        <ele>106</ele>
        <time>2021-03-27T13:07:26Z</time>
      </trkpt>
      <trkpt lat="43.67785" lon="3.88685">
        <ele>106</ele>
        <time>2021-03-27T13:07:29Z</time>
      </trkpt>
      <trkpt lat="43.67789" lon="3.88687">
        <ele>106</ele>
        <time>2021-03-27T13:07:30Z</time>
      </trkpt>
      <trkpt lat="43.67793" lon="3.8869">
        <ele>106</ele>
        <time>2021-03-27T13:07:31Z</time>
      </trkpt>
      <trkpt lat="43.67796" lon="3.88693">
        <ele>106</ele>
        <time>2021-03-27T13:07:32Z</time>
      </trkpt>
      <trkpt lat="43.67799" lon="3.88695">
        <ele>106</ele>
        <time>2021-03-27T13:07:33Z</time>
      </trkpt>
      <trkpt lat="43.67801" lon="3.88698">
        <ele>106</ele>
        <time>2021-03-27T13:07:34Z</time>
      </trkpt>
      <trkpt lat="43.67804" lon="3.887">
        <ele>105</ele>
        <time>2021-03-27T13:07:35Z</time>
      </trkpt>
      <trkpt lat="43.67806" lon="3.88703">
        <ele>105</ele>
        <time>2021-03-27T13:07:36Z</time>
      </trkpt>
      <trkpt lat="43.67807" lon="3.88708">
        <ele>105</ele>
        <time>2021-03-27T13:07:37Z</time>
      </trkpt>
      <trkpt lat="43.67807" lon="3.88713">
        <ele>105</ele>
        <time>2021-03-27T13:07:38Z</time>
      </trkpt>
      <trkpt lat="43.67807" lon="3.88717">
        <ele>105</ele>
        <time>2021-03-27T13:07:39Z</time>
      </trkpt>
      <trkpt lat="43.67806" lon="3.88723">
        <ele>105</ele>
        <time>2021-03-27T13:07:40Z</time>
      </trkpt>
      <trkpt lat="43.67805" lon="3.8873">
        <ele>105</ele>
        <time>2021-03-27T13:07:41Z</time>
      </trkpt>
      <trkpt lat="43.67803" lon="3.88735">
        <ele>105</ele>
        <time>2021-03-27T13:07:42Z</time>
      </trkpt>
      <trkpt lat="43.67801" lon="3.88743">
        <ele>105</ele>
        <time>2021-03-27T13:07:44Z</time>
      </trkpt>
      <trkpt lat="43.67801" lon="3.88748">
        <ele>105</ele>
        <time>2021-03-27T13:07:45Z</time>
      </trkpt>
      <trkpt lat="43.67802" lon="3.88753">
        <ele>105</ele>
        <time>2021-03-27T13:07:46Z</time>
      </trkpt>
      <trkpt lat="43.67802" lon="3.88756">
        <ele>105</ele>
        <time>2021-03-27T13:07:47Z</time>
      </trkpt>
      <trkpt lat="43.67802" lon="3.88761">
        <ele>105</ele>
        <time>2021-03-27T13:07:48Z</time>
      </trkpt>
      <trkpt lat="43.67801" lon="3.88765">
        <ele>105</ele>
        <time>2021-03-27T13:07:49Z</time>
      </trkpt>
      <trkpt lat="43.67801" lon="3.88771">
        <ele>105</ele>
        <time>2021-03-27T13:07:50Z</time>
      </trkpt>
      <trkpt lat="43.678" lon="3.88778">
        <ele>105</ele>
        <time>2021-03-27T13:07:51Z</time>
      </trkpt>
      <trkpt lat="43.67799" lon="3.88784">
        <ele>105</ele>
        <time>2021-03-27T13:07:52Z</time>
      </trkpt>
      <trkpt lat="43.67798" lon="3.88787">
        <ele>105</ele>
        <time>2021-03-27T13:07:53Z</time>
      </trkpt>
      <trkpt lat="43.678" lon="3.88789">
        <ele>105</ele>
        <time>2021-03-27T13:07:56Z</time>
      </trkpt>
      <trkpt lat="43.67801" lon="3.88792">
        <ele>105</ele>
        <time>2021-03-27T13:07:58Z</time>
      </trkpt>
      <trkpt lat="43.67805" lon="3.88796">
        <ele>105</ele>
        <time>2021-03-27T13:08:00Z</time>
      </trkpt>
      <trkpt lat="43.67808" lon="3.88798">
        <ele>105</ele>
        <time>2021-03-27T13:08:01Z</time>
      </trkpt>
      <trkpt lat="43.67812" lon="3.88798">
        <ele>105</ele>
        <time>2021-03-27T13:08:02Z</time>
      </trkpt>
      <trkpt lat="43.67816" lon="3.88798">
        <ele>105</ele>
        <time>2021-03-27T13:08:03Z</time>
      </trkpt>
      <trkpt lat="43.67819" lon="3.88797">
        <ele>103</ele>
        <time>2021-03-27T13:08:05Z</time>
      </trkpt>
      <trkpt lat="43.67822" lon="3.88796">
        <ele>103</ele>
        <time>2021-03-27T13:08:06Z</time>
      </trkpt>
      <trkpt lat="43.67824" lon="3.88794">
        <ele>103</ele>
        <time>2021-03-27T13:08:07Z</time>
      </trkpt>
      <trkpt lat="43.67828" lon="3.88792">
        <ele>103</ele>
        <time>2021-03-27T13:08:08Z</time>
      </trkpt>
      <trkpt lat="43.67832" lon="3.88791">
        <ele>103</ele>
        <time>2021-03-27T13:08:09Z</time>
      </trkpt>
      <trkpt lat="43.67836" lon="3.88789">
        <ele>103</ele>
        <time>2021-03-27T13:08:10Z</time>
      </trkpt>
      <trkpt lat="43.67841" lon="3.88789">
        <ele>103</ele>
        <time>2021-03-27T13:08:11Z</time>
      </trkpt>
      <trkpt lat="43.67845" lon="3.8879">
        <ele>103</ele>
        <time>2021-03-27T13:08:12Z</time>
      </trkpt>
      <trkpt lat="43.67854" lon="3.88793">
        <ele>101</ele>
        <time>2021-03-27T13:08:14Z</time>
      </trkpt>
      <trkpt lat="43.67859" lon="3.88795">
        <ele>101</ele>
        <time>2021-03-27T13:08:15Z</time>
      </trkpt>
      <trkpt lat="43.6787" lon="3.88795">
        <ele>101</ele>
        <time>2021-03-27T13:08:17Z</time>
      </trkpt>
      <trkpt lat="43.67879" lon="3.88789">
        <ele>101</ele>
        <time>2021-03-27T13:08:19Z</time>
      </trkpt>
      <trkpt lat="43.67889" lon="3.88793">
        <ele>101</ele>
        <time>2021-03-27T13:08:22Z</time>
      </trkpt>
      <trkpt lat="43.67891" lon="3.88802">
        <ele>99</ele>
        <time>2021-03-27T13:08:24Z</time>
      </trkpt>
      <trkpt lat="43.6789" lon="3.88805">
        <ele>99</ele>
        <time>2021-03-27T13:08:25Z</time>
      </trkpt>
      <trkpt lat="43.67888" lon="3.88808">
        <ele>99</ele>
        <time>2021-03-27T13:08:26Z</time>
      </trkpt>
      <trkpt lat="43.67888" lon="3.88811">
        <ele>99</ele>
        <time>2021-03-27T13:08:27Z</time>
      </trkpt>
      <trkpt lat="43.67888" lon="3.88814">
        <ele>99</ele>
        <time>2021-03-27T13:08:28Z</time>
      </trkpt>
      <trkpt lat="43.67888" lon="3.88818">
        <ele>99</ele>
        <time>2021-03-27T13:08:30Z</time>
      </trkpt>
      <trkpt lat="43.67888" lon="3.88821">
        <ele>99</ele>
        <time>2021-03-27T13:08:31Z</time>
      </trkpt>
      <trkpt lat="43.67887" lon="3.88823">
        <ele>99</ele>
        <time>2021-03-27T13:08:32Z</time>
      </trkpt>
      <trkpt lat="43.67885" lon="3.88825">
        <ele>99</ele>
        <time>2021-03-27T13:08:33Z</time>
      </trkpt>
      <trkpt lat="43.67883" lon="3.88826">
        <ele>99</ele>
        <time>2021-03-27T13:08:35Z</time>
      </trkpt>
      <trkpt lat="43.6788" lon="3.88826">
        <ele>99</ele>
        <time>2021-03-27T13:08:36Z</time>
      </trkpt>
      <trkpt lat="43.67878" lon="3.88826">
        <ele>99</ele>
        <time>2021-03-27T13:08:37Z</time>
      </trkpt>
      <trkpt lat="43.67875" lon="3.88826">
        <ele>99</ele>
        <time>2021-03-27T13:08:38Z</time>
      </trkpt>
      <trkpt lat="43.67872" lon="3.88827">
        <ele>99</ele>
        <time>2021-03-27T13:08:39Z</time>
      </trkpt>
      <trkpt lat="43.67869" lon="3.88826">
        <ele>99</ele>
        <time>2021-03-27T13:08:41Z</time>
      </trkpt>
      <trkpt lat="43.67866" lon="3.88825">
        <ele>99</ele>
        <time>2021-03-27T13:08:42Z</time>
      </trkpt>
      <trkpt lat="43.67864" lon="3.88826">
        <ele>99</ele>
        <time>2021-03-27T13:08:43Z</time>
      </trkpt>
      <trkpt lat="43.67859" lon="3.88828">
        <ele>97</ele>
        <time>2021-03-27T13:08:45Z</time>
      </trkpt>
      <trkpt lat="43.67855" lon="3.88828">
        <ele>97</ele>
        <time>2021-03-27T13:08:47Z</time>
      </trkpt>
      <trkpt lat="43.67852" lon="3.88828">
        <ele>97</ele>
        <time>2021-03-27T13:08:48Z</time>
      </trkpt>
      <trkpt lat="43.67848" lon="3.88828">
        <ele>97</ele>
        <time>2021-03-27T13:08:49Z</time>
      </trkpt>
      <trkpt lat="43.67844" lon="3.88828">
        <ele>97</ele>
        <time>2021-03-27T13:08:50Z</time>
      </trkpt>
      <trkpt lat="43.6784" lon="3.88827">
        <ele>97</ele>
        <time>2021-03-27T13:08:51Z</time>
      </trkpt>
      <trkpt lat="43.67836" lon="3.88826">
        <ele>97</ele>
        <time>2021-03-27T13:08:52Z</time>
      </trkpt>
      <trkpt lat="43.67831" lon="3.88825">
        <ele>97</ele>
        <time>2021-03-27T13:08:53Z</time>
      </trkpt>
      <trkpt lat="43.67819" lon="3.8883">
        <ele>97</ele>
        <time>2021-03-27T13:08:56Z</time>
      </trkpt>
      <trkpt lat="43.6781" lon="3.88836">
        <ele>97</ele>
        <time>2021-03-27T13:08:59Z</time>
      </trkpt>
      <trkpt lat="43.67802" lon="3.88843">
        <ele>97</ele>
        <time>2021-03-27T13:09:01Z</time>
      </trkpt>
      <trkpt lat="43.67791" lon="3.88846">
        <ele>97</ele>
        <time>2021-03-27T13:09:03Z</time>
      </trkpt>
      <trkpt lat="43.6778" lon="3.88847">
        <ele>95</ele>
        <time>2021-03-27T13:09:04Z</time>
      </trkpt>
      <trkpt lat="43.67768" lon="3.88843">
        <ele>95</ele>
        <time>2021-03-27T13:09:07Z</time>
      </trkpt>
      <trkpt lat="43.67756" lon="3.88838">
        <ele>95</ele>
        <time>2021-03-27T13:09:10Z</time>
      </trkpt>
      <trkpt lat="43.67744" lon="3.88837">
        <ele>95</ele>
        <time>2021-03-27T13:09:13Z</time>
      </trkpt>
      <trkpt lat="43.67733" lon="3.88842">
        <ele>95</ele>
        <time>2021-03-27T13:09:16Z</time>
      </trkpt>
      <trkpt lat="43.6772" lon="3.88845">
        <ele>95</ele>
        <time>2021-03-27T13:09:18Z</time>
      </trkpt>
      <trkpt lat="43.6771" lon="3.88841">
        <ele>95</ele>
        <time>2021-03-27T13:09:20Z</time>
      </trkpt>
      <trkpt lat="43.677" lon="3.88836">
        <ele>95</ele>
        <time>2021-03-27T13:09:23Z</time>
      </trkpt>
      <trkpt lat="43.67688" lon="3.8883">
        <ele>95</ele>
        <time>2021-03-27T13:09:26Z</time>
      </trkpt>
      <trkpt lat="43.67677" lon="3.88834">
        <ele>95</ele>
        <time>2021-03-27T13:09:31Z</time>
      </trkpt>
      <trkpt lat="43.67667" lon="3.88834">
        <ele>92</ele>
        <time>2021-03-27T13:09:35Z</time>
      </trkpt>
      <trkpt lat="43.67657" lon="3.88841">
        <ele>92</ele>
        <time>2021-03-27T13:09:37Z</time>
      </trkpt>
      <trkpt lat="43.67645" lon="3.88851">
        <ele>92</ele>
        <time>2021-03-27T13:09:39Z</time>
      </trkpt>
      <trkpt lat="43.6764" lon="3.88855">
        <ele>92</ele>
        <time>2021-03-27T13:09:40Z</time>
      </trkpt>
      <trkpt lat="43.67636" lon="3.88859">
        <ele>92</ele>
        <time>2021-03-27T13:09:41Z</time>
      </trkpt>
      <trkpt lat="43.67632" lon="3.88865">
        <ele>92</ele>
        <time>2021-03-27T13:09:43Z</time>
      </trkpt>
      <trkpt lat="43.67628" lon="3.88871">
        <ele>92</ele>
        <time>2021-03-27T13:09:44Z</time>
      </trkpt>
      <trkpt lat="43.67626" lon="3.88883">
        <ele>90</ele>
        <time>2021-03-27T13:09:45Z</time>
      </trkpt>
      <trkpt lat="43.67625" lon="3.88889">
        <ele>90</ele>
        <time>2021-03-27T13:09:46Z</time>
      </trkpt>
      <trkpt lat="43.67622" lon="3.88893">
        <ele>90</ele>
        <time>2021-03-27T13:09:48Z</time>
      </trkpt>
      <trkpt lat="43.67619" lon="3.88896">
        <ele>90</ele>
        <time>2021-03-27T13:09:49Z</time>
      </trkpt>
      <trkpt lat="43.67617" lon="3.88899">
        <ele>90</ele>
        <time>2021-03-27T13:09:50Z</time>
      </trkpt>
      <trkpt lat="43.67615" lon="3.88903">
        <ele>90</ele>
        <time>2021-03-27T13:09:51Z</time>
      </trkpt>
      <trkpt lat="43.67612" lon="3.88906">
        <ele>90</ele>
        <time>2021-03-27T13:09:52Z</time>
      </trkpt>
      <trkpt lat="43.67604" lon="3.88908">
        <ele>86</ele>
        <time>2021-03-27T13:09:54Z</time>
      </trkpt>
      <trkpt lat="43.676" lon="3.88907">
        <ele>86</ele>
        <time>2021-03-27T13:09:55Z</time>
      </trkpt>
      <trkpt lat="43.67597" lon="3.88907">
        <ele>86</ele>
        <time>2021-03-27T13:09:56Z</time>
      </trkpt>
      <trkpt lat="43.67594" lon="3.88907">
        <ele>86</ele>
        <time>2021-03-27T13:09:57Z</time>
      </trkpt>
      <trkpt lat="43.67591" lon="3.88908">
        <ele>86</ele>
        <time>2021-03-27T13:09:58Z</time>
      </trkpt>
      <trkpt lat="43.67588" lon="3.88908">
        <ele>86</ele>
        <time>2021-03-27T13:09:59Z</time>
      </trkpt>
      <trkpt lat="43.67585" lon="3.88908">
        <ele>86</ele>
        <time>2021-03-27T13:10:00Z</time>
      </trkpt>
      <trkpt lat="43.67582" lon="3.88908">
        <ele>86</ele>
        <time>2021-03-27T13:10:01Z</time>
      </trkpt>
      <trkpt lat="43.67579" lon="3.88908">
        <ele>86</ele>
        <time>2021-03-27T13:10:02Z</time>
      </trkpt>
      <trkpt lat="43.67575" lon="3.88909">
        <ele>86</ele>
        <time>2021-03-27T13:10:03Z</time>
      </trkpt>
      <trkpt lat="43.67572" lon="3.8891">
        <ele>83</ele>
        <time>2021-03-27T13:10:04Z</time>
      </trkpt>
      <trkpt lat="43.67569" lon="3.88911">
        <ele>83</ele>
        <time>2021-03-27T13:10:05Z</time>
      </trkpt>
      <trkpt lat="43.67567" lon="3.88913">
        <ele>83</ele>
        <time>2021-03-27T13:10:06Z</time>
      </trkpt>
      <trkpt lat="43.67564" lon="3.88914">
        <ele>83</ele>
        <time>2021-03-27T13:10:07Z</time>
      </trkpt>
      <trkpt lat="43.6756" lon="3.88915">
        <ele>83</ele>
        <time>2021-03-27T13:10:08Z</time>
      </trkpt>
      <trkpt lat="43.67558" lon="3.88916">
        <ele>83</ele>
        <time>2021-03-27T13:10:09Z</time>
      </trkpt>
      <trkpt lat="43.67555" lon="3.88916">
        <ele>83</ele>
        <time>2021-03-27T13:10:10Z</time>
      </trkpt>
      <trkpt lat="43.67553" lon="3.88918">
        <ele>83</ele>
        <time>2021-03-27T13:10:11Z</time>
      </trkpt>
      <trkpt lat="43.67551" lon="3.88919">
        <ele>83</ele>
        <time>2021-03-27T13:10:12Z</time>
      </trkpt>
      <trkpt lat="43.67549" lon="3.88921">
        <ele>83</ele>
        <time>2021-03-27T13:10:13Z</time>
      </trkpt>
      <trkpt lat="43.67547" lon="3.88924">
        <ele>83</ele>
        <time>2021-03-27T13:10:14Z</time>
      </trkpt>
      <trkpt lat="43.67544" lon="3.88931">
        <ele>82</ele>
        <time>2021-03-27T13:10:15Z</time>
      </trkpt>
      <trkpt lat="43.67543" lon="3.88936">
        <ele>82</ele>
        <time>2021-03-27T13:10:17Z</time>
      </trkpt>
      <trkpt lat="43.67541" lon="3.8894">
        <ele>82</ele>
        <time>2021-03-27T13:10:18Z</time>
      </trkpt>
      <trkpt lat="43.6754" lon="3.88945">
        <ele>82</ele>
        <time>2021-03-27T13:10:19Z</time>
      </trkpt>
      <trkpt lat="43.67538" lon="3.88949">
        <ele>82</ele>
        <time>2021-03-27T13:10:20Z</time>
      </trkpt>
      <trkpt lat="43.67537" lon="3.88952">
        <ele>82</ele>
        <time>2021-03-27T13:10:21Z</time>
      </trkpt>
      <trkpt lat="43.67536" lon="3.88956">
        <ele>82</ele>
        <time>2021-03-27T13:10:22Z</time>
      </trkpt>
      <trkpt lat="43.67534" lon="3.8896">
        <ele>82</ele>
        <time>2021-03-27T13:10:23Z</time>
      </trkpt>
      <trkpt lat="43.67533" lon="3.88964">
        <ele>81</ele>
        <time>2021-03-27T13:10:24Z</time>
      </trkpt>
      <trkpt lat="43.67531" lon="3.88967">
        <ele>81</ele>
        <time>2021-03-27T13:10:25Z</time>
      </trkpt>
      <trkpt lat="43.67529" lon="3.88971">
        <ele>81</ele>
        <time>2021-03-27T13:10:26Z</time>
      </trkpt>
      <trkpt lat="43.67528" lon="3.88974">
        <ele>81</ele>
        <time>2021-03-27T13:10:27Z</time>
      </trkpt>
      <trkpt lat="43.67527" lon="3.88977">
        <ele>81</ele>
        <time>2021-03-27T13:10:28Z</time>
      </trkpt>
      <trkpt lat="43.67526" lon="3.88981">
        <ele>81</ele>
        <time>2021-03-27T13:10:29Z</time>
      </trkpt>
      <trkpt lat="43.67524" lon="3.88983">
        <ele>81</ele>
        <time>2021-03-27T13:10:30Z</time>
      </trkpt>
      <trkpt lat="43.67522" lon="3.88986">
        <ele>81</ele>
        <time>2021-03-27T13:10:31Z</time>
      </trkpt>
      <trkpt lat="43.67521" lon="3.88988">
        <ele>81</ele>
        <time>2021-03-27T13:10:32Z</time>
      </trkpt>
      <trkpt lat="43.6752" lon="3.88992">
        <ele>81</ele>
        <time>2021-03-27T13:10:34Z</time>
      </trkpt>
      <trkpt lat="43.67519" lon="3.88995">
        <ele>81</ele>
        <time>2021-03-27T13:10:35Z</time>
      </trkpt>
      <trkpt lat="43.67518" lon="3.88998">
        <ele>81</ele>
        <time>2021-03-27T13:10:36Z</time>
      </trkpt>
      <trkpt lat="43.67517" lon="3.89001">
        <ele>81</ele>
        <time>2021-03-27T13:10:37Z</time>
      </trkpt>
      <trkpt lat="43.67516" lon="3.89004">
        <ele>81</ele>
        <time>2021-03-27T13:10:38Z</time>
      </trkpt>
      <trkpt lat="43.67516" lon="3.89009">
        <ele>81</ele>
        <time>2021-03-27T13:10:39Z</time>
      </trkpt>
      <trkpt lat="43.67515" lon="3.89013">
        <ele>81</ele>
        <time>2021-03-27T13:10:40Z</time>
      </trkpt>
      <trkpt lat="43.67515" lon="3.89018">
        <ele>81</ele>
        <time>2021-03-27T13:10:41Z</time>
      </trkpt>
      <trkpt lat="43.67514" lon="3.89023">
        <ele>81</ele>
        <time>2021-03-27T13:10:42Z</time>
      </trkpt>
      <trkpt lat="43.67514" lon="3.89028">
        <ele>81</ele>
        <time>2021-03-27T13:10:43Z</time>
      </trkpt>
      <trkpt lat="43.67515" lon="3.89033">
        <ele>81</ele>
        <time>2021-03-27T13:10:44Z</time>
      </trkpt>
      <trkpt lat="43.67516" lon="3.89038">
        <ele>80</ele>
        <time>2021-03-27T13:10:45Z</time>
      </trkpt>
      <trkpt lat="43.67517" lon="3.89044">
        <ele>80</ele>
        <time>2021-03-27T13:10:46Z</time>
      </trkpt>
      <trkpt lat="43.67518" lon="3.8905">
        <ele>80</ele>
        <time>2021-03-27T13:10:47Z</time>
      </trkpt>
      <trkpt lat="43.67518" lon="3.89056">
        <ele>80</ele>
        <time>2021-03-27T13:10:48Z</time>
      </trkpt>
      <trkpt lat="43.67519" lon="3.89061">
        <ele>80</ele>
        <time>2021-03-27T13:10:49Z</time>
      </trkpt>
      <trkpt lat="43.6752" lon="3.89067">
        <ele>80</ele>
        <time>2021-03-27T13:10:50Z</time>
      </trkpt>
      <trkpt lat="43.67521" lon="3.89073">
        <ele>80</ele>
        <time>2021-03-27T13:10:51Z</time>
      </trkpt>
      <trkpt lat="43.67522" lon="3.89078">
        <ele>80</ele>
        <time>2021-03-27T13:10:52Z</time>
      </trkpt>
      <trkpt lat="43.67522" lon="3.89084">
        <ele>80</ele>
        <time>2021-03-27T13:10:53Z</time>
      </trkpt>
      <trkpt lat="43.67523" lon="3.8909">
        <ele>79</ele>
        <time>2021-03-27T13:10:54Z</time>
      </trkpt>
      <trkpt lat="43.67523" lon="3.89096">
        <ele>79</ele>
        <time>2021-03-27T13:10:55Z</time>
      </trkpt>
      <trkpt lat="43.67524" lon="3.89102">
        <ele>79</ele>
        <time>2021-03-27T13:10:56Z</time>
      </trkpt>
      <trkpt lat="43.67524" lon="3.89108">
        <ele>79</ele>
        <time>2021-03-27T13:10:57Z</time>
      </trkpt>
      <trkpt lat="43.67525" lon="3.89114">
        <ele>79</ele>
        <time>2021-03-27T13:10:58Z</time>
      </trkpt>
      <trkpt lat="43.67525" lon="3.89119">
        <ele>79</ele>
        <time>2021-03-27T13:10:59Z</time>
      </trkpt>
      <trkpt lat="43.67525" lon="3.89125">
        <ele>79</ele>
        <time>2021-03-27T13:11:00Z</time>
      </trkpt>
      <trkpt lat="43.67524" lon="3.89131">
        <ele>79</ele>
        <time>2021-03-27T13:11:01Z</time>
      </trkpt>
      <trkpt lat="43.67523" lon="3.89136">
        <ele>79</ele>
        <time>2021-03-27T13:11:02Z</time>
      </trkpt>
      <trkpt lat="43.67521" lon="3.89142">
        <ele>79</ele>
        <time>2021-03-27T13:11:03Z</time>
      </trkpt>
      <trkpt lat="43.6752" lon="3.89147">
        <ele>79</ele>
        <time>2021-03-27T13:11:04Z</time>
      </trkpt>
      <trkpt lat="43.67519" lon="3.89153">
        <ele>78</ele>
        <time>2021-03-27T13:11:05Z</time>
      </trkpt>
      <trkpt lat="43.67518" lon="3.89158">
        <ele>78</ele>
        <time>2021-03-27T13:11:06Z</time>
      </trkpt>
      <trkpt lat="43.67518" lon="3.89163">
        <ele>78</ele>
        <time>2021-03-27T13:11:07Z</time>
      </trkpt>
      <trkpt lat="43.67517" lon="3.89169">
        <ele>78</ele>
        <time>2021-03-27T13:11:08Z</time>
      </trkpt>
      <trkpt lat="43.67517" lon="3.89174">
        <ele>78</ele>
        <time>2021-03-27T13:11:09Z</time>
      </trkpt>
      <trkpt lat="43.67517" lon="3.89179">
        <ele>78</ele>
        <time>2021-03-27T13:11:10Z</time>
      </trkpt>
      <trkpt lat="43.67517" lon="3.89184">
        <ele>78</ele>
        <time>2021-03-27T13:11:11Z</time>
      </trkpt>
      <trkpt lat="43.67517" lon="3.89189">
        <ele>78</ele>
        <time>2021-03-27T13:11:12Z</time>
      </trkpt>
      <trkpt lat="43.67517" lon="3.89194">
        <ele>78</ele>
        <time>2021-03-27T13:11:13Z</time>
      </trkpt>
      <trkpt lat="43.67517" lon="3.892">
        <ele>78</ele>
        <time>2021-03-27T13:11:14Z</time>
      </trkpt>
      <trkpt lat="43.67517" lon="3.89205">
        <ele>79</ele>
        <time>2021-03-27T13:11:15Z</time>
      </trkpt>
      <trkpt lat="43.67517" lon="3.89211">
        <ele>79</ele>
        <time>2021-03-27T13:11:16Z</time>
      </trkpt>
      <trkpt lat="43.67516" lon="3.89216">
        <ele>79</ele>
        <time>2021-03-27T13:11:17Z</time>
      </trkpt>
      <trkpt lat="43.67516" lon="3.89222">
        <ele>79</ele>
        <time>2021-03-27T13:11:18Z</time>
      </trkpt>
      <trkpt lat="43.67516" lon="3.89228">
        <ele>79</ele>
        <time>2021-03-27T13:11:19Z</time>
      </trkpt>
      <trkpt lat="43.67516" lon="3.89234">
        <ele>79</ele>
        <time>2021-03-27T13:11:20Z</time>
      </trkpt>
      <trkpt lat="43.67515" lon="3.8924">
        <ele>79</ele>
        <time>2021-03-27T13:11:21Z</time>
      </trkpt>
      <trkpt lat="43.67515" lon="3.89246">
        <ele>79</ele>
        <time>2021-03-27T13:11:22Z</time>
      </trkpt>
      <trkpt lat="43.67515" lon="3.89253">
        <ele>79</ele>
        <time>2021-03-27T13:11:23Z</time>
      </trkpt>
      <trkpt lat="43.67515" lon="3.89259">
        <ele>79</ele>
        <time>2021-03-27T13:11:24Z</time>
      </trkpt>
      <trkpt lat="43.67515" lon="3.89265">
        <ele>78</ele>
        <time>2021-03-27T13:11:25Z</time>
      </trkpt>
      <trkpt lat="43.67515" lon="3.89272">
        <ele>78</ele>
        <time>2021-03-27T13:11:26Z</time>
      </trkpt>
      <trkpt lat="43.67514" lon="3.89278">
        <ele>78</ele>
        <time>2021-03-27T13:11:27Z</time>
      </trkpt>
      <trkpt lat="43.67514" lon="3.89285">
        <ele>78</ele>
        <time>2021-03-27T13:11:28Z</time>
      </trkpt>
      <trkpt lat="43.67513" lon="3.89291">
        <ele>78</ele>
        <time>2021-03-27T13:11:29Z</time>
      </trkpt>
      <trkpt lat="43.67514" lon="3.89298">
        <ele>78</ele>
        <time>2021-03-27T13:11:30Z</time>
      </trkpt>
      <trkpt lat="43.67514" lon="3.89304">
        <ele>78</ele>
        <time>2021-03-27T13:11:31Z</time>
      </trkpt>
      <trkpt lat="43.67516" lon="3.8931">
        <ele>78</ele>
        <time>2021-03-27T13:11:32Z</time>
      </trkpt>
      <trkpt lat="43.67517" lon="3.89315">
        <ele>78</ele>
        <time>2021-03-27T13:11:33Z</time>
      </trkpt>
      <trkpt lat="43.67518" lon="3.89321">
        <ele>78</ele>
        <time>2021-03-27T13:11:34Z</time>
      </trkpt>
      <trkpt lat="43.67519" lon="3.89327">
        <ele>77</ele>
        <time>2021-03-27T13:11:35Z</time>
      </trkpt>
      <trkpt lat="43.67519" lon="3.89333">
        <ele>77</ele>
        <time>2021-03-27T13:11:36Z</time>
      </trkpt>
      <trkpt lat="43.6752" lon="3.89339">
        <ele>77</ele>
        <time>2021-03-27T13:11:37Z</time>
      </trkpt>
      <trkpt lat="43.67521" lon="3.89345">
        <ele>77</ele>
        <time>2021-03-27T13:11:38Z</time>
      </trkpt>
      <trkpt lat="43.67521" lon="3.89351">
        <ele>77</ele>
        <time>2021-03-27T13:11:39Z</time>
      </trkpt>
      <trkpt lat="43.67522" lon="3.89357">
        <ele>77</ele>
        <time>2021-03-27T13:11:40Z</time>
      </trkpt>
      <trkpt lat="43.67523" lon="3.89364">
        <ele>77</ele>
        <time>2021-03-27T13:11:41Z</time>
      </trkpt>
      <trkpt lat="43.67523" lon="3.8937">
        <ele>77</ele>
        <time>2021-03-27T13:11:42Z</time>
      </trkpt>
      <trkpt lat="43.67524" lon="3.89376">
        <ele>77</ele>
        <time>2021-03-27T13:11:43Z</time>
      </trkpt>
      <trkpt lat="43.67525" lon="3.89381">
        <ele>76</ele>
        <time>2021-03-27T13:11:44Z</time>
      </trkpt>
      <trkpt lat="43.67526" lon="3.89387">
        <ele>76</ele>
        <time>2021-03-27T13:11:45Z</time>
      </trkpt>
      <trkpt lat="43.67526" lon="3.89393">
        <ele>76</ele>
        <time>2021-03-27T13:11:46Z</time>
      </trkpt>
      <trkpt lat="43.67527" lon="3.89398">
        <ele>76</ele>
        <time>2021-03-27T13:11:47Z</time>
      </trkpt>
      <trkpt lat="43.67528" lon="3.89404">
        <ele>76</ele>
        <time>2021-03-27T13:11:48Z</time>
      </trkpt>
      <trkpt lat="43.67528" lon="3.8941">
        <ele>76</ele>
        <time>2021-03-27T13:11:49Z</time>
      </trkpt>
      <trkpt lat="43.67528" lon="3.89417">
        <ele>76</ele>
        <time>2021-03-27T13:11:50Z</time>
      </trkpt>
      <trkpt lat="43.67529" lon="3.89423">
        <ele>76</ele>
        <time>2021-03-27T13:11:51Z</time>
      </trkpt>
      <trkpt lat="43.6753" lon="3.89431">
        <ele>76</ele>
        <time>2021-03-27T13:11:52Z</time>
      </trkpt>
      <trkpt lat="43.6753" lon="3.89438">
        <ele>76</ele>
        <time>2021-03-27T13:11:53Z</time>
      </trkpt>
      <trkpt lat="43.67531" lon="3.89446">
        <ele>76</ele>
        <time>2021-03-27T13:11:54Z</time>
      </trkpt>
      <trkpt lat="43.67532" lon="3.89454">
        <ele>75</ele>
        <time>2021-03-27T13:11:55Z</time>
      </trkpt>
      <trkpt lat="43.67533" lon="3.89462">
        <ele>75</ele>
        <time>2021-03-27T13:11:56Z</time>
      </trkpt>
      <trkpt lat="43.67533" lon="3.89469">
        <ele>75</ele>
        <time>2021-03-27T13:11:57Z</time>
      </trkpt>
      <trkpt lat="43.67534" lon="3.89477">
        <ele>75</ele>
        <time>2021-03-27T13:11:58Z</time>
      </trkpt>
      <trkpt lat="43.67535" lon="3.89484">
        <ele>75</ele>
        <time>2021-03-27T13:11:59Z</time>
      </trkpt>
      <trkpt lat="43.67536" lon="3.89491">
        <ele>75</ele>
        <time>2021-03-27T13:12:00Z</time>
      </trkpt>
      <trkpt lat="43.67538" lon="3.89498">
        <ele>75</ele>
        <time>2021-03-27T13:12:01Z</time>
      </trkpt>
      <trkpt lat="43.67539" lon="3.89505">
        <ele>75</ele>
        <time>2021-03-27T13:12:02Z</time>
      </trkpt>
      <trkpt lat="43.6754" lon="3.89512">
        <ele>75</ele>
        <time>2021-03-27T13:12:03Z</time>
      </trkpt>
      <trkpt lat="43.67541" lon="3.89519">
        <ele>75</ele>
        <time>2021-03-27T13:12:04Z</time>
      </trkpt>
      <trkpt lat="43.67542" lon="3.89525">
        <ele>73</ele>
        <time>2021-03-27T13:12:05Z</time>
      </trkpt>
      <trkpt lat="43.67542" lon="3.89532">
        <ele>73</ele>
        <time>2021-03-27T13:12:06Z</time>
      </trkpt>
      <trkpt lat="43.67542" lon="3.89539">
        <ele>73</ele>
        <time>2021-03-27T13:12:07Z</time>
      </trkpt>
      <trkpt lat="43.67542" lon="3.89545">
        <ele>73</ele>
        <time>2021-03-27T13:12:08Z</time>
      </trkpt>
      <trkpt lat="43.67543" lon="3.89552">
        <ele>73</ele>
        <time>2021-03-27T13:12:09Z</time>
      </trkpt>
      <trkpt lat="43.67543" lon="3.89558">
        <ele>73</ele>
        <time>2021-03-27T13:12:10Z</time>
      </trkpt>
      <trkpt lat="43.67543" lon="3.89565">
        <ele>73</ele>
        <time>2021-03-27T13:12:11Z</time>
      </trkpt>
      <trkpt lat="43.67544" lon="3.89572">
        <ele>73</ele>
        <time>2021-03-27T13:12:12Z</time>
      </trkpt>
      <trkpt lat="43.67544" lon="3.89578">
        <ele>73</ele>
        <time>2021-03-27T13:12:13Z</time>
      </trkpt>
      <trkpt lat="43.67544" lon="3.89584">
        <ele>73</ele>
        <time>2021-03-27T13:12:14Z</time>
      </trkpt>
      <trkpt lat="43.67545" lon="3.8959">
        <ele>72</ele>
        <time>2021-03-27T13:12:15Z</time>
      </trkpt>
      <trkpt lat="43.67545" lon="3.89595">
        <ele>72</ele>
        <time>2021-03-27T13:12:16Z</time>
      </trkpt>
      <trkpt lat="43.67546" lon="3.89601">
        <ele>72</ele>
        <time>2021-03-27T13:12:17Z</time>
      </trkpt>
      <trkpt lat="43.67547" lon="3.89607">
        <ele>72</ele>
        <time>2021-03-27T13:12:18Z</time>
      </trkpt>
      <trkpt lat="43.67547" lon="3.89613">
        <ele>72</ele>
        <time>2021-03-27T13:12:19Z</time>
      </trkpt>
      <trkpt lat="43.67547" lon="3.89619">
        <ele>72</ele>
        <time>2021-03-27T13:12:20Z</time>
      </trkpt>
      <trkpt lat="43.67547" lon="3.89625">
        <ele>72</ele>
        <time>2021-03-27T13:12:21Z</time>
      </trkpt>
      <trkpt lat="43.67547" lon="3.8963">
        <ele>72</ele>
        <time>2021-03-27T13:12:22Z</time>
      </trkpt>
      <trkpt lat="43.67547" lon="3.89636">
        <ele>72</ele>
        <time>2021-03-27T13:12:23Z</time>
      </trkpt>
      <trkpt lat="43.67547" lon="3.89641">
        <ele>72</ele>
        <time>2021-03-27T13:12:24Z</time>
      </trkpt>
      <trkpt lat="43.67547" lon="3.89647">
        <ele>72</ele>
        <time>2021-03-27T13:12:25Z</time>
      </trkpt>
      <trkpt lat="43.67547" lon="3.89653">
        <ele>72</ele>
        <time>2021-03-27T13:12:26Z</time>
      </trkpt>
      <trkpt lat="43.67548" lon="3.89658">
        <ele>72</ele>
        <time>2021-03-27T13:12:27Z</time>
      </trkpt>
      <trkpt lat="43.67548" lon="3.89664">
        <ele>72</ele>
        <time>2021-03-27T13:12:28Z</time>
      </trkpt>
      <trkpt lat="43.67548" lon="3.8967">
        <ele>72</ele>
        <time>2021-03-27T13:12:29Z</time>
      </trkpt>
      <trkpt lat="43.67548" lon="3.89675">
        <ele>72</ele>
        <time>2021-03-27T13:12:30Z</time>
      </trkpt>
      <trkpt lat="43.67548" lon="3.89681">
        <ele>72</ele>
        <time>2021-03-27T13:12:31Z</time>
      </trkpt>
      <trkpt lat="43.67548" lon="3.89685">
        <ele>72</ele>
        <time>2021-03-27T13:12:32Z</time>
      </trkpt>
      <trkpt lat="43.67549" lon="3.8969">
        <ele>72</ele>
        <time>2021-03-27T13:12:33Z</time>
      </trkpt>
      <trkpt lat="43.67549" lon="3.89695">
        <ele>72</ele>
        <time>2021-03-27T13:12:34Z</time>
      </trkpt>
      <trkpt lat="43.6755" lon="3.897">
        <ele>72</ele>
        <time>2021-03-27T13:12:35Z</time>
      </trkpt>
      <trkpt lat="43.6755" lon="3.89705">
        <ele>72</ele>
        <time>2021-03-27T13:12:36Z</time>
      </trkpt>
      <trkpt lat="43.6755" lon="3.89709">
        <ele>72</ele>
        <time>2021-03-27T13:12:37Z</time>
      </trkpt>
      <trkpt lat="43.67551" lon="3.89714">
        <ele>72</ele>
        <time>2021-03-27T13:12:38Z</time>
      </trkpt>
      <trkpt lat="43.67551" lon="3.8972">
        <ele>72</ele>
        <time>2021-03-27T13:12:39Z</time>
      </trkpt>
      <trkpt lat="43.67551" lon="3.89725">
        <ele>72</ele>
        <time>2021-03-27T13:12:40Z</time>
      </trkpt>
      <trkpt lat="43.67552" lon="3.8973">
        <ele>72</ele>
        <time>2021-03-27T13:12:41Z</time>
      </trkpt>
      <trkpt lat="43.67553" lon="3.89735">
        <ele>72</ele>
        <time>2021-03-27T13:12:42Z</time>
      </trkpt>
      <trkpt lat="43.67553" lon="3.89741">
        <ele>72</ele>
        <time>2021-03-27T13:12:43Z</time>
      </trkpt>
      <trkpt lat="43.67554" lon="3.89747">
        <ele>72</ele>
        <time>2021-03-27T13:12:44Z</time>
      </trkpt>
      <trkpt lat="43.67556" lon="3.89758">
        <ele>72</ele>
        <time>2021-03-27T13:12:45Z</time>
      </trkpt>
      <trkpt lat="43.67557" lon="3.89763">
        <ele>72</ele>
        <time>2021-03-27T13:12:46Z</time>
      </trkpt>
      <trkpt lat="43.67559" lon="3.89768">
        <ele>72</ele>
        <time>2021-03-27T13:12:47Z</time>
      </trkpt>
      <trkpt lat="43.67561" lon="3.89773">
        <ele>72</ele>
        <time>2021-03-27T13:12:48Z</time>
      </trkpt>
      <trkpt lat="43.67563" lon="3.89778">
        <ele>72</ele>
        <time>2021-03-27T13:12:49Z</time>
      </trkpt>
      <trkpt lat="43.67565" lon="3.89783">
        <ele>72</ele>
        <time>2021-03-27T13:12:50Z</time>
      </trkpt>
      <trkpt lat="43.6757" lon="3.89793">
        <ele>72</ele>
        <time>2021-03-27T13:12:52Z</time>
      </trkpt>
      <trkpt lat="43.67572" lon="3.89798">
        <ele>72</ele>
        <time>2021-03-27T13:12:53Z</time>
      </trkpt>
      <trkpt lat="43.67574" lon="3.89803">
        <ele>71</ele>
        <time>2021-03-27T13:12:55Z</time>
      </trkpt>
      <trkpt lat="43.67576" lon="3.89808">
        <ele>71</ele>
        <time>2021-03-27T13:12:56Z</time>
      </trkpt>
      <trkpt lat="43.67578" lon="3.89813">
        <ele>71</ele>
        <time>2021-03-27T13:12:57Z</time>
      </trkpt>
      <trkpt lat="43.6758" lon="3.89818">
        <ele>71</ele>
        <time>2021-03-27T13:12:58Z</time>
      </trkpt>
      <trkpt lat="43.67582" lon="3.89823">
        <ele>71</ele>
        <time>2021-03-27T13:12:59Z</time>
      </trkpt>
      <trkpt lat="43.67584" lon="3.89828">
        <ele>71</ele>
        <time>2021-03-27T13:13:00Z</time>
      </trkpt>
      <trkpt lat="43.67585" lon="3.89833">
        <ele>71</ele>
        <time>2021-03-27T13:13:01Z</time>
      </trkpt>
      <trkpt lat="43.67587" lon="3.89839">
        <ele>71</ele>
        <time>2021-03-27T13:13:02Z</time>
      </trkpt>
      <trkpt lat="43.67589" lon="3.89844">
        <ele>71</ele>
        <time>2021-03-27T13:13:03Z</time>
      </trkpt>
      <trkpt lat="43.6759" lon="3.8985">
        <ele>71</ele>
        <time>2021-03-27T13:13:04Z</time>
      </trkpt>
      <trkpt lat="43.67591" lon="3.89855">
        <ele>71</ele>
        <time>2021-03-27T13:13:05Z</time>
      </trkpt>
      <trkpt lat="43.67593" lon="3.8986">
        <ele>71</ele>
        <time>2021-03-27T13:13:06Z</time>
      </trkpt>
      <trkpt lat="43.67594" lon="3.89865">
        <ele>71</ele>
        <time>2021-03-27T13:13:07Z</time>
      </trkpt>
      <trkpt lat="43.67595" lon="3.8987">
        <ele>71</ele>
        <time>2021-03-27T13:13:08Z</time>
      </trkpt>
      <trkpt lat="43.67596" lon="3.89874">
        <ele>71</ele>
        <time>2021-03-27T13:13:09Z</time>
      </trkpt>
      <trkpt lat="43.67597" lon="3.89879">
        <ele>71</ele>
        <time>2021-03-27T13:13:10Z</time>
      </trkpt>
      <trkpt lat="43.67599" lon="3.89884">
        <ele>71</ele>
        <time>2021-03-27T13:13:11Z</time>
      </trkpt>
      <trkpt lat="43.676" lon="3.89888">
        <ele>71</ele>
        <time>2021-03-27T13:13:12Z</time>
      </trkpt>
      <trkpt lat="43.67601" lon="3.89894">
        <ele>71</ele>
        <time>2021-03-27T13:13:13Z</time>
      </trkpt>
      <trkpt lat="43.67603" lon="3.89899">
        <ele>71</ele>
        <time>2021-03-27T13:13:14Z</time>
      </trkpt>
      <trkpt lat="43.67604" lon="3.89905">
        <ele>70</ele>
        <time>2021-03-27T13:13:15Z</time>
      </trkpt>
      <trkpt lat="43.67606" lon="3.89912">
        <ele>70</ele>
        <time>2021-03-27T13:13:16Z</time>
      </trkpt>
      <trkpt lat="43.67608" lon="3.89918">
        <ele>70</ele>
        <time>2021-03-27T13:13:17Z</time>
      </trkpt>
      <trkpt lat="43.67609" lon="3.89925">
        <ele>70</ele>
        <time>2021-03-27T13:13:18Z</time>
      </trkpt>
      <trkpt lat="43.67611" lon="3.89931">
        <ele>70</ele>
        <time>2021-03-27T13:13:19Z</time>
      </trkpt>
      <trkpt lat="43.67613" lon="3.89937">
        <ele>70</ele>
        <time>2021-03-27T13:13:20Z</time>
      </trkpt>
      <trkpt lat="43.67614" lon="3.89943">
        <ele>70</ele>
        <time>2021-03-27T13:13:21Z</time>
      </trkpt>
      <trkpt lat="43.67616" lon="3.89949">
        <ele>70</ele>
        <time>2021-03-27T13:13:22Z</time>
      </trkpt>
      <trkpt lat="43.67617" lon="3.89955">
        <ele>70</ele>
        <time>2021-03-27T13:13:23Z</time>
      </trkpt>
      <trkpt lat="43.67619" lon="3.89961">
        <ele>69</ele>
        <time>2021-03-27T13:13:24Z</time>
      </trkpt>
      <trkpt lat="43.6762" lon="3.89967">
        <ele>69</ele>
        <time>2021-03-27T13:13:25Z</time>
      </trkpt>
      <trkpt lat="43.67622" lon="3.89973">
        <ele>69</ele>
        <time>2021-03-27T13:13:26Z</time>
      </trkpt>
      <trkpt lat="43.67623" lon="3.89979">
        <ele>69</ele>
        <time>2021-03-27T13:13:27Z</time>
      </trkpt>
      <trkpt lat="43.67624" lon="3.89986">
        <ele>69</ele>
        <time>2021-03-27T13:13:28Z</time>
      </trkpt>
      <trkpt lat="43.67625" lon="3.89993">
        <ele>69</ele>
        <time>2021-03-27T13:13:29Z</time>
      </trkpt>
      <trkpt lat="43.67625" lon="3.89999">
        <ele>69</ele>
        <time>2021-03-27T13:13:30Z</time>
      </trkpt>
      <trkpt lat="43.67625" lon="3.90006">
        <ele>69</ele>
        <time>2021-03-27T13:13:31Z</time>
      </trkpt>
      <trkpt lat="43.67624" lon="3.90013">
        <ele>69</ele>
        <time>2021-03-27T13:13:32Z</time>
      </trkpt>
      <trkpt lat="43.67623" lon="3.9002">
        <ele>69</ele>
        <time>2021-03-27T13:13:33Z</time>
      </trkpt>
      <trkpt lat="43.67621" lon="3.90026">
        <ele>69</ele>
        <time>2021-03-27T13:13:34Z</time>
      </trkpt>
      <trkpt lat="43.67619" lon="3.90032">
        <ele>69</ele>
        <time>2021-03-27T13:13:35Z</time>
      </trkpt>
      <trkpt lat="43.67617" lon="3.90039">
        <ele>69</ele>
        <time>2021-03-27T13:13:36Z</time>
      </trkpt>
      <trkpt lat="43.67614" lon="3.90044">
        <ele>69</ele>
        <time>2021-03-27T13:13:37Z</time>
      </trkpt>
      <trkpt lat="43.67611" lon="3.9005">
        <ele>69</ele>
        <time>2021-03-27T13:13:38Z</time>
      </trkpt>
      <trkpt lat="43.67608" lon="3.90055">
        <ele>69</ele>
        <time>2021-03-27T13:13:39Z</time>
      </trkpt>
      <trkpt lat="43.67605" lon="3.90061">
        <ele>69</ele>
        <time>2021-03-27T13:13:40Z</time>
      </trkpt>
      <trkpt lat="43.67603" lon="3.90067">
        <ele>69</ele>
        <time>2021-03-27T13:13:41Z</time>
      </trkpt>
      <trkpt lat="43.676" lon="3.90072">
        <ele>69</ele>
        <time>2021-03-27T13:13:42Z</time>
      </trkpt>
      <trkpt lat="43.67597" lon="3.90078">
        <ele>69</ele>
        <time>2021-03-27T13:13:43Z</time>
      </trkpt>
      <trkpt lat="43.67594" lon="3.90084">
        <ele>68</ele>
        <time>2021-03-27T13:13:44Z</time>
      </trkpt>
      <trkpt lat="43.67591" lon="3.90089">
        <ele>68</ele>
        <time>2021-03-27T13:13:45Z</time>
      </trkpt>
      <trkpt lat="43.67588" lon="3.90094">
        <ele>68</ele>
        <time>2021-03-27T13:13:46Z</time>
      </trkpt>
      <trkpt lat="43.67585" lon="3.901">
        <ele>68</ele>
        <time>2021-03-27T13:13:47Z</time>
      </trkpt>
      <trkpt lat="43.67583" lon="3.90105">
        <ele>68</ele>
        <time>2021-03-27T13:13:48Z</time>
      </trkpt>
      <trkpt lat="43.6758" lon="3.90109">
        <ele>68</ele>
        <time>2021-03-27T13:13:49Z</time>
      </trkpt>
      <trkpt lat="43.67578" lon="3.90113">
        <ele>68</ele>
        <time>2021-03-27T13:13:50Z</time>
      </trkpt>
      <trkpt lat="43.67575" lon="3.90118">
        <ele>68</ele>
        <time>2021-03-27T13:13:51Z</time>
      </trkpt>
      <trkpt lat="43.67573" lon="3.90123">
        <ele>68</ele>
        <time>2021-03-27T13:13:52Z</time>
      </trkpt>
      <trkpt lat="43.67571" lon="3.90128">
        <ele>68</ele>
        <time>2021-03-27T13:13:53Z</time>
      </trkpt>
      <trkpt lat="43.67568" lon="3.90133">
        <ele>68</ele>
        <time>2021-03-27T13:13:54Z</time>
      </trkpt>
      <trkpt lat="43.67566" lon="3.90138">
        <ele>68</ele>
        <time>2021-03-27T13:13:55Z</time>
      </trkpt>
      <trkpt lat="43.67563" lon="3.90143">
        <ele>68</ele>
        <time>2021-03-27T13:13:56Z</time>
      </trkpt>
      <trkpt lat="43.6756" lon="3.90146">
        <ele>68</ele>
        <time>2021-03-27T13:13:57Z</time>
      </trkpt>
      <trkpt lat="43.67558" lon="3.90148">
        <ele>68</ele>
        <time>2021-03-27T13:13:58Z</time>
      </trkpt>
      <trkpt lat="43.67556" lon="3.9015">
        <ele>68</ele>
        <time>2021-03-27T13:13:59Z</time>
      </trkpt>
      <trkpt lat="43.67556" lon="3.90152">
        <ele>68</ele>
        <time>2021-03-27T13:14:00Z</time>
      </trkpt>
      <trkpt lat="43.67554" lon="3.90156">
        <ele>68</ele>
        <time>2021-03-27T13:14:01Z</time>
      </trkpt>
      <trkpt lat="43.67552" lon="3.9016">
        <ele>68</ele>
        <time>2021-03-27T13:14:02Z</time>
      </trkpt>
      <trkpt lat="43.6755" lon="3.90164">
        <ele>68</ele>
        <time>2021-03-27T13:14:03Z</time>
      </trkpt>
      <trkpt lat="43.67549" lon="3.90168">
        <ele>68</ele>
        <time>2021-03-27T13:14:04Z</time>
      </trkpt>
      <trkpt lat="43.67544" lon="3.90174">
        <ele>70</ele>
        <time>2021-03-27T13:14:05Z</time>
      </trkpt>
      <trkpt lat="43.67541" lon="3.90176">
        <ele>70</ele>
        <time>2021-03-27T13:14:06Z</time>
      </trkpt>
      <trkpt lat="43.67539" lon="3.90177">
        <ele>70</ele>
        <time>2021-03-27T13:14:07Z</time>
      </trkpt>
      <trkpt lat="43.67537" lon="3.90177">
        <ele>70</ele>
        <time>2021-03-27T13:14:08Z</time>
      </trkpt>
      <trkpt lat="43.67535" lon="3.90177">
        <ele>70</ele>
        <time>2021-03-27T13:14:09Z</time>
      </trkpt>
      <trkpt lat="43.67533" lon="3.90178">
        <ele>70</ele>
        <time>2021-03-27T13:14:10Z</time>
      </trkpt>
      <trkpt lat="43.67529" lon="3.90179">
        <ele>70</ele>
        <time>2021-03-27T13:14:12Z</time>
      </trkpt>
      <trkpt lat="43.67527" lon="3.9018">
        <ele>70</ele>
        <time>2021-03-27T13:14:19Z</time>
      </trkpt>
      <trkpt lat="43.67534" lon="3.9019">
        <ele>73</ele>
        <time>2021-03-27T13:14:30Z</time>
      </trkpt>
      <trkpt lat="43.67536" lon="3.90192">
        <ele>73</ele>
        <time>2021-03-27T13:14:31Z</time>
      </trkpt>
      <trkpt lat="43.67537" lon="3.90194">
        <ele>73</ele>
        <time>2021-03-27T13:14:32Z</time>
      </trkpt>
      <trkpt lat="43.67538" lon="3.90199">
        <ele>73</ele>
        <time>2021-03-27T13:14:34Z</time>
      </trkpt>
      <trkpt lat="43.67539" lon="3.90202">
        <ele>73</ele>
        <time>2021-03-27T13:14:35Z</time>
      </trkpt>
      <trkpt lat="43.6754" lon="3.90205">
        <ele>73</ele>
        <time>2021-03-27T13:14:36Z</time>
      </trkpt>
      <trkpt lat="43.67541" lon="3.90208">
        <ele>73</ele>
        <time>2021-03-27T13:14:37Z</time>
      </trkpt>
      <trkpt lat="43.67541" lon="3.90212">
        <ele>73</ele>
        <time>2021-03-27T13:14:38Z</time>
      </trkpt>
      <trkpt lat="43.67542" lon="3.90217">
        <ele>73</ele>
        <time>2021-03-27T13:14:39Z</time>
      </trkpt>
      <trkpt lat="43.67542" lon="3.90221">
        <ele>73</ele>
        <time>2021-03-27T13:14:40Z</time>
      </trkpt>
      <trkpt lat="43.67544" lon="3.90224">
        <ele>73</ele>
        <time>2021-03-27T13:14:42Z</time>
      </trkpt>
      <trkpt lat="43.67546" lon="3.90226">
        <ele>73</ele>
        <time>2021-03-27T13:14:44Z</time>
      </trkpt>
      <trkpt lat="43.67546" lon="3.9023">
        <ele>73</ele>
        <time>2021-03-27T13:14:49Z</time>
      </trkpt>
      <trkpt lat="43.67544" lon="3.90239">
        <ele>73</ele>
        <time>2021-03-27T13:14:50Z</time>
      </trkpt>
      <trkpt lat="43.67543" lon="3.90245">
        <ele>73</ele>
        <time>2021-03-27T13:14:51Z</time>
      </trkpt>
      <trkpt lat="43.67543" lon="3.90251">
        <ele>73</ele>
        <time>2021-03-27T13:14:52Z</time>
      </trkpt>
      <trkpt lat="43.67541" lon="3.90264">
        <ele>73</ele>
        <time>2021-03-27T13:14:54Z</time>
      </trkpt>
      <trkpt lat="43.6754" lon="3.90271">
        <ele>73</ele>
        <time>2021-03-27T13:14:55Z</time>
      </trkpt>
      <trkpt lat="43.67539" lon="3.90277">
        <ele>73</ele>
        <time>2021-03-27T13:14:56Z</time>
      </trkpt>
      <trkpt lat="43.67538" lon="3.90284">
        <ele>73</ele>
        <time>2021-03-27T13:14:57Z</time>
      </trkpt>
      <trkpt lat="43.67537" lon="3.9029">
        <ele>71</ele>
        <time>2021-03-27T13:14:59Z</time>
      </trkpt>
      <trkpt lat="43.67536" lon="3.90294">
        <ele>71</ele>
        <time>2021-03-27T13:15:00Z</time>
      </trkpt>
      <trkpt lat="43.67534" lon="3.90299">
        <ele>71</ele>
        <time>2021-03-27T13:15:01Z</time>
      </trkpt>
      <trkpt lat="43.67533" lon="3.90303">
        <ele>71</ele>
        <time>2021-03-27T13:15:02Z</time>
      </trkpt>
      <trkpt lat="43.67532" lon="3.90307">
        <ele>71</ele>
        <time>2021-03-27T13:15:03Z</time>
      </trkpt>
      <trkpt lat="43.67531" lon="3.90312">
        <ele>71</ele>
        <time>2021-03-27T13:15:04Z</time>
      </trkpt>
      <trkpt lat="43.67529" lon="3.90317">
        <ele>71</ele>
        <time>2021-03-27T13:15:05Z</time>
      </trkpt>
      <trkpt lat="43.67528" lon="3.90322">
        <ele>71</ele>
        <time>2021-03-27T13:15:06Z</time>
      </trkpt>
      <trkpt lat="43.67527" lon="3.90326">
        <ele>71</ele>
        <time>2021-03-27T13:15:07Z</time>
      </trkpt>
      <trkpt lat="43.67525" lon="3.90331">
        <ele>71</ele>
        <time>2021-03-27T13:15:08Z</time>
      </trkpt>
      <trkpt lat="43.67523" lon="3.90335">
        <ele>70</ele>
        <time>2021-03-27T13:15:09Z</time>
      </trkpt>
      <trkpt lat="43.6752" lon="3.90339">
        <ele>70</ele>
        <time>2021-03-27T13:15:10Z</time>
      </trkpt>
      <trkpt lat="43.67518" lon="3.90344">
        <ele>70</ele>
        <time>2021-03-27T13:15:11Z</time>
      </trkpt>
      <trkpt lat="43.67516" lon="3.90348">
        <ele>70</ele>
        <time>2021-03-27T13:15:12Z</time>
      </trkpt>
      <trkpt lat="43.67513" lon="3.90351">
        <ele>70</ele>
        <time>2021-03-27T13:15:13Z</time>
      </trkpt>
      <trkpt lat="43.6751" lon="3.90354">
        <ele>70</ele>
        <time>2021-03-27T13:15:14Z</time>
      </trkpt>
      <trkpt lat="43.67507" lon="3.90357">
        <ele>70</ele>
        <time>2021-03-27T13:15:15Z</time>
      </trkpt>
      <trkpt lat="43.67504" lon="3.9036">
        <ele>70</ele>
        <time>2021-03-27T13:15:16Z</time>
      </trkpt>
      <trkpt lat="43.675" lon="3.90363">
        <ele>70</ele>
        <time>2021-03-27T13:15:17Z</time>
      </trkpt>
      <trkpt lat="43.67497" lon="3.90366">
        <ele>70</ele>
        <time>2021-03-27T13:15:18Z</time>
      </trkpt>
      <trkpt lat="43.67494" lon="3.90369">
        <ele>70</ele>
        <time>2021-03-27T13:15:19Z</time>
      </trkpt>
      <trkpt lat="43.67492" lon="3.90372">
        <ele>69</ele>
        <time>2021-03-27T13:15:20Z</time>
      </trkpt>
      <trkpt lat="43.67489" lon="3.90376">
        <ele>69</ele>
        <time>2021-03-27T13:15:21Z</time>
      </trkpt>
      <trkpt lat="43.67486" lon="3.90379">
        <ele>69</ele>
        <time>2021-03-27T13:15:22Z</time>
      </trkpt>
      <trkpt lat="43.67484" lon="3.90382">
        <ele>69</ele>
        <time>2021-03-27T13:15:23Z</time>
      </trkpt>
      <trkpt lat="43.67481" lon="3.90385">
        <ele>69</ele>
        <time>2021-03-27T13:15:24Z</time>
      </trkpt>
      <trkpt lat="43.67478" lon="3.90387">
        <ele>69</ele>
        <time>2021-03-27T13:15:25Z</time>
      </trkpt>
      <trkpt lat="43.67475" lon="3.9039">
        <ele>69</ele>
        <time>2021-03-27T13:15:26Z</time>
      </trkpt>
      <trkpt lat="43.67472" lon="3.90392">
        <ele>69</ele>
        <time>2021-03-27T13:15:27Z</time>
      </trkpt>
      <trkpt lat="43.67469" lon="3.90394">
        <ele>69</ele>
        <time>2021-03-27T13:15:28Z</time>
      </trkpt>
      <trkpt lat="43.67466" lon="3.90397">
        <ele>69</ele>
        <time>2021-03-27T13:15:29Z</time>
      </trkpt>
      <trkpt lat="43.67464" lon="3.904">
        <ele>69</ele>
        <time>2021-03-27T13:15:30Z</time>
      </trkpt>
      <trkpt lat="43.67463" lon="3.90404">
        <ele>69</ele>
        <time>2021-03-27T13:15:31Z</time>
      </trkpt>
      <trkpt lat="43.67462" lon="3.90408">
        <ele>69</ele>
        <time>2021-03-27T13:15:32Z</time>
      </trkpt>
      <trkpt lat="43.67462" lon="3.90413">
        <ele>69</ele>
        <time>2021-03-27T13:15:33Z</time>
      </trkpt>
      <trkpt lat="43.67462" lon="3.90419">
        <ele>69</ele>
        <time>2021-03-27T13:15:34Z</time>
      </trkpt>
      <trkpt lat="43.67461" lon="3.90424">
        <ele>69</ele>
        <time>2021-03-27T13:15:35Z</time>
      </trkpt>
      <trkpt lat="43.67461" lon="3.90429">
        <ele>69</ele>
        <time>2021-03-27T13:15:36Z</time>
      </trkpt>
      <trkpt lat="43.67462" lon="3.90432">
        <ele>69</ele>
        <time>2021-03-27T13:15:37Z</time>
      </trkpt>
      <trkpt lat="43.67461" lon="3.90437">
        <ele>69</ele>
        <time>2021-03-27T13:15:39Z</time>
      </trkpt>
      <trkpt lat="43.67459" lon="3.90439">
        <ele>69</ele>
        <time>2021-03-27T13:15:40Z</time>
      </trkpt>
      <trkpt lat="43.67457" lon="3.90441">
        <ele>69</ele>
        <time>2021-03-27T13:15:41Z</time>
      </trkpt>
      <trkpt lat="43.67455" lon="3.90442">
        <ele>69</ele>
        <time>2021-03-27T13:15:43Z</time>
      </trkpt>
      <trkpt lat="43.67453" lon="3.90444">
        <ele>69</ele>
        <time>2021-03-27T13:15:45Z</time>
      </trkpt>
      <trkpt lat="43.6745" lon="3.90444">
        <ele>69</ele>
        <time>2021-03-27T13:15:47Z</time>
      </trkpt>
      <trkpt lat="43.67447" lon="3.90444">
        <ele>69</ele>
        <time>2021-03-27T13:15:49Z</time>
      </trkpt>
      <trkpt lat="43.67445" lon="3.90445">
        <ele>69</ele>
        <time>2021-03-27T13:15:50Z</time>
      </trkpt>
      <trkpt lat="43.67437" lon="3.90449">
        <ele>69</ele>
        <time>2021-03-27T13:15:54Z</time>
      </trkpt>
      <trkpt lat="43.67428" lon="3.90458">
        <ele>69</ele>
        <time>2021-03-27T13:15:59Z</time>
      </trkpt>
      <trkpt lat="43.67428" lon="3.90465">
        <ele>69</ele>
        <time>2021-03-27T13:16:01Z</time>
      </trkpt>
      <trkpt lat="43.67428" lon="3.90469">
        <ele>69</ele>
        <time>2021-03-27T13:16:02Z</time>
      </trkpt>
      <trkpt lat="43.67429" lon="3.90472">
        <ele>69</ele>
        <time>2021-03-27T13:16:03Z</time>
      </trkpt>
      <trkpt lat="43.67431" lon="3.90476">
        <ele>69</ele>
        <time>2021-03-27T13:16:05Z</time>
      </trkpt>
      <trkpt lat="43.67432" lon="3.90478">
        <ele>69</ele>
        <time>2021-03-27T13:16:06Z</time>
      </trkpt>
      <trkpt lat="43.67431" lon="3.90481">
        <ele>69</ele>
        <time>2021-03-27T13:16:07Z</time>
      </trkpt>
      <trkpt lat="43.6743" lon="3.90484">
        <ele>69</ele>
        <time>2021-03-27T13:16:08Z</time>
      </trkpt>
      <trkpt lat="43.67426" lon="3.90498">
        <ele>69</ele>
        <time>2021-03-27T13:16:12Z</time>
      </trkpt>
      <trkpt lat="43.67426" lon="3.90502">
        <ele>69</ele>
        <time>2021-03-27T13:16:13Z</time>
      </trkpt>
      <trkpt lat="43.67426" lon="3.90505">
        <ele>69</ele>
        <time>2021-03-27T13:16:14Z</time>
      </trkpt>
      <trkpt lat="43.67427" lon="3.90508">
        <ele>69</ele>
        <time>2021-03-27T13:16:16Z</time>
      </trkpt>
      <trkpt lat="43.67428" lon="3.90513">
        <ele>69</ele>
        <time>2021-03-27T13:16:18Z</time>
      </trkpt>
      <trkpt lat="43.67428" lon="3.90516">
        <ele>69</ele>
        <time>2021-03-27T13:16:19Z</time>
      </trkpt>
      <trkpt lat="43.67428" lon="3.90519">
        <ele>71</ele>
        <time>2021-03-27T13:16:20Z</time>
      </trkpt>
      <trkpt lat="43.67428" lon="3.90525">
        <ele>71</ele>
        <time>2021-03-27T13:16:22Z</time>
      </trkpt>
      <trkpt lat="43.67427" lon="3.90528">
        <ele>71</ele>
        <time>2021-03-27T13:16:23Z</time>
      </trkpt>
      <trkpt lat="43.67427" lon="3.90534">
        <ele>71</ele>
        <time>2021-03-27T13:16:26Z</time>
      </trkpt>
      <trkpt lat="43.67427" lon="3.90543">
        <ele>73</ele>
        <time>2021-03-27T13:16:29Z</time>
      </trkpt>
      <trkpt lat="43.67428" lon="3.90546">
        <ele>73</ele>
        <time>2021-03-27T13:16:30Z</time>
      </trkpt>
      <trkpt lat="43.67431" lon="3.90548">
        <ele>73</ele>
        <time>2021-03-27T13:16:32Z</time>
      </trkpt>
      <trkpt lat="43.67433" lon="3.90549">
        <ele>73</ele>
        <time>2021-03-27T13:16:33Z</time>
      </trkpt>
      <trkpt lat="43.67434" lon="3.90551">
        <ele>73</ele>
        <time>2021-03-27T13:16:34Z</time>
      </trkpt>
      <trkpt lat="43.67435" lon="3.90555">
        <ele>73</ele>
        <time>2021-03-27T13:16:35Z</time>
      </trkpt>
      <trkpt lat="43.67435" lon="3.9057">
        <ele>73</ele>
        <time>2021-03-27T13:16:39Z</time>
      </trkpt>
      <trkpt lat="43.67434" lon="3.90584">
        <ele>73</ele>
        <time>2021-03-27T13:16:42Z</time>
      </trkpt>
      <trkpt lat="43.67433" lon="3.90588">
        <ele>73</ele>
        <time>2021-03-27T13:16:43Z</time>
      </trkpt>
      <trkpt lat="43.67431" lon="3.90603">
        <ele>73</ele>
        <time>2021-03-27T13:16:46Z</time>
      </trkpt>
      <trkpt lat="43.6743" lon="3.90619">
        <ele>73</ele>
        <time>2021-03-27T13:16:49Z</time>
      </trkpt>
      <trkpt lat="43.67428" lon="3.90623">
        <ele>74</ele>
        <time>2021-03-27T13:16:50Z</time>
      </trkpt>
      <trkpt lat="43.67425" lon="3.90625">
        <ele>74</ele>
        <time>2021-03-27T13:16:51Z</time>
      </trkpt>
      <trkpt lat="43.67421" lon="3.90627">
        <ele>74</ele>
        <time>2021-03-27T13:16:52Z</time>
      </trkpt>
      <trkpt lat="43.67419" lon="3.90629">
        <ele>74</ele>
        <time>2021-03-27T13:16:53Z</time>
      </trkpt>
      <trkpt lat="43.67417" lon="3.90631">
        <ele>74</ele>
        <time>2021-03-27T13:16:54Z</time>
      </trkpt>
      <trkpt lat="43.67416" lon="3.90634">
        <ele>74</ele>
        <time>2021-03-27T13:16:55Z</time>
      </trkpt>
      <trkpt lat="43.67417" lon="3.90637">
        <ele>74</ele>
        <time>2021-03-27T13:17:03Z</time>
      </trkpt>
      <trkpt lat="43.67417" lon="3.9064">
        <ele>74</ele>
        <time>2021-03-27T13:17:04Z</time>
      </trkpt>
      <trkpt lat="43.67414" lon="3.90641">
        <ele>74</ele>
        <time>2021-03-27T13:17:13Z</time>
      </trkpt>
      <trkpt lat="43.67411" lon="3.90641">
        <ele>74</ele>
        <time>2021-03-27T13:17:14Z</time>
      </trkpt>
      <trkpt lat="43.67408" lon="3.90643">
        <ele>74</ele>
        <time>2021-03-27T13:17:15Z</time>
      </trkpt>
      <trkpt lat="43.67407" lon="3.90646">
        <ele>74</ele>
        <time>2021-03-27T13:17:16Z</time>
      </trkpt>
      <trkpt lat="43.67405" lon="3.90648">
        <ele>74</ele>
        <time>2021-03-27T13:17:17Z</time>
      </trkpt>
      <trkpt lat="43.67403" lon="3.90652">
        <ele>74</ele>
        <time>2021-03-27T13:17:18Z</time>
      </trkpt>
      <trkpt lat="43.674" lon="3.90657">
        <ele>75</ele>
        <time>2021-03-27T13:17:20Z</time>
      </trkpt>
      <trkpt lat="43.67397" lon="3.9066">
        <ele>75</ele>
        <time>2021-03-27T13:17:21Z</time>
      </trkpt>
      <trkpt lat="43.67393" lon="3.90663">
        <ele>75</ele>
        <time>2021-03-27T13:17:22Z</time>
      </trkpt>
      <trkpt lat="43.6739" lon="3.90666">
        <ele>75</ele>
        <time>2021-03-27T13:17:23Z</time>
      </trkpt>
      <trkpt lat="43.67391" lon="3.90668">
        <ele>75</ele>
        <time>2021-03-27T13:17:24Z</time>
      </trkpt>
      <trkpt lat="43.67392" lon="3.90672">
        <ele>75</ele>
        <time>2021-03-27T13:17:25Z</time>
      </trkpt>
      <trkpt lat="43.67393" lon="3.90675">
        <ele>75</ele>
        <time>2021-03-27T13:17:26Z</time>
      </trkpt>
      <trkpt lat="43.67394" lon="3.9068">
        <ele>75</ele>
        <time>2021-03-27T13:17:27Z</time>
      </trkpt>
      <trkpt lat="43.67394" lon="3.90686">
        <ele>75</ele>
        <time>2021-03-27T13:17:28Z</time>
      </trkpt>
      <trkpt lat="43.67394" lon="3.90691">
        <ele>75</ele>
        <time>2021-03-27T13:17:29Z</time>
      </trkpt>
      <trkpt lat="43.67393" lon="3.90696">
        <ele>74</ele>
        <time>2021-03-27T13:17:30Z</time>
      </trkpt>
      <trkpt lat="43.67392" lon="3.907">
        <ele>74</ele>
        <time>2021-03-27T13:17:31Z</time>
      </trkpt>
      <trkpt lat="43.67391" lon="3.90705">
        <ele>74</ele>
        <time>2021-03-27T13:17:32Z</time>
      </trkpt>
      <trkpt lat="43.6739" lon="3.90708">
        <ele>74</ele>
        <time>2021-03-27T13:17:33Z</time>
      </trkpt>
      <trkpt lat="43.67388" lon="3.90712">
        <ele>74</ele>
        <time>2021-03-27T13:17:34Z</time>
      </trkpt>
      <trkpt lat="43.67386" lon="3.90717">
        <ele>74</ele>
        <time>2021-03-27T13:17:35Z</time>
      </trkpt>
      <trkpt lat="43.67384" lon="3.90721">
        <ele>74</ele>
        <time>2021-03-27T13:17:36Z</time>
      </trkpt>
      <trkpt lat="43.67382" lon="3.90725">
        <ele>74</ele>
        <time>2021-03-27T13:17:37Z</time>
      </trkpt>
      <trkpt lat="43.67379" lon="3.90728">
        <ele>74</ele>
        <time>2021-03-27T13:17:38Z</time>
      </trkpt>
      <trkpt lat="43.67375" lon="3.9073">
        <ele>74</ele>
        <time>2021-03-27T13:17:39Z</time>
      </trkpt>
      <trkpt lat="43.67372" lon="3.90732">
        <ele>73</ele>
        <time>2021-03-27T13:17:40Z</time>
      </trkpt>
      <trkpt lat="43.67369" lon="3.90734">
        <ele>73</ele>
        <time>2021-03-27T13:17:41Z</time>
      </trkpt>
      <trkpt lat="43.67366" lon="3.90736">
        <ele>73</ele>
        <time>2021-03-27T13:17:42Z</time>
      </trkpt>
      <trkpt lat="43.67363" lon="3.90738">
        <ele>73</ele>
        <time>2021-03-27T13:17:43Z</time>
      </trkpt>
      <trkpt lat="43.6736" lon="3.90739">
        <ele>73</ele>
        <time>2021-03-27T13:17:44Z</time>
      </trkpt>
      <trkpt lat="43.67357" lon="3.90741">
        <ele>73</ele>
        <time>2021-03-27T13:17:45Z</time>
      </trkpt>
      <trkpt lat="43.67354" lon="3.90743">
        <ele>73</ele>
        <time>2021-03-27T13:17:46Z</time>
      </trkpt>
      <trkpt lat="43.67351" lon="3.90744">
        <ele>73</ele>
        <time>2021-03-27T13:17:47Z</time>
      </trkpt>
      <trkpt lat="43.67348" lon="3.90745">
        <ele>73</ele>
        <time>2021-03-27T13:17:48Z</time>
      </trkpt>
      <trkpt lat="43.67341" lon="3.90747">
        <ele>73</ele>
        <time>2021-03-27T13:17:50Z</time>
      </trkpt>
      <trkpt lat="43.67331" lon="3.90751">
        <ele>73</ele>
        <time>2021-03-27T13:17:53Z</time>
      </trkpt>
      <trkpt lat="43.67319" lon="3.90755">
        <ele>73</ele>
        <time>2021-03-27T13:17:56Z</time>
      </trkpt>
      <trkpt lat="43.6731" lon="3.90757">
        <ele>73</ele>
        <time>2021-03-27T13:17:59Z</time>
      </trkpt>
      <trkpt lat="43.673" lon="3.9076">
        <ele>73</ele>
        <time>2021-03-27T13:18:01Z</time>
      </trkpt>
      <trkpt lat="43.67287" lon="3.90766">
        <ele>73</ele>
        <time>2021-03-27T13:18:04Z</time>
      </trkpt>
      <trkpt lat="43.67276" lon="3.90768">
        <ele>73</ele>
        <time>2021-03-27T13:18:07Z</time>
      </trkpt>
      <trkpt lat="43.67265" lon="3.90769">
        <ele>73</ele>
        <time>2021-03-27T13:18:10Z</time>
      </trkpt>
      <trkpt lat="43.67255" lon="3.90766">
        <ele>73</ele>
        <time>2021-03-27T13:18:11Z</time>
      </trkpt>
      <trkpt lat="43.67246" lon="3.90764">
        <ele>73</ele>
        <time>2021-03-27T13:18:13Z</time>
      </trkpt>
      <trkpt lat="43.67241" lon="3.90778">
        <ele>73</ele>
        <time>2021-03-27T13:18:17Z</time>
      </trkpt>
      <trkpt lat="43.67238" lon="3.90795">
        <ele>73</ele>
        <time>2021-03-27T13:18:21Z</time>
      </trkpt>
      <trkpt lat="43.67235" lon="3.90809">
        <ele>73</ele>
        <time>2021-03-27T13:18:23Z</time>
      </trkpt>
      <trkpt lat="43.67234" lon="3.90824">
        <ele>73</ele>
        <time>2021-03-27T13:18:26Z</time>
      </trkpt>
      <trkpt lat="43.67225" lon="3.90826">
        <ele>74</ele>
        <time>2021-03-27T13:18:30Z</time>
      </trkpt>
      <trkpt lat="43.67222" lon="3.90823">
        <ele>74</ele>
        <time>2021-03-27T13:18:31Z</time>
      </trkpt>
      <trkpt lat="43.67213" lon="3.90823">
        <ele>74</ele>
        <time>2021-03-27T13:18:35Z</time>
      </trkpt>
      <trkpt lat="43.67201" lon="3.90824">
        <ele>74</ele>
        <time>2021-03-27T13:18:38Z</time>
      </trkpt>
      <trkpt lat="43.67189" lon="3.90827">
        <ele>74</ele>
        <time>2021-03-27T13:18:42Z</time>
      </trkpt>
      <trkpt lat="43.67191" lon="3.90829">
        <ele>74</ele>
        <time>2021-03-27T13:18:54Z</time>
      </trkpt>
      <trkpt lat="43.67192" lon="3.9083">
        <ele>75</ele>
        <time>2021-03-27T13:19:02Z</time>
      </trkpt>
      <trkpt lat="43.67187" lon="3.90833">
        <ele>75</ele>
        <time>2021-03-27T13:19:17Z</time>
      </trkpt>
      <trkpt lat="43.67185" lon="3.90833">
        <ele>75</ele>
        <time>2021-03-27T13:19:19Z</time>
      </trkpt>
      <trkpt lat="43.67183" lon="3.90833">
        <ele>75</ele>
        <time>2021-03-27T13:19:21Z</time>
      </trkpt>
      <trkpt lat="43.67181" lon="3.90832">
        <ele>75</ele>
        <time>2021-03-27T13:19:24Z</time>
      </trkpt>
      <trkpt lat="43.67177" lon="3.9083">
        <ele>75</ele>
        <time>2021-03-27T13:19:25Z</time>
      </trkpt>
      <trkpt lat="43.67163" lon="3.90826">
        <ele>75</ele>
        <time>2021-03-27T13:19:27Z</time>
      </trkpt>
      <trkpt lat="43.67153" lon="3.90827">
        <ele>75</ele>
        <time>2021-03-27T13:19:29Z</time>
      </trkpt>
      <trkpt lat="43.67144" lon="3.90828">
        <ele>75</ele>
        <time>2021-03-27T13:19:32Z</time>
      </trkpt>
      <trkpt lat="43.67133" lon="3.90831">
        <ele>74</ele>
        <time>2021-03-27T13:19:36Z</time>
      </trkpt>
      <trkpt lat="43.67122" lon="3.90834">
        <ele>74</ele>
        <time>2021-03-27T13:19:40Z</time>
      </trkpt>
      <trkpt lat="43.67113" lon="3.90839">
        <ele>74</ele>
        <time>2021-03-27T13:19:43Z</time>
      </trkpt>
      <trkpt lat="43.6711" lon="3.90839">
        <ele>74</ele>
        <time>2021-03-27T13:19:44Z</time>
      </trkpt>
      <trkpt lat="43.67101" lon="3.90839">
        <ele>74</ele>
        <time>2021-03-27T13:19:47Z</time>
      </trkpt>
      <trkpt lat="43.67097" lon="3.90839">
        <ele>74</ele>
        <time>2021-03-27T13:19:48Z</time>
      </trkpt>
      <trkpt lat="43.67093" lon="3.90838">
        <ele>74</ele>
        <time>2021-03-27T13:19:49Z</time>
      </trkpt>
      <trkpt lat="43.67091" lon="3.90835">
        <ele>74</ele>
        <time>2021-03-27T13:19:50Z</time>
      </trkpt>
      <trkpt lat="43.6709" lon="3.90831">
        <ele>74</ele>
        <time>2021-03-27T13:19:51Z</time>
      </trkpt>
      <trkpt lat="43.6709" lon="3.90828">
        <ele>74</ele>
        <time>2021-03-27T13:19:52Z</time>
      </trkpt>
      <trkpt lat="43.67089" lon="3.90824">
        <ele>74</ele>
        <time>2021-03-27T13:19:53Z</time>
      </trkpt>
      <trkpt lat="43.67089" lon="3.90818">
        <ele>74</ele>
        <time>2021-03-27T13:19:54Z</time>
      </trkpt>
      <trkpt lat="43.67088" lon="3.90814">
        <ele>71</ele>
        <time>2021-03-27T13:19:55Z</time>
      </trkpt>
      <trkpt lat="43.67088" lon="3.9081">
        <ele>71</ele>
        <time>2021-03-27T13:19:56Z</time>
      </trkpt>
      <trkpt lat="43.67088" lon="3.90805">
        <ele>71</ele>
        <time>2021-03-27T13:19:57Z</time>
      </trkpt>
      <trkpt lat="43.67089" lon="3.908">
        <ele>71</ele>
        <time>2021-03-27T13:19:58Z</time>
      </trkpt>
      <trkpt lat="43.6709" lon="3.90796">
        <ele>71</ele>
        <time>2021-03-27T13:19:59Z</time>
      </trkpt>
      <trkpt lat="43.67093" lon="3.90779">
        <ele>71</ele>
        <time>2021-03-27T13:20:02Z</time>
      </trkpt>
      <trkpt lat="43.67094" lon="3.90766">
        <ele>70</ele>
        <time>2021-03-27T13:20:05Z</time>
      </trkpt>
      <trkpt lat="43.67093" lon="3.90756">
        <ele>70</ele>
        <time>2021-03-27T13:20:07Z</time>
      </trkpt>
      <trkpt lat="43.67093" lon="3.9075">
        <ele>70</ele>
        <time>2021-03-27T13:20:08Z</time>
      </trkpt>
      <trkpt lat="43.67092" lon="3.90745">
        <ele>70</ele>
        <time>2021-03-27T13:20:09Z</time>
      </trkpt>
      <trkpt lat="43.6709" lon="3.90741">
        <ele>70</ele>
        <time>2021-03-27T13:20:10Z</time>
      </trkpt>
      <trkpt lat="43.67088" lon="3.90737">
        <ele>70</ele>
        <time>2021-03-27T13:20:11Z</time>
      </trkpt>
      <trkpt lat="43.67087" lon="3.90732">
        <ele>70</ele>
        <time>2021-03-27T13:20:12Z</time>
      </trkpt>
      <trkpt lat="43.67085" lon="3.90728">
        <ele>70</ele>
        <time>2021-03-27T13:20:13Z</time>
      </trkpt>
      <trkpt lat="43.67083" lon="3.90724">
        <ele>70</ele>
        <time>2021-03-27T13:20:14Z</time>
      </trkpt>
      <trkpt lat="43.67082" lon="3.9072">
        <ele>70</ele>
        <time>2021-03-27T13:20:15Z</time>
      </trkpt>
      <trkpt lat="43.67081" lon="3.90716">
        <ele>67</ele>
        <time>2021-03-27T13:20:16Z</time>
      </trkpt>
      <trkpt lat="43.6708" lon="3.90714">
        <ele>67</ele>
        <time>2021-03-27T13:20:17Z</time>
      </trkpt>
      <trkpt lat="43.67078" lon="3.9071">
        <ele>67</ele>
        <time>2021-03-27T13:20:19Z</time>
      </trkpt>
      <trkpt lat="43.67075" lon="3.90709">
        <ele>67</ele>
        <time>2021-03-27T13:20:21Z</time>
      </trkpt>
      <trkpt lat="43.67073" lon="3.9071">
        <ele>67</ele>
        <time>2021-03-27T13:20:22Z</time>
      </trkpt>
      <trkpt lat="43.6707" lon="3.9071">
        <ele>67</ele>
        <time>2021-03-27T13:20:23Z</time>
      </trkpt>
      <trkpt lat="43.67068" lon="3.90712">
        <ele>67</ele>
        <time>2021-03-27T13:20:24Z</time>
      </trkpt>
      <trkpt lat="43.67065" lon="3.90714">
        <ele>67</ele>
        <time>2021-03-27T13:20:25Z</time>
      </trkpt>
      <trkpt lat="43.67061" lon="3.90717">
        <ele>66</ele>
        <time>2021-03-27T13:20:26Z</time>
      </trkpt>
      <trkpt lat="43.67055" lon="3.90721">
        <ele>66</ele>
        <time>2021-03-27T13:20:27Z</time>
      </trkpt>
      <trkpt lat="43.67051" lon="3.90724">
        <ele>66</ele>
        <time>2021-03-27T13:20:28Z</time>
      </trkpt>
      <trkpt lat="43.67047" lon="3.90726">
        <ele>66</ele>
        <time>2021-03-27T13:20:29Z</time>
      </trkpt>
      <trkpt lat="43.67042" lon="3.90729">
        <ele>66</ele>
        <time>2021-03-27T13:20:30Z</time>
      </trkpt>
      <trkpt lat="43.67038" lon="3.90732">
        <ele>66</ele>
        <time>2021-03-27T13:20:31Z</time>
      </trkpt>
      <trkpt lat="43.67034" lon="3.90734">
        <ele>66</ele>
        <time>2021-03-27T13:20:32Z</time>
      </trkpt>
      <trkpt lat="43.6703" lon="3.90736">
        <ele>66</ele>
        <time>2021-03-27T13:20:33Z</time>
      </trkpt>
      <trkpt lat="43.67026" lon="3.90738">
        <ele>66</ele>
        <time>2021-03-27T13:20:34Z</time>
      </trkpt>
      <trkpt lat="43.67023" lon="3.9074">
        <ele>66</ele>
        <time>2021-03-27T13:20:35Z</time>
      </trkpt>
      <trkpt lat="43.67019" lon="3.90742">
        <ele>64</ele>
        <time>2021-03-27T13:20:36Z</time>
      </trkpt>
      <trkpt lat="43.67011" lon="3.90748">
        <ele>64</ele>
        <time>2021-03-27T13:20:37Z</time>
      </trkpt>
      <trkpt lat="43.67008" lon="3.90751">
        <ele>64</ele>
        <time>2021-03-27T13:20:38Z</time>
      </trkpt>
      <trkpt lat="43.67004" lon="3.90753">
        <ele>64</ele>
        <time>2021-03-27T13:20:39Z</time>
      </trkpt>
      <trkpt lat="43.66999" lon="3.90756">
        <ele>64</ele>
        <time>2021-03-27T13:20:40Z</time>
      </trkpt>
      <trkpt lat="43.66996" lon="3.90758">
        <ele>64</ele>
        <time>2021-03-27T13:20:41Z</time>
      </trkpt>
      <trkpt lat="43.66992" lon="3.90761">
        <ele>64</ele>
        <time>2021-03-27T13:20:42Z</time>
      </trkpt>
      <trkpt lat="43.66988" lon="3.90764">
        <ele>64</ele>
        <time>2021-03-27T13:20:43Z</time>
      </trkpt>
      <trkpt lat="43.66985" lon="3.90766">
        <ele>64</ele>
        <time>2021-03-27T13:20:44Z</time>
      </trkpt>
      <trkpt lat="43.66981" lon="3.90769">
        <ele>64</ele>
        <time>2021-03-27T13:20:46Z</time>
      </trkpt>
      <trkpt lat="43.66978" lon="3.90772">
        <ele>64</ele>
        <time>2021-03-27T13:20:47Z</time>
      </trkpt>
      <trkpt lat="43.66974" lon="3.90775">
        <ele>64</ele>
        <time>2021-03-27T13:20:48Z</time>
      </trkpt>
      <trkpt lat="43.66971" lon="3.90777">
        <ele>64</ele>
        <time>2021-03-27T13:20:49Z</time>
      </trkpt>
      <trkpt lat="43.66968" lon="3.9078">
        <ele>64</ele>
        <time>2021-03-27T13:20:50Z</time>
      </trkpt>
      <trkpt lat="43.66965" lon="3.90782">
        <ele>64</ele>
        <time>2021-03-27T13:20:51Z</time>
      </trkpt>
      <trkpt lat="43.66961" lon="3.90784">
        <ele>64</ele>
        <time>2021-03-27T13:20:52Z</time>
      </trkpt>
      <trkpt lat="43.66957" lon="3.90786">
        <ele>64</ele>
        <time>2021-03-27T13:20:53Z</time>
      </trkpt>
      <trkpt lat="43.66954" lon="3.90786">
        <ele>64</ele>
        <time>2021-03-27T13:20:54Z</time>
      </trkpt>
      <trkpt lat="43.6695" lon="3.90786">
        <ele>61</ele>
        <time>2021-03-27T13:20:55Z</time>
      </trkpt>
      <trkpt lat="43.66946" lon="3.90785">
        <ele>61</ele>
        <time>2021-03-27T13:20:56Z</time>
      </trkpt>
      <trkpt lat="43.66942" lon="3.90782">
        <ele>61</ele>
        <time>2021-03-27T13:20:57Z</time>
      </trkpt>
      <trkpt lat="43.66938" lon="3.90778">
        <ele>61</ele>
        <time>2021-03-27T13:20:58Z</time>
      </trkpt>
      <trkpt lat="43.66935" lon="3.90773">
        <ele>61</ele>
        <time>2021-03-27T13:20:59Z</time>
      </trkpt>
      <trkpt lat="43.66932" lon="3.90769">
        <ele>61</ele>
        <time>2021-03-27T13:21:00Z</time>
      </trkpt>
      <trkpt lat="43.66929" lon="3.90764">
        <ele>61</ele>
        <time>2021-03-27T13:21:01Z</time>
      </trkpt>
      <trkpt lat="43.66925" lon="3.9076">
        <ele>61</ele>
        <time>2021-03-27T13:21:02Z</time>
      </trkpt>
      <trkpt lat="43.66922" lon="3.90755">
        <ele>61</ele>
        <time>2021-03-27T13:21:03Z</time>
      </trkpt>
      <trkpt lat="43.66919" lon="3.90751">
        <ele>61</ele>
        <time>2021-03-27T13:21:04Z</time>
      </trkpt>
      <trkpt lat="43.66915" lon="3.90747">
        <ele>61</ele>
        <time>2021-03-27T13:21:05Z</time>
      </trkpt>
      <trkpt lat="43.66912" lon="3.90743">
        <ele>61</ele>
        <time>2021-03-27T13:21:06Z</time>
      </trkpt>
      <trkpt lat="43.66909" lon="3.90739">
        <ele>61</ele>
        <time>2021-03-27T13:21:07Z</time>
      </trkpt>
      <trkpt lat="43.66906" lon="3.90735">
        <ele>61</ele>
        <time>2021-03-27T13:21:08Z</time>
      </trkpt>
      <trkpt lat="43.66903" lon="3.90731">
        <ele>61</ele>
        <time>2021-03-27T13:21:09Z</time>
      </trkpt>
      <trkpt lat="43.669" lon="3.90727">
        <ele>61</ele>
        <time>2021-03-27T13:21:10Z</time>
      </trkpt>
      <trkpt lat="43.66898" lon="3.90723">
        <ele>61</ele>
        <time>2021-03-27T13:21:11Z</time>
      </trkpt>
      <trkpt lat="43.66896" lon="3.90718">
        <ele>61</ele>
        <time>2021-03-27T13:21:12Z</time>
      </trkpt>
      <trkpt lat="43.66894" lon="3.90714">
        <ele>61</ele>
        <time>2021-03-27T13:21:13Z</time>
      </trkpt>
      <trkpt lat="43.66892" lon="3.90709">
        <ele>61</ele>
        <time>2021-03-27T13:21:14Z</time>
      </trkpt>
      <trkpt lat="43.66891" lon="3.90704">
        <ele>61</ele>
        <time>2021-03-27T13:21:15Z</time>
      </trkpt>
      <trkpt lat="43.66889" lon="3.907">
        <ele>61</ele>
        <time>2021-03-27T13:21:16Z</time>
      </trkpt>
      <trkpt lat="43.66888" lon="3.90695">
        <ele>61</ele>
        <time>2021-03-27T13:21:17Z</time>
      </trkpt>
      <trkpt lat="43.66886" lon="3.90691">
        <ele>61</ele>
        <time>2021-03-27T13:21:18Z</time>
      </trkpt>
      <trkpt lat="43.66885" lon="3.90687">
        <ele>61</ele>
        <time>2021-03-27T13:21:19Z</time>
      </trkpt>
      <trkpt lat="43.66883" lon="3.90683">
        <ele>61</ele>
        <time>2021-03-27T13:21:20Z</time>
      </trkpt>
      <trkpt lat="43.66881" lon="3.90679">
        <ele>61</ele>
        <time>2021-03-27T13:21:21Z</time>
      </trkpt>
      <trkpt lat="43.66878" lon="3.90676">
        <ele>61</ele>
        <time>2021-03-27T13:21:22Z</time>
      </trkpt>
      <trkpt lat="43.66875" lon="3.90676">
        <ele>61</ele>
        <time>2021-03-27T13:21:23Z</time>
      </trkpt>
      <trkpt lat="43.66871" lon="3.90677">
        <ele>61</ele>
        <time>2021-03-27T13:21:24Z</time>
      </trkpt>
      <trkpt lat="43.66867" lon="3.90678">
        <ele>61</ele>
        <time>2021-03-27T13:21:25Z</time>
      </trkpt>
      <trkpt lat="43.66863" lon="3.9068">
        <ele>62</ele>
        <time>2021-03-27T13:21:26Z</time>
      </trkpt>
      <trkpt lat="43.66859" lon="3.90682">
        <ele>62</ele>
        <time>2021-03-27T13:21:27Z</time>
      </trkpt>
      <trkpt lat="43.66855" lon="3.90684">
        <ele>62</ele>
        <time>2021-03-27T13:21:28Z</time>
      </trkpt>
      <trkpt lat="43.66851" lon="3.90686">
        <ele>62</ele>
        <time>2021-03-27T13:21:29Z</time>
      </trkpt>
      <trkpt lat="43.66847" lon="3.90687">
        <ele>62</ele>
        <time>2021-03-27T13:21:30Z</time>
      </trkpt>
      <trkpt lat="43.66843" lon="3.9069">
        <ele>62</ele>
        <time>2021-03-27T13:21:31Z</time>
      </trkpt>
      <trkpt lat="43.66839" lon="3.90692">
        <ele>62</ele>
        <time>2021-03-27T13:21:32Z</time>
      </trkpt>
      <trkpt lat="43.66836" lon="3.90693">
        <ele>62</ele>
        <time>2021-03-27T13:21:33Z</time>
      </trkpt>
      <trkpt lat="43.66832" lon="3.90695">
        <ele>62</ele>
        <time>2021-03-27T13:21:34Z</time>
      </trkpt>
      <trkpt lat="43.66828" lon="3.90697">
        <ele>62</ele>
        <time>2021-03-27T13:21:35Z</time>
      </trkpt>
      <trkpt lat="43.66824" lon="3.90698">
        <ele>62</ele>
        <time>2021-03-27T13:21:36Z</time>
      </trkpt>
      <trkpt lat="43.6682" lon="3.907">
        <ele>62</ele>
        <time>2021-03-27T13:21:37Z</time>
      </trkpt>
      <trkpt lat="43.66816" lon="3.90702">
        <ele>62</ele>
        <time>2021-03-27T13:21:38Z</time>
      </trkpt>
      <trkpt lat="43.66812" lon="3.90703">
        <ele>62</ele>
        <time>2021-03-27T13:21:39Z</time>
      </trkpt>
      <trkpt lat="43.66808" lon="3.90705">
        <ele>62</ele>
        <time>2021-03-27T13:21:40Z</time>
      </trkpt>
      <trkpt lat="43.66804" lon="3.90707">
        <ele>62</ele>
        <time>2021-03-27T13:21:41Z</time>
      </trkpt>
      <trkpt lat="43.66801" lon="3.9071">
        <ele>62</ele>
        <time>2021-03-27T13:21:42Z</time>
      </trkpt>
      <trkpt lat="43.66798" lon="3.90713">
        <ele>62</ele>
        <time>2021-03-27T13:21:43Z</time>
      </trkpt>
      <trkpt lat="43.66796" lon="3.90717">
        <ele>62</ele>
        <time>2021-03-27T13:21:44Z</time>
      </trkpt>
      <trkpt lat="43.66795" lon="3.9072">
        <ele>62</ele>
        <time>2021-03-27T13:21:45Z</time>
      </trkpt>
      <trkpt lat="43.66793" lon="3.90723">
        <ele>62</ele>
        <time>2021-03-27T13:21:46Z</time>
      </trkpt>
      <trkpt lat="43.66791" lon="3.90725">
        <ele>62</ele>
        <time>2021-03-27T13:21:47Z</time>
      </trkpt>
      <trkpt lat="43.6679" lon="3.90726">
        <ele>62</ele>
        <time>2021-03-27T13:21:48Z</time>
      </trkpt>
      <trkpt lat="43.66788" lon="3.90728">
        <ele>62</ele>
        <time>2021-03-27T13:21:49Z</time>
      </trkpt>
      <trkpt lat="43.66787" lon="3.90731">
        <ele>62</ele>
        <time>2021-03-27T13:21:50Z</time>
      </trkpt>
      <trkpt lat="43.66784" lon="3.90734">
        <ele>62</ele>
        <time>2021-03-27T13:21:52Z</time>
      </trkpt>
      <trkpt lat="43.66783" lon="3.90737">
        <ele>62</ele>
        <time>2021-03-27T13:21:53Z</time>
      </trkpt>
      <trkpt lat="43.66783" lon="3.90741">
        <ele>62</ele>
        <time>2021-03-27T13:21:54Z</time>
      </trkpt>
      <trkpt lat="43.66782" lon="3.90744">
        <ele>62</ele>
        <time>2021-03-27T13:21:55Z</time>
      </trkpt>
      <trkpt lat="43.66782" lon="3.90749">
        <ele>62</ele>
        <time>2021-03-27T13:21:56Z</time>
      </trkpt>
      <trkpt lat="43.66781" lon="3.90759">
        <ele>62</ele>
        <time>2021-03-27T13:21:58Z</time>
      </trkpt>
      <trkpt lat="43.66781" lon="3.90765">
        <ele>62</ele>
        <time>2021-03-27T13:21:59Z</time>
      </trkpt>
      <trkpt lat="43.6678" lon="3.90772">
        <ele>62</ele>
        <time>2021-03-27T13:22:00Z</time>
      </trkpt>
      <trkpt lat="43.66777" lon="3.90778">
        <ele>62</ele>
        <time>2021-03-27T13:22:01Z</time>
      </trkpt>
      <trkpt lat="43.66775" lon="3.90785">
        <ele>62</ele>
        <time>2021-03-27T13:22:02Z</time>
      </trkpt>
      <trkpt lat="43.66772" lon="3.9079">
        <ele>62</ele>
        <time>2021-03-27T13:22:03Z</time>
      </trkpt>
      <trkpt lat="43.66768" lon="3.90796">
        <ele>62</ele>
        <time>2021-03-27T13:22:04Z</time>
      </trkpt>
      <trkpt lat="43.66764" lon="3.90802">
        <ele>62</ele>
        <time>2021-03-27T13:22:05Z</time>
      </trkpt>
      <trkpt lat="43.6676" lon="3.90808">
        <ele>62</ele>
        <time>2021-03-27T13:22:06Z</time>
      </trkpt>
      <trkpt lat="43.66755" lon="3.90814">
        <ele>62</ele>
        <time>2021-03-27T13:22:07Z</time>
      </trkpt>
      <trkpt lat="43.66751" lon="3.9082">
        <ele>62</ele>
        <time>2021-03-27T13:22:08Z</time>
      </trkpt>
      <trkpt lat="43.66746" lon="3.90826">
        <ele>62</ele>
        <time>2021-03-27T13:22:09Z</time>
      </trkpt>
      <trkpt lat="43.66742" lon="3.90832">
        <ele>62</ele>
        <time>2021-03-27T13:22:10Z</time>
      </trkpt>
      <trkpt lat="43.66737" lon="3.90838">
        <ele>62</ele>
        <time>2021-03-27T13:22:11Z</time>
      </trkpt>
      <trkpt lat="43.66733" lon="3.90844">
        <ele>62</ele>
        <time>2021-03-27T13:22:12Z</time>
      </trkpt>
      <trkpt lat="43.66728" lon="3.90849">
        <ele>62</ele>
        <time>2021-03-27T13:22:13Z</time>
      </trkpt>
      <trkpt lat="43.66725" lon="3.90854">
        <ele>62</ele>
        <time>2021-03-27T13:22:14Z</time>
      </trkpt>
      <trkpt lat="43.66723" lon="3.90858">
        <ele>58</ele>
        <time>2021-03-27T13:22:15Z</time>
      </trkpt>
      <trkpt lat="43.66722" lon="3.90862">
        <ele>58</ele>
        <time>2021-03-27T13:22:16Z</time>
      </trkpt>
      <trkpt lat="43.66721" lon="3.90867">
        <ele>58</ele>
        <time>2021-03-27T13:22:17Z</time>
      </trkpt>
      <trkpt lat="43.66721" lon="3.90873">
        <ele>58</ele>
        <time>2021-03-27T13:22:18Z</time>
      </trkpt>
      <trkpt lat="43.66722" lon="3.90879">
        <ele>58</ele>
        <time>2021-03-27T13:22:19Z</time>
      </trkpt>
      <trkpt lat="43.66724" lon="3.90885">
        <ele>58</ele>
        <time>2021-03-27T13:22:20Z</time>
      </trkpt>
      <trkpt lat="43.66726" lon="3.9089">
        <ele>58</ele>
        <time>2021-03-27T13:22:21Z</time>
      </trkpt>
      <trkpt lat="43.66729" lon="3.90894">
        <ele>58</ele>
        <time>2021-03-27T13:22:22Z</time>
      </trkpt>
      <trkpt lat="43.6673" lon="3.90898">
        <ele>58</ele>
        <time>2021-03-27T13:22:23Z</time>
      </trkpt>
      <trkpt lat="43.6673" lon="3.90903">
        <ele>58</ele>
        <time>2021-03-27T13:22:24Z</time>
      </trkpt>
      <trkpt lat="43.6673" lon="3.90908">
        <ele>58</ele>
        <time>2021-03-27T13:22:25Z</time>
      </trkpt>
      <trkpt lat="43.6673" lon="3.90914">
        <ele>56</ele>
        <time>2021-03-27T13:22:26Z</time>
      </trkpt>
      <trkpt lat="43.6673" lon="3.9092">
        <ele>56</ele>
        <time>2021-03-27T13:22:27Z</time>
      </trkpt>
      <trkpt lat="43.66731" lon="3.90926">
        <ele>56</ele>
        <time>2021-03-27T13:22:28Z</time>
      </trkpt>
      <trkpt lat="43.66731" lon="3.90933">
        <ele>56</ele>
        <time>2021-03-27T13:22:29Z</time>
      </trkpt>
      <trkpt lat="43.66731" lon="3.90939">
        <ele>56</ele>
        <time>2021-03-27T13:22:30Z</time>
      </trkpt>
      <trkpt lat="43.66731" lon="3.90945">
        <ele>56</ele>
        <time>2021-03-27T13:22:31Z</time>
      </trkpt>
      <trkpt lat="43.66731" lon="3.90951">
        <ele>56</ele>
        <time>2021-03-27T13:22:32Z</time>
      </trkpt>
      <trkpt lat="43.66731" lon="3.90957">
        <ele>56</ele>
        <time>2021-03-27T13:22:33Z</time>
      </trkpt>
      <trkpt lat="43.6673" lon="3.90963">
        <ele>56</ele>
        <time>2021-03-27T13:22:34Z</time>
      </trkpt>
      <trkpt lat="43.66728" lon="3.90968">
        <ele>55</ele>
        <time>2021-03-27T13:22:35Z</time>
      </trkpt>
      <trkpt lat="43.66726" lon="3.90973">
        <ele>55</ele>
        <time>2021-03-27T13:22:36Z</time>
      </trkpt>
      <trkpt lat="43.66724" lon="3.90979">
        <ele>55</ele>
        <time>2021-03-27T13:22:37Z</time>
      </trkpt>
      <trkpt lat="43.66723" lon="3.90985">
        <ele>55</ele>
        <time>2021-03-27T13:22:38Z</time>
      </trkpt>
      <trkpt lat="43.66723" lon="3.9099">
        <ele>55</ele>
        <time>2021-03-27T13:22:39Z</time>
      </trkpt>
      <trkpt lat="43.66723" lon="3.90996">
        <ele>55</ele>
        <time>2021-03-27T13:22:40Z</time>
      </trkpt>
      <trkpt lat="43.66722" lon="3.91002">
        <ele>55</ele>
        <time>2021-03-27T13:22:41Z</time>
      </trkpt>
      <trkpt lat="43.66722" lon="3.91009">
        <ele>55</ele>
        <time>2021-03-27T13:22:42Z</time>
      </trkpt>
      <trkpt lat="43.66721" lon="3.91015">
        <ele>55</ele>
        <time>2021-03-27T13:22:43Z</time>
      </trkpt>
      <trkpt lat="43.66721" lon="3.91022">
        <ele>55</ele>
        <time>2021-03-27T13:22:44Z</time>
      </trkpt>
      <trkpt lat="43.66721" lon="3.91028">
        <ele>55</ele>
        <time>2021-03-27T13:22:45Z</time>
      </trkpt>
      <trkpt lat="43.6672" lon="3.91041">
        <ele>55</ele>
        <time>2021-03-27T13:22:46Z</time>
      </trkpt>
      <trkpt lat="43.6672" lon="3.91047">
        <ele>55</ele>
        <time>2021-03-27T13:22:47Z</time>
      </trkpt>
      <trkpt lat="43.66719" lon="3.91053">
        <ele>55</ele>
        <time>2021-03-27T13:22:48Z</time>
      </trkpt>
      <trkpt lat="43.66718" lon="3.91064">
        <ele>55</ele>
        <time>2021-03-27T13:22:50Z</time>
      </trkpt>
      <trkpt lat="43.66718" lon="3.9107">
        <ele>55</ele>
        <time>2021-03-27T13:22:51Z</time>
      </trkpt>
      <trkpt lat="43.66718" lon="3.91075">
        <ele>55</ele>
        <time>2021-03-27T13:22:52Z</time>
      </trkpt>
      <trkpt lat="43.66718" lon="3.91081">
        <ele>55</ele>
        <time>2021-03-27T13:22:53Z</time>
      </trkpt>
      <trkpt lat="43.66719" lon="3.91087">
        <ele>55</ele>
        <time>2021-03-27T13:22:54Z</time>
      </trkpt>
      <trkpt lat="43.66719" lon="3.91093">
        <ele>55</ele>
        <time>2021-03-27T13:22:56Z</time>
      </trkpt>
      <trkpt lat="43.6672" lon="3.911">
        <ele>55</ele>
        <time>2021-03-27T13:22:57Z</time>
      </trkpt>
      <trkpt lat="43.6672" lon="3.91106">
        <ele>55</ele>
        <time>2021-03-27T13:22:58Z</time>
      </trkpt>
      <trkpt lat="43.6672" lon="3.91112">
        <ele>55</ele>
        <time>2021-03-27T13:22:59Z</time>
      </trkpt>
      <trkpt lat="43.66721" lon="3.91118">
        <ele>55</ele>
        <time>2021-03-27T13:23:00Z</time>
      </trkpt>
      <trkpt lat="43.66722" lon="3.91124">
        <ele>55</ele>
        <time>2021-03-27T13:23:01Z</time>
      </trkpt>
      <trkpt lat="43.66722" lon="3.91129">
        <ele>55</ele>
        <time>2021-03-27T13:23:02Z</time>
      </trkpt>
      <trkpt lat="43.66723" lon="3.91134">
        <ele>55</ele>
        <time>2021-03-27T13:23:03Z</time>
      </trkpt>
      <trkpt lat="43.66725" lon="3.91137">
        <ele>55</ele>
        <time>2021-03-27T13:23:04Z</time>
      </trkpt>
      <trkpt lat="43.66727" lon="3.91141">
        <ele>55</ele>
        <time>2021-03-27T13:23:05Z</time>
      </trkpt>
      <trkpt lat="43.66729" lon="3.91144">
        <ele>54</ele>
        <time>2021-03-27T13:23:06Z</time>
      </trkpt>
      <trkpt lat="43.6673" lon="3.91148">
        <ele>54</ele>
        <time>2021-03-27T13:23:07Z</time>
      </trkpt>
      <trkpt lat="43.6673" lon="3.91153">
        <ele>54</ele>
        <time>2021-03-27T13:23:08Z</time>
      </trkpt>
      <trkpt lat="43.66731" lon="3.91157">
        <ele>54</ele>
        <time>2021-03-27T13:23:09Z</time>
      </trkpt>
      <trkpt lat="43.66732" lon="3.91161">
        <ele>54</ele>
        <time>2021-03-27T13:23:10Z</time>
      </trkpt>
      <trkpt lat="43.66733" lon="3.91165">
        <ele>54</ele>
        <time>2021-03-27T13:23:11Z</time>
      </trkpt>
      <trkpt lat="43.66734" lon="3.9117">
        <ele>54</ele>
        <time>2021-03-27T13:23:12Z</time>
      </trkpt>
      <trkpt lat="43.66736" lon="3.91174">
        <ele>54</ele>
        <time>2021-03-27T13:23:13Z</time>
      </trkpt>
      <trkpt lat="43.66737" lon="3.91179">
        <ele>54</ele>
        <time>2021-03-27T13:23:14Z</time>
      </trkpt>
      <trkpt lat="43.66739" lon="3.91183">
        <ele>54</ele>
        <time>2021-03-27T13:23:15Z</time>
      </trkpt>
      <trkpt lat="43.6674" lon="3.91188">
        <ele>54</ele>
        <time>2021-03-27T13:23:16Z</time>
      </trkpt>
      <trkpt lat="43.66741" lon="3.91191">
        <ele>54</ele>
        <time>2021-03-27T13:23:17Z</time>
      </trkpt>
      <trkpt lat="43.66742" lon="3.91195">
        <ele>54</ele>
        <time>2021-03-27T13:23:19Z</time>
      </trkpt>
      <trkpt lat="43.66742" lon="3.91197">
        <ele>54</ele>
        <time>2021-03-27T13:23:23Z</time>
      </trkpt>
      <trkpt lat="43.66742" lon="3.91197">
        <ele>54</ele>
        <time>2021-03-27T13:23:30Z</time>
      </trkpt>
    </trkseg>
  </trk>
</gpx>